<?xml version="1.0" encoding="UTF-8" standalone="no" ?>
<gpx xmlns="http://www.topografix.com/GPX/1/1" xmlns:xsi="http://www.w3.org/2001/XMLSchema-instance" xsi:schemaLocation="http://www.topografix.com/GPX/1/1 http://www.topografix.com/GPX/1/1/gpx.xsd" version="1.1" creator="VisuGPX - https://www.visugpx.com">
  <metadata>
    <name>E-O-St Luce Carquefou St Mars Le Ceillier St Seb Vertou Rezé</name>
    <desc><![CDATA[E-O-St Luce Carquefou St Mars Le Ceillier St Seb Vertou Rezé]]></desc>
  </metadata>
  <trk>
    <name><![CDATA[2020-05-16 11:57]]></name>
    <desc><![CDATA[<p>Heure de départ: 05/16/2020 11:57<br/>Heure d'arrivée: 05/16/2020 15:36<br/>Distance: 85,2 km (03:39)<br/>Temps déplacement: 03:17<br/>Vitesse moyenne: 23,34 km/h<br/>Vitesse moyenne mouv.: 25,87 km/h<br/>Vitesse Max.: 46,8 km/h<br/>Altitude minimale: -12 m<br/>Altitude maximale: 86 m<br/>Vitesse de montée: 354,2 m/h<br/>Vitesse de descente: -429,1 m/h<br/>Gain d'altitude: 390 m<br/>Perte d'altitude: -391 m<br/>Temps de montée: 01:06<br/>Temps de descente: 00:54<br/></p><hr align="center" width="480" style="height: 2px; width: 517px"/>]]></desc>
    <trkseg>
      <trkpt lat="47.16774" lon="-1.62649">
        <ele>35.35</ele>
        <time>2020-05-16T09:57:26Z</time>
      </trkpt>
      <trkpt lat="47.16783" lon="-1.62654">
        <ele>14.76</ele>
        <time>2020-05-16T09:58:13Z</time>
      </trkpt>
      <trkpt lat="47.16792" lon="-1.6264">
        <ele>15.44</ele>
        <time>2020-05-16T09:58:17Z</time>
      </trkpt>
      <trkpt lat="47.168" lon="-1.62628">
        <ele>15.95</ele>
        <time>2020-05-16T09:58:19Z</time>
      </trkpt>
      <trkpt lat="47.16808" lon="-1.62616">
        <ele>15.87</ele>
        <time>2020-05-16T09:58:21Z</time>
      </trkpt>
      <trkpt lat="47.16816" lon="-1.62604">
        <ele>16.1</ele>
        <time>2020-05-16T09:58:23Z</time>
      </trkpt>
      <trkpt lat="47.16823" lon="-1.62593">
        <ele>16.17</ele>
        <time>2020-05-16T09:58:25Z</time>
      </trkpt>
      <trkpt lat="47.16828" lon="-1.62578">
        <ele>16.05</ele>
        <time>2020-05-16T09:58:27Z</time>
      </trkpt>
      <trkpt lat="47.16823" lon="-1.62562">
        <ele>14.91</ele>
        <time>2020-05-16T09:58:30Z</time>
      </trkpt>
      <trkpt lat="47.16814" lon="-1.62554">
        <ele>14.85</ele>
        <time>2020-05-16T09:58:34Z</time>
      </trkpt>
      <trkpt lat="47.16806" lon="-1.62559">
        <ele>15.24</ele>
        <time>2020-05-16T09:58:49Z</time>
      </trkpt>
      <trkpt lat="47.16815" lon="-1.62559">
        <ele>26.96</ele>
        <time>2020-05-16T10:10:30Z</time>
      </trkpt>
      <trkpt lat="47.16809" lon="-1.62545">
        <ele>26.51</ele>
        <time>2020-05-16T10:10:34Z</time>
      </trkpt>
      <trkpt lat="47.16797" lon="-1.6254">
        <ele>25.68</ele>
        <time>2020-05-16T10:10:37Z</time>
      </trkpt>
      <trkpt lat="47.16788" lon="-1.62534">
        <ele>24.49</ele>
        <time>2020-05-16T10:10:39Z</time>
      </trkpt>
      <trkpt lat="47.16779" lon="-1.62527">
        <ele>23.4</ele>
        <time>2020-05-16T10:10:41Z</time>
      </trkpt>
      <trkpt lat="47.16769" lon="-1.62521">
        <ele>22.84</ele>
        <time>2020-05-16T10:10:43Z</time>
      </trkpt>
      <trkpt lat="47.16759" lon="-1.62515">
        <ele>22.37</ele>
        <time>2020-05-16T10:10:45Z</time>
      </trkpt>
      <trkpt lat="47.16749" lon="-1.62509">
        <ele>21.76</ele>
        <time>2020-05-16T10:10:47Z</time>
      </trkpt>
      <trkpt lat="47.16738" lon="-1.62504">
        <ele>20.68</ele>
        <time>2020-05-16T10:10:49Z</time>
      </trkpt>
      <trkpt lat="47.16727" lon="-1.625">
        <ele>19.47</ele>
        <time>2020-05-16T10:10:51Z</time>
      </trkpt>
      <trkpt lat="47.16717" lon="-1.62496">
        <ele>18.17</ele>
        <time>2020-05-16T10:10:53Z</time>
      </trkpt>
      <trkpt lat="47.1671" lon="-1.6248">
        <ele>17.81</ele>
        <time>2020-05-16T10:10:56Z</time>
      </trkpt>
      <trkpt lat="47.16711" lon="-1.62466">
        <ele>18.36</ele>
        <time>2020-05-16T10:10:58Z</time>
      </trkpt>
      <trkpt lat="47.16714" lon="-1.6245">
        <ele>18.74</ele>
        <time>2020-05-16T10:11:01Z</time>
      </trkpt>
      <trkpt lat="47.16717" lon="-1.62432">
        <ele>19.68</ele>
        <time>2020-05-16T10:11:04Z</time>
      </trkpt>
      <trkpt lat="47.16721" lon="-1.62419">
        <ele>20.64</ele>
        <time>2020-05-16T10:11:06Z</time>
      </trkpt>
      <trkpt lat="47.16725" lon="-1.62406">
        <ele>20.84</ele>
        <time>2020-05-16T10:11:08Z</time>
      </trkpt>
      <trkpt lat="47.16729" lon="-1.6239">
        <ele>20.26</ele>
        <time>2020-05-16T10:11:10Z</time>
      </trkpt>
      <trkpt lat="47.16734" lon="-1.62376">
        <ele>20.32</ele>
        <time>2020-05-16T10:11:12Z</time>
      </trkpt>
      <trkpt lat="47.16742" lon="-1.62363">
        <ele>20</ele>
        <time>2020-05-16T10:11:14Z</time>
      </trkpt>
      <trkpt lat="47.16752" lon="-1.62353">
        <ele>19.67</ele>
        <time>2020-05-16T10:11:16Z</time>
      </trkpt>
      <trkpt lat="47.16764" lon="-1.62343">
        <ele>19.63</ele>
        <time>2020-05-16T10:11:18Z</time>
      </trkpt>
      <trkpt lat="47.16775" lon="-1.62336">
        <ele>19.89</ele>
        <time>2020-05-16T10:11:20Z</time>
      </trkpt>
      <trkpt lat="47.16785" lon="-1.62331">
        <ele>20.65</ele>
        <time>2020-05-16T10:11:22Z</time>
      </trkpt>
      <trkpt lat="47.16796" lon="-1.62326">
        <ele>21.44</ele>
        <time>2020-05-16T10:11:24Z</time>
      </trkpt>
      <trkpt lat="47.16808" lon="-1.62319">
        <ele>20.98</ele>
        <time>2020-05-16T10:11:26Z</time>
      </trkpt>
      <trkpt lat="47.16819" lon="-1.62311">
        <ele>21.94</ele>
        <time>2020-05-16T10:11:28Z</time>
      </trkpt>
      <trkpt lat="47.16832" lon="-1.62301">
        <ele>22.47</ele>
        <time>2020-05-16T10:11:30Z</time>
      </trkpt>
      <trkpt lat="47.16841" lon="-1.62291">
        <ele>22.14</ele>
        <time>2020-05-16T10:11:32Z</time>
      </trkpt>
      <trkpt lat="47.16848" lon="-1.62282">
        <ele>22.64</ele>
        <time>2020-05-16T10:11:34Z</time>
      </trkpt>
      <trkpt lat="47.16859" lon="-1.62269">
        <ele>22.84</ele>
        <time>2020-05-16T10:11:36Z</time>
      </trkpt>
      <trkpt lat="47.16869" lon="-1.62256">
        <ele>22.63</ele>
        <time>2020-05-16T10:11:38Z</time>
      </trkpt>
      <trkpt lat="47.16877" lon="-1.62245">
        <ele>21.99</ele>
        <time>2020-05-16T10:11:40Z</time>
      </trkpt>
      <trkpt lat="47.16884" lon="-1.62236">
        <ele>21.51</ele>
        <time>2020-05-16T10:11:42Z</time>
      </trkpt>
      <trkpt lat="47.16893" lon="-1.62222">
        <ele>20.3</ele>
        <time>2020-05-16T10:11:44Z</time>
      </trkpt>
      <trkpt lat="47.16902" lon="-1.62209">
        <ele>20.19</ele>
        <time>2020-05-16T10:11:46Z</time>
      </trkpt>
      <trkpt lat="47.16912" lon="-1.62194">
        <ele>21.32</ele>
        <time>2020-05-16T10:11:48Z</time>
      </trkpt>
      <trkpt lat="47.16921" lon="-1.62179">
        <ele>21.68</ele>
        <time>2020-05-16T10:11:50Z</time>
      </trkpt>
      <trkpt lat="47.16928" lon="-1.62166">
        <ele>21.7</ele>
        <time>2020-05-16T10:11:52Z</time>
      </trkpt>
      <trkpt lat="47.16935" lon="-1.62152">
        <ele>21.53</ele>
        <time>2020-05-16T10:11:54Z</time>
      </trkpt>
      <trkpt lat="47.16943" lon="-1.62137">
        <ele>20.29</ele>
        <time>2020-05-16T10:11:56Z</time>
      </trkpt>
      <trkpt lat="47.1695" lon="-1.62122">
        <ele>19.8</ele>
        <time>2020-05-16T10:11:58Z</time>
      </trkpt>
      <trkpt lat="47.16958" lon="-1.62107">
        <ele>19.59</ele>
        <time>2020-05-16T10:12:00Z</time>
      </trkpt>
      <trkpt lat="47.16964" lon="-1.62094">
        <ele>18.82</ele>
        <time>2020-05-16T10:12:02Z</time>
      </trkpt>
      <trkpt lat="47.16972" lon="-1.6208">
        <ele>18.27</ele>
        <time>2020-05-16T10:12:04Z</time>
      </trkpt>
      <trkpt lat="47.1698" lon="-1.62064">
        <ele>17.87</ele>
        <time>2020-05-16T10:12:06Z</time>
      </trkpt>
      <trkpt lat="47.16987" lon="-1.62049">
        <ele>17.52</ele>
        <time>2020-05-16T10:12:08Z</time>
      </trkpt>
      <trkpt lat="47.16995" lon="-1.62036">
        <ele>17.62</ele>
        <time>2020-05-16T10:12:10Z</time>
      </trkpt>
      <trkpt lat="47.17004" lon="-1.62021">
        <ele>17.71</ele>
        <time>2020-05-16T10:12:12Z</time>
      </trkpt>
      <trkpt lat="47.17011" lon="-1.62011">
        <ele>16.85</ele>
        <time>2020-05-16T10:12:14Z</time>
      </trkpt>
      <trkpt lat="47.17019" lon="-1.61998">
        <ele>16.22</ele>
        <time>2020-05-16T10:12:16Z</time>
      </trkpt>
      <trkpt lat="47.17027" lon="-1.61985">
        <ele>16.09</ele>
        <time>2020-05-16T10:12:18Z</time>
      </trkpt>
      <trkpt lat="47.17037" lon="-1.61971">
        <ele>16.95</ele>
        <time>2020-05-16T10:12:20Z</time>
      </trkpt>
      <trkpt lat="47.17046" lon="-1.61959">
        <ele>17.54</ele>
        <time>2020-05-16T10:12:22Z</time>
      </trkpt>
      <trkpt lat="47.17053" lon="-1.61949">
        <ele>17.51</ele>
        <time>2020-05-16T10:12:24Z</time>
      </trkpt>
      <trkpt lat="47.17061" lon="-1.61938">
        <ele>17.84</ele>
        <time>2020-05-16T10:12:26Z</time>
      </trkpt>
      <trkpt lat="47.17072" lon="-1.61924">
        <ele>18.16</ele>
        <time>2020-05-16T10:12:28Z</time>
      </trkpt>
      <trkpt lat="47.17085" lon="-1.61911">
        <ele>18.49</ele>
        <time>2020-05-16T10:12:31Z</time>
      </trkpt>
      <trkpt lat="47.17094" lon="-1.61901">
        <ele>18.76</ele>
        <time>2020-05-16T10:12:33Z</time>
      </trkpt>
      <trkpt lat="47.17105" lon="-1.61891">
        <ele>18.34</ele>
        <time>2020-05-16T10:12:35Z</time>
      </trkpt>
      <trkpt lat="47.17116" lon="-1.61882">
        <ele>17.81</ele>
        <time>2020-05-16T10:12:37Z</time>
      </trkpt>
      <trkpt lat="47.17126" lon="-1.61872">
        <ele>18.07</ele>
        <time>2020-05-16T10:12:39Z</time>
      </trkpt>
      <trkpt lat="47.17135" lon="-1.61865">
        <ele>18.22</ele>
        <time>2020-05-16T10:12:41Z</time>
      </trkpt>
      <trkpt lat="47.17147" lon="-1.61854">
        <ele>18.58</ele>
        <time>2020-05-16T10:12:43Z</time>
      </trkpt>
      <trkpt lat="47.17156" lon="-1.61846">
        <ele>18.7</ele>
        <time>2020-05-16T10:12:45Z</time>
      </trkpt>
      <trkpt lat="47.17166" lon="-1.61837">
        <ele>17.96</ele>
        <time>2020-05-16T10:12:47Z</time>
      </trkpt>
      <trkpt lat="47.17175" lon="-1.61828">
        <ele>18.77</ele>
        <time>2020-05-16T10:12:49Z</time>
      </trkpt>
      <trkpt lat="47.17186" lon="-1.61818">
        <ele>19.72</ele>
        <time>2020-05-16T10:12:51Z</time>
      </trkpt>
      <trkpt lat="47.17196" lon="-1.61808">
        <ele>19.38</ele>
        <time>2020-05-16T10:12:53Z</time>
      </trkpt>
      <trkpt lat="47.17206" lon="-1.61798">
        <ele>18.65</ele>
        <time>2020-05-16T10:12:55Z</time>
      </trkpt>
      <trkpt lat="47.17214" lon="-1.61789">
        <ele>17.46</ele>
        <time>2020-05-16T10:12:57Z</time>
      </trkpt>
      <trkpt lat="47.17223" lon="-1.61773">
        <ele>16.25</ele>
        <time>2020-05-16T10:12:59Z</time>
      </trkpt>
      <trkpt lat="47.17228" lon="-1.61757">
        <ele>14.69</ele>
        <time>2020-05-16T10:13:01Z</time>
      </trkpt>
      <trkpt lat="47.17235" lon="-1.61741">
        <ele>14.18</ele>
        <time>2020-05-16T10:13:03Z</time>
      </trkpt>
      <trkpt lat="47.17242" lon="-1.61731">
        <ele>12.82</ele>
        <time>2020-05-16T10:13:05Z</time>
      </trkpt>
      <trkpt lat="47.1725" lon="-1.61717">
        <ele>13.2</ele>
        <time>2020-05-16T10:13:07Z</time>
      </trkpt>
      <trkpt lat="47.17257" lon="-1.61702">
        <ele>14.36</ele>
        <time>2020-05-16T10:13:09Z</time>
      </trkpt>
      <trkpt lat="47.17264" lon="-1.61686">
        <ele>15.77</ele>
        <time>2020-05-16T10:13:11Z</time>
      </trkpt>
      <trkpt lat="47.1727" lon="-1.61672">
        <ele>16.17</ele>
        <time>2020-05-16T10:13:13Z</time>
      </trkpt>
      <trkpt lat="47.17278" lon="-1.61656">
        <ele>17.37</ele>
        <time>2020-05-16T10:13:15Z</time>
      </trkpt>
      <trkpt lat="47.17286" lon="-1.61642">
        <ele>16.81</ele>
        <time>2020-05-16T10:13:17Z</time>
      </trkpt>
      <trkpt lat="47.17293" lon="-1.6163">
        <ele>16.98</ele>
        <time>2020-05-16T10:13:19Z</time>
      </trkpt>
      <trkpt lat="47.17302" lon="-1.61616">
        <ele>18.09</ele>
        <time>2020-05-16T10:13:21Z</time>
      </trkpt>
      <trkpt lat="47.17309" lon="-1.61604">
        <ele>18.37</ele>
        <time>2020-05-16T10:13:23Z</time>
      </trkpt>
      <trkpt lat="47.17319" lon="-1.6159">
        <ele>19.37</ele>
        <time>2020-05-16T10:13:25Z</time>
      </trkpt>
      <trkpt lat="47.17327" lon="-1.61579">
        <ele>19.79</ele>
        <time>2020-05-16T10:13:27Z</time>
      </trkpt>
      <trkpt lat="47.17336" lon="-1.61568">
        <ele>19.99</ele>
        <time>2020-05-16T10:13:29Z</time>
      </trkpt>
      <trkpt lat="47.17345" lon="-1.61557">
        <ele>19.86</ele>
        <time>2020-05-16T10:13:31Z</time>
      </trkpt>
      <trkpt lat="47.17356" lon="-1.61546">
        <ele>19.47</ele>
        <time>2020-05-16T10:13:33Z</time>
      </trkpt>
      <trkpt lat="47.17365" lon="-1.61536">
        <ele>19.66</ele>
        <time>2020-05-16T10:13:35Z</time>
      </trkpt>
      <trkpt lat="47.17375" lon="-1.61526">
        <ele>19.62</ele>
        <time>2020-05-16T10:13:37Z</time>
      </trkpt>
      <trkpt lat="47.17384" lon="-1.61518">
        <ele>18.86</ele>
        <time>2020-05-16T10:13:39Z</time>
      </trkpt>
      <trkpt lat="47.17396" lon="-1.61508">
        <ele>18.01</ele>
        <time>2020-05-16T10:13:41Z</time>
      </trkpt>
      <trkpt lat="47.17408" lon="-1.61498">
        <ele>16.77</ele>
        <time>2020-05-16T10:13:43Z</time>
      </trkpt>
      <trkpt lat="47.17422" lon="-1.61489">
        <ele>15.94</ele>
        <time>2020-05-16T10:13:45Z</time>
      </trkpt>
      <trkpt lat="47.17434" lon="-1.61481">
        <ele>15.49</ele>
        <time>2020-05-16T10:13:47Z</time>
      </trkpt>
      <trkpt lat="47.17445" lon="-1.61476">
        <ele>15.51</ele>
        <time>2020-05-16T10:13:49Z</time>
      </trkpt>
      <trkpt lat="47.17457" lon="-1.6147">
        <ele>15.05</ele>
        <time>2020-05-16T10:13:51Z</time>
      </trkpt>
      <trkpt lat="47.17472" lon="-1.61464">
        <ele>14.93</ele>
        <time>2020-05-16T10:13:53Z</time>
      </trkpt>
      <trkpt lat="47.17483" lon="-1.6146">
        <ele>15.01</ele>
        <time>2020-05-16T10:13:55Z</time>
      </trkpt>
      <trkpt lat="47.17498" lon="-1.61455">
        <ele>15.35</ele>
        <time>2020-05-16T10:13:57Z</time>
      </trkpt>
      <trkpt lat="47.17506" lon="-1.61449">
        <ele>15.19</ele>
        <time>2020-05-16T10:13:59Z</time>
      </trkpt>
      <trkpt lat="47.17513" lon="-1.61432">
        <ele>14.69</ele>
        <time>2020-05-16T10:14:01Z</time>
      </trkpt>
      <trkpt lat="47.17516" lon="-1.61412">
        <ele>13.58</ele>
        <time>2020-05-16T10:14:03Z</time>
      </trkpt>
      <trkpt lat="47.1752" lon="-1.61391">
        <ele>12.91</ele>
        <time>2020-05-16T10:14:05Z</time>
      </trkpt>
      <trkpt lat="47.17524" lon="-1.61371">
        <ele>12.55</ele>
        <time>2020-05-16T10:14:07Z</time>
      </trkpt>
      <trkpt lat="47.17526" lon="-1.61351">
        <ele>12.28</ele>
        <time>2020-05-16T10:14:09Z</time>
      </trkpt>
      <trkpt lat="47.17523" lon="-1.61331">
        <ele>12.16</ele>
        <time>2020-05-16T10:14:11Z</time>
      </trkpt>
      <trkpt lat="47.17521" lon="-1.61314">
        <ele>12.2</ele>
        <time>2020-05-16T10:14:13Z</time>
      </trkpt>
      <trkpt lat="47.17518" lon="-1.61294">
        <ele>11.8</ele>
        <time>2020-05-16T10:14:15Z</time>
      </trkpt>
      <trkpt lat="47.17512" lon="-1.61276">
        <ele>9.87</ele>
        <time>2020-05-16T10:14:17Z</time>
      </trkpt>
      <trkpt lat="47.17504" lon="-1.61261">
        <ele>9.15</ele>
        <time>2020-05-16T10:14:19Z</time>
      </trkpt>
      <trkpt lat="47.17496" lon="-1.61244">
        <ele>8.67</ele>
        <time>2020-05-16T10:14:21Z</time>
      </trkpt>
      <trkpt lat="47.17489" lon="-1.61228">
        <ele>9.31</ele>
        <time>2020-05-16T10:14:23Z</time>
      </trkpt>
      <trkpt lat="47.17483" lon="-1.61212">
        <ele>10.32</ele>
        <time>2020-05-16T10:14:25Z</time>
      </trkpt>
      <trkpt lat="47.17475" lon="-1.61196">
        <ele>9.84</ele>
        <time>2020-05-16T10:14:27Z</time>
      </trkpt>
      <trkpt lat="47.17468" lon="-1.6118">
        <ele>9.32</ele>
        <time>2020-05-16T10:14:29Z</time>
      </trkpt>
      <trkpt lat="47.17461" lon="-1.61164">
        <ele>8.51</ele>
        <time>2020-05-16T10:14:31Z</time>
      </trkpt>
      <trkpt lat="47.17455" lon="-1.61148">
        <ele>8.26</ele>
        <time>2020-05-16T10:14:33Z</time>
      </trkpt>
      <trkpt lat="47.17448" lon="-1.61132">
        <ele>7.97</ele>
        <time>2020-05-16T10:14:35Z</time>
      </trkpt>
      <trkpt lat="47.17441" lon="-1.61115">
        <ele>8.64</ele>
        <time>2020-05-16T10:14:37Z</time>
      </trkpt>
      <trkpt lat="47.17434" lon="-1.61097">
        <ele>9.18</ele>
        <time>2020-05-16T10:14:39Z</time>
      </trkpt>
      <trkpt lat="47.17427" lon="-1.61079">
        <ele>8.38</ele>
        <time>2020-05-16T10:14:41Z</time>
      </trkpt>
      <trkpt lat="47.17419" lon="-1.61062">
        <ele>7.88</ele>
        <time>2020-05-16T10:14:43Z</time>
      </trkpt>
      <trkpt lat="47.17411" lon="-1.61042">
        <ele>6.97</ele>
        <time>2020-05-16T10:14:45Z</time>
      </trkpt>
      <trkpt lat="47.17398" lon="-1.61031">
        <ele>4.78</ele>
        <time>2020-05-16T10:14:47Z</time>
      </trkpt>
      <trkpt lat="47.17388" lon="-1.61018">
        <ele>3.45</ele>
        <time>2020-05-16T10:14:49Z</time>
      </trkpt>
      <trkpt lat="47.17384" lon="-1.60999">
        <ele>3.32</ele>
        <time>2020-05-16T10:14:51Z</time>
      </trkpt>
      <trkpt lat="47.17386" lon="-1.60979">
        <ele>2.78</ele>
        <time>2020-05-16T10:14:53Z</time>
      </trkpt>
      <trkpt lat="47.17389" lon="-1.60958">
        <ele>3.28</ele>
        <time>2020-05-16T10:14:55Z</time>
      </trkpt>
      <trkpt lat="47.17389" lon="-1.6094">
        <ele>4.48</ele>
        <time>2020-05-16T10:14:57Z</time>
      </trkpt>
      <trkpt lat="47.17389" lon="-1.60918">
        <ele>4.87</ele>
        <time>2020-05-16T10:14:59Z</time>
      </trkpt>
      <trkpt lat="47.17388" lon="-1.609">
        <ele>5.7</ele>
        <time>2020-05-16T10:15:01Z</time>
      </trkpt>
      <trkpt lat="47.17387" lon="-1.60885">
        <ele>6.8</ele>
        <time>2020-05-16T10:15:03Z</time>
      </trkpt>
      <trkpt lat="47.17388" lon="-1.60866">
        <ele>7.42</ele>
        <time>2020-05-16T10:15:05Z</time>
      </trkpt>
      <trkpt lat="47.17389" lon="-1.6085">
        <ele>8.43</ele>
        <time>2020-05-16T10:15:07Z</time>
      </trkpt>
      <trkpt lat="47.17391" lon="-1.60832">
        <ele>9.33</ele>
        <time>2020-05-16T10:15:09Z</time>
      </trkpt>
      <trkpt lat="47.17394" lon="-1.60813">
        <ele>9.77</ele>
        <time>2020-05-16T10:15:11Z</time>
      </trkpt>
      <trkpt lat="47.17398" lon="-1.60799">
        <ele>9.24</ele>
        <time>2020-05-16T10:15:13Z</time>
      </trkpt>
      <trkpt lat="47.17403" lon="-1.60784">
        <ele>10.01</ele>
        <time>2020-05-16T10:15:15Z</time>
      </trkpt>
      <trkpt lat="47.17408" lon="-1.60769">
        <ele>10.03</ele>
        <time>2020-05-16T10:15:17Z</time>
      </trkpt>
      <trkpt lat="47.17413" lon="-1.60755">
        <ele>9.44</ele>
        <time>2020-05-16T10:15:19Z</time>
      </trkpt>
      <trkpt lat="47.1742" lon="-1.60742">
        <ele>8.69</ele>
        <time>2020-05-16T10:15:21Z</time>
      </trkpt>
      <trkpt lat="47.17425" lon="-1.60731">
        <ele>8.5</ele>
        <time>2020-05-16T10:15:23Z</time>
      </trkpt>
      <trkpt lat="47.17434" lon="-1.60717">
        <ele>9.17</ele>
        <time>2020-05-16T10:15:25Z</time>
      </trkpt>
      <trkpt lat="47.17442" lon="-1.60705">
        <ele>9.42</ele>
        <time>2020-05-16T10:15:27Z</time>
      </trkpt>
      <trkpt lat="47.17449" lon="-1.60694">
        <ele>9.53</ele>
        <time>2020-05-16T10:15:29Z</time>
      </trkpt>
      <trkpt lat="47.17457" lon="-1.6068">
        <ele>8.63</ele>
        <time>2020-05-16T10:15:31Z</time>
      </trkpt>
      <trkpt lat="47.17465" lon="-1.60668">
        <ele>8.91</ele>
        <time>2020-05-16T10:15:33Z</time>
      </trkpt>
      <trkpt lat="47.17472" lon="-1.60656">
        <ele>9.55</ele>
        <time>2020-05-16T10:15:35Z</time>
      </trkpt>
      <trkpt lat="47.1748" lon="-1.60642">
        <ele>9.84</ele>
        <time>2020-05-16T10:15:37Z</time>
      </trkpt>
      <trkpt lat="47.17486" lon="-1.6063">
        <ele>9.52</ele>
        <time>2020-05-16T10:15:39Z</time>
      </trkpt>
      <trkpt lat="47.17494" lon="-1.60615">
        <ele>8.38</ele>
        <time>2020-05-16T10:15:41Z</time>
      </trkpt>
      <trkpt lat="47.175" lon="-1.60603">
        <ele>8.63</ele>
        <time>2020-05-16T10:15:43Z</time>
      </trkpt>
      <trkpt lat="47.17507" lon="-1.60592">
        <ele>9.91</ele>
        <time>2020-05-16T10:15:45Z</time>
      </trkpt>
      <trkpt lat="47.17516" lon="-1.60578">
        <ele>10.18</ele>
        <time>2020-05-16T10:15:47Z</time>
      </trkpt>
      <trkpt lat="47.17524" lon="-1.60565">
        <ele>9.64</ele>
        <time>2020-05-16T10:15:49Z</time>
      </trkpt>
      <trkpt lat="47.17531" lon="-1.60555">
        <ele>10.19</ele>
        <time>2020-05-16T10:15:51Z</time>
      </trkpt>
      <trkpt lat="47.17539" lon="-1.60542">
        <ele>9.66</ele>
        <time>2020-05-16T10:15:53Z</time>
      </trkpt>
      <trkpt lat="47.17547" lon="-1.6053">
        <ele>8.8</ele>
        <time>2020-05-16T10:15:55Z</time>
      </trkpt>
      <trkpt lat="47.17555" lon="-1.60517">
        <ele>8.54</ele>
        <time>2020-05-16T10:15:57Z</time>
      </trkpt>
      <trkpt lat="47.17563" lon="-1.60505">
        <ele>9.01</ele>
        <time>2020-05-16T10:15:59Z</time>
      </trkpt>
      <trkpt lat="47.17571" lon="-1.60493">
        <ele>9.23</ele>
        <time>2020-05-16T10:16:01Z</time>
      </trkpt>
      <trkpt lat="47.17578" lon="-1.60482">
        <ele>9.55</ele>
        <time>2020-05-16T10:16:03Z</time>
      </trkpt>
      <trkpt lat="47.17587" lon="-1.60468">
        <ele>10.62</ele>
        <time>2020-05-16T10:16:05Z</time>
      </trkpt>
      <trkpt lat="47.17596" lon="-1.60454">
        <ele>11.93</ele>
        <time>2020-05-16T10:16:07Z</time>
      </trkpt>
      <trkpt lat="47.17604" lon="-1.60441">
        <ele>13.05</ele>
        <time>2020-05-16T10:16:09Z</time>
      </trkpt>
      <trkpt lat="47.17611" lon="-1.60429">
        <ele>14.76</ele>
        <time>2020-05-16T10:16:11Z</time>
      </trkpt>
      <trkpt lat="47.17619" lon="-1.60416">
        <ele>15.29</ele>
        <time>2020-05-16T10:16:13Z</time>
      </trkpt>
      <trkpt lat="47.17625" lon="-1.60406">
        <ele>15.56</ele>
        <time>2020-05-16T10:16:15Z</time>
      </trkpt>
      <trkpt lat="47.17633" lon="-1.60394">
        <ele>16.06</ele>
        <time>2020-05-16T10:16:17Z</time>
      </trkpt>
      <trkpt lat="47.1764" lon="-1.60383">
        <ele>16.39</ele>
        <time>2020-05-16T10:16:19Z</time>
      </trkpt>
      <trkpt lat="47.17647" lon="-1.60372">
        <ele>15.7</ele>
        <time>2020-05-16T10:16:21Z</time>
      </trkpt>
      <trkpt lat="47.17654" lon="-1.60361">
        <ele>16.21</ele>
        <time>2020-05-16T10:16:23Z</time>
      </trkpt>
      <trkpt lat="47.17663" lon="-1.6035">
        <ele>17.14</ele>
        <time>2020-05-16T10:16:25Z</time>
      </trkpt>
      <trkpt lat="47.17671" lon="-1.6034">
        <ele>17.32</ele>
        <time>2020-05-16T10:16:27Z</time>
      </trkpt>
      <trkpt lat="47.17678" lon="-1.6033">
        <ele>17.15</ele>
        <time>2020-05-16T10:16:29Z</time>
      </trkpt>
      <trkpt lat="47.17688" lon="-1.60314">
        <ele>16.84</ele>
        <time>2020-05-16T10:16:32Z</time>
      </trkpt>
      <trkpt lat="47.17697" lon="-1.60302">
        <ele>16.94</ele>
        <time>2020-05-16T10:16:34Z</time>
      </trkpt>
      <trkpt lat="47.17705" lon="-1.60291">
        <ele>16.58</ele>
        <time>2020-05-16T10:16:36Z</time>
      </trkpt>
      <trkpt lat="47.17714" lon="-1.60278">
        <ele>16.37</ele>
        <time>2020-05-16T10:16:38Z</time>
      </trkpt>
      <trkpt lat="47.17721" lon="-1.60265">
        <ele>16.16</ele>
        <time>2020-05-16T10:16:40Z</time>
      </trkpt>
      <trkpt lat="47.17727" lon="-1.60252">
        <ele>14.82</ele>
        <time>2020-05-16T10:16:42Z</time>
      </trkpt>
      <trkpt lat="47.17732" lon="-1.60237">
        <ele>15.18</ele>
        <time>2020-05-16T10:16:44Z</time>
      </trkpt>
      <trkpt lat="47.17736" lon="-1.60221">
        <ele>15.5</ele>
        <time>2020-05-16T10:16:46Z</time>
      </trkpt>
      <trkpt lat="47.17739" lon="-1.60207">
        <ele>15.82</ele>
        <time>2020-05-16T10:16:48Z</time>
      </trkpt>
      <trkpt lat="47.17743" lon="-1.60191">
        <ele>16.44</ele>
        <time>2020-05-16T10:16:50Z</time>
      </trkpt>
      <trkpt lat="47.17748" lon="-1.60174">
        <ele>15.91</ele>
        <time>2020-05-16T10:16:52Z</time>
      </trkpt>
      <trkpt lat="47.17755" lon="-1.60157">
        <ele>14.64</ele>
        <time>2020-05-16T10:16:54Z</time>
      </trkpt>
      <trkpt lat="47.17763" lon="-1.60141">
        <ele>14.14</ele>
        <time>2020-05-16T10:16:56Z</time>
      </trkpt>
      <trkpt lat="47.17772" lon="-1.60128">
        <ele>12.05</ele>
        <time>2020-05-16T10:16:58Z</time>
      </trkpt>
      <trkpt lat="47.17781" lon="-1.60113">
        <ele>11.07</ele>
        <time>2020-05-16T10:17:00Z</time>
      </trkpt>
      <trkpt lat="47.1779" lon="-1.60098">
        <ele>11.93</ele>
        <time>2020-05-16T10:17:02Z</time>
      </trkpt>
      <trkpt lat="47.17799" lon="-1.60083">
        <ele>11.72</ele>
        <time>2020-05-16T10:17:04Z</time>
      </trkpt>
      <trkpt lat="47.17808" lon="-1.60068">
        <ele>10.99</ele>
        <time>2020-05-16T10:17:06Z</time>
      </trkpt>
      <trkpt lat="47.17817" lon="-1.60054">
        <ele>9.8</ele>
        <time>2020-05-16T10:17:08Z</time>
      </trkpt>
      <trkpt lat="47.17826" lon="-1.60039">
        <ele>9.85</ele>
        <time>2020-05-16T10:17:10Z</time>
      </trkpt>
      <trkpt lat="47.17832" lon="-1.60028">
        <ele>9.63</ele>
        <time>2020-05-16T10:17:11Z</time>
      </trkpt>
      <trkpt lat="47.1784" lon="-1.60015">
        <ele>8.88</ele>
        <time>2020-05-16T10:17:13Z</time>
      </trkpt>
      <trkpt lat="47.17849" lon="-1.59999">
        <ele>8.24</ele>
        <time>2020-05-16T10:17:15Z</time>
      </trkpt>
      <trkpt lat="47.17857" lon="-1.59984">
        <ele>7.25</ele>
        <time>2020-05-16T10:17:17Z</time>
      </trkpt>
      <trkpt lat="47.17866" lon="-1.5997">
        <ele>6.61</ele>
        <time>2020-05-16T10:17:19Z</time>
      </trkpt>
      <trkpt lat="47.17875" lon="-1.59955">
        <ele>5.73</ele>
        <time>2020-05-16T10:17:21Z</time>
      </trkpt>
      <trkpt lat="47.17883" lon="-1.59941">
        <ele>4.41</ele>
        <time>2020-05-16T10:17:23Z</time>
      </trkpt>
      <trkpt lat="47.17892" lon="-1.59929">
        <ele>4.11</ele>
        <time>2020-05-16T10:17:26Z</time>
      </trkpt>
      <trkpt lat="47.17902" lon="-1.59916">
        <ele>4.48</ele>
        <time>2020-05-16T10:17:27Z</time>
      </trkpt>
      <trkpt lat="47.17909" lon="-1.59903">
        <ele>5.62</ele>
        <time>2020-05-16T10:17:30Z</time>
      </trkpt>
      <trkpt lat="47.17918" lon="-1.59895">
        <ele>6.49</ele>
        <time>2020-05-16T10:17:32Z</time>
      </trkpt>
      <trkpt lat="47.17928" lon="-1.59885">
        <ele>7.02</ele>
        <time>2020-05-16T10:17:34Z</time>
      </trkpt>
      <trkpt lat="47.17935" lon="-1.5987">
        <ele>7.33</ele>
        <time>2020-05-16T10:17:36Z</time>
      </trkpt>
      <trkpt lat="47.17937" lon="-1.59854">
        <ele>8.15</ele>
        <time>2020-05-16T10:17:38Z</time>
      </trkpt>
      <trkpt lat="47.17939" lon="-1.59836">
        <ele>9.42</ele>
        <time>2020-05-16T10:17:40Z</time>
      </trkpt>
      <trkpt lat="47.17941" lon="-1.59823">
        <ele>10.57</ele>
        <time>2020-05-16T10:17:42Z</time>
      </trkpt>
      <trkpt lat="47.17944" lon="-1.59806">
        <ele>11.76</ele>
        <time>2020-05-16T10:17:44Z</time>
      </trkpt>
      <trkpt lat="47.17947" lon="-1.59789">
        <ele>13.01</ele>
        <time>2020-05-16T10:17:46Z</time>
      </trkpt>
      <trkpt lat="47.17951" lon="-1.5977">
        <ele>12.78</ele>
        <time>2020-05-16T10:17:49Z</time>
      </trkpt>
      <trkpt lat="47.17954" lon="-1.59757">
        <ele>13.49</ele>
        <time>2020-05-16T10:17:51Z</time>
      </trkpt>
      <trkpt lat="47.17955" lon="-1.5974">
        <ele>14.13</ele>
        <time>2020-05-16T10:17:53Z</time>
      </trkpt>
      <trkpt lat="47.17957" lon="-1.59726">
        <ele>15.55</ele>
        <time>2020-05-16T10:17:55Z</time>
      </trkpt>
      <trkpt lat="47.17964" lon="-1.59711">
        <ele>16.65</ele>
        <time>2020-05-16T10:17:57Z</time>
      </trkpt>
      <trkpt lat="47.17971" lon="-1.59697">
        <ele>16.69</ele>
        <time>2020-05-16T10:17:59Z</time>
      </trkpt>
      <trkpt lat="47.17976" lon="-1.59685">
        <ele>16.78</ele>
        <time>2020-05-16T10:18:01Z</time>
      </trkpt>
      <trkpt lat="47.1798" lon="-1.59671">
        <ele>16.86</ele>
        <time>2020-05-16T10:18:03Z</time>
      </trkpt>
      <trkpt lat="47.17984" lon="-1.59656">
        <ele>16.48</ele>
        <time>2020-05-16T10:18:05Z</time>
      </trkpt>
      <trkpt lat="47.17988" lon="-1.59641">
        <ele>15.97</ele>
        <time>2020-05-16T10:18:07Z</time>
      </trkpt>
      <trkpt lat="47.17992" lon="-1.59627">
        <ele>15.42</ele>
        <time>2020-05-16T10:18:09Z</time>
      </trkpt>
      <trkpt lat="47.17997" lon="-1.59611">
        <ele>15.33</ele>
        <time>2020-05-16T10:18:11Z</time>
      </trkpt>
      <trkpt lat="47.18" lon="-1.59598">
        <ele>15.53</ele>
        <time>2020-05-16T10:18:13Z</time>
      </trkpt>
      <trkpt lat="47.18004" lon="-1.59583">
        <ele>16.36</ele>
        <time>2020-05-16T10:18:15Z</time>
      </trkpt>
      <trkpt lat="47.18009" lon="-1.59565">
        <ele>17.7</ele>
        <time>2020-05-16T10:18:17Z</time>
      </trkpt>
      <trkpt lat="47.18013" lon="-1.59549">
        <ele>19.23</ele>
        <time>2020-05-16T10:18:19Z</time>
      </trkpt>
      <trkpt lat="47.18017" lon="-1.59533">
        <ele>19.88</ele>
        <time>2020-05-16T10:18:21Z</time>
      </trkpt>
      <trkpt lat="47.18021" lon="-1.59517">
        <ele>20.08</ele>
        <time>2020-05-16T10:18:23Z</time>
      </trkpt>
      <trkpt lat="47.18026" lon="-1.595">
        <ele>19.88</ele>
        <time>2020-05-16T10:18:25Z</time>
      </trkpt>
      <trkpt lat="47.1803" lon="-1.59484">
        <ele>19.45</ele>
        <time>2020-05-16T10:18:27Z</time>
      </trkpt>
      <trkpt lat="47.18034" lon="-1.59467">
        <ele>19.76</ele>
        <time>2020-05-16T10:18:29Z</time>
      </trkpt>
      <trkpt lat="47.18039" lon="-1.5945">
        <ele>19.65</ele>
        <time>2020-05-16T10:18:31Z</time>
      </trkpt>
      <trkpt lat="47.18043" lon="-1.59436">
        <ele>20.25</ele>
        <time>2020-05-16T10:18:33Z</time>
      </trkpt>
      <trkpt lat="47.18049" lon="-1.59421">
        <ele>20.69</ele>
        <time>2020-05-16T10:18:35Z</time>
      </trkpt>
      <trkpt lat="47.18052" lon="-1.59407">
        <ele>20.77</ele>
        <time>2020-05-16T10:18:37Z</time>
      </trkpt>
      <trkpt lat="47.18062" lon="-1.59397">
        <ele>19.81</ele>
        <time>2020-05-16T10:18:39Z</time>
      </trkpt>
      <trkpt lat="47.18074" lon="-1.59393">
        <ele>19.72</ele>
        <time>2020-05-16T10:18:41Z</time>
      </trkpt>
      <trkpt lat="47.18083" lon="-1.59386">
        <ele>20.55</ele>
        <time>2020-05-16T10:18:43Z</time>
      </trkpt>
      <trkpt lat="47.18094" lon="-1.59376">
        <ele>19.82</ele>
        <time>2020-05-16T10:18:45Z</time>
      </trkpt>
      <trkpt lat="47.18104" lon="-1.59367">
        <ele>19.73</ele>
        <time>2020-05-16T10:18:47Z</time>
      </trkpt>
      <trkpt lat="47.18116" lon="-1.59356">
        <ele>18.9</ele>
        <time>2020-05-16T10:18:49Z</time>
      </trkpt>
      <trkpt lat="47.18125" lon="-1.59347">
        <ele>18.51</ele>
        <time>2020-05-16T10:18:51Z</time>
      </trkpt>
      <trkpt lat="47.18136" lon="-1.59336">
        <ele>18.6</ele>
        <time>2020-05-16T10:18:53Z</time>
      </trkpt>
      <trkpt lat="47.18144" lon="-1.59328">
        <ele>18.61</ele>
        <time>2020-05-16T10:18:55Z</time>
      </trkpt>
      <trkpt lat="47.18155" lon="-1.59318">
        <ele>17.85</ele>
        <time>2020-05-16T10:18:57Z</time>
      </trkpt>
      <trkpt lat="47.18164" lon="-1.59308">
        <ele>16.18</ele>
        <time>2020-05-16T10:18:59Z</time>
      </trkpt>
      <trkpt lat="47.18173" lon="-1.59299">
        <ele>15.44</ele>
        <time>2020-05-16T10:19:01Z</time>
      </trkpt>
      <trkpt lat="47.18182" lon="-1.59289">
        <ele>15.77</ele>
        <time>2020-05-16T10:19:03Z</time>
      </trkpt>
      <trkpt lat="47.18192" lon="-1.59279">
        <ele>16.35</ele>
        <time>2020-05-16T10:19:05Z</time>
      </trkpt>
      <trkpt lat="47.18201" lon="-1.59271">
        <ele>16.82</ele>
        <time>2020-05-16T10:19:07Z</time>
      </trkpt>
      <trkpt lat="47.18212" lon="-1.5926">
        <ele>17.31</ele>
        <time>2020-05-16T10:19:09Z</time>
      </trkpt>
      <trkpt lat="47.18221" lon="-1.59251">
        <ele>16.43</ele>
        <time>2020-05-16T10:19:11Z</time>
      </trkpt>
      <trkpt lat="47.18229" lon="-1.59242">
        <ele>16.39</ele>
        <time>2020-05-16T10:19:13Z</time>
      </trkpt>
      <trkpt lat="47.1824" lon="-1.59231">
        <ele>17.16</ele>
        <time>2020-05-16T10:19:15Z</time>
      </trkpt>
      <trkpt lat="47.18249" lon="-1.59222">
        <ele>18.26</ele>
        <time>2020-05-16T10:19:17Z</time>
      </trkpt>
      <trkpt lat="47.18256" lon="-1.59208">
        <ele>17.99</ele>
        <time>2020-05-16T10:19:19Z</time>
      </trkpt>
      <trkpt lat="47.18263" lon="-1.59196">
        <ele>18.51</ele>
        <time>2020-05-16T10:19:21Z</time>
      </trkpt>
      <trkpt lat="47.18272" lon="-1.59184">
        <ele>17.77</ele>
        <time>2020-05-16T10:19:23Z</time>
      </trkpt>
      <trkpt lat="47.1828" lon="-1.5917">
        <ele>17.14</ele>
        <time>2020-05-16T10:19:25Z</time>
      </trkpt>
      <trkpt lat="47.18286" lon="-1.59153">
        <ele>16.55</ele>
        <time>2020-05-16T10:19:27Z</time>
      </trkpt>
      <trkpt lat="47.18292" lon="-1.59137">
        <ele>16.84</ele>
        <time>2020-05-16T10:19:29Z</time>
      </trkpt>
      <trkpt lat="47.18299" lon="-1.5912">
        <ele>17.7</ele>
        <time>2020-05-16T10:19:31Z</time>
      </trkpt>
      <trkpt lat="47.18305" lon="-1.59105">
        <ele>19.03</ele>
        <time>2020-05-16T10:19:33Z</time>
      </trkpt>
      <trkpt lat="47.1831" lon="-1.59092">
        <ele>19.3</ele>
        <time>2020-05-16T10:19:35Z</time>
      </trkpt>
      <trkpt lat="47.18315" lon="-1.59075">
        <ele>19.35</ele>
        <time>2020-05-16T10:19:37Z</time>
      </trkpt>
      <trkpt lat="47.18321" lon="-1.59058">
        <ele>19.72</ele>
        <time>2020-05-16T10:19:39Z</time>
      </trkpt>
      <trkpt lat="47.18326" lon="-1.59043">
        <ele>19.94</ele>
        <time>2020-05-16T10:19:41Z</time>
      </trkpt>
      <trkpt lat="47.18331" lon="-1.59029">
        <ele>20.78</ele>
        <time>2020-05-16T10:19:43Z</time>
      </trkpt>
      <trkpt lat="47.18337" lon="-1.59014">
        <ele>21.62</ele>
        <time>2020-05-16T10:19:45Z</time>
      </trkpt>
      <trkpt lat="47.18344" lon="-1.59004">
        <ele>22.81</ele>
        <time>2020-05-16T10:19:47Z</time>
      </trkpt>
      <trkpt lat="47.18353" lon="-1.58993">
        <ele>22.3</ele>
        <time>2020-05-16T10:19:49Z</time>
      </trkpt>
      <trkpt lat="47.18362" lon="-1.58984">
        <ele>22.35</ele>
        <time>2020-05-16T10:19:51Z</time>
      </trkpt>
      <trkpt lat="47.18373" lon="-1.58975">
        <ele>22.17</ele>
        <time>2020-05-16T10:19:53Z</time>
      </trkpt>
      <trkpt lat="47.18385" lon="-1.5897">
        <ele>20.96</ele>
        <time>2020-05-16T10:19:55Z</time>
      </trkpt>
      <trkpt lat="47.18395" lon="-1.58965">
        <ele>19.91</ele>
        <time>2020-05-16T10:19:57Z</time>
      </trkpt>
      <trkpt lat="47.18406" lon="-1.58959">
        <ele>19.67</ele>
        <time>2020-05-16T10:19:59Z</time>
      </trkpt>
      <trkpt lat="47.18417" lon="-1.58952">
        <ele>18.94</ele>
        <time>2020-05-16T10:20:01Z</time>
      </trkpt>
      <trkpt lat="47.18429" lon="-1.58944">
        <ele>17.1</ele>
        <time>2020-05-16T10:20:03Z</time>
      </trkpt>
      <trkpt lat="47.18441" lon="-1.58937">
        <ele>15.8</ele>
        <time>2020-05-16T10:20:05Z</time>
      </trkpt>
      <trkpt lat="47.18453" lon="-1.58927">
        <ele>15.58</ele>
        <time>2020-05-16T10:20:07Z</time>
      </trkpt>
      <trkpt lat="47.18462" lon="-1.58919">
        <ele>16.57</ele>
        <time>2020-05-16T10:20:09Z</time>
      </trkpt>
      <trkpt lat="47.18474" lon="-1.58904">
        <ele>17.13</ele>
        <time>2020-05-16T10:20:11Z</time>
      </trkpt>
      <trkpt lat="47.18483" lon="-1.58891">
        <ele>16.47</ele>
        <time>2020-05-16T10:20:13Z</time>
      </trkpt>
      <trkpt lat="47.18489" lon="-1.58871">
        <ele>14.85</ele>
        <time>2020-05-16T10:20:15Z</time>
      </trkpt>
      <trkpt lat="47.18493" lon="-1.58855">
        <ele>13.28</ele>
        <time>2020-05-16T10:20:17Z</time>
      </trkpt>
      <trkpt lat="47.18497" lon="-1.58838">
        <ele>12.31</ele>
        <time>2020-05-16T10:20:19Z</time>
      </trkpt>
      <trkpt lat="47.18501" lon="-1.58819">
        <ele>11.97</ele>
        <time>2020-05-16T10:20:21Z</time>
      </trkpt>
      <trkpt lat="47.18505" lon="-1.58803">
        <ele>12.77</ele>
        <time>2020-05-16T10:20:23Z</time>
      </trkpt>
      <trkpt lat="47.18509" lon="-1.58787">
        <ele>12.91</ele>
        <time>2020-05-16T10:20:25Z</time>
      </trkpt>
      <trkpt lat="47.1851" lon="-1.58768">
        <ele>12.96</ele>
        <time>2020-05-16T10:20:27Z</time>
      </trkpt>
      <trkpt lat="47.1851" lon="-1.58755">
        <ele>13.35</ele>
        <time>2020-05-16T10:20:29Z</time>
      </trkpt>
      <trkpt lat="47.18509" lon="-1.58738">
        <ele>13</ele>
        <time>2020-05-16T10:20:31Z</time>
      </trkpt>
      <trkpt lat="47.18508" lon="-1.58725">
        <ele>12.24</ele>
        <time>2020-05-16T10:20:33Z</time>
      </trkpt>
      <trkpt lat="47.18507" lon="-1.58711">
        <ele>12.24</ele>
        <time>2020-05-16T10:20:36Z</time>
      </trkpt>
      <trkpt lat="47.18505" lon="-1.58694">
        <ele>13.11</ele>
        <time>2020-05-16T10:20:39Z</time>
      </trkpt>
      <trkpt lat="47.18502" lon="-1.5868">
        <ele>13.59</ele>
        <time>2020-05-16T10:20:41Z</time>
      </trkpt>
      <trkpt lat="47.18498" lon="-1.58664">
        <ele>13.5</ele>
        <time>2020-05-16T10:20:43Z</time>
      </trkpt>
      <trkpt lat="47.18496" lon="-1.58644">
        <ele>13.38</ele>
        <time>2020-05-16T10:20:45Z</time>
      </trkpt>
      <trkpt lat="47.18496" lon="-1.58629">
        <ele>12.93</ele>
        <time>2020-05-16T10:20:47Z</time>
      </trkpt>
      <trkpt lat="47.18496" lon="-1.58611">
        <ele>12.11</ele>
        <time>2020-05-16T10:20:49Z</time>
      </trkpt>
      <trkpt lat="47.18497" lon="-1.58597">
        <ele>12.71</ele>
        <time>2020-05-16T10:20:51Z</time>
      </trkpt>
      <trkpt lat="47.185" lon="-1.5858">
        <ele>13.6</ele>
        <time>2020-05-16T10:20:53Z</time>
      </trkpt>
      <trkpt lat="47.18507" lon="-1.58562">
        <ele>13.83</ele>
        <time>2020-05-16T10:20:55Z</time>
      </trkpt>
      <trkpt lat="47.18515" lon="-1.58541">
        <ele>13.52</ele>
        <time>2020-05-16T10:20:57Z</time>
      </trkpt>
      <trkpt lat="47.18522" lon="-1.58522">
        <ele>13.4</ele>
        <time>2020-05-16T10:20:59Z</time>
      </trkpt>
      <trkpt lat="47.18529" lon="-1.58503">
        <ele>13.25</ele>
        <time>2020-05-16T10:21:01Z</time>
      </trkpt>
      <trkpt lat="47.18535" lon="-1.58482">
        <ele>11.9</ele>
        <time>2020-05-16T10:21:03Z</time>
      </trkpt>
      <trkpt lat="47.1854" lon="-1.58459">
        <ele>10.44</ele>
        <time>2020-05-16T10:21:05Z</time>
      </trkpt>
      <trkpt lat="47.18544" lon="-1.58436">
        <ele>9.66</ele>
        <time>2020-05-16T10:21:07Z</time>
      </trkpt>
      <trkpt lat="47.18546" lon="-1.58423">
        <ele>9.46</ele>
        <time>2020-05-16T10:21:08Z</time>
      </trkpt>
      <trkpt lat="47.1855" lon="-1.58399">
        <ele>8.49</ele>
        <time>2020-05-16T10:21:10Z</time>
      </trkpt>
      <trkpt lat="47.18553" lon="-1.58378">
        <ele>7.57</ele>
        <time>2020-05-16T10:21:12Z</time>
      </trkpt>
      <trkpt lat="47.18556" lon="-1.58357">
        <ele>7.69</ele>
        <time>2020-05-16T10:21:14Z</time>
      </trkpt>
      <trkpt lat="47.18559" lon="-1.58338">
        <ele>8.18</ele>
        <time>2020-05-16T10:21:16Z</time>
      </trkpt>
      <trkpt lat="47.18561" lon="-1.58321">
        <ele>7.99</ele>
        <time>2020-05-16T10:21:18Z</time>
      </trkpt>
      <trkpt lat="47.18565" lon="-1.58301">
        <ele>7.99</ele>
        <time>2020-05-16T10:21:20Z</time>
      </trkpt>
      <trkpt lat="47.18568" lon="-1.58284">
        <ele>8.16</ele>
        <time>2020-05-16T10:21:22Z</time>
      </trkpt>
      <trkpt lat="47.18571" lon="-1.58267">
        <ele>8.72</ele>
        <time>2020-05-16T10:21:24Z</time>
      </trkpt>
      <trkpt lat="47.18574" lon="-1.58249">
        <ele>8.79</ele>
        <time>2020-05-16T10:21:26Z</time>
      </trkpt>
      <trkpt lat="47.18577" lon="-1.5823">
        <ele>8.55</ele>
        <time>2020-05-16T10:21:28Z</time>
      </trkpt>
      <trkpt lat="47.18578" lon="-1.58214">
        <ele>9.35</ele>
        <time>2020-05-16T10:21:30Z</time>
      </trkpt>
      <trkpt lat="47.18581" lon="-1.58197">
        <ele>9.98</ele>
        <time>2020-05-16T10:21:32Z</time>
      </trkpt>
      <trkpt lat="47.18584" lon="-1.58178">
        <ele>10.89</ele>
        <time>2020-05-16T10:21:34Z</time>
      </trkpt>
      <trkpt lat="47.18587" lon="-1.58161">
        <ele>11.27</ele>
        <time>2020-05-16T10:21:36Z</time>
      </trkpt>
      <trkpt lat="47.18589" lon="-1.58145">
        <ele>11.67</ele>
        <time>2020-05-16T10:21:38Z</time>
      </trkpt>
      <trkpt lat="47.18592" lon="-1.58127">
        <ele>11.83</ele>
        <time>2020-05-16T10:21:40Z</time>
      </trkpt>
      <trkpt lat="47.18594" lon="-1.58112">
        <ele>11.97</ele>
        <time>2020-05-16T10:21:42Z</time>
      </trkpt>
      <trkpt lat="47.18597" lon="-1.58095">
        <ele>11.91</ele>
        <time>2020-05-16T10:21:44Z</time>
      </trkpt>
      <trkpt lat="47.18599" lon="-1.58081">
        <ele>13.29</ele>
        <time>2020-05-16T10:21:46Z</time>
      </trkpt>
      <trkpt lat="47.18601" lon="-1.58064">
        <ele>12.77</ele>
        <time>2020-05-16T10:21:48Z</time>
      </trkpt>
      <trkpt lat="47.18604" lon="-1.58046">
        <ele>12.34</ele>
        <time>2020-05-16T10:21:50Z</time>
      </trkpt>
      <trkpt lat="47.18607" lon="-1.58027">
        <ele>11.55</ele>
        <time>2020-05-16T10:21:52Z</time>
      </trkpt>
      <trkpt lat="47.1861" lon="-1.58011">
        <ele>11.01</ele>
        <time>2020-05-16T10:21:54Z</time>
      </trkpt>
      <trkpt lat="47.18612" lon="-1.57992">
        <ele>11.79</ele>
        <time>2020-05-16T10:21:56Z</time>
      </trkpt>
      <trkpt lat="47.18615" lon="-1.57974">
        <ele>11.85</ele>
        <time>2020-05-16T10:21:58Z</time>
      </trkpt>
      <trkpt lat="47.18618" lon="-1.57957">
        <ele>13.19</ele>
        <time>2020-05-16T10:22:00Z</time>
      </trkpt>
      <trkpt lat="47.18621" lon="-1.57938">
        <ele>14.12</ele>
        <time>2020-05-16T10:22:02Z</time>
      </trkpt>
      <trkpt lat="47.18624" lon="-1.57921">
        <ele>15.03</ele>
        <time>2020-05-16T10:22:04Z</time>
      </trkpt>
      <trkpt lat="47.18627" lon="-1.57903">
        <ele>15.13</ele>
        <time>2020-05-16T10:22:06Z</time>
      </trkpt>
      <trkpt lat="47.18629" lon="-1.57885">
        <ele>15.53</ele>
        <time>2020-05-16T10:22:08Z</time>
      </trkpt>
      <trkpt lat="47.18632" lon="-1.57869">
        <ele>15.88</ele>
        <time>2020-05-16T10:22:10Z</time>
      </trkpt>
      <trkpt lat="47.18634" lon="-1.57853">
        <ele>15.74</ele>
        <time>2020-05-16T10:22:12Z</time>
      </trkpt>
      <trkpt lat="47.18635" lon="-1.57837">
        <ele>15.09</ele>
        <time>2020-05-16T10:22:14Z</time>
      </trkpt>
      <trkpt lat="47.18635" lon="-1.57819">
        <ele>13.83</ele>
        <time>2020-05-16T10:22:16Z</time>
      </trkpt>
      <trkpt lat="47.18634" lon="-1.57801">
        <ele>12.36</ele>
        <time>2020-05-16T10:22:18Z</time>
      </trkpt>
      <trkpt lat="47.18632" lon="-1.57782">
        <ele>10.92</ele>
        <time>2020-05-16T10:22:20Z</time>
      </trkpt>
      <trkpt lat="47.18629" lon="-1.57761">
        <ele>10.4</ele>
        <time>2020-05-16T10:22:22Z</time>
      </trkpt>
      <trkpt lat="47.18628" lon="-1.57743">
        <ele>9.87</ele>
        <time>2020-05-16T10:22:24Z</time>
      </trkpt>
      <trkpt lat="47.18626" lon="-1.57728">
        <ele>9.7</ele>
        <time>2020-05-16T10:22:26Z</time>
      </trkpt>
      <trkpt lat="47.18625" lon="-1.57708">
        <ele>10.11</ele>
        <time>2020-05-16T10:22:28Z</time>
      </trkpt>
      <trkpt lat="47.18624" lon="-1.5769">
        <ele>10.79</ele>
        <time>2020-05-16T10:22:30Z</time>
      </trkpt>
      <trkpt lat="47.18623" lon="-1.57673">
        <ele>11.47</ele>
        <time>2020-05-16T10:22:32Z</time>
      </trkpt>
      <trkpt lat="47.18622" lon="-1.57653">
        <ele>10.8</ele>
        <time>2020-05-16T10:22:34Z</time>
      </trkpt>
      <trkpt lat="47.1862" lon="-1.57634">
        <ele>10.32</ele>
        <time>2020-05-16T10:22:36Z</time>
      </trkpt>
      <trkpt lat="47.18619" lon="-1.57615">
        <ele>10.87</ele>
        <time>2020-05-16T10:22:38Z</time>
      </trkpt>
      <trkpt lat="47.18618" lon="-1.57597">
        <ele>11.61</ele>
        <time>2020-05-16T10:22:40Z</time>
      </trkpt>
      <trkpt lat="47.18619" lon="-1.57578">
        <ele>11.62</ele>
        <time>2020-05-16T10:22:42Z</time>
      </trkpt>
      <trkpt lat="47.18622" lon="-1.57558">
        <ele>10.7</ele>
        <time>2020-05-16T10:22:44Z</time>
      </trkpt>
      <trkpt lat="47.18626" lon="-1.57539">
        <ele>11.09</ele>
        <time>2020-05-16T10:22:46Z</time>
      </trkpt>
      <trkpt lat="47.18633" lon="-1.57521">
        <ele>11.19</ele>
        <time>2020-05-16T10:22:48Z</time>
      </trkpt>
      <trkpt lat="47.18641" lon="-1.57502">
        <ele>10.97</ele>
        <time>2020-05-16T10:22:50Z</time>
      </trkpt>
      <trkpt lat="47.18649" lon="-1.57486">
        <ele>10.68</ele>
        <time>2020-05-16T10:22:52Z</time>
      </trkpt>
      <trkpt lat="47.18661" lon="-1.57473">
        <ele>10.61</ele>
        <time>2020-05-16T10:22:54Z</time>
      </trkpt>
      <trkpt lat="47.18674" lon="-1.57462">
        <ele>10.55</ele>
        <time>2020-05-16T10:22:56Z</time>
      </trkpt>
      <trkpt lat="47.18687" lon="-1.57453">
        <ele>10.34</ele>
        <time>2020-05-16T10:22:58Z</time>
      </trkpt>
      <trkpt lat="47.187" lon="-1.57446">
        <ele>10.78</ele>
        <time>2020-05-16T10:23:00Z</time>
      </trkpt>
      <trkpt lat="47.18714" lon="-1.57439">
        <ele>9.72</ele>
        <time>2020-05-16T10:23:02Z</time>
      </trkpt>
      <trkpt lat="47.1873" lon="-1.57432">
        <ele>8.37</ele>
        <time>2020-05-16T10:23:04Z</time>
      </trkpt>
      <trkpt lat="47.18742" lon="-1.57426">
        <ele>6.57</ele>
        <time>2020-05-16T10:23:06Z</time>
      </trkpt>
      <trkpt lat="47.18756" lon="-1.57418">
        <ele>5.12</ele>
        <time>2020-05-16T10:23:08Z</time>
      </trkpt>
      <trkpt lat="47.1877" lon="-1.57411">
        <ele>4.45</ele>
        <time>2020-05-16T10:23:10Z</time>
      </trkpt>
      <trkpt lat="47.18781" lon="-1.57406">
        <ele>3.59</ele>
        <time>2020-05-16T10:23:12Z</time>
      </trkpt>
      <trkpt lat="47.18794" lon="-1.57398">
        <ele>3.81</ele>
        <time>2020-05-16T10:23:14Z</time>
      </trkpt>
      <trkpt lat="47.18803" lon="-1.57388">
        <ele>4.23</ele>
        <time>2020-05-16T10:23:16Z</time>
      </trkpt>
      <trkpt lat="47.18812" lon="-1.57374">
        <ele>5.88</ele>
        <time>2020-05-16T10:23:18Z</time>
      </trkpt>
      <trkpt lat="47.18818" lon="-1.57358">
        <ele>6.16</ele>
        <time>2020-05-16T10:23:20Z</time>
      </trkpt>
      <trkpt lat="47.18822" lon="-1.57342">
        <ele>6.69</ele>
        <time>2020-05-16T10:23:22Z</time>
      </trkpt>
      <trkpt lat="47.18827" lon="-1.57325">
        <ele>6.61</ele>
        <time>2020-05-16T10:23:24Z</time>
      </trkpt>
      <trkpt lat="47.18832" lon="-1.57308">
        <ele>5.91</ele>
        <time>2020-05-16T10:23:26Z</time>
      </trkpt>
      <trkpt lat="47.18838" lon="-1.5729">
        <ele>5.13</ele>
        <time>2020-05-16T10:23:28Z</time>
      </trkpt>
      <trkpt lat="47.18841" lon="-1.57277">
        <ele>4</ele>
        <time>2020-05-16T10:23:30Z</time>
      </trkpt>
      <trkpt lat="47.18842" lon="-1.57263">
        <ele>3.72</ele>
        <time>2020-05-16T10:23:32Z</time>
      </trkpt>
      <trkpt lat="47.18846" lon="-1.5725">
        <ele>4.38</ele>
        <time>2020-05-16T10:23:34Z</time>
      </trkpt>
      <trkpt lat="47.18852" lon="-1.57235">
        <ele>5.4</ele>
        <time>2020-05-16T10:23:36Z</time>
      </trkpt>
      <trkpt lat="47.18858" lon="-1.5722">
        <ele>6.88</ele>
        <time>2020-05-16T10:23:38Z</time>
      </trkpt>
      <trkpt lat="47.18863" lon="-1.57203">
        <ele>7.98</ele>
        <time>2020-05-16T10:23:40Z</time>
      </trkpt>
      <trkpt lat="47.18868" lon="-1.57187">
        <ele>8.67</ele>
        <time>2020-05-16T10:23:42Z</time>
      </trkpt>
      <trkpt lat="47.18873" lon="-1.57172">
        <ele>9.51</ele>
        <time>2020-05-16T10:23:44Z</time>
      </trkpt>
      <trkpt lat="47.18878" lon="-1.57155">
        <ele>9.63</ele>
        <time>2020-05-16T10:23:46Z</time>
      </trkpt>
      <trkpt lat="47.18882" lon="-1.5714">
        <ele>10.52</ele>
        <time>2020-05-16T10:23:48Z</time>
      </trkpt>
      <trkpt lat="47.18888" lon="-1.57123">
        <ele>11.41</ele>
        <time>2020-05-16T10:23:50Z</time>
      </trkpt>
      <trkpt lat="47.18893" lon="-1.57104">
        <ele>12.04</ele>
        <time>2020-05-16T10:23:52Z</time>
      </trkpt>
      <trkpt lat="47.18898" lon="-1.57087">
        <ele>12.8</ele>
        <time>2020-05-16T10:23:54Z</time>
      </trkpt>
      <trkpt lat="47.18903" lon="-1.57069">
        <ele>11.89</ele>
        <time>2020-05-16T10:23:56Z</time>
      </trkpt>
      <trkpt lat="47.18907" lon="-1.57054">
        <ele>11.84</ele>
        <time>2020-05-16T10:23:58Z</time>
      </trkpt>
      <trkpt lat="47.18912" lon="-1.57037">
        <ele>11.65</ele>
        <time>2020-05-16T10:24:00Z</time>
      </trkpt>
      <trkpt lat="47.18917" lon="-1.57022">
        <ele>11.6</ele>
        <time>2020-05-16T10:24:02Z</time>
      </trkpt>
      <trkpt lat="47.18922" lon="-1.57007">
        <ele>11.11</ele>
        <time>2020-05-16T10:24:04Z</time>
      </trkpt>
      <trkpt lat="47.18928" lon="-1.56991">
        <ele>11.58</ele>
        <time>2020-05-16T10:24:07Z</time>
      </trkpt>
      <trkpt lat="47.18932" lon="-1.56977">
        <ele>11.86</ele>
        <time>2020-05-16T10:24:10Z</time>
      </trkpt>
      <trkpt lat="47.18939" lon="-1.56959">
        <ele>13.18</ele>
        <time>2020-05-16T10:24:13Z</time>
      </trkpt>
      <trkpt lat="47.18945" lon="-1.56944">
        <ele>14.78</ele>
        <time>2020-05-16T10:24:15Z</time>
      </trkpt>
      <trkpt lat="47.1895" lon="-1.5693">
        <ele>15.04</ele>
        <time>2020-05-16T10:24:17Z</time>
      </trkpt>
      <trkpt lat="47.18955" lon="-1.56915">
        <ele>15.03</ele>
        <time>2020-05-16T10:24:19Z</time>
      </trkpt>
      <trkpt lat="47.18962" lon="-1.56902">
        <ele>13.8</ele>
        <time>2020-05-16T10:24:21Z</time>
      </trkpt>
      <trkpt lat="47.18969" lon="-1.56887">
        <ele>12.82</ele>
        <time>2020-05-16T10:24:23Z</time>
      </trkpt>
      <trkpt lat="47.18975" lon="-1.56871">
        <ele>12.8</ele>
        <time>2020-05-16T10:24:25Z</time>
      </trkpt>
      <trkpt lat="47.18981" lon="-1.56856">
        <ele>12.3</ele>
        <time>2020-05-16T10:24:28Z</time>
      </trkpt>
      <trkpt lat="47.18985" lon="-1.56842">
        <ele>12.28</ele>
        <time>2020-05-16T10:24:32Z</time>
      </trkpt>
      <trkpt lat="47.18993" lon="-1.56823">
        <ele>12.55</ele>
        <time>2020-05-16T10:24:35Z</time>
      </trkpt>
      <trkpt lat="47.19" lon="-1.56811">
        <ele>12.99</ele>
        <time>2020-05-16T10:24:37Z</time>
      </trkpt>
      <trkpt lat="47.19007" lon="-1.56794">
        <ele>12.08</ele>
        <time>2020-05-16T10:24:39Z</time>
      </trkpt>
      <trkpt lat="47.1901" lon="-1.56779">
        <ele>11.69</ele>
        <time>2020-05-16T10:24:41Z</time>
      </trkpt>
      <trkpt lat="47.19014" lon="-1.5676">
        <ele>12.6</ele>
        <time>2020-05-16T10:24:43Z</time>
      </trkpt>
      <trkpt lat="47.19017" lon="-1.56743">
        <ele>12.93</ele>
        <time>2020-05-16T10:24:45Z</time>
      </trkpt>
      <trkpt lat="47.1902" lon="-1.56727">
        <ele>12.73</ele>
        <time>2020-05-16T10:24:47Z</time>
      </trkpt>
      <trkpt lat="47.19023" lon="-1.56707">
        <ele>12.79</ele>
        <time>2020-05-16T10:24:49Z</time>
      </trkpt>
      <trkpt lat="47.19025" lon="-1.5669">
        <ele>11.47</ele>
        <time>2020-05-16T10:24:51Z</time>
      </trkpt>
      <trkpt lat="47.19028" lon="-1.56672">
        <ele>9.7</ele>
        <time>2020-05-16T10:24:53Z</time>
      </trkpt>
      <trkpt lat="47.19031" lon="-1.56655">
        <ele>9.2</ele>
        <time>2020-05-16T10:24:55Z</time>
      </trkpt>
      <trkpt lat="47.19035" lon="-1.56636">
        <ele>8.94</ele>
        <time>2020-05-16T10:24:57Z</time>
      </trkpt>
      <trkpt lat="47.19038" lon="-1.56618">
        <ele>8.94</ele>
        <time>2020-05-16T10:24:59Z</time>
      </trkpt>
      <trkpt lat="47.19041" lon="-1.566">
        <ele>9.06</ele>
        <time>2020-05-16T10:25:01Z</time>
      </trkpt>
      <trkpt lat="47.19044" lon="-1.56583">
        <ele>8.38</ele>
        <time>2020-05-16T10:25:03Z</time>
      </trkpt>
      <trkpt lat="47.19046" lon="-1.56565">
        <ele>8.72</ele>
        <time>2020-05-16T10:25:05Z</time>
      </trkpt>
      <trkpt lat="47.19049" lon="-1.56547">
        <ele>8.38</ele>
        <time>2020-05-16T10:25:07Z</time>
      </trkpt>
      <trkpt lat="47.19055" lon="-1.5653">
        <ele>8.07</ele>
        <time>2020-05-16T10:25:09Z</time>
      </trkpt>
      <trkpt lat="47.19062" lon="-1.56513">
        <ele>8.29</ele>
        <time>2020-05-16T10:25:11Z</time>
      </trkpt>
      <trkpt lat="47.19067" lon="-1.56495">
        <ele>9.03</ele>
        <time>2020-05-16T10:25:13Z</time>
      </trkpt>
      <trkpt lat="47.19071" lon="-1.56474">
        <ele>9.23</ele>
        <time>2020-05-16T10:25:15Z</time>
      </trkpt>
      <trkpt lat="47.19075" lon="-1.56456">
        <ele>9.5</ele>
        <time>2020-05-16T10:25:17Z</time>
      </trkpt>
      <trkpt lat="47.19078" lon="-1.56436">
        <ele>9.43</ele>
        <time>2020-05-16T10:25:19Z</time>
      </trkpt>
      <trkpt lat="47.19081" lon="-1.56415">
        <ele>9.07</ele>
        <time>2020-05-16T10:25:21Z</time>
      </trkpt>
      <trkpt lat="47.19085" lon="-1.56394">
        <ele>8.25</ele>
        <time>2020-05-16T10:25:23Z</time>
      </trkpt>
      <trkpt lat="47.19087" lon="-1.56374">
        <ele>7.86</ele>
        <time>2020-05-16T10:25:25Z</time>
      </trkpt>
      <trkpt lat="47.19091" lon="-1.56353">
        <ele>8.14</ele>
        <time>2020-05-16T10:25:27Z</time>
      </trkpt>
      <trkpt lat="47.19094" lon="-1.56334">
        <ele>7.55</ele>
        <time>2020-05-16T10:25:29Z</time>
      </trkpt>
      <trkpt lat="47.19097" lon="-1.56316">
        <ele>6.8</ele>
        <time>2020-05-16T10:25:31Z</time>
      </trkpt>
      <trkpt lat="47.19099" lon="-1.56297">
        <ele>6.95</ele>
        <time>2020-05-16T10:25:33Z</time>
      </trkpt>
      <trkpt lat="47.19102" lon="-1.56276">
        <ele>7.44</ele>
        <time>2020-05-16T10:25:35Z</time>
      </trkpt>
      <trkpt lat="47.19105" lon="-1.56257">
        <ele>7.24</ele>
        <time>2020-05-16T10:25:37Z</time>
      </trkpt>
      <trkpt lat="47.19108" lon="-1.56236">
        <ele>6.44</ele>
        <time>2020-05-16T10:25:39Z</time>
      </trkpt>
      <trkpt lat="47.19111" lon="-1.56218">
        <ele>4.71</ele>
        <time>2020-05-16T10:25:41Z</time>
      </trkpt>
      <trkpt lat="47.19114" lon="-1.562">
        <ele>3.58</ele>
        <time>2020-05-16T10:25:43Z</time>
      </trkpt>
      <trkpt lat="47.19116" lon="-1.56185">
        <ele>3.38</ele>
        <time>2020-05-16T10:25:45Z</time>
      </trkpt>
      <trkpt lat="47.19118" lon="-1.56172">
        <ele>3.82</ele>
        <time>2020-05-16T10:25:47Z</time>
      </trkpt>
      <trkpt lat="47.19118" lon="-1.56147">
        <ele>4.49</ele>
        <time>2020-05-16T10:25:49Z</time>
      </trkpt>
      <trkpt lat="47.19116" lon="-1.56124">
        <ele>4.68</ele>
        <time>2020-05-16T10:25:51Z</time>
      </trkpt>
      <trkpt lat="47.19115" lon="-1.56103">
        <ele>6.14</ele>
        <time>2020-05-16T10:25:53Z</time>
      </trkpt>
      <trkpt lat="47.19114" lon="-1.56081">
        <ele>7.86</ele>
        <time>2020-05-16T10:25:55Z</time>
      </trkpt>
      <trkpt lat="47.19112" lon="-1.56059">
        <ele>8.69</ele>
        <time>2020-05-16T10:25:57Z</time>
      </trkpt>
      <trkpt lat="47.19109" lon="-1.56034">
        <ele>9.24</ele>
        <time>2020-05-16T10:25:59Z</time>
      </trkpt>
      <trkpt lat="47.19108" lon="-1.56012">
        <ele>9.22</ele>
        <time>2020-05-16T10:26:01Z</time>
      </trkpt>
      <trkpt lat="47.19106" lon="-1.55991">
        <ele>9.22</ele>
        <time>2020-05-16T10:26:03Z</time>
      </trkpt>
      <trkpt lat="47.19105" lon="-1.5597">
        <ele>9.85</ele>
        <time>2020-05-16T10:26:05Z</time>
      </trkpt>
      <trkpt lat="47.19102" lon="-1.55948">
        <ele>9.93</ele>
        <time>2020-05-16T10:26:07Z</time>
      </trkpt>
      <trkpt lat="47.191" lon="-1.55928">
        <ele>9.74</ele>
        <time>2020-05-16T10:26:09Z</time>
      </trkpt>
      <trkpt lat="47.19098" lon="-1.55909">
        <ele>10.33</ele>
        <time>2020-05-16T10:26:11Z</time>
      </trkpt>
      <trkpt lat="47.19097" lon="-1.55888">
        <ele>9.8</ele>
        <time>2020-05-16T10:26:13Z</time>
      </trkpt>
      <trkpt lat="47.19095" lon="-1.55867">
        <ele>9.25</ele>
        <time>2020-05-16T10:26:15Z</time>
      </trkpt>
      <trkpt lat="47.19093" lon="-1.55846">
        <ele>8.64</ele>
        <time>2020-05-16T10:26:17Z</time>
      </trkpt>
      <trkpt lat="47.19092" lon="-1.55825">
        <ele>7.33</ele>
        <time>2020-05-16T10:26:19Z</time>
      </trkpt>
      <trkpt lat="47.19091" lon="-1.55803">
        <ele>5.34</ele>
        <time>2020-05-16T10:26:21Z</time>
      </trkpt>
      <trkpt lat="47.19092" lon="-1.55782">
        <ele>4.37</ele>
        <time>2020-05-16T10:26:23Z</time>
      </trkpt>
      <trkpt lat="47.19094" lon="-1.55761">
        <ele>4.3</ele>
        <time>2020-05-16T10:26:25Z</time>
      </trkpt>
      <trkpt lat="47.19098" lon="-1.5574">
        <ele>4.32</ele>
        <time>2020-05-16T10:26:27Z</time>
      </trkpt>
      <trkpt lat="47.19102" lon="-1.55719">
        <ele>4.31</ele>
        <time>2020-05-16T10:26:29Z</time>
      </trkpt>
      <trkpt lat="47.19105" lon="-1.55697">
        <ele>4.2</ele>
        <time>2020-05-16T10:26:31Z</time>
      </trkpt>
      <trkpt lat="47.19108" lon="-1.55677">
        <ele>4.19</ele>
        <time>2020-05-16T10:26:33Z</time>
      </trkpt>
      <trkpt lat="47.19111" lon="-1.55659">
        <ele>3.75</ele>
        <time>2020-05-16T10:26:35Z</time>
      </trkpt>
      <trkpt lat="47.19113" lon="-1.55637">
        <ele>3.01</ele>
        <time>2020-05-16T10:26:37Z</time>
      </trkpt>
      <trkpt lat="47.19116" lon="-1.55615">
        <ele>2.56</ele>
        <time>2020-05-16T10:26:39Z</time>
      </trkpt>
      <trkpt lat="47.19118" lon="-1.55595">
        <ele>2.25</ele>
        <time>2020-05-16T10:26:41Z</time>
      </trkpt>
      <trkpt lat="47.19121" lon="-1.55577">
        <ele>2.51</ele>
        <time>2020-05-16T10:26:43Z</time>
      </trkpt>
      <trkpt lat="47.19123" lon="-1.55559">
        <ele>2.75</ele>
        <time>2020-05-16T10:26:45Z</time>
      </trkpt>
      <trkpt lat="47.19127" lon="-1.55538">
        <ele>1.95</ele>
        <time>2020-05-16T10:26:47Z</time>
      </trkpt>
      <trkpt lat="47.19131" lon="-1.55518">
        <ele>0.67</ele>
        <time>2020-05-16T10:26:49Z</time>
      </trkpt>
      <trkpt lat="47.19136" lon="-1.555">
        <ele>0.11</ele>
        <time>2020-05-16T10:26:51Z</time>
      </trkpt>
      <trkpt lat="47.19141" lon="-1.55479">
        <ele>-0.47</ele>
        <time>2020-05-16T10:26:53Z</time>
      </trkpt>
      <trkpt lat="47.19146" lon="-1.55461">
        <ele>-0.36</ele>
        <time>2020-05-16T10:26:55Z</time>
      </trkpt>
      <trkpt lat="47.19152" lon="-1.55442">
        <ele>0.19</ele>
        <time>2020-05-16T10:26:57Z</time>
      </trkpt>
      <trkpt lat="47.19156" lon="-1.55425">
        <ele>1.12</ele>
        <time>2020-05-16T10:26:59Z</time>
      </trkpt>
      <trkpt lat="47.1916" lon="-1.55409">
        <ele>1.89</ele>
        <time>2020-05-16T10:27:01Z</time>
      </trkpt>
      <trkpt lat="47.19157" lon="-1.55389">
        <ele>2.89</ele>
        <time>2020-05-16T10:27:03Z</time>
      </trkpt>
      <trkpt lat="47.19166" lon="-1.55381">
        <ele>2.58</ele>
        <time>2020-05-16T10:27:06Z</time>
      </trkpt>
      <trkpt lat="47.19177" lon="-1.55387">
        <ele>1.95</ele>
        <time>2020-05-16T10:27:08Z</time>
      </trkpt>
      <trkpt lat="47.19189" lon="-1.55392">
        <ele>0.75</ele>
        <time>2020-05-16T10:27:10Z</time>
      </trkpt>
      <trkpt lat="47.19203" lon="-1.55397">
        <ele>0.44</ele>
        <time>2020-05-16T10:27:12Z</time>
      </trkpt>
      <trkpt lat="47.19213" lon="-1.55403">
        <ele>0.74</ele>
        <time>2020-05-16T10:27:14Z</time>
      </trkpt>
      <trkpt lat="47.19222" lon="-1.55404">
        <ele>-0.12</ele>
        <time>2020-05-16T10:27:16Z</time>
      </trkpt>
      <trkpt lat="47.19232" lon="-1.55396">
        <ele>-0.77</ele>
        <time>2020-05-16T10:27:18Z</time>
      </trkpt>
      <trkpt lat="47.19239" lon="-1.55381">
        <ele>-0.17</ele>
        <time>2020-05-16T10:27:20Z</time>
      </trkpt>
      <trkpt lat="47.19248" lon="-1.55361">
        <ele>0.58</ele>
        <time>2020-05-16T10:27:22Z</time>
      </trkpt>
      <trkpt lat="47.19254" lon="-1.55343">
        <ele>1.29</ele>
        <time>2020-05-16T10:27:24Z</time>
      </trkpt>
      <trkpt lat="47.1926" lon="-1.55322">
        <ele>2.25</ele>
        <time>2020-05-16T10:27:26Z</time>
      </trkpt>
      <trkpt lat="47.19266" lon="-1.55301">
        <ele>2.8</ele>
        <time>2020-05-16T10:27:28Z</time>
      </trkpt>
      <trkpt lat="47.19269" lon="-1.55282">
        <ele>2.87</ele>
        <time>2020-05-16T10:27:30Z</time>
      </trkpt>
      <trkpt lat="47.19273" lon="-1.55262">
        <ele>2.98</ele>
        <time>2020-05-16T10:27:32Z</time>
      </trkpt>
      <trkpt lat="47.19277" lon="-1.55243">
        <ele>2.79</ele>
        <time>2020-05-16T10:27:34Z</time>
      </trkpt>
      <trkpt lat="47.19281" lon="-1.55223">
        <ele>2.07</ele>
        <time>2020-05-16T10:27:36Z</time>
      </trkpt>
      <trkpt lat="47.19286" lon="-1.55204">
        <ele>1.84</ele>
        <time>2020-05-16T10:27:38Z</time>
      </trkpt>
      <trkpt lat="47.19291" lon="-1.55183">
        <ele>1.55</ele>
        <time>2020-05-16T10:27:40Z</time>
      </trkpt>
      <trkpt lat="47.19295" lon="-1.55163">
        <ele>1.07</ele>
        <time>2020-05-16T10:27:42Z</time>
      </trkpt>
      <trkpt lat="47.19299" lon="-1.55148">
        <ele>1.96</ele>
        <time>2020-05-16T10:27:44Z</time>
      </trkpt>
      <trkpt lat="47.19304" lon="-1.55128">
        <ele>3.15</ele>
        <time>2020-05-16T10:27:46Z</time>
      </trkpt>
      <trkpt lat="47.19308" lon="-1.5511">
        <ele>4.79</ele>
        <time>2020-05-16T10:27:48Z</time>
      </trkpt>
      <trkpt lat="47.19312" lon="-1.55095">
        <ele>4.84</ele>
        <time>2020-05-16T10:27:50Z</time>
      </trkpt>
      <trkpt lat="47.19317" lon="-1.55076">
        <ele>4.48</ele>
        <time>2020-05-16T10:27:52Z</time>
      </trkpt>
      <trkpt lat="47.19322" lon="-1.55058">
        <ele>3.64</ele>
        <time>2020-05-16T10:27:54Z</time>
      </trkpt>
      <trkpt lat="47.19325" lon="-1.55043">
        <ele>3.27</ele>
        <time>2020-05-16T10:27:56Z</time>
      </trkpt>
      <trkpt lat="47.19329" lon="-1.55028">
        <ele>3.83</ele>
        <time>2020-05-16T10:27:58Z</time>
      </trkpt>
      <trkpt lat="47.19334" lon="-1.55011">
        <ele>4.73</ele>
        <time>2020-05-16T10:28:00Z</time>
      </trkpt>
      <trkpt lat="47.19338" lon="-1.54995">
        <ele>5.06</ele>
        <time>2020-05-16T10:28:02Z</time>
      </trkpt>
      <trkpt lat="47.19342" lon="-1.54977">
        <ele>4.62</ele>
        <time>2020-05-16T10:28:04Z</time>
      </trkpt>
      <trkpt lat="47.19347" lon="-1.54961">
        <ele>4.34</ele>
        <time>2020-05-16T10:28:06Z</time>
      </trkpt>
      <trkpt lat="47.1935" lon="-1.54948">
        <ele>5.01</ele>
        <time>2020-05-16T10:28:08Z</time>
      </trkpt>
      <trkpt lat="47.19355" lon="-1.5493">
        <ele>5.48</ele>
        <time>2020-05-16T10:28:10Z</time>
      </trkpt>
      <trkpt lat="47.19359" lon="-1.54915">
        <ele>6.25</ele>
        <time>2020-05-16T10:28:12Z</time>
      </trkpt>
      <trkpt lat="47.19362" lon="-1.549">
        <ele>7.64</ele>
        <time>2020-05-16T10:28:14Z</time>
      </trkpt>
      <trkpt lat="47.19366" lon="-1.54883">
        <ele>7.79</ele>
        <time>2020-05-16T10:28:16Z</time>
      </trkpt>
      <trkpt lat="47.1937" lon="-1.54866">
        <ele>7.85</ele>
        <time>2020-05-16T10:28:18Z</time>
      </trkpt>
      <trkpt lat="47.19373" lon="-1.54848">
        <ele>8.31</ele>
        <time>2020-05-16T10:28:20Z</time>
      </trkpt>
      <trkpt lat="47.19377" lon="-1.5483">
        <ele>8.32</ele>
        <time>2020-05-16T10:28:22Z</time>
      </trkpt>
      <trkpt lat="47.19382" lon="-1.54808">
        <ele>7.57</ele>
        <time>2020-05-16T10:28:24Z</time>
      </trkpt>
      <trkpt lat="47.19387" lon="-1.54789">
        <ele>7.03</ele>
        <time>2020-05-16T10:28:26Z</time>
      </trkpt>
      <trkpt lat="47.19391" lon="-1.54776">
        <ele>6.75</ele>
        <time>2020-05-16T10:28:27Z</time>
      </trkpt>
      <trkpt lat="47.19394" lon="-1.54763">
        <ele>6.32</ele>
        <time>2020-05-16T10:28:28Z</time>
      </trkpt>
      <trkpt lat="47.19401" lon="-1.5474">
        <ele>5.12</ele>
        <time>2020-05-16T10:28:30Z</time>
      </trkpt>
      <trkpt lat="47.19406" lon="-1.54717">
        <ele>4.5</ele>
        <time>2020-05-16T10:28:32Z</time>
      </trkpt>
      <trkpt lat="47.19411" lon="-1.54695">
        <ele>3.92</ele>
        <time>2020-05-16T10:28:34Z</time>
      </trkpt>
      <trkpt lat="47.19416" lon="-1.54675">
        <ele>3.97</ele>
        <time>2020-05-16T10:28:36Z</time>
      </trkpt>
      <trkpt lat="47.19422" lon="-1.54655">
        <ele>3.44</ele>
        <time>2020-05-16T10:28:38Z</time>
      </trkpt>
      <trkpt lat="47.19427" lon="-1.54639">
        <ele>3.16</ele>
        <time>2020-05-16T10:28:40Z</time>
      </trkpt>
      <trkpt lat="47.19428" lon="-1.54621">
        <ele>3.01</ele>
        <time>2020-05-16T10:28:42Z</time>
      </trkpt>
      <trkpt lat="47.19422" lon="-1.54604">
        <ele>2.73</ele>
        <time>2020-05-16T10:28:44Z</time>
      </trkpt>
      <trkpt lat="47.19419" lon="-1.54586">
        <ele>2.48</ele>
        <time>2020-05-16T10:28:46Z</time>
      </trkpt>
      <trkpt lat="47.19424" lon="-1.54572">
        <ele>3.37</ele>
        <time>2020-05-16T10:28:48Z</time>
      </trkpt>
      <trkpt lat="47.19434" lon="-1.54558">
        <ele>5.1</ele>
        <time>2020-05-16T10:28:50Z</time>
      </trkpt>
      <trkpt lat="47.19446" lon="-1.54548">
        <ele>5.59</ele>
        <time>2020-05-16T10:28:52Z</time>
      </trkpt>
      <trkpt lat="47.19453" lon="-1.5453">
        <ele>5.45</ele>
        <time>2020-05-16T10:28:54Z</time>
      </trkpt>
      <trkpt lat="47.19459" lon="-1.54512">
        <ele>5</ele>
        <time>2020-05-16T10:28:56Z</time>
      </trkpt>
      <trkpt lat="47.19464" lon="-1.54497">
        <ele>4.18</ele>
        <time>2020-05-16T10:28:58Z</time>
      </trkpt>
      <trkpt lat="47.1947" lon="-1.54481">
        <ele>3.88</ele>
        <time>2020-05-16T10:29:00Z</time>
      </trkpt>
      <trkpt lat="47.19476" lon="-1.54465">
        <ele>3.38</ele>
        <time>2020-05-16T10:29:03Z</time>
      </trkpt>
      <trkpt lat="47.19485" lon="-1.54457">
        <ele>3.32</ele>
        <time>2020-05-16T10:29:05Z</time>
      </trkpt>
      <trkpt lat="47.19496" lon="-1.54448">
        <ele>3.18</ele>
        <time>2020-05-16T10:29:07Z</time>
      </trkpt>
      <trkpt lat="47.19508" lon="-1.54439">
        <ele>2.89</ele>
        <time>2020-05-16T10:29:09Z</time>
      </trkpt>
      <trkpt lat="47.19519" lon="-1.5443">
        <ele>3.87</ele>
        <time>2020-05-16T10:29:11Z</time>
      </trkpt>
      <trkpt lat="47.1953" lon="-1.54422">
        <ele>4.46</ele>
        <time>2020-05-16T10:29:13Z</time>
      </trkpt>
      <trkpt lat="47.19542" lon="-1.54413">
        <ele>3.87</ele>
        <time>2020-05-16T10:29:15Z</time>
      </trkpt>
      <trkpt lat="47.19554" lon="-1.54404">
        <ele>2.99</ele>
        <time>2020-05-16T10:29:17Z</time>
      </trkpt>
      <trkpt lat="47.19565" lon="-1.54394">
        <ele>2.7</ele>
        <time>2020-05-16T10:29:19Z</time>
      </trkpt>
      <trkpt lat="47.19577" lon="-1.54385">
        <ele>3.25</ele>
        <time>2020-05-16T10:29:21Z</time>
      </trkpt>
      <trkpt lat="47.19588" lon="-1.54376">
        <ele>3.84</ele>
        <time>2020-05-16T10:29:23Z</time>
      </trkpt>
      <trkpt lat="47.196" lon="-1.54366">
        <ele>4.24</ele>
        <time>2020-05-16T10:29:25Z</time>
      </trkpt>
      <trkpt lat="47.19612" lon="-1.54353">
        <ele>3.53</ele>
        <time>2020-05-16T10:29:27Z</time>
      </trkpt>
      <trkpt lat="47.19622" lon="-1.5434">
        <ele>3.05</ele>
        <time>2020-05-16T10:29:29Z</time>
      </trkpt>
      <trkpt lat="47.19633" lon="-1.54325">
        <ele>3.15</ele>
        <time>2020-05-16T10:29:31Z</time>
      </trkpt>
      <trkpt lat="47.1964" lon="-1.54315">
        <ele>3.11</ele>
        <time>2020-05-16T10:29:32Z</time>
      </trkpt>
      <trkpt lat="47.19649" lon="-1.54304">
        <ele>2.22</ele>
        <time>2020-05-16T10:29:34Z</time>
      </trkpt>
      <trkpt lat="47.1966" lon="-1.54293">
        <ele>1.44</ele>
        <time>2020-05-16T10:29:36Z</time>
      </trkpt>
      <trkpt lat="47.19671" lon="-1.54284">
        <ele>0.47</ele>
        <time>2020-05-16T10:29:38Z</time>
      </trkpt>
      <trkpt lat="47.19683" lon="-1.54274">
        <ele>0.35</ele>
        <time>2020-05-16T10:29:40Z</time>
      </trkpt>
      <trkpt lat="47.19694" lon="-1.54268">
        <ele>0.49</ele>
        <time>2020-05-16T10:29:42Z</time>
      </trkpt>
      <trkpt lat="47.19708" lon="-1.5426">
        <ele>1.25</ele>
        <time>2020-05-16T10:29:44Z</time>
      </trkpt>
      <trkpt lat="47.1972" lon="-1.54252">
        <ele>1.61</ele>
        <time>2020-05-16T10:29:46Z</time>
      </trkpt>
      <trkpt lat="47.19731" lon="-1.54244">
        <ele>1.82</ele>
        <time>2020-05-16T10:29:48Z</time>
      </trkpt>
      <trkpt lat="47.19742" lon="-1.54235">
        <ele>2.23</ele>
        <time>2020-05-16T10:29:50Z</time>
      </trkpt>
      <trkpt lat="47.19754" lon="-1.54225">
        <ele>2.34</ele>
        <time>2020-05-16T10:29:52Z</time>
      </trkpt>
      <trkpt lat="47.19764" lon="-1.54216">
        <ele>1.29</ele>
        <time>2020-05-16T10:29:54Z</time>
      </trkpt>
      <trkpt lat="47.19771" lon="-1.54207">
        <ele>1.3</ele>
        <time>2020-05-16T10:29:56Z</time>
      </trkpt>
      <trkpt lat="47.19781" lon="-1.542">
        <ele>1.43</ele>
        <time>2020-05-16T10:29:58Z</time>
      </trkpt>
      <trkpt lat="47.19789" lon="-1.54184">
        <ele>2.51</ele>
        <time>2020-05-16T10:30:00Z</time>
      </trkpt>
      <trkpt lat="47.19794" lon="-1.54168">
        <ele>3.6</ele>
        <time>2020-05-16T10:30:02Z</time>
      </trkpt>
      <trkpt lat="47.19797" lon="-1.5415">
        <ele>3.97</ele>
        <time>2020-05-16T10:30:04Z</time>
      </trkpt>
      <trkpt lat="47.19799" lon="-1.54132">
        <ele>5.24</ele>
        <time>2020-05-16T10:30:06Z</time>
      </trkpt>
      <trkpt lat="47.19805" lon="-1.54119">
        <ele>5.7</ele>
        <time>2020-05-16T10:30:08Z</time>
      </trkpt>
      <trkpt lat="47.19815" lon="-1.54106">
        <ele>5.18</ele>
        <time>2020-05-16T10:30:10Z</time>
      </trkpt>
      <trkpt lat="47.19826" lon="-1.54093">
        <ele>4.21</ele>
        <time>2020-05-16T10:30:12Z</time>
      </trkpt>
      <trkpt lat="47.19834" lon="-1.54076">
        <ele>3.04</ele>
        <time>2020-05-16T10:30:14Z</time>
      </trkpt>
      <trkpt lat="47.19843" lon="-1.54059">
        <ele>1.39</ele>
        <time>2020-05-16T10:30:16Z</time>
      </trkpt>
      <trkpt lat="47.1985" lon="-1.54041">
        <ele>0.07</ele>
        <time>2020-05-16T10:30:18Z</time>
      </trkpt>
      <trkpt lat="47.19857" lon="-1.5402">
        <ele>-0.44</ele>
        <time>2020-05-16T10:30:20Z</time>
      </trkpt>
      <trkpt lat="47.19863" lon="-1.54001">
        <ele>-0.67</ele>
        <time>2020-05-16T10:30:22Z</time>
      </trkpt>
      <trkpt lat="47.19868" lon="-1.53983">
        <ele>-0.74</ele>
        <time>2020-05-16T10:30:24Z</time>
      </trkpt>
      <trkpt lat="47.19873" lon="-1.53963">
        <ele>-0.24</ele>
        <time>2020-05-16T10:30:26Z</time>
      </trkpt>
      <trkpt lat="47.19879" lon="-1.53944">
        <ele>1.04</ele>
        <time>2020-05-16T10:30:28Z</time>
      </trkpt>
      <trkpt lat="47.19884" lon="-1.53923">
        <ele>1.05</ele>
        <time>2020-05-16T10:30:30Z</time>
      </trkpt>
      <trkpt lat="47.19889" lon="-1.53904">
        <ele>1.1</ele>
        <time>2020-05-16T10:30:32Z</time>
      </trkpt>
      <trkpt lat="47.19894" lon="-1.53882">
        <ele>-0.02</ele>
        <time>2020-05-16T10:30:34Z</time>
      </trkpt>
      <trkpt lat="47.19898" lon="-1.53865">
        <ele>-0.75</ele>
        <time>2020-05-16T10:30:36Z</time>
      </trkpt>
      <trkpt lat="47.19903" lon="-1.53843">
        <ele>-1.37</ele>
        <time>2020-05-16T10:30:38Z</time>
      </trkpt>
      <trkpt lat="47.19908" lon="-1.53823">
        <ele>-1.3</ele>
        <time>2020-05-16T10:30:40Z</time>
      </trkpt>
      <trkpt lat="47.19912" lon="-1.53805">
        <ele>-0.57</ele>
        <time>2020-05-16T10:30:42Z</time>
      </trkpt>
      <trkpt lat="47.19916" lon="-1.53785">
        <ele>0.19</ele>
        <time>2020-05-16T10:30:44Z</time>
      </trkpt>
      <trkpt lat="47.19921" lon="-1.53763">
        <ele>0.21</ele>
        <time>2020-05-16T10:30:46Z</time>
      </trkpt>
      <trkpt lat="47.19925" lon="-1.53743">
        <ele>0.35</ele>
        <time>2020-05-16T10:30:48Z</time>
      </trkpt>
      <trkpt lat="47.19929" lon="-1.53724">
        <ele>0.58</ele>
        <time>2020-05-16T10:30:50Z</time>
      </trkpt>
      <trkpt lat="47.19933" lon="-1.53705">
        <ele>0.53</ele>
        <time>2020-05-16T10:30:52Z</time>
      </trkpt>
      <trkpt lat="47.19937" lon="-1.53684">
        <ele>0.91</ele>
        <time>2020-05-16T10:30:54Z</time>
      </trkpt>
      <trkpt lat="47.19941" lon="-1.53666">
        <ele>0.72</ele>
        <time>2020-05-16T10:30:56Z</time>
      </trkpt>
      <trkpt lat="47.19945" lon="-1.53647">
        <ele>0.19</ele>
        <time>2020-05-16T10:30:58Z</time>
      </trkpt>
      <trkpt lat="47.1995" lon="-1.53626">
        <ele>0.51</ele>
        <time>2020-05-16T10:31:00Z</time>
      </trkpt>
      <trkpt lat="47.19954" lon="-1.53608">
        <ele>1.44</ele>
        <time>2020-05-16T10:31:02Z</time>
      </trkpt>
      <trkpt lat="47.19958" lon="-1.53592">
        <ele>2.21</ele>
        <time>2020-05-16T10:31:04Z</time>
      </trkpt>
      <trkpt lat="47.19964" lon="-1.53573">
        <ele>2.25</ele>
        <time>2020-05-16T10:31:06Z</time>
      </trkpt>
      <trkpt lat="47.19969" lon="-1.53555">
        <ele>2.65</ele>
        <time>2020-05-16T10:31:08Z</time>
      </trkpt>
      <trkpt lat="47.19974" lon="-1.53538">
        <ele>2.86</ele>
        <time>2020-05-16T10:31:10Z</time>
      </trkpt>
      <trkpt lat="47.19979" lon="-1.5352">
        <ele>2.29</ele>
        <time>2020-05-16T10:31:12Z</time>
      </trkpt>
      <trkpt lat="47.19983" lon="-1.53501">
        <ele>2.16</ele>
        <time>2020-05-16T10:31:14Z</time>
      </trkpt>
      <trkpt lat="47.19984" lon="-1.53481">
        <ele>2.27</ele>
        <time>2020-05-16T10:31:16Z</time>
      </trkpt>
      <trkpt lat="47.19991" lon="-1.53471">
        <ele>2.85</ele>
        <time>2020-05-16T10:31:18Z</time>
      </trkpt>
      <trkpt lat="47.20005" lon="-1.53469">
        <ele>2.08</ele>
        <time>2020-05-16T10:31:20Z</time>
      </trkpt>
      <trkpt lat="47.20015" lon="-1.53465">
        <ele>1.58</ele>
        <time>2020-05-16T10:31:22Z</time>
      </trkpt>
      <trkpt lat="47.20022" lon="-1.53453">
        <ele>2.65</ele>
        <time>2020-05-16T10:31:24Z</time>
      </trkpt>
      <trkpt lat="47.20029" lon="-1.53436">
        <ele>3.57</ele>
        <time>2020-05-16T10:31:26Z</time>
      </trkpt>
      <trkpt lat="47.20036" lon="-1.53421">
        <ele>3.82</ele>
        <time>2020-05-16T10:31:28Z</time>
      </trkpt>
      <trkpt lat="47.20042" lon="-1.53405">
        <ele>2.68</ele>
        <time>2020-05-16T10:31:30Z</time>
      </trkpt>
      <trkpt lat="47.20049" lon="-1.53388">
        <ele>1.74</ele>
        <time>2020-05-16T10:31:32Z</time>
      </trkpt>
      <trkpt lat="47.20057" lon="-1.53371">
        <ele>1.92</ele>
        <time>2020-05-16T10:31:34Z</time>
      </trkpt>
      <trkpt lat="47.20064" lon="-1.53359">
        <ele>2.41</ele>
        <time>2020-05-16T10:31:36Z</time>
      </trkpt>
      <trkpt lat="47.20073" lon="-1.53348">
        <ele>3.11</ele>
        <time>2020-05-16T10:31:38Z</time>
      </trkpt>
      <trkpt lat="47.2008" lon="-1.53331">
        <ele>2.79</ele>
        <time>2020-05-16T10:31:40Z</time>
      </trkpt>
      <trkpt lat="47.20087" lon="-1.53314">
        <ele>2.74</ele>
        <time>2020-05-16T10:31:42Z</time>
      </trkpt>
      <trkpt lat="47.20093" lon="-1.53297">
        <ele>2.04</ele>
        <time>2020-05-16T10:31:44Z</time>
      </trkpt>
      <trkpt lat="47.201" lon="-1.53278">
        <ele>1.59</ele>
        <time>2020-05-16T10:31:46Z</time>
      </trkpt>
      <trkpt lat="47.20106" lon="-1.53261">
        <ele>1.44</ele>
        <time>2020-05-16T10:31:48Z</time>
      </trkpt>
      <trkpt lat="47.20112" lon="-1.53243">
        <ele>0.9</ele>
        <time>2020-05-16T10:31:50Z</time>
      </trkpt>
      <trkpt lat="47.20118" lon="-1.53224">
        <ele>0.68</ele>
        <time>2020-05-16T10:31:52Z</time>
      </trkpt>
      <trkpt lat="47.20123" lon="-1.53205">
        <ele>0.61</ele>
        <time>2020-05-16T10:31:54Z</time>
      </trkpt>
      <trkpt lat="47.20127" lon="-1.53185">
        <ele>-0.09</ele>
        <time>2020-05-16T10:31:56Z</time>
      </trkpt>
      <trkpt lat="47.20132" lon="-1.53168">
        <ele>-0.69</ele>
        <time>2020-05-16T10:31:58Z</time>
      </trkpt>
      <trkpt lat="47.20138" lon="-1.53149">
        <ele>-0.83</ele>
        <time>2020-05-16T10:32:00Z</time>
      </trkpt>
      <trkpt lat="47.20143" lon="-1.53137">
        <ele>-0.39</ele>
        <time>2020-05-16T10:32:02Z</time>
      </trkpt>
      <trkpt lat="47.20149" lon="-1.53122">
        <ele>0.52</ele>
        <time>2020-05-16T10:32:04Z</time>
      </trkpt>
      <trkpt lat="47.20157" lon="-1.53105">
        <ele>1.48</ele>
        <time>2020-05-16T10:32:06Z</time>
      </trkpt>
      <trkpt lat="47.20163" lon="-1.53095">
        <ele>2.41</ele>
        <time>2020-05-16T10:32:08Z</time>
      </trkpt>
      <trkpt lat="47.20169" lon="-1.53082">
        <ele>2.38</ele>
        <time>2020-05-16T10:32:11Z</time>
      </trkpt>
      <trkpt lat="47.20179" lon="-1.53064">
        <ele>1.37</ele>
        <time>2020-05-16T10:32:14Z</time>
      </trkpt>
      <trkpt lat="47.20187" lon="-1.53051">
        <ele>1.47</ele>
        <time>2020-05-16T10:32:16Z</time>
      </trkpt>
      <trkpt lat="47.20199" lon="-1.53033">
        <ele>2.5</ele>
        <time>2020-05-16T10:32:18Z</time>
      </trkpt>
      <trkpt lat="47.2021" lon="-1.5302">
        <ele>3.16</ele>
        <time>2020-05-16T10:32:20Z</time>
      </trkpt>
      <trkpt lat="47.20223" lon="-1.53006">
        <ele>3.71</ele>
        <time>2020-05-16T10:32:22Z</time>
      </trkpt>
      <trkpt lat="47.20234" lon="-1.5299">
        <ele>3.68</ele>
        <time>2020-05-16T10:32:24Z</time>
      </trkpt>
      <trkpt lat="47.20244" lon="-1.52972">
        <ele>2.89</ele>
        <time>2020-05-16T10:32:26Z</time>
      </trkpt>
      <trkpt lat="47.20252" lon="-1.52957">
        <ele>2.73</ele>
        <time>2020-05-16T10:32:28Z</time>
      </trkpt>
      <trkpt lat="47.20262" lon="-1.5294">
        <ele>2.32</ele>
        <time>2020-05-16T10:32:30Z</time>
      </trkpt>
      <trkpt lat="47.20271" lon="-1.52923">
        <ele>2.22</ele>
        <time>2020-05-16T10:32:32Z</time>
      </trkpt>
      <trkpt lat="47.20279" lon="-1.52907">
        <ele>1.99</ele>
        <time>2020-05-16T10:32:34Z</time>
      </trkpt>
      <trkpt lat="47.20286" lon="-1.5289">
        <ele>1.37</ele>
        <time>2020-05-16T10:32:36Z</time>
      </trkpt>
      <trkpt lat="47.20295" lon="-1.52869">
        <ele>0.82</ele>
        <time>2020-05-16T10:32:38Z</time>
      </trkpt>
      <trkpt lat="47.20302" lon="-1.52851">
        <ele>0.58</ele>
        <time>2020-05-16T10:32:40Z</time>
      </trkpt>
      <trkpt lat="47.2031" lon="-1.52833">
        <ele>0.63</ele>
        <time>2020-05-16T10:32:42Z</time>
      </trkpt>
      <trkpt lat="47.20318" lon="-1.52816">
        <ele>2.36</ele>
        <time>2020-05-16T10:32:44Z</time>
      </trkpt>
      <trkpt lat="47.20326" lon="-1.528">
        <ele>3.77</ele>
        <time>2020-05-16T10:32:46Z</time>
      </trkpt>
      <trkpt lat="47.20334" lon="-1.52783">
        <ele>4.23</ele>
        <time>2020-05-16T10:32:48Z</time>
      </trkpt>
      <trkpt lat="47.20341" lon="-1.52766">
        <ele>3.85</ele>
        <time>2020-05-16T10:32:50Z</time>
      </trkpt>
      <trkpt lat="47.20349" lon="-1.52749">
        <ele>3.68</ele>
        <time>2020-05-16T10:32:52Z</time>
      </trkpt>
      <trkpt lat="47.20357" lon="-1.52733">
        <ele>3.66</ele>
        <time>2020-05-16T10:32:54Z</time>
      </trkpt>
      <trkpt lat="47.20365" lon="-1.52716">
        <ele>3.94</ele>
        <time>2020-05-16T10:32:56Z</time>
      </trkpt>
      <trkpt lat="47.20375" lon="-1.52699">
        <ele>4.33</ele>
        <time>2020-05-16T10:32:58Z</time>
      </trkpt>
      <trkpt lat="47.20384" lon="-1.52686">
        <ele>3.79</ele>
        <time>2020-05-16T10:33:00Z</time>
      </trkpt>
      <trkpt lat="47.20393" lon="-1.52668">
        <ele>3.76</ele>
        <time>2020-05-16T10:33:02Z</time>
      </trkpt>
      <trkpt lat="47.20402" lon="-1.52651">
        <ele>4.52</ele>
        <time>2020-05-16T10:33:04Z</time>
      </trkpt>
      <trkpt lat="47.20407" lon="-1.52638">
        <ele>5.29</ele>
        <time>2020-05-16T10:33:06Z</time>
      </trkpt>
      <trkpt lat="47.20413" lon="-1.52622">
        <ele>5.49</ele>
        <time>2020-05-16T10:33:08Z</time>
      </trkpt>
      <trkpt lat="47.20417" lon="-1.52607">
        <ele>4.66</ele>
        <time>2020-05-16T10:33:10Z</time>
      </trkpt>
      <trkpt lat="47.20424" lon="-1.52586">
        <ele>3.4</ele>
        <time>2020-05-16T10:33:12Z</time>
      </trkpt>
      <trkpt lat="47.20429" lon="-1.52568">
        <ele>2.65</ele>
        <time>2020-05-16T10:33:14Z</time>
      </trkpt>
      <trkpt lat="47.20433" lon="-1.5255">
        <ele>2.11</ele>
        <time>2020-05-16T10:33:16Z</time>
      </trkpt>
      <trkpt lat="47.20439" lon="-1.52532">
        <ele>1.52</ele>
        <time>2020-05-16T10:33:18Z</time>
      </trkpt>
      <trkpt lat="47.20445" lon="-1.52514">
        <ele>1.4</ele>
        <time>2020-05-16T10:33:20Z</time>
      </trkpt>
      <trkpt lat="47.20452" lon="-1.52499">
        <ele>0.47</ele>
        <time>2020-05-16T10:33:22Z</time>
      </trkpt>
      <trkpt lat="47.20458" lon="-1.52481">
        <ele>-0.54</ele>
        <time>2020-05-16T10:33:24Z</time>
      </trkpt>
      <trkpt lat="47.20464" lon="-1.52464">
        <ele>-0.98</ele>
        <time>2020-05-16T10:33:26Z</time>
      </trkpt>
      <trkpt lat="47.20471" lon="-1.52448">
        <ele>-0.69</ele>
        <time>2020-05-16T10:33:28Z</time>
      </trkpt>
      <trkpt lat="47.20478" lon="-1.52431">
        <ele>-0.02</ele>
        <time>2020-05-16T10:33:30Z</time>
      </trkpt>
      <trkpt lat="47.20485" lon="-1.52415">
        <ele>0.33</ele>
        <time>2020-05-16T10:33:32Z</time>
      </trkpt>
      <trkpt lat="47.20493" lon="-1.52393">
        <ele>-0.62</ele>
        <time>2020-05-16T10:33:34Z</time>
      </trkpt>
      <trkpt lat="47.20497" lon="-1.52377">
        <ele>-1.64</ele>
        <time>2020-05-16T10:33:36Z</time>
      </trkpt>
      <trkpt lat="47.20502" lon="-1.52357">
        <ele>-2.45</ele>
        <time>2020-05-16T10:33:38Z</time>
      </trkpt>
      <trkpt lat="47.20507" lon="-1.5234">
        <ele>-2.29</ele>
        <time>2020-05-16T10:33:40Z</time>
      </trkpt>
      <trkpt lat="47.20513" lon="-1.52321">
        <ele>-2.47</ele>
        <time>2020-05-16T10:33:42Z</time>
      </trkpt>
      <trkpt lat="47.20518" lon="-1.52304">
        <ele>-1.29</ele>
        <time>2020-05-16T10:33:44Z</time>
      </trkpt>
      <trkpt lat="47.20523" lon="-1.52285">
        <ele>0.26</ele>
        <time>2020-05-16T10:33:46Z</time>
      </trkpt>
      <trkpt lat="47.20528" lon="-1.52267">
        <ele>1.98</ele>
        <time>2020-05-16T10:33:48Z</time>
      </trkpt>
      <trkpt lat="47.20532" lon="-1.52253">
        <ele>2.99</ele>
        <time>2020-05-16T10:33:50Z</time>
      </trkpt>
      <trkpt lat="47.20538" lon="-1.52237">
        <ele>4.18</ele>
        <time>2020-05-16T10:33:52Z</time>
      </trkpt>
      <trkpt lat="47.20546" lon="-1.52222">
        <ele>4.36</ele>
        <time>2020-05-16T10:33:54Z</time>
      </trkpt>
      <trkpt lat="47.20553" lon="-1.52207">
        <ele>2.92</ele>
        <time>2020-05-16T10:33:56Z</time>
      </trkpt>
      <trkpt lat="47.20562" lon="-1.52193">
        <ele>2.41</ele>
        <time>2020-05-16T10:33:58Z</time>
      </trkpt>
      <trkpt lat="47.20571" lon="-1.52178">
        <ele>3.02</ele>
        <time>2020-05-16T10:34:00Z</time>
      </trkpt>
      <trkpt lat="47.20579" lon="-1.52165">
        <ele>2.94</ele>
        <time>2020-05-16T10:34:02Z</time>
      </trkpt>
      <trkpt lat="47.20588" lon="-1.5215">
        <ele>2.16</ele>
        <time>2020-05-16T10:34:04Z</time>
      </trkpt>
      <trkpt lat="47.20596" lon="-1.52135">
        <ele>1.73</ele>
        <time>2020-05-16T10:34:06Z</time>
      </trkpt>
      <trkpt lat="47.20605" lon="-1.5212">
        <ele>1.3</ele>
        <time>2020-05-16T10:34:08Z</time>
      </trkpt>
      <trkpt lat="47.20612" lon="-1.52107">
        <ele>1.06</ele>
        <time>2020-05-16T10:34:10Z</time>
      </trkpt>
      <trkpt lat="47.2062" lon="-1.52091">
        <ele>0.32</ele>
        <time>2020-05-16T10:34:12Z</time>
      </trkpt>
      <trkpt lat="47.2063" lon="-1.52076">
        <ele>-0.07</ele>
        <time>2020-05-16T10:34:14Z</time>
      </trkpt>
      <trkpt lat="47.20638" lon="-1.52061">
        <ele>0.58</ele>
        <time>2020-05-16T10:34:16Z</time>
      </trkpt>
      <trkpt lat="47.20647" lon="-1.52048">
        <ele>0.55</ele>
        <time>2020-05-16T10:34:18Z</time>
      </trkpt>
      <trkpt lat="47.20656" lon="-1.52035">
        <ele>0.73</ele>
        <time>2020-05-16T10:34:20Z</time>
      </trkpt>
      <trkpt lat="47.20665" lon="-1.5202">
        <ele>1.11</ele>
        <time>2020-05-16T10:34:22Z</time>
      </trkpt>
      <trkpt lat="47.20674" lon="-1.52003">
        <ele>2.09</ele>
        <time>2020-05-16T10:34:24Z</time>
      </trkpt>
      <trkpt lat="47.20681" lon="-1.5199">
        <ele>3.4</ele>
        <time>2020-05-16T10:34:26Z</time>
      </trkpt>
      <trkpt lat="47.2069" lon="-1.51976">
        <ele>3.88</ele>
        <time>2020-05-16T10:34:28Z</time>
      </trkpt>
      <trkpt lat="47.20698" lon="-1.51961">
        <ele>3.49</ele>
        <time>2020-05-16T10:34:30Z</time>
      </trkpt>
      <trkpt lat="47.20707" lon="-1.51947">
        <ele>2.92</ele>
        <time>2020-05-16T10:34:32Z</time>
      </trkpt>
      <trkpt lat="47.20715" lon="-1.51932">
        <ele>1.53</ele>
        <time>2020-05-16T10:34:34Z</time>
      </trkpt>
      <trkpt lat="47.20724" lon="-1.51915">
        <ele>1.34</ele>
        <time>2020-05-16T10:34:36Z</time>
      </trkpt>
      <trkpt lat="47.20731" lon="-1.51898">
        <ele>1.4</ele>
        <time>2020-05-16T10:34:38Z</time>
      </trkpt>
      <trkpt lat="47.20739" lon="-1.5188">
        <ele>1.26</ele>
        <time>2020-05-16T10:34:40Z</time>
      </trkpt>
      <trkpt lat="47.20745" lon="-1.51865">
        <ele>1.23</ele>
        <time>2020-05-16T10:34:42Z</time>
      </trkpt>
      <trkpt lat="47.20752" lon="-1.51847">
        <ele>0.81</ele>
        <time>2020-05-16T10:34:44Z</time>
      </trkpt>
      <trkpt lat="47.20759" lon="-1.51831">
        <ele>0.56</ele>
        <time>2020-05-16T10:34:46Z</time>
      </trkpt>
      <trkpt lat="47.20764" lon="-1.5181">
        <ele>0.9</ele>
        <time>2020-05-16T10:34:48Z</time>
      </trkpt>
      <trkpt lat="47.20767" lon="-1.51791">
        <ele>0.49</ele>
        <time>2020-05-16T10:34:50Z</time>
      </trkpt>
      <trkpt lat="47.20771" lon="-1.51771">
        <ele>-0.76</ele>
        <time>2020-05-16T10:34:52Z</time>
      </trkpt>
      <trkpt lat="47.20774" lon="-1.51751">
        <ele>-0.55</ele>
        <time>2020-05-16T10:34:54Z</time>
      </trkpt>
      <trkpt lat="47.20779" lon="-1.51733">
        <ele>0.09</ele>
        <time>2020-05-16T10:34:56Z</time>
      </trkpt>
      <trkpt lat="47.20784" lon="-1.51715">
        <ele>1.13</ele>
        <time>2020-05-16T10:34:58Z</time>
      </trkpt>
      <trkpt lat="47.20787" lon="-1.51698">
        <ele>0.92</ele>
        <time>2020-05-16T10:35:00Z</time>
      </trkpt>
      <trkpt lat="47.20791" lon="-1.51681">
        <ele>1.2</ele>
        <time>2020-05-16T10:35:02Z</time>
      </trkpt>
      <trkpt lat="47.20794" lon="-1.51661">
        <ele>2.14</ele>
        <time>2020-05-16T10:35:04Z</time>
      </trkpt>
      <trkpt lat="47.20798" lon="-1.5164">
        <ele>2.89</ele>
        <time>2020-05-16T10:35:06Z</time>
      </trkpt>
      <trkpt lat="47.20801" lon="-1.51619">
        <ele>2.51</ele>
        <time>2020-05-16T10:35:08Z</time>
      </trkpt>
      <trkpt lat="47.20805" lon="-1.51599">
        <ele>2.19</ele>
        <time>2020-05-16T10:35:10Z</time>
      </trkpt>
      <trkpt lat="47.20807" lon="-1.5158">
        <ele>1.94</ele>
        <time>2020-05-16T10:35:12Z</time>
      </trkpt>
      <trkpt lat="47.20809" lon="-1.51557">
        <ele>2.13</ele>
        <time>2020-05-16T10:35:14Z</time>
      </trkpt>
      <trkpt lat="47.20811" lon="-1.51539">
        <ele>2.76</ele>
        <time>2020-05-16T10:35:16Z</time>
      </trkpt>
      <trkpt lat="47.20814" lon="-1.51518">
        <ele>2.46</ele>
        <time>2020-05-16T10:35:18Z</time>
      </trkpt>
      <trkpt lat="47.20816" lon="-1.51499">
        <ele>1.39</ele>
        <time>2020-05-16T10:35:20Z</time>
      </trkpt>
      <trkpt lat="47.2082" lon="-1.51479">
        <ele>0.75</ele>
        <time>2020-05-16T10:35:22Z</time>
      </trkpt>
      <trkpt lat="47.20824" lon="-1.5146">
        <ele>0.84</ele>
        <time>2020-05-16T10:35:24Z</time>
      </trkpt>
      <trkpt lat="47.20827" lon="-1.5144">
        <ele>0.98</ele>
        <time>2020-05-16T10:35:26Z</time>
      </trkpt>
      <trkpt lat="47.2083" lon="-1.51417">
        <ele>0.44</ele>
        <time>2020-05-16T10:35:28Z</time>
      </trkpt>
      <trkpt lat="47.20834" lon="-1.51395">
        <ele>0.48</ele>
        <time>2020-05-16T10:35:30Z</time>
      </trkpt>
      <trkpt lat="47.20839" lon="-1.51373">
        <ele>0.23</ele>
        <time>2020-05-16T10:35:32Z</time>
      </trkpt>
      <trkpt lat="47.20844" lon="-1.51354">
        <ele>0.31</ele>
        <time>2020-05-16T10:35:34Z</time>
      </trkpt>
      <trkpt lat="47.20849" lon="-1.51334">
        <ele>0.42</ele>
        <time>2020-05-16T10:35:36Z</time>
      </trkpt>
      <trkpt lat="47.20853" lon="-1.51321">
        <ele>0.78</ele>
        <time>2020-05-16T10:35:37Z</time>
      </trkpt>
      <trkpt lat="47.20861" lon="-1.51303">
        <ele>0.91</ele>
        <time>2020-05-16T10:35:39Z</time>
      </trkpt>
      <trkpt lat="47.2087" lon="-1.51286">
        <ele>0.84</ele>
        <time>2020-05-16T10:35:41Z</time>
      </trkpt>
      <trkpt lat="47.20878" lon="-1.51269">
        <ele>0.46</ele>
        <time>2020-05-16T10:35:43Z</time>
      </trkpt>
      <trkpt lat="47.20885" lon="-1.51252">
        <ele>0.67</ele>
        <time>2020-05-16T10:35:45Z</time>
      </trkpt>
      <trkpt lat="47.20894" lon="-1.51233">
        <ele>1.25</ele>
        <time>2020-05-16T10:35:47Z</time>
      </trkpt>
      <trkpt lat="47.209" lon="-1.51215">
        <ele>1.18</ele>
        <time>2020-05-16T10:35:49Z</time>
      </trkpt>
      <trkpt lat="47.20908" lon="-1.51194">
        <ele>1.7</ele>
        <time>2020-05-16T10:35:51Z</time>
      </trkpt>
      <trkpt lat="47.20915" lon="-1.51174">
        <ele>2.74</ele>
        <time>2020-05-16T10:35:53Z</time>
      </trkpt>
      <trkpt lat="47.20921" lon="-1.51154">
        <ele>3.28</ele>
        <time>2020-05-16T10:35:55Z</time>
      </trkpt>
      <trkpt lat="47.20928" lon="-1.51135">
        <ele>2.78</ele>
        <time>2020-05-16T10:35:57Z</time>
      </trkpt>
      <trkpt lat="47.20934" lon="-1.51117">
        <ele>2.71</ele>
        <time>2020-05-16T10:35:59Z</time>
      </trkpt>
      <trkpt lat="47.2094" lon="-1.51099">
        <ele>1.75</ele>
        <time>2020-05-16T10:36:01Z</time>
      </trkpt>
      <trkpt lat="47.20946" lon="-1.5108">
        <ele>1.62</ele>
        <time>2020-05-16T10:36:03Z</time>
      </trkpt>
      <trkpt lat="47.20951" lon="-1.51061">
        <ele>1.92</ele>
        <time>2020-05-16T10:36:05Z</time>
      </trkpt>
      <trkpt lat="47.20954" lon="-1.51039">
        <ele>2.96</ele>
        <time>2020-05-16T10:36:07Z</time>
      </trkpt>
      <trkpt lat="47.20957" lon="-1.51022">
        <ele>3.14</ele>
        <time>2020-05-16T10:36:09Z</time>
      </trkpt>
      <trkpt lat="47.20962" lon="-1.51003">
        <ele>2.47</ele>
        <time>2020-05-16T10:36:11Z</time>
      </trkpt>
      <trkpt lat="47.20966" lon="-1.50985">
        <ele>2.19</ele>
        <time>2020-05-16T10:36:13Z</time>
      </trkpt>
      <trkpt lat="47.20966" lon="-1.50961">
        <ele>1.44</ele>
        <time>2020-05-16T10:36:15Z</time>
      </trkpt>
      <trkpt lat="47.20967" lon="-1.50942">
        <ele>0.85</ele>
        <time>2020-05-16T10:36:17Z</time>
      </trkpt>
      <trkpt lat="47.20969" lon="-1.50922">
        <ele>-0.42</ele>
        <time>2020-05-16T10:36:19Z</time>
      </trkpt>
      <trkpt lat="47.20972" lon="-1.50901">
        <ele>0.07</ele>
        <time>2020-05-16T10:36:21Z</time>
      </trkpt>
      <trkpt lat="47.20975" lon="-1.50879">
        <ele>1.48</ele>
        <time>2020-05-16T10:36:23Z</time>
      </trkpt>
      <trkpt lat="47.20978" lon="-1.50859">
        <ele>2.74</ele>
        <time>2020-05-16T10:36:25Z</time>
      </trkpt>
      <trkpt lat="47.2098" lon="-1.50843">
        <ele>2.64</ele>
        <time>2020-05-16T10:36:27Z</time>
      </trkpt>
      <trkpt lat="47.20982" lon="-1.5082">
        <ele>2.3</ele>
        <time>2020-05-16T10:36:30Z</time>
      </trkpt>
      <trkpt lat="47.20985" lon="-1.50797">
        <ele>1.45</ele>
        <time>2020-05-16T10:36:31Z</time>
      </trkpt>
      <trkpt lat="47.20987" lon="-1.50778">
        <ele>1.09</ele>
        <time>2020-05-16T10:36:33Z</time>
      </trkpt>
      <trkpt lat="47.20989" lon="-1.50756">
        <ele>1.59</ele>
        <time>2020-05-16T10:36:35Z</time>
      </trkpt>
      <trkpt lat="47.20992" lon="-1.50736">
        <ele>1.45</ele>
        <time>2020-05-16T10:36:37Z</time>
      </trkpt>
      <trkpt lat="47.20994" lon="-1.50715">
        <ele>1.7</ele>
        <time>2020-05-16T10:36:39Z</time>
      </trkpt>
      <trkpt lat="47.20995" lon="-1.50699">
        <ele>2.54</ele>
        <time>2020-05-16T10:36:41Z</time>
      </trkpt>
      <trkpt lat="47.20997" lon="-1.50678">
        <ele>3.58</ele>
        <time>2020-05-16T10:36:43Z</time>
      </trkpt>
      <trkpt lat="47.20999" lon="-1.50658">
        <ele>3.47</ele>
        <time>2020-05-16T10:36:45Z</time>
      </trkpt>
      <trkpt lat="47.21001" lon="-1.50636">
        <ele>2.91</ele>
        <time>2020-05-16T10:36:47Z</time>
      </trkpt>
      <trkpt lat="47.21001" lon="-1.50615">
        <ele>2.37</ele>
        <time>2020-05-16T10:36:49Z</time>
      </trkpt>
      <trkpt lat="47.21001" lon="-1.50593">
        <ele>1.83</ele>
        <time>2020-05-16T10:36:52Z</time>
      </trkpt>
      <trkpt lat="47.21002" lon="-1.50572">
        <ele>1.82</ele>
        <time>2020-05-16T10:36:54Z</time>
      </trkpt>
      <trkpt lat="47.21002" lon="-1.50553">
        <ele>1.74</ele>
        <time>2020-05-16T10:36:56Z</time>
      </trkpt>
      <trkpt lat="47.21002" lon="-1.50531">
        <ele>2.19</ele>
        <time>2020-05-16T10:36:58Z</time>
      </trkpt>
      <trkpt lat="47.21001" lon="-1.50512">
        <ele>2.78</ele>
        <time>2020-05-16T10:37:00Z</time>
      </trkpt>
      <trkpt lat="47.21" lon="-1.50494">
        <ele>2.96</ele>
        <time>2020-05-16T10:37:02Z</time>
      </trkpt>
      <trkpt lat="47.21" lon="-1.50473">
        <ele>2.38</ele>
        <time>2020-05-16T10:37:04Z</time>
      </trkpt>
      <trkpt lat="47.20999" lon="-1.50452">
        <ele>1.47</ele>
        <time>2020-05-16T10:37:06Z</time>
      </trkpt>
      <trkpt lat="47.20999" lon="-1.5043">
        <ele>0.65</ele>
        <time>2020-05-16T10:37:08Z</time>
      </trkpt>
      <trkpt lat="47.20999" lon="-1.50411">
        <ele>0.27</ele>
        <time>2020-05-16T10:37:10Z</time>
      </trkpt>
      <trkpt lat="47.20998" lon="-1.50388">
        <ele>-0.34</ele>
        <time>2020-05-16T10:37:12Z</time>
      </trkpt>
      <trkpt lat="47.20997" lon="-1.50369">
        <ele>-0.26</ele>
        <time>2020-05-16T10:37:14Z</time>
      </trkpt>
      <trkpt lat="47.20997" lon="-1.50349">
        <ele>-0.54</ele>
        <time>2020-05-16T10:37:16Z</time>
      </trkpt>
      <trkpt lat="47.20997" lon="-1.50326">
        <ele>-0.48</ele>
        <time>2020-05-16T10:37:18Z</time>
      </trkpt>
      <trkpt lat="47.20998" lon="-1.50306">
        <ele>-0.35</ele>
        <time>2020-05-16T10:37:20Z</time>
      </trkpt>
      <trkpt lat="47.20999" lon="-1.50284">
        <ele>-0.36</ele>
        <time>2020-05-16T10:37:22Z</time>
      </trkpt>
      <trkpt lat="47.21001" lon="-1.50267">
        <ele>-1.02</ele>
        <time>2020-05-16T10:37:24Z</time>
      </trkpt>
      <trkpt lat="47.21008" lon="-1.50249">
        <ele>-1.28</ele>
        <time>2020-05-16T10:37:26Z</time>
      </trkpt>
      <trkpt lat="47.21016" lon="-1.5023">
        <ele>-1.12</ele>
        <time>2020-05-16T10:37:28Z</time>
      </trkpt>
      <trkpt lat="47.21016" lon="-1.50212">
        <ele>-1.29</ele>
        <time>2020-05-16T10:37:30Z</time>
      </trkpt>
      <trkpt lat="47.21015" lon="-1.50192">
        <ele>-1.41</ele>
        <time>2020-05-16T10:37:32Z</time>
      </trkpt>
      <trkpt lat="47.21018" lon="-1.50173">
        <ele>-1.12</ele>
        <time>2020-05-16T10:37:34Z</time>
      </trkpt>
      <trkpt lat="47.21022" lon="-1.50151">
        <ele>-1.09</ele>
        <time>2020-05-16T10:37:36Z</time>
      </trkpt>
      <trkpt lat="47.21026" lon="-1.50132">
        <ele>-1.81</ele>
        <time>2020-05-16T10:37:38Z</time>
      </trkpt>
      <trkpt lat="47.2103" lon="-1.50113">
        <ele>-1.5</ele>
        <time>2020-05-16T10:37:40Z</time>
      </trkpt>
      <trkpt lat="47.21035" lon="-1.50094">
        <ele>-1.18</ele>
        <time>2020-05-16T10:37:42Z</time>
      </trkpt>
      <trkpt lat="47.21041" lon="-1.50073">
        <ele>0.19</ele>
        <time>2020-05-16T10:37:44Z</time>
      </trkpt>
      <trkpt lat="47.21045" lon="-1.50055">
        <ele>0.92</ele>
        <time>2020-05-16T10:37:46Z</time>
      </trkpt>
      <trkpt lat="47.21051" lon="-1.50035">
        <ele>1.51</ele>
        <time>2020-05-16T10:37:48Z</time>
      </trkpt>
      <trkpt lat="47.21058" lon="-1.50013">
        <ele>1.43</ele>
        <time>2020-05-16T10:37:50Z</time>
      </trkpt>
      <trkpt lat="47.21062" lon="-1.49994">
        <ele>1.06</ele>
        <time>2020-05-16T10:37:52Z</time>
      </trkpt>
      <trkpt lat="47.21067" lon="-1.49975">
        <ele>1.22</ele>
        <time>2020-05-16T10:37:54Z</time>
      </trkpt>
      <trkpt lat="47.21072" lon="-1.49955">
        <ele>1.81</ele>
        <time>2020-05-16T10:37:56Z</time>
      </trkpt>
      <trkpt lat="47.21076" lon="-1.49936">
        <ele>2.57</ele>
        <time>2020-05-16T10:37:58Z</time>
      </trkpt>
      <trkpt lat="47.21082" lon="-1.49914">
        <ele>2.34</ele>
        <time>2020-05-16T10:38:00Z</time>
      </trkpt>
      <trkpt lat="47.21088" lon="-1.49896">
        <ele>2.06</ele>
        <time>2020-05-16T10:38:02Z</time>
      </trkpt>
      <trkpt lat="47.21094" lon="-1.4988">
        <ele>1.34</ele>
        <time>2020-05-16T10:38:04Z</time>
      </trkpt>
      <trkpt lat="47.21097" lon="-1.4986">
        <ele>1.36</ele>
        <time>2020-05-16T10:38:06Z</time>
      </trkpt>
      <trkpt lat="47.211" lon="-1.49839">
        <ele>1.47</ele>
        <time>2020-05-16T10:38:08Z</time>
      </trkpt>
      <trkpt lat="47.21103" lon="-1.49819">
        <ele>1.44</ele>
        <time>2020-05-16T10:38:10Z</time>
      </trkpt>
      <trkpt lat="47.21107" lon="-1.49801">
        <ele>1.57</ele>
        <time>2020-05-16T10:38:12Z</time>
      </trkpt>
      <trkpt lat="47.21109" lon="-1.49782">
        <ele>1.56</ele>
        <time>2020-05-16T10:38:14Z</time>
      </trkpt>
      <trkpt lat="47.21112" lon="-1.49761">
        <ele>0.88</ele>
        <time>2020-05-16T10:38:16Z</time>
      </trkpt>
      <trkpt lat="47.21114" lon="-1.49741">
        <ele>0.39</ele>
        <time>2020-05-16T10:38:18Z</time>
      </trkpt>
      <trkpt lat="47.21115" lon="-1.49722">
        <ele>-0.03</ele>
        <time>2020-05-16T10:38:20Z</time>
      </trkpt>
      <trkpt lat="47.21116" lon="-1.49702">
        <ele>-0.83</ele>
        <time>2020-05-16T10:38:22Z</time>
      </trkpt>
      <trkpt lat="47.21117" lon="-1.49681">
        <ele>-0.97</ele>
        <time>2020-05-16T10:38:24Z</time>
      </trkpt>
      <trkpt lat="47.21117" lon="-1.49661">
        <ele>-1.05</ele>
        <time>2020-05-16T10:38:26Z</time>
      </trkpt>
      <trkpt lat="47.21118" lon="-1.4964">
        <ele>-0.74</ele>
        <time>2020-05-16T10:38:28Z</time>
      </trkpt>
      <trkpt lat="47.2112" lon="-1.49623">
        <ele>-0.2</ele>
        <time>2020-05-16T10:38:30Z</time>
      </trkpt>
      <trkpt lat="47.21125" lon="-1.49605">
        <ele>-0.76</ele>
        <time>2020-05-16T10:38:32Z</time>
      </trkpt>
      <trkpt lat="47.21134" lon="-1.4959">
        <ele>-0.75</ele>
        <time>2020-05-16T10:38:34Z</time>
      </trkpt>
      <trkpt lat="47.21134" lon="-1.49568">
        <ele>-0.04</ele>
        <time>2020-05-16T10:38:36Z</time>
      </trkpt>
      <trkpt lat="47.2113" lon="-1.4955">
        <ele>1.23</ele>
        <time>2020-05-16T10:38:38Z</time>
      </trkpt>
      <trkpt lat="47.21125" lon="-1.49532">
        <ele>2.61</ele>
        <time>2020-05-16T10:38:40Z</time>
      </trkpt>
      <trkpt lat="47.21124" lon="-1.49513">
        <ele>2.77</ele>
        <time>2020-05-16T10:38:42Z</time>
      </trkpt>
      <trkpt lat="47.21124" lon="-1.49491">
        <ele>2.13</ele>
        <time>2020-05-16T10:38:44Z</time>
      </trkpt>
      <trkpt lat="47.21124" lon="-1.4947">
        <ele>0.96</ele>
        <time>2020-05-16T10:38:46Z</time>
      </trkpt>
      <trkpt lat="47.21124" lon="-1.49448">
        <ele>0.32</ele>
        <time>2020-05-16T10:38:48Z</time>
      </trkpt>
      <trkpt lat="47.21125" lon="-1.49427">
        <ele>0.29</ele>
        <time>2020-05-16T10:38:50Z</time>
      </trkpt>
      <trkpt lat="47.21125" lon="-1.49407">
        <ele>0.96</ele>
        <time>2020-05-16T10:38:52Z</time>
      </trkpt>
      <trkpt lat="47.21126" lon="-1.49388">
        <ele>1.67</ele>
        <time>2020-05-16T10:38:54Z</time>
      </trkpt>
      <trkpt lat="47.21128" lon="-1.49366">
        <ele>1.46</ele>
        <time>2020-05-16T10:38:56Z</time>
      </trkpt>
      <trkpt lat="47.21129" lon="-1.49346">
        <ele>0.99</ele>
        <time>2020-05-16T10:38:58Z</time>
      </trkpt>
      <trkpt lat="47.2113" lon="-1.49327">
        <ele>1.03</ele>
        <time>2020-05-16T10:39:00Z</time>
      </trkpt>
      <trkpt lat="47.21131" lon="-1.49308">
        <ele>1.09</ele>
        <time>2020-05-16T10:39:02Z</time>
      </trkpt>
      <trkpt lat="47.21131" lon="-1.49287">
        <ele>1.87</ele>
        <time>2020-05-16T10:39:04Z</time>
      </trkpt>
      <trkpt lat="47.21132" lon="-1.49266">
        <ele>3.02</ele>
        <time>2020-05-16T10:39:06Z</time>
      </trkpt>
      <trkpt lat="47.21133" lon="-1.49244">
        <ele>3.42</ele>
        <time>2020-05-16T10:39:08Z</time>
      </trkpt>
      <trkpt lat="47.21135" lon="-1.49228">
        <ele>2.44</ele>
        <time>2020-05-16T10:39:10Z</time>
      </trkpt>
      <trkpt lat="47.21137" lon="-1.49207">
        <ele>2</ele>
        <time>2020-05-16T10:39:12Z</time>
      </trkpt>
      <trkpt lat="47.21138" lon="-1.49187">
        <ele>2.07</ele>
        <time>2020-05-16T10:39:14Z</time>
      </trkpt>
      <trkpt lat="47.2114" lon="-1.49167">
        <ele>1.23</ele>
        <time>2020-05-16T10:39:16Z</time>
      </trkpt>
      <trkpt lat="47.21142" lon="-1.49146">
        <ele>1.83</ele>
        <time>2020-05-16T10:39:18Z</time>
      </trkpt>
      <trkpt lat="47.21145" lon="-1.49127">
        <ele>3.77</ele>
        <time>2020-05-16T10:39:20Z</time>
      </trkpt>
      <trkpt lat="47.21148" lon="-1.49109">
        <ele>4.84</ele>
        <time>2020-05-16T10:39:22Z</time>
      </trkpt>
      <trkpt lat="47.21155" lon="-1.49091">
        <ele>4.24</ele>
        <time>2020-05-16T10:39:24Z</time>
      </trkpt>
      <trkpt lat="47.21158" lon="-1.49071">
        <ele>3.38</ele>
        <time>2020-05-16T10:39:26Z</time>
      </trkpt>
      <trkpt lat="47.21153" lon="-1.49054">
        <ele>2.14</ele>
        <time>2020-05-16T10:39:28Z</time>
      </trkpt>
      <trkpt lat="47.21152" lon="-1.49038">
        <ele>1.89</ele>
        <time>2020-05-16T10:39:30Z</time>
      </trkpt>
      <trkpt lat="47.21153" lon="-1.49018">
        <ele>2.72</ele>
        <time>2020-05-16T10:39:32Z</time>
      </trkpt>
      <trkpt lat="47.21156" lon="-1.48999">
        <ele>2.93</ele>
        <time>2020-05-16T10:39:34Z</time>
      </trkpt>
      <trkpt lat="47.2116" lon="-1.4898">
        <ele>3.47</ele>
        <time>2020-05-16T10:39:36Z</time>
      </trkpt>
      <trkpt lat="47.21164" lon="-1.48958">
        <ele>3.39</ele>
        <time>2020-05-16T10:39:38Z</time>
      </trkpt>
      <trkpt lat="47.21168" lon="-1.4894">
        <ele>2.95</ele>
        <time>2020-05-16T10:39:40Z</time>
      </trkpt>
      <trkpt lat="47.21171" lon="-1.48921">
        <ele>1.99</ele>
        <time>2020-05-16T10:39:42Z</time>
      </trkpt>
      <trkpt lat="47.21176" lon="-1.48903">
        <ele>2.08</ele>
        <time>2020-05-16T10:39:44Z</time>
      </trkpt>
      <trkpt lat="47.21179" lon="-1.48883">
        <ele>1.78</ele>
        <time>2020-05-16T10:39:46Z</time>
      </trkpt>
      <trkpt lat="47.21183" lon="-1.48864">
        <ele>1.29</ele>
        <time>2020-05-16T10:39:48Z</time>
      </trkpt>
      <trkpt lat="47.21187" lon="-1.48845">
        <ele>1.62</ele>
        <time>2020-05-16T10:39:50Z</time>
      </trkpt>
      <trkpt lat="47.2119" lon="-1.48823">
        <ele>1.04</ele>
        <time>2020-05-16T10:39:52Z</time>
      </trkpt>
      <trkpt lat="47.21193" lon="-1.48806">
        <ele>0.92</ele>
        <time>2020-05-16T10:39:54Z</time>
      </trkpt>
      <trkpt lat="47.21197" lon="-1.48788">
        <ele>0.39</ele>
        <time>2020-05-16T10:39:56Z</time>
      </trkpt>
      <trkpt lat="47.212" lon="-1.48771">
        <ele>0.97</ele>
        <time>2020-05-16T10:39:58Z</time>
      </trkpt>
      <trkpt lat="47.21205" lon="-1.48752">
        <ele>2.19</ele>
        <time>2020-05-16T10:40:00Z</time>
      </trkpt>
      <trkpt lat="47.21209" lon="-1.48733">
        <ele>3.03</ele>
        <time>2020-05-16T10:40:02Z</time>
      </trkpt>
      <trkpt lat="47.21214" lon="-1.48714">
        <ele>3.75</ele>
        <time>2020-05-16T10:40:04Z</time>
      </trkpt>
      <trkpt lat="47.21218" lon="-1.48695">
        <ele>3.48</ele>
        <time>2020-05-16T10:40:06Z</time>
      </trkpt>
      <trkpt lat="47.21223" lon="-1.48678">
        <ele>3.83</ele>
        <time>2020-05-16T10:40:08Z</time>
      </trkpt>
      <trkpt lat="47.21228" lon="-1.48659">
        <ele>3.33</ele>
        <time>2020-05-16T10:40:10Z</time>
      </trkpt>
      <trkpt lat="47.21233" lon="-1.4864">
        <ele>3.15</ele>
        <time>2020-05-16T10:40:12Z</time>
      </trkpt>
      <trkpt lat="47.21238" lon="-1.48621">
        <ele>3.13</ele>
        <time>2020-05-16T10:40:14Z</time>
      </trkpt>
      <trkpt lat="47.21243" lon="-1.48607">
        <ele>2.77</ele>
        <time>2020-05-16T10:40:16Z</time>
      </trkpt>
      <trkpt lat="47.21248" lon="-1.48588">
        <ele>2.41</ele>
        <time>2020-05-16T10:40:18Z</time>
      </trkpt>
      <trkpt lat="47.21253" lon="-1.4857">
        <ele>3.13</ele>
        <time>2020-05-16T10:40:20Z</time>
      </trkpt>
      <trkpt lat="47.21258" lon="-1.48552">
        <ele>2.79</ele>
        <time>2020-05-16T10:40:22Z</time>
      </trkpt>
      <trkpt lat="47.21263" lon="-1.48534">
        <ele>2.3</ele>
        <time>2020-05-16T10:40:24Z</time>
      </trkpt>
      <trkpt lat="47.21271" lon="-1.48522">
        <ele>1.55</ele>
        <time>2020-05-16T10:40:26Z</time>
      </trkpt>
      <trkpt lat="47.21283" lon="-1.48512">
        <ele>1.53</ele>
        <time>2020-05-16T10:40:28Z</time>
      </trkpt>
      <trkpt lat="47.21291" lon="-1.485">
        <ele>1.91</ele>
        <time>2020-05-16T10:40:30Z</time>
      </trkpt>
      <trkpt lat="47.21296" lon="-1.48481">
        <ele>1.55</ele>
        <time>2020-05-16T10:40:32Z</time>
      </trkpt>
      <trkpt lat="47.21299" lon="-1.48462">
        <ele>0.46</ele>
        <time>2020-05-16T10:40:34Z</time>
      </trkpt>
      <trkpt lat="47.21303" lon="-1.48444">
        <ele>-0.05</ele>
        <time>2020-05-16T10:40:36Z</time>
      </trkpt>
      <trkpt lat="47.21307" lon="-1.48425">
        <ele>0.53</ele>
        <time>2020-05-16T10:40:38Z</time>
      </trkpt>
      <trkpt lat="47.21313" lon="-1.48406">
        <ele>1.24</ele>
        <time>2020-05-16T10:40:40Z</time>
      </trkpt>
      <trkpt lat="47.2132" lon="-1.48387">
        <ele>1.55</ele>
        <time>2020-05-16T10:40:42Z</time>
      </trkpt>
      <trkpt lat="47.21325" lon="-1.48369">
        <ele>1.65</ele>
        <time>2020-05-16T10:40:44Z</time>
      </trkpt>
      <trkpt lat="47.21331" lon="-1.48351">
        <ele>1.4</ele>
        <time>2020-05-16T10:40:46Z</time>
      </trkpt>
      <trkpt lat="47.21337" lon="-1.48333">
        <ele>0.95</ele>
        <time>2020-05-16T10:40:48Z</time>
      </trkpt>
      <trkpt lat="47.21343" lon="-1.48313">
        <ele>0.56</ele>
        <time>2020-05-16T10:40:50Z</time>
      </trkpt>
      <trkpt lat="47.21349" lon="-1.48295">
        <ele>0.66</ele>
        <time>2020-05-16T10:40:52Z</time>
      </trkpt>
      <trkpt lat="47.21355" lon="-1.48276">
        <ele>1.04</ele>
        <time>2020-05-16T10:40:54Z</time>
      </trkpt>
      <trkpt lat="47.21361" lon="-1.48258">
        <ele>1.52</ele>
        <time>2020-05-16T10:40:56Z</time>
      </trkpt>
      <trkpt lat="47.21368" lon="-1.4824">
        <ele>2</ele>
        <time>2020-05-16T10:40:58Z</time>
      </trkpt>
      <trkpt lat="47.21374" lon="-1.48224">
        <ele>2.36</ele>
        <time>2020-05-16T10:41:00Z</time>
      </trkpt>
      <trkpt lat="47.21381" lon="-1.48205">
        <ele>2.22</ele>
        <time>2020-05-16T10:41:02Z</time>
      </trkpt>
      <trkpt lat="47.21387" lon="-1.4819">
        <ele>1.64</ele>
        <time>2020-05-16T10:41:04Z</time>
      </trkpt>
      <trkpt lat="47.21394" lon="-1.48175">
        <ele>0.69</ele>
        <time>2020-05-16T10:41:06Z</time>
      </trkpt>
      <trkpt lat="47.21403" lon="-1.48157">
        <ele>0.33</ele>
        <time>2020-05-16T10:41:08Z</time>
      </trkpt>
      <trkpt lat="47.21411" lon="-1.48141">
        <ele>1.24</ele>
        <time>2020-05-16T10:41:10Z</time>
      </trkpt>
      <trkpt lat="47.21419" lon="-1.48127">
        <ele>1.63</ele>
        <time>2020-05-16T10:41:12Z</time>
      </trkpt>
      <trkpt lat="47.21429" lon="-1.4811">
        <ele>1.29</ele>
        <time>2020-05-16T10:41:14Z</time>
      </trkpt>
      <trkpt lat="47.21438" lon="-1.48095">
        <ele>1.15</ele>
        <time>2020-05-16T10:41:16Z</time>
      </trkpt>
      <trkpt lat="47.21447" lon="-1.4808">
        <ele>0.32</ele>
        <time>2020-05-16T10:41:18Z</time>
      </trkpt>
      <trkpt lat="47.21457" lon="-1.48065">
        <ele>-0.28</ele>
        <time>2020-05-16T10:41:20Z</time>
      </trkpt>
      <trkpt lat="47.21467" lon="-1.48051">
        <ele>0.18</ele>
        <time>2020-05-16T10:41:22Z</time>
      </trkpt>
      <trkpt lat="47.21477" lon="-1.48038">
        <ele>0.18</ele>
        <time>2020-05-16T10:41:24Z</time>
      </trkpt>
      <trkpt lat="47.21488" lon="-1.48025">
        <ele>0.35</ele>
        <time>2020-05-16T10:41:26Z</time>
      </trkpt>
      <trkpt lat="47.21498" lon="-1.48012">
        <ele>0.63</ele>
        <time>2020-05-16T10:41:28Z</time>
      </trkpt>
      <trkpt lat="47.21508" lon="-1.48001">
        <ele>0.91</ele>
        <time>2020-05-16T10:41:30Z</time>
      </trkpt>
      <trkpt lat="47.2152" lon="-1.47988">
        <ele>0.85</ele>
        <time>2020-05-16T10:41:32Z</time>
      </trkpt>
      <trkpt lat="47.2153" lon="-1.47977">
        <ele>1</ele>
        <time>2020-05-16T10:41:34Z</time>
      </trkpt>
      <trkpt lat="47.21541" lon="-1.47967">
        <ele>1.04</ele>
        <time>2020-05-16T10:41:36Z</time>
      </trkpt>
      <trkpt lat="47.21552" lon="-1.47956">
        <ele>1.46</ele>
        <time>2020-05-16T10:41:38Z</time>
      </trkpt>
      <trkpt lat="47.21562" lon="-1.47947">
        <ele>2.25</ele>
        <time>2020-05-16T10:41:40Z</time>
      </trkpt>
      <trkpt lat="47.21573" lon="-1.47935">
        <ele>2.58</ele>
        <time>2020-05-16T10:41:42Z</time>
      </trkpt>
      <trkpt lat="47.21584" lon="-1.47925">
        <ele>2.52</ele>
        <time>2020-05-16T10:41:44Z</time>
      </trkpt>
      <trkpt lat="47.21596" lon="-1.47914">
        <ele>2.39</ele>
        <time>2020-05-16T10:41:46Z</time>
      </trkpt>
      <trkpt lat="47.21607" lon="-1.47904">
        <ele>2.09</ele>
        <time>2020-05-16T10:41:48Z</time>
      </trkpt>
      <trkpt lat="47.21618" lon="-1.47895">
        <ele>2.16</ele>
        <time>2020-05-16T10:41:50Z</time>
      </trkpt>
      <trkpt lat="47.21628" lon="-1.47885">
        <ele>2.06</ele>
        <time>2020-05-16T10:41:52Z</time>
      </trkpt>
      <trkpt lat="47.21641" lon="-1.47874">
        <ele>3.03</ele>
        <time>2020-05-16T10:41:54Z</time>
      </trkpt>
      <trkpt lat="47.2165" lon="-1.47866">
        <ele>4.59</ele>
        <time>2020-05-16T10:41:56Z</time>
      </trkpt>
      <trkpt lat="47.2166" lon="-1.47856">
        <ele>4.96</ele>
        <time>2020-05-16T10:41:58Z</time>
      </trkpt>
      <trkpt lat="47.21672" lon="-1.47845">
        <ele>4.82</ele>
        <time>2020-05-16T10:42:00Z</time>
      </trkpt>
      <trkpt lat="47.21685" lon="-1.47834">
        <ele>4.17</ele>
        <time>2020-05-16T10:42:02Z</time>
      </trkpt>
      <trkpt lat="47.21696" lon="-1.47824">
        <ele>3.86</ele>
        <time>2020-05-16T10:42:04Z</time>
      </trkpt>
      <trkpt lat="47.21704" lon="-1.47816">
        <ele>3.69</ele>
        <time>2020-05-16T10:42:06Z</time>
      </trkpt>
      <trkpt lat="47.21715" lon="-1.47807">
        <ele>3.48</ele>
        <time>2020-05-16T10:42:08Z</time>
      </trkpt>
      <trkpt lat="47.21725" lon="-1.47797">
        <ele>3.41</ele>
        <time>2020-05-16T10:42:10Z</time>
      </trkpt>
      <trkpt lat="47.21736" lon="-1.47787">
        <ele>3.69</ele>
        <time>2020-05-16T10:42:12Z</time>
      </trkpt>
      <trkpt lat="47.21747" lon="-1.47777">
        <ele>2.81</ele>
        <time>2020-05-16T10:42:14Z</time>
      </trkpt>
      <trkpt lat="47.21756" lon="-1.47768">
        <ele>2.57</ele>
        <time>2020-05-16T10:42:16Z</time>
      </trkpt>
      <trkpt lat="47.21768" lon="-1.47758">
        <ele>2.42</ele>
        <time>2020-05-16T10:42:18Z</time>
      </trkpt>
      <trkpt lat="47.21779" lon="-1.47748">
        <ele>2.4</ele>
        <time>2020-05-16T10:42:20Z</time>
      </trkpt>
      <trkpt lat="47.21791" lon="-1.47739">
        <ele>2.46</ele>
        <time>2020-05-16T10:42:22Z</time>
      </trkpt>
      <trkpt lat="47.21803" lon="-1.47729">
        <ele>2.77</ele>
        <time>2020-05-16T10:42:24Z</time>
      </trkpt>
      <trkpt lat="47.21814" lon="-1.47721">
        <ele>3.74</ele>
        <time>2020-05-16T10:42:26Z</time>
      </trkpt>
      <trkpt lat="47.21826" lon="-1.47712">
        <ele>4.09</ele>
        <time>2020-05-16T10:42:28Z</time>
      </trkpt>
      <trkpt lat="47.21839" lon="-1.47703">
        <ele>4.07</ele>
        <time>2020-05-16T10:42:30Z</time>
      </trkpt>
      <trkpt lat="47.21851" lon="-1.47692">
        <ele>3.76</ele>
        <time>2020-05-16T10:42:32Z</time>
      </trkpt>
      <trkpt lat="47.21864" lon="-1.4768">
        <ele>3.37</ele>
        <time>2020-05-16T10:42:34Z</time>
      </trkpt>
      <trkpt lat="47.21876" lon="-1.47669">
        <ele>2.67</ele>
        <time>2020-05-16T10:42:36Z</time>
      </trkpt>
      <trkpt lat="47.21888" lon="-1.47658">
        <ele>2.02</ele>
        <time>2020-05-16T10:42:38Z</time>
      </trkpt>
      <trkpt lat="47.219" lon="-1.47646">
        <ele>1.97</ele>
        <time>2020-05-16T10:42:40Z</time>
      </trkpt>
      <trkpt lat="47.21912" lon="-1.47635">
        <ele>2.25</ele>
        <time>2020-05-16T10:42:42Z</time>
      </trkpt>
      <trkpt lat="47.21925" lon="-1.47623">
        <ele>2.52</ele>
        <time>2020-05-16T10:42:44Z</time>
      </trkpt>
      <trkpt lat="47.21937" lon="-1.47612">
        <ele>2.42</ele>
        <time>2020-05-16T10:42:46Z</time>
      </trkpt>
      <trkpt lat="47.21949" lon="-1.47601">
        <ele>2.3</ele>
        <time>2020-05-16T10:42:48Z</time>
      </trkpt>
      <trkpt lat="47.21961" lon="-1.47589">
        <ele>1.91</ele>
        <time>2020-05-16T10:42:50Z</time>
      </trkpt>
      <trkpt lat="47.21975" lon="-1.47577">
        <ele>2.31</ele>
        <time>2020-05-16T10:42:52Z</time>
      </trkpt>
      <trkpt lat="47.21986" lon="-1.47567">
        <ele>2.92</ele>
        <time>2020-05-16T10:42:54Z</time>
      </trkpt>
      <trkpt lat="47.21998" lon="-1.47556">
        <ele>3.78</ele>
        <time>2020-05-16T10:42:56Z</time>
      </trkpt>
      <trkpt lat="47.22011" lon="-1.47543">
        <ele>4.55</ele>
        <time>2020-05-16T10:42:58Z</time>
      </trkpt>
      <trkpt lat="47.22022" lon="-1.47533">
        <ele>4.45</ele>
        <time>2020-05-16T10:43:00Z</time>
      </trkpt>
      <trkpt lat="47.22034" lon="-1.47522">
        <ele>3.97</ele>
        <time>2020-05-16T10:43:02Z</time>
      </trkpt>
      <trkpt lat="47.22047" lon="-1.4751">
        <ele>3.55</ele>
        <time>2020-05-16T10:43:04Z</time>
      </trkpt>
      <trkpt lat="47.22058" lon="-1.475">
        <ele>3.51</ele>
        <time>2020-05-16T10:43:06Z</time>
      </trkpt>
      <trkpt lat="47.22069" lon="-1.4749">
        <ele>3.43</ele>
        <time>2020-05-16T10:43:08Z</time>
      </trkpt>
      <trkpt lat="47.22082" lon="-1.4748">
        <ele>3.43</ele>
        <time>2020-05-16T10:43:10Z</time>
      </trkpt>
      <trkpt lat="47.22093" lon="-1.47469">
        <ele>3.07</ele>
        <time>2020-05-16T10:43:12Z</time>
      </trkpt>
      <trkpt lat="47.22105" lon="-1.47458">
        <ele>2.66</ele>
        <time>2020-05-16T10:43:14Z</time>
      </trkpt>
      <trkpt lat="47.22118" lon="-1.47447">
        <ele>1.34</ele>
        <time>2020-05-16T10:43:16Z</time>
      </trkpt>
      <trkpt lat="47.2213" lon="-1.47436">
        <ele>0.42</ele>
        <time>2020-05-16T10:43:18Z</time>
      </trkpt>
      <trkpt lat="47.2214" lon="-1.47428">
        <ele>0.3</ele>
        <time>2020-05-16T10:43:20Z</time>
      </trkpt>
      <trkpt lat="47.22152" lon="-1.47417">
        <ele>0.35</ele>
        <time>2020-05-16T10:43:22Z</time>
      </trkpt>
      <trkpt lat="47.22163" lon="-1.47407">
        <ele>-0.12</ele>
        <time>2020-05-16T10:43:24Z</time>
      </trkpt>
      <trkpt lat="47.22176" lon="-1.47397">
        <ele>0.03</ele>
        <time>2020-05-16T10:43:26Z</time>
      </trkpt>
      <trkpt lat="47.22188" lon="-1.47387">
        <ele>0.32</ele>
        <time>2020-05-16T10:43:28Z</time>
      </trkpt>
      <trkpt lat="47.22202" lon="-1.47377">
        <ele>0.89</ele>
        <time>2020-05-16T10:43:30Z</time>
      </trkpt>
      <trkpt lat="47.22214" lon="-1.47367">
        <ele>1.05</ele>
        <time>2020-05-16T10:43:32Z</time>
      </trkpt>
      <trkpt lat="47.22225" lon="-1.47358">
        <ele>1.04</ele>
        <time>2020-05-16T10:43:34Z</time>
      </trkpt>
      <trkpt lat="47.22239" lon="-1.4735">
        <ele>1.11</ele>
        <time>2020-05-16T10:43:36Z</time>
      </trkpt>
      <trkpt lat="47.22252" lon="-1.47343">
        <ele>1.29</ele>
        <time>2020-05-16T10:43:38Z</time>
      </trkpt>
      <trkpt lat="47.22265" lon="-1.47333">
        <ele>0.61</ele>
        <time>2020-05-16T10:43:40Z</time>
      </trkpt>
      <trkpt lat="47.22278" lon="-1.47324">
        <ele>1.01</ele>
        <time>2020-05-16T10:43:42Z</time>
      </trkpt>
      <trkpt lat="47.2229" lon="-1.47313">
        <ele>1.55</ele>
        <time>2020-05-16T10:43:44Z</time>
      </trkpt>
      <trkpt lat="47.223" lon="-1.47304">
        <ele>2.06</ele>
        <time>2020-05-16T10:43:46Z</time>
      </trkpt>
      <trkpt lat="47.22313" lon="-1.47294">
        <ele>2.02</ele>
        <time>2020-05-16T10:43:48Z</time>
      </trkpt>
      <trkpt lat="47.22324" lon="-1.47284">
        <ele>2.55</ele>
        <time>2020-05-16T10:43:50Z</time>
      </trkpt>
      <trkpt lat="47.22336" lon="-1.47274">
        <ele>2.57</ele>
        <time>2020-05-16T10:43:52Z</time>
      </trkpt>
      <trkpt lat="47.22348" lon="-1.47264">
        <ele>2.07</ele>
        <time>2020-05-16T10:43:54Z</time>
      </trkpt>
      <trkpt lat="47.2236" lon="-1.47254">
        <ele>2.14</ele>
        <time>2020-05-16T10:43:56Z</time>
      </trkpt>
      <trkpt lat="47.22372" lon="-1.47243">
        <ele>2.24</ele>
        <time>2020-05-16T10:43:58Z</time>
      </trkpt>
      <trkpt lat="47.22383" lon="-1.47232">
        <ele>2.07</ele>
        <time>2020-05-16T10:44:00Z</time>
      </trkpt>
      <trkpt lat="47.22394" lon="-1.47221">
        <ele>1.26</ele>
        <time>2020-05-16T10:44:02Z</time>
      </trkpt>
      <trkpt lat="47.22404" lon="-1.4721">
        <ele>1.3</ele>
        <time>2020-05-16T10:44:04Z</time>
      </trkpt>
      <trkpt lat="47.22415" lon="-1.47198">
        <ele>2.39</ele>
        <time>2020-05-16T10:44:06Z</time>
      </trkpt>
      <trkpt lat="47.22425" lon="-1.47187">
        <ele>3.78</ele>
        <time>2020-05-16T10:44:08Z</time>
      </trkpt>
      <trkpt lat="47.22435" lon="-1.47177">
        <ele>4.1</ele>
        <time>2020-05-16T10:44:10Z</time>
      </trkpt>
      <trkpt lat="47.22445" lon="-1.47168">
        <ele>3.87</ele>
        <time>2020-05-16T10:44:12Z</time>
      </trkpt>
      <trkpt lat="47.22457" lon="-1.47159">
        <ele>3.62</ele>
        <time>2020-05-16T10:44:14Z</time>
      </trkpt>
      <trkpt lat="47.22468" lon="-1.47149">
        <ele>2.63</ele>
        <time>2020-05-16T10:44:16Z</time>
      </trkpt>
      <trkpt lat="47.22481" lon="-1.4714">
        <ele>1.84</ele>
        <time>2020-05-16T10:44:18Z</time>
      </trkpt>
      <trkpt lat="47.22493" lon="-1.47133">
        <ele>2.29</ele>
        <time>2020-05-16T10:44:20Z</time>
      </trkpt>
      <trkpt lat="47.22506" lon="-1.47127">
        <ele>2.69</ele>
        <time>2020-05-16T10:44:22Z</time>
      </trkpt>
      <trkpt lat="47.22518" lon="-1.47124">
        <ele>2.9</ele>
        <time>2020-05-16T10:44:24Z</time>
      </trkpt>
      <trkpt lat="47.2253" lon="-1.47121">
        <ele>3.08</ele>
        <time>2020-05-16T10:44:26Z</time>
      </trkpt>
      <trkpt lat="47.22544" lon="-1.47118">
        <ele>3.04</ele>
        <time>2020-05-16T10:44:28Z</time>
      </trkpt>
      <trkpt lat="47.22558" lon="-1.47116">
        <ele>3.5</ele>
        <time>2020-05-16T10:44:30Z</time>
      </trkpt>
      <trkpt lat="47.22572" lon="-1.47113">
        <ele>3.07</ele>
        <time>2020-05-16T10:44:32Z</time>
      </trkpt>
      <trkpt lat="47.22585" lon="-1.47106">
        <ele>2.61</ele>
        <time>2020-05-16T10:44:34Z</time>
      </trkpt>
      <trkpt lat="47.22594" lon="-1.47093">
        <ele>2.1</ele>
        <time>2020-05-16T10:44:36Z</time>
      </trkpt>
      <trkpt lat="47.22604" lon="-1.4708">
        <ele>1.63</ele>
        <time>2020-05-16T10:44:38Z</time>
      </trkpt>
      <trkpt lat="47.22613" lon="-1.47065">
        <ele>1.71</ele>
        <time>2020-05-16T10:44:40Z</time>
      </trkpt>
      <trkpt lat="47.22622" lon="-1.47048">
        <ele>1.61</ele>
        <time>2020-05-16T10:44:42Z</time>
      </trkpt>
      <trkpt lat="47.22632" lon="-1.47031">
        <ele>1.31</ele>
        <time>2020-05-16T10:44:44Z</time>
      </trkpt>
      <trkpt lat="47.22642" lon="-1.47016">
        <ele>0.95</ele>
        <time>2020-05-16T10:44:46Z</time>
      </trkpt>
      <trkpt lat="47.22652" lon="-1.47004">
        <ele>0.22</ele>
        <time>2020-05-16T10:44:48Z</time>
      </trkpt>
      <trkpt lat="47.22663" lon="-1.46993">
        <ele>-0.49</ele>
        <time>2020-05-16T10:44:50Z</time>
      </trkpt>
      <trkpt lat="47.22673" lon="-1.46985">
        <ele>-0.48</ele>
        <time>2020-05-16T10:44:52Z</time>
      </trkpt>
      <trkpt lat="47.22683" lon="-1.46977">
        <ele>0.94</ele>
        <time>2020-05-16T10:44:54Z</time>
      </trkpt>
      <trkpt lat="47.22695" lon="-1.46969">
        <ele>1.81</ele>
        <time>2020-05-16T10:44:56Z</time>
      </trkpt>
      <trkpt lat="47.22708" lon="-1.46961">
        <ele>1.55</ele>
        <time>2020-05-16T10:44:58Z</time>
      </trkpt>
      <trkpt lat="47.22719" lon="-1.46957">
        <ele>2.02</ele>
        <time>2020-05-16T10:45:00Z</time>
      </trkpt>
      <trkpt lat="47.22732" lon="-1.46954">
        <ele>2.29</ele>
        <time>2020-05-16T10:45:02Z</time>
      </trkpt>
      <trkpt lat="47.22743" lon="-1.46951">
        <ele>2.62</ele>
        <time>2020-05-16T10:45:04Z</time>
      </trkpt>
      <trkpt lat="47.22757" lon="-1.4695">
        <ele>2.95</ele>
        <time>2020-05-16T10:45:06Z</time>
      </trkpt>
      <trkpt lat="47.22772" lon="-1.4695">
        <ele>2</ele>
        <time>2020-05-16T10:45:08Z</time>
      </trkpt>
      <trkpt lat="47.22784" lon="-1.46951">
        <ele>1.52</ele>
        <time>2020-05-16T10:45:10Z</time>
      </trkpt>
      <trkpt lat="47.22798" lon="-1.46954">
        <ele>-0.03</ele>
        <time>2020-05-16T10:45:12Z</time>
      </trkpt>
      <trkpt lat="47.22811" lon="-1.46958">
        <ele>-0.38</ele>
        <time>2020-05-16T10:45:14Z</time>
      </trkpt>
      <trkpt lat="47.22824" lon="-1.46965">
        <ele>-0.03</ele>
        <time>2020-05-16T10:45:16Z</time>
      </trkpt>
      <trkpt lat="47.22836" lon="-1.46973">
        <ele>0.33</ele>
        <time>2020-05-16T10:45:18Z</time>
      </trkpt>
      <trkpt lat="47.22847" lon="-1.4698">
        <ele>1.51</ele>
        <time>2020-05-16T10:45:20Z</time>
      </trkpt>
      <trkpt lat="47.22861" lon="-1.46988">
        <ele>1.33</ele>
        <time>2020-05-16T10:45:22Z</time>
      </trkpt>
      <trkpt lat="47.22873" lon="-1.46996">
        <ele>1.3</ele>
        <time>2020-05-16T10:45:24Z</time>
      </trkpt>
      <trkpt lat="47.22887" lon="-1.47005">
        <ele>1.49</ele>
        <time>2020-05-16T10:45:26Z</time>
      </trkpt>
      <trkpt lat="47.229" lon="-1.47005">
        <ele>1.62</ele>
        <time>2020-05-16T10:45:28Z</time>
      </trkpt>
      <trkpt lat="47.22913" lon="-1.46992">
        <ele>0.75</ele>
        <time>2020-05-16T10:45:30Z</time>
      </trkpt>
      <trkpt lat="47.22916" lon="-1.46972">
        <ele>-1.25</ele>
        <time>2020-05-16T10:45:32Z</time>
      </trkpt>
      <trkpt lat="47.2292" lon="-1.46952">
        <ele>-1.59</ele>
        <time>2020-05-16T10:45:34Z</time>
      </trkpt>
      <trkpt lat="47.22924" lon="-1.46929">
        <ele>-1.83</ele>
        <time>2020-05-16T10:45:36Z</time>
      </trkpt>
      <trkpt lat="47.22926" lon="-1.46916">
        <ele>-3.3</ele>
        <time>2020-05-16T10:45:38Z</time>
      </trkpt>
      <trkpt lat="47.22929" lon="-1.46903">
        <ele>-5.2</ele>
        <time>2020-05-16T10:45:39Z</time>
      </trkpt>
      <trkpt lat="47.22933" lon="-1.46883">
        <ele>-9.65</ele>
        <time>2020-05-16T10:45:41Z</time>
      </trkpt>
      <trkpt lat="47.22937" lon="-1.46864">
        <ele>-8.1</ele>
        <time>2020-05-16T10:45:43Z</time>
      </trkpt>
      <trkpt lat="47.22941" lon="-1.46849">
        <ele>-5.81</ele>
        <time>2020-05-16T10:45:45Z</time>
      </trkpt>
      <trkpt lat="47.22945" lon="-1.46836">
        <ele>-4.88</ele>
        <time>2020-05-16T10:45:47Z</time>
      </trkpt>
      <trkpt lat="47.22956" lon="-1.46828">
        <ele>-3.41</ele>
        <time>2020-05-16T10:45:49Z</time>
      </trkpt>
      <trkpt lat="47.22966" lon="-1.46816">
        <ele>-1.44</ele>
        <time>2020-05-16T10:45:51Z</time>
      </trkpt>
      <trkpt lat="47.22973" lon="-1.468">
        <ele>-0.84</ele>
        <time>2020-05-16T10:45:53Z</time>
      </trkpt>
      <trkpt lat="47.2298" lon="-1.46784">
        <ele>-0.49</ele>
        <time>2020-05-16T10:45:55Z</time>
      </trkpt>
      <trkpt lat="47.22988" lon="-1.46771">
        <ele>-0.61</ele>
        <time>2020-05-16T10:45:57Z</time>
      </trkpt>
      <trkpt lat="47.22996" lon="-1.46763">
        <ele>-0.75</ele>
        <time>2020-05-16T10:45:59Z</time>
      </trkpt>
      <trkpt lat="47.23005" lon="-1.46755">
        <ele>-0.8</ele>
        <time>2020-05-16T10:46:01Z</time>
      </trkpt>
      <trkpt lat="47.23014" lon="-1.46749">
        <ele>-0.41</ele>
        <time>2020-05-16T10:46:03Z</time>
      </trkpt>
      <trkpt lat="47.23023" lon="-1.46743">
        <ele>-0.25</ele>
        <time>2020-05-16T10:46:05Z</time>
      </trkpt>
      <trkpt lat="47.23032" lon="-1.46739">
        <ele>-0.28</ele>
        <time>2020-05-16T10:46:07Z</time>
      </trkpt>
      <trkpt lat="47.23042" lon="-1.46733">
        <ele>-0.92</ele>
        <time>2020-05-16T10:46:09Z</time>
      </trkpt>
      <trkpt lat="47.23045" lon="-1.46747">
        <ele>-0.89</ele>
        <time>2020-05-16T10:46:13Z</time>
      </trkpt>
      <trkpt lat="47.23043" lon="-1.46761">
        <ele>-0.73</ele>
        <time>2020-05-16T10:46:15Z</time>
      </trkpt>
      <trkpt lat="47.23042" lon="-1.46778">
        <ele>-1.67</ele>
        <time>2020-05-16T10:46:17Z</time>
      </trkpt>
      <trkpt lat="47.23043" lon="-1.46795">
        <ele>-3.07</ele>
        <time>2020-05-16T10:46:19Z</time>
      </trkpt>
      <trkpt lat="47.23044" lon="-1.4681">
        <ele>-3.7</ele>
        <time>2020-05-16T10:46:21Z</time>
      </trkpt>
      <trkpt lat="47.23044" lon="-1.4683">
        <ele>-3.67</ele>
        <time>2020-05-16T10:46:23Z</time>
      </trkpt>
      <trkpt lat="47.23044" lon="-1.46848">
        <ele>-2.99</ele>
        <time>2020-05-16T10:46:25Z</time>
      </trkpt>
      <trkpt lat="47.23044" lon="-1.46866">
        <ele>-2.09</ele>
        <time>2020-05-16T10:46:27Z</time>
      </trkpt>
      <trkpt lat="47.23044" lon="-1.46881">
        <ele>-1.83</ele>
        <time>2020-05-16T10:46:29Z</time>
      </trkpt>
      <trkpt lat="47.23043" lon="-1.469">
        <ele>-1.52</ele>
        <time>2020-05-16T10:46:31Z</time>
      </trkpt>
      <trkpt lat="47.23042" lon="-1.46914">
        <ele>-3</ele>
        <time>2020-05-16T10:46:33Z</time>
      </trkpt>
      <trkpt lat="47.2304" lon="-1.46932">
        <ele>-2.88</ele>
        <time>2020-05-16T10:46:36Z</time>
      </trkpt>
      <trkpt lat="47.23046" lon="-1.46941">
        <ele>-1.62</ele>
        <time>2020-05-16T10:46:38Z</time>
      </trkpt>
      <trkpt lat="47.23056" lon="-1.46956">
        <ele>0.84</ele>
        <time>2020-05-16T10:46:41Z</time>
      </trkpt>
      <trkpt lat="47.23063" lon="-1.4697">
        <ele>2.69</ele>
        <time>2020-05-16T10:46:43Z</time>
      </trkpt>
      <trkpt lat="47.2307" lon="-1.46984">
        <ele>3.95</ele>
        <time>2020-05-16T10:46:45Z</time>
      </trkpt>
      <trkpt lat="47.23076" lon="-1.46994">
        <ele>3.82</ele>
        <time>2020-05-16T10:46:47Z</time>
      </trkpt>
      <trkpt lat="47.23084" lon="-1.47011">
        <ele>4.9</ele>
        <time>2020-05-16T10:46:50Z</time>
      </trkpt>
      <trkpt lat="47.23091" lon="-1.47024">
        <ele>5.78</ele>
        <time>2020-05-16T10:46:52Z</time>
      </trkpt>
      <trkpt lat="47.23098" lon="-1.47037">
        <ele>6.78</ele>
        <time>2020-05-16T10:46:54Z</time>
      </trkpt>
      <trkpt lat="47.23105" lon="-1.4705">
        <ele>7.48</ele>
        <time>2020-05-16T10:46:56Z</time>
      </trkpt>
      <trkpt lat="47.23111" lon="-1.47063">
        <ele>8.14</ele>
        <time>2020-05-16T10:46:58Z</time>
      </trkpt>
      <trkpt lat="47.23116" lon="-1.47074">
        <ele>7.89</ele>
        <time>2020-05-16T10:47:00Z</time>
      </trkpt>
      <trkpt lat="47.23122" lon="-1.47087">
        <ele>8.01</ele>
        <time>2020-05-16T10:47:02Z</time>
      </trkpt>
      <trkpt lat="47.23128" lon="-1.47099">
        <ele>8.2</ele>
        <time>2020-05-16T10:47:04Z</time>
      </trkpt>
      <trkpt lat="47.23136" lon="-1.47111">
        <ele>8.48</ele>
        <time>2020-05-16T10:47:06Z</time>
      </trkpt>
      <trkpt lat="47.23143" lon="-1.47124">
        <ele>8.34</ele>
        <time>2020-05-16T10:47:08Z</time>
      </trkpt>
      <trkpt lat="47.23149" lon="-1.47137">
        <ele>8.42</ele>
        <time>2020-05-16T10:47:10Z</time>
      </trkpt>
      <trkpt lat="47.23157" lon="-1.4715">
        <ele>8.75</ele>
        <time>2020-05-16T10:47:12Z</time>
      </trkpt>
      <trkpt lat="47.23164" lon="-1.47162">
        <ele>8.96</ele>
        <time>2020-05-16T10:47:14Z</time>
      </trkpt>
      <trkpt lat="47.2317" lon="-1.47172">
        <ele>9.51</ele>
        <time>2020-05-16T10:47:16Z</time>
      </trkpt>
      <trkpt lat="47.23177" lon="-1.47183">
        <ele>9.46</ele>
        <time>2020-05-16T10:47:18Z</time>
      </trkpt>
      <trkpt lat="47.23185" lon="-1.47197">
        <ele>9.41</ele>
        <time>2020-05-16T10:47:20Z</time>
      </trkpt>
      <trkpt lat="47.23193" lon="-1.47211">
        <ele>9.78</ele>
        <time>2020-05-16T10:47:22Z</time>
      </trkpt>
      <trkpt lat="47.232" lon="-1.47223">
        <ele>9.99</ele>
        <time>2020-05-16T10:47:24Z</time>
      </trkpt>
      <trkpt lat="47.23208" lon="-1.47236">
        <ele>8.76</ele>
        <time>2020-05-16T10:47:26Z</time>
      </trkpt>
      <trkpt lat="47.23215" lon="-1.47248">
        <ele>8.84</ele>
        <time>2020-05-16T10:47:28Z</time>
      </trkpt>
      <trkpt lat="47.23224" lon="-1.47262">
        <ele>8.92</ele>
        <time>2020-05-16T10:47:30Z</time>
      </trkpt>
      <trkpt lat="47.23231" lon="-1.47274">
        <ele>8.97</ele>
        <time>2020-05-16T10:47:32Z</time>
      </trkpt>
      <trkpt lat="47.23239" lon="-1.47287">
        <ele>8.62</ele>
        <time>2020-05-16T10:47:34Z</time>
      </trkpt>
      <trkpt lat="47.23245" lon="-1.47299">
        <ele>7.81</ele>
        <time>2020-05-16T10:47:36Z</time>
      </trkpt>
      <trkpt lat="47.23252" lon="-1.4731">
        <ele>7.56</ele>
        <time>2020-05-16T10:47:38Z</time>
      </trkpt>
      <trkpt lat="47.23261" lon="-1.47323">
        <ele>6.99</ele>
        <time>2020-05-16T10:47:40Z</time>
      </trkpt>
      <trkpt lat="47.23269" lon="-1.47339">
        <ele>6.62</ele>
        <time>2020-05-16T10:47:42Z</time>
      </trkpt>
      <trkpt lat="47.23276" lon="-1.47351">
        <ele>6.34</ele>
        <time>2020-05-16T10:47:44Z</time>
      </trkpt>
      <trkpt lat="47.23283" lon="-1.47363">
        <ele>6.79</ele>
        <time>2020-05-16T10:47:46Z</time>
      </trkpt>
      <trkpt lat="47.23292" lon="-1.47376">
        <ele>6.5</ele>
        <time>2020-05-16T10:47:48Z</time>
      </trkpt>
      <trkpt lat="47.23302" lon="-1.47395">
        <ele>6.64</ele>
        <time>2020-05-16T10:47:50Z</time>
      </trkpt>
      <trkpt lat="47.23311" lon="-1.4741">
        <ele>7.85</ele>
        <time>2020-05-16T10:47:52Z</time>
      </trkpt>
      <trkpt lat="47.2332" lon="-1.47424">
        <ele>8.33</ele>
        <time>2020-05-16T10:47:54Z</time>
      </trkpt>
      <trkpt lat="47.23329" lon="-1.47439">
        <ele>8.59</ele>
        <time>2020-05-16T10:47:56Z</time>
      </trkpt>
      <trkpt lat="47.23338" lon="-1.47456">
        <ele>9.57</ele>
        <time>2020-05-16T10:47:58Z</time>
      </trkpt>
      <trkpt lat="47.23347" lon="-1.4747">
        <ele>9.82</ele>
        <time>2020-05-16T10:48:00Z</time>
      </trkpt>
      <trkpt lat="47.23356" lon="-1.47486">
        <ele>8.81</ele>
        <time>2020-05-16T10:48:02Z</time>
      </trkpt>
      <trkpt lat="47.23367" lon="-1.47504">
        <ele>8.83</ele>
        <time>2020-05-16T10:48:04Z</time>
      </trkpt>
      <trkpt lat="47.23378" lon="-1.4752">
        <ele>8.55</ele>
        <time>2020-05-16T10:48:06Z</time>
      </trkpt>
      <trkpt lat="47.23389" lon="-1.47534">
        <ele>7.98</ele>
        <time>2020-05-16T10:48:08Z</time>
      </trkpt>
      <trkpt lat="47.234" lon="-1.4755">
        <ele>7.39</ele>
        <time>2020-05-16T10:48:10Z</time>
      </trkpt>
      <trkpt lat="47.2341" lon="-1.47566">
        <ele>7.64</ele>
        <time>2020-05-16T10:48:12Z</time>
      </trkpt>
      <trkpt lat="47.23418" lon="-1.4758">
        <ele>8.7</ele>
        <time>2020-05-16T10:48:14Z</time>
      </trkpt>
      <trkpt lat="47.23429" lon="-1.47598">
        <ele>9.31</ele>
        <time>2020-05-16T10:48:16Z</time>
      </trkpt>
      <trkpt lat="47.2344" lon="-1.47615">
        <ele>8.78</ele>
        <time>2020-05-16T10:48:18Z</time>
      </trkpt>
      <trkpt lat="47.23451" lon="-1.4763">
        <ele>7.66</ele>
        <time>2020-05-16T10:48:20Z</time>
      </trkpt>
      <trkpt lat="47.23462" lon="-1.47645">
        <ele>6.72</ele>
        <time>2020-05-16T10:48:22Z</time>
      </trkpt>
      <trkpt lat="47.23474" lon="-1.47659">
        <ele>6.74</ele>
        <time>2020-05-16T10:48:24Z</time>
      </trkpt>
      <trkpt lat="47.23485" lon="-1.4767">
        <ele>6.35</ele>
        <time>2020-05-16T10:48:26Z</time>
      </trkpt>
      <trkpt lat="47.23498" lon="-1.4768">
        <ele>5.3</ele>
        <time>2020-05-16T10:48:28Z</time>
      </trkpt>
      <trkpt lat="47.23511" lon="-1.47687">
        <ele>4.36</ele>
        <time>2020-05-16T10:48:30Z</time>
      </trkpt>
      <trkpt lat="47.23524" lon="-1.47695">
        <ele>4.12</ele>
        <time>2020-05-16T10:48:32Z</time>
      </trkpt>
      <trkpt lat="47.23537" lon="-1.47702">
        <ele>4.12</ele>
        <time>2020-05-16T10:48:34Z</time>
      </trkpt>
      <trkpt lat="47.23551" lon="-1.47702">
        <ele>4.01</ele>
        <time>2020-05-16T10:48:36Z</time>
      </trkpt>
      <trkpt lat="47.23561" lon="-1.47695">
        <ele>3.54</ele>
        <time>2020-05-16T10:48:38Z</time>
      </trkpt>
      <trkpt lat="47.23571" lon="-1.47686">
        <ele>3.5</ele>
        <time>2020-05-16T10:48:41Z</time>
      </trkpt>
      <trkpt lat="47.23583" lon="-1.47692">
        <ele>3.07</ele>
        <time>2020-05-16T10:48:44Z</time>
      </trkpt>
      <trkpt lat="47.23595" lon="-1.47701">
        <ele>2.97</ele>
        <time>2020-05-16T10:48:46Z</time>
      </trkpt>
      <trkpt lat="47.23608" lon="-1.47708">
        <ele>3.23</ele>
        <time>2020-05-16T10:48:48Z</time>
      </trkpt>
      <trkpt lat="47.23619" lon="-1.47715">
        <ele>2.88</ele>
        <time>2020-05-16T10:48:50Z</time>
      </trkpt>
      <trkpt lat="47.23632" lon="-1.47723">
        <ele>2.79</ele>
        <time>2020-05-16T10:48:52Z</time>
      </trkpt>
      <trkpt lat="47.23645" lon="-1.4773">
        <ele>2.5</ele>
        <time>2020-05-16T10:48:54Z</time>
      </trkpt>
      <trkpt lat="47.23657" lon="-1.47738">
        <ele>2.36</ele>
        <time>2020-05-16T10:48:56Z</time>
      </trkpt>
      <trkpt lat="47.23668" lon="-1.47745">
        <ele>2.47</ele>
        <time>2020-05-16T10:48:58Z</time>
      </trkpt>
      <trkpt lat="47.2368" lon="-1.47751">
        <ele>2.45</ele>
        <time>2020-05-16T10:49:00Z</time>
      </trkpt>
      <trkpt lat="47.23693" lon="-1.47752">
        <ele>2.51</ele>
        <time>2020-05-16T10:49:02Z</time>
      </trkpt>
      <trkpt lat="47.23706" lon="-1.47749">
        <ele>2.03</ele>
        <time>2020-05-16T10:49:04Z</time>
      </trkpt>
      <trkpt lat="47.23717" lon="-1.47743">
        <ele>1.83</ele>
        <time>2020-05-16T10:49:06Z</time>
      </trkpt>
      <trkpt lat="47.23727" lon="-1.47733">
        <ele>1.82</ele>
        <time>2020-05-16T10:49:08Z</time>
      </trkpt>
      <trkpt lat="47.23737" lon="-1.47723">
        <ele>1.8</ele>
        <time>2020-05-16T10:49:10Z</time>
      </trkpt>
      <trkpt lat="47.23747" lon="-1.4771">
        <ele>1.44</ele>
        <time>2020-05-16T10:49:12Z</time>
      </trkpt>
      <trkpt lat="47.23757" lon="-1.47699">
        <ele>0.77</ele>
        <time>2020-05-16T10:49:14Z</time>
      </trkpt>
      <trkpt lat="47.23765" lon="-1.47689">
        <ele>0.3</ele>
        <time>2020-05-16T10:49:16Z</time>
      </trkpt>
      <trkpt lat="47.23775" lon="-1.47679">
        <ele>1.08</ele>
        <time>2020-05-16T10:49:18Z</time>
      </trkpt>
      <trkpt lat="47.23785" lon="-1.47674">
        <ele>0.92</ele>
        <time>2020-05-16T10:49:20Z</time>
      </trkpt>
      <trkpt lat="47.23796" lon="-1.47668">
        <ele>0.97</ele>
        <time>2020-05-16T10:49:22Z</time>
      </trkpt>
      <trkpt lat="47.23808" lon="-1.47658">
        <ele>0.68</ele>
        <time>2020-05-16T10:49:24Z</time>
      </trkpt>
      <trkpt lat="47.23819" lon="-1.47652">
        <ele>0.6</ele>
        <time>2020-05-16T10:49:26Z</time>
      </trkpt>
      <trkpt lat="47.23831" lon="-1.4765">
        <ele>0.93</ele>
        <time>2020-05-16T10:49:28Z</time>
      </trkpt>
      <trkpt lat="47.23844" lon="-1.47646">
        <ele>1.13</ele>
        <time>2020-05-16T10:49:30Z</time>
      </trkpt>
      <trkpt lat="47.23858" lon="-1.4764">
        <ele>1.16</ele>
        <time>2020-05-16T10:49:32Z</time>
      </trkpt>
      <trkpt lat="47.2387" lon="-1.47634">
        <ele>1.17</ele>
        <time>2020-05-16T10:49:34Z</time>
      </trkpt>
      <trkpt lat="47.23881" lon="-1.47629">
        <ele>0.69</ele>
        <time>2020-05-16T10:49:36Z</time>
      </trkpt>
      <trkpt lat="47.23892" lon="-1.47626">
        <ele>0.43</ele>
        <time>2020-05-16T10:49:38Z</time>
      </trkpt>
      <trkpt lat="47.23903" lon="-1.47628">
        <ele>0.48</ele>
        <time>2020-05-16T10:49:40Z</time>
      </trkpt>
      <trkpt lat="47.23917" lon="-1.4763">
        <ele>0.34</ele>
        <time>2020-05-16T10:49:42Z</time>
      </trkpt>
      <trkpt lat="47.23929" lon="-1.47636">
        <ele>0.64</ele>
        <time>2020-05-16T10:49:44Z</time>
      </trkpt>
      <trkpt lat="47.23942" lon="-1.47647">
        <ele>1.36</ele>
        <time>2020-05-16T10:49:46Z</time>
      </trkpt>
      <trkpt lat="47.23954" lon="-1.47658">
        <ele>2.46</ele>
        <time>2020-05-16T10:49:48Z</time>
      </trkpt>
      <trkpt lat="47.23964" lon="-1.47671">
        <ele>2.47</ele>
        <time>2020-05-16T10:49:50Z</time>
      </trkpt>
      <trkpt lat="47.23973" lon="-1.47688">
        <ele>2.24</ele>
        <time>2020-05-16T10:49:52Z</time>
      </trkpt>
      <trkpt lat="47.2398" lon="-1.47703">
        <ele>1.9</ele>
        <time>2020-05-16T10:49:54Z</time>
      </trkpt>
      <trkpt lat="47.23987" lon="-1.47717">
        <ele>2.36</ele>
        <time>2020-05-16T10:49:56Z</time>
      </trkpt>
      <trkpt lat="47.23993" lon="-1.47733">
        <ele>2.61</ele>
        <time>2020-05-16T10:49:58Z</time>
      </trkpt>
      <trkpt lat="47.23999" lon="-1.47747">
        <ele>2.73</ele>
        <time>2020-05-16T10:50:00Z</time>
      </trkpt>
      <trkpt lat="47.24009" lon="-1.47777">
        <ele>2.02</ele>
        <time>2020-05-16T10:50:04Z</time>
      </trkpt>
      <trkpt lat="47.24017" lon="-1.47797">
        <ele>2.92</ele>
        <time>2020-05-16T10:50:06Z</time>
      </trkpt>
      <trkpt lat="47.24023" lon="-1.47813">
        <ele>4.06</ele>
        <time>2020-05-16T10:50:08Z</time>
      </trkpt>
      <trkpt lat="47.2403" lon="-1.4783">
        <ele>3.58</ele>
        <time>2020-05-16T10:50:10Z</time>
      </trkpt>
      <trkpt lat="47.24038" lon="-1.47848">
        <ele>3.74</ele>
        <time>2020-05-16T10:50:12Z</time>
      </trkpt>
      <trkpt lat="47.24044" lon="-1.47865">
        <ele>3.88</ele>
        <time>2020-05-16T10:50:14Z</time>
      </trkpt>
      <trkpt lat="47.2405" lon="-1.47882">
        <ele>3.85</ele>
        <time>2020-05-16T10:50:16Z</time>
      </trkpt>
      <trkpt lat="47.24056" lon="-1.47899">
        <ele>3.05</ele>
        <time>2020-05-16T10:50:18Z</time>
      </trkpt>
      <trkpt lat="47.24061" lon="-1.47916">
        <ele>3.15</ele>
        <time>2020-05-16T10:50:20Z</time>
      </trkpt>
      <trkpt lat="47.24066" lon="-1.47933">
        <ele>3.94</ele>
        <time>2020-05-16T10:50:22Z</time>
      </trkpt>
      <trkpt lat="47.24071" lon="-1.47951">
        <ele>3.49</ele>
        <time>2020-05-16T10:50:24Z</time>
      </trkpt>
      <trkpt lat="47.24078" lon="-1.47971">
        <ele>2.36</ele>
        <time>2020-05-16T10:50:26Z</time>
      </trkpt>
      <trkpt lat="47.24083" lon="-1.47987">
        <ele>1.44</ele>
        <time>2020-05-16T10:50:28Z</time>
      </trkpt>
      <trkpt lat="47.24088" lon="-1.47999">
        <ele>1.13</ele>
        <time>2020-05-16T10:50:29Z</time>
      </trkpt>
      <trkpt lat="47.24092" lon="-1.48011">
        <ele>0.65</ele>
        <time>2020-05-16T10:50:30Z</time>
      </trkpt>
      <trkpt lat="47.24099" lon="-1.48029">
        <ele>0.06</ele>
        <time>2020-05-16T10:50:32Z</time>
      </trkpt>
      <trkpt lat="47.24108" lon="-1.48047">
        <ele>0.29</ele>
        <time>2020-05-16T10:50:34Z</time>
      </trkpt>
      <trkpt lat="47.2412" lon="-1.48063">
        <ele>0.15</ele>
        <time>2020-05-16T10:50:36Z</time>
      </trkpt>
      <trkpt lat="47.24127" lon="-1.48073">
        <ele>0.2</ele>
        <time>2020-05-16T10:50:37Z</time>
      </trkpt>
      <trkpt lat="47.24138" lon="-1.48088">
        <ele>0.63</ele>
        <time>2020-05-16T10:50:39Z</time>
      </trkpt>
      <trkpt lat="47.24149" lon="-1.48102">
        <ele>1.43</ele>
        <time>2020-05-16T10:50:41Z</time>
      </trkpt>
      <trkpt lat="47.2416" lon="-1.48115">
        <ele>2.7</ele>
        <time>2020-05-16T10:50:43Z</time>
      </trkpt>
      <trkpt lat="47.24174" lon="-1.48129">
        <ele>3.07</ele>
        <time>2020-05-16T10:50:45Z</time>
      </trkpt>
      <trkpt lat="47.24185" lon="-1.48139">
        <ele>2.26</ele>
        <time>2020-05-16T10:50:47Z</time>
      </trkpt>
      <trkpt lat="47.24197" lon="-1.48147">
        <ele>1.67</ele>
        <time>2020-05-16T10:50:49Z</time>
      </trkpt>
      <trkpt lat="47.24209" lon="-1.48155">
        <ele>1.21</ele>
        <time>2020-05-16T10:50:51Z</time>
      </trkpt>
      <trkpt lat="47.24223" lon="-1.48164">
        <ele>0.96</ele>
        <time>2020-05-16T10:50:53Z</time>
      </trkpt>
      <trkpt lat="47.24235" lon="-1.48172">
        <ele>0.46</ele>
        <time>2020-05-16T10:50:55Z</time>
      </trkpt>
      <trkpt lat="47.2425" lon="-1.4818">
        <ele>-0.32</ele>
        <time>2020-05-16T10:50:57Z</time>
      </trkpt>
      <trkpt lat="47.24262" lon="-1.48187">
        <ele>-0.25</ele>
        <time>2020-05-16T10:50:59Z</time>
      </trkpt>
      <trkpt lat="47.24275" lon="-1.48194">
        <ele>0.81</ele>
        <time>2020-05-16T10:51:01Z</time>
      </trkpt>
      <trkpt lat="47.24289" lon="-1.48203">
        <ele>0.94</ele>
        <time>2020-05-16T10:51:03Z</time>
      </trkpt>
      <trkpt lat="47.24302" lon="-1.48213">
        <ele>1.59</ele>
        <time>2020-05-16T10:51:05Z</time>
      </trkpt>
      <trkpt lat="47.24314" lon="-1.48224">
        <ele>1.67</ele>
        <time>2020-05-16T10:51:07Z</time>
      </trkpt>
      <trkpt lat="47.24327" lon="-1.48237">
        <ele>1.89</ele>
        <time>2020-05-16T10:51:09Z</time>
      </trkpt>
      <trkpt lat="47.24338" lon="-1.48245">
        <ele>2.7</ele>
        <time>2020-05-16T10:51:11Z</time>
      </trkpt>
      <trkpt lat="47.24349" lon="-1.48252">
        <ele>3.52</ele>
        <time>2020-05-16T10:51:13Z</time>
      </trkpt>
      <trkpt lat="47.2436" lon="-1.48266">
        <ele>4.06</ele>
        <time>2020-05-16T10:51:15Z</time>
      </trkpt>
      <trkpt lat="47.24368" lon="-1.48281">
        <ele>3.34</ele>
        <time>2020-05-16T10:51:17Z</time>
      </trkpt>
      <trkpt lat="47.24378" lon="-1.48295">
        <ele>2.32</ele>
        <time>2020-05-16T10:51:19Z</time>
      </trkpt>
      <trkpt lat="47.24389" lon="-1.48309">
        <ele>2.13</ele>
        <time>2020-05-16T10:51:21Z</time>
      </trkpt>
      <trkpt lat="47.244" lon="-1.48322">
        <ele>2.17</ele>
        <time>2020-05-16T10:51:23Z</time>
      </trkpt>
      <trkpt lat="47.2441" lon="-1.48336">
        <ele>2.57</ele>
        <time>2020-05-16T10:51:25Z</time>
      </trkpt>
      <trkpt lat="47.2442" lon="-1.48349">
        <ele>3.04</ele>
        <time>2020-05-16T10:51:27Z</time>
      </trkpt>
      <trkpt lat="47.2443" lon="-1.48357">
        <ele>3.35</ele>
        <time>2020-05-16T10:51:29Z</time>
      </trkpt>
      <trkpt lat="47.24444" lon="-1.48365">
        <ele>3.62</ele>
        <time>2020-05-16T10:51:31Z</time>
      </trkpt>
      <trkpt lat="47.24458" lon="-1.48371">
        <ele>3.34</ele>
        <time>2020-05-16T10:51:33Z</time>
      </trkpt>
      <trkpt lat="47.24471" lon="-1.48379">
        <ele>2.72</ele>
        <time>2020-05-16T10:51:35Z</time>
      </trkpt>
      <trkpt lat="47.24484" lon="-1.48388">
        <ele>2.17</ele>
        <time>2020-05-16T10:51:37Z</time>
      </trkpt>
      <trkpt lat="47.24495" lon="-1.48396">
        <ele>2.35</ele>
        <time>2020-05-16T10:51:39Z</time>
      </trkpt>
      <trkpt lat="47.24509" lon="-1.48406">
        <ele>3.04</ele>
        <time>2020-05-16T10:51:41Z</time>
      </trkpt>
      <trkpt lat="47.24522" lon="-1.48416">
        <ele>3.4</ele>
        <time>2020-05-16T10:51:43Z</time>
      </trkpt>
      <trkpt lat="47.24534" lon="-1.48425">
        <ele>2.9</ele>
        <time>2020-05-16T10:51:45Z</time>
      </trkpt>
      <trkpt lat="47.24545" lon="-1.48436">
        <ele>1.77</ele>
        <time>2020-05-16T10:51:47Z</time>
      </trkpt>
      <trkpt lat="47.24556" lon="-1.48447">
        <ele>2.53</ele>
        <time>2020-05-16T10:51:49Z</time>
      </trkpt>
      <trkpt lat="47.24567" lon="-1.48458">
        <ele>2.16</ele>
        <time>2020-05-16T10:51:51Z</time>
      </trkpt>
      <trkpt lat="47.24579" lon="-1.48471">
        <ele>0.79</ele>
        <time>2020-05-16T10:51:53Z</time>
      </trkpt>
      <trkpt lat="47.24588" lon="-1.48483">
        <ele>-0.78</ele>
        <time>2020-05-16T10:51:55Z</time>
      </trkpt>
      <trkpt lat="47.24599" lon="-1.48497">
        <ele>-0.73</ele>
        <time>2020-05-16T10:51:57Z</time>
      </trkpt>
      <trkpt lat="47.24608" lon="-1.48508">
        <ele>0.14</ele>
        <time>2020-05-16T10:51:59Z</time>
      </trkpt>
      <trkpt lat="47.24618" lon="-1.48519">
        <ele>1.67</ele>
        <time>2020-05-16T10:52:01Z</time>
      </trkpt>
      <trkpt lat="47.24626" lon="-1.48529">
        <ele>2.32</ele>
        <time>2020-05-16T10:52:03Z</time>
      </trkpt>
      <trkpt lat="47.24636" lon="-1.48541">
        <ele>2.53</ele>
        <time>2020-05-16T10:52:05Z</time>
      </trkpt>
      <trkpt lat="47.24647" lon="-1.48555">
        <ele>2.52</ele>
        <time>2020-05-16T10:52:07Z</time>
      </trkpt>
      <trkpt lat="47.24657" lon="-1.48566">
        <ele>2.12</ele>
        <time>2020-05-16T10:52:09Z</time>
      </trkpt>
      <trkpt lat="47.24667" lon="-1.48575">
        <ele>1.26</ele>
        <time>2020-05-16T10:52:11Z</time>
      </trkpt>
      <trkpt lat="47.24677" lon="-1.48586">
        <ele>0.81</ele>
        <time>2020-05-16T10:52:13Z</time>
      </trkpt>
      <trkpt lat="47.24687" lon="-1.48594">
        <ele>2.01</ele>
        <time>2020-05-16T10:52:15Z</time>
      </trkpt>
      <trkpt lat="47.24697" lon="-1.48603">
        <ele>2.12</ele>
        <time>2020-05-16T10:52:17Z</time>
      </trkpt>
      <trkpt lat="47.24707" lon="-1.48612">
        <ele>1.92</ele>
        <time>2020-05-16T10:52:19Z</time>
      </trkpt>
      <trkpt lat="47.24717" lon="-1.4862">
        <ele>1.89</ele>
        <time>2020-05-16T10:52:21Z</time>
      </trkpt>
      <trkpt lat="47.24726" lon="-1.48628">
        <ele>1.24</ele>
        <time>2020-05-16T10:52:23Z</time>
      </trkpt>
      <trkpt lat="47.24737" lon="-1.48632">
        <ele>2.21</ele>
        <time>2020-05-16T10:52:26Z</time>
      </trkpt>
      <trkpt lat="47.24747" lon="-1.48631">
        <ele>3.83</ele>
        <time>2020-05-16T10:52:28Z</time>
      </trkpt>
      <trkpt lat="47.24758" lon="-1.48632">
        <ele>4.16</ele>
        <time>2020-05-16T10:52:30Z</time>
      </trkpt>
      <trkpt lat="47.24768" lon="-1.48638">
        <ele>3.82</ele>
        <time>2020-05-16T10:52:32Z</time>
      </trkpt>
      <trkpt lat="47.24777" lon="-1.48648">
        <ele>4.01</ele>
        <time>2020-05-16T10:52:34Z</time>
      </trkpt>
      <trkpt lat="47.24788" lon="-1.48649">
        <ele>4.72</ele>
        <time>2020-05-16T10:52:36Z</time>
      </trkpt>
      <trkpt lat="47.24802" lon="-1.48649">
        <ele>6.38</ele>
        <time>2020-05-16T10:52:39Z</time>
      </trkpt>
      <trkpt lat="47.24813" lon="-1.4865">
        <ele>7.17</ele>
        <time>2020-05-16T10:52:41Z</time>
      </trkpt>
      <trkpt lat="47.24822" lon="-1.4865">
        <ele>7.74</ele>
        <time>2020-05-16T10:52:43Z</time>
      </trkpt>
      <trkpt lat="47.24833" lon="-1.48653">
        <ele>7.74</ele>
        <time>2020-05-16T10:52:45Z</time>
      </trkpt>
      <trkpt lat="47.24845" lon="-1.48653">
        <ele>8.11</ele>
        <time>2020-05-16T10:52:47Z</time>
      </trkpt>
      <trkpt lat="47.24854" lon="-1.48655">
        <ele>8.24</ele>
        <time>2020-05-16T10:52:49Z</time>
      </trkpt>
      <trkpt lat="47.24868" lon="-1.48659">
        <ele>8.43</ele>
        <time>2020-05-16T10:52:51Z</time>
      </trkpt>
      <trkpt lat="47.24877" lon="-1.48663">
        <ele>9.11</ele>
        <time>2020-05-16T10:52:53Z</time>
      </trkpt>
      <trkpt lat="47.24888" lon="-1.48665">
        <ele>9.39</ele>
        <time>2020-05-16T10:52:55Z</time>
      </trkpt>
      <trkpt lat="47.249" lon="-1.48668">
        <ele>9.99</ele>
        <time>2020-05-16T10:52:57Z</time>
      </trkpt>
      <trkpt lat="47.24915" lon="-1.48674">
        <ele>11.02</ele>
        <time>2020-05-16T10:53:00Z</time>
      </trkpt>
      <trkpt lat="47.24926" lon="-1.48679">
        <ele>11.87</ele>
        <time>2020-05-16T10:53:02Z</time>
      </trkpt>
      <trkpt lat="47.24938" lon="-1.48685">
        <ele>12.86</ele>
        <time>2020-05-16T10:53:05Z</time>
      </trkpt>
      <trkpt lat="47.24949" lon="-1.48688">
        <ele>14.43</ele>
        <time>2020-05-16T10:53:08Z</time>
      </trkpt>
      <trkpt lat="47.2496" lon="-1.48694">
        <ele>14.25</ele>
        <time>2020-05-16T10:53:10Z</time>
      </trkpt>
      <trkpt lat="47.24968" lon="-1.48703">
        <ele>13.82</ele>
        <time>2020-05-16T10:53:12Z</time>
      </trkpt>
      <trkpt lat="47.24977" lon="-1.48707">
        <ele>14.65</ele>
        <time>2020-05-16T10:53:14Z</time>
      </trkpt>
      <trkpt lat="47.24986" lon="-1.48711">
        <ele>14.85</ele>
        <time>2020-05-16T10:53:16Z</time>
      </trkpt>
      <trkpt lat="47.24995" lon="-1.48715">
        <ele>15.02</ele>
        <time>2020-05-16T10:53:18Z</time>
      </trkpt>
      <trkpt lat="47.25005" lon="-1.48719">
        <ele>13.82</ele>
        <time>2020-05-16T10:53:20Z</time>
      </trkpt>
      <trkpt lat="47.25016" lon="-1.48726">
        <ele>12.75</ele>
        <time>2020-05-16T10:53:22Z</time>
      </trkpt>
      <trkpt lat="47.25027" lon="-1.48731">
        <ele>12.03</ele>
        <time>2020-05-16T10:53:24Z</time>
      </trkpt>
      <trkpt lat="47.25039" lon="-1.48735">
        <ele>11.93</ele>
        <time>2020-05-16T10:53:26Z</time>
      </trkpt>
      <trkpt lat="47.2505" lon="-1.4874">
        <ele>11.59</ele>
        <time>2020-05-16T10:53:28Z</time>
      </trkpt>
      <trkpt lat="47.25062" lon="-1.48742">
        <ele>12.19</ele>
        <time>2020-05-16T10:53:30Z</time>
      </trkpt>
      <trkpt lat="47.25073" lon="-1.48744">
        <ele>14.33</ele>
        <time>2020-05-16T10:53:32Z</time>
      </trkpt>
      <trkpt lat="47.25084" lon="-1.48747">
        <ele>15.85</ele>
        <time>2020-05-16T10:53:34Z</time>
      </trkpt>
      <trkpt lat="47.25098" lon="-1.4875">
        <ele>17.21</ele>
        <time>2020-05-16T10:53:36Z</time>
      </trkpt>
      <trkpt lat="47.25109" lon="-1.48752">
        <ele>16.92</ele>
        <time>2020-05-16T10:53:38Z</time>
      </trkpt>
      <trkpt lat="47.2512" lon="-1.48753">
        <ele>16.2</ele>
        <time>2020-05-16T10:53:40Z</time>
      </trkpt>
      <trkpt lat="47.25131" lon="-1.48752">
        <ele>16.36</ele>
        <time>2020-05-16T10:53:42Z</time>
      </trkpt>
      <trkpt lat="47.2514" lon="-1.48751">
        <ele>16.11</ele>
        <time>2020-05-16T10:53:44Z</time>
      </trkpt>
      <trkpt lat="47.25151" lon="-1.48748">
        <ele>16.33</ele>
        <time>2020-05-16T10:53:46Z</time>
      </trkpt>
      <trkpt lat="47.25164" lon="-1.48745">
        <ele>16.3</ele>
        <time>2020-05-16T10:53:48Z</time>
      </trkpt>
      <trkpt lat="47.25174" lon="-1.48743">
        <ele>16.47</ele>
        <time>2020-05-16T10:53:50Z</time>
      </trkpt>
      <trkpt lat="47.25186" lon="-1.4874">
        <ele>15.68</ele>
        <time>2020-05-16T10:53:52Z</time>
      </trkpt>
      <trkpt lat="47.25198" lon="-1.48739">
        <ele>14.8</ele>
        <time>2020-05-16T10:53:54Z</time>
      </trkpt>
      <trkpt lat="47.2521" lon="-1.48738">
        <ele>14.41</ele>
        <time>2020-05-16T10:53:56Z</time>
      </trkpt>
      <trkpt lat="47.25221" lon="-1.48737">
        <ele>14.75</ele>
        <time>2020-05-16T10:53:58Z</time>
      </trkpt>
      <trkpt lat="47.25233" lon="-1.48737">
        <ele>15.02</ele>
        <time>2020-05-16T10:54:00Z</time>
      </trkpt>
      <trkpt lat="47.25244" lon="-1.48736">
        <ele>15.84</ele>
        <time>2020-05-16T10:54:02Z</time>
      </trkpt>
      <trkpt lat="47.25255" lon="-1.48736">
        <ele>15.56</ele>
        <time>2020-05-16T10:54:04Z</time>
      </trkpt>
      <trkpt lat="47.25265" lon="-1.48738">
        <ele>14.84</ele>
        <time>2020-05-16T10:54:06Z</time>
      </trkpt>
      <trkpt lat="47.25275" lon="-1.48736">
        <ele>14.39</ele>
        <time>2020-05-16T10:54:08Z</time>
      </trkpt>
      <trkpt lat="47.25285" lon="-1.48736">
        <ele>14.74</ele>
        <time>2020-05-16T10:54:10Z</time>
      </trkpt>
      <trkpt lat="47.25295" lon="-1.48744">
        <ele>14.63</ele>
        <time>2020-05-16T10:54:12Z</time>
      </trkpt>
      <trkpt lat="47.25304" lon="-1.4875">
        <ele>14.26</ele>
        <time>2020-05-16T10:54:14Z</time>
      </trkpt>
      <trkpt lat="47.25315" lon="-1.48754">
        <ele>13.9</ele>
        <time>2020-05-16T10:54:16Z</time>
      </trkpt>
      <trkpt lat="47.25329" lon="-1.48759">
        <ele>13.35</ele>
        <time>2020-05-16T10:54:18Z</time>
      </trkpt>
      <trkpt lat="47.2534" lon="-1.48761">
        <ele>13.06</ele>
        <time>2020-05-16T10:54:20Z</time>
      </trkpt>
      <trkpt lat="47.25351" lon="-1.48764">
        <ele>13.21</ele>
        <time>2020-05-16T10:54:22Z</time>
      </trkpt>
      <trkpt lat="47.25363" lon="-1.48766">
        <ele>13</ele>
        <time>2020-05-16T10:54:24Z</time>
      </trkpt>
      <trkpt lat="47.25374" lon="-1.4877">
        <ele>11.97</ele>
        <time>2020-05-16T10:54:26Z</time>
      </trkpt>
      <trkpt lat="47.25385" lon="-1.48772">
        <ele>11.93</ele>
        <time>2020-05-16T10:54:28Z</time>
      </trkpt>
      <trkpt lat="47.25397" lon="-1.48775">
        <ele>12.9</ele>
        <time>2020-05-16T10:54:30Z</time>
      </trkpt>
      <trkpt lat="47.25406" lon="-1.48776">
        <ele>13.05</ele>
        <time>2020-05-16T10:54:32Z</time>
      </trkpt>
      <trkpt lat="47.25417" lon="-1.48777">
        <ele>12.04</ele>
        <time>2020-05-16T10:54:34Z</time>
      </trkpt>
      <trkpt lat="47.25427" lon="-1.48778">
        <ele>12.11</ele>
        <time>2020-05-16T10:54:36Z</time>
      </trkpt>
      <trkpt lat="47.25441" lon="-1.48777">
        <ele>13.05</ele>
        <time>2020-05-16T10:54:39Z</time>
      </trkpt>
      <trkpt lat="47.25453" lon="-1.48776">
        <ele>13.25</ele>
        <time>2020-05-16T10:54:41Z</time>
      </trkpt>
      <trkpt lat="47.25465" lon="-1.48776">
        <ele>12.5</ele>
        <time>2020-05-16T10:54:43Z</time>
      </trkpt>
      <trkpt lat="47.25476" lon="-1.48774">
        <ele>11.77</ele>
        <time>2020-05-16T10:54:45Z</time>
      </trkpt>
      <trkpt lat="47.25486" lon="-1.48773">
        <ele>11.25</ele>
        <time>2020-05-16T10:54:47Z</time>
      </trkpt>
      <trkpt lat="47.255" lon="-1.4877">
        <ele>11.58</ele>
        <time>2020-05-16T10:54:50Z</time>
      </trkpt>
      <trkpt lat="47.25512" lon="-1.48767">
        <ele>12.18</ele>
        <time>2020-05-16T10:54:52Z</time>
      </trkpt>
      <trkpt lat="47.25524" lon="-1.48763">
        <ele>13.63</ele>
        <time>2020-05-16T10:54:54Z</time>
      </trkpt>
      <trkpt lat="47.25533" lon="-1.4876">
        <ele>13.77</ele>
        <time>2020-05-16T10:54:56Z</time>
      </trkpt>
      <trkpt lat="47.25543" lon="-1.48758">
        <ele>14.85</ele>
        <time>2020-05-16T10:54:58Z</time>
      </trkpt>
      <trkpt lat="47.25553" lon="-1.48756">
        <ele>17.02</ele>
        <time>2020-05-16T10:55:00Z</time>
      </trkpt>
      <trkpt lat="47.25564" lon="-1.48752">
        <ele>17.67</ele>
        <time>2020-05-16T10:55:02Z</time>
      </trkpt>
      <trkpt lat="47.25573" lon="-1.4875">
        <ele>18.14</ele>
        <time>2020-05-16T10:55:04Z</time>
      </trkpt>
      <trkpt lat="47.25585" lon="-1.48748">
        <ele>18.06</ele>
        <time>2020-05-16T10:55:06Z</time>
      </trkpt>
      <trkpt lat="47.25598" lon="-1.48745">
        <ele>17.55</ele>
        <time>2020-05-16T10:55:08Z</time>
      </trkpt>
      <trkpt lat="47.2561" lon="-1.48746">
        <ele>16.55</ele>
        <time>2020-05-16T10:55:10Z</time>
      </trkpt>
      <trkpt lat="47.25621" lon="-1.48748">
        <ele>16.32</ele>
        <time>2020-05-16T10:55:12Z</time>
      </trkpt>
      <trkpt lat="47.25633" lon="-1.48749">
        <ele>16.39</ele>
        <time>2020-05-16T10:55:14Z</time>
      </trkpt>
      <trkpt lat="47.25645" lon="-1.4875">
        <ele>16.78</ele>
        <time>2020-05-16T10:55:16Z</time>
      </trkpt>
      <trkpt lat="47.25658" lon="-1.48752">
        <ele>18.67</ele>
        <time>2020-05-16T10:55:19Z</time>
      </trkpt>
      <trkpt lat="47.25668" lon="-1.48751">
        <ele>20.08</ele>
        <time>2020-05-16T10:55:21Z</time>
      </trkpt>
      <trkpt lat="47.25678" lon="-1.48755">
        <ele>19.4</ele>
        <time>2020-05-16T10:55:23Z</time>
      </trkpt>
      <trkpt lat="47.2569" lon="-1.48759">
        <ele>19.33</ele>
        <time>2020-05-16T10:55:25Z</time>
      </trkpt>
      <trkpt lat="47.25703" lon="-1.48761">
        <ele>19.84</ele>
        <time>2020-05-16T10:55:28Z</time>
      </trkpt>
      <trkpt lat="47.25715" lon="-1.4876">
        <ele>21.05</ele>
        <time>2020-05-16T10:55:29Z</time>
      </trkpt>
      <trkpt lat="47.25726" lon="-1.48759">
        <ele>21.63</ele>
        <time>2020-05-16T10:55:32Z</time>
      </trkpt>
      <trkpt lat="47.25738" lon="-1.48755">
        <ele>21.67</ele>
        <time>2020-05-16T10:55:34Z</time>
      </trkpt>
      <trkpt lat="47.25749" lon="-1.48752">
        <ele>22.01</ele>
        <time>2020-05-16T10:55:36Z</time>
      </trkpt>
      <trkpt lat="47.25759" lon="-1.4875">
        <ele>22.94</ele>
        <time>2020-05-16T10:55:38Z</time>
      </trkpt>
      <trkpt lat="47.2577" lon="-1.48746">
        <ele>23.58</ele>
        <time>2020-05-16T10:55:40Z</time>
      </trkpt>
      <trkpt lat="47.2578" lon="-1.48743">
        <ele>23.47</ele>
        <time>2020-05-16T10:55:42Z</time>
      </trkpt>
      <trkpt lat="47.25793" lon="-1.48743">
        <ele>22.81</ele>
        <time>2020-05-16T10:55:44Z</time>
      </trkpt>
      <trkpt lat="47.25805" lon="-1.48743">
        <ele>22.41</ele>
        <time>2020-05-16T10:55:46Z</time>
      </trkpt>
      <trkpt lat="47.25819" lon="-1.48743">
        <ele>21.92</ele>
        <time>2020-05-16T10:55:48Z</time>
      </trkpt>
      <trkpt lat="47.25831" lon="-1.48744">
        <ele>20.7</ele>
        <time>2020-05-16T10:55:50Z</time>
      </trkpt>
      <trkpt lat="47.25843" lon="-1.48744">
        <ele>20.01</ele>
        <time>2020-05-16T10:55:52Z</time>
      </trkpt>
      <trkpt lat="47.25855" lon="-1.48745">
        <ele>19.96</ele>
        <time>2020-05-16T10:55:54Z</time>
      </trkpt>
      <trkpt lat="47.25869" lon="-1.48745">
        <ele>18.26</ele>
        <time>2020-05-16T10:55:56Z</time>
      </trkpt>
      <trkpt lat="47.2588" lon="-1.48747">
        <ele>18.55</ele>
        <time>2020-05-16T10:55:58Z</time>
      </trkpt>
      <trkpt lat="47.25895" lon="-1.48749">
        <ele>18.97</ele>
        <time>2020-05-16T10:56:00Z</time>
      </trkpt>
      <trkpt lat="47.25909" lon="-1.4875">
        <ele>19.23</ele>
        <time>2020-05-16T10:56:02Z</time>
      </trkpt>
      <trkpt lat="47.25925" lon="-1.48752">
        <ele>19.66</ele>
        <time>2020-05-16T10:56:04Z</time>
      </trkpt>
      <trkpt lat="47.25938" lon="-1.48752">
        <ele>19.9</ele>
        <time>2020-05-16T10:56:06Z</time>
      </trkpt>
      <trkpt lat="47.25952" lon="-1.48753">
        <ele>19.92</ele>
        <time>2020-05-16T10:56:08Z</time>
      </trkpt>
      <trkpt lat="47.25965" lon="-1.48754">
        <ele>19.59</ele>
        <time>2020-05-16T10:56:10Z</time>
      </trkpt>
      <trkpt lat="47.25979" lon="-1.48754">
        <ele>19.62</ele>
        <time>2020-05-16T10:56:12Z</time>
      </trkpt>
      <trkpt lat="47.25992" lon="-1.48754">
        <ele>19.74</ele>
        <time>2020-05-16T10:56:14Z</time>
      </trkpt>
      <trkpt lat="47.26004" lon="-1.48753">
        <ele>19.49</ele>
        <time>2020-05-16T10:56:16Z</time>
      </trkpt>
      <trkpt lat="47.26018" lon="-1.48753">
        <ele>19.61</ele>
        <time>2020-05-16T10:56:18Z</time>
      </trkpt>
      <trkpt lat="47.26032" lon="-1.48752">
        <ele>20.32</ele>
        <time>2020-05-16T10:56:20Z</time>
      </trkpt>
      <trkpt lat="47.26046" lon="-1.48751">
        <ele>20.94</ele>
        <time>2020-05-16T10:56:22Z</time>
      </trkpt>
      <trkpt lat="47.2606" lon="-1.48748">
        <ele>21.04</ele>
        <time>2020-05-16T10:56:24Z</time>
      </trkpt>
      <trkpt lat="47.26074" lon="-1.48744">
        <ele>20.43</ele>
        <time>2020-05-16T10:56:26Z</time>
      </trkpt>
      <trkpt lat="47.26089" lon="-1.4874">
        <ele>19.32</ele>
        <time>2020-05-16T10:56:28Z</time>
      </trkpt>
      <trkpt lat="47.26102" lon="-1.48737">
        <ele>18.44</ele>
        <time>2020-05-16T10:56:30Z</time>
      </trkpt>
      <trkpt lat="47.26115" lon="-1.48734">
        <ele>18.15</ele>
        <time>2020-05-16T10:56:32Z</time>
      </trkpt>
      <trkpt lat="47.26129" lon="-1.48729">
        <ele>18.96</ele>
        <time>2020-05-16T10:56:34Z</time>
      </trkpt>
      <trkpt lat="47.26142" lon="-1.48723">
        <ele>19.93</ele>
        <time>2020-05-16T10:56:36Z</time>
      </trkpt>
      <trkpt lat="47.26152" lon="-1.48716">
        <ele>20.69</ele>
        <time>2020-05-16T10:56:38Z</time>
      </trkpt>
      <trkpt lat="47.26164" lon="-1.4871">
        <ele>21.15</ele>
        <time>2020-05-16T10:56:40Z</time>
      </trkpt>
      <trkpt lat="47.26176" lon="-1.48705">
        <ele>20.9</ele>
        <time>2020-05-16T10:56:42Z</time>
      </trkpt>
      <trkpt lat="47.26189" lon="-1.48699">
        <ele>20.26</ele>
        <time>2020-05-16T10:56:44Z</time>
      </trkpt>
      <trkpt lat="47.26201" lon="-1.48693">
        <ele>19.82</ele>
        <time>2020-05-16T10:56:46Z</time>
      </trkpt>
      <trkpt lat="47.26212" lon="-1.48689">
        <ele>19.01</ele>
        <time>2020-05-16T10:56:48Z</time>
      </trkpt>
      <trkpt lat="47.26223" lon="-1.48683">
        <ele>19.12</ele>
        <time>2020-05-16T10:56:50Z</time>
      </trkpt>
      <trkpt lat="47.26234" lon="-1.48678">
        <ele>19.67</ele>
        <time>2020-05-16T10:56:52Z</time>
      </trkpt>
      <trkpt lat="47.26246" lon="-1.48672">
        <ele>20.28</ele>
        <time>2020-05-16T10:56:54Z</time>
      </trkpt>
      <trkpt lat="47.26256" lon="-1.48669">
        <ele>19.67</ele>
        <time>2020-05-16T10:56:56Z</time>
      </trkpt>
      <trkpt lat="47.26266" lon="-1.48666">
        <ele>19.05</ele>
        <time>2020-05-16T10:56:58Z</time>
      </trkpt>
      <trkpt lat="47.26277" lon="-1.48665">
        <ele>18.95</ele>
        <time>2020-05-16T10:57:00Z</time>
      </trkpt>
      <trkpt lat="47.26287" lon="-1.48664">
        <ele>19.5</ele>
        <time>2020-05-16T10:57:02Z</time>
      </trkpt>
      <trkpt lat="47.26296" lon="-1.48663">
        <ele>20.9</ele>
        <time>2020-05-16T10:57:04Z</time>
      </trkpt>
      <trkpt lat="47.26309" lon="-1.48664">
        <ele>22.17</ele>
        <time>2020-05-16T10:57:06Z</time>
      </trkpt>
      <trkpt lat="47.2632" lon="-1.48664">
        <ele>22.17</ele>
        <time>2020-05-16T10:57:08Z</time>
      </trkpt>
      <trkpt lat="47.26334" lon="-1.48664">
        <ele>22.26</ele>
        <time>2020-05-16T10:57:10Z</time>
      </trkpt>
      <trkpt lat="47.26346" lon="-1.48665">
        <ele>23.01</ele>
        <time>2020-05-16T10:57:12Z</time>
      </trkpt>
      <trkpt lat="47.26355" lon="-1.48667">
        <ele>23.13</ele>
        <time>2020-05-16T10:57:14Z</time>
      </trkpt>
      <trkpt lat="47.26366" lon="-1.48669">
        <ele>24.36</ele>
        <time>2020-05-16T10:57:16Z</time>
      </trkpt>
      <trkpt lat="47.26376" lon="-1.48672">
        <ele>24.33</ele>
        <time>2020-05-16T10:57:18Z</time>
      </trkpt>
      <trkpt lat="47.26386" lon="-1.48673">
        <ele>24.85</ele>
        <time>2020-05-16T10:57:20Z</time>
      </trkpt>
      <trkpt lat="47.26397" lon="-1.48674">
        <ele>24.75</ele>
        <time>2020-05-16T10:57:22Z</time>
      </trkpt>
      <trkpt lat="47.26408" lon="-1.48673">
        <ele>24.24</ele>
        <time>2020-05-16T10:57:24Z</time>
      </trkpt>
      <trkpt lat="47.26418" lon="-1.48675">
        <ele>23.78</ele>
        <time>2020-05-16T10:57:26Z</time>
      </trkpt>
      <trkpt lat="47.26428" lon="-1.48676">
        <ele>24.39</ele>
        <time>2020-05-16T10:57:28Z</time>
      </trkpt>
      <trkpt lat="47.26439" lon="-1.48679">
        <ele>26.37</ele>
        <time>2020-05-16T10:57:30Z</time>
      </trkpt>
      <trkpt lat="47.26451" lon="-1.48682">
        <ele>26.83</ele>
        <time>2020-05-16T10:57:32Z</time>
      </trkpt>
      <trkpt lat="47.26463" lon="-1.48684">
        <ele>26.51</ele>
        <time>2020-05-16T10:57:34Z</time>
      </trkpt>
      <trkpt lat="47.26473" lon="-1.48686">
        <ele>26.38</ele>
        <time>2020-05-16T10:57:36Z</time>
      </trkpt>
      <trkpt lat="47.26485" lon="-1.48691">
        <ele>26.96</ele>
        <time>2020-05-16T10:57:38Z</time>
      </trkpt>
      <trkpt lat="47.26494" lon="-1.48693">
        <ele>26.52</ele>
        <time>2020-05-16T10:57:40Z</time>
      </trkpt>
      <trkpt lat="47.26506" lon="-1.48696">
        <ele>26.75</ele>
        <time>2020-05-16T10:57:42Z</time>
      </trkpt>
      <trkpt lat="47.26517" lon="-1.48699">
        <ele>27.04</ele>
        <time>2020-05-16T10:57:44Z</time>
      </trkpt>
      <trkpt lat="47.26531" lon="-1.48703">
        <ele>28.45</ele>
        <time>2020-05-16T10:57:47Z</time>
      </trkpt>
      <trkpt lat="47.26543" lon="-1.48708">
        <ele>28.47</ele>
        <time>2020-05-16T10:57:49Z</time>
      </trkpt>
      <trkpt lat="47.26555" lon="-1.48713">
        <ele>27.86</ele>
        <time>2020-05-16T10:57:51Z</time>
      </trkpt>
      <trkpt lat="47.26567" lon="-1.48717">
        <ele>27.33</ele>
        <time>2020-05-16T10:57:53Z</time>
      </trkpt>
      <trkpt lat="47.26578" lon="-1.4872">
        <ele>27.14</ele>
        <time>2020-05-16T10:57:55Z</time>
      </trkpt>
      <trkpt lat="47.26587" lon="-1.48719">
        <ele>26.09</ele>
        <time>2020-05-16T10:57:57Z</time>
      </trkpt>
      <trkpt lat="47.26598" lon="-1.48714">
        <ele>25.67</ele>
        <time>2020-05-16T10:58:00Z</time>
      </trkpt>
      <trkpt lat="47.26607" lon="-1.48717">
        <ele>26.37</ele>
        <time>2020-05-16T10:58:07Z</time>
      </trkpt>
      <trkpt lat="47.26616" lon="-1.48724">
        <ele>26.09</ele>
        <time>2020-05-16T10:58:39Z</time>
      </trkpt>
      <trkpt lat="47.26625" lon="-1.48736">
        <ele>26.93</ele>
        <time>2020-05-16T10:58:41Z</time>
      </trkpt>
      <trkpt lat="47.26633" lon="-1.4875">
        <ele>28.5</ele>
        <time>2020-05-16T10:58:43Z</time>
      </trkpt>
      <trkpt lat="47.26638" lon="-1.4877">
        <ele>29.23</ele>
        <time>2020-05-16T10:58:45Z</time>
      </trkpt>
      <trkpt lat="47.26647" lon="-1.48784">
        <ele>29.93</ele>
        <time>2020-05-16T10:58:47Z</time>
      </trkpt>
      <trkpt lat="47.26659" lon="-1.48795">
        <ele>29.64</ele>
        <time>2020-05-16T10:58:49Z</time>
      </trkpt>
      <trkpt lat="47.26669" lon="-1.48805">
        <ele>30.02</ele>
        <time>2020-05-16T10:58:51Z</time>
      </trkpt>
      <trkpt lat="47.26679" lon="-1.48815">
        <ele>30.23</ele>
        <time>2020-05-16T10:58:53Z</time>
      </trkpt>
      <trkpt lat="47.26689" lon="-1.48824">
        <ele>30.98</ele>
        <time>2020-05-16T10:58:55Z</time>
      </trkpt>
      <trkpt lat="47.26699" lon="-1.48833">
        <ele>30.93</ele>
        <time>2020-05-16T10:58:57Z</time>
      </trkpt>
      <trkpt lat="47.2671" lon="-1.48844">
        <ele>30.56</ele>
        <time>2020-05-16T10:58:59Z</time>
      </trkpt>
      <trkpt lat="47.26719" lon="-1.48856">
        <ele>30.01</ele>
        <time>2020-05-16T10:59:01Z</time>
      </trkpt>
      <trkpt lat="47.2673" lon="-1.48867">
        <ele>29.22</ele>
        <time>2020-05-16T10:59:03Z</time>
      </trkpt>
      <trkpt lat="47.26742" lon="-1.48871">
        <ele>29.4</ele>
        <time>2020-05-16T10:59:05Z</time>
      </trkpt>
      <trkpt lat="47.26752" lon="-1.48865">
        <ele>29.67</ele>
        <time>2020-05-16T10:59:07Z</time>
      </trkpt>
      <trkpt lat="47.26762" lon="-1.48852">
        <ele>29.67</ele>
        <time>2020-05-16T10:59:09Z</time>
      </trkpt>
      <trkpt lat="47.2677" lon="-1.4884">
        <ele>29.68</ele>
        <time>2020-05-16T10:59:11Z</time>
      </trkpt>
      <trkpt lat="47.2678" lon="-1.48825">
        <ele>29.34</ele>
        <time>2020-05-16T10:59:13Z</time>
      </trkpt>
      <trkpt lat="47.26788" lon="-1.48813">
        <ele>28.74</ele>
        <time>2020-05-16T10:59:15Z</time>
      </trkpt>
      <trkpt lat="47.26795" lon="-1.48802">
        <ele>28.57</ele>
        <time>2020-05-16T10:59:17Z</time>
      </trkpt>
      <trkpt lat="47.26805" lon="-1.48788">
        <ele>28.58</ele>
        <time>2020-05-16T10:59:19Z</time>
      </trkpt>
      <trkpt lat="47.26815" lon="-1.48774">
        <ele>29.27</ele>
        <time>2020-05-16T10:59:21Z</time>
      </trkpt>
      <trkpt lat="47.26824" lon="-1.48763">
        <ele>30.16</ele>
        <time>2020-05-16T10:59:23Z</time>
      </trkpt>
      <trkpt lat="47.26833" lon="-1.48751">
        <ele>29.46</ele>
        <time>2020-05-16T10:59:25Z</time>
      </trkpt>
      <trkpt lat="47.26845" lon="-1.48737">
        <ele>29.42</ele>
        <time>2020-05-16T10:59:27Z</time>
      </trkpt>
      <trkpt lat="47.26853" lon="-1.48725">
        <ele>30.18</ele>
        <time>2020-05-16T10:59:29Z</time>
      </trkpt>
      <trkpt lat="47.26862" lon="-1.48714">
        <ele>29.88</ele>
        <time>2020-05-16T10:59:31Z</time>
      </trkpt>
      <trkpt lat="47.26872" lon="-1.48702">
        <ele>30.33</ele>
        <time>2020-05-16T10:59:33Z</time>
      </trkpt>
      <trkpt lat="47.2688" lon="-1.48692">
        <ele>30.49</ele>
        <time>2020-05-16T10:59:35Z</time>
      </trkpt>
      <trkpt lat="47.26889" lon="-1.4868">
        <ele>29.94</ele>
        <time>2020-05-16T10:59:37Z</time>
      </trkpt>
      <trkpt lat="47.26899" lon="-1.48671">
        <ele>29.58</ele>
        <time>2020-05-16T10:59:39Z</time>
      </trkpt>
      <trkpt lat="47.26908" lon="-1.48661">
        <ele>30.48</ele>
        <time>2020-05-16T10:59:41Z</time>
      </trkpt>
      <trkpt lat="47.26918" lon="-1.48653">
        <ele>31.59</ele>
        <time>2020-05-16T10:59:43Z</time>
      </trkpt>
      <trkpt lat="47.26929" lon="-1.48644">
        <ele>31.17</ele>
        <time>2020-05-16T10:59:45Z</time>
      </trkpt>
      <trkpt lat="47.2694" lon="-1.48635">
        <ele>29.84</ele>
        <time>2020-05-16T10:59:47Z</time>
      </trkpt>
      <trkpt lat="47.2695" lon="-1.48627">
        <ele>30.02</ele>
        <time>2020-05-16T10:59:49Z</time>
      </trkpt>
      <trkpt lat="47.26961" lon="-1.48618">
        <ele>29.95</ele>
        <time>2020-05-16T10:59:51Z</time>
      </trkpt>
      <trkpt lat="47.26972" lon="-1.4861">
        <ele>30.13</ele>
        <time>2020-05-16T10:59:53Z</time>
      </trkpt>
      <trkpt lat="47.26984" lon="-1.48601">
        <ele>29.51</ele>
        <time>2020-05-16T10:59:55Z</time>
      </trkpt>
      <trkpt lat="47.26996" lon="-1.48591">
        <ele>28.28</ele>
        <time>2020-05-16T10:59:57Z</time>
      </trkpt>
      <trkpt lat="47.27007" lon="-1.48584">
        <ele>28.79</ele>
        <time>2020-05-16T10:59:59Z</time>
      </trkpt>
      <trkpt lat="47.27019" lon="-1.48575">
        <ele>29.05</ele>
        <time>2020-05-16T11:00:01Z</time>
      </trkpt>
      <trkpt lat="47.27032" lon="-1.48567">
        <ele>29.38</ele>
        <time>2020-05-16T11:00:03Z</time>
      </trkpt>
      <trkpt lat="47.27044" lon="-1.4856">
        <ele>29.29</ele>
        <time>2020-05-16T11:00:05Z</time>
      </trkpt>
      <trkpt lat="47.27056" lon="-1.48551">
        <ele>28.97</ele>
        <time>2020-05-16T11:00:07Z</time>
      </trkpt>
      <trkpt lat="47.27067" lon="-1.48541">
        <ele>28.17</ele>
        <time>2020-05-16T11:00:09Z</time>
      </trkpt>
      <trkpt lat="47.27079" lon="-1.48538">
        <ele>26.79</ele>
        <time>2020-05-16T11:00:11Z</time>
      </trkpt>
      <trkpt lat="47.27091" lon="-1.48527">
        <ele>26.9</ele>
        <time>2020-05-16T11:00:13Z</time>
      </trkpt>
      <trkpt lat="47.27101" lon="-1.48517">
        <ele>26.68</ele>
        <time>2020-05-16T11:00:15Z</time>
      </trkpt>
      <trkpt lat="47.27109" lon="-1.48509">
        <ele>26.88</ele>
        <time>2020-05-16T11:00:17Z</time>
      </trkpt>
      <trkpt lat="47.2712" lon="-1.48499">
        <ele>27.54</ele>
        <time>2020-05-16T11:00:19Z</time>
      </trkpt>
      <trkpt lat="47.2713" lon="-1.48492">
        <ele>27.56</ele>
        <time>2020-05-16T11:00:21Z</time>
      </trkpt>
      <trkpt lat="47.27141" lon="-1.48484">
        <ele>28.42</ele>
        <time>2020-05-16T11:00:23Z</time>
      </trkpt>
      <trkpt lat="47.27152" lon="-1.48475">
        <ele>29.06</ele>
        <time>2020-05-16T11:00:25Z</time>
      </trkpt>
      <trkpt lat="47.27165" lon="-1.48464">
        <ele>29.47</ele>
        <time>2020-05-16T11:00:27Z</time>
      </trkpt>
      <trkpt lat="47.27176" lon="-1.48456">
        <ele>28.7</ele>
        <time>2020-05-16T11:00:29Z</time>
      </trkpt>
      <trkpt lat="47.27186" lon="-1.48449">
        <ele>27.71</ele>
        <time>2020-05-16T11:00:31Z</time>
      </trkpt>
      <trkpt lat="47.27198" lon="-1.4844">
        <ele>26.56</ele>
        <time>2020-05-16T11:00:33Z</time>
      </trkpt>
      <trkpt lat="47.27208" lon="-1.48432">
        <ele>26.27</ele>
        <time>2020-05-16T11:00:35Z</time>
      </trkpt>
      <trkpt lat="47.27218" lon="-1.48423">
        <ele>27</ele>
        <time>2020-05-16T11:00:37Z</time>
      </trkpt>
      <trkpt lat="47.27228" lon="-1.48413">
        <ele>27.51</ele>
        <time>2020-05-16T11:00:39Z</time>
      </trkpt>
      <trkpt lat="47.27238" lon="-1.48407">
        <ele>27.73</ele>
        <time>2020-05-16T11:00:41Z</time>
      </trkpt>
      <trkpt lat="47.27249" lon="-1.48399">
        <ele>29.37</ele>
        <time>2020-05-16T11:00:43Z</time>
      </trkpt>
      <trkpt lat="47.27259" lon="-1.48391">
        <ele>29.77</ele>
        <time>2020-05-16T11:00:45Z</time>
      </trkpt>
      <trkpt lat="47.27269" lon="-1.48382">
        <ele>30.33</ele>
        <time>2020-05-16T11:00:47Z</time>
      </trkpt>
      <trkpt lat="47.27279" lon="-1.48373">
        <ele>29.41</ele>
        <time>2020-05-16T11:00:49Z</time>
      </trkpt>
      <trkpt lat="47.27284" lon="-1.48358">
        <ele>29.01</ele>
        <time>2020-05-16T11:00:51Z</time>
      </trkpt>
      <trkpt lat="47.27297" lon="-1.48358">
        <ele>28.36</ele>
        <time>2020-05-16T11:00:54Z</time>
      </trkpt>
      <trkpt lat="47.27306" lon="-1.48351">
        <ele>29.85</ele>
        <time>2020-05-16T11:00:56Z</time>
      </trkpt>
      <trkpt lat="47.27318" lon="-1.48343">
        <ele>31.15</ele>
        <time>2020-05-16T11:00:58Z</time>
      </trkpt>
      <trkpt lat="47.27329" lon="-1.48338">
        <ele>31.79</ele>
        <time>2020-05-16T11:01:00Z</time>
      </trkpt>
      <trkpt lat="47.27342" lon="-1.48332">
        <ele>30.93</ele>
        <time>2020-05-16T11:01:02Z</time>
      </trkpt>
      <trkpt lat="47.27352" lon="-1.48328">
        <ele>31.39</ele>
        <time>2020-05-16T11:01:04Z</time>
      </trkpt>
      <trkpt lat="47.27365" lon="-1.48325">
        <ele>31.48</ele>
        <time>2020-05-16T11:01:06Z</time>
      </trkpt>
      <trkpt lat="47.27377" lon="-1.48323">
        <ele>31.17</ele>
        <time>2020-05-16T11:01:08Z</time>
      </trkpt>
      <trkpt lat="47.27389" lon="-1.48323">
        <ele>30.54</ele>
        <time>2020-05-16T11:01:10Z</time>
      </trkpt>
      <trkpt lat="47.27403" lon="-1.48324">
        <ele>29.88</ele>
        <time>2020-05-16T11:01:12Z</time>
      </trkpt>
      <trkpt lat="47.27414" lon="-1.48326">
        <ele>30.1</ele>
        <time>2020-05-16T11:01:14Z</time>
      </trkpt>
      <trkpt lat="47.27425" lon="-1.48329">
        <ele>29.59</ele>
        <time>2020-05-16T11:01:16Z</time>
      </trkpt>
      <trkpt lat="47.27435" lon="-1.48331">
        <ele>30.34</ele>
        <time>2020-05-16T11:01:18Z</time>
      </trkpt>
      <trkpt lat="47.27447" lon="-1.48333">
        <ele>31.29</ele>
        <time>2020-05-16T11:01:20Z</time>
      </trkpt>
      <trkpt lat="47.27462" lon="-1.48335">
        <ele>31.11</ele>
        <time>2020-05-16T11:01:22Z</time>
      </trkpt>
      <trkpt lat="47.27475" lon="-1.48339">
        <ele>29.9</ele>
        <time>2020-05-16T11:01:24Z</time>
      </trkpt>
      <trkpt lat="47.27487" lon="-1.48341">
        <ele>29.14</ele>
        <time>2020-05-16T11:01:26Z</time>
      </trkpt>
      <trkpt lat="47.27499" lon="-1.48342">
        <ele>27.94</ele>
        <time>2020-05-16T11:01:28Z</time>
      </trkpt>
      <trkpt lat="47.27508" lon="-1.48343">
        <ele>28.27</ele>
        <time>2020-05-16T11:01:30Z</time>
      </trkpt>
      <trkpt lat="47.27518" lon="-1.48344">
        <ele>29.12</ele>
        <time>2020-05-16T11:01:32Z</time>
      </trkpt>
      <trkpt lat="47.2753" lon="-1.48347">
        <ele>30.69</ele>
        <time>2020-05-16T11:01:34Z</time>
      </trkpt>
      <trkpt lat="47.27542" lon="-1.48349">
        <ele>31.66</ele>
        <time>2020-05-16T11:01:36Z</time>
      </trkpt>
      <trkpt lat="47.27556" lon="-1.48352">
        <ele>31.87</ele>
        <time>2020-05-16T11:01:38Z</time>
      </trkpt>
      <trkpt lat="47.27565" lon="-1.48354">
        <ele>32.76</ele>
        <time>2020-05-16T11:01:40Z</time>
      </trkpt>
      <trkpt lat="47.27575" lon="-1.48354">
        <ele>32.95</ele>
        <time>2020-05-16T11:01:42Z</time>
      </trkpt>
      <trkpt lat="47.27589" lon="-1.48353">
        <ele>32.77</ele>
        <time>2020-05-16T11:01:44Z</time>
      </trkpt>
      <trkpt lat="47.27602" lon="-1.48351">
        <ele>33.01</ele>
        <time>2020-05-16T11:01:46Z</time>
      </trkpt>
      <trkpt lat="47.27613" lon="-1.48347">
        <ele>32.2</ele>
        <time>2020-05-16T11:01:48Z</time>
      </trkpt>
      <trkpt lat="47.27625" lon="-1.48344">
        <ele>31.95</ele>
        <time>2020-05-16T11:01:50Z</time>
      </trkpt>
      <trkpt lat="47.27636" lon="-1.4834">
        <ele>31.25</ele>
        <time>2020-05-16T11:01:52Z</time>
      </trkpt>
      <trkpt lat="47.27644" lon="-1.48332">
        <ele>31.88</ele>
        <time>2020-05-16T11:01:54Z</time>
      </trkpt>
      <trkpt lat="47.27656" lon="-1.48333">
        <ele>32.74</ele>
        <time>2020-05-16T11:01:56Z</time>
      </trkpt>
      <trkpt lat="47.2767" lon="-1.48337">
        <ele>32.78</ele>
        <time>2020-05-16T11:01:58Z</time>
      </trkpt>
      <trkpt lat="47.27684" lon="-1.48339">
        <ele>31.87</ele>
        <time>2020-05-16T11:02:00Z</time>
      </trkpt>
      <trkpt lat="47.27699" lon="-1.48343">
        <ele>31.71</ele>
        <time>2020-05-16T11:02:02Z</time>
      </trkpt>
      <trkpt lat="47.27713" lon="-1.4835">
        <ele>32.64</ele>
        <time>2020-05-16T11:02:04Z</time>
      </trkpt>
      <trkpt lat="47.27725" lon="-1.48356">
        <ele>33.06</ele>
        <time>2020-05-16T11:02:06Z</time>
      </trkpt>
      <trkpt lat="47.27738" lon="-1.48367">
        <ele>31.87</ele>
        <time>2020-05-16T11:02:08Z</time>
      </trkpt>
      <trkpt lat="47.27751" lon="-1.48381">
        <ele>30.35</ele>
        <time>2020-05-16T11:02:10Z</time>
      </trkpt>
      <trkpt lat="47.27763" lon="-1.48394">
        <ele>29.82</ele>
        <time>2020-05-16T11:02:12Z</time>
      </trkpt>
      <trkpt lat="47.27775" lon="-1.48406">
        <ele>29.21</ele>
        <time>2020-05-16T11:02:14Z</time>
      </trkpt>
      <trkpt lat="47.27788" lon="-1.48417">
        <ele>28.06</ele>
        <time>2020-05-16T11:02:16Z</time>
      </trkpt>
      <trkpt lat="47.27802" lon="-1.48429">
        <ele>27.04</ele>
        <time>2020-05-16T11:02:18Z</time>
      </trkpt>
      <trkpt lat="47.27815" lon="-1.48437">
        <ele>26.24</ele>
        <time>2020-05-16T11:02:20Z</time>
      </trkpt>
      <trkpt lat="47.27827" lon="-1.48445">
        <ele>25.45</ele>
        <time>2020-05-16T11:02:22Z</time>
      </trkpt>
      <trkpt lat="47.27838" lon="-1.48455">
        <ele>24.98</ele>
        <time>2020-05-16T11:02:24Z</time>
      </trkpt>
      <trkpt lat="47.27853" lon="-1.48463">
        <ele>24.73</ele>
        <time>2020-05-16T11:02:26Z</time>
      </trkpt>
      <trkpt lat="47.27868" lon="-1.48469">
        <ele>24.34</ele>
        <time>2020-05-16T11:02:28Z</time>
      </trkpt>
      <trkpt lat="47.27877" lon="-1.48473">
        <ele>24.35</ele>
        <time>2020-05-16T11:02:29Z</time>
      </trkpt>
      <trkpt lat="47.27891" lon="-1.48479">
        <ele>24.46</ele>
        <time>2020-05-16T11:02:31Z</time>
      </trkpt>
      <trkpt lat="47.27903" lon="-1.48484">
        <ele>24.23</ele>
        <time>2020-05-16T11:02:33Z</time>
      </trkpt>
      <trkpt lat="47.27919" lon="-1.48492">
        <ele>24.23</ele>
        <time>2020-05-16T11:02:35Z</time>
      </trkpt>
      <trkpt lat="47.27931" lon="-1.48497">
        <ele>24.61</ele>
        <time>2020-05-16T11:02:37Z</time>
      </trkpt>
      <trkpt lat="47.27945" lon="-1.48503">
        <ele>24.63</ele>
        <time>2020-05-16T11:02:39Z</time>
      </trkpt>
      <trkpt lat="47.27957" lon="-1.48508">
        <ele>24.32</ele>
        <time>2020-05-16T11:02:41Z</time>
      </trkpt>
      <trkpt lat="47.27971" lon="-1.48514">
        <ele>23.89</ele>
        <time>2020-05-16T11:02:43Z</time>
      </trkpt>
      <trkpt lat="47.27984" lon="-1.48519">
        <ele>23.03</ele>
        <time>2020-05-16T11:02:45Z</time>
      </trkpt>
      <trkpt lat="47.27994" lon="-1.48516">
        <ele>23.09</ele>
        <time>2020-05-16T11:02:47Z</time>
      </trkpt>
      <trkpt lat="47.28008" lon="-1.48525">
        <ele>23.26</ele>
        <time>2020-05-16T11:02:50Z</time>
      </trkpt>
      <trkpt lat="47.28021" lon="-1.4853">
        <ele>22.78</ele>
        <time>2020-05-16T11:02:52Z</time>
      </trkpt>
      <trkpt lat="47.28035" lon="-1.48534">
        <ele>22.53</ele>
        <time>2020-05-16T11:02:54Z</time>
      </trkpt>
      <trkpt lat="47.28049" lon="-1.48538">
        <ele>23.07</ele>
        <time>2020-05-16T11:02:56Z</time>
      </trkpt>
      <trkpt lat="47.2806" lon="-1.48542">
        <ele>23.37</ele>
        <time>2020-05-16T11:02:58Z</time>
      </trkpt>
      <trkpt lat="47.28075" lon="-1.48543">
        <ele>23.02</ele>
        <time>2020-05-16T11:03:00Z</time>
      </trkpt>
      <trkpt lat="47.28088" lon="-1.48542">
        <ele>21.41</ele>
        <time>2020-05-16T11:03:02Z</time>
      </trkpt>
      <trkpt lat="47.28102" lon="-1.4854">
        <ele>20.68</ele>
        <time>2020-05-16T11:03:04Z</time>
      </trkpt>
      <trkpt lat="47.28116" lon="-1.48539">
        <ele>19.57</ele>
        <time>2020-05-16T11:03:06Z</time>
      </trkpt>
      <trkpt lat="47.28129" lon="-1.48538">
        <ele>19.27</ele>
        <time>2020-05-16T11:03:08Z</time>
      </trkpt>
      <trkpt lat="47.28142" lon="-1.48537">
        <ele>19.26</ele>
        <time>2020-05-16T11:03:10Z</time>
      </trkpt>
      <trkpt lat="47.28156" lon="-1.48537">
        <ele>18.48</ele>
        <time>2020-05-16T11:03:12Z</time>
      </trkpt>
      <trkpt lat="47.28171" lon="-1.48536">
        <ele>17.37</ele>
        <time>2020-05-16T11:03:14Z</time>
      </trkpt>
      <trkpt lat="47.28185" lon="-1.48536">
        <ele>17.25</ele>
        <time>2020-05-16T11:03:16Z</time>
      </trkpt>
      <trkpt lat="47.28199" lon="-1.48535">
        <ele>17.91</ele>
        <time>2020-05-16T11:03:18Z</time>
      </trkpt>
      <trkpt lat="47.28211" lon="-1.48529">
        <ele>18.83</ele>
        <time>2020-05-16T11:03:20Z</time>
      </trkpt>
      <trkpt lat="47.28216" lon="-1.48509">
        <ele>19.66</ele>
        <time>2020-05-16T11:03:22Z</time>
      </trkpt>
      <trkpt lat="47.28224" lon="-1.48497">
        <ele>19.86</ele>
        <time>2020-05-16T11:03:25Z</time>
      </trkpt>
      <trkpt lat="47.28233" lon="-1.48503">
        <ele>19.25</ele>
        <time>2020-05-16T11:03:27Z</time>
      </trkpt>
      <trkpt lat="47.28245" lon="-1.48516">
        <ele>17.76</ele>
        <time>2020-05-16T11:03:29Z</time>
      </trkpt>
      <trkpt lat="47.28256" lon="-1.48528">
        <ele>17.34</ele>
        <time>2020-05-16T11:03:31Z</time>
      </trkpt>
      <trkpt lat="47.28268" lon="-1.48537">
        <ele>17.74</ele>
        <time>2020-05-16T11:03:33Z</time>
      </trkpt>
      <trkpt lat="47.2828" lon="-1.48546">
        <ele>18.02</ele>
        <time>2020-05-16T11:03:35Z</time>
      </trkpt>
      <trkpt lat="47.28291" lon="-1.48557">
        <ele>18.33</ele>
        <time>2020-05-16T11:03:37Z</time>
      </trkpt>
      <trkpt lat="47.28304" lon="-1.4857">
        <ele>17.45</ele>
        <time>2020-05-16T11:03:39Z</time>
      </trkpt>
      <trkpt lat="47.28314" lon="-1.4859">
        <ele>14.81</ele>
        <time>2020-05-16T11:03:41Z</time>
      </trkpt>
      <trkpt lat="47.28323" lon="-1.48604">
        <ele>14</ele>
        <time>2020-05-16T11:03:43Z</time>
      </trkpt>
      <trkpt lat="47.28333" lon="-1.4861">
        <ele>14.77</ele>
        <time>2020-05-16T11:03:45Z</time>
      </trkpt>
      <trkpt lat="47.28344" lon="-1.48614">
        <ele>16.02</ele>
        <time>2020-05-16T11:03:47Z</time>
      </trkpt>
      <trkpt lat="47.28358" lon="-1.48623">
        <ele>16.04</ele>
        <time>2020-05-16T11:03:50Z</time>
      </trkpt>
      <trkpt lat="47.28369" lon="-1.48631">
        <ele>16.58</ele>
        <time>2020-05-16T11:03:52Z</time>
      </trkpt>
      <trkpt lat="47.2838" lon="-1.48642">
        <ele>17.61</ele>
        <time>2020-05-16T11:03:54Z</time>
      </trkpt>
      <trkpt lat="47.28391" lon="-1.4865">
        <ele>18.8</ele>
        <time>2020-05-16T11:03:56Z</time>
      </trkpt>
      <trkpt lat="47.28401" lon="-1.48646">
        <ele>19.18</ele>
        <time>2020-05-16T11:03:58Z</time>
      </trkpt>
      <trkpt lat="47.28413" lon="-1.48641">
        <ele>19.1</ele>
        <time>2020-05-16T11:04:00Z</time>
      </trkpt>
      <trkpt lat="47.28426" lon="-1.48635">
        <ele>20.19</ele>
        <time>2020-05-16T11:04:02Z</time>
      </trkpt>
      <trkpt lat="47.28437" lon="-1.48627">
        <ele>20.58</ele>
        <time>2020-05-16T11:04:04Z</time>
      </trkpt>
      <trkpt lat="47.28445" lon="-1.48618">
        <ele>20.78</ele>
        <time>2020-05-16T11:04:06Z</time>
      </trkpt>
      <trkpt lat="47.28454" lon="-1.48611">
        <ele>21.64</ele>
        <time>2020-05-16T11:04:08Z</time>
      </trkpt>
      <trkpt lat="47.28465" lon="-1.48602">
        <ele>21.72</ele>
        <time>2020-05-16T11:04:10Z</time>
      </trkpt>
      <trkpt lat="47.28477" lon="-1.48592">
        <ele>20.53</ele>
        <time>2020-05-16T11:04:12Z</time>
      </trkpt>
      <trkpt lat="47.28489" lon="-1.48582">
        <ele>20.22</ele>
        <time>2020-05-16T11:04:14Z</time>
      </trkpt>
      <trkpt lat="47.28499" lon="-1.48573">
        <ele>19.25</ele>
        <time>2020-05-16T11:04:16Z</time>
      </trkpt>
      <trkpt lat="47.28512" lon="-1.48563">
        <ele>18.83</ele>
        <time>2020-05-16T11:04:18Z</time>
      </trkpt>
      <trkpt lat="47.28522" lon="-1.48555">
        <ele>18.84</ele>
        <time>2020-05-16T11:04:20Z</time>
      </trkpt>
      <trkpt lat="47.2853" lon="-1.48547">
        <ele>19.99</ele>
        <time>2020-05-16T11:04:22Z</time>
      </trkpt>
      <trkpt lat="47.28541" lon="-1.48539">
        <ele>20.1</ele>
        <time>2020-05-16T11:04:24Z</time>
      </trkpt>
      <trkpt lat="47.28552" lon="-1.48529">
        <ele>20.53</ele>
        <time>2020-05-16T11:04:26Z</time>
      </trkpt>
      <trkpt lat="47.28564" lon="-1.4852">
        <ele>22.16</ele>
        <time>2020-05-16T11:04:28Z</time>
      </trkpt>
      <trkpt lat="47.28576" lon="-1.48509">
        <ele>23.97</ele>
        <time>2020-05-16T11:04:30Z</time>
      </trkpt>
      <trkpt lat="47.28586" lon="-1.485">
        <ele>23.82</ele>
        <time>2020-05-16T11:04:32Z</time>
      </trkpt>
      <trkpt lat="47.28598" lon="-1.4849">
        <ele>23.04</ele>
        <time>2020-05-16T11:04:34Z</time>
      </trkpt>
      <trkpt lat="47.28607" lon="-1.48482">
        <ele>22.86</ele>
        <time>2020-05-16T11:04:36Z</time>
      </trkpt>
      <trkpt lat="47.28618" lon="-1.48473">
        <ele>23.18</ele>
        <time>2020-05-16T11:04:38Z</time>
      </trkpt>
      <trkpt lat="47.2863" lon="-1.48464">
        <ele>24.08</ele>
        <time>2020-05-16T11:04:40Z</time>
      </trkpt>
      <trkpt lat="47.2864" lon="-1.48458">
        <ele>24.85</ele>
        <time>2020-05-16T11:04:41Z</time>
      </trkpt>
      <trkpt lat="47.28654" lon="-1.48449">
        <ele>24.26</ele>
        <time>2020-05-16T11:04:43Z</time>
      </trkpt>
      <trkpt lat="47.28664" lon="-1.48443">
        <ele>24.64</ele>
        <time>2020-05-16T11:04:45Z</time>
      </trkpt>
      <trkpt lat="47.28674" lon="-1.48437">
        <ele>25.56</ele>
        <time>2020-05-16T11:04:47Z</time>
      </trkpt>
      <trkpt lat="47.28687" lon="-1.48431">
        <ele>25.85</ele>
        <time>2020-05-16T11:04:50Z</time>
      </trkpt>
      <trkpt lat="47.28699" lon="-1.48424">
        <ele>25.85</ele>
        <time>2020-05-16T11:04:52Z</time>
      </trkpt>
      <trkpt lat="47.28713" lon="-1.48419">
        <ele>25.83</ele>
        <time>2020-05-16T11:04:54Z</time>
      </trkpt>
      <trkpt lat="47.28723" lon="-1.48417">
        <ele>25.29</ele>
        <time>2020-05-16T11:04:56Z</time>
      </trkpt>
      <trkpt lat="47.28735" lon="-1.48415">
        <ele>25.72</ele>
        <time>2020-05-16T11:04:58Z</time>
      </trkpt>
      <trkpt lat="47.28747" lon="-1.48412">
        <ele>25.89</ele>
        <time>2020-05-16T11:05:00Z</time>
      </trkpt>
      <trkpt lat="47.28761" lon="-1.48406">
        <ele>26.77</ele>
        <time>2020-05-16T11:05:02Z</time>
      </trkpt>
      <trkpt lat="47.2877" lon="-1.48393">
        <ele>27.83</ele>
        <time>2020-05-16T11:05:04Z</time>
      </trkpt>
      <trkpt lat="47.28778" lon="-1.48384">
        <ele>28.32</ele>
        <time>2020-05-16T11:05:06Z</time>
      </trkpt>
      <trkpt lat="47.2879" lon="-1.48381">
        <ele>28</ele>
        <time>2020-05-16T11:05:08Z</time>
      </trkpt>
      <trkpt lat="47.28801" lon="-1.48384">
        <ele>27.68</ele>
        <time>2020-05-16T11:05:10Z</time>
      </trkpt>
      <trkpt lat="47.28812" lon="-1.48395">
        <ele>27.2</ele>
        <time>2020-05-16T11:05:12Z</time>
      </trkpt>
      <trkpt lat="47.28824" lon="-1.48407">
        <ele>26.99</ele>
        <time>2020-05-16T11:05:14Z</time>
      </trkpt>
      <trkpt lat="47.28835" lon="-1.48412">
        <ele>27.07</ele>
        <time>2020-05-16T11:05:16Z</time>
      </trkpt>
      <trkpt lat="47.28849" lon="-1.48416">
        <ele>27.17</ele>
        <time>2020-05-16T11:05:18Z</time>
      </trkpt>
      <trkpt lat="47.28863" lon="-1.48421">
        <ele>26.7</ele>
        <time>2020-05-16T11:05:20Z</time>
      </trkpt>
      <trkpt lat="47.28875" lon="-1.48426">
        <ele>26.94</ele>
        <time>2020-05-16T11:05:22Z</time>
      </trkpt>
      <trkpt lat="47.28888" lon="-1.48432">
        <ele>27.33</ele>
        <time>2020-05-16T11:05:24Z</time>
      </trkpt>
      <trkpt lat="47.28899" lon="-1.48439">
        <ele>28.41</ele>
        <time>2020-05-16T11:05:26Z</time>
      </trkpt>
      <trkpt lat="47.28911" lon="-1.48445">
        <ele>27.88</ele>
        <time>2020-05-16T11:05:28Z</time>
      </trkpt>
      <trkpt lat="47.28923" lon="-1.48453">
        <ele>27.6</ele>
        <time>2020-05-16T11:05:30Z</time>
      </trkpt>
      <trkpt lat="47.28936" lon="-1.48459">
        <ele>26.63</ele>
        <time>2020-05-16T11:05:32Z</time>
      </trkpt>
      <trkpt lat="47.28949" lon="-1.48466">
        <ele>25.26</ele>
        <time>2020-05-16T11:05:34Z</time>
      </trkpt>
      <trkpt lat="47.28961" lon="-1.48475">
        <ele>24.96</ele>
        <time>2020-05-16T11:05:36Z</time>
      </trkpt>
      <trkpt lat="47.28974" lon="-1.48485">
        <ele>25.68</ele>
        <time>2020-05-16T11:05:38Z</time>
      </trkpt>
      <trkpt lat="47.28989" lon="-1.48496">
        <ele>25.7</ele>
        <time>2020-05-16T11:05:40Z</time>
      </trkpt>
      <trkpt lat="47.29001" lon="-1.48506">
        <ele>23.73</ele>
        <time>2020-05-16T11:05:42Z</time>
      </trkpt>
      <trkpt lat="47.29012" lon="-1.48513">
        <ele>23.25</ele>
        <time>2020-05-16T11:05:44Z</time>
      </trkpt>
      <trkpt lat="47.29026" lon="-1.48523">
        <ele>23.58</ele>
        <time>2020-05-16T11:05:46Z</time>
      </trkpt>
      <trkpt lat="47.29039" lon="-1.48534">
        <ele>23.69</ele>
        <time>2020-05-16T11:05:48Z</time>
      </trkpt>
      <trkpt lat="47.2905" lon="-1.48543">
        <ele>24.23</ele>
        <time>2020-05-16T11:05:50Z</time>
      </trkpt>
      <trkpt lat="47.29065" lon="-1.48553">
        <ele>24.48</ele>
        <time>2020-05-16T11:05:52Z</time>
      </trkpt>
      <trkpt lat="47.29077" lon="-1.48563">
        <ele>25.78</ele>
        <time>2020-05-16T11:05:54Z</time>
      </trkpt>
      <trkpt lat="47.29089" lon="-1.48575">
        <ele>26.09</ele>
        <time>2020-05-16T11:05:56Z</time>
      </trkpt>
      <trkpt lat="47.29102" lon="-1.48585">
        <ele>24.61</ele>
        <time>2020-05-16T11:05:58Z</time>
      </trkpt>
      <trkpt lat="47.29114" lon="-1.48593">
        <ele>23.51</ele>
        <time>2020-05-16T11:06:00Z</time>
      </trkpt>
      <trkpt lat="47.29127" lon="-1.48602">
        <ele>22.29</ele>
        <time>2020-05-16T11:06:02Z</time>
      </trkpt>
      <trkpt lat="47.29138" lon="-1.48609">
        <ele>21.81</ele>
        <time>2020-05-16T11:06:04Z</time>
      </trkpt>
      <trkpt lat="47.29151" lon="-1.48618">
        <ele>21.18</ele>
        <time>2020-05-16T11:06:06Z</time>
      </trkpt>
      <trkpt lat="47.29164" lon="-1.48626">
        <ele>21.33</ele>
        <time>2020-05-16T11:06:08Z</time>
      </trkpt>
      <trkpt lat="47.29176" lon="-1.48635">
        <ele>20.74</ele>
        <time>2020-05-16T11:06:10Z</time>
      </trkpt>
      <trkpt lat="47.29187" lon="-1.48645">
        <ele>20.13</ele>
        <time>2020-05-16T11:06:12Z</time>
      </trkpt>
      <trkpt lat="47.29197" lon="-1.48653">
        <ele>20.14</ele>
        <time>2020-05-16T11:06:14Z</time>
      </trkpt>
      <trkpt lat="47.29208" lon="-1.48662">
        <ele>19.94</ele>
        <time>2020-05-16T11:06:16Z</time>
      </trkpt>
      <trkpt lat="47.29219" lon="-1.48671">
        <ele>19.83</ele>
        <time>2020-05-16T11:06:18Z</time>
      </trkpt>
      <trkpt lat="47.29231" lon="-1.48679">
        <ele>19.67</ele>
        <time>2020-05-16T11:06:20Z</time>
      </trkpt>
      <trkpt lat="47.29243" lon="-1.48688">
        <ele>20.34</ele>
        <time>2020-05-16T11:06:22Z</time>
      </trkpt>
      <trkpt lat="47.29252" lon="-1.48688">
        <ele>21.6</ele>
        <time>2020-05-16T11:06:24Z</time>
      </trkpt>
      <trkpt lat="47.29263" lon="-1.48687">
        <ele>22.09</ele>
        <time>2020-05-16T11:06:26Z</time>
      </trkpt>
      <trkpt lat="47.29272" lon="-1.48688">
        <ele>22.46</ele>
        <time>2020-05-16T11:06:28Z</time>
      </trkpt>
      <trkpt lat="47.2928" lon="-1.48705">
        <ele>22.65</ele>
        <time>2020-05-16T11:06:31Z</time>
      </trkpt>
      <trkpt lat="47.29286" lon="-1.48722">
        <ele>22.5</ele>
        <time>2020-05-16T11:06:33Z</time>
      </trkpt>
      <trkpt lat="47.29295" lon="-1.48735">
        <ele>22.53</ele>
        <time>2020-05-16T11:06:35Z</time>
      </trkpt>
      <trkpt lat="47.29307" lon="-1.48742">
        <ele>22.32</ele>
        <time>2020-05-16T11:06:37Z</time>
      </trkpt>
      <trkpt lat="47.29317" lon="-1.48749">
        <ele>22.74</ele>
        <time>2020-05-16T11:06:39Z</time>
      </trkpt>
      <trkpt lat="47.2933" lon="-1.48759">
        <ele>22.98</ele>
        <time>2020-05-16T11:06:41Z</time>
      </trkpt>
      <trkpt lat="47.29339" lon="-1.48767">
        <ele>23.67</ele>
        <time>2020-05-16T11:06:43Z</time>
      </trkpt>
      <trkpt lat="47.2935" lon="-1.48775">
        <ele>24.88</ele>
        <time>2020-05-16T11:06:45Z</time>
      </trkpt>
      <trkpt lat="47.2936" lon="-1.48783">
        <ele>25.13</ele>
        <time>2020-05-16T11:06:47Z</time>
      </trkpt>
      <trkpt lat="47.2937" lon="-1.48789">
        <ele>24.9</ele>
        <time>2020-05-16T11:06:49Z</time>
      </trkpt>
      <trkpt lat="47.29384" lon="-1.48794">
        <ele>25.03</ele>
        <time>2020-05-16T11:06:51Z</time>
      </trkpt>
      <trkpt lat="47.29394" lon="-1.48795">
        <ele>24.7</ele>
        <time>2020-05-16T11:06:53Z</time>
      </trkpt>
      <trkpt lat="47.29405" lon="-1.48793">
        <ele>24.36</ele>
        <time>2020-05-16T11:06:55Z</time>
      </trkpt>
      <trkpt lat="47.29416" lon="-1.48786">
        <ele>24.98</ele>
        <time>2020-05-16T11:06:57Z</time>
      </trkpt>
      <trkpt lat="47.29426" lon="-1.48777">
        <ele>24.24</ele>
        <time>2020-05-16T11:06:59Z</time>
      </trkpt>
      <trkpt lat="47.29434" lon="-1.48768">
        <ele>24.71</ele>
        <time>2020-05-16T11:07:01Z</time>
      </trkpt>
      <trkpt lat="47.29443" lon="-1.4876">
        <ele>26.22</ele>
        <time>2020-05-16T11:07:03Z</time>
      </trkpt>
      <trkpt lat="47.29452" lon="-1.48752">
        <ele>27.54</ele>
        <time>2020-05-16T11:07:05Z</time>
      </trkpt>
      <trkpt lat="47.29463" lon="-1.48741">
        <ele>29.24</ele>
        <time>2020-05-16T11:07:08Z</time>
      </trkpt>
      <trkpt lat="47.29474" lon="-1.48732">
        <ele>29.49</ele>
        <time>2020-05-16T11:07:10Z</time>
      </trkpt>
      <trkpt lat="47.29486" lon="-1.48723">
        <ele>29.64</ele>
        <time>2020-05-16T11:07:12Z</time>
      </trkpt>
      <trkpt lat="47.29496" lon="-1.48715">
        <ele>30.85</ele>
        <time>2020-05-16T11:07:14Z</time>
      </trkpt>
      <trkpt lat="47.29508" lon="-1.48704">
        <ele>31.64</ele>
        <time>2020-05-16T11:07:16Z</time>
      </trkpt>
      <trkpt lat="47.29518" lon="-1.48695">
        <ele>30.93</ele>
        <time>2020-05-16T11:07:18Z</time>
      </trkpt>
      <trkpt lat="47.2953" lon="-1.48688">
        <ele>28.59</ele>
        <time>2020-05-16T11:07:20Z</time>
      </trkpt>
      <trkpt lat="47.29543" lon="-1.48682">
        <ele>26.66</ele>
        <time>2020-05-16T11:07:22Z</time>
      </trkpt>
      <trkpt lat="47.29555" lon="-1.48676">
        <ele>26.23</ele>
        <time>2020-05-16T11:07:24Z</time>
      </trkpt>
      <trkpt lat="47.29567" lon="-1.48672">
        <ele>27.09</ele>
        <time>2020-05-16T11:07:26Z</time>
      </trkpt>
      <trkpt lat="47.29581" lon="-1.48667">
        <ele>26.9</ele>
        <time>2020-05-16T11:07:28Z</time>
      </trkpt>
      <trkpt lat="47.29594" lon="-1.48662">
        <ele>26.22</ele>
        <time>2020-05-16T11:07:30Z</time>
      </trkpt>
      <trkpt lat="47.29606" lon="-1.48658">
        <ele>25.87</ele>
        <time>2020-05-16T11:07:32Z</time>
      </trkpt>
      <trkpt lat="47.2962" lon="-1.48652">
        <ele>25.39</ele>
        <time>2020-05-16T11:07:34Z</time>
      </trkpt>
      <trkpt lat="47.29629" lon="-1.48643">
        <ele>25.56</ele>
        <time>2020-05-16T11:07:36Z</time>
      </trkpt>
      <trkpt lat="47.29639" lon="-1.48628">
        <ele>25.75</ele>
        <time>2020-05-16T11:07:38Z</time>
      </trkpt>
      <trkpt lat="47.29647" lon="-1.4862">
        <ele>25.42</ele>
        <time>2020-05-16T11:07:40Z</time>
      </trkpt>
      <trkpt lat="47.29658" lon="-1.48612">
        <ele>24.72</ele>
        <time>2020-05-16T11:07:42Z</time>
      </trkpt>
      <trkpt lat="47.29671" lon="-1.48604">
        <ele>24.02</ele>
        <time>2020-05-16T11:07:44Z</time>
      </trkpt>
      <trkpt lat="47.29681" lon="-1.486">
        <ele>23.48</ele>
        <time>2020-05-16T11:07:46Z</time>
      </trkpt>
      <trkpt lat="47.29694" lon="-1.48597">
        <ele>22.73</ele>
        <time>2020-05-16T11:07:48Z</time>
      </trkpt>
      <trkpt lat="47.29707" lon="-1.48599">
        <ele>22.42</ele>
        <time>2020-05-16T11:07:50Z</time>
      </trkpt>
      <trkpt lat="47.29719" lon="-1.48606">
        <ele>22.75</ele>
        <time>2020-05-16T11:07:52Z</time>
      </trkpt>
      <trkpt lat="47.2973" lon="-1.48612">
        <ele>23.49</ele>
        <time>2020-05-16T11:07:54Z</time>
      </trkpt>
      <trkpt lat="47.29743" lon="-1.48618">
        <ele>24.63</ele>
        <time>2020-05-16T11:07:56Z</time>
      </trkpt>
      <trkpt lat="47.29755" lon="-1.48622">
        <ele>25.12</ele>
        <time>2020-05-16T11:07:58Z</time>
      </trkpt>
      <trkpt lat="47.29767" lon="-1.48624">
        <ele>23.83</ele>
        <time>2020-05-16T11:08:00Z</time>
      </trkpt>
      <trkpt lat="47.29777" lon="-1.48626">
        <ele>23.48</ele>
        <time>2020-05-16T11:08:02Z</time>
      </trkpt>
      <trkpt lat="47.29787" lon="-1.48624">
        <ele>23.45</ele>
        <time>2020-05-16T11:08:05Z</time>
      </trkpt>
      <trkpt lat="47.29799" lon="-1.48626">
        <ele>24.23</ele>
        <time>2020-05-16T11:08:07Z</time>
      </trkpt>
      <trkpt lat="47.29812" lon="-1.48628">
        <ele>24.72</ele>
        <time>2020-05-16T11:08:09Z</time>
      </trkpt>
      <trkpt lat="47.29823" lon="-1.48629">
        <ele>24.4</ele>
        <time>2020-05-16T11:08:11Z</time>
      </trkpt>
      <trkpt lat="47.29838" lon="-1.48631">
        <ele>23.49</ele>
        <time>2020-05-16T11:08:13Z</time>
      </trkpt>
      <trkpt lat="47.29852" lon="-1.48632">
        <ele>23.13</ele>
        <time>2020-05-16T11:08:15Z</time>
      </trkpt>
      <trkpt lat="47.29866" lon="-1.48633">
        <ele>23.04</ele>
        <time>2020-05-16T11:08:17Z</time>
      </trkpt>
      <trkpt lat="47.29876" lon="-1.48633">
        <ele>23.6</ele>
        <time>2020-05-16T11:08:19Z</time>
      </trkpt>
      <trkpt lat="47.29888" lon="-1.48633">
        <ele>25.41</ele>
        <time>2020-05-16T11:08:21Z</time>
      </trkpt>
      <trkpt lat="47.29901" lon="-1.48632">
        <ele>26.19</ele>
        <time>2020-05-16T11:08:23Z</time>
      </trkpt>
      <trkpt lat="47.29915" lon="-1.4863">
        <ele>25.51</ele>
        <time>2020-05-16T11:08:25Z</time>
      </trkpt>
      <trkpt lat="47.29931" lon="-1.48628">
        <ele>25.05</ele>
        <time>2020-05-16T11:08:27Z</time>
      </trkpt>
      <trkpt lat="47.29946" lon="-1.48628">
        <ele>23.33</ele>
        <time>2020-05-16T11:08:29Z</time>
      </trkpt>
      <trkpt lat="47.2996" lon="-1.48627">
        <ele>22.7</ele>
        <time>2020-05-16T11:08:31Z</time>
      </trkpt>
      <trkpt lat="47.29974" lon="-1.48626">
        <ele>22.17</ele>
        <time>2020-05-16T11:08:33Z</time>
      </trkpt>
      <trkpt lat="47.29983" lon="-1.48621">
        <ele>22.98</ele>
        <time>2020-05-16T11:08:35Z</time>
      </trkpt>
      <trkpt lat="47.29998" lon="-1.48618">
        <ele>23.38</ele>
        <time>2020-05-16T11:08:37Z</time>
      </trkpt>
      <trkpt lat="47.30014" lon="-1.48617">
        <ele>22.58</ele>
        <time>2020-05-16T11:08:39Z</time>
      </trkpt>
      <trkpt lat="47.30027" lon="-1.48614">
        <ele>22.32</ele>
        <time>2020-05-16T11:08:41Z</time>
      </trkpt>
      <trkpt lat="47.30041" lon="-1.48612">
        <ele>21.74</ele>
        <time>2020-05-16T11:08:43Z</time>
      </trkpt>
      <trkpt lat="47.30058" lon="-1.48609">
        <ele>21.17</ele>
        <time>2020-05-16T11:08:45Z</time>
      </trkpt>
      <trkpt lat="47.30072" lon="-1.48604">
        <ele>21.17</ele>
        <time>2020-05-16T11:08:47Z</time>
      </trkpt>
      <trkpt lat="47.30087" lon="-1.48598">
        <ele>20.34</ele>
        <time>2020-05-16T11:08:49Z</time>
      </trkpt>
      <trkpt lat="47.30102" lon="-1.48593">
        <ele>19.2</ele>
        <time>2020-05-16T11:08:51Z</time>
      </trkpt>
      <trkpt lat="47.30117" lon="-1.48587">
        <ele>18.5</ele>
        <time>2020-05-16T11:08:53Z</time>
      </trkpt>
      <trkpt lat="47.30126" lon="-1.48583">
        <ele>18.4</ele>
        <time>2020-05-16T11:08:54Z</time>
      </trkpt>
      <trkpt lat="47.30138" lon="-1.48578">
        <ele>17.9</ele>
        <time>2020-05-16T11:08:56Z</time>
      </trkpt>
      <trkpt lat="47.3015" lon="-1.48574">
        <ele>18.25</ele>
        <time>2020-05-16T11:08:58Z</time>
      </trkpt>
      <trkpt lat="47.30163" lon="-1.48567">
        <ele>18.77</ele>
        <time>2020-05-16T11:09:00Z</time>
      </trkpt>
      <trkpt lat="47.30177" lon="-1.4856">
        <ele>18.71</ele>
        <time>2020-05-16T11:09:02Z</time>
      </trkpt>
      <trkpt lat="47.30191" lon="-1.48554">
        <ele>19.2</ele>
        <time>2020-05-16T11:09:04Z</time>
      </trkpt>
      <trkpt lat="47.30206" lon="-1.48546">
        <ele>18.96</ele>
        <time>2020-05-16T11:09:06Z</time>
      </trkpt>
      <trkpt lat="47.30218" lon="-1.4854">
        <ele>17.9</ele>
        <time>2020-05-16T11:09:08Z</time>
      </trkpt>
      <trkpt lat="47.30234" lon="-1.48531">
        <ele>17.09</ele>
        <time>2020-05-16T11:09:10Z</time>
      </trkpt>
      <trkpt lat="47.30248" lon="-1.48523">
        <ele>15.67</ele>
        <time>2020-05-16T11:09:12Z</time>
      </trkpt>
      <trkpt lat="47.30261" lon="-1.48514">
        <ele>14.68</ele>
        <time>2020-05-16T11:09:14Z</time>
      </trkpt>
      <trkpt lat="47.30271" lon="-1.48506">
        <ele>14.25</ele>
        <time>2020-05-16T11:09:16Z</time>
      </trkpt>
      <trkpt lat="47.30283" lon="-1.48497">
        <ele>13.56</ele>
        <time>2020-05-16T11:09:18Z</time>
      </trkpt>
      <trkpt lat="47.30294" lon="-1.48488">
        <ele>13.54</ele>
        <time>2020-05-16T11:09:20Z</time>
      </trkpt>
      <trkpt lat="47.30305" lon="-1.48479">
        <ele>13.47</ele>
        <time>2020-05-16T11:09:22Z</time>
      </trkpt>
      <trkpt lat="47.30314" lon="-1.48472">
        <ele>13.74</ele>
        <time>2020-05-16T11:09:24Z</time>
      </trkpt>
      <trkpt lat="47.30325" lon="-1.48464">
        <ele>14.97</ele>
        <time>2020-05-16T11:09:26Z</time>
      </trkpt>
      <trkpt lat="47.30337" lon="-1.48455">
        <ele>15.17</ele>
        <time>2020-05-16T11:09:28Z</time>
      </trkpt>
      <trkpt lat="47.30347" lon="-1.48447">
        <ele>15.37</ele>
        <time>2020-05-16T11:09:30Z</time>
      </trkpt>
      <trkpt lat="47.30356" lon="-1.48443">
        <ele>14.93</ele>
        <time>2020-05-16T11:09:32Z</time>
      </trkpt>
      <trkpt lat="47.30362" lon="-1.48432">
        <ele>14.75</ele>
        <time>2020-05-16T11:09:35Z</time>
      </trkpt>
      <trkpt lat="47.30371" lon="-1.48425">
        <ele>13.93</ele>
        <time>2020-05-16T11:09:37Z</time>
      </trkpt>
      <trkpt lat="47.30382" lon="-1.48419">
        <ele>13.84</ele>
        <time>2020-05-16T11:09:41Z</time>
      </trkpt>
      <trkpt lat="47.30391" lon="-1.48409">
        <ele>14.8</ele>
        <time>2020-05-16T11:09:43Z</time>
      </trkpt>
      <trkpt lat="47.304" lon="-1.48399">
        <ele>15.41</ele>
        <time>2020-05-16T11:09:45Z</time>
      </trkpt>
      <trkpt lat="47.30412" lon="-1.48386">
        <ele>15.14</ele>
        <time>2020-05-16T11:09:47Z</time>
      </trkpt>
      <trkpt lat="47.30423" lon="-1.48375">
        <ele>14.54</ele>
        <time>2020-05-16T11:09:49Z</time>
      </trkpt>
      <trkpt lat="47.30433" lon="-1.48364">
        <ele>14.43</ele>
        <time>2020-05-16T11:09:51Z</time>
      </trkpt>
      <trkpt lat="47.30447" lon="-1.48351">
        <ele>14.55</ele>
        <time>2020-05-16T11:09:53Z</time>
      </trkpt>
      <trkpt lat="47.30458" lon="-1.48338">
        <ele>14.87</ele>
        <time>2020-05-16T11:09:55Z</time>
      </trkpt>
      <trkpt lat="47.30469" lon="-1.48326">
        <ele>14.79</ele>
        <time>2020-05-16T11:09:57Z</time>
      </trkpt>
      <trkpt lat="47.30479" lon="-1.48313">
        <ele>14.26</ele>
        <time>2020-05-16T11:09:59Z</time>
      </trkpt>
      <trkpt lat="47.30489" lon="-1.48298">
        <ele>13.88</ele>
        <time>2020-05-16T11:10:01Z</time>
      </trkpt>
      <trkpt lat="47.305" lon="-1.48283">
        <ele>13.54</ele>
        <time>2020-05-16T11:10:03Z</time>
      </trkpt>
      <trkpt lat="47.3051" lon="-1.4827">
        <ele>12.72</ele>
        <time>2020-05-16T11:10:05Z</time>
      </trkpt>
      <trkpt lat="47.30521" lon="-1.48255">
        <ele>11.62</ele>
        <time>2020-05-16T11:10:07Z</time>
      </trkpt>
      <trkpt lat="47.30531" lon="-1.4824">
        <ele>11.29</ele>
        <time>2020-05-16T11:10:09Z</time>
      </trkpt>
      <trkpt lat="47.30539" lon="-1.48225">
        <ele>11.85</ele>
        <time>2020-05-16T11:10:11Z</time>
      </trkpt>
      <trkpt lat="47.30549" lon="-1.48207">
        <ele>13.29</ele>
        <time>2020-05-16T11:10:13Z</time>
      </trkpt>
      <trkpt lat="47.30557" lon="-1.48191">
        <ele>13.67</ele>
        <time>2020-05-16T11:10:15Z</time>
      </trkpt>
      <trkpt lat="47.30568" lon="-1.48173">
        <ele>13.9</ele>
        <time>2020-05-16T11:10:17Z</time>
      </trkpt>
      <trkpt lat="47.30577" lon="-1.48158">
        <ele>13.66</ele>
        <time>2020-05-16T11:10:19Z</time>
      </trkpt>
      <trkpt lat="47.30586" lon="-1.48143">
        <ele>13.29</ele>
        <time>2020-05-16T11:10:21Z</time>
      </trkpt>
      <trkpt lat="47.30596" lon="-1.48127">
        <ele>13.08</ele>
        <time>2020-05-16T11:10:23Z</time>
      </trkpt>
      <trkpt lat="47.30604" lon="-1.48112">
        <ele>13</ele>
        <time>2020-05-16T11:10:25Z</time>
      </trkpt>
      <trkpt lat="47.30614" lon="-1.48097">
        <ele>13.39</ele>
        <time>2020-05-16T11:10:27Z</time>
      </trkpt>
      <trkpt lat="47.30624" lon="-1.48084">
        <ele>13.66</ele>
        <time>2020-05-16T11:10:29Z</time>
      </trkpt>
      <trkpt lat="47.30635" lon="-1.48082">
        <ele>13.57</ele>
        <time>2020-05-16T11:10:31Z</time>
      </trkpt>
      <trkpt lat="47.30652" lon="-1.48089">
        <ele>13.31</ele>
        <time>2020-05-16T11:10:33Z</time>
      </trkpt>
      <trkpt lat="47.30666" lon="-1.48099">
        <ele>12.74</ele>
        <time>2020-05-16T11:10:35Z</time>
      </trkpt>
      <trkpt lat="47.30679" lon="-1.48111">
        <ele>11.63</ele>
        <time>2020-05-16T11:10:37Z</time>
      </trkpt>
      <trkpt lat="47.30691" lon="-1.48124">
        <ele>10.77</ele>
        <time>2020-05-16T11:10:39Z</time>
      </trkpt>
      <trkpt lat="47.307" lon="-1.48134">
        <ele>10.84</ele>
        <time>2020-05-16T11:10:41Z</time>
      </trkpt>
      <trkpt lat="47.30709" lon="-1.48144">
        <ele>10.78</ele>
        <time>2020-05-16T11:10:43Z</time>
      </trkpt>
      <trkpt lat="47.30718" lon="-1.48156">
        <ele>10.43</ele>
        <time>2020-05-16T11:10:45Z</time>
      </trkpt>
      <trkpt lat="47.30724" lon="-1.4817">
        <ele>9.86</ele>
        <time>2020-05-16T11:10:47Z</time>
      </trkpt>
      <trkpt lat="47.30726" lon="-1.48184">
        <ele>9.29</ele>
        <time>2020-05-16T11:10:49Z</time>
      </trkpt>
      <trkpt lat="47.30727" lon="-1.48199">
        <ele>8.88</ele>
        <time>2020-05-16T11:10:51Z</time>
      </trkpt>
      <trkpt lat="47.30733" lon="-1.48214">
        <ele>9.43</ele>
        <time>2020-05-16T11:10:53Z</time>
      </trkpt>
      <trkpt lat="47.30743" lon="-1.48214">
        <ele>10.06</ele>
        <time>2020-05-16T11:10:55Z</time>
      </trkpt>
      <trkpt lat="47.30753" lon="-1.48202">
        <ele>7.64</ele>
        <time>2020-05-16T11:10:58Z</time>
      </trkpt>
      <trkpt lat="47.30761" lon="-1.4819">
        <ele>7.91</ele>
        <time>2020-05-16T11:11:00Z</time>
      </trkpt>
      <trkpt lat="47.30762" lon="-1.48173">
        <ele>9.49</ele>
        <time>2020-05-16T11:11:03Z</time>
      </trkpt>
      <trkpt lat="47.30754" lon="-1.48166">
        <ele>10.19</ele>
        <time>2020-05-16T11:11:05Z</time>
      </trkpt>
      <trkpt lat="47.30744" lon="-1.4816">
        <ele>11.11</ele>
        <time>2020-05-16T11:11:07Z</time>
      </trkpt>
      <trkpt lat="47.30734" lon="-1.48155">
        <ele>12</ele>
        <time>2020-05-16T11:11:09Z</time>
      </trkpt>
      <trkpt lat="47.30736" lon="-1.48171">
        <ele>12.37</ele>
        <time>2020-05-16T11:11:13Z</time>
      </trkpt>
      <trkpt lat="47.30744" lon="-1.48184">
        <ele>12.86</ele>
        <time>2020-05-16T11:11:15Z</time>
      </trkpt>
      <trkpt lat="47.3075" lon="-1.48194">
        <ele>12.85</ele>
        <time>2020-05-16T11:11:17Z</time>
      </trkpt>
      <trkpt lat="47.30756" lon="-1.48206">
        <ele>12.59</ele>
        <time>2020-05-16T11:11:19Z</time>
      </trkpt>
      <trkpt lat="47.30765" lon="-1.48217">
        <ele>13.35</ele>
        <time>2020-05-16T11:11:22Z</time>
      </trkpt>
      <trkpt lat="47.30773" lon="-1.48205">
        <ele>14.19</ele>
        <time>2020-05-16T11:11:25Z</time>
      </trkpt>
      <trkpt lat="47.30777" lon="-1.48189">
        <ele>14.6</ele>
        <time>2020-05-16T11:11:27Z</time>
      </trkpt>
      <trkpt lat="47.30781" lon="-1.48173">
        <ele>14.45</ele>
        <time>2020-05-16T11:11:29Z</time>
      </trkpt>
      <trkpt lat="47.30784" lon="-1.48158">
        <ele>14.43</ele>
        <time>2020-05-16T11:11:31Z</time>
      </trkpt>
      <trkpt lat="47.30788" lon="-1.48142">
        <ele>14.85</ele>
        <time>2020-05-16T11:11:33Z</time>
      </trkpt>
      <trkpt lat="47.30793" lon="-1.48122">
        <ele>14.78</ele>
        <time>2020-05-16T11:11:35Z</time>
      </trkpt>
      <trkpt lat="47.30799" lon="-1.48103">
        <ele>14.06</ele>
        <time>2020-05-16T11:11:37Z</time>
      </trkpt>
      <trkpt lat="47.30803" lon="-1.48085">
        <ele>13.35</ele>
        <time>2020-05-16T11:11:39Z</time>
      </trkpt>
      <trkpt lat="47.30806" lon="-1.48069">
        <ele>13.28</ele>
        <time>2020-05-16T11:11:41Z</time>
      </trkpt>
      <trkpt lat="47.30808" lon="-1.48048">
        <ele>12.53</ele>
        <time>2020-05-16T11:11:43Z</time>
      </trkpt>
      <trkpt lat="47.30806" lon="-1.4803">
        <ele>12.21</ele>
        <time>2020-05-16T11:11:45Z</time>
      </trkpt>
      <trkpt lat="47.3081" lon="-1.48014">
        <ele>11.68</ele>
        <time>2020-05-16T11:11:47Z</time>
      </trkpt>
      <trkpt lat="47.30822" lon="-1.48011">
        <ele>10.9</ele>
        <time>2020-05-16T11:11:49Z</time>
      </trkpt>
      <trkpt lat="47.30834" lon="-1.48021">
        <ele>11.25</ele>
        <time>2020-05-16T11:11:51Z</time>
      </trkpt>
      <trkpt lat="47.3084" lon="-1.48039">
        <ele>12.19</ele>
        <time>2020-05-16T11:11:53Z</time>
      </trkpt>
      <trkpt lat="47.30847" lon="-1.48057">
        <ele>13.04</ele>
        <time>2020-05-16T11:11:55Z</time>
      </trkpt>
      <trkpt lat="47.30858" lon="-1.48072">
        <ele>13.18</ele>
        <time>2020-05-16T11:11:57Z</time>
      </trkpt>
      <trkpt lat="47.30868" lon="-1.48082">
        <ele>13.08</ele>
        <time>2020-05-16T11:11:59Z</time>
      </trkpt>
      <trkpt lat="47.30879" lon="-1.48093">
        <ele>12.62</ele>
        <time>2020-05-16T11:12:01Z</time>
      </trkpt>
      <trkpt lat="47.30894" lon="-1.48105">
        <ele>12.73</ele>
        <time>2020-05-16T11:12:03Z</time>
      </trkpt>
      <trkpt lat="47.30907" lon="-1.48113">
        <ele>11.99</ele>
        <time>2020-05-16T11:12:05Z</time>
      </trkpt>
      <trkpt lat="47.3092" lon="-1.48119">
        <ele>11.09</ele>
        <time>2020-05-16T11:12:07Z</time>
      </trkpt>
      <trkpt lat="47.30935" lon="-1.48125">
        <ele>10.3</ele>
        <time>2020-05-16T11:12:09Z</time>
      </trkpt>
      <trkpt lat="47.30949" lon="-1.48125">
        <ele>9.34</ele>
        <time>2020-05-16T11:12:11Z</time>
      </trkpt>
      <trkpt lat="47.30962" lon="-1.48125">
        <ele>8.88</ele>
        <time>2020-05-16T11:12:13Z</time>
      </trkpt>
      <trkpt lat="47.30977" lon="-1.4813">
        <ele>8.48</ele>
        <time>2020-05-16T11:12:15Z</time>
      </trkpt>
      <trkpt lat="47.30989" lon="-1.48134">
        <ele>8.69</ele>
        <time>2020-05-16T11:12:17Z</time>
      </trkpt>
      <trkpt lat="47.31001" lon="-1.48135">
        <ele>8.89</ele>
        <time>2020-05-16T11:12:19Z</time>
      </trkpt>
      <trkpt lat="47.31016" lon="-1.48134">
        <ele>8.44</ele>
        <time>2020-05-16T11:12:21Z</time>
      </trkpt>
      <trkpt lat="47.31029" lon="-1.4813">
        <ele>8.68</ele>
        <time>2020-05-16T11:12:23Z</time>
      </trkpt>
      <trkpt lat="47.31043" lon="-1.48124">
        <ele>8.22</ele>
        <time>2020-05-16T11:12:25Z</time>
      </trkpt>
      <trkpt lat="47.31056" lon="-1.48118">
        <ele>8.79</ele>
        <time>2020-05-16T11:12:27Z</time>
      </trkpt>
      <trkpt lat="47.31071" lon="-1.48111">
        <ele>8.87</ele>
        <time>2020-05-16T11:12:29Z</time>
      </trkpt>
      <trkpt lat="47.31084" lon="-1.48104">
        <ele>8.54</ele>
        <time>2020-05-16T11:12:31Z</time>
      </trkpt>
      <trkpt lat="47.31096" lon="-1.48096">
        <ele>8.27</ele>
        <time>2020-05-16T11:12:33Z</time>
      </trkpt>
      <trkpt lat="47.31109" lon="-1.48089">
        <ele>8.67</ele>
        <time>2020-05-16T11:12:35Z</time>
      </trkpt>
      <trkpt lat="47.3112" lon="-1.48083">
        <ele>8.72</ele>
        <time>2020-05-16T11:12:37Z</time>
      </trkpt>
      <trkpt lat="47.3113" lon="-1.48078">
        <ele>9.26</ele>
        <time>2020-05-16T11:12:39Z</time>
      </trkpt>
      <trkpt lat="47.31142" lon="-1.48071">
        <ele>9.24</ele>
        <time>2020-05-16T11:12:41Z</time>
      </trkpt>
      <trkpt lat="47.31153" lon="-1.48065">
        <ele>9.1</ele>
        <time>2020-05-16T11:12:43Z</time>
      </trkpt>
      <trkpt lat="47.31165" lon="-1.48059">
        <ele>8.86</ele>
        <time>2020-05-16T11:12:45Z</time>
      </trkpt>
      <trkpt lat="47.31178" lon="-1.48052">
        <ele>9.05</ele>
        <time>2020-05-16T11:12:47Z</time>
      </trkpt>
      <trkpt lat="47.3119" lon="-1.48045">
        <ele>9.64</ele>
        <time>2020-05-16T11:12:49Z</time>
      </trkpt>
      <trkpt lat="47.31199" lon="-1.48039">
        <ele>10.18</ele>
        <time>2020-05-16T11:12:51Z</time>
      </trkpt>
      <trkpt lat="47.31208" lon="-1.48033">
        <ele>10.27</ele>
        <time>2020-05-16T11:12:53Z</time>
      </trkpt>
      <trkpt lat="47.31219" lon="-1.48027">
        <ele>10.71</ele>
        <time>2020-05-16T11:12:55Z</time>
      </trkpt>
      <trkpt lat="47.31229" lon="-1.4802">
        <ele>11.26</ele>
        <time>2020-05-16T11:12:57Z</time>
      </trkpt>
      <trkpt lat="47.31241" lon="-1.48013">
        <ele>10.72</ele>
        <time>2020-05-16T11:12:59Z</time>
      </trkpt>
      <trkpt lat="47.31252" lon="-1.48006">
        <ele>10.56</ele>
        <time>2020-05-16T11:13:01Z</time>
      </trkpt>
      <trkpt lat="47.31263" lon="-1.48">
        <ele>10.01</ele>
        <time>2020-05-16T11:13:03Z</time>
      </trkpt>
      <trkpt lat="47.31274" lon="-1.47995">
        <ele>9.95</ele>
        <time>2020-05-16T11:13:05Z</time>
      </trkpt>
      <trkpt lat="47.31287" lon="-1.47988">
        <ele>11.07</ele>
        <time>2020-05-16T11:13:07Z</time>
      </trkpt>
      <trkpt lat="47.31299" lon="-1.47981">
        <ele>11.21</ele>
        <time>2020-05-16T11:13:09Z</time>
      </trkpt>
      <trkpt lat="47.31312" lon="-1.47973">
        <ele>10.14</ele>
        <time>2020-05-16T11:13:11Z</time>
      </trkpt>
      <trkpt lat="47.31324" lon="-1.47967">
        <ele>9.75</ele>
        <time>2020-05-16T11:13:13Z</time>
      </trkpt>
      <trkpt lat="47.31338" lon="-1.47959">
        <ele>10.33</ele>
        <time>2020-05-16T11:13:15Z</time>
      </trkpt>
      <trkpt lat="47.31352" lon="-1.47952">
        <ele>10.61</ele>
        <time>2020-05-16T11:13:17Z</time>
      </trkpt>
      <trkpt lat="47.31365" lon="-1.47944">
        <ele>9.91</ele>
        <time>2020-05-16T11:13:19Z</time>
      </trkpt>
      <trkpt lat="47.31379" lon="-1.47937">
        <ele>9.57</ele>
        <time>2020-05-16T11:13:21Z</time>
      </trkpt>
      <trkpt lat="47.31391" lon="-1.4793">
        <ele>9.5</ele>
        <time>2020-05-16T11:13:23Z</time>
      </trkpt>
      <trkpt lat="47.31403" lon="-1.47922">
        <ele>9.57</ele>
        <time>2020-05-16T11:13:25Z</time>
      </trkpt>
      <trkpt lat="47.31413" lon="-1.47915">
        <ele>10.09</ele>
        <time>2020-05-16T11:13:27Z</time>
      </trkpt>
      <trkpt lat="47.31424" lon="-1.47908">
        <ele>9.91</ele>
        <time>2020-05-16T11:13:29Z</time>
      </trkpt>
      <trkpt lat="47.31435" lon="-1.47901">
        <ele>9.61</ele>
        <time>2020-05-16T11:13:31Z</time>
      </trkpt>
      <trkpt lat="47.31446" lon="-1.47894">
        <ele>8.69</ele>
        <time>2020-05-16T11:13:33Z</time>
      </trkpt>
      <trkpt lat="47.31456" lon="-1.47887">
        <ele>8.03</ele>
        <time>2020-05-16T11:13:35Z</time>
      </trkpt>
      <trkpt lat="47.31465" lon="-1.47882">
        <ele>7.47</ele>
        <time>2020-05-16T11:13:37Z</time>
      </trkpt>
      <trkpt lat="47.31473" lon="-1.47877">
        <ele>8.34</ele>
        <time>2020-05-16T11:13:39Z</time>
      </trkpt>
      <trkpt lat="47.31484" lon="-1.47871">
        <ele>9.67</ele>
        <time>2020-05-16T11:13:41Z</time>
      </trkpt>
      <trkpt lat="47.31494" lon="-1.47865">
        <ele>10.5</ele>
        <time>2020-05-16T11:13:43Z</time>
      </trkpt>
      <trkpt lat="47.31506" lon="-1.4786">
        <ele>10.74</ele>
        <time>2020-05-16T11:13:45Z</time>
      </trkpt>
      <trkpt lat="47.31516" lon="-1.47854">
        <ele>10.43</ele>
        <time>2020-05-16T11:13:48Z</time>
      </trkpt>
      <trkpt lat="47.31526" lon="-1.4785">
        <ele>10.19</ele>
        <time>2020-05-16T11:13:49Z</time>
      </trkpt>
      <trkpt lat="47.31538" lon="-1.47846">
        <ele>10.16</ele>
        <time>2020-05-16T11:13:52Z</time>
      </trkpt>
      <trkpt lat="47.3155" lon="-1.47843">
        <ele>9.73</ele>
        <time>2020-05-16T11:13:54Z</time>
      </trkpt>
      <trkpt lat="47.31563" lon="-1.4784">
        <ele>9.19</ele>
        <time>2020-05-16T11:13:56Z</time>
      </trkpt>
      <trkpt lat="47.31576" lon="-1.47838">
        <ele>8.7</ele>
        <time>2020-05-16T11:13:58Z</time>
      </trkpt>
      <trkpt lat="47.3159" lon="-1.47837">
        <ele>7.81</ele>
        <time>2020-05-16T11:14:00Z</time>
      </trkpt>
      <trkpt lat="47.31605" lon="-1.47835">
        <ele>7.37</ele>
        <time>2020-05-16T11:14:02Z</time>
      </trkpt>
      <trkpt lat="47.31619" lon="-1.47833">
        <ele>7.64</ele>
        <time>2020-05-16T11:14:04Z</time>
      </trkpt>
      <trkpt lat="47.31632" lon="-1.47833">
        <ele>7.27</ele>
        <time>2020-05-16T11:14:06Z</time>
      </trkpt>
      <trkpt lat="47.31646" lon="-1.47831">
        <ele>6.65</ele>
        <time>2020-05-16T11:14:08Z</time>
      </trkpt>
      <trkpt lat="47.31657" lon="-1.47818">
        <ele>6.31</ele>
        <time>2020-05-16T11:14:10Z</time>
      </trkpt>
      <trkpt lat="47.31662" lon="-1.47799">
        <ele>6.11</ele>
        <time>2020-05-16T11:14:12Z</time>
      </trkpt>
      <trkpt lat="47.31663" lon="-1.47778">
        <ele>6.19</ele>
        <time>2020-05-16T11:14:14Z</time>
      </trkpt>
      <trkpt lat="47.31663" lon="-1.47755">
        <ele>6.22</ele>
        <time>2020-05-16T11:14:16Z</time>
      </trkpt>
      <trkpt lat="47.31663" lon="-1.47734">
        <ele>6.81</ele>
        <time>2020-05-16T11:14:18Z</time>
      </trkpt>
      <trkpt lat="47.31663" lon="-1.47713">
        <ele>7.36</ele>
        <time>2020-05-16T11:14:20Z</time>
      </trkpt>
      <trkpt lat="47.31664" lon="-1.47694">
        <ele>7.58</ele>
        <time>2020-05-16T11:14:22Z</time>
      </trkpt>
      <trkpt lat="47.31665" lon="-1.4768">
        <ele>6.74</ele>
        <time>2020-05-16T11:14:24Z</time>
      </trkpt>
      <trkpt lat="47.31669" lon="-1.4766">
        <ele>5.09</ele>
        <time>2020-05-16T11:14:26Z</time>
      </trkpt>
      <trkpt lat="47.31677" lon="-1.47645">
        <ele>4.47</ele>
        <time>2020-05-16T11:14:28Z</time>
      </trkpt>
      <trkpt lat="47.31687" lon="-1.47629">
        <ele>4.5</ele>
        <time>2020-05-16T11:14:30Z</time>
      </trkpt>
      <trkpt lat="47.31698" lon="-1.47614">
        <ele>5.43</ele>
        <time>2020-05-16T11:14:32Z</time>
      </trkpt>
      <trkpt lat="47.31708" lon="-1.47602">
        <ele>6.12</ele>
        <time>2020-05-16T11:14:34Z</time>
      </trkpt>
      <trkpt lat="47.31719" lon="-1.47589">
        <ele>6.78</ele>
        <time>2020-05-16T11:14:36Z</time>
      </trkpt>
      <trkpt lat="47.3173" lon="-1.47576">
        <ele>6.57</ele>
        <time>2020-05-16T11:14:38Z</time>
      </trkpt>
      <trkpt lat="47.31738" lon="-1.47564">
        <ele>6.74</ele>
        <time>2020-05-16T11:14:40Z</time>
      </trkpt>
      <trkpt lat="47.31748" lon="-1.47551">
        <ele>7.81</ele>
        <time>2020-05-16T11:14:42Z</time>
      </trkpt>
      <trkpt lat="47.31758" lon="-1.47536">
        <ele>7.89</ele>
        <time>2020-05-16T11:14:44Z</time>
      </trkpt>
      <trkpt lat="47.31768" lon="-1.47524">
        <ele>8.21</ele>
        <time>2020-05-16T11:14:46Z</time>
      </trkpt>
      <trkpt lat="47.31778" lon="-1.4751">
        <ele>8.27</ele>
        <time>2020-05-16T11:14:48Z</time>
      </trkpt>
      <trkpt lat="47.31789" lon="-1.47498">
        <ele>8.26</ele>
        <time>2020-05-16T11:14:50Z</time>
      </trkpt>
      <trkpt lat="47.31799" lon="-1.47484">
        <ele>8.33</ele>
        <time>2020-05-16T11:14:52Z</time>
      </trkpt>
      <trkpt lat="47.31809" lon="-1.4747">
        <ele>8.46</ele>
        <time>2020-05-16T11:14:54Z</time>
      </trkpt>
      <trkpt lat="47.31819" lon="-1.47456">
        <ele>8.52</ele>
        <time>2020-05-16T11:14:56Z</time>
      </trkpt>
      <trkpt lat="47.3183" lon="-1.47443">
        <ele>8.71</ele>
        <time>2020-05-16T11:14:58Z</time>
      </trkpt>
      <trkpt lat="47.3184" lon="-1.47429">
        <ele>8.77</ele>
        <time>2020-05-16T11:15:00Z</time>
      </trkpt>
      <trkpt lat="47.3185" lon="-1.47415">
        <ele>8.22</ele>
        <time>2020-05-16T11:15:02Z</time>
      </trkpt>
      <trkpt lat="47.3186" lon="-1.47401">
        <ele>7.88</ele>
        <time>2020-05-16T11:15:04Z</time>
      </trkpt>
      <trkpt lat="47.3187" lon="-1.47388">
        <ele>7.42</ele>
        <time>2020-05-16T11:15:06Z</time>
      </trkpt>
      <trkpt lat="47.3188" lon="-1.47376">
        <ele>7.19</ele>
        <time>2020-05-16T11:15:08Z</time>
      </trkpt>
      <trkpt lat="47.3189" lon="-1.47363">
        <ele>6.39</ele>
        <time>2020-05-16T11:15:10Z</time>
      </trkpt>
      <trkpt lat="47.319" lon="-1.47351">
        <ele>6.15</ele>
        <time>2020-05-16T11:15:12Z</time>
      </trkpt>
      <trkpt lat="47.31909" lon="-1.47336">
        <ele>5.92</ele>
        <time>2020-05-16T11:15:14Z</time>
      </trkpt>
      <trkpt lat="47.31919" lon="-1.47319">
        <ele>5.91</ele>
        <time>2020-05-16T11:15:16Z</time>
      </trkpt>
      <trkpt lat="47.31928" lon="-1.47304">
        <ele>6.28</ele>
        <time>2020-05-16T11:15:18Z</time>
      </trkpt>
      <trkpt lat="47.31935" lon="-1.47291">
        <ele>6.38</ele>
        <time>2020-05-16T11:15:20Z</time>
      </trkpt>
      <trkpt lat="47.31944" lon="-1.47274">
        <ele>6.04</ele>
        <time>2020-05-16T11:15:22Z</time>
      </trkpt>
      <trkpt lat="47.3195" lon="-1.47261">
        <ele>6.13</ele>
        <time>2020-05-16T11:15:24Z</time>
      </trkpt>
      <trkpt lat="47.31956" lon="-1.47245">
        <ele>6.1</ele>
        <time>2020-05-16T11:15:26Z</time>
      </trkpt>
      <trkpt lat="47.31963" lon="-1.4723">
        <ele>6.51</ele>
        <time>2020-05-16T11:15:28Z</time>
      </trkpt>
      <trkpt lat="47.3197" lon="-1.47214">
        <ele>6.72</ele>
        <time>2020-05-16T11:15:30Z</time>
      </trkpt>
      <trkpt lat="47.31977" lon="-1.47197">
        <ele>7.08</ele>
        <time>2020-05-16T11:15:32Z</time>
      </trkpt>
      <trkpt lat="47.31985" lon="-1.47179">
        <ele>6.79</ele>
        <time>2020-05-16T11:15:34Z</time>
      </trkpt>
      <trkpt lat="47.31992" lon="-1.47164">
        <ele>6.08</ele>
        <time>2020-05-16T11:15:36Z</time>
      </trkpt>
      <trkpt lat="47.31999" lon="-1.47148">
        <ele>6.61</ele>
        <time>2020-05-16T11:15:38Z</time>
      </trkpt>
      <trkpt lat="47.32005" lon="-1.47133">
        <ele>6.32</ele>
        <time>2020-05-16T11:15:40Z</time>
      </trkpt>
      <trkpt lat="47.32012" lon="-1.47116">
        <ele>6.54</ele>
        <time>2020-05-16T11:15:42Z</time>
      </trkpt>
      <trkpt lat="47.32019" lon="-1.47101">
        <ele>7.53</ele>
        <time>2020-05-16T11:15:44Z</time>
      </trkpt>
      <trkpt lat="47.32025" lon="-1.47088">
        <ele>7.82</ele>
        <time>2020-05-16T11:15:46Z</time>
      </trkpt>
      <trkpt lat="47.32031" lon="-1.47075">
        <ele>8.63</ele>
        <time>2020-05-16T11:15:48Z</time>
      </trkpt>
      <trkpt lat="47.32039" lon="-1.47063">
        <ele>10.31</ele>
        <time>2020-05-16T11:15:50Z</time>
      </trkpt>
      <trkpt lat="47.32047" lon="-1.47052">
        <ele>10.8</ele>
        <time>2020-05-16T11:15:52Z</time>
      </trkpt>
      <trkpt lat="47.32057" lon="-1.47039">
        <ele>11.85</ele>
        <time>2020-05-16T11:15:54Z</time>
      </trkpt>
      <trkpt lat="47.32066" lon="-1.4703">
        <ele>11.97</ele>
        <time>2020-05-16T11:15:56Z</time>
      </trkpt>
      <trkpt lat="47.32077" lon="-1.47021">
        <ele>11.47</ele>
        <time>2020-05-16T11:15:58Z</time>
      </trkpt>
      <trkpt lat="47.32088" lon="-1.47012">
        <ele>11.81</ele>
        <time>2020-05-16T11:16:00Z</time>
      </trkpt>
      <trkpt lat="47.32099" lon="-1.47005">
        <ele>12.32</ele>
        <time>2020-05-16T11:16:02Z</time>
      </trkpt>
      <trkpt lat="47.3211" lon="-1.46999">
        <ele>12.98</ele>
        <time>2020-05-16T11:16:04Z</time>
      </trkpt>
      <trkpt lat="47.32122" lon="-1.46992">
        <ele>14</ele>
        <time>2020-05-16T11:16:06Z</time>
      </trkpt>
      <trkpt lat="47.32134" lon="-1.46984">
        <ele>15.5</ele>
        <time>2020-05-16T11:16:08Z</time>
      </trkpt>
      <trkpt lat="47.32145" lon="-1.46977">
        <ele>15.66</ele>
        <time>2020-05-16T11:16:10Z</time>
      </trkpt>
      <trkpt lat="47.32156" lon="-1.46969">
        <ele>14.22</ele>
        <time>2020-05-16T11:16:12Z</time>
      </trkpt>
      <trkpt lat="47.32168" lon="-1.4696">
        <ele>13.45</ele>
        <time>2020-05-16T11:16:14Z</time>
      </trkpt>
      <trkpt lat="47.32178" lon="-1.46952">
        <ele>13.3</ele>
        <time>2020-05-16T11:16:16Z</time>
      </trkpt>
      <trkpt lat="47.32188" lon="-1.46945">
        <ele>13.37</ele>
        <time>2020-05-16T11:16:18Z</time>
      </trkpt>
      <trkpt lat="47.32199" lon="-1.46936">
        <ele>12.51</ele>
        <time>2020-05-16T11:16:20Z</time>
      </trkpt>
      <trkpt lat="47.32208" lon="-1.46929">
        <ele>12.17</ele>
        <time>2020-05-16T11:16:22Z</time>
      </trkpt>
      <trkpt lat="47.32219" lon="-1.46919">
        <ele>13.08</ele>
        <time>2020-05-16T11:16:24Z</time>
      </trkpt>
      <trkpt lat="47.3223" lon="-1.46908">
        <ele>13.55</ele>
        <time>2020-05-16T11:16:26Z</time>
      </trkpt>
      <trkpt lat="47.32239" lon="-1.46899">
        <ele>14.93</ele>
        <time>2020-05-16T11:16:28Z</time>
      </trkpt>
      <trkpt lat="47.3225" lon="-1.46887">
        <ele>16.32</ele>
        <time>2020-05-16T11:16:30Z</time>
      </trkpt>
      <trkpt lat="47.3226" lon="-1.46877">
        <ele>16.26</ele>
        <time>2020-05-16T11:16:32Z</time>
      </trkpt>
      <trkpt lat="47.32271" lon="-1.46865">
        <ele>15.21</ele>
        <time>2020-05-16T11:16:34Z</time>
      </trkpt>
      <trkpt lat="47.32282" lon="-1.46854">
        <ele>14.05</ele>
        <time>2020-05-16T11:16:36Z</time>
      </trkpt>
      <trkpt lat="47.32291" lon="-1.46845">
        <ele>14.17</ele>
        <time>2020-05-16T11:16:38Z</time>
      </trkpt>
      <trkpt lat="47.32301" lon="-1.46836">
        <ele>14.3</ele>
        <time>2020-05-16T11:16:40Z</time>
      </trkpt>
      <trkpt lat="47.32312" lon="-1.46824">
        <ele>14.23</ele>
        <time>2020-05-16T11:16:42Z</time>
      </trkpt>
      <trkpt lat="47.32322" lon="-1.46813">
        <ele>14.77</ele>
        <time>2020-05-16T11:16:44Z</time>
      </trkpt>
      <trkpt lat="47.32331" lon="-1.46804">
        <ele>14.59</ele>
        <time>2020-05-16T11:16:46Z</time>
      </trkpt>
      <trkpt lat="47.32342" lon="-1.46793">
        <ele>13.51</ele>
        <time>2020-05-16T11:16:48Z</time>
      </trkpt>
      <trkpt lat="47.32352" lon="-1.46782">
        <ele>13.57</ele>
        <time>2020-05-16T11:16:50Z</time>
      </trkpt>
      <trkpt lat="47.32362" lon="-1.46772">
        <ele>13.69</ele>
        <time>2020-05-16T11:16:52Z</time>
      </trkpt>
      <trkpt lat="47.32371" lon="-1.46763">
        <ele>14.15</ele>
        <time>2020-05-16T11:16:54Z</time>
      </trkpt>
      <trkpt lat="47.32381" lon="-1.46752">
        <ele>14.51</ele>
        <time>2020-05-16T11:16:56Z</time>
      </trkpt>
      <trkpt lat="47.32392" lon="-1.46741">
        <ele>14.6</ele>
        <time>2020-05-16T11:16:58Z</time>
      </trkpt>
      <trkpt lat="47.32403" lon="-1.46731">
        <ele>14.12</ele>
        <time>2020-05-16T11:17:00Z</time>
      </trkpt>
      <trkpt lat="47.32413" lon="-1.46721">
        <ele>13.9</ele>
        <time>2020-05-16T11:17:02Z</time>
      </trkpt>
      <trkpt lat="47.32424" lon="-1.46711">
        <ele>13.52</ele>
        <time>2020-05-16T11:17:04Z</time>
      </trkpt>
      <trkpt lat="47.32436" lon="-1.467">
        <ele>12.77</ele>
        <time>2020-05-16T11:17:06Z</time>
      </trkpt>
      <trkpt lat="47.32447" lon="-1.4669">
        <ele>12.22</ele>
        <time>2020-05-16T11:17:08Z</time>
      </trkpt>
      <trkpt lat="47.32456" lon="-1.4668">
        <ele>12.72</ele>
        <time>2020-05-16T11:17:10Z</time>
      </trkpt>
      <trkpt lat="47.32466" lon="-1.46669">
        <ele>12.42</ele>
        <time>2020-05-16T11:17:12Z</time>
      </trkpt>
      <trkpt lat="47.32475" lon="-1.46659">
        <ele>12.15</ele>
        <time>2020-05-16T11:17:14Z</time>
      </trkpt>
      <trkpt lat="47.32484" lon="-1.46649">
        <ele>12.6</ele>
        <time>2020-05-16T11:17:16Z</time>
      </trkpt>
      <trkpt lat="47.32493" lon="-1.46641">
        <ele>13.23</ele>
        <time>2020-05-16T11:17:18Z</time>
      </trkpt>
      <trkpt lat="47.32504" lon="-1.46632">
        <ele>13.61</ele>
        <time>2020-05-16T11:17:20Z</time>
      </trkpt>
      <trkpt lat="47.32512" lon="-1.46624">
        <ele>14.53</ele>
        <time>2020-05-16T11:17:22Z</time>
      </trkpt>
      <trkpt lat="47.32522" lon="-1.46614">
        <ele>13.79</ele>
        <time>2020-05-16T11:17:24Z</time>
      </trkpt>
      <trkpt lat="47.32531" lon="-1.46605">
        <ele>14.43</ele>
        <time>2020-05-16T11:17:26Z</time>
      </trkpt>
      <trkpt lat="47.32539" lon="-1.46596">
        <ele>14.52</ele>
        <time>2020-05-16T11:17:28Z</time>
      </trkpt>
      <trkpt lat="47.32548" lon="-1.46588">
        <ele>14.35</ele>
        <time>2020-05-16T11:17:30Z</time>
      </trkpt>
      <trkpt lat="47.32561" lon="-1.46576">
        <ele>15.8</ele>
        <time>2020-05-16T11:17:33Z</time>
      </trkpt>
      <trkpt lat="47.3257" lon="-1.46568">
        <ele>17.01</ele>
        <time>2020-05-16T11:17:35Z</time>
      </trkpt>
      <trkpt lat="47.32582" lon="-1.46557">
        <ele>18.71</ele>
        <time>2020-05-16T11:17:38Z</time>
      </trkpt>
      <trkpt lat="47.32592" lon="-1.46547">
        <ele>19.01</ele>
        <time>2020-05-16T11:17:40Z</time>
      </trkpt>
      <trkpt lat="47.326" lon="-1.46536">
        <ele>18.97</ele>
        <time>2020-05-16T11:17:42Z</time>
      </trkpt>
      <trkpt lat="47.32607" lon="-1.46525">
        <ele>19.01</ele>
        <time>2020-05-16T11:17:44Z</time>
      </trkpt>
      <trkpt lat="47.32613" lon="-1.46514">
        <ele>19.22</ele>
        <time>2020-05-16T11:17:46Z</time>
      </trkpt>
      <trkpt lat="47.32619" lon="-1.46502">
        <ele>19.78</ele>
        <time>2020-05-16T11:17:48Z</time>
      </trkpt>
      <trkpt lat="47.32624" lon="-1.4649">
        <ele>19.86</ele>
        <time>2020-05-16T11:17:50Z</time>
      </trkpt>
      <trkpt lat="47.32629" lon="-1.46477">
        <ele>20.3</ele>
        <time>2020-05-16T11:17:52Z</time>
      </trkpt>
      <trkpt lat="47.32635" lon="-1.46461">
        <ele>22.21</ele>
        <time>2020-05-16T11:17:55Z</time>
      </trkpt>
      <trkpt lat="47.32638" lon="-1.46446">
        <ele>22.58</ele>
        <time>2020-05-16T11:17:57Z</time>
      </trkpt>
      <trkpt lat="47.32641" lon="-1.46431">
        <ele>22.61</ele>
        <time>2020-05-16T11:17:59Z</time>
      </trkpt>
      <trkpt lat="47.32643" lon="-1.46416">
        <ele>22.73</ele>
        <time>2020-05-16T11:18:01Z</time>
      </trkpt>
      <trkpt lat="47.32644" lon="-1.46399">
        <ele>23.31</ele>
        <time>2020-05-16T11:18:03Z</time>
      </trkpt>
      <trkpt lat="47.32646" lon="-1.46379">
        <ele>24</ele>
        <time>2020-05-16T11:18:06Z</time>
      </trkpt>
      <trkpt lat="47.32647" lon="-1.46364">
        <ele>25.07</ele>
        <time>2020-05-16T11:18:08Z</time>
      </trkpt>
      <trkpt lat="47.32647" lon="-1.46348">
        <ele>26.02</ele>
        <time>2020-05-16T11:18:11Z</time>
      </trkpt>
      <trkpt lat="47.32648" lon="-1.46332">
        <ele>26.82</ele>
        <time>2020-05-16T11:18:13Z</time>
      </trkpt>
      <trkpt lat="47.3265" lon="-1.46316">
        <ele>26.9</ele>
        <time>2020-05-16T11:18:15Z</time>
      </trkpt>
      <trkpt lat="47.32656" lon="-1.46296">
        <ele>25.9</ele>
        <time>2020-05-16T11:18:18Z</time>
      </trkpt>
      <trkpt lat="47.32661" lon="-1.46284">
        <ele>25.28</ele>
        <time>2020-05-16T11:18:20Z</time>
      </trkpt>
      <trkpt lat="47.32666" lon="-1.46273">
        <ele>25.24</ele>
        <time>2020-05-16T11:18:22Z</time>
      </trkpt>
      <trkpt lat="47.32673" lon="-1.46264">
        <ele>26.21</ele>
        <time>2020-05-16T11:18:24Z</time>
      </trkpt>
      <trkpt lat="47.32683" lon="-1.46253">
        <ele>27.93</ele>
        <time>2020-05-16T11:18:27Z</time>
      </trkpt>
      <trkpt lat="47.3269" lon="-1.46245">
        <ele>27.75</ele>
        <time>2020-05-16T11:18:29Z</time>
      </trkpt>
      <trkpt lat="47.32699" lon="-1.46237">
        <ele>28.38</ele>
        <time>2020-05-16T11:18:31Z</time>
      </trkpt>
      <trkpt lat="47.32707" lon="-1.46229">
        <ele>28.8</ele>
        <time>2020-05-16T11:18:33Z</time>
      </trkpt>
      <trkpt lat="47.32717" lon="-1.46219">
        <ele>30.43</ele>
        <time>2020-05-16T11:18:36Z</time>
      </trkpt>
      <trkpt lat="47.32726" lon="-1.46212">
        <ele>30.7</ele>
        <time>2020-05-16T11:18:38Z</time>
      </trkpt>
      <trkpt lat="47.32733" lon="-1.46203">
        <ele>30.38</ele>
        <time>2020-05-16T11:18:40Z</time>
      </trkpt>
      <trkpt lat="47.32741" lon="-1.46194">
        <ele>30.08</ele>
        <time>2020-05-16T11:18:42Z</time>
      </trkpt>
      <trkpt lat="47.32749" lon="-1.46185">
        <ele>29.89</ele>
        <time>2020-05-16T11:18:44Z</time>
      </trkpt>
      <trkpt lat="47.32756" lon="-1.46176">
        <ele>30.44</ele>
        <time>2020-05-16T11:18:46Z</time>
      </trkpt>
      <trkpt lat="47.32764" lon="-1.46161">
        <ele>32.97</ele>
        <time>2020-05-16T11:18:49Z</time>
      </trkpt>
      <trkpt lat="47.32768" lon="-1.46142">
        <ele>33.87</ele>
        <time>2020-05-16T11:18:52Z</time>
      </trkpt>
      <trkpt lat="47.32768" lon="-1.46123">
        <ele>34.8</ele>
        <time>2020-05-16T11:18:55Z</time>
      </trkpt>
      <trkpt lat="47.32766" lon="-1.46101">
        <ele>33.73</ele>
        <time>2020-05-16T11:18:58Z</time>
      </trkpt>
      <trkpt lat="47.32764" lon="-1.46086">
        <ele>33.45</ele>
        <time>2020-05-16T11:19:00Z</time>
      </trkpt>
      <trkpt lat="47.3276" lon="-1.46068">
        <ele>32.5</ele>
        <time>2020-05-16T11:19:03Z</time>
      </trkpt>
      <trkpt lat="47.32758" lon="-1.46052">
        <ele>31.29</ele>
        <time>2020-05-16T11:19:05Z</time>
      </trkpt>
      <trkpt lat="47.32758" lon="-1.46036">
        <ele>31.77</ele>
        <time>2020-05-16T11:19:08Z</time>
      </trkpt>
      <trkpt lat="47.3276" lon="-1.46019">
        <ele>33.02</ele>
        <time>2020-05-16T11:19:11Z</time>
      </trkpt>
      <trkpt lat="47.32766" lon="-1.46002">
        <ele>33.28</ele>
        <time>2020-05-16T11:19:14Z</time>
      </trkpt>
      <trkpt lat="47.32772" lon="-1.4599">
        <ele>35.34</ele>
        <time>2020-05-16T11:19:17Z</time>
      </trkpt>
      <trkpt lat="47.3278" lon="-1.45975">
        <ele>35.59</ele>
        <time>2020-05-16T11:19:20Z</time>
      </trkpt>
      <trkpt lat="47.32791" lon="-1.45961">
        <ele>38.41</ele>
        <time>2020-05-16T11:19:23Z</time>
      </trkpt>
      <trkpt lat="47.328" lon="-1.45951">
        <ele>40.07</ele>
        <time>2020-05-16T11:19:25Z</time>
      </trkpt>
      <trkpt lat="47.32808" lon="-1.45942">
        <ele>41.29</ele>
        <time>2020-05-16T11:19:27Z</time>
      </trkpt>
      <trkpt lat="47.32815" lon="-1.45933">
        <ele>40.95</ele>
        <time>2020-05-16T11:19:29Z</time>
      </trkpt>
      <trkpt lat="47.32823" lon="-1.45923">
        <ele>41.07</ele>
        <time>2020-05-16T11:19:31Z</time>
      </trkpt>
      <trkpt lat="47.32831" lon="-1.45912">
        <ele>40.3</ele>
        <time>2020-05-16T11:19:33Z</time>
      </trkpt>
      <trkpt lat="47.32842" lon="-1.459">
        <ele>39.54</ele>
        <time>2020-05-16T11:19:36Z</time>
      </trkpt>
      <trkpt lat="47.32849" lon="-1.45891">
        <ele>40.66</ele>
        <time>2020-05-16T11:19:38Z</time>
      </trkpt>
      <trkpt lat="47.32856" lon="-1.45881">
        <ele>41.36</ele>
        <time>2020-05-16T11:19:40Z</time>
      </trkpt>
      <trkpt lat="47.32864" lon="-1.45871">
        <ele>42.65</ele>
        <time>2020-05-16T11:19:43Z</time>
      </trkpt>
      <trkpt lat="47.32875" lon="-1.45857">
        <ele>43.8</ele>
        <time>2020-05-16T11:19:46Z</time>
      </trkpt>
      <trkpt lat="47.32882" lon="-1.45847">
        <ele>43.8</ele>
        <time>2020-05-16T11:19:48Z</time>
      </trkpt>
      <trkpt lat="47.32893" lon="-1.45835">
        <ele>43.09</ele>
        <time>2020-05-16T11:19:51Z</time>
      </trkpt>
      <trkpt lat="47.329" lon="-1.45823">
        <ele>43.07</ele>
        <time>2020-05-16T11:19:53Z</time>
      </trkpt>
      <trkpt lat="47.32906" lon="-1.45814">
        <ele>42.76</ele>
        <time>2020-05-16T11:19:55Z</time>
      </trkpt>
      <trkpt lat="47.32915" lon="-1.45803">
        <ele>42.59</ele>
        <time>2020-05-16T11:19:58Z</time>
      </trkpt>
      <trkpt lat="47.32922" lon="-1.45794">
        <ele>43.48</ele>
        <time>2020-05-16T11:20:00Z</time>
      </trkpt>
      <trkpt lat="47.32932" lon="-1.45779">
        <ele>43.67</ele>
        <time>2020-05-16T11:20:03Z</time>
      </trkpt>
      <trkpt lat="47.32939" lon="-1.4577">
        <ele>44.45</ele>
        <time>2020-05-16T11:20:05Z</time>
      </trkpt>
      <trkpt lat="47.32947" lon="-1.4576">
        <ele>45.65</ele>
        <time>2020-05-16T11:20:07Z</time>
      </trkpt>
      <trkpt lat="47.32954" lon="-1.4575">
        <ele>45.84</ele>
        <time>2020-05-16T11:20:09Z</time>
      </trkpt>
      <trkpt lat="47.32961" lon="-1.4574">
        <ele>46.22</ele>
        <time>2020-05-16T11:20:11Z</time>
      </trkpt>
      <trkpt lat="47.32967" lon="-1.45731">
        <ele>45.51</ele>
        <time>2020-05-16T11:20:13Z</time>
      </trkpt>
      <trkpt lat="47.32975" lon="-1.45721">
        <ele>44.95</ele>
        <time>2020-05-16T11:20:15Z</time>
      </trkpt>
      <trkpt lat="47.32984" lon="-1.4571">
        <ele>46.19</ele>
        <time>2020-05-16T11:20:18Z</time>
      </trkpt>
      <trkpt lat="47.32994" lon="-1.45696">
        <ele>47.35</ele>
        <time>2020-05-16T11:20:21Z</time>
      </trkpt>
      <trkpt lat="47.33001" lon="-1.45686">
        <ele>48.12</ele>
        <time>2020-05-16T11:20:23Z</time>
      </trkpt>
      <trkpt lat="47.33008" lon="-1.45675">
        <ele>49.68</ele>
        <time>2020-05-16T11:20:25Z</time>
      </trkpt>
      <trkpt lat="47.33017" lon="-1.45661">
        <ele>50.61</ele>
        <time>2020-05-16T11:20:28Z</time>
      </trkpt>
      <trkpt lat="47.33026" lon="-1.4565">
        <ele>50.34</ele>
        <time>2020-05-16T11:20:30Z</time>
      </trkpt>
      <trkpt lat="47.33033" lon="-1.45641">
        <ele>49.76</ele>
        <time>2020-05-16T11:20:32Z</time>
      </trkpt>
      <trkpt lat="47.33041" lon="-1.45632">
        <ele>48.51</ele>
        <time>2020-05-16T11:20:34Z</time>
      </trkpt>
      <trkpt lat="47.33049" lon="-1.45622">
        <ele>48.89</ele>
        <time>2020-05-16T11:20:36Z</time>
      </trkpt>
      <trkpt lat="47.33058" lon="-1.45609">
        <ele>50.95</ele>
        <time>2020-05-16T11:20:39Z</time>
      </trkpt>
      <trkpt lat="47.33065" lon="-1.45599">
        <ele>51.9</ele>
        <time>2020-05-16T11:20:41Z</time>
      </trkpt>
      <trkpt lat="47.33074" lon="-1.45588">
        <ele>50.53</ele>
        <time>2020-05-16T11:20:43Z</time>
      </trkpt>
      <trkpt lat="47.33081" lon="-1.45579">
        <ele>49.76</ele>
        <time>2020-05-16T11:20:45Z</time>
      </trkpt>
      <trkpt lat="47.33088" lon="-1.45569">
        <ele>49.98</ele>
        <time>2020-05-16T11:20:47Z</time>
      </trkpt>
      <trkpt lat="47.33099" lon="-1.45556">
        <ele>49.06</ele>
        <time>2020-05-16T11:20:50Z</time>
      </trkpt>
      <trkpt lat="47.33107" lon="-1.45544">
        <ele>49.1</ele>
        <time>2020-05-16T11:20:52Z</time>
      </trkpt>
      <trkpt lat="47.33116" lon="-1.4553">
        <ele>50.1</ele>
        <time>2020-05-16T11:20:55Z</time>
      </trkpt>
      <trkpt lat="47.33124" lon="-1.45521">
        <ele>50.75</ele>
        <time>2020-05-16T11:20:57Z</time>
      </trkpt>
      <trkpt lat="47.33131" lon="-1.45512">
        <ele>52.66</ele>
        <time>2020-05-16T11:20:59Z</time>
      </trkpt>
      <trkpt lat="47.3314" lon="-1.45501">
        <ele>53.83</ele>
        <time>2020-05-16T11:21:01Z</time>
      </trkpt>
      <trkpt lat="47.3315" lon="-1.45489">
        <ele>53.85</ele>
        <time>2020-05-16T11:21:03Z</time>
      </trkpt>
      <trkpt lat="47.33158" lon="-1.45481">
        <ele>53.38</ele>
        <time>2020-05-16T11:21:05Z</time>
      </trkpt>
      <trkpt lat="47.33167" lon="-1.45473">
        <ele>53.25</ele>
        <time>2020-05-16T11:21:07Z</time>
      </trkpt>
      <trkpt lat="47.33177" lon="-1.45466">
        <ele>53.06</ele>
        <time>2020-05-16T11:21:09Z</time>
      </trkpt>
      <trkpt lat="47.33187" lon="-1.4546">
        <ele>52.92</ele>
        <time>2020-05-16T11:21:11Z</time>
      </trkpt>
      <trkpt lat="47.33197" lon="-1.45455">
        <ele>52.46</ele>
        <time>2020-05-16T11:21:13Z</time>
      </trkpt>
      <trkpt lat="47.33209" lon="-1.4545">
        <ele>52.76</ele>
        <time>2020-05-16T11:21:15Z</time>
      </trkpt>
      <trkpt lat="47.3322" lon="-1.45445">
        <ele>52.85</ele>
        <time>2020-05-16T11:21:17Z</time>
      </trkpt>
      <trkpt lat="47.3323" lon="-1.4544">
        <ele>52.92</ele>
        <time>2020-05-16T11:21:19Z</time>
      </trkpt>
      <trkpt lat="47.33242" lon="-1.45434">
        <ele>53.17</ele>
        <time>2020-05-16T11:21:21Z</time>
      </trkpt>
      <trkpt lat="47.33254" lon="-1.45429">
        <ele>52.64</ele>
        <time>2020-05-16T11:21:23Z</time>
      </trkpt>
      <trkpt lat="47.33265" lon="-1.45425">
        <ele>52.19</ele>
        <time>2020-05-16T11:21:25Z</time>
      </trkpt>
      <trkpt lat="47.33275" lon="-1.4542">
        <ele>51.12</ele>
        <time>2020-05-16T11:21:27Z</time>
      </trkpt>
      <trkpt lat="47.33286" lon="-1.45416">
        <ele>51.31</ele>
        <time>2020-05-16T11:21:29Z</time>
      </trkpt>
      <trkpt lat="47.33296" lon="-1.45411">
        <ele>50.87</ele>
        <time>2020-05-16T11:21:31Z</time>
      </trkpt>
      <trkpt lat="47.33307" lon="-1.45408">
        <ele>50.81</ele>
        <time>2020-05-16T11:21:33Z</time>
      </trkpt>
      <trkpt lat="47.33318" lon="-1.45403">
        <ele>51.41</ele>
        <time>2020-05-16T11:21:35Z</time>
      </trkpt>
      <trkpt lat="47.33327" lon="-1.45399">
        <ele>51.75</ele>
        <time>2020-05-16T11:21:37Z</time>
      </trkpt>
      <trkpt lat="47.33337" lon="-1.45395">
        <ele>51.82</ele>
        <time>2020-05-16T11:21:39Z</time>
      </trkpt>
      <trkpt lat="47.33348" lon="-1.4539">
        <ele>51.71</ele>
        <time>2020-05-16T11:21:41Z</time>
      </trkpt>
      <trkpt lat="47.33361" lon="-1.45385">
        <ele>50.9</ele>
        <time>2020-05-16T11:21:43Z</time>
      </trkpt>
      <trkpt lat="47.33372" lon="-1.45381">
        <ele>50.89</ele>
        <time>2020-05-16T11:21:45Z</time>
      </trkpt>
      <trkpt lat="47.33383" lon="-1.45377">
        <ele>50.9</ele>
        <time>2020-05-16T11:21:47Z</time>
      </trkpt>
      <trkpt lat="47.33393" lon="-1.45372">
        <ele>51.63</ele>
        <time>2020-05-16T11:21:49Z</time>
      </trkpt>
      <trkpt lat="47.33402" lon="-1.45368">
        <ele>52.32</ele>
        <time>2020-05-16T11:21:51Z</time>
      </trkpt>
      <trkpt lat="47.33412" lon="-1.45364">
        <ele>51.95</ele>
        <time>2020-05-16T11:21:53Z</time>
      </trkpt>
      <trkpt lat="47.33422" lon="-1.4536">
        <ele>51.75</ele>
        <time>2020-05-16T11:21:55Z</time>
      </trkpt>
      <trkpt lat="47.33434" lon="-1.45354">
        <ele>51.69</ele>
        <time>2020-05-16T11:21:57Z</time>
      </trkpt>
      <trkpt lat="47.33444" lon="-1.4535">
        <ele>51.61</ele>
        <time>2020-05-16T11:21:59Z</time>
      </trkpt>
      <trkpt lat="47.33454" lon="-1.45346">
        <ele>53.03</ele>
        <time>2020-05-16T11:22:01Z</time>
      </trkpt>
      <trkpt lat="47.33465" lon="-1.45342">
        <ele>53.69</ele>
        <time>2020-05-16T11:22:03Z</time>
      </trkpt>
      <trkpt lat="47.33476" lon="-1.45336">
        <ele>53.65</ele>
        <time>2020-05-16T11:22:05Z</time>
      </trkpt>
      <trkpt lat="47.33486" lon="-1.45332">
        <ele>54.13</ele>
        <time>2020-05-16T11:22:07Z</time>
      </trkpt>
      <trkpt lat="47.33497" lon="-1.45327">
        <ele>54.45</ele>
        <time>2020-05-16T11:22:09Z</time>
      </trkpt>
      <trkpt lat="47.33509" lon="-1.45322">
        <ele>54.15</ele>
        <time>2020-05-16T11:22:11Z</time>
      </trkpt>
      <trkpt lat="47.3352" lon="-1.45317">
        <ele>54.22</ele>
        <time>2020-05-16T11:22:13Z</time>
      </trkpt>
      <trkpt lat="47.33532" lon="-1.45311">
        <ele>54.24</ele>
        <time>2020-05-16T11:22:15Z</time>
      </trkpt>
      <trkpt lat="47.33544" lon="-1.45306">
        <ele>55.37</ele>
        <time>2020-05-16T11:22:17Z</time>
      </trkpt>
      <trkpt lat="47.33558" lon="-1.45301">
        <ele>56.37</ele>
        <time>2020-05-16T11:22:19Z</time>
      </trkpt>
      <trkpt lat="47.33571" lon="-1.45296">
        <ele>57.54</ele>
        <time>2020-05-16T11:22:21Z</time>
      </trkpt>
      <trkpt lat="47.33585" lon="-1.4529">
        <ele>57.58</ele>
        <time>2020-05-16T11:22:23Z</time>
      </trkpt>
      <trkpt lat="47.33598" lon="-1.45285">
        <ele>57.9</ele>
        <time>2020-05-16T11:22:25Z</time>
      </trkpt>
      <trkpt lat="47.33611" lon="-1.45279">
        <ele>57.57</ele>
        <time>2020-05-16T11:22:27Z</time>
      </trkpt>
      <trkpt lat="47.33624" lon="-1.45273">
        <ele>56.53</ele>
        <time>2020-05-16T11:22:29Z</time>
      </trkpt>
      <trkpt lat="47.33638" lon="-1.45267">
        <ele>56.09</ele>
        <time>2020-05-16T11:22:31Z</time>
      </trkpt>
      <trkpt lat="47.33652" lon="-1.45261">
        <ele>55.44</ele>
        <time>2020-05-16T11:22:33Z</time>
      </trkpt>
      <trkpt lat="47.33665" lon="-1.45255">
        <ele>55.37</ele>
        <time>2020-05-16T11:22:35Z</time>
      </trkpt>
      <trkpt lat="47.33678" lon="-1.45251">
        <ele>55.05</ele>
        <time>2020-05-16T11:22:37Z</time>
      </trkpt>
      <trkpt lat="47.33694" lon="-1.45244">
        <ele>55</ele>
        <time>2020-05-16T11:22:39Z</time>
      </trkpt>
      <trkpt lat="47.33709" lon="-1.45238">
        <ele>54.9</ele>
        <time>2020-05-16T11:22:41Z</time>
      </trkpt>
      <trkpt lat="47.33722" lon="-1.45234">
        <ele>54.71</ele>
        <time>2020-05-16T11:22:43Z</time>
      </trkpt>
      <trkpt lat="47.33736" lon="-1.45227">
        <ele>54.43</ele>
        <time>2020-05-16T11:22:45Z</time>
      </trkpt>
      <trkpt lat="47.3375" lon="-1.4522">
        <ele>54.29</ele>
        <time>2020-05-16T11:22:47Z</time>
      </trkpt>
      <trkpt lat="47.33763" lon="-1.45214">
        <ele>54.31</ele>
        <time>2020-05-16T11:22:49Z</time>
      </trkpt>
      <trkpt lat="47.33777" lon="-1.45205">
        <ele>53.78</ele>
        <time>2020-05-16T11:22:51Z</time>
      </trkpt>
      <trkpt lat="47.33791" lon="-1.45196">
        <ele>53.51</ele>
        <time>2020-05-16T11:22:53Z</time>
      </trkpt>
      <trkpt lat="47.33803" lon="-1.45182">
        <ele>52.91</ele>
        <time>2020-05-16T11:22:55Z</time>
      </trkpt>
      <trkpt lat="47.33814" lon="-1.45167">
        <ele>52.04</ele>
        <time>2020-05-16T11:22:57Z</time>
      </trkpt>
      <trkpt lat="47.33824" lon="-1.45149">
        <ele>52.12</ele>
        <time>2020-05-16T11:22:59Z</time>
      </trkpt>
      <trkpt lat="47.33831" lon="-1.45128">
        <ele>51.46</ele>
        <time>2020-05-16T11:23:01Z</time>
      </trkpt>
      <trkpt lat="47.33837" lon="-1.45108">
        <ele>49.99</ele>
        <time>2020-05-16T11:23:03Z</time>
      </trkpt>
      <trkpt lat="47.33843" lon="-1.45087">
        <ele>48.88</ele>
        <time>2020-05-16T11:23:05Z</time>
      </trkpt>
      <trkpt lat="47.33849" lon="-1.45067">
        <ele>48.88</ele>
        <time>2020-05-16T11:23:07Z</time>
      </trkpt>
      <trkpt lat="47.33854" lon="-1.45048">
        <ele>49.54</ele>
        <time>2020-05-16T11:23:09Z</time>
      </trkpt>
      <trkpt lat="47.33859" lon="-1.45027">
        <ele>50.18</ele>
        <time>2020-05-16T11:23:11Z</time>
      </trkpt>
      <trkpt lat="47.33865" lon="-1.45006">
        <ele>50.21</ele>
        <time>2020-05-16T11:23:12Z</time>
      </trkpt>
      <trkpt lat="47.33871" lon="-1.44987">
        <ele>50.06</ele>
        <time>2020-05-16T11:23:14Z</time>
      </trkpt>
      <trkpt lat="47.33877" lon="-1.44966">
        <ele>49.32</ele>
        <time>2020-05-16T11:23:16Z</time>
      </trkpt>
      <trkpt lat="47.33883" lon="-1.44946">
        <ele>47.68</ele>
        <time>2020-05-16T11:23:18Z</time>
      </trkpt>
      <trkpt lat="47.33887" lon="-1.44933">
        <ele>46.9</ele>
        <time>2020-05-16T11:23:19Z</time>
      </trkpt>
      <trkpt lat="47.33895" lon="-1.44913">
        <ele>46.15</ele>
        <time>2020-05-16T11:23:21Z</time>
      </trkpt>
      <trkpt lat="47.33902" lon="-1.44892">
        <ele>45.73</ele>
        <time>2020-05-16T11:23:23Z</time>
      </trkpt>
      <trkpt lat="47.33909" lon="-1.44872">
        <ele>44.6</ele>
        <time>2020-05-16T11:23:25Z</time>
      </trkpt>
      <trkpt lat="47.33916" lon="-1.4485">
        <ele>44.59</ele>
        <time>2020-05-16T11:23:27Z</time>
      </trkpt>
      <trkpt lat="47.33922" lon="-1.44828">
        <ele>44.27</ele>
        <time>2020-05-16T11:23:29Z</time>
      </trkpt>
      <trkpt lat="47.33929" lon="-1.44807">
        <ele>43.21</ele>
        <time>2020-05-16T11:23:31Z</time>
      </trkpt>
      <trkpt lat="47.33933" lon="-1.44795">
        <ele>43.28</ele>
        <time>2020-05-16T11:23:32Z</time>
      </trkpt>
      <trkpt lat="47.33941" lon="-1.44773">
        <ele>42.79</ele>
        <time>2020-05-16T11:23:34Z</time>
      </trkpt>
      <trkpt lat="47.33948" lon="-1.44752">
        <ele>42.26</ele>
        <time>2020-05-16T11:23:36Z</time>
      </trkpt>
      <trkpt lat="47.33955" lon="-1.44732">
        <ele>41.72</ele>
        <time>2020-05-16T11:23:38Z</time>
      </trkpt>
      <trkpt lat="47.33962" lon="-1.44711">
        <ele>40.93</ele>
        <time>2020-05-16T11:23:40Z</time>
      </trkpt>
      <trkpt lat="47.33969" lon="-1.44689">
        <ele>40.5</ele>
        <time>2020-05-16T11:23:42Z</time>
      </trkpt>
      <trkpt lat="47.33973" lon="-1.44675">
        <ele>40.06</ele>
        <time>2020-05-16T11:23:43Z</time>
      </trkpt>
      <trkpt lat="47.3398" lon="-1.44651">
        <ele>39.02</ele>
        <time>2020-05-16T11:23:45Z</time>
      </trkpt>
      <trkpt lat="47.33987" lon="-1.44628">
        <ele>38.45</ele>
        <time>2020-05-16T11:23:47Z</time>
      </trkpt>
      <trkpt lat="47.33992" lon="-1.44606">
        <ele>38.11</ele>
        <time>2020-05-16T11:23:49Z</time>
      </trkpt>
      <trkpt lat="47.33999" lon="-1.44584">
        <ele>38.46</ele>
        <time>2020-05-16T11:23:51Z</time>
      </trkpt>
      <trkpt lat="47.34005" lon="-1.44564">
        <ele>37.91</ele>
        <time>2020-05-16T11:23:53Z</time>
      </trkpt>
      <trkpt lat="47.34011" lon="-1.44545">
        <ele>37.74</ele>
        <time>2020-05-16T11:23:55Z</time>
      </trkpt>
      <trkpt lat="47.34017" lon="-1.44527">
        <ele>37.97</ele>
        <time>2020-05-16T11:23:57Z</time>
      </trkpt>
      <trkpt lat="47.34023" lon="-1.44509">
        <ele>37.52</ele>
        <time>2020-05-16T11:23:59Z</time>
      </trkpt>
      <trkpt lat="47.34029" lon="-1.4449">
        <ele>37.27</ele>
        <time>2020-05-16T11:24:01Z</time>
      </trkpt>
      <trkpt lat="47.34035" lon="-1.44475">
        <ele>36.9</ele>
        <time>2020-05-16T11:24:03Z</time>
      </trkpt>
      <trkpt lat="47.34041" lon="-1.44457">
        <ele>37.68</ele>
        <time>2020-05-16T11:24:05Z</time>
      </trkpt>
      <trkpt lat="47.34046" lon="-1.44441">
        <ele>38</ele>
        <time>2020-05-16T11:24:07Z</time>
      </trkpt>
      <trkpt lat="47.34051" lon="-1.44425">
        <ele>38.45</ele>
        <time>2020-05-16T11:24:09Z</time>
      </trkpt>
      <trkpt lat="47.34057" lon="-1.44409">
        <ele>38.21</ele>
        <time>2020-05-16T11:24:11Z</time>
      </trkpt>
      <trkpt lat="47.3406" lon="-1.44395">
        <ele>38.74</ele>
        <time>2020-05-16T11:24:13Z</time>
      </trkpt>
      <trkpt lat="47.34064" lon="-1.44383">
        <ele>39.41</ele>
        <time>2020-05-16T11:24:15Z</time>
      </trkpt>
      <trkpt lat="47.34068" lon="-1.44368">
        <ele>40.42</ele>
        <time>2020-05-16T11:24:17Z</time>
      </trkpt>
      <trkpt lat="47.34071" lon="-1.44353">
        <ele>39.67</ele>
        <time>2020-05-16T11:24:19Z</time>
      </trkpt>
      <trkpt lat="47.34075" lon="-1.44339">
        <ele>39.48</ele>
        <time>2020-05-16T11:24:21Z</time>
      </trkpt>
      <trkpt lat="47.34079" lon="-1.44324">
        <ele>39.56</ele>
        <time>2020-05-16T11:24:23Z</time>
      </trkpt>
      <trkpt lat="47.34082" lon="-1.4431">
        <ele>40.18</ele>
        <time>2020-05-16T11:24:25Z</time>
      </trkpt>
      <trkpt lat="47.34088" lon="-1.44292">
        <ele>40.95</ele>
        <time>2020-05-16T11:24:27Z</time>
      </trkpt>
      <trkpt lat="47.34093" lon="-1.44277">
        <ele>41.46</ele>
        <time>2020-05-16T11:24:29Z</time>
      </trkpt>
      <trkpt lat="47.34098" lon="-1.44263">
        <ele>42.88</ele>
        <time>2020-05-16T11:24:31Z</time>
      </trkpt>
      <trkpt lat="47.34104" lon="-1.44247">
        <ele>44.25</ele>
        <time>2020-05-16T11:24:33Z</time>
      </trkpt>
      <trkpt lat="47.34111" lon="-1.44227">
        <ele>44.76</ele>
        <time>2020-05-16T11:24:36Z</time>
      </trkpt>
      <trkpt lat="47.34115" lon="-1.44215">
        <ele>43.75</ele>
        <time>2020-05-16T11:24:38Z</time>
      </trkpt>
      <trkpt lat="47.34121" lon="-1.44197">
        <ele>44.09</ele>
        <time>2020-05-16T11:24:40Z</time>
      </trkpt>
      <trkpt lat="47.34125" lon="-1.44185">
        <ele>43.92</ele>
        <time>2020-05-16T11:24:42Z</time>
      </trkpt>
      <trkpt lat="47.3413" lon="-1.44166">
        <ele>42.86</ele>
        <time>2020-05-16T11:24:45Z</time>
      </trkpt>
      <trkpt lat="47.34133" lon="-1.44152">
        <ele>43.85</ele>
        <time>2020-05-16T11:24:47Z</time>
      </trkpt>
      <trkpt lat="47.34136" lon="-1.44139">
        <ele>43.08</ele>
        <time>2020-05-16T11:24:49Z</time>
      </trkpt>
      <trkpt lat="47.3414" lon="-1.44125">
        <ele>41.55</ele>
        <time>2020-05-16T11:24:51Z</time>
      </trkpt>
      <trkpt lat="47.34144" lon="-1.44109">
        <ele>41.11</ele>
        <time>2020-05-16T11:24:53Z</time>
      </trkpt>
      <trkpt lat="47.34149" lon="-1.44096">
        <ele>42.15</ele>
        <time>2020-05-16T11:24:55Z</time>
      </trkpt>
      <trkpt lat="47.34153" lon="-1.44083">
        <ele>43.05</ele>
        <time>2020-05-16T11:24:57Z</time>
      </trkpt>
      <trkpt lat="47.34157" lon="-1.4407">
        <ele>43.31</ele>
        <time>2020-05-16T11:24:59Z</time>
      </trkpt>
      <trkpt lat="47.34161" lon="-1.44056">
        <ele>43.86</ele>
        <time>2020-05-16T11:25:01Z</time>
      </trkpt>
      <trkpt lat="47.34166" lon="-1.44039">
        <ele>43.82</ele>
        <time>2020-05-16T11:25:03Z</time>
      </trkpt>
      <trkpt lat="47.34172" lon="-1.44023">
        <ele>43.93</ele>
        <time>2020-05-16T11:25:05Z</time>
      </trkpt>
      <trkpt lat="47.34175" lon="-1.44011">
        <ele>43.16</ele>
        <time>2020-05-16T11:25:07Z</time>
      </trkpt>
      <trkpt lat="47.34179" lon="-1.43997">
        <ele>42.2</ele>
        <time>2020-05-16T11:25:09Z</time>
      </trkpt>
      <trkpt lat="47.34185" lon="-1.4398">
        <ele>41.38</ele>
        <time>2020-05-16T11:25:11Z</time>
      </trkpt>
      <trkpt lat="47.34188" lon="-1.43965">
        <ele>41.16</ele>
        <time>2020-05-16T11:25:13Z</time>
      </trkpt>
      <trkpt lat="47.34192" lon="-1.43952">
        <ele>39.38</ele>
        <time>2020-05-16T11:25:15Z</time>
      </trkpt>
      <trkpt lat="47.34196" lon="-1.43939">
        <ele>38.9</ele>
        <time>2020-05-16T11:25:17Z</time>
      </trkpt>
      <trkpt lat="47.34203" lon="-1.43926">
        <ele>41</ele>
        <time>2020-05-16T11:25:19Z</time>
      </trkpt>
      <trkpt lat="47.3421" lon="-1.43912">
        <ele>43.55</ele>
        <time>2020-05-16T11:25:21Z</time>
      </trkpt>
      <trkpt lat="47.34215" lon="-1.43899">
        <ele>45.02</ele>
        <time>2020-05-16T11:25:23Z</time>
      </trkpt>
      <trkpt lat="47.34221" lon="-1.43884">
        <ele>46.59</ele>
        <time>2020-05-16T11:25:25Z</time>
      </trkpt>
      <trkpt lat="47.34227" lon="-1.43868">
        <ele>49.34</ele>
        <time>2020-05-16T11:25:28Z</time>
      </trkpt>
      <trkpt lat="47.34232" lon="-1.43854">
        <ele>50.39</ele>
        <time>2020-05-16T11:25:30Z</time>
      </trkpt>
      <trkpt lat="47.34237" lon="-1.4384">
        <ele>50.96</ele>
        <time>2020-05-16T11:25:32Z</time>
      </trkpt>
      <trkpt lat="47.34241" lon="-1.43822">
        <ele>51.48</ele>
        <time>2020-05-16T11:25:34Z</time>
      </trkpt>
      <trkpt lat="47.34245" lon="-1.43809">
        <ele>52.64</ele>
        <time>2020-05-16T11:25:36Z</time>
      </trkpt>
      <trkpt lat="47.3425" lon="-1.43795">
        <ele>52.69</ele>
        <time>2020-05-16T11:25:38Z</time>
      </trkpt>
      <trkpt lat="47.34255" lon="-1.43779">
        <ele>53.21</ele>
        <time>2020-05-16T11:25:40Z</time>
      </trkpt>
      <trkpt lat="47.3426" lon="-1.43765">
        <ele>52.58</ele>
        <time>2020-05-16T11:25:42Z</time>
      </trkpt>
      <trkpt lat="47.34265" lon="-1.43749">
        <ele>52.33</ele>
        <time>2020-05-16T11:25:44Z</time>
      </trkpt>
      <trkpt lat="47.34269" lon="-1.43736">
        <ele>52.64</ele>
        <time>2020-05-16T11:25:46Z</time>
      </trkpt>
      <trkpt lat="47.34273" lon="-1.43723">
        <ele>52.49</ele>
        <time>2020-05-16T11:25:48Z</time>
      </trkpt>
      <trkpt lat="47.34277" lon="-1.43712">
        <ele>52.16</ele>
        <time>2020-05-16T11:25:50Z</time>
      </trkpt>
      <trkpt lat="47.34282" lon="-1.43698">
        <ele>52.35</ele>
        <time>2020-05-16T11:25:52Z</time>
      </trkpt>
      <trkpt lat="47.34287" lon="-1.43683">
        <ele>52.46</ele>
        <time>2020-05-16T11:25:54Z</time>
      </trkpt>
      <trkpt lat="47.34291" lon="-1.43669">
        <ele>53.46</ele>
        <time>2020-05-16T11:25:56Z</time>
      </trkpt>
      <trkpt lat="47.34295" lon="-1.43655">
        <ele>54.27</ele>
        <time>2020-05-16T11:25:58Z</time>
      </trkpt>
      <trkpt lat="47.34301" lon="-1.4364">
        <ele>55.23</ele>
        <time>2020-05-16T11:26:00Z</time>
      </trkpt>
      <trkpt lat="47.34305" lon="-1.43626">
        <ele>55.53</ele>
        <time>2020-05-16T11:26:02Z</time>
      </trkpt>
      <trkpt lat="47.34309" lon="-1.43613">
        <ele>56.63</ele>
        <time>2020-05-16T11:26:04Z</time>
      </trkpt>
      <trkpt lat="47.34313" lon="-1.43597">
        <ele>56</ele>
        <time>2020-05-16T11:26:06Z</time>
      </trkpt>
      <trkpt lat="47.34317" lon="-1.43582">
        <ele>54.93</ele>
        <time>2020-05-16T11:26:08Z</time>
      </trkpt>
      <trkpt lat="47.34322" lon="-1.43566">
        <ele>55.08</ele>
        <time>2020-05-16T11:26:10Z</time>
      </trkpt>
      <trkpt lat="47.34328" lon="-1.4355">
        <ele>56.17</ele>
        <time>2020-05-16T11:26:12Z</time>
      </trkpt>
      <trkpt lat="47.34332" lon="-1.43536">
        <ele>57.07</ele>
        <time>2020-05-16T11:26:14Z</time>
      </trkpt>
      <trkpt lat="47.34337" lon="-1.4352">
        <ele>56.88</ele>
        <time>2020-05-16T11:26:16Z</time>
      </trkpt>
      <trkpt lat="47.34341" lon="-1.43506">
        <ele>56.16</ele>
        <time>2020-05-16T11:26:18Z</time>
      </trkpt>
      <trkpt lat="47.34346" lon="-1.43494">
        <ele>55.76</ele>
        <time>2020-05-16T11:26:20Z</time>
      </trkpt>
      <trkpt lat="47.34351" lon="-1.43477">
        <ele>55.87</ele>
        <time>2020-05-16T11:26:22Z</time>
      </trkpt>
      <trkpt lat="47.34356" lon="-1.43461">
        <ele>56.3</ele>
        <time>2020-05-16T11:26:24Z</time>
      </trkpt>
      <trkpt lat="47.34361" lon="-1.43446">
        <ele>56.44</ele>
        <time>2020-05-16T11:26:26Z</time>
      </trkpt>
      <trkpt lat="47.34366" lon="-1.4343">
        <ele>55.62</ele>
        <time>2020-05-16T11:26:28Z</time>
      </trkpt>
      <trkpt lat="47.3437" lon="-1.43415">
        <ele>55.22</ele>
        <time>2020-05-16T11:26:30Z</time>
      </trkpt>
      <trkpt lat="47.34374" lon="-1.43401">
        <ele>53.88</ele>
        <time>2020-05-16T11:26:32Z</time>
      </trkpt>
      <trkpt lat="47.34378" lon="-1.43386">
        <ele>53.84</ele>
        <time>2020-05-16T11:26:34Z</time>
      </trkpt>
      <trkpt lat="47.34382" lon="-1.43371">
        <ele>54.45</ele>
        <time>2020-05-16T11:26:36Z</time>
      </trkpt>
      <trkpt lat="47.34386" lon="-1.43358">
        <ele>54.83</ele>
        <time>2020-05-16T11:26:38Z</time>
      </trkpt>
      <trkpt lat="47.34391" lon="-1.43342">
        <ele>55.59</ele>
        <time>2020-05-16T11:26:40Z</time>
      </trkpt>
      <trkpt lat="47.34397" lon="-1.43327">
        <ele>55.36</ele>
        <time>2020-05-16T11:26:42Z</time>
      </trkpt>
      <trkpt lat="47.34402" lon="-1.43311">
        <ele>55.32</ele>
        <time>2020-05-16T11:26:44Z</time>
      </trkpt>
      <trkpt lat="47.34406" lon="-1.43297">
        <ele>55.72</ele>
        <time>2020-05-16T11:26:46Z</time>
      </trkpt>
      <trkpt lat="47.3441" lon="-1.43283">
        <ele>55.98</ele>
        <time>2020-05-16T11:26:48Z</time>
      </trkpt>
      <trkpt lat="47.34415" lon="-1.43267">
        <ele>55.94</ele>
        <time>2020-05-16T11:26:50Z</time>
      </trkpt>
      <trkpt lat="47.3442" lon="-1.43252">
        <ele>55.56</ele>
        <time>2020-05-16T11:26:52Z</time>
      </trkpt>
      <trkpt lat="47.34425" lon="-1.43235">
        <ele>55.43</ele>
        <time>2020-05-16T11:26:54Z</time>
      </trkpt>
      <trkpt lat="47.34429" lon="-1.43222">
        <ele>56.26</ele>
        <time>2020-05-16T11:26:56Z</time>
      </trkpt>
      <trkpt lat="47.34434" lon="-1.43205">
        <ele>56.65</ele>
        <time>2020-05-16T11:26:58Z</time>
      </trkpt>
      <trkpt lat="47.3444" lon="-1.4319">
        <ele>57.84</ele>
        <time>2020-05-16T11:27:00Z</time>
      </trkpt>
      <trkpt lat="47.34446" lon="-1.43173">
        <ele>57.95</ele>
        <time>2020-05-16T11:27:02Z</time>
      </trkpt>
      <trkpt lat="47.34451" lon="-1.43157">
        <ele>58.62</ele>
        <time>2020-05-16T11:27:04Z</time>
      </trkpt>
      <trkpt lat="47.34456" lon="-1.43142">
        <ele>58.43</ele>
        <time>2020-05-16T11:27:06Z</time>
      </trkpt>
      <trkpt lat="47.34461" lon="-1.43127">
        <ele>58.48</ele>
        <time>2020-05-16T11:27:08Z</time>
      </trkpt>
      <trkpt lat="47.34467" lon="-1.4311">
        <ele>59.36</ele>
        <time>2020-05-16T11:27:10Z</time>
      </trkpt>
      <trkpt lat="47.34472" lon="-1.43095">
        <ele>58.96</ele>
        <time>2020-05-16T11:27:12Z</time>
      </trkpt>
      <trkpt lat="47.34477" lon="-1.43079">
        <ele>58.44</ele>
        <time>2020-05-16T11:27:14Z</time>
      </trkpt>
      <trkpt lat="47.34481" lon="-1.43063">
        <ele>58.86</ele>
        <time>2020-05-16T11:27:16Z</time>
      </trkpt>
      <trkpt lat="47.34487" lon="-1.43048">
        <ele>59.14</ele>
        <time>2020-05-16T11:27:18Z</time>
      </trkpt>
      <trkpt lat="47.34492" lon="-1.43032">
        <ele>59.95</ele>
        <time>2020-05-16T11:27:20Z</time>
      </trkpt>
      <trkpt lat="47.34497" lon="-1.43016">
        <ele>60.34</ele>
        <time>2020-05-16T11:27:22Z</time>
      </trkpt>
      <trkpt lat="47.34501" lon="-1.43002">
        <ele>60.36</ele>
        <time>2020-05-16T11:27:24Z</time>
      </trkpt>
      <trkpt lat="47.34506" lon="-1.42985">
        <ele>61.06</ele>
        <time>2020-05-16T11:27:26Z</time>
      </trkpt>
      <trkpt lat="47.34511" lon="-1.42969">
        <ele>60.09</ele>
        <time>2020-05-16T11:27:28Z</time>
      </trkpt>
      <trkpt lat="47.34517" lon="-1.42951">
        <ele>58.23</ele>
        <time>2020-05-16T11:27:30Z</time>
      </trkpt>
      <trkpt lat="47.34524" lon="-1.42932">
        <ele>56.82</ele>
        <time>2020-05-16T11:27:32Z</time>
      </trkpt>
      <trkpt lat="47.34528" lon="-1.42917">
        <ele>56.99</ele>
        <time>2020-05-16T11:27:34Z</time>
      </trkpt>
      <trkpt lat="47.34532" lon="-1.42901">
        <ele>57.98</ele>
        <time>2020-05-16T11:27:36Z</time>
      </trkpt>
      <trkpt lat="47.34538" lon="-1.42884">
        <ele>57.98</ele>
        <time>2020-05-16T11:27:38Z</time>
      </trkpt>
      <trkpt lat="47.34543" lon="-1.42868">
        <ele>58.14</ele>
        <time>2020-05-16T11:27:40Z</time>
      </trkpt>
      <trkpt lat="47.34548" lon="-1.42851">
        <ele>58.57</ele>
        <time>2020-05-16T11:27:42Z</time>
      </trkpt>
      <trkpt lat="47.34555" lon="-1.4283">
        <ele>59.4</ele>
        <time>2020-05-16T11:27:44Z</time>
      </trkpt>
      <trkpt lat="47.3456" lon="-1.42813">
        <ele>58.37</ele>
        <time>2020-05-16T11:27:46Z</time>
      </trkpt>
      <trkpt lat="47.34565" lon="-1.42795">
        <ele>57.18</ele>
        <time>2020-05-16T11:27:48Z</time>
      </trkpt>
      <trkpt lat="47.3457" lon="-1.42777">
        <ele>56.59</ele>
        <time>2020-05-16T11:27:50Z</time>
      </trkpt>
      <trkpt lat="47.34575" lon="-1.42762">
        <ele>57.8</ele>
        <time>2020-05-16T11:27:52Z</time>
      </trkpt>
      <trkpt lat="47.3458" lon="-1.42744">
        <ele>57.79</ele>
        <time>2020-05-16T11:27:54Z</time>
      </trkpt>
      <trkpt lat="47.34586" lon="-1.42725">
        <ele>56.73</ele>
        <time>2020-05-16T11:27:56Z</time>
      </trkpt>
      <trkpt lat="47.34592" lon="-1.42707">
        <ele>56.08</ele>
        <time>2020-05-16T11:27:58Z</time>
      </trkpt>
      <trkpt lat="47.34598" lon="-1.42691">
        <ele>55.95</ele>
        <time>2020-05-16T11:28:00Z</time>
      </trkpt>
      <trkpt lat="47.34604" lon="-1.42673">
        <ele>55.94</ele>
        <time>2020-05-16T11:28:02Z</time>
      </trkpt>
      <trkpt lat="47.34609" lon="-1.42654">
        <ele>55.84</ele>
        <time>2020-05-16T11:28:04Z</time>
      </trkpt>
      <trkpt lat="47.34615" lon="-1.42636">
        <ele>55.12</ele>
        <time>2020-05-16T11:28:06Z</time>
      </trkpt>
      <trkpt lat="47.34621" lon="-1.42616">
        <ele>53.74</ele>
        <time>2020-05-16T11:28:08Z</time>
      </trkpt>
      <trkpt lat="47.34628" lon="-1.42597">
        <ele>52.4</ele>
        <time>2020-05-16T11:28:10Z</time>
      </trkpt>
      <trkpt lat="47.34636" lon="-1.42579">
        <ele>51.25</ele>
        <time>2020-05-16T11:28:12Z</time>
      </trkpt>
      <trkpt lat="47.34644" lon="-1.4256">
        <ele>50.95</ele>
        <time>2020-05-16T11:28:14Z</time>
      </trkpt>
      <trkpt lat="47.34654" lon="-1.4254">
        <ele>50.72</ele>
        <time>2020-05-16T11:28:16Z</time>
      </trkpt>
      <trkpt lat="47.34666" lon="-1.42522">
        <ele>49.97</ele>
        <time>2020-05-16T11:28:18Z</time>
      </trkpt>
      <trkpt lat="47.34677" lon="-1.42505">
        <ele>49.17</ele>
        <time>2020-05-16T11:28:20Z</time>
      </trkpt>
      <trkpt lat="47.34689" lon="-1.4249">
        <ele>48.47</ele>
        <time>2020-05-16T11:28:22Z</time>
      </trkpt>
      <trkpt lat="47.34701" lon="-1.42474">
        <ele>47.94</ele>
        <time>2020-05-16T11:28:24Z</time>
      </trkpt>
      <trkpt lat="47.34714" lon="-1.4246">
        <ele>48.62</ele>
        <time>2020-05-16T11:28:26Z</time>
      </trkpt>
      <trkpt lat="47.34728" lon="-1.42445">
        <ele>48.58</ele>
        <time>2020-05-16T11:28:28Z</time>
      </trkpt>
      <trkpt lat="47.34735" lon="-1.42438">
        <ele>48.2</ele>
        <time>2020-05-16T11:28:29Z</time>
      </trkpt>
      <trkpt lat="47.34751" lon="-1.42427">
        <ele>47.81</ele>
        <time>2020-05-16T11:28:31Z</time>
      </trkpt>
      <trkpt lat="47.34764" lon="-1.42417">
        <ele>47.91</ele>
        <time>2020-05-16T11:28:33Z</time>
      </trkpt>
      <trkpt lat="47.34772" lon="-1.42411">
        <ele>47.92</ele>
        <time>2020-05-16T11:28:34Z</time>
      </trkpt>
      <trkpt lat="47.34781" lon="-1.42406">
        <ele>47.77</ele>
        <time>2020-05-16T11:28:35Z</time>
      </trkpt>
      <trkpt lat="47.34789" lon="-1.424">
        <ele>47.17</ele>
        <time>2020-05-16T11:28:36Z</time>
      </trkpt>
      <trkpt lat="47.34804" lon="-1.42392">
        <ele>46.57</ele>
        <time>2020-05-16T11:28:38Z</time>
      </trkpt>
      <trkpt lat="47.34819" lon="-1.42384">
        <ele>46.33</ele>
        <time>2020-05-16T11:28:40Z</time>
      </trkpt>
      <trkpt lat="47.34833" lon="-1.42374">
        <ele>44.82</ele>
        <time>2020-05-16T11:28:42Z</time>
      </trkpt>
      <trkpt lat="47.34842" lon="-1.42369">
        <ele>44.24</ele>
        <time>2020-05-16T11:28:43Z</time>
      </trkpt>
      <trkpt lat="47.34851" lon="-1.42363">
        <ele>43.76</ele>
        <time>2020-05-16T11:28:44Z</time>
      </trkpt>
      <trkpt lat="47.3486" lon="-1.42357">
        <ele>43.1</ele>
        <time>2020-05-16T11:28:45Z</time>
      </trkpt>
      <trkpt lat="47.34876" lon="-1.42346">
        <ele>42.99</ele>
        <time>2020-05-16T11:28:47Z</time>
      </trkpt>
      <trkpt lat="47.34892" lon="-1.42335">
        <ele>43.59</ele>
        <time>2020-05-16T11:28:49Z</time>
      </trkpt>
      <trkpt lat="47.34908" lon="-1.42321">
        <ele>44.54</ele>
        <time>2020-05-16T11:28:51Z</time>
      </trkpt>
      <trkpt lat="47.34922" lon="-1.42305">
        <ele>44.22</ele>
        <time>2020-05-16T11:28:53Z</time>
      </trkpt>
      <trkpt lat="47.3493" lon="-1.42284">
        <ele>43.44</ele>
        <time>2020-05-16T11:28:55Z</time>
      </trkpt>
      <trkpt lat="47.34936" lon="-1.42266">
        <ele>42.69</ele>
        <time>2020-05-16T11:28:57Z</time>
      </trkpt>
      <trkpt lat="47.34941" lon="-1.42248">
        <ele>41.93</ele>
        <time>2020-05-16T11:28:59Z</time>
      </trkpt>
      <trkpt lat="47.34945" lon="-1.42233">
        <ele>41.71</ele>
        <time>2020-05-16T11:29:01Z</time>
      </trkpt>
      <trkpt lat="47.34949" lon="-1.42217">
        <ele>41.78</ele>
        <time>2020-05-16T11:29:03Z</time>
      </trkpt>
      <trkpt lat="47.34952" lon="-1.42203">
        <ele>43.42</ele>
        <time>2020-05-16T11:29:05Z</time>
      </trkpt>
      <trkpt lat="47.34954" lon="-1.42189">
        <ele>45.25</ele>
        <time>2020-05-16T11:29:07Z</time>
      </trkpt>
      <trkpt lat="47.34956" lon="-1.42174">
        <ele>46.1</ele>
        <time>2020-05-16T11:29:09Z</time>
      </trkpt>
      <trkpt lat="47.34959" lon="-1.42159">
        <ele>46.46</ele>
        <time>2020-05-16T11:29:11Z</time>
      </trkpt>
      <trkpt lat="47.34963" lon="-1.42145">
        <ele>47.81</ele>
        <time>2020-05-16T11:29:13Z</time>
      </trkpt>
      <trkpt lat="47.34967" lon="-1.42123">
        <ele>49.77</ele>
        <time>2020-05-16T11:29:16Z</time>
      </trkpt>
      <trkpt lat="47.3497" lon="-1.42109">
        <ele>49.16</ele>
        <time>2020-05-16T11:29:18Z</time>
      </trkpt>
      <trkpt lat="47.34974" lon="-1.42094">
        <ele>48.54</ele>
        <time>2020-05-16T11:29:20Z</time>
      </trkpt>
      <trkpt lat="47.34978" lon="-1.42079">
        <ele>48</ele>
        <time>2020-05-16T11:29:22Z</time>
      </trkpt>
      <trkpt lat="47.34981" lon="-1.42066">
        <ele>47.26</ele>
        <time>2020-05-16T11:29:24Z</time>
      </trkpt>
      <trkpt lat="47.34987" lon="-1.4205">
        <ele>48.78</ele>
        <time>2020-05-16T11:29:27Z</time>
      </trkpt>
      <trkpt lat="47.34995" lon="-1.42032">
        <ele>49.42</ele>
        <time>2020-05-16T11:29:30Z</time>
      </trkpt>
      <trkpt lat="47.35001" lon="-1.42021">
        <ele>50.72</ele>
        <time>2020-05-16T11:29:32Z</time>
      </trkpt>
      <trkpt lat="47.35008" lon="-1.4201">
        <ele>52.86</ele>
        <time>2020-05-16T11:29:34Z</time>
      </trkpt>
      <trkpt lat="47.35017" lon="-1.41996">
        <ele>56.16</ele>
        <time>2020-05-16T11:29:37Z</time>
      </trkpt>
      <trkpt lat="47.35025" lon="-1.41987">
        <ele>56.71</ele>
        <time>2020-05-16T11:29:39Z</time>
      </trkpt>
      <trkpt lat="47.35033" lon="-1.41979">
        <ele>57.4</ele>
        <time>2020-05-16T11:29:41Z</time>
      </trkpt>
      <trkpt lat="47.35042" lon="-1.4197">
        <ele>57.39</ele>
        <time>2020-05-16T11:29:43Z</time>
      </trkpt>
      <trkpt lat="47.35049" lon="-1.41962">
        <ele>57.42</ele>
        <time>2020-05-16T11:29:45Z</time>
      </trkpt>
      <trkpt lat="47.35056" lon="-1.41953">
        <ele>56.41</ele>
        <time>2020-05-16T11:29:47Z</time>
      </trkpt>
      <trkpt lat="47.35068" lon="-1.41942">
        <ele>56.26</ele>
        <time>2020-05-16T11:29:50Z</time>
      </trkpt>
      <trkpt lat="47.35075" lon="-1.41934">
        <ele>57.1</ele>
        <time>2020-05-16T11:29:52Z</time>
      </trkpt>
      <trkpt lat="47.35084" lon="-1.41925">
        <ele>57.25</ele>
        <time>2020-05-16T11:29:54Z</time>
      </trkpt>
      <trkpt lat="47.35092" lon="-1.41917">
        <ele>56.86</ele>
        <time>2020-05-16T11:29:56Z</time>
      </trkpt>
      <trkpt lat="47.35101" lon="-1.4191">
        <ele>56.71</ele>
        <time>2020-05-16T11:29:58Z</time>
      </trkpt>
      <trkpt lat="47.35111" lon="-1.41899">
        <ele>56.47</ele>
        <time>2020-05-16T11:30:01Z</time>
      </trkpt>
      <trkpt lat="47.35119" lon="-1.41891">
        <ele>57.48</ele>
        <time>2020-05-16T11:30:03Z</time>
      </trkpt>
      <trkpt lat="47.35126" lon="-1.41883">
        <ele>57.29</ele>
        <time>2020-05-16T11:30:05Z</time>
      </trkpt>
      <trkpt lat="47.35134" lon="-1.41875">
        <ele>56.86</ele>
        <time>2020-05-16T11:30:07Z</time>
      </trkpt>
      <trkpt lat="47.35142" lon="-1.41865">
        <ele>56.71</ele>
        <time>2020-05-16T11:30:09Z</time>
      </trkpt>
      <trkpt lat="47.35149" lon="-1.41857">
        <ele>56.68</ele>
        <time>2020-05-16T11:30:11Z</time>
      </trkpt>
      <trkpt lat="47.3516" lon="-1.41847">
        <ele>55.5</ele>
        <time>2020-05-16T11:30:14Z</time>
      </trkpt>
      <trkpt lat="47.3517" lon="-1.41837">
        <ele>55.62</ele>
        <time>2020-05-16T11:30:16Z</time>
      </trkpt>
      <trkpt lat="47.35178" lon="-1.41829">
        <ele>55.94</ele>
        <time>2020-05-16T11:30:18Z</time>
      </trkpt>
      <trkpt lat="47.3519" lon="-1.41817">
        <ele>56.85</ele>
        <time>2020-05-16T11:30:21Z</time>
      </trkpt>
      <trkpt lat="47.35198" lon="-1.41808">
        <ele>57.24</ele>
        <time>2020-05-16T11:30:23Z</time>
      </trkpt>
      <trkpt lat="47.35206" lon="-1.418">
        <ele>57.89</ele>
        <time>2020-05-16T11:30:25Z</time>
      </trkpt>
      <trkpt lat="47.35216" lon="-1.4179">
        <ele>58.54</ele>
        <time>2020-05-16T11:30:27Z</time>
      </trkpt>
      <trkpt lat="47.35227" lon="-1.41779">
        <ele>58.13</ele>
        <time>2020-05-16T11:30:29Z</time>
      </trkpt>
      <trkpt lat="47.35236" lon="-1.41769">
        <ele>57.89</ele>
        <time>2020-05-16T11:30:31Z</time>
      </trkpt>
      <trkpt lat="47.35245" lon="-1.4176">
        <ele>57.55</ele>
        <time>2020-05-16T11:30:33Z</time>
      </trkpt>
      <trkpt lat="47.35255" lon="-1.4175">
        <ele>57.96</ele>
        <time>2020-05-16T11:30:35Z</time>
      </trkpt>
      <trkpt lat="47.35264" lon="-1.4174">
        <ele>57.64</ele>
        <time>2020-05-16T11:30:37Z</time>
      </trkpt>
      <trkpt lat="47.35274" lon="-1.41729">
        <ele>57.55</ele>
        <time>2020-05-16T11:30:39Z</time>
      </trkpt>
      <trkpt lat="47.35283" lon="-1.41719">
        <ele>58.04</ele>
        <time>2020-05-16T11:30:41Z</time>
      </trkpt>
      <trkpt lat="47.35293" lon="-1.41708">
        <ele>58.58</ele>
        <time>2020-05-16T11:30:43Z</time>
      </trkpt>
      <trkpt lat="47.35304" lon="-1.41696">
        <ele>59.18</ele>
        <time>2020-05-16T11:30:45Z</time>
      </trkpt>
      <trkpt lat="47.35313" lon="-1.41687">
        <ele>59.83</ele>
        <time>2020-05-16T11:30:47Z</time>
      </trkpt>
      <trkpt lat="47.35322" lon="-1.41677">
        <ele>60.68</ele>
        <time>2020-05-16T11:30:49Z</time>
      </trkpt>
      <trkpt lat="47.35331" lon="-1.41667">
        <ele>61.15</ele>
        <time>2020-05-16T11:30:51Z</time>
      </trkpt>
      <trkpt lat="47.35342" lon="-1.41655">
        <ele>60.84</ele>
        <time>2020-05-16T11:30:53Z</time>
      </trkpt>
      <trkpt lat="47.35354" lon="-1.41642">
        <ele>60.75</ele>
        <time>2020-05-16T11:30:55Z</time>
      </trkpt>
      <trkpt lat="47.35363" lon="-1.41632">
        <ele>61.27</ele>
        <time>2020-05-16T11:30:57Z</time>
      </trkpt>
      <trkpt lat="47.35373" lon="-1.41621">
        <ele>61.21</ele>
        <time>2020-05-16T11:30:59Z</time>
      </trkpt>
      <trkpt lat="47.35384" lon="-1.41609">
        <ele>61.18</ele>
        <time>2020-05-16T11:31:01Z</time>
      </trkpt>
      <trkpt lat="47.35394" lon="-1.41599">
        <ele>60.68</ele>
        <time>2020-05-16T11:31:03Z</time>
      </trkpt>
      <trkpt lat="47.35405" lon="-1.41588">
        <ele>60.69</ele>
        <time>2020-05-16T11:31:05Z</time>
      </trkpt>
      <trkpt lat="47.35416" lon="-1.41576">
        <ele>59.4</ele>
        <time>2020-05-16T11:31:07Z</time>
      </trkpt>
      <trkpt lat="47.35426" lon="-1.41566">
        <ele>58.95</ele>
        <time>2020-05-16T11:31:09Z</time>
      </trkpt>
      <trkpt lat="47.35435" lon="-1.41557">
        <ele>58.37</ele>
        <time>2020-05-16T11:31:11Z</time>
      </trkpt>
      <trkpt lat="47.35445" lon="-1.41546">
        <ele>58.03</ele>
        <time>2020-05-16T11:31:13Z</time>
      </trkpt>
      <trkpt lat="47.35455" lon="-1.41536">
        <ele>57.99</ele>
        <time>2020-05-16T11:31:15Z</time>
      </trkpt>
      <trkpt lat="47.35464" lon="-1.41526">
        <ele>58.68</ele>
        <time>2020-05-16T11:31:17Z</time>
      </trkpt>
      <trkpt lat="47.35473" lon="-1.41516">
        <ele>59.21</ele>
        <time>2020-05-16T11:31:19Z</time>
      </trkpt>
      <trkpt lat="47.35483" lon="-1.41505">
        <ele>59.78</ele>
        <time>2020-05-16T11:31:21Z</time>
      </trkpt>
      <trkpt lat="47.35494" lon="-1.41493">
        <ele>60.11</ele>
        <time>2020-05-16T11:31:23Z</time>
      </trkpt>
      <trkpt lat="47.35505" lon="-1.41482">
        <ele>59.47</ele>
        <time>2020-05-16T11:31:25Z</time>
      </trkpt>
      <trkpt lat="47.35514" lon="-1.41473">
        <ele>58.89</ele>
        <time>2020-05-16T11:31:27Z</time>
      </trkpt>
      <trkpt lat="47.35524" lon="-1.41462">
        <ele>57.99</ele>
        <time>2020-05-16T11:31:29Z</time>
      </trkpt>
      <trkpt lat="47.35534" lon="-1.41452">
        <ele>57.39</ele>
        <time>2020-05-16T11:31:31Z</time>
      </trkpt>
      <trkpt lat="47.35544" lon="-1.41442">
        <ele>57.52</ele>
        <time>2020-05-16T11:31:33Z</time>
      </trkpt>
      <trkpt lat="47.35553" lon="-1.41433">
        <ele>58.14</ele>
        <time>2020-05-16T11:31:35Z</time>
      </trkpt>
      <trkpt lat="47.35562" lon="-1.41423">
        <ele>58.18</ele>
        <time>2020-05-16T11:31:37Z</time>
      </trkpt>
      <trkpt lat="47.35572" lon="-1.41412">
        <ele>58.55</ele>
        <time>2020-05-16T11:31:39Z</time>
      </trkpt>
      <trkpt lat="47.35581" lon="-1.41401">
        <ele>59.05</ele>
        <time>2020-05-16T11:31:41Z</time>
      </trkpt>
      <trkpt lat="47.35592" lon="-1.4139">
        <ele>58.95</ele>
        <time>2020-05-16T11:31:43Z</time>
      </trkpt>
      <trkpt lat="47.35602" lon="-1.41377">
        <ele>59.07</ele>
        <time>2020-05-16T11:31:45Z</time>
      </trkpt>
      <trkpt lat="47.35611" lon="-1.41368">
        <ele>58.77</ele>
        <time>2020-05-16T11:31:47Z</time>
      </trkpt>
      <trkpt lat="47.35622" lon="-1.41356">
        <ele>58.92</ele>
        <time>2020-05-16T11:31:49Z</time>
      </trkpt>
      <trkpt lat="47.35632" lon="-1.41346">
        <ele>57.82</ele>
        <time>2020-05-16T11:31:51Z</time>
      </trkpt>
      <trkpt lat="47.35641" lon="-1.41337">
        <ele>58.09</ele>
        <time>2020-05-16T11:31:53Z</time>
      </trkpt>
      <trkpt lat="47.35652" lon="-1.41326">
        <ele>58.84</ele>
        <time>2020-05-16T11:31:55Z</time>
      </trkpt>
      <trkpt lat="47.35661" lon="-1.41315">
        <ele>58.61</ele>
        <time>2020-05-16T11:31:57Z</time>
      </trkpt>
      <trkpt lat="47.35671" lon="-1.41304">
        <ele>58.67</ele>
        <time>2020-05-16T11:31:59Z</time>
      </trkpt>
      <trkpt lat="47.3568" lon="-1.41292">
        <ele>58.86</ele>
        <time>2020-05-16T11:32:01Z</time>
      </trkpt>
      <trkpt lat="47.3569" lon="-1.4128">
        <ele>58.85</ele>
        <time>2020-05-16T11:32:03Z</time>
      </trkpt>
      <trkpt lat="47.357" lon="-1.41271">
        <ele>58.31</ele>
        <time>2020-05-16T11:32:05Z</time>
      </trkpt>
      <trkpt lat="47.3571" lon="-1.41264">
        <ele>58.28</ele>
        <time>2020-05-16T11:32:07Z</time>
      </trkpt>
      <trkpt lat="47.35721" lon="-1.41253">
        <ele>58.63</ele>
        <time>2020-05-16T11:32:09Z</time>
      </trkpt>
      <trkpt lat="47.35729" lon="-1.41245">
        <ele>58.95</ele>
        <time>2020-05-16T11:32:11Z</time>
      </trkpt>
      <trkpt lat="47.35739" lon="-1.41234">
        <ele>60.22</ele>
        <time>2020-05-16T11:32:13Z</time>
      </trkpt>
      <trkpt lat="47.3575" lon="-1.41222">
        <ele>61.16</ele>
        <time>2020-05-16T11:32:15Z</time>
      </trkpt>
      <trkpt lat="47.35758" lon="-1.41214">
        <ele>61.07</ele>
        <time>2020-05-16T11:32:17Z</time>
      </trkpt>
      <trkpt lat="47.35766" lon="-1.41205">
        <ele>61.58</ele>
        <time>2020-05-16T11:32:19Z</time>
      </trkpt>
      <trkpt lat="47.35775" lon="-1.41195">
        <ele>61.79</ele>
        <time>2020-05-16T11:32:21Z</time>
      </trkpt>
      <trkpt lat="47.35785" lon="-1.41184">
        <ele>60.71</ele>
        <time>2020-05-16T11:32:23Z</time>
      </trkpt>
      <trkpt lat="47.35793" lon="-1.41175">
        <ele>60.33</ele>
        <time>2020-05-16T11:32:25Z</time>
      </trkpt>
      <trkpt lat="47.35802" lon="-1.41167">
        <ele>61.02</ele>
        <time>2020-05-16T11:32:27Z</time>
      </trkpt>
      <trkpt lat="47.35811" lon="-1.41157">
        <ele>62.33</ele>
        <time>2020-05-16T11:32:29Z</time>
      </trkpt>
      <trkpt lat="47.35821" lon="-1.41147">
        <ele>62.94</ele>
        <time>2020-05-16T11:32:31Z</time>
      </trkpt>
      <trkpt lat="47.35829" lon="-1.41139">
        <ele>63.28</ele>
        <time>2020-05-16T11:32:33Z</time>
      </trkpt>
      <trkpt lat="47.35836" lon="-1.41131">
        <ele>63.34</ele>
        <time>2020-05-16T11:32:35Z</time>
      </trkpt>
      <trkpt lat="47.35844" lon="-1.41123">
        <ele>62.7</ele>
        <time>2020-05-16T11:32:38Z</time>
      </trkpt>
      <trkpt lat="47.35852" lon="-1.41113">
        <ele>61.41</ele>
        <time>2020-05-16T11:32:40Z</time>
      </trkpt>
      <trkpt lat="47.35861" lon="-1.41105">
        <ele>60.8</ele>
        <time>2020-05-16T11:32:42Z</time>
      </trkpt>
      <trkpt lat="47.35869" lon="-1.41096">
        <ele>60.84</ele>
        <time>2020-05-16T11:32:44Z</time>
      </trkpt>
      <trkpt lat="47.35878" lon="-1.41086">
        <ele>61.45</ele>
        <time>2020-05-16T11:32:46Z</time>
      </trkpt>
      <trkpt lat="47.35887" lon="-1.41076">
        <ele>62.11</ele>
        <time>2020-05-16T11:32:48Z</time>
      </trkpt>
      <trkpt lat="47.35894" lon="-1.41067">
        <ele>62.86</ele>
        <time>2020-05-16T11:32:50Z</time>
      </trkpt>
      <trkpt lat="47.35903" lon="-1.41058">
        <ele>64.02</ele>
        <time>2020-05-16T11:32:52Z</time>
      </trkpt>
      <trkpt lat="47.35912" lon="-1.41049">
        <ele>64.26</ele>
        <time>2020-05-16T11:32:54Z</time>
      </trkpt>
      <trkpt lat="47.35919" lon="-1.4104">
        <ele>64.53</ele>
        <time>2020-05-16T11:32:56Z</time>
      </trkpt>
      <trkpt lat="47.35927" lon="-1.41031">
        <ele>64.26</ele>
        <time>2020-05-16T11:32:58Z</time>
      </trkpt>
      <trkpt lat="47.35935" lon="-1.41022">
        <ele>63.88</ele>
        <time>2020-05-16T11:33:00Z</time>
      </trkpt>
      <trkpt lat="47.35944" lon="-1.41015">
        <ele>63.5</ele>
        <time>2020-05-16T11:33:02Z</time>
      </trkpt>
      <trkpt lat="47.35954" lon="-1.41005">
        <ele>63.33</ele>
        <time>2020-05-16T11:33:04Z</time>
      </trkpt>
      <trkpt lat="47.35962" lon="-1.40994">
        <ele>63.42</ele>
        <time>2020-05-16T11:33:06Z</time>
      </trkpt>
      <trkpt lat="47.3597" lon="-1.40985">
        <ele>64.3</ele>
        <time>2020-05-16T11:33:08Z</time>
      </trkpt>
      <trkpt lat="47.3598" lon="-1.40975">
        <ele>63.51</ele>
        <time>2020-05-16T11:33:10Z</time>
      </trkpt>
      <trkpt lat="47.35991" lon="-1.40964">
        <ele>61.76</ele>
        <time>2020-05-16T11:33:12Z</time>
      </trkpt>
      <trkpt lat="47.35999" lon="-1.40957">
        <ele>62.13</ele>
        <time>2020-05-16T11:33:14Z</time>
      </trkpt>
      <trkpt lat="47.36009" lon="-1.40947">
        <ele>61.35</ele>
        <time>2020-05-16T11:33:16Z</time>
      </trkpt>
      <trkpt lat="47.36019" lon="-1.40937">
        <ele>59.8</ele>
        <time>2020-05-16T11:33:18Z</time>
      </trkpt>
      <trkpt lat="47.36028" lon="-1.40928">
        <ele>59.23</ele>
        <time>2020-05-16T11:33:20Z</time>
      </trkpt>
      <trkpt lat="47.36039" lon="-1.40916">
        <ele>58.86</ele>
        <time>2020-05-16T11:33:22Z</time>
      </trkpt>
      <trkpt lat="47.36049" lon="-1.40906">
        <ele>60.33</ele>
        <time>2020-05-16T11:33:24Z</time>
      </trkpt>
      <trkpt lat="47.3606" lon="-1.40895">
        <ele>61.53</ele>
        <time>2020-05-16T11:33:26Z</time>
      </trkpt>
      <trkpt lat="47.36068" lon="-1.40885">
        <ele>61.91</ele>
        <time>2020-05-16T11:33:28Z</time>
      </trkpt>
      <trkpt lat="47.36077" lon="-1.40874">
        <ele>61.35</ele>
        <time>2020-05-16T11:33:30Z</time>
      </trkpt>
      <trkpt lat="47.36085" lon="-1.40862">
        <ele>61.86</ele>
        <time>2020-05-16T11:33:32Z</time>
      </trkpt>
      <trkpt lat="47.36093" lon="-1.40853">
        <ele>61.98</ele>
        <time>2020-05-16T11:33:34Z</time>
      </trkpt>
      <trkpt lat="47.36103" lon="-1.40847">
        <ele>61.78</ele>
        <time>2020-05-16T11:33:36Z</time>
      </trkpt>
      <trkpt lat="47.36114" lon="-1.4084">
        <ele>62.44</ele>
        <time>2020-05-16T11:33:38Z</time>
      </trkpt>
      <trkpt lat="47.36123" lon="-1.4083">
        <ele>62.57</ele>
        <time>2020-05-16T11:33:40Z</time>
      </trkpt>
      <trkpt lat="47.36132" lon="-1.40819">
        <ele>62.48</ele>
        <time>2020-05-16T11:33:42Z</time>
      </trkpt>
      <trkpt lat="47.36141" lon="-1.40808">
        <ele>62.01</ele>
        <time>2020-05-16T11:33:44Z</time>
      </trkpt>
      <trkpt lat="47.3615" lon="-1.40797">
        <ele>60.88</ele>
        <time>2020-05-16T11:33:46Z</time>
      </trkpt>
      <trkpt lat="47.36159" lon="-1.40788">
        <ele>59.95</ele>
        <time>2020-05-16T11:33:48Z</time>
      </trkpt>
      <trkpt lat="47.36167" lon="-1.40778">
        <ele>59.66</ele>
        <time>2020-05-16T11:33:50Z</time>
      </trkpt>
      <trkpt lat="47.36176" lon="-1.40768">
        <ele>60.32</ele>
        <time>2020-05-16T11:33:52Z</time>
      </trkpt>
      <trkpt lat="47.36188" lon="-1.40757">
        <ele>60.93</ele>
        <time>2020-05-16T11:33:54Z</time>
      </trkpt>
      <trkpt lat="47.36196" lon="-1.40749">
        <ele>60.76</ele>
        <time>2020-05-16T11:33:56Z</time>
      </trkpt>
      <trkpt lat="47.36204" lon="-1.40741">
        <ele>60.59</ele>
        <time>2020-05-16T11:33:58Z</time>
      </trkpt>
      <trkpt lat="47.36215" lon="-1.4073">
        <ele>60.72</ele>
        <time>2020-05-16T11:34:00Z</time>
      </trkpt>
      <trkpt lat="47.36224" lon="-1.40719">
        <ele>61.23</ele>
        <time>2020-05-16T11:34:02Z</time>
      </trkpt>
      <trkpt lat="47.36233" lon="-1.40711">
        <ele>61.96</ele>
        <time>2020-05-16T11:34:04Z</time>
      </trkpt>
      <trkpt lat="47.36242" lon="-1.40702">
        <ele>63.33</ele>
        <time>2020-05-16T11:34:06Z</time>
      </trkpt>
      <trkpt lat="47.3625" lon="-1.40693">
        <ele>64.33</ele>
        <time>2020-05-16T11:34:08Z</time>
      </trkpt>
      <trkpt lat="47.36259" lon="-1.40683">
        <ele>64.14</ele>
        <time>2020-05-16T11:34:10Z</time>
      </trkpt>
      <trkpt lat="47.36269" lon="-1.40672">
        <ele>63.83</ele>
        <time>2020-05-16T11:34:12Z</time>
      </trkpt>
      <trkpt lat="47.36279" lon="-1.40661">
        <ele>63.51</ele>
        <time>2020-05-16T11:34:14Z</time>
      </trkpt>
      <trkpt lat="47.36286" lon="-1.40653">
        <ele>64.1</ele>
        <time>2020-05-16T11:34:16Z</time>
      </trkpt>
      <trkpt lat="47.36294" lon="-1.40644">
        <ele>63.95</ele>
        <time>2020-05-16T11:34:18Z</time>
      </trkpt>
      <trkpt lat="47.36304" lon="-1.40634">
        <ele>63.47</ele>
        <time>2020-05-16T11:34:20Z</time>
      </trkpt>
      <trkpt lat="47.36313" lon="-1.40624">
        <ele>63.36</ele>
        <time>2020-05-16T11:34:22Z</time>
      </trkpt>
      <trkpt lat="47.36322" lon="-1.40614">
        <ele>63.25</ele>
        <time>2020-05-16T11:34:24Z</time>
      </trkpt>
      <trkpt lat="47.3633" lon="-1.40604">
        <ele>63.2</ele>
        <time>2020-05-16T11:34:26Z</time>
      </trkpt>
      <trkpt lat="47.3634" lon="-1.40595">
        <ele>63.33</ele>
        <time>2020-05-16T11:34:28Z</time>
      </trkpt>
      <trkpt lat="47.36349" lon="-1.40587">
        <ele>62.78</ele>
        <time>2020-05-16T11:34:30Z</time>
      </trkpt>
      <trkpt lat="47.36359" lon="-1.40578">
        <ele>61.62</ele>
        <time>2020-05-16T11:34:32Z</time>
      </trkpt>
      <trkpt lat="47.36369" lon="-1.4057">
        <ele>60.28</ele>
        <time>2020-05-16T11:34:34Z</time>
      </trkpt>
      <trkpt lat="47.3638" lon="-1.40563">
        <ele>59.57</ele>
        <time>2020-05-16T11:34:36Z</time>
      </trkpt>
      <trkpt lat="47.36391" lon="-1.40557">
        <ele>61.12</ele>
        <time>2020-05-16T11:34:38Z</time>
      </trkpt>
      <trkpt lat="47.36403" lon="-1.40553">
        <ele>61.18</ele>
        <time>2020-05-16T11:34:40Z</time>
      </trkpt>
      <trkpt lat="47.36415" lon="-1.4055">
        <ele>61.86</ele>
        <time>2020-05-16T11:34:42Z</time>
      </trkpt>
      <trkpt lat="47.36426" lon="-1.40549">
        <ele>61.48</ele>
        <time>2020-05-16T11:34:44Z</time>
      </trkpt>
      <trkpt lat="47.36439" lon="-1.40548">
        <ele>61.77</ele>
        <time>2020-05-16T11:34:46Z</time>
      </trkpt>
      <trkpt lat="47.36452" lon="-1.40548">
        <ele>62.76</ele>
        <time>2020-05-16T11:34:48Z</time>
      </trkpt>
      <trkpt lat="47.36467" lon="-1.40549">
        <ele>63.41</ele>
        <time>2020-05-16T11:34:50Z</time>
      </trkpt>
      <trkpt lat="47.36479" lon="-1.40548">
        <ele>62.48</ele>
        <time>2020-05-16T11:34:52Z</time>
      </trkpt>
      <trkpt lat="47.36493" lon="-1.4055">
        <ele>62.09</ele>
        <time>2020-05-16T11:34:54Z</time>
      </trkpt>
      <trkpt lat="47.36506" lon="-1.4055">
        <ele>62.06</ele>
        <time>2020-05-16T11:34:56Z</time>
      </trkpt>
      <trkpt lat="47.36519" lon="-1.4055">
        <ele>62.95</ele>
        <time>2020-05-16T11:34:58Z</time>
      </trkpt>
      <trkpt lat="47.36532" lon="-1.40551">
        <ele>63.54</ele>
        <time>2020-05-16T11:35:00Z</time>
      </trkpt>
      <trkpt lat="47.36544" lon="-1.4055">
        <ele>63.3</ele>
        <time>2020-05-16T11:35:02Z</time>
      </trkpt>
      <trkpt lat="47.36556" lon="-1.4055">
        <ele>62.27</ele>
        <time>2020-05-16T11:35:04Z</time>
      </trkpt>
      <trkpt lat="47.36568" lon="-1.40547">
        <ele>61.35</ele>
        <time>2020-05-16T11:35:06Z</time>
      </trkpt>
      <trkpt lat="47.36582" lon="-1.40542">
        <ele>61.85</ele>
        <time>2020-05-16T11:35:08Z</time>
      </trkpt>
      <trkpt lat="47.36594" lon="-1.40537">
        <ele>62.06</ele>
        <time>2020-05-16T11:35:10Z</time>
      </trkpt>
      <trkpt lat="47.36608" lon="-1.40539">
        <ele>61.27</ele>
        <time>2020-05-16T11:35:12Z</time>
      </trkpt>
      <trkpt lat="47.36625" lon="-1.40543">
        <ele>61.41</ele>
        <time>2020-05-16T11:35:14Z</time>
      </trkpt>
      <trkpt lat="47.36638" lon="-1.40544">
        <ele>61.26</ele>
        <time>2020-05-16T11:35:16Z</time>
      </trkpt>
      <trkpt lat="47.3665" lon="-1.4054">
        <ele>59.89</ele>
        <time>2020-05-16T11:35:18Z</time>
      </trkpt>
      <trkpt lat="47.36664" lon="-1.40533">
        <ele>57.87</ele>
        <time>2020-05-16T11:35:20Z</time>
      </trkpt>
      <trkpt lat="47.36679" lon="-1.40525">
        <ele>56.12</ele>
        <time>2020-05-16T11:35:22Z</time>
      </trkpt>
      <trkpt lat="47.36692" lon="-1.40521">
        <ele>54.12</ele>
        <time>2020-05-16T11:35:24Z</time>
      </trkpt>
      <trkpt lat="47.36708" lon="-1.40519">
        <ele>53.61</ele>
        <time>2020-05-16T11:35:26Z</time>
      </trkpt>
      <trkpt lat="47.36721" lon="-1.40517">
        <ele>54.14</ele>
        <time>2020-05-16T11:35:28Z</time>
      </trkpt>
      <trkpt lat="47.36729" lon="-1.40505">
        <ele>54.73</ele>
        <time>2020-05-16T11:35:30Z</time>
      </trkpt>
      <trkpt lat="47.36733" lon="-1.40485">
        <ele>53.77</ele>
        <time>2020-05-16T11:35:32Z</time>
      </trkpt>
      <trkpt lat="47.36736" lon="-1.40464">
        <ele>52.03</ele>
        <time>2020-05-16T11:35:34Z</time>
      </trkpt>
      <trkpt lat="47.36737" lon="-1.40441">
        <ele>49.71</ele>
        <time>2020-05-16T11:35:36Z</time>
      </trkpt>
      <trkpt lat="47.36738" lon="-1.40423">
        <ele>48.62</ele>
        <time>2020-05-16T11:35:38Z</time>
      </trkpt>
      <trkpt lat="47.3674" lon="-1.40404">
        <ele>48.23</ele>
        <time>2020-05-16T11:35:40Z</time>
      </trkpt>
      <trkpt lat="47.36742" lon="-1.40385">
        <ele>47.2</ele>
        <time>2020-05-16T11:35:42Z</time>
      </trkpt>
      <trkpt lat="47.36746" lon="-1.40364">
        <ele>47.57</ele>
        <time>2020-05-16T11:35:44Z</time>
      </trkpt>
      <trkpt lat="47.36749" lon="-1.40345">
        <ele>47.4</ele>
        <time>2020-05-16T11:35:46Z</time>
      </trkpt>
      <trkpt lat="47.36752" lon="-1.40327">
        <ele>48.15</ele>
        <time>2020-05-16T11:35:48Z</time>
      </trkpt>
      <trkpt lat="47.36754" lon="-1.40308">
        <ele>49.09</ele>
        <time>2020-05-16T11:35:50Z</time>
      </trkpt>
      <trkpt lat="47.36757" lon="-1.40288">
        <ele>48.34</ele>
        <time>2020-05-16T11:35:52Z</time>
      </trkpt>
      <trkpt lat="47.3676" lon="-1.40269">
        <ele>48.42</ele>
        <time>2020-05-16T11:35:54Z</time>
      </trkpt>
      <trkpt lat="47.36763" lon="-1.40249">
        <ele>48.43</ele>
        <time>2020-05-16T11:35:56Z</time>
      </trkpt>
      <trkpt lat="47.36765" lon="-1.40228">
        <ele>47.79</ele>
        <time>2020-05-16T11:35:58Z</time>
      </trkpt>
      <trkpt lat="47.36767" lon="-1.40207">
        <ele>46.82</ele>
        <time>2020-05-16T11:36:00Z</time>
      </trkpt>
      <trkpt lat="47.36767" lon="-1.40186">
        <ele>46.52</ele>
        <time>2020-05-16T11:36:02Z</time>
      </trkpt>
      <trkpt lat="47.36767" lon="-1.40164">
        <ele>47.16</ele>
        <time>2020-05-16T11:36:04Z</time>
      </trkpt>
      <trkpt lat="47.36767" lon="-1.4014">
        <ele>47.65</ele>
        <time>2020-05-16T11:36:06Z</time>
      </trkpt>
      <trkpt lat="47.36767" lon="-1.40118">
        <ele>47.85</ele>
        <time>2020-05-16T11:36:08Z</time>
      </trkpt>
      <trkpt lat="47.36767" lon="-1.40101">
        <ele>47.45</ele>
        <time>2020-05-16T11:36:10Z</time>
      </trkpt>
      <trkpt lat="47.36766" lon="-1.40084">
        <ele>47.5</ele>
        <time>2020-05-16T11:36:12Z</time>
      </trkpt>
      <trkpt lat="47.36766" lon="-1.40066">
        <ele>47.42</ele>
        <time>2020-05-16T11:36:14Z</time>
      </trkpt>
      <trkpt lat="47.36766" lon="-1.4005">
        <ele>47.37</ele>
        <time>2020-05-16T11:36:16Z</time>
      </trkpt>
      <trkpt lat="47.36766" lon="-1.40036">
        <ele>47.9</ele>
        <time>2020-05-16T11:36:18Z</time>
      </trkpt>
      <trkpt lat="47.36766" lon="-1.4002">
        <ele>48.99</ele>
        <time>2020-05-16T11:36:20Z</time>
      </trkpt>
      <trkpt lat="47.36766" lon="-1.39999">
        <ele>50.83</ele>
        <time>2020-05-16T11:36:23Z</time>
      </trkpt>
      <trkpt lat="47.36766" lon="-1.39983">
        <ele>51.84</ele>
        <time>2020-05-16T11:36:25Z</time>
      </trkpt>
      <trkpt lat="47.36766" lon="-1.39968">
        <ele>52.97</ele>
        <time>2020-05-16T11:36:27Z</time>
      </trkpt>
      <trkpt lat="47.36765" lon="-1.39954">
        <ele>52.09</ele>
        <time>2020-05-16T11:36:29Z</time>
      </trkpt>
      <trkpt lat="47.36765" lon="-1.3994">
        <ele>50.84</ele>
        <time>2020-05-16T11:36:31Z</time>
      </trkpt>
      <trkpt lat="47.36765" lon="-1.39925">
        <ele>50.88</ele>
        <time>2020-05-16T11:36:33Z</time>
      </trkpt>
      <trkpt lat="47.36765" lon="-1.39911">
        <ele>50.54</ele>
        <time>2020-05-16T11:36:35Z</time>
      </trkpt>
      <trkpt lat="47.36764" lon="-1.39897">
        <ele>50.52</ele>
        <time>2020-05-16T11:36:37Z</time>
      </trkpt>
      <trkpt lat="47.36762" lon="-1.39876">
        <ele>50.47</ele>
        <time>2020-05-16T11:36:40Z</time>
      </trkpt>
      <trkpt lat="47.36762" lon="-1.39862">
        <ele>50.36</ele>
        <time>2020-05-16T11:36:42Z</time>
      </trkpt>
      <trkpt lat="47.36762" lon="-1.39847">
        <ele>50.46</ele>
        <time>2020-05-16T11:36:44Z</time>
      </trkpt>
      <trkpt lat="47.36763" lon="-1.3983">
        <ele>50.7</ele>
        <time>2020-05-16T11:36:46Z</time>
      </trkpt>
      <trkpt lat="47.36765" lon="-1.39815">
        <ele>52.29</ele>
        <time>2020-05-16T11:36:48Z</time>
      </trkpt>
      <trkpt lat="47.36766" lon="-1.398">
        <ele>54.05</ele>
        <time>2020-05-16T11:36:50Z</time>
      </trkpt>
      <trkpt lat="47.36766" lon="-1.39784">
        <ele>53.93</ele>
        <time>2020-05-16T11:36:52Z</time>
      </trkpt>
      <trkpt lat="47.36766" lon="-1.3977">
        <ele>55.07</ele>
        <time>2020-05-16T11:36:54Z</time>
      </trkpt>
      <trkpt lat="47.36766" lon="-1.39747">
        <ele>56.8</ele>
        <time>2020-05-16T11:36:57Z</time>
      </trkpt>
      <trkpt lat="47.36766" lon="-1.39731">
        <ele>57.23</ele>
        <time>2020-05-16T11:36:59Z</time>
      </trkpt>
      <trkpt lat="47.36766" lon="-1.39716">
        <ele>57.24</ele>
        <time>2020-05-16T11:37:01Z</time>
      </trkpt>
      <trkpt lat="47.36766" lon="-1.39699">
        <ele>57.07</ele>
        <time>2020-05-16T11:37:03Z</time>
      </trkpt>
      <trkpt lat="47.36766" lon="-1.39686">
        <ele>57.54</ele>
        <time>2020-05-16T11:37:05Z</time>
      </trkpt>
      <trkpt lat="47.36767" lon="-1.39671">
        <ele>58.19</ele>
        <time>2020-05-16T11:37:07Z</time>
      </trkpt>
      <trkpt lat="47.36767" lon="-1.39651">
        <ele>58.91</ele>
        <time>2020-05-16T11:37:09Z</time>
      </trkpt>
      <trkpt lat="47.36767" lon="-1.39634">
        <ele>59.97</ele>
        <time>2020-05-16T11:37:11Z</time>
      </trkpt>
      <trkpt lat="47.36767" lon="-1.39616">
        <ele>60.16</ele>
        <time>2020-05-16T11:37:13Z</time>
      </trkpt>
      <trkpt lat="47.36767" lon="-1.39598">
        <ele>59.3</ele>
        <time>2020-05-16T11:37:15Z</time>
      </trkpt>
      <trkpt lat="47.36767" lon="-1.39582">
        <ele>59.67</ele>
        <time>2020-05-16T11:37:17Z</time>
      </trkpt>
      <trkpt lat="47.36767" lon="-1.39564">
        <ele>59.99</ele>
        <time>2020-05-16T11:37:19Z</time>
      </trkpt>
      <trkpt lat="47.36767" lon="-1.39544">
        <ele>59</ele>
        <time>2020-05-16T11:37:21Z</time>
      </trkpt>
      <trkpt lat="47.36767" lon="-1.39527">
        <ele>58.21</ele>
        <time>2020-05-16T11:37:23Z</time>
      </trkpt>
      <trkpt lat="47.36767" lon="-1.3951">
        <ele>58.6</ele>
        <time>2020-05-16T11:37:25Z</time>
      </trkpt>
      <trkpt lat="47.36767" lon="-1.39491">
        <ele>58.04</ele>
        <time>2020-05-16T11:37:27Z</time>
      </trkpt>
      <trkpt lat="47.36768" lon="-1.39474">
        <ele>58.23</ele>
        <time>2020-05-16T11:37:29Z</time>
      </trkpt>
      <trkpt lat="47.36769" lon="-1.39456">
        <ele>58.8</ele>
        <time>2020-05-16T11:37:31Z</time>
      </trkpt>
      <trkpt lat="47.36769" lon="-1.39438">
        <ele>59.36</ele>
        <time>2020-05-16T11:37:33Z</time>
      </trkpt>
      <trkpt lat="47.36769" lon="-1.39422">
        <ele>59.76</ele>
        <time>2020-05-16T11:37:35Z</time>
      </trkpt>
      <trkpt lat="47.3677" lon="-1.39406">
        <ele>60.3</ele>
        <time>2020-05-16T11:37:37Z</time>
      </trkpt>
      <trkpt lat="47.3677" lon="-1.39388">
        <ele>59.48</ele>
        <time>2020-05-16T11:37:39Z</time>
      </trkpt>
      <trkpt lat="47.36769" lon="-1.39371">
        <ele>58.72</ele>
        <time>2020-05-16T11:37:41Z</time>
      </trkpt>
      <trkpt lat="47.36769" lon="-1.39353">
        <ele>58.1</ele>
        <time>2020-05-16T11:37:43Z</time>
      </trkpt>
      <trkpt lat="47.36768" lon="-1.39335">
        <ele>58.04</ele>
        <time>2020-05-16T11:37:45Z</time>
      </trkpt>
      <trkpt lat="47.36766" lon="-1.39316">
        <ele>58.58</ele>
        <time>2020-05-16T11:37:47Z</time>
      </trkpt>
      <trkpt lat="47.36763" lon="-1.39299">
        <ele>58.93</ele>
        <time>2020-05-16T11:37:49Z</time>
      </trkpt>
      <trkpt lat="47.3676" lon="-1.39283">
        <ele>59.39</ele>
        <time>2020-05-16T11:37:51Z</time>
      </trkpt>
      <trkpt lat="47.36755" lon="-1.39267">
        <ele>60.76</ele>
        <time>2020-05-16T11:37:53Z</time>
      </trkpt>
      <trkpt lat="47.36749" lon="-1.39252">
        <ele>61.88</ele>
        <time>2020-05-16T11:37:55Z</time>
      </trkpt>
      <trkpt lat="47.36743" lon="-1.39238">
        <ele>62.52</ele>
        <time>2020-05-16T11:37:57Z</time>
      </trkpt>
      <trkpt lat="47.36735" lon="-1.39222">
        <ele>63.46</ele>
        <time>2020-05-16T11:37:59Z</time>
      </trkpt>
      <trkpt lat="47.36728" lon="-1.39207">
        <ele>63.19</ele>
        <time>2020-05-16T11:38:01Z</time>
      </trkpt>
      <trkpt lat="47.3672" lon="-1.39195">
        <ele>62.94</ele>
        <time>2020-05-16T11:38:03Z</time>
      </trkpt>
      <trkpt lat="47.36713" lon="-1.39182">
        <ele>63.31</ele>
        <time>2020-05-16T11:38:05Z</time>
      </trkpt>
      <trkpt lat="47.36706" lon="-1.39168">
        <ele>63.83</ele>
        <time>2020-05-16T11:38:07Z</time>
      </trkpt>
      <trkpt lat="47.36698" lon="-1.39154">
        <ele>64.22</ele>
        <time>2020-05-16T11:38:09Z</time>
      </trkpt>
      <trkpt lat="47.36691" lon="-1.39139">
        <ele>64.86</ele>
        <time>2020-05-16T11:38:11Z</time>
      </trkpt>
      <trkpt lat="47.36684" lon="-1.39126">
        <ele>65.95</ele>
        <time>2020-05-16T11:38:13Z</time>
      </trkpt>
      <trkpt lat="47.36679" lon="-1.39115">
        <ele>66.3</ele>
        <time>2020-05-16T11:38:15Z</time>
      </trkpt>
      <trkpt lat="47.36671" lon="-1.391">
        <ele>66.3</ele>
        <time>2020-05-16T11:38:17Z</time>
      </trkpt>
      <trkpt lat="47.36665" lon="-1.39086">
        <ele>67.15</ele>
        <time>2020-05-16T11:38:19Z</time>
      </trkpt>
      <trkpt lat="47.36657" lon="-1.39069">
        <ele>66.63</ele>
        <time>2020-05-16T11:38:21Z</time>
      </trkpt>
      <trkpt lat="47.3665" lon="-1.39056">
        <ele>66.95</ele>
        <time>2020-05-16T11:38:23Z</time>
      </trkpt>
      <trkpt lat="47.36643" lon="-1.39039">
        <ele>67.2</ele>
        <time>2020-05-16T11:38:25Z</time>
      </trkpt>
      <trkpt lat="47.36636" lon="-1.39024">
        <ele>66.99</ele>
        <time>2020-05-16T11:38:27Z</time>
      </trkpt>
      <trkpt lat="47.36628" lon="-1.3901">
        <ele>66.36</ele>
        <time>2020-05-16T11:38:29Z</time>
      </trkpt>
      <trkpt lat="47.3662" lon="-1.38994">
        <ele>65.79</ele>
        <time>2020-05-16T11:38:31Z</time>
      </trkpt>
      <trkpt lat="47.36613" lon="-1.38981">
        <ele>65.88</ele>
        <time>2020-05-16T11:38:33Z</time>
      </trkpt>
      <trkpt lat="47.36605" lon="-1.38965">
        <ele>65.37</ele>
        <time>2020-05-16T11:38:35Z</time>
      </trkpt>
      <trkpt lat="47.36598" lon="-1.38949">
        <ele>65</ele>
        <time>2020-05-16T11:38:37Z</time>
      </trkpt>
      <trkpt lat="47.36591" lon="-1.38937">
        <ele>65.4</ele>
        <time>2020-05-16T11:38:39Z</time>
      </trkpt>
      <trkpt lat="47.36585" lon="-1.38923">
        <ele>65.52</ele>
        <time>2020-05-16T11:38:41Z</time>
      </trkpt>
      <trkpt lat="47.36577" lon="-1.38907">
        <ele>65.35</ele>
        <time>2020-05-16T11:38:43Z</time>
      </trkpt>
      <trkpt lat="47.3657" lon="-1.38891">
        <ele>65.51</ele>
        <time>2020-05-16T11:38:45Z</time>
      </trkpt>
      <trkpt lat="47.36564" lon="-1.38877">
        <ele>65.77</ele>
        <time>2020-05-16T11:38:47Z</time>
      </trkpt>
      <trkpt lat="47.36557" lon="-1.38865">
        <ele>66.08</ele>
        <time>2020-05-16T11:38:49Z</time>
      </trkpt>
      <trkpt lat="47.36551" lon="-1.38852">
        <ele>66.74</ele>
        <time>2020-05-16T11:38:51Z</time>
      </trkpt>
      <trkpt lat="47.36543" lon="-1.38838">
        <ele>67.43</ele>
        <time>2020-05-16T11:38:53Z</time>
      </trkpt>
      <trkpt lat="47.36537" lon="-1.38824">
        <ele>67.19</ele>
        <time>2020-05-16T11:38:55Z</time>
      </trkpt>
      <trkpt lat="47.36529" lon="-1.38808">
        <ele>66.4</ele>
        <time>2020-05-16T11:38:57Z</time>
      </trkpt>
      <trkpt lat="47.36522" lon="-1.38793">
        <ele>65.7</ele>
        <time>2020-05-16T11:38:59Z</time>
      </trkpt>
      <trkpt lat="47.36514" lon="-1.38777">
        <ele>67</ele>
        <time>2020-05-16T11:39:02Z</time>
      </trkpt>
      <trkpt lat="47.36507" lon="-1.38763">
        <ele>67.79</ele>
        <time>2020-05-16T11:39:04Z</time>
      </trkpt>
      <trkpt lat="47.365" lon="-1.38748">
        <ele>68.28</ele>
        <time>2020-05-16T11:39:06Z</time>
      </trkpt>
      <trkpt lat="47.36493" lon="-1.38731">
        <ele>68.22</ele>
        <time>2020-05-16T11:39:08Z</time>
      </trkpt>
      <trkpt lat="47.36486" lon="-1.38717">
        <ele>68.51</ele>
        <time>2020-05-16T11:39:10Z</time>
      </trkpt>
      <trkpt lat="47.36479" lon="-1.38701">
        <ele>67.67</ele>
        <time>2020-05-16T11:39:12Z</time>
      </trkpt>
      <trkpt lat="47.36473" lon="-1.38687">
        <ele>66.9</ele>
        <time>2020-05-16T11:39:14Z</time>
      </trkpt>
      <trkpt lat="47.36466" lon="-1.38673">
        <ele>66.64</ele>
        <time>2020-05-16T11:39:16Z</time>
      </trkpt>
      <trkpt lat="47.36461" lon="-1.3866">
        <ele>66.27</ele>
        <time>2020-05-16T11:39:18Z</time>
      </trkpt>
      <trkpt lat="47.36455" lon="-1.38648">
        <ele>66.64</ele>
        <time>2020-05-16T11:39:20Z</time>
      </trkpt>
      <trkpt lat="47.36448" lon="-1.38633">
        <ele>66.65</ele>
        <time>2020-05-16T11:39:22Z</time>
      </trkpt>
      <trkpt lat="47.36441" lon="-1.38618">
        <ele>66.36</ele>
        <time>2020-05-16T11:39:24Z</time>
      </trkpt>
      <trkpt lat="47.36435" lon="-1.38604">
        <ele>66.32</ele>
        <time>2020-05-16T11:39:26Z</time>
      </trkpt>
      <trkpt lat="47.36428" lon="-1.38589">
        <ele>65.86</ele>
        <time>2020-05-16T11:39:28Z</time>
      </trkpt>
      <trkpt lat="47.36421" lon="-1.38574">
        <ele>66.4</ele>
        <time>2020-05-16T11:39:30Z</time>
      </trkpt>
      <trkpt lat="47.36413" lon="-1.3856">
        <ele>67.23</ele>
        <time>2020-05-16T11:39:32Z</time>
      </trkpt>
      <trkpt lat="47.36404" lon="-1.38545">
        <ele>67.21</ele>
        <time>2020-05-16T11:39:34Z</time>
      </trkpt>
      <trkpt lat="47.36395" lon="-1.38532">
        <ele>67.74</ele>
        <time>2020-05-16T11:39:36Z</time>
      </trkpt>
      <trkpt lat="47.36385" lon="-1.38517">
        <ele>68.93</ele>
        <time>2020-05-16T11:39:38Z</time>
      </trkpt>
      <trkpt lat="47.36375" lon="-1.38502">
        <ele>69.09</ele>
        <time>2020-05-16T11:39:40Z</time>
      </trkpt>
      <trkpt lat="47.36366" lon="-1.38489">
        <ele>68.4</ele>
        <time>2020-05-16T11:39:42Z</time>
      </trkpt>
      <trkpt lat="47.36355" lon="-1.38474">
        <ele>68.34</ele>
        <time>2020-05-16T11:39:44Z</time>
      </trkpt>
      <trkpt lat="47.36345" lon="-1.38459">
        <ele>68.08</ele>
        <time>2020-05-16T11:39:46Z</time>
      </trkpt>
      <trkpt lat="47.36334" lon="-1.38444">
        <ele>67.77</ele>
        <time>2020-05-16T11:39:48Z</time>
      </trkpt>
      <trkpt lat="47.36324" lon="-1.38428">
        <ele>67.76</ele>
        <time>2020-05-16T11:39:50Z</time>
      </trkpt>
      <trkpt lat="47.36314" lon="-1.38414">
        <ele>68.26</ele>
        <time>2020-05-16T11:39:52Z</time>
      </trkpt>
      <trkpt lat="47.36304" lon="-1.384">
        <ele>68.18</ele>
        <time>2020-05-16T11:39:54Z</time>
      </trkpt>
      <trkpt lat="47.36294" lon="-1.38386">
        <ele>68.44</ele>
        <time>2020-05-16T11:39:56Z</time>
      </trkpt>
      <trkpt lat="47.36283" lon="-1.3837">
        <ele>68.96</ele>
        <time>2020-05-16T11:39:58Z</time>
      </trkpt>
      <trkpt lat="47.36272" lon="-1.38354">
        <ele>69.35</ele>
        <time>2020-05-16T11:40:00Z</time>
      </trkpt>
      <trkpt lat="47.36262" lon="-1.38338">
        <ele>68.62</ele>
        <time>2020-05-16T11:40:02Z</time>
      </trkpt>
      <trkpt lat="47.36253" lon="-1.38324">
        <ele>67.94</ele>
        <time>2020-05-16T11:40:04Z</time>
      </trkpt>
      <trkpt lat="47.36242" lon="-1.38307">
        <ele>66.75</ele>
        <time>2020-05-16T11:40:06Z</time>
      </trkpt>
      <trkpt lat="47.36233" lon="-1.38291">
        <ele>66.02</ele>
        <time>2020-05-16T11:40:08Z</time>
      </trkpt>
      <trkpt lat="47.36223" lon="-1.38275">
        <ele>65.85</ele>
        <time>2020-05-16T11:40:10Z</time>
      </trkpt>
      <trkpt lat="47.36211" lon="-1.38258">
        <ele>65.18</ele>
        <time>2020-05-16T11:40:12Z</time>
      </trkpt>
      <trkpt lat="47.36201" lon="-1.38243">
        <ele>64.9</ele>
        <time>2020-05-16T11:40:14Z</time>
      </trkpt>
      <trkpt lat="47.36192" lon="-1.38228">
        <ele>64.79</ele>
        <time>2020-05-16T11:40:16Z</time>
      </trkpt>
      <trkpt lat="47.36183" lon="-1.38213">
        <ele>65.21</ele>
        <time>2020-05-16T11:40:18Z</time>
      </trkpt>
      <trkpt lat="47.36173" lon="-1.38199">
        <ele>66.02</ele>
        <time>2020-05-16T11:40:20Z</time>
      </trkpt>
      <trkpt lat="47.36164" lon="-1.38186">
        <ele>66.18</ele>
        <time>2020-05-16T11:40:22Z</time>
      </trkpt>
      <trkpt lat="47.36154" lon="-1.3817">
        <ele>66.63</ele>
        <time>2020-05-16T11:40:24Z</time>
      </trkpt>
      <trkpt lat="47.36145" lon="-1.38157">
        <ele>67.8</ele>
        <time>2020-05-16T11:40:26Z</time>
      </trkpt>
      <trkpt lat="47.36135" lon="-1.38142">
        <ele>69.11</ele>
        <time>2020-05-16T11:40:28Z</time>
      </trkpt>
      <trkpt lat="47.36127" lon="-1.3813">
        <ele>70.16</ele>
        <time>2020-05-16T11:40:30Z</time>
      </trkpt>
      <trkpt lat="47.36118" lon="-1.38117">
        <ele>71.03</ele>
        <time>2020-05-16T11:40:32Z</time>
      </trkpt>
      <trkpt lat="47.36107" lon="-1.38101">
        <ele>71.42</ele>
        <time>2020-05-16T11:40:34Z</time>
      </trkpt>
      <trkpt lat="47.36097" lon="-1.38086">
        <ele>71.28</ele>
        <time>2020-05-16T11:40:36Z</time>
      </trkpt>
      <trkpt lat="47.36087" lon="-1.38072">
        <ele>70.73</ele>
        <time>2020-05-16T11:40:38Z</time>
      </trkpt>
      <trkpt lat="47.36078" lon="-1.38058">
        <ele>70.4</ele>
        <time>2020-05-16T11:40:40Z</time>
      </trkpt>
      <trkpt lat="47.36069" lon="-1.38044">
        <ele>70.7</ele>
        <time>2020-05-16T11:40:42Z</time>
      </trkpt>
      <trkpt lat="47.3606" lon="-1.38029">
        <ele>71.26</ele>
        <time>2020-05-16T11:40:44Z</time>
      </trkpt>
      <trkpt lat="47.3605" lon="-1.38016">
        <ele>71.82</ele>
        <time>2020-05-16T11:40:46Z</time>
      </trkpt>
      <trkpt lat="47.3604" lon="-1.38">
        <ele>72.25</ele>
        <time>2020-05-16T11:40:48Z</time>
      </trkpt>
      <trkpt lat="47.36031" lon="-1.37987">
        <ele>72.27</ele>
        <time>2020-05-16T11:40:50Z</time>
      </trkpt>
      <trkpt lat="47.36021" lon="-1.37972">
        <ele>72.11</ele>
        <time>2020-05-16T11:40:52Z</time>
      </trkpt>
      <trkpt lat="47.36011" lon="-1.37956">
        <ele>71.39</ele>
        <time>2020-05-16T11:40:54Z</time>
      </trkpt>
      <trkpt lat="47.36002" lon="-1.37943">
        <ele>71.14</ele>
        <time>2020-05-16T11:40:56Z</time>
      </trkpt>
      <trkpt lat="47.35994" lon="-1.3793">
        <ele>71.42</ele>
        <time>2020-05-16T11:40:58Z</time>
      </trkpt>
      <trkpt lat="47.35985" lon="-1.37919">
        <ele>72.01</ele>
        <time>2020-05-16T11:41:00Z</time>
      </trkpt>
      <trkpt lat="47.35974" lon="-1.37905">
        <ele>72.04</ele>
        <time>2020-05-16T11:41:02Z</time>
      </trkpt>
      <trkpt lat="47.35966" lon="-1.37893">
        <ele>71.88</ele>
        <time>2020-05-16T11:41:04Z</time>
      </trkpt>
      <trkpt lat="47.35957" lon="-1.37879">
        <ele>72.14</ele>
        <time>2020-05-16T11:41:06Z</time>
      </trkpt>
      <trkpt lat="47.35949" lon="-1.37866">
        <ele>72.65</ele>
        <time>2020-05-16T11:41:08Z</time>
      </trkpt>
      <trkpt lat="47.3594" lon="-1.37853">
        <ele>73.42</ele>
        <time>2020-05-16T11:41:10Z</time>
      </trkpt>
      <trkpt lat="47.3593" lon="-1.37839">
        <ele>73.71</ele>
        <time>2020-05-16T11:41:12Z</time>
      </trkpt>
      <trkpt lat="47.35921" lon="-1.37825">
        <ele>73.22</ele>
        <time>2020-05-16T11:41:14Z</time>
      </trkpt>
      <trkpt lat="47.35913" lon="-1.37811">
        <ele>73.53</ele>
        <time>2020-05-16T11:41:16Z</time>
      </trkpt>
      <trkpt lat="47.35903" lon="-1.37798">
        <ele>73.73</ele>
        <time>2020-05-16T11:41:18Z</time>
      </trkpt>
      <trkpt lat="47.35893" lon="-1.37782">
        <ele>73.54</ele>
        <time>2020-05-16T11:41:20Z</time>
      </trkpt>
      <trkpt lat="47.35886" lon="-1.37772">
        <ele>73.81</ele>
        <time>2020-05-16T11:41:22Z</time>
      </trkpt>
      <trkpt lat="47.35878" lon="-1.37759">
        <ele>74.1</ele>
        <time>2020-05-16T11:41:24Z</time>
      </trkpt>
      <trkpt lat="47.35869" lon="-1.37746">
        <ele>75.04</ele>
        <time>2020-05-16T11:41:26Z</time>
      </trkpt>
      <trkpt lat="47.35861" lon="-1.37731">
        <ele>75.63</ele>
        <time>2020-05-16T11:41:28Z</time>
      </trkpt>
      <trkpt lat="47.35852" lon="-1.37718">
        <ele>76.81</ele>
        <time>2020-05-16T11:41:30Z</time>
      </trkpt>
      <trkpt lat="47.35844" lon="-1.37706">
        <ele>76.87</ele>
        <time>2020-05-16T11:41:32Z</time>
      </trkpt>
      <trkpt lat="47.35836" lon="-1.37693">
        <ele>77.11</ele>
        <time>2020-05-16T11:41:34Z</time>
      </trkpt>
      <trkpt lat="47.35827" lon="-1.37679">
        <ele>77.64</ele>
        <time>2020-05-16T11:41:36Z</time>
      </trkpt>
      <trkpt lat="47.35818" lon="-1.37666">
        <ele>78.35</ele>
        <time>2020-05-16T11:41:38Z</time>
      </trkpt>
      <trkpt lat="47.35808" lon="-1.37652">
        <ele>78.35</ele>
        <time>2020-05-16T11:41:40Z</time>
      </trkpt>
      <trkpt lat="47.35799" lon="-1.37638">
        <ele>77.79</ele>
        <time>2020-05-16T11:41:42Z</time>
      </trkpt>
      <trkpt lat="47.35792" lon="-1.37628">
        <ele>77.12</ele>
        <time>2020-05-16T11:41:44Z</time>
      </trkpt>
      <trkpt lat="47.35783" lon="-1.37615">
        <ele>77.53</ele>
        <time>2020-05-16T11:41:46Z</time>
      </trkpt>
      <trkpt lat="47.35773" lon="-1.37601">
        <ele>77.33</ele>
        <time>2020-05-16T11:41:48Z</time>
      </trkpt>
      <trkpt lat="47.35765" lon="-1.37589">
        <ele>77.54</ele>
        <time>2020-05-16T11:41:50Z</time>
      </trkpt>
      <trkpt lat="47.35757" lon="-1.37576">
        <ele>78.59</ele>
        <time>2020-05-16T11:41:52Z</time>
      </trkpt>
      <trkpt lat="47.35748" lon="-1.37563">
        <ele>79.12</ele>
        <time>2020-05-16T11:41:54Z</time>
      </trkpt>
      <trkpt lat="47.35739" lon="-1.3755">
        <ele>79.3</ele>
        <time>2020-05-16T11:41:56Z</time>
      </trkpt>
      <trkpt lat="47.35729" lon="-1.37535">
        <ele>78.75</ele>
        <time>2020-05-16T11:41:58Z</time>
      </trkpt>
      <trkpt lat="47.35721" lon="-1.37523">
        <ele>78.59</ele>
        <time>2020-05-16T11:42:00Z</time>
      </trkpt>
      <trkpt lat="47.35712" lon="-1.37509">
        <ele>77.87</ele>
        <time>2020-05-16T11:42:02Z</time>
      </trkpt>
      <trkpt lat="47.35703" lon="-1.37497">
        <ele>77.92</ele>
        <time>2020-05-16T11:42:04Z</time>
      </trkpt>
      <trkpt lat="47.35694" lon="-1.37483">
        <ele>77.66</ele>
        <time>2020-05-16T11:42:06Z</time>
      </trkpt>
      <trkpt lat="47.35686" lon="-1.37471">
        <ele>77.9</ele>
        <time>2020-05-16T11:42:08Z</time>
      </trkpt>
      <trkpt lat="47.35677" lon="-1.37457">
        <ele>77.48</ele>
        <time>2020-05-16T11:42:10Z</time>
      </trkpt>
      <trkpt lat="47.35669" lon="-1.37444">
        <ele>78.06</ele>
        <time>2020-05-16T11:42:12Z</time>
      </trkpt>
      <trkpt lat="47.3566" lon="-1.3743">
        <ele>78.86</ele>
        <time>2020-05-16T11:42:14Z</time>
      </trkpt>
      <trkpt lat="47.35652" lon="-1.37418">
        <ele>78.86</ele>
        <time>2020-05-16T11:42:15Z</time>
      </trkpt>
      <trkpt lat="47.35643" lon="-1.37405">
        <ele>79.03</ele>
        <time>2020-05-16T11:42:17Z</time>
      </trkpt>
      <trkpt lat="47.35633" lon="-1.37391">
        <ele>79.67</ele>
        <time>2020-05-16T11:42:19Z</time>
      </trkpt>
      <trkpt lat="47.35626" lon="-1.3738">
        <ele>80.11</ele>
        <time>2020-05-16T11:42:21Z</time>
      </trkpt>
      <trkpt lat="47.35616" lon="-1.37365">
        <ele>79.83</ele>
        <time>2020-05-16T11:42:23Z</time>
      </trkpt>
      <trkpt lat="47.35607" lon="-1.37351">
        <ele>80.17</ele>
        <time>2020-05-16T11:42:25Z</time>
      </trkpt>
      <trkpt lat="47.35597" lon="-1.37337">
        <ele>80.78</ele>
        <time>2020-05-16T11:42:27Z</time>
      </trkpt>
      <trkpt lat="47.35589" lon="-1.37325">
        <ele>81.02</ele>
        <time>2020-05-16T11:42:29Z</time>
      </trkpt>
      <trkpt lat="47.35581" lon="-1.37313">
        <ele>82.13</ele>
        <time>2020-05-16T11:42:31Z</time>
      </trkpt>
      <trkpt lat="47.35571" lon="-1.37298">
        <ele>83.01</ele>
        <time>2020-05-16T11:42:33Z</time>
      </trkpt>
      <trkpt lat="47.3556" lon="-1.37284">
        <ele>83.14</ele>
        <time>2020-05-16T11:42:35Z</time>
      </trkpt>
      <trkpt lat="47.35551" lon="-1.3727">
        <ele>82.09</ele>
        <time>2020-05-16T11:42:37Z</time>
      </trkpt>
      <trkpt lat="47.3554" lon="-1.37254">
        <ele>81</ele>
        <time>2020-05-16T11:42:39Z</time>
      </trkpt>
      <trkpt lat="47.3553" lon="-1.37239">
        <ele>81.13</ele>
        <time>2020-05-16T11:42:41Z</time>
      </trkpt>
      <trkpt lat="47.35519" lon="-1.37224">
        <ele>81.21</ele>
        <time>2020-05-16T11:42:43Z</time>
      </trkpt>
      <trkpt lat="47.35509" lon="-1.3721">
        <ele>81.09</ele>
        <time>2020-05-16T11:42:45Z</time>
      </trkpt>
      <trkpt lat="47.355" lon="-1.37196">
        <ele>80.64</ele>
        <time>2020-05-16T11:42:47Z</time>
      </trkpt>
      <trkpt lat="47.35491" lon="-1.37181">
        <ele>79.96</ele>
        <time>2020-05-16T11:42:49Z</time>
      </trkpt>
      <trkpt lat="47.35483" lon="-1.37168">
        <ele>79</ele>
        <time>2020-05-16T11:42:51Z</time>
      </trkpt>
      <trkpt lat="47.35475" lon="-1.37155">
        <ele>79.42</ele>
        <time>2020-05-16T11:42:53Z</time>
      </trkpt>
      <trkpt lat="47.35465" lon="-1.3714">
        <ele>78.22</ele>
        <time>2020-05-16T11:42:55Z</time>
      </trkpt>
      <trkpt lat="47.35457" lon="-1.37126">
        <ele>77.36</ele>
        <time>2020-05-16T11:42:57Z</time>
      </trkpt>
      <trkpt lat="47.35449" lon="-1.37114">
        <ele>77.39</ele>
        <time>2020-05-16T11:42:59Z</time>
      </trkpt>
      <trkpt lat="47.35441" lon="-1.37101">
        <ele>77.58</ele>
        <time>2020-05-16T11:43:01Z</time>
      </trkpt>
      <trkpt lat="47.35432" lon="-1.37088">
        <ele>78.89</ele>
        <time>2020-05-16T11:43:03Z</time>
      </trkpt>
      <trkpt lat="47.35421" lon="-1.37072">
        <ele>80.54</ele>
        <time>2020-05-16T11:43:05Z</time>
      </trkpt>
      <trkpt lat="47.35413" lon="-1.3706">
        <ele>81.84</ele>
        <time>2020-05-16T11:43:07Z</time>
      </trkpt>
      <trkpt lat="47.35405" lon="-1.37048">
        <ele>82.64</ele>
        <time>2020-05-16T11:43:09Z</time>
      </trkpt>
      <trkpt lat="47.35395" lon="-1.37035">
        <ele>84.17</ele>
        <time>2020-05-16T11:43:11Z</time>
      </trkpt>
      <trkpt lat="47.35387" lon="-1.37024">
        <ele>84.4</ele>
        <time>2020-05-16T11:43:13Z</time>
      </trkpt>
      <trkpt lat="47.35378" lon="-1.3701">
        <ele>83.89</ele>
        <time>2020-05-16T11:43:15Z</time>
      </trkpt>
      <trkpt lat="47.3537" lon="-1.36996">
        <ele>83.07</ele>
        <time>2020-05-16T11:43:17Z</time>
      </trkpt>
      <trkpt lat="47.35362" lon="-1.36983">
        <ele>82.21</ele>
        <time>2020-05-16T11:43:19Z</time>
      </trkpt>
      <trkpt lat="47.35353" lon="-1.36969">
        <ele>82.15</ele>
        <time>2020-05-16T11:43:21Z</time>
      </trkpt>
      <trkpt lat="47.35344" lon="-1.36956">
        <ele>81.85</ele>
        <time>2020-05-16T11:43:23Z</time>
      </trkpt>
      <trkpt lat="47.35338" lon="-1.36946">
        <ele>80.98</ele>
        <time>2020-05-16T11:43:25Z</time>
      </trkpt>
      <trkpt lat="47.3533" lon="-1.36934">
        <ele>80.55</ele>
        <time>2020-05-16T11:43:27Z</time>
      </trkpt>
      <trkpt lat="47.35321" lon="-1.36921">
        <ele>81.44</ele>
        <time>2020-05-16T11:43:29Z</time>
      </trkpt>
      <trkpt lat="47.35312" lon="-1.36906">
        <ele>81.19</ele>
        <time>2020-05-16T11:43:31Z</time>
      </trkpt>
      <trkpt lat="47.35302" lon="-1.36891">
        <ele>81.31</ele>
        <time>2020-05-16T11:43:33Z</time>
      </trkpt>
      <trkpt lat="47.35294" lon="-1.36878">
        <ele>82.25</ele>
        <time>2020-05-16T11:43:35Z</time>
      </trkpt>
      <trkpt lat="47.35286" lon="-1.36864">
        <ele>81.43</ele>
        <time>2020-05-16T11:43:37Z</time>
      </trkpt>
      <trkpt lat="47.35278" lon="-1.36852">
        <ele>80.98</ele>
        <time>2020-05-16T11:43:39Z</time>
      </trkpt>
      <trkpt lat="47.35269" lon="-1.36838">
        <ele>81.27</ele>
        <time>2020-05-16T11:43:41Z</time>
      </trkpt>
      <trkpt lat="47.3526" lon="-1.36825">
        <ele>81.74</ele>
        <time>2020-05-16T11:43:43Z</time>
      </trkpt>
      <trkpt lat="47.3525" lon="-1.36811">
        <ele>81.68</ele>
        <time>2020-05-16T11:43:45Z</time>
      </trkpt>
      <trkpt lat="47.35242" lon="-1.36799">
        <ele>81.67</ele>
        <time>2020-05-16T11:43:47Z</time>
      </trkpt>
      <trkpt lat="47.35231" lon="-1.36784">
        <ele>81.76</ele>
        <time>2020-05-16T11:43:49Z</time>
      </trkpt>
      <trkpt lat="47.35223" lon="-1.36771">
        <ele>83.59</ele>
        <time>2020-05-16T11:43:51Z</time>
      </trkpt>
      <trkpt lat="47.35212" lon="-1.36756">
        <ele>84.34</ele>
        <time>2020-05-16T11:43:53Z</time>
      </trkpt>
      <trkpt lat="47.35204" lon="-1.36745">
        <ele>85.75</ele>
        <time>2020-05-16T11:43:55Z</time>
      </trkpt>
      <trkpt lat="47.35195" lon="-1.36732">
        <ele>86.5</ele>
        <time>2020-05-16T11:43:57Z</time>
      </trkpt>
      <trkpt lat="47.35184" lon="-1.36715">
        <ele>86.62</ele>
        <time>2020-05-16T11:43:59Z</time>
      </trkpt>
      <trkpt lat="47.35177" lon="-1.36702">
        <ele>86.22</ele>
        <time>2020-05-16T11:44:01Z</time>
      </trkpt>
      <trkpt lat="47.35169" lon="-1.36688">
        <ele>85.05</ele>
        <time>2020-05-16T11:44:03Z</time>
      </trkpt>
      <trkpt lat="47.3516" lon="-1.36674">
        <ele>83.18</ele>
        <time>2020-05-16T11:44:05Z</time>
      </trkpt>
      <trkpt lat="47.35151" lon="-1.36659">
        <ele>81.76</ele>
        <time>2020-05-16T11:44:07Z</time>
      </trkpt>
      <trkpt lat="47.35142" lon="-1.36644">
        <ele>80.28</ele>
        <time>2020-05-16T11:44:09Z</time>
      </trkpt>
      <trkpt lat="47.35133" lon="-1.36631">
        <ele>79.01</ele>
        <time>2020-05-16T11:44:11Z</time>
      </trkpt>
      <trkpt lat="47.35125" lon="-1.36621">
        <ele>79.03</ele>
        <time>2020-05-16T11:44:13Z</time>
      </trkpt>
      <trkpt lat="47.35114" lon="-1.36607">
        <ele>79.55</ele>
        <time>2020-05-16T11:44:15Z</time>
      </trkpt>
      <trkpt lat="47.35104" lon="-1.36592">
        <ele>80.9</ele>
        <time>2020-05-16T11:44:17Z</time>
      </trkpt>
      <trkpt lat="47.35095" lon="-1.36579">
        <ele>81.83</ele>
        <time>2020-05-16T11:44:19Z</time>
      </trkpt>
      <trkpt lat="47.35086" lon="-1.36566">
        <ele>83.22</ele>
        <time>2020-05-16T11:44:21Z</time>
      </trkpt>
      <trkpt lat="47.35077" lon="-1.36555">
        <ele>83.85</ele>
        <time>2020-05-16T11:44:23Z</time>
      </trkpt>
      <trkpt lat="47.35069" lon="-1.36541">
        <ele>84.19</ele>
        <time>2020-05-16T11:44:25Z</time>
      </trkpt>
      <trkpt lat="47.3506" lon="-1.36527">
        <ele>84.26</ele>
        <time>2020-05-16T11:44:27Z</time>
      </trkpt>
      <trkpt lat="47.3505" lon="-1.3651">
        <ele>83.51</ele>
        <time>2020-05-16T11:44:29Z</time>
      </trkpt>
      <trkpt lat="47.35041" lon="-1.36494">
        <ele>82.09</ele>
        <time>2020-05-16T11:44:31Z</time>
      </trkpt>
      <trkpt lat="47.35033" lon="-1.3648">
        <ele>81.63</ele>
        <time>2020-05-16T11:44:33Z</time>
      </trkpt>
      <trkpt lat="47.35024" lon="-1.36465">
        <ele>79.58</ele>
        <time>2020-05-16T11:44:35Z</time>
      </trkpt>
      <trkpt lat="47.35013" lon="-1.36449">
        <ele>78.98</ele>
        <time>2020-05-16T11:44:37Z</time>
      </trkpt>
      <trkpt lat="47.35004" lon="-1.36438">
        <ele>77.99</ele>
        <time>2020-05-16T11:44:39Z</time>
      </trkpt>
      <trkpt lat="47.34994" lon="-1.36425">
        <ele>78.28</ele>
        <time>2020-05-16T11:44:41Z</time>
      </trkpt>
      <trkpt lat="47.34982" lon="-1.36412">
        <ele>80.11</ele>
        <time>2020-05-16T11:44:43Z</time>
      </trkpt>
      <trkpt lat="47.34971" lon="-1.364">
        <ele>82.31</ele>
        <time>2020-05-16T11:44:45Z</time>
      </trkpt>
      <trkpt lat="47.34961" lon="-1.36388">
        <ele>83.79</ele>
        <time>2020-05-16T11:44:47Z</time>
      </trkpt>
      <trkpt lat="47.34949" lon="-1.36374">
        <ele>84.27</ele>
        <time>2020-05-16T11:44:49Z</time>
      </trkpt>
      <trkpt lat="47.34938" lon="-1.36361">
        <ele>83.57</ele>
        <time>2020-05-16T11:44:51Z</time>
      </trkpt>
      <trkpt lat="47.34927" lon="-1.36349">
        <ele>82.49</ele>
        <time>2020-05-16T11:44:53Z</time>
      </trkpt>
      <trkpt lat="47.34918" lon="-1.36337">
        <ele>82.07</ele>
        <time>2020-05-16T11:44:55Z</time>
      </trkpt>
      <trkpt lat="47.34908" lon="-1.36323">
        <ele>82.27</ele>
        <time>2020-05-16T11:44:57Z</time>
      </trkpt>
      <trkpt lat="47.34899" lon="-1.36308">
        <ele>82.55</ele>
        <time>2020-05-16T11:44:59Z</time>
      </trkpt>
      <trkpt lat="47.34889" lon="-1.36292">
        <ele>82.9</ele>
        <time>2020-05-16T11:45:01Z</time>
      </trkpt>
      <trkpt lat="47.34879" lon="-1.36275">
        <ele>81.86</ele>
        <time>2020-05-16T11:45:03Z</time>
      </trkpt>
      <trkpt lat="47.34869" lon="-1.36259">
        <ele>80.66</ele>
        <time>2020-05-16T11:45:05Z</time>
      </trkpt>
      <trkpt lat="47.34861" lon="-1.36246">
        <ele>79.78</ele>
        <time>2020-05-16T11:45:07Z</time>
      </trkpt>
      <trkpt lat="47.34853" lon="-1.36233">
        <ele>79.17</ele>
        <time>2020-05-16T11:45:09Z</time>
      </trkpt>
      <trkpt lat="47.34846" lon="-1.36221">
        <ele>79.27</ele>
        <time>2020-05-16T11:45:11Z</time>
      </trkpt>
      <trkpt lat="47.34836" lon="-1.36206">
        <ele>79.63</ele>
        <time>2020-05-16T11:45:13Z</time>
      </trkpt>
      <trkpt lat="47.34829" lon="-1.36193">
        <ele>79.97</ele>
        <time>2020-05-16T11:45:15Z</time>
      </trkpt>
      <trkpt lat="47.34819" lon="-1.3618">
        <ele>81.05</ele>
        <time>2020-05-16T11:45:17Z</time>
      </trkpt>
      <trkpt lat="47.34809" lon="-1.36165">
        <ele>81.14</ele>
        <time>2020-05-16T11:45:19Z</time>
      </trkpt>
      <trkpt lat="47.34802" lon="-1.36154">
        <ele>80.27</ele>
        <time>2020-05-16T11:45:21Z</time>
      </trkpt>
      <trkpt lat="47.34794" lon="-1.36143">
        <ele>80.74</ele>
        <time>2020-05-16T11:45:23Z</time>
      </trkpt>
      <trkpt lat="47.34784" lon="-1.3613">
        <ele>81.94</ele>
        <time>2020-05-16T11:45:25Z</time>
      </trkpt>
      <trkpt lat="47.34773" lon="-1.36116">
        <ele>82.8</ele>
        <time>2020-05-16T11:45:27Z</time>
      </trkpt>
      <trkpt lat="47.34764" lon="-1.36105">
        <ele>82.6</ele>
        <time>2020-05-16T11:45:29Z</time>
      </trkpt>
      <trkpt lat="47.34755" lon="-1.36093">
        <ele>82.76</ele>
        <time>2020-05-16T11:45:31Z</time>
      </trkpt>
      <trkpt lat="47.34745" lon="-1.36082">
        <ele>83.57</ele>
        <time>2020-05-16T11:45:33Z</time>
      </trkpt>
      <trkpt lat="47.34735" lon="-1.3607">
        <ele>84.01</ele>
        <time>2020-05-16T11:45:35Z</time>
      </trkpt>
      <trkpt lat="47.34725" lon="-1.36059">
        <ele>84.38</ele>
        <time>2020-05-16T11:45:37Z</time>
      </trkpt>
      <trkpt lat="47.34715" lon="-1.36048">
        <ele>84.5</ele>
        <time>2020-05-16T11:45:39Z</time>
      </trkpt>
      <trkpt lat="47.34703" lon="-1.36034">
        <ele>83.84</ele>
        <time>2020-05-16T11:45:41Z</time>
      </trkpt>
      <trkpt lat="47.34693" lon="-1.36022">
        <ele>83.61</ele>
        <time>2020-05-16T11:45:43Z</time>
      </trkpt>
      <trkpt lat="47.34681" lon="-1.36009">
        <ele>83.09</ele>
        <time>2020-05-16T11:45:45Z</time>
      </trkpt>
      <trkpt lat="47.34669" lon="-1.35996">
        <ele>82.42</ele>
        <time>2020-05-16T11:45:47Z</time>
      </trkpt>
      <trkpt lat="47.34657" lon="-1.35983">
        <ele>81.91</ele>
        <time>2020-05-16T11:45:49Z</time>
      </trkpt>
      <trkpt lat="47.34645" lon="-1.3597">
        <ele>81.68</ele>
        <time>2020-05-16T11:45:51Z</time>
      </trkpt>
      <trkpt lat="47.34634" lon="-1.35957">
        <ele>81.27</ele>
        <time>2020-05-16T11:45:53Z</time>
      </trkpt>
      <trkpt lat="47.34621" lon="-1.35943">
        <ele>80.16</ele>
        <time>2020-05-16T11:45:55Z</time>
      </trkpt>
      <trkpt lat="47.34609" lon="-1.3593">
        <ele>79.24</ele>
        <time>2020-05-16T11:45:57Z</time>
      </trkpt>
      <trkpt lat="47.34599" lon="-1.35918">
        <ele>78.66</ele>
        <time>2020-05-16T11:45:59Z</time>
      </trkpt>
      <trkpt lat="47.34588" lon="-1.35905">
        <ele>78.53</ele>
        <time>2020-05-16T11:46:01Z</time>
      </trkpt>
      <trkpt lat="47.34577" lon="-1.3589">
        <ele>77.29</ele>
        <time>2020-05-16T11:46:03Z</time>
      </trkpt>
      <trkpt lat="47.34567" lon="-1.35877">
        <ele>75.77</ele>
        <time>2020-05-16T11:46:05Z</time>
      </trkpt>
      <trkpt lat="47.34559" lon="-1.35866">
        <ele>76.02</ele>
        <time>2020-05-16T11:46:07Z</time>
      </trkpt>
      <trkpt lat="47.34549" lon="-1.35852">
        <ele>76.26</ele>
        <time>2020-05-16T11:46:09Z</time>
      </trkpt>
      <trkpt lat="47.34539" lon="-1.35836">
        <ele>76.22</ele>
        <time>2020-05-16T11:46:11Z</time>
      </trkpt>
      <trkpt lat="47.3453" lon="-1.3582">
        <ele>77.53</ele>
        <time>2020-05-16T11:46:13Z</time>
      </trkpt>
      <trkpt lat="47.34522" lon="-1.35803">
        <ele>78.68</ele>
        <time>2020-05-16T11:46:15Z</time>
      </trkpt>
      <trkpt lat="47.34514" lon="-1.35788">
        <ele>80.02</ele>
        <time>2020-05-16T11:46:17Z</time>
      </trkpt>
      <trkpt lat="47.34505" lon="-1.35772">
        <ele>80.38</ele>
        <time>2020-05-16T11:46:19Z</time>
      </trkpt>
      <trkpt lat="47.34497" lon="-1.35758">
        <ele>81.25</ele>
        <time>2020-05-16T11:46:21Z</time>
      </trkpt>
      <trkpt lat="47.3449" lon="-1.35745">
        <ele>82.33</ele>
        <time>2020-05-16T11:46:23Z</time>
      </trkpt>
      <trkpt lat="47.34483" lon="-1.35733">
        <ele>83.95</ele>
        <time>2020-05-16T11:46:25Z</time>
      </trkpt>
      <trkpt lat="47.34476" lon="-1.3572">
        <ele>83.67</ele>
        <time>2020-05-16T11:46:27Z</time>
      </trkpt>
      <trkpt lat="47.3447" lon="-1.35709">
        <ele>83.45</ele>
        <time>2020-05-16T11:46:30Z</time>
      </trkpt>
      <trkpt lat="47.34464" lon="-1.35696">
        <ele>83.59</ele>
        <time>2020-05-16T11:46:33Z</time>
      </trkpt>
      <trkpt lat="47.34455" lon="-1.35685">
        <ele>84.04</ele>
        <time>2020-05-16T11:46:36Z</time>
      </trkpt>
      <trkpt lat="47.34444" lon="-1.3567">
        <ele>83.46</ele>
        <time>2020-05-16T11:46:38Z</time>
      </trkpt>
      <trkpt lat="47.34434" lon="-1.35655">
        <ele>84.38</ele>
        <time>2020-05-16T11:46:40Z</time>
      </trkpt>
      <trkpt lat="47.34424" lon="-1.3564">
        <ele>84.81</ele>
        <time>2020-05-16T11:46:42Z</time>
      </trkpt>
      <trkpt lat="47.34415" lon="-1.35623">
        <ele>84.05</ele>
        <time>2020-05-16T11:46:44Z</time>
      </trkpt>
      <trkpt lat="47.34405" lon="-1.35607">
        <ele>82.62</ele>
        <time>2020-05-16T11:46:46Z</time>
      </trkpt>
      <trkpt lat="47.34398" lon="-1.35593">
        <ele>81.87</ele>
        <time>2020-05-16T11:46:48Z</time>
      </trkpt>
      <trkpt lat="47.34389" lon="-1.35578">
        <ele>81.58</ele>
        <time>2020-05-16T11:46:50Z</time>
      </trkpt>
      <trkpt lat="47.3438" lon="-1.35561">
        <ele>81.2</ele>
        <time>2020-05-16T11:46:52Z</time>
      </trkpt>
      <trkpt lat="47.34372" lon="-1.35546">
        <ele>81.21</ele>
        <time>2020-05-16T11:46:54Z</time>
      </trkpt>
      <trkpt lat="47.34363" lon="-1.35531">
        <ele>81.77</ele>
        <time>2020-05-16T11:46:56Z</time>
      </trkpt>
      <trkpt lat="47.34353" lon="-1.35513">
        <ele>82.27</ele>
        <time>2020-05-16T11:46:58Z</time>
      </trkpt>
      <trkpt lat="47.34345" lon="-1.35499">
        <ele>82.52</ele>
        <time>2020-05-16T11:47:00Z</time>
      </trkpt>
      <trkpt lat="47.34337" lon="-1.35486">
        <ele>82.51</ele>
        <time>2020-05-16T11:47:02Z</time>
      </trkpt>
      <trkpt lat="47.34329" lon="-1.35471">
        <ele>83.11</ele>
        <time>2020-05-16T11:47:04Z</time>
      </trkpt>
      <trkpt lat="47.34321" lon="-1.35456">
        <ele>84.69</ele>
        <time>2020-05-16T11:47:06Z</time>
      </trkpt>
      <trkpt lat="47.34311" lon="-1.3544">
        <ele>84.01</ele>
        <time>2020-05-16T11:47:08Z</time>
      </trkpt>
      <trkpt lat="47.34304" lon="-1.35427">
        <ele>83.43</ele>
        <time>2020-05-16T11:47:10Z</time>
      </trkpt>
      <trkpt lat="47.34296" lon="-1.35411">
        <ele>82.22</ele>
        <time>2020-05-16T11:47:12Z</time>
      </trkpt>
      <trkpt lat="47.34288" lon="-1.35397">
        <ele>81.59</ele>
        <time>2020-05-16T11:47:14Z</time>
      </trkpt>
      <trkpt lat="47.34279" lon="-1.35383">
        <ele>81.61</ele>
        <time>2020-05-16T11:47:16Z</time>
      </trkpt>
      <trkpt lat="47.34271" lon="-1.35369">
        <ele>82.72</ele>
        <time>2020-05-16T11:47:18Z</time>
      </trkpt>
      <trkpt lat="47.34261" lon="-1.35352">
        <ele>82.75</ele>
        <time>2020-05-16T11:47:20Z</time>
      </trkpt>
      <trkpt lat="47.34253" lon="-1.35339">
        <ele>83.5</ele>
        <time>2020-05-16T11:47:22Z</time>
      </trkpt>
      <trkpt lat="47.34245" lon="-1.35326">
        <ele>84.55</ele>
        <time>2020-05-16T11:47:24Z</time>
      </trkpt>
      <trkpt lat="47.34236" lon="-1.35311">
        <ele>84.28</ele>
        <time>2020-05-16T11:47:26Z</time>
      </trkpt>
      <trkpt lat="47.34227" lon="-1.35297">
        <ele>83.44</ele>
        <time>2020-05-16T11:47:28Z</time>
      </trkpt>
      <trkpt lat="47.34219" lon="-1.35284">
        <ele>82.43</ele>
        <time>2020-05-16T11:47:30Z</time>
      </trkpt>
      <trkpt lat="47.3421" lon="-1.35269">
        <ele>81.9</ele>
        <time>2020-05-16T11:47:32Z</time>
      </trkpt>
      <trkpt lat="47.342" lon="-1.35254">
        <ele>82.56</ele>
        <time>2020-05-16T11:47:34Z</time>
      </trkpt>
      <trkpt lat="47.34192" lon="-1.35241">
        <ele>82.86</ele>
        <time>2020-05-16T11:47:36Z</time>
      </trkpt>
      <trkpt lat="47.34183" lon="-1.35229">
        <ele>83.07</ele>
        <time>2020-05-16T11:47:38Z</time>
      </trkpt>
      <trkpt lat="47.34174" lon="-1.35213">
        <ele>83.71</ele>
        <time>2020-05-16T11:47:40Z</time>
      </trkpt>
      <trkpt lat="47.34166" lon="-1.35197">
        <ele>84.01</ele>
        <time>2020-05-16T11:47:42Z</time>
      </trkpt>
      <trkpt lat="47.34157" lon="-1.3518">
        <ele>82.99</ele>
        <time>2020-05-16T11:47:44Z</time>
      </trkpt>
      <trkpt lat="47.3415" lon="-1.35165">
        <ele>81.93</ele>
        <time>2020-05-16T11:47:46Z</time>
      </trkpt>
      <trkpt lat="47.34142" lon="-1.35149">
        <ele>81.76</ele>
        <time>2020-05-16T11:47:48Z</time>
      </trkpt>
      <trkpt lat="47.34134" lon="-1.35135">
        <ele>82.1</ele>
        <time>2020-05-16T11:47:50Z</time>
      </trkpt>
      <trkpt lat="47.34124" lon="-1.35121">
        <ele>82.37</ele>
        <time>2020-05-16T11:47:52Z</time>
      </trkpt>
      <trkpt lat="47.34116" lon="-1.35109">
        <ele>82.84</ele>
        <time>2020-05-16T11:47:54Z</time>
      </trkpt>
      <trkpt lat="47.34107" lon="-1.35094">
        <ele>83.69</ele>
        <time>2020-05-16T11:47:56Z</time>
      </trkpt>
      <trkpt lat="47.34097" lon="-1.35079">
        <ele>83.98</ele>
        <time>2020-05-16T11:47:58Z</time>
      </trkpt>
      <trkpt lat="47.3409" lon="-1.35066">
        <ele>83.67</ele>
        <time>2020-05-16T11:48:00Z</time>
      </trkpt>
      <trkpt lat="47.34082" lon="-1.35053">
        <ele>82.86</ele>
        <time>2020-05-16T11:48:02Z</time>
      </trkpt>
      <trkpt lat="47.34072" lon="-1.35037">
        <ele>81.93</ele>
        <time>2020-05-16T11:48:04Z</time>
      </trkpt>
      <trkpt lat="47.34063" lon="-1.35022">
        <ele>81.01</ele>
        <time>2020-05-16T11:48:06Z</time>
      </trkpt>
      <trkpt lat="47.34055" lon="-1.35009">
        <ele>79.95</ele>
        <time>2020-05-16T11:48:08Z</time>
      </trkpt>
      <trkpt lat="47.34046" lon="-1.34994">
        <ele>78.92</ele>
        <time>2020-05-16T11:48:10Z</time>
      </trkpt>
      <trkpt lat="47.34039" lon="-1.34982">
        <ele>78.6</ele>
        <time>2020-05-16T11:48:12Z</time>
      </trkpt>
      <trkpt lat="47.34031" lon="-1.34971">
        <ele>79.72</ele>
        <time>2020-05-16T11:48:14Z</time>
      </trkpt>
      <trkpt lat="47.34019" lon="-1.34963">
        <ele>80.31</ele>
        <time>2020-05-16T11:48:16Z</time>
      </trkpt>
      <trkpt lat="47.34006" lon="-1.34958">
        <ele>81.42</ele>
        <time>2020-05-16T11:48:18Z</time>
      </trkpt>
      <trkpt lat="47.33996" lon="-1.34948">
        <ele>81.74</ele>
        <time>2020-05-16T11:48:20Z</time>
      </trkpt>
      <trkpt lat="47.33987" lon="-1.34932">
        <ele>80.5</ele>
        <time>2020-05-16T11:48:22Z</time>
      </trkpt>
      <trkpt lat="47.33976" lon="-1.34915">
        <ele>79.02</ele>
        <time>2020-05-16T11:48:24Z</time>
      </trkpt>
      <trkpt lat="47.33962" lon="-1.349">
        <ele>78.84</ele>
        <time>2020-05-16T11:48:26Z</time>
      </trkpt>
      <trkpt lat="47.33948" lon="-1.34886">
        <ele>78.65</ele>
        <time>2020-05-16T11:48:28Z</time>
      </trkpt>
      <trkpt lat="47.33935" lon="-1.34875">
        <ele>78.8</ele>
        <time>2020-05-16T11:48:30Z</time>
      </trkpt>
      <trkpt lat="47.33924" lon="-1.34864">
        <ele>79.42</ele>
        <time>2020-05-16T11:48:32Z</time>
      </trkpt>
      <trkpt lat="47.33915" lon="-1.34854">
        <ele>80.04</ele>
        <time>2020-05-16T11:48:34Z</time>
      </trkpt>
      <trkpt lat="47.33903" lon="-1.34842">
        <ele>80.93</ele>
        <time>2020-05-16T11:48:36Z</time>
      </trkpt>
      <trkpt lat="47.33892" lon="-1.34829">
        <ele>81.78</ele>
        <time>2020-05-16T11:48:38Z</time>
      </trkpt>
      <trkpt lat="47.33882" lon="-1.34814">
        <ele>82.18</ele>
        <time>2020-05-16T11:48:40Z</time>
      </trkpt>
      <trkpt lat="47.33872" lon="-1.348">
        <ele>81.68</ele>
        <time>2020-05-16T11:48:42Z</time>
      </trkpt>
      <trkpt lat="47.33861" lon="-1.34785">
        <ele>80.6</ele>
        <time>2020-05-16T11:48:44Z</time>
      </trkpt>
      <trkpt lat="47.33852" lon="-1.34772">
        <ele>80.67</ele>
        <time>2020-05-16T11:48:46Z</time>
      </trkpt>
      <trkpt lat="47.33841" lon="-1.34758">
        <ele>80.37</ele>
        <time>2020-05-16T11:48:48Z</time>
      </trkpt>
      <trkpt lat="47.3383" lon="-1.34744">
        <ele>79.91</ele>
        <time>2020-05-16T11:48:50Z</time>
      </trkpt>
      <trkpt lat="47.3382" lon="-1.3473">
        <ele>79.84</ele>
        <time>2020-05-16T11:48:52Z</time>
      </trkpt>
      <trkpt lat="47.33809" lon="-1.34716">
        <ele>79.26</ele>
        <time>2020-05-16T11:48:54Z</time>
      </trkpt>
      <trkpt lat="47.33799" lon="-1.34703">
        <ele>79.77</ele>
        <time>2020-05-16T11:48:56Z</time>
      </trkpt>
      <trkpt lat="47.3379" lon="-1.34689">
        <ele>80.07</ele>
        <time>2020-05-16T11:48:58Z</time>
      </trkpt>
      <trkpt lat="47.33779" lon="-1.34675">
        <ele>79.88</ele>
        <time>2020-05-16T11:49:00Z</time>
      </trkpt>
      <trkpt lat="47.3377" lon="-1.34662">
        <ele>79.39</ele>
        <time>2020-05-16T11:49:02Z</time>
      </trkpt>
      <trkpt lat="47.3376" lon="-1.34648">
        <ele>79.41</ele>
        <time>2020-05-16T11:49:04Z</time>
      </trkpt>
      <trkpt lat="47.33751" lon="-1.34634">
        <ele>79.47</ele>
        <time>2020-05-16T11:49:06Z</time>
      </trkpt>
      <trkpt lat="47.33741" lon="-1.34621">
        <ele>80.18</ele>
        <time>2020-05-16T11:49:08Z</time>
      </trkpt>
      <trkpt lat="47.33732" lon="-1.34608">
        <ele>80.94</ele>
        <time>2020-05-16T11:49:10Z</time>
      </trkpt>
      <trkpt lat="47.33722" lon="-1.34594">
        <ele>80.78</ele>
        <time>2020-05-16T11:49:12Z</time>
      </trkpt>
      <trkpt lat="47.33713" lon="-1.3458">
        <ele>80.34</ele>
        <time>2020-05-16T11:49:14Z</time>
      </trkpt>
      <trkpt lat="47.33702" lon="-1.34565">
        <ele>80.58</ele>
        <time>2020-05-16T11:49:16Z</time>
      </trkpt>
      <trkpt lat="47.33693" lon="-1.34552">
        <ele>80.16</ele>
        <time>2020-05-16T11:49:18Z</time>
      </trkpt>
      <trkpt lat="47.33682" lon="-1.34537">
        <ele>80.02</ele>
        <time>2020-05-16T11:49:20Z</time>
      </trkpt>
      <trkpt lat="47.33673" lon="-1.34525">
        <ele>79.77</ele>
        <time>2020-05-16T11:49:22Z</time>
      </trkpt>
      <trkpt lat="47.33663" lon="-1.34512">
        <ele>78.47</ele>
        <time>2020-05-16T11:49:24Z</time>
      </trkpt>
      <trkpt lat="47.33652" lon="-1.34497">
        <ele>77.85</ele>
        <time>2020-05-16T11:49:26Z</time>
      </trkpt>
      <trkpt lat="47.33643" lon="-1.34485">
        <ele>78.19</ele>
        <time>2020-05-16T11:49:28Z</time>
      </trkpt>
      <trkpt lat="47.33633" lon="-1.34473">
        <ele>79.15</ele>
        <time>2020-05-16T11:49:30Z</time>
      </trkpt>
      <trkpt lat="47.33621" lon="-1.34463">
        <ele>79.73</ele>
        <time>2020-05-16T11:49:32Z</time>
      </trkpt>
      <trkpt lat="47.33607" lon="-1.34457">
        <ele>80.13</ele>
        <time>2020-05-16T11:49:34Z</time>
      </trkpt>
      <trkpt lat="47.33594" lon="-1.34452">
        <ele>80.44</ele>
        <time>2020-05-16T11:49:36Z</time>
      </trkpt>
      <trkpt lat="47.3358" lon="-1.34446">
        <ele>80.99</ele>
        <time>2020-05-16T11:49:38Z</time>
      </trkpt>
      <trkpt lat="47.33567" lon="-1.3444">
        <ele>80.63</ele>
        <time>2020-05-16T11:49:40Z</time>
      </trkpt>
      <trkpt lat="47.33555" lon="-1.34435">
        <ele>80.34</ele>
        <time>2020-05-16T11:49:42Z</time>
      </trkpt>
      <trkpt lat="47.33541" lon="-1.34428">
        <ele>78.92</ele>
        <time>2020-05-16T11:49:44Z</time>
      </trkpt>
      <trkpt lat="47.33526" lon="-1.34421">
        <ele>78.35</ele>
        <time>2020-05-16T11:49:46Z</time>
      </trkpt>
      <trkpt lat="47.33514" lon="-1.34413">
        <ele>78.59</ele>
        <time>2020-05-16T11:49:48Z</time>
      </trkpt>
      <trkpt lat="47.335" lon="-1.34407">
        <ele>79.32</ele>
        <time>2020-05-16T11:49:50Z</time>
      </trkpt>
      <trkpt lat="47.33487" lon="-1.344">
        <ele>79.83</ele>
        <time>2020-05-16T11:49:52Z</time>
      </trkpt>
      <trkpt lat="47.33475" lon="-1.34396">
        <ele>80.05</ele>
        <time>2020-05-16T11:49:54Z</time>
      </trkpt>
      <trkpt lat="47.33462" lon="-1.34389">
        <ele>79.92</ele>
        <time>2020-05-16T11:49:56Z</time>
      </trkpt>
      <trkpt lat="47.33449" lon="-1.34385">
        <ele>80.64</ele>
        <time>2020-05-16T11:49:58Z</time>
      </trkpt>
      <trkpt lat="47.33435" lon="-1.34378">
        <ele>80.37</ele>
        <time>2020-05-16T11:50:00Z</time>
      </trkpt>
      <trkpt lat="47.33422" lon="-1.34371">
        <ele>79.49</ele>
        <time>2020-05-16T11:50:02Z</time>
      </trkpt>
      <trkpt lat="47.33408" lon="-1.34363">
        <ele>79.08</ele>
        <time>2020-05-16T11:50:04Z</time>
      </trkpt>
      <trkpt lat="47.33394" lon="-1.34356">
        <ele>78.02</ele>
        <time>2020-05-16T11:50:06Z</time>
      </trkpt>
      <trkpt lat="47.33381" lon="-1.3435">
        <ele>76.12</ele>
        <time>2020-05-16T11:50:08Z</time>
      </trkpt>
      <trkpt lat="47.33369" lon="-1.34344">
        <ele>73.84</ele>
        <time>2020-05-16T11:50:10Z</time>
      </trkpt>
      <trkpt lat="47.33354" lon="-1.34337">
        <ele>72.46</ele>
        <time>2020-05-16T11:50:12Z</time>
      </trkpt>
      <trkpt lat="47.3334" lon="-1.3433">
        <ele>72.24</ele>
        <time>2020-05-16T11:50:14Z</time>
      </trkpt>
      <trkpt lat="47.33326" lon="-1.34322">
        <ele>72.09</ele>
        <time>2020-05-16T11:50:16Z</time>
      </trkpt>
      <trkpt lat="47.33312" lon="-1.34316">
        <ele>72.96</ele>
        <time>2020-05-16T11:50:18Z</time>
      </trkpt>
      <trkpt lat="47.33298" lon="-1.34311">
        <ele>73.98</ele>
        <time>2020-05-16T11:50:20Z</time>
      </trkpt>
      <trkpt lat="47.33286" lon="-1.34309">
        <ele>74.38</ele>
        <time>2020-05-16T11:50:22Z</time>
      </trkpt>
      <trkpt lat="47.3327" lon="-1.34306">
        <ele>74.67</ele>
        <time>2020-05-16T11:50:24Z</time>
      </trkpt>
      <trkpt lat="47.33254" lon="-1.34304">
        <ele>73.71</ele>
        <time>2020-05-16T11:50:26Z</time>
      </trkpt>
      <trkpt lat="47.3324" lon="-1.34302">
        <ele>73.24</ele>
        <time>2020-05-16T11:50:28Z</time>
      </trkpt>
      <trkpt lat="47.33226" lon="-1.34301">
        <ele>72.05</ele>
        <time>2020-05-16T11:50:30Z</time>
      </trkpt>
      <trkpt lat="47.33212" lon="-1.343">
        <ele>71.07</ele>
        <time>2020-05-16T11:50:32Z</time>
      </trkpt>
      <trkpt lat="47.33196" lon="-1.34297">
        <ele>70.87</ele>
        <time>2020-05-16T11:50:34Z</time>
      </trkpt>
      <trkpt lat="47.3318" lon="-1.34295">
        <ele>70.3</ele>
        <time>2020-05-16T11:50:36Z</time>
      </trkpt>
      <trkpt lat="47.33164" lon="-1.34292">
        <ele>69.8</ele>
        <time>2020-05-16T11:50:38Z</time>
      </trkpt>
      <trkpt lat="47.33149" lon="-1.34286">
        <ele>68.93</ele>
        <time>2020-05-16T11:50:40Z</time>
      </trkpt>
      <trkpt lat="47.33135" lon="-1.34279">
        <ele>68.61</ele>
        <time>2020-05-16T11:50:42Z</time>
      </trkpt>
      <trkpt lat="47.3312" lon="-1.34269">
        <ele>69.05</ele>
        <time>2020-05-16T11:50:44Z</time>
      </trkpt>
      <trkpt lat="47.33111" lon="-1.34263">
        <ele>69.18</ele>
        <time>2020-05-16T11:50:45Z</time>
      </trkpt>
      <trkpt lat="47.33096" lon="-1.34253">
        <ele>69.09</ele>
        <time>2020-05-16T11:50:47Z</time>
      </trkpt>
      <trkpt lat="47.33082" lon="-1.34242">
        <ele>68.75</ele>
        <time>2020-05-16T11:50:49Z</time>
      </trkpt>
      <trkpt lat="47.33066" lon="-1.34232">
        <ele>68.06</ele>
        <time>2020-05-16T11:50:51Z</time>
      </trkpt>
      <trkpt lat="47.33058" lon="-1.34226">
        <ele>67.7</ele>
        <time>2020-05-16T11:50:52Z</time>
      </trkpt>
      <trkpt lat="47.33043" lon="-1.34213">
        <ele>66.94</ele>
        <time>2020-05-16T11:50:54Z</time>
      </trkpt>
      <trkpt lat="47.33028" lon="-1.34202">
        <ele>66.53</ele>
        <time>2020-05-16T11:50:56Z</time>
      </trkpt>
      <trkpt lat="47.33013" lon="-1.3419">
        <ele>65.67</ele>
        <time>2020-05-16T11:50:58Z</time>
      </trkpt>
      <trkpt lat="47.33004" lon="-1.34184">
        <ele>64.84</ele>
        <time>2020-05-16T11:50:59Z</time>
      </trkpt>
      <trkpt lat="47.32995" lon="-1.34177">
        <ele>63.97</ele>
        <time>2020-05-16T11:51:00Z</time>
      </trkpt>
      <trkpt lat="47.32986" lon="-1.3417">
        <ele>63.38</ele>
        <time>2020-05-16T11:51:01Z</time>
      </trkpt>
      <trkpt lat="47.32971" lon="-1.34157">
        <ele>61.81</ele>
        <time>2020-05-16T11:51:03Z</time>
      </trkpt>
      <trkpt lat="47.32963" lon="-1.34148">
        <ele>60.86</ele>
        <time>2020-05-16T11:51:04Z</time>
      </trkpt>
      <trkpt lat="47.32956" lon="-1.34134">
        <ele>60.15</ele>
        <time>2020-05-16T11:51:05Z</time>
      </trkpt>
      <trkpt lat="47.32951" lon="-1.34121">
        <ele>59.91</ele>
        <time>2020-05-16T11:51:06Z</time>
      </trkpt>
      <trkpt lat="47.32945" lon="-1.34108">
        <ele>59.3</ele>
        <time>2020-05-16T11:51:07Z</time>
      </trkpt>
      <trkpt lat="47.32942" lon="-1.34092">
        <ele>59.11</ele>
        <time>2020-05-16T11:51:08Z</time>
      </trkpt>
      <trkpt lat="47.32939" lon="-1.34079">
        <ele>58.89</ele>
        <time>2020-05-16T11:51:09Z</time>
      </trkpt>
      <trkpt lat="47.32936" lon="-1.34062">
        <ele>58.93</ele>
        <time>2020-05-16T11:51:10Z</time>
      </trkpt>
      <trkpt lat="47.32938" lon="-1.34046">
        <ele>58.55</ele>
        <time>2020-05-16T11:51:11Z</time>
      </trkpt>
      <trkpt lat="47.32941" lon="-1.34033">
        <ele>58.07</ele>
        <time>2020-05-16T11:51:12Z</time>
      </trkpt>
      <trkpt lat="47.32948" lon="-1.34008">
        <ele>57.39</ele>
        <time>2020-05-16T11:51:14Z</time>
      </trkpt>
      <trkpt lat="47.32953" lon="-1.33995">
        <ele>57.32</ele>
        <time>2020-05-16T11:51:15Z</time>
      </trkpt>
      <trkpt lat="47.32957" lon="-1.33982">
        <ele>57.26</ele>
        <time>2020-05-16T11:51:16Z</time>
      </trkpt>
      <trkpt lat="47.32962" lon="-1.33969">
        <ele>56.7</ele>
        <time>2020-05-16T11:51:17Z</time>
      </trkpt>
      <trkpt lat="47.32967" lon="-1.33957">
        <ele>55.97</ele>
        <time>2020-05-16T11:51:18Z</time>
      </trkpt>
      <trkpt lat="47.32973" lon="-1.33943">
        <ele>55.33</ele>
        <time>2020-05-16T11:51:19Z</time>
      </trkpt>
      <trkpt lat="47.32978" lon="-1.33931">
        <ele>54.74</ele>
        <time>2020-05-16T11:51:20Z</time>
      </trkpt>
      <trkpt lat="47.32982" lon="-1.33917">
        <ele>54.79</ele>
        <time>2020-05-16T11:51:21Z</time>
      </trkpt>
      <trkpt lat="47.32992" lon="-1.33891">
        <ele>54.59</ele>
        <time>2020-05-16T11:51:23Z</time>
      </trkpt>
      <trkpt lat="47.32998" lon="-1.33878">
        <ele>54.42</ele>
        <time>2020-05-16T11:51:24Z</time>
      </trkpt>
      <trkpt lat="47.33002" lon="-1.33867">
        <ele>54</ele>
        <time>2020-05-16T11:51:25Z</time>
      </trkpt>
      <trkpt lat="47.33007" lon="-1.33854">
        <ele>53.62</ele>
        <time>2020-05-16T11:51:26Z</time>
      </trkpt>
      <trkpt lat="47.33012" lon="-1.33841">
        <ele>52.72</ele>
        <time>2020-05-16T11:51:27Z</time>
      </trkpt>
      <trkpt lat="47.33016" lon="-1.33828">
        <ele>51.81</ele>
        <time>2020-05-16T11:51:28Z</time>
      </trkpt>
      <trkpt lat="47.33021" lon="-1.33815">
        <ele>50.98</ele>
        <time>2020-05-16T11:51:29Z</time>
      </trkpt>
      <trkpt lat="47.33025" lon="-1.33803">
        <ele>50.16</ele>
        <time>2020-05-16T11:51:30Z</time>
      </trkpt>
      <trkpt lat="47.33031" lon="-1.33789">
        <ele>49.85</ele>
        <time>2020-05-16T11:51:31Z</time>
      </trkpt>
      <trkpt lat="47.33036" lon="-1.33777">
        <ele>49.36</ele>
        <time>2020-05-16T11:51:32Z</time>
      </trkpt>
      <trkpt lat="47.33042" lon="-1.33764">
        <ele>49.09</ele>
        <time>2020-05-16T11:51:33Z</time>
      </trkpt>
      <trkpt lat="47.33048" lon="-1.33751">
        <ele>48.32</ele>
        <time>2020-05-16T11:51:34Z</time>
      </trkpt>
      <trkpt lat="47.33056" lon="-1.33737">
        <ele>47.38</ele>
        <time>2020-05-16T11:51:35Z</time>
      </trkpt>
      <trkpt lat="47.33063" lon="-1.33724">
        <ele>46.67</ele>
        <time>2020-05-16T11:51:36Z</time>
      </trkpt>
      <trkpt lat="47.33071" lon="-1.3371">
        <ele>46.45</ele>
        <time>2020-05-16T11:51:37Z</time>
      </trkpt>
      <trkpt lat="47.33078" lon="-1.33699">
        <ele>46.17</ele>
        <time>2020-05-16T11:51:38Z</time>
      </trkpt>
      <trkpt lat="47.33083" lon="-1.33687">
        <ele>46.25</ele>
        <time>2020-05-16T11:51:39Z</time>
      </trkpt>
      <trkpt lat="47.33089" lon="-1.33674">
        <ele>46.1</ele>
        <time>2020-05-16T11:51:40Z</time>
      </trkpt>
      <trkpt lat="47.33095" lon="-1.33658">
        <ele>46.13</ele>
        <time>2020-05-16T11:51:41Z</time>
      </trkpt>
      <trkpt lat="47.331" lon="-1.33644">
        <ele>46.02</ele>
        <time>2020-05-16T11:51:42Z</time>
      </trkpt>
      <trkpt lat="47.33104" lon="-1.3363">
        <ele>45.39</ele>
        <time>2020-05-16T11:51:43Z</time>
      </trkpt>
      <trkpt lat="47.33109" lon="-1.33614">
        <ele>44.65</ele>
        <time>2020-05-16T11:51:44Z</time>
      </trkpt>
      <trkpt lat="47.33113" lon="-1.33599">
        <ele>43.71</ele>
        <time>2020-05-16T11:51:45Z</time>
      </trkpt>
      <trkpt lat="47.33117" lon="-1.33586">
        <ele>43.38</ele>
        <time>2020-05-16T11:51:46Z</time>
      </trkpt>
      <trkpt lat="47.3312" lon="-1.33571">
        <ele>42.53</ele>
        <time>2020-05-16T11:51:47Z</time>
      </trkpt>
      <trkpt lat="47.33124" lon="-1.33554">
        <ele>41.98</ele>
        <time>2020-05-16T11:51:48Z</time>
      </trkpt>
      <trkpt lat="47.33125" lon="-1.33535">
        <ele>41.25</ele>
        <time>2020-05-16T11:51:49Z</time>
      </trkpt>
      <trkpt lat="47.33125" lon="-1.33518">
        <ele>40.88</ele>
        <time>2020-05-16T11:51:50Z</time>
      </trkpt>
      <trkpt lat="47.33123" lon="-1.33501">
        <ele>40.06</ele>
        <time>2020-05-16T11:51:52Z</time>
      </trkpt>
      <trkpt lat="47.33119" lon="-1.33487">
        <ele>39.15</ele>
        <time>2020-05-16T11:51:52Z</time>
      </trkpt>
      <trkpt lat="47.33114" lon="-1.33475">
        <ele>38.14</ele>
        <time>2020-05-16T11:51:53Z</time>
      </trkpt>
      <trkpt lat="47.33108" lon="-1.33462">
        <ele>37.15</ele>
        <time>2020-05-16T11:51:55Z</time>
      </trkpt>
      <trkpt lat="47.33098" lon="-1.3345">
        <ele>36.13</ele>
        <time>2020-05-16T11:51:56Z</time>
      </trkpt>
      <trkpt lat="47.3309" lon="-1.3344">
        <ele>35.62</ele>
        <time>2020-05-16T11:51:57Z</time>
      </trkpt>
      <trkpt lat="47.33082" lon="-1.3343">
        <ele>35.47</ele>
        <time>2020-05-16T11:51:58Z</time>
      </trkpt>
      <trkpt lat="47.33073" lon="-1.33421">
        <ele>35.34</ele>
        <time>2020-05-16T11:51:59Z</time>
      </trkpt>
      <trkpt lat="47.33064" lon="-1.33412">
        <ele>34.88</ele>
        <time>2020-05-16T11:52:00Z</time>
      </trkpt>
      <trkpt lat="47.33055" lon="-1.33403">
        <ele>34.41</ele>
        <time>2020-05-16T11:52:01Z</time>
      </trkpt>
      <trkpt lat="47.33046" lon="-1.33393">
        <ele>34.34</ele>
        <time>2020-05-16T11:52:02Z</time>
      </trkpt>
      <trkpt lat="47.33036" lon="-1.33382">
        <ele>34.51</ele>
        <time>2020-05-16T11:52:03Z</time>
      </trkpt>
      <trkpt lat="47.33027" lon="-1.33373">
        <ele>34.88</ele>
        <time>2020-05-16T11:52:04Z</time>
      </trkpt>
      <trkpt lat="47.33018" lon="-1.33364">
        <ele>34.97</ele>
        <time>2020-05-16T11:52:05Z</time>
      </trkpt>
      <trkpt lat="47.33009" lon="-1.33354">
        <ele>34.85</ele>
        <time>2020-05-16T11:52:06Z</time>
      </trkpt>
      <trkpt lat="47.33" lon="-1.33345">
        <ele>34.63</ele>
        <time>2020-05-16T11:52:07Z</time>
      </trkpt>
      <trkpt lat="47.32992" lon="-1.33335">
        <ele>34.67</ele>
        <time>2020-05-16T11:52:08Z</time>
      </trkpt>
      <trkpt lat="47.32983" lon="-1.33325">
        <ele>34.39</ele>
        <time>2020-05-16T11:52:09Z</time>
      </trkpt>
      <trkpt lat="47.32974" lon="-1.33316">
        <ele>33.6</ele>
        <time>2020-05-16T11:52:10Z</time>
      </trkpt>
      <trkpt lat="47.32965" lon="-1.33305">
        <ele>32.73</ele>
        <time>2020-05-16T11:52:11Z</time>
      </trkpt>
      <trkpt lat="47.32955" lon="-1.33294">
        <ele>31.99</ele>
        <time>2020-05-16T11:52:12Z</time>
      </trkpt>
      <trkpt lat="47.32946" lon="-1.33284">
        <ele>31.85</ele>
        <time>2020-05-16T11:52:13Z</time>
      </trkpt>
      <trkpt lat="47.32937" lon="-1.33274">
        <ele>31.31</ele>
        <time>2020-05-16T11:52:14Z</time>
      </trkpt>
      <trkpt lat="47.32929" lon="-1.33264">
        <ele>31.24</ele>
        <time>2020-05-16T11:52:15Z</time>
      </trkpt>
      <trkpt lat="47.32921" lon="-1.33254">
        <ele>30.89</ele>
        <time>2020-05-16T11:52:16Z</time>
      </trkpt>
      <trkpt lat="47.32912" lon="-1.33243">
        <ele>30.49</ele>
        <time>2020-05-16T11:52:17Z</time>
      </trkpt>
      <trkpt lat="47.32902" lon="-1.33234">
        <ele>30.43</ele>
        <time>2020-05-16T11:52:18Z</time>
      </trkpt>
      <trkpt lat="47.32893" lon="-1.33224">
        <ele>30.78</ele>
        <time>2020-05-16T11:52:19Z</time>
      </trkpt>
      <trkpt lat="47.32883" lon="-1.33215">
        <ele>30.81</ele>
        <time>2020-05-16T11:52:20Z</time>
      </trkpt>
      <trkpt lat="47.32873" lon="-1.33206">
        <ele>30.77</ele>
        <time>2020-05-16T11:52:21Z</time>
      </trkpt>
      <trkpt lat="47.32863" lon="-1.33196">
        <ele>30.77</ele>
        <time>2020-05-16T11:52:22Z</time>
      </trkpt>
      <trkpt lat="47.32852" lon="-1.33187">
        <ele>30.86</ele>
        <time>2020-05-16T11:52:23Z</time>
      </trkpt>
      <trkpt lat="47.32843" lon="-1.33179">
        <ele>31.01</ele>
        <time>2020-05-16T11:52:24Z</time>
      </trkpt>
      <trkpt lat="47.32833" lon="-1.3317">
        <ele>31.05</ele>
        <time>2020-05-16T11:52:25Z</time>
      </trkpt>
      <trkpt lat="47.32823" lon="-1.33161">
        <ele>30.96</ele>
        <time>2020-05-16T11:52:26Z</time>
      </trkpt>
      <trkpt lat="47.32813" lon="-1.33154">
        <ele>30.72</ele>
        <time>2020-05-16T11:52:27Z</time>
      </trkpt>
      <trkpt lat="47.32803" lon="-1.33146">
        <ele>29.84</ele>
        <time>2020-05-16T11:52:28Z</time>
      </trkpt>
      <trkpt lat="47.32792" lon="-1.33138">
        <ele>28.3</ele>
        <time>2020-05-16T11:52:29Z</time>
      </trkpt>
      <trkpt lat="47.32782" lon="-1.3313">
        <ele>26.8</ele>
        <time>2020-05-16T11:52:30Z</time>
      </trkpt>
      <trkpt lat="47.32772" lon="-1.33122">
        <ele>25.2</ele>
        <time>2020-05-16T11:52:31Z</time>
      </trkpt>
      <trkpt lat="47.32763" lon="-1.33112">
        <ele>24.03</ele>
        <time>2020-05-16T11:52:32Z</time>
      </trkpt>
      <trkpt lat="47.32755" lon="-1.33104">
        <ele>23.28</ele>
        <time>2020-05-16T11:52:33Z</time>
      </trkpt>
      <trkpt lat="47.32746" lon="-1.33094">
        <ele>22.93</ele>
        <time>2020-05-16T11:52:34Z</time>
      </trkpt>
      <trkpt lat="47.32738" lon="-1.33086">
        <ele>22.86</ele>
        <time>2020-05-16T11:52:35Z</time>
      </trkpt>
      <trkpt lat="47.3273" lon="-1.33077">
        <ele>22.53</ele>
        <time>2020-05-16T11:52:36Z</time>
      </trkpt>
      <trkpt lat="47.32722" lon="-1.33069">
        <ele>22.04</ele>
        <time>2020-05-16T11:52:37Z</time>
      </trkpt>
      <trkpt lat="47.32713" lon="-1.33059">
        <ele>21.34</ele>
        <time>2020-05-16T11:52:38Z</time>
      </trkpt>
      <trkpt lat="47.32703" lon="-1.33049">
        <ele>20.78</ele>
        <time>2020-05-16T11:52:39Z</time>
      </trkpt>
      <trkpt lat="47.32694" lon="-1.33041">
        <ele>20</ele>
        <time>2020-05-16T11:52:40Z</time>
      </trkpt>
      <trkpt lat="47.32686" lon="-1.33034">
        <ele>18.61</ele>
        <time>2020-05-16T11:52:41Z</time>
      </trkpt>
      <trkpt lat="47.32677" lon="-1.33026">
        <ele>17.37</ele>
        <time>2020-05-16T11:52:42Z</time>
      </trkpt>
      <trkpt lat="47.32668" lon="-1.33019">
        <ele>16.29</ele>
        <time>2020-05-16T11:52:43Z</time>
      </trkpt>
      <trkpt lat="47.3266" lon="-1.33012">
        <ele>15.26</ele>
        <time>2020-05-16T11:52:44Z</time>
      </trkpt>
      <trkpt lat="47.32652" lon="-1.33004">
        <ele>14.1</ele>
        <time>2020-05-16T11:52:45Z</time>
      </trkpt>
      <trkpt lat="47.32639" lon="-1.32989">
        <ele>11.91</ele>
        <time>2020-05-16T11:52:47Z</time>
      </trkpt>
      <trkpt lat="47.32628" lon="-1.32974">
        <ele>10.03</ele>
        <time>2020-05-16T11:52:49Z</time>
      </trkpt>
      <trkpt lat="47.3262" lon="-1.32962">
        <ele>9.19</ele>
        <time>2020-05-16T11:52:51Z</time>
      </trkpt>
      <trkpt lat="47.3261" lon="-1.32962">
        <ele>7.27</ele>
        <time>2020-05-16T11:52:55Z</time>
      </trkpt>
      <trkpt lat="47.326" lon="-1.32975">
        <ele>6.16</ele>
        <time>2020-05-16T11:52:57Z</time>
      </trkpt>
      <trkpt lat="47.32591" lon="-1.3299">
        <ele>4.06</ele>
        <time>2020-05-16T11:52:59Z</time>
      </trkpt>
      <trkpt lat="47.32582" lon="-1.33002">
        <ele>2.82</ele>
        <time>2020-05-16T11:53:01Z</time>
      </trkpt>
      <trkpt lat="47.32572" lon="-1.33015">
        <ele>1.97</ele>
        <time>2020-05-16T11:53:03Z</time>
      </trkpt>
      <trkpt lat="47.32564" lon="-1.33026">
        <ele>1.8</ele>
        <time>2020-05-16T11:53:05Z</time>
      </trkpt>
      <trkpt lat="47.32554" lon="-1.33036">
        <ele>3</ele>
        <time>2020-05-16T11:53:07Z</time>
      </trkpt>
      <trkpt lat="47.32543" lon="-1.33047">
        <ele>4.15</ele>
        <time>2020-05-16T11:53:09Z</time>
      </trkpt>
      <trkpt lat="47.32532" lon="-1.33055">
        <ele>4.74</ele>
        <time>2020-05-16T11:53:11Z</time>
      </trkpt>
      <trkpt lat="47.3252" lon="-1.33065">
        <ele>5.85</ele>
        <time>2020-05-16T11:53:13Z</time>
      </trkpt>
      <trkpt lat="47.32508" lon="-1.33077">
        <ele>8.46</ele>
        <time>2020-05-16T11:53:15Z</time>
      </trkpt>
      <trkpt lat="47.32497" lon="-1.33089">
        <ele>9.23</ele>
        <time>2020-05-16T11:53:17Z</time>
      </trkpt>
      <trkpt lat="47.32485" lon="-1.33101">
        <ele>10.08</ele>
        <time>2020-05-16T11:53:19Z</time>
      </trkpt>
      <trkpt lat="47.32474" lon="-1.33113">
        <ele>9.36</ele>
        <time>2020-05-16T11:53:21Z</time>
      </trkpt>
      <trkpt lat="47.32463" lon="-1.33127">
        <ele>9.03</ele>
        <time>2020-05-16T11:53:23Z</time>
      </trkpt>
      <trkpt lat="47.32454" lon="-1.33139">
        <ele>7.65</ele>
        <time>2020-05-16T11:53:25Z</time>
      </trkpt>
      <trkpt lat="47.32446" lon="-1.33146">
        <ele>7.49</ele>
        <time>2020-05-16T11:53:27Z</time>
      </trkpt>
      <trkpt lat="47.32437" lon="-1.33147">
        <ele>8.27</ele>
        <time>2020-05-16T11:53:29Z</time>
      </trkpt>
      <trkpt lat="47.32426" lon="-1.33149">
        <ele>8.7</ele>
        <time>2020-05-16T11:53:32Z</time>
      </trkpt>
      <trkpt lat="47.32417" lon="-1.33159">
        <ele>8.42</ele>
        <time>2020-05-16T11:53:34Z</time>
      </trkpt>
      <trkpt lat="47.32409" lon="-1.3317">
        <ele>8.65</ele>
        <time>2020-05-16T11:53:36Z</time>
      </trkpt>
      <trkpt lat="47.32401" lon="-1.3318">
        <ele>8.85</ele>
        <time>2020-05-16T11:53:38Z</time>
      </trkpt>
      <trkpt lat="47.32394" lon="-1.33191">
        <ele>8.95</ele>
        <time>2020-05-16T11:53:40Z</time>
      </trkpt>
      <trkpt lat="47.32386" lon="-1.33204">
        <ele>8.78</ele>
        <time>2020-05-16T11:53:42Z</time>
      </trkpt>
      <trkpt lat="47.32376" lon="-1.33219">
        <ele>6.94</ele>
        <time>2020-05-16T11:53:44Z</time>
      </trkpt>
      <trkpt lat="47.32368" lon="-1.33233">
        <ele>5.1</ele>
        <time>2020-05-16T11:53:46Z</time>
      </trkpt>
      <trkpt lat="47.3236" lon="-1.33249">
        <ele>4.46</ele>
        <time>2020-05-16T11:53:48Z</time>
      </trkpt>
      <trkpt lat="47.32353" lon="-1.33266">
        <ele>4.23</ele>
        <time>2020-05-16T11:53:50Z</time>
      </trkpt>
      <trkpt lat="47.32345" lon="-1.33283">
        <ele>4.02</ele>
        <time>2020-05-16T11:53:52Z</time>
      </trkpt>
      <trkpt lat="47.32338" lon="-1.33298">
        <ele>3.67</ele>
        <time>2020-05-16T11:53:54Z</time>
      </trkpt>
      <trkpt lat="47.3233" lon="-1.33316">
        <ele>4.04</ele>
        <time>2020-05-16T11:53:56Z</time>
      </trkpt>
      <trkpt lat="47.32322" lon="-1.33336">
        <ele>4.13</ele>
        <time>2020-05-16T11:53:58Z</time>
      </trkpt>
      <trkpt lat="47.32314" lon="-1.33354">
        <ele>5.04</ele>
        <time>2020-05-16T11:54:00Z</time>
      </trkpt>
      <trkpt lat="47.32307" lon="-1.33373">
        <ele>5.67</ele>
        <time>2020-05-16T11:54:02Z</time>
      </trkpt>
      <trkpt lat="47.323" lon="-1.3339">
        <ele>6.85</ele>
        <time>2020-05-16T11:54:04Z</time>
      </trkpt>
      <trkpt lat="47.32293" lon="-1.33405">
        <ele>7.85</ele>
        <time>2020-05-16T11:54:06Z</time>
      </trkpt>
      <trkpt lat="47.32285" lon="-1.33421">
        <ele>9.24</ele>
        <time>2020-05-16T11:54:08Z</time>
      </trkpt>
      <trkpt lat="47.32276" lon="-1.33439">
        <ele>10.13</ele>
        <time>2020-05-16T11:54:10Z</time>
      </trkpt>
      <trkpt lat="47.32267" lon="-1.33457">
        <ele>11.45</ele>
        <time>2020-05-16T11:54:12Z</time>
      </trkpt>
      <trkpt lat="47.32258" lon="-1.33474">
        <ele>11.45</ele>
        <time>2020-05-16T11:54:14Z</time>
      </trkpt>
      <trkpt lat="47.32251" lon="-1.33491">
        <ele>10.92</ele>
        <time>2020-05-16T11:54:16Z</time>
      </trkpt>
      <trkpt lat="47.32242" lon="-1.3351">
        <ele>10.42</ele>
        <time>2020-05-16T11:54:18Z</time>
      </trkpt>
      <trkpt lat="47.32234" lon="-1.33527">
        <ele>9.62</ele>
        <time>2020-05-16T11:54:20Z</time>
      </trkpt>
      <trkpt lat="47.32227" lon="-1.33541">
        <ele>8.85</ele>
        <time>2020-05-16T11:54:22Z</time>
      </trkpt>
      <trkpt lat="47.32218" lon="-1.33556">
        <ele>7.66</ele>
        <time>2020-05-16T11:54:24Z</time>
      </trkpt>
      <trkpt lat="47.32211" lon="-1.33574">
        <ele>6.43</ele>
        <time>2020-05-16T11:54:26Z</time>
      </trkpt>
      <trkpt lat="47.32203" lon="-1.33595">
        <ele>4.9</ele>
        <time>2020-05-16T11:54:28Z</time>
      </trkpt>
      <trkpt lat="47.32198" lon="-1.33609">
        <ele>3.89</ele>
        <time>2020-05-16T11:54:30Z</time>
      </trkpt>
      <trkpt lat="47.32192" lon="-1.33624">
        <ele>3.63</ele>
        <time>2020-05-16T11:54:32Z</time>
      </trkpt>
      <trkpt lat="47.32187" lon="-1.33638">
        <ele>4.21</ele>
        <time>2020-05-16T11:54:34Z</time>
      </trkpt>
      <trkpt lat="47.32183" lon="-1.33651">
        <ele>4.53</ele>
        <time>2020-05-16T11:54:36Z</time>
      </trkpt>
      <trkpt lat="47.32175" lon="-1.33671">
        <ele>5.31</ele>
        <time>2020-05-16T11:54:39Z</time>
      </trkpt>
      <trkpt lat="47.32168" lon="-1.33687">
        <ele>4.77</ele>
        <time>2020-05-16T11:54:41Z</time>
      </trkpt>
      <trkpt lat="47.32163" lon="-1.33701">
        <ele>4.21</ele>
        <time>2020-05-16T11:54:43Z</time>
      </trkpt>
      <trkpt lat="47.32158" lon="-1.33716">
        <ele>4.77</ele>
        <time>2020-05-16T11:54:45Z</time>
      </trkpt>
      <trkpt lat="47.32153" lon="-1.3373">
        <ele>6.43</ele>
        <time>2020-05-16T11:54:47Z</time>
      </trkpt>
      <trkpt lat="47.32147" lon="-1.33745">
        <ele>6.83</ele>
        <time>2020-05-16T11:54:49Z</time>
      </trkpt>
      <trkpt lat="47.32141" lon="-1.33759">
        <ele>6.91</ele>
        <time>2020-05-16T11:54:51Z</time>
      </trkpt>
      <trkpt lat="47.32136" lon="-1.33771">
        <ele>7.76</ele>
        <time>2020-05-16T11:54:53Z</time>
      </trkpt>
      <trkpt lat="47.32129" lon="-1.33788">
        <ele>7.16</ele>
        <time>2020-05-16T11:54:55Z</time>
      </trkpt>
      <trkpt lat="47.32121" lon="-1.33806">
        <ele>6.36</ele>
        <time>2020-05-16T11:54:57Z</time>
      </trkpt>
      <trkpt lat="47.32114" lon="-1.33821">
        <ele>6.5</ele>
        <time>2020-05-16T11:54:59Z</time>
      </trkpt>
      <trkpt lat="47.32109" lon="-1.33833">
        <ele>8.05</ele>
        <time>2020-05-16T11:55:01Z</time>
      </trkpt>
      <trkpt lat="47.32101" lon="-1.33849">
        <ele>9.49</ele>
        <time>2020-05-16T11:55:03Z</time>
      </trkpt>
      <trkpt lat="47.32094" lon="-1.33862">
        <ele>10.99</ele>
        <time>2020-05-16T11:55:05Z</time>
      </trkpt>
      <trkpt lat="47.32086" lon="-1.33876">
        <ele>11.04</ele>
        <time>2020-05-16T11:55:07Z</time>
      </trkpt>
      <trkpt lat="47.32079" lon="-1.3389">
        <ele>10.28</ele>
        <time>2020-05-16T11:55:09Z</time>
      </trkpt>
      <trkpt lat="47.32071" lon="-1.33906">
        <ele>9.39</ele>
        <time>2020-05-16T11:55:11Z</time>
      </trkpt>
      <trkpt lat="47.32063" lon="-1.33918">
        <ele>10.3</ele>
        <time>2020-05-16T11:55:13Z</time>
      </trkpt>
      <trkpt lat="47.32054" lon="-1.3393">
        <ele>9.72</ele>
        <time>2020-05-16T11:55:15Z</time>
      </trkpt>
      <trkpt lat="47.32044" lon="-1.33946">
        <ele>7.73</ele>
        <time>2020-05-16T11:55:17Z</time>
      </trkpt>
      <trkpt lat="47.32037" lon="-1.33958">
        <ele>6.69</ele>
        <time>2020-05-16T11:55:19Z</time>
      </trkpt>
      <trkpt lat="47.3203" lon="-1.3397">
        <ele>5.42</ele>
        <time>2020-05-16T11:55:21Z</time>
      </trkpt>
      <trkpt lat="47.32024" lon="-1.33981">
        <ele>5.65</ele>
        <time>2020-05-16T11:55:23Z</time>
      </trkpt>
      <trkpt lat="47.32015" lon="-1.33993">
        <ele>5.35</ele>
        <time>2020-05-16T11:55:25Z</time>
      </trkpt>
      <trkpt lat="47.32008" lon="-1.34005">
        <ele>4.67</ele>
        <time>2020-05-16T11:55:27Z</time>
      </trkpt>
      <trkpt lat="47.32002" lon="-1.34016">
        <ele>4.86</ele>
        <time>2020-05-16T11:55:29Z</time>
      </trkpt>
      <trkpt lat="47.31993" lon="-1.3403">
        <ele>4.53</ele>
        <time>2020-05-16T11:55:31Z</time>
      </trkpt>
      <trkpt lat="47.31984" lon="-1.34043">
        <ele>4.12</ele>
        <time>2020-05-16T11:55:33Z</time>
      </trkpt>
      <trkpt lat="47.31976" lon="-1.34056">
        <ele>3.65</ele>
        <time>2020-05-16T11:55:35Z</time>
      </trkpt>
      <trkpt lat="47.31968" lon="-1.34068">
        <ele>4</ele>
        <time>2020-05-16T11:55:37Z</time>
      </trkpt>
      <trkpt lat="47.31961" lon="-1.34081">
        <ele>6.02</ele>
        <time>2020-05-16T11:55:39Z</time>
      </trkpt>
      <trkpt lat="47.31953" lon="-1.34094">
        <ele>6.92</ele>
        <time>2020-05-16T11:55:41Z</time>
      </trkpt>
      <trkpt lat="47.31944" lon="-1.34108">
        <ele>6.34</ele>
        <time>2020-05-16T11:55:43Z</time>
      </trkpt>
      <trkpt lat="47.31936" lon="-1.34122">
        <ele>5.99</ele>
        <time>2020-05-16T11:55:45Z</time>
      </trkpt>
      <trkpt lat="47.31929" lon="-1.34133">
        <ele>5.61</ele>
        <time>2020-05-16T11:55:47Z</time>
      </trkpt>
      <trkpt lat="47.31921" lon="-1.34144">
        <ele>4.64</ele>
        <time>2020-05-16T11:55:49Z</time>
      </trkpt>
      <trkpt lat="47.31913" lon="-1.34157">
        <ele>4.53</ele>
        <time>2020-05-16T11:55:51Z</time>
      </trkpt>
      <trkpt lat="47.31904" lon="-1.3417">
        <ele>4.07</ele>
        <time>2020-05-16T11:55:53Z</time>
      </trkpt>
      <trkpt lat="47.31894" lon="-1.34181">
        <ele>4.1</ele>
        <time>2020-05-16T11:55:55Z</time>
      </trkpt>
      <trkpt lat="47.31885" lon="-1.34195">
        <ele>4.39</ele>
        <time>2020-05-16T11:55:57Z</time>
      </trkpt>
      <trkpt lat="47.31875" lon="-1.3421">
        <ele>4.4</ele>
        <time>2020-05-16T11:55:59Z</time>
      </trkpt>
      <trkpt lat="47.31865" lon="-1.34225">
        <ele>4.11</ele>
        <time>2020-05-16T11:56:01Z</time>
      </trkpt>
      <trkpt lat="47.31855" lon="-1.34241">
        <ele>2.59</ele>
        <time>2020-05-16T11:56:03Z</time>
      </trkpt>
      <trkpt lat="47.31846" lon="-1.34255">
        <ele>2.2</ele>
        <time>2020-05-16T11:56:05Z</time>
      </trkpt>
      <trkpt lat="47.31836" lon="-1.34271">
        <ele>2.27</ele>
        <time>2020-05-16T11:56:07Z</time>
      </trkpt>
      <trkpt lat="47.31827" lon="-1.34287">
        <ele>1.35</ele>
        <time>2020-05-16T11:56:09Z</time>
      </trkpt>
      <trkpt lat="47.31817" lon="-1.34302">
        <ele>0.38</ele>
        <time>2020-05-16T11:56:11Z</time>
      </trkpt>
      <trkpt lat="47.31808" lon="-1.34318">
        <ele>-0.58</ele>
        <time>2020-05-16T11:56:13Z</time>
      </trkpt>
      <trkpt lat="47.31798" lon="-1.34332">
        <ele>-1.39</ele>
        <time>2020-05-16T11:56:15Z</time>
      </trkpt>
      <trkpt lat="47.31789" lon="-1.34347">
        <ele>-0.77</ele>
        <time>2020-05-16T11:56:17Z</time>
      </trkpt>
      <trkpt lat="47.31782" lon="-1.34358">
        <ele>-0.85</ele>
        <time>2020-05-16T11:56:19Z</time>
      </trkpt>
      <trkpt lat="47.31773" lon="-1.34372">
        <ele>-1.42</ele>
        <time>2020-05-16T11:56:21Z</time>
      </trkpt>
      <trkpt lat="47.31767" lon="-1.34384">
        <ele>-2.11</ele>
        <time>2020-05-16T11:56:23Z</time>
      </trkpt>
      <trkpt lat="47.31758" lon="-1.344">
        <ele>0.48</ele>
        <time>2020-05-16T11:56:26Z</time>
      </trkpt>
      <trkpt lat="47.31748" lon="-1.34416">
        <ele>2.26</ele>
        <time>2020-05-16T11:56:28Z</time>
      </trkpt>
      <trkpt lat="47.31736" lon="-1.34434">
        <ele>2.78</ele>
        <time>2020-05-16T11:56:30Z</time>
      </trkpt>
      <trkpt lat="47.31726" lon="-1.34451">
        <ele>2.48</ele>
        <time>2020-05-16T11:56:32Z</time>
      </trkpt>
      <trkpt lat="47.31717" lon="-1.34467">
        <ele>1.53</ele>
        <time>2020-05-16T11:56:34Z</time>
      </trkpt>
      <trkpt lat="47.31708" lon="-1.34482">
        <ele>1.09</ele>
        <time>2020-05-16T11:56:36Z</time>
      </trkpt>
      <trkpt lat="47.31701" lon="-1.34494">
        <ele>2.38</ele>
        <time>2020-05-16T11:56:38Z</time>
      </trkpt>
      <trkpt lat="47.31691" lon="-1.34509">
        <ele>4.34</ele>
        <time>2020-05-16T11:56:40Z</time>
      </trkpt>
      <trkpt lat="47.31682" lon="-1.34521">
        <ele>3.95</ele>
        <time>2020-05-16T11:56:42Z</time>
      </trkpt>
      <trkpt lat="47.31671" lon="-1.34538">
        <ele>2.74</ele>
        <time>2020-05-16T11:56:44Z</time>
      </trkpt>
      <trkpt lat="47.31663" lon="-1.34552">
        <ele>2.41</ele>
        <time>2020-05-16T11:56:46Z</time>
      </trkpt>
      <trkpt lat="47.31651" lon="-1.34569">
        <ele>2.11</ele>
        <time>2020-05-16T11:56:48Z</time>
      </trkpt>
      <trkpt lat="47.31643" lon="-1.34582">
        <ele>1.07</ele>
        <time>2020-05-16T11:56:50Z</time>
      </trkpt>
      <trkpt lat="47.31636" lon="-1.34594">
        <ele>0.8</ele>
        <time>2020-05-16T11:56:52Z</time>
      </trkpt>
      <trkpt lat="47.31628" lon="-1.34611">
        <ele>-0.23</ele>
        <time>2020-05-16T11:56:54Z</time>
      </trkpt>
      <trkpt lat="47.3162" lon="-1.34621">
        <ele>0.54</ele>
        <time>2020-05-16T11:56:56Z</time>
      </trkpt>
      <trkpt lat="47.31611" lon="-1.34633">
        <ele>0.81</ele>
        <time>2020-05-16T11:56:58Z</time>
      </trkpt>
      <trkpt lat="47.31602" lon="-1.34646">
        <ele>1.6</ele>
        <time>2020-05-16T11:57:00Z</time>
      </trkpt>
      <trkpt lat="47.31593" lon="-1.34662">
        <ele>2.26</ele>
        <time>2020-05-16T11:57:02Z</time>
      </trkpt>
      <trkpt lat="47.31584" lon="-1.34678">
        <ele>3.23</ele>
        <time>2020-05-16T11:57:04Z</time>
      </trkpt>
      <trkpt lat="47.31575" lon="-1.34693">
        <ele>4.73</ele>
        <time>2020-05-16T11:57:06Z</time>
      </trkpt>
      <trkpt lat="47.31567" lon="-1.34707">
        <ele>6.33</ele>
        <time>2020-05-16T11:57:08Z</time>
      </trkpt>
      <trkpt lat="47.31559" lon="-1.3472">
        <ele>8.01</ele>
        <time>2020-05-16T11:57:10Z</time>
      </trkpt>
      <trkpt lat="47.31549" lon="-1.34736">
        <ele>9.35</ele>
        <time>2020-05-16T11:57:12Z</time>
      </trkpt>
      <trkpt lat="47.31539" lon="-1.34749">
        <ele>10.82</ele>
        <time>2020-05-16T11:57:14Z</time>
      </trkpt>
      <trkpt lat="47.31531" lon="-1.34762">
        <ele>13.78</ele>
        <time>2020-05-16T11:57:16Z</time>
      </trkpt>
      <trkpt lat="47.3152" lon="-1.34778">
        <ele>15.74</ele>
        <time>2020-05-16T11:57:18Z</time>
      </trkpt>
      <trkpt lat="47.31511" lon="-1.34791">
        <ele>17.31</ele>
        <time>2020-05-16T11:57:20Z</time>
      </trkpt>
      <trkpt lat="47.31501" lon="-1.34805">
        <ele>16.99</ele>
        <time>2020-05-16T11:57:22Z</time>
      </trkpt>
      <trkpt lat="47.31493" lon="-1.3482">
        <ele>14.85</ele>
        <time>2020-05-16T11:57:24Z</time>
      </trkpt>
      <trkpt lat="47.31484" lon="-1.34833">
        <ele>13.48</ele>
        <time>2020-05-16T11:57:26Z</time>
      </trkpt>
      <trkpt lat="47.31474" lon="-1.34847">
        <ele>14.38</ele>
        <time>2020-05-16T11:57:28Z</time>
      </trkpt>
      <trkpt lat="47.31463" lon="-1.34863">
        <ele>13.26</ele>
        <time>2020-05-16T11:57:30Z</time>
      </trkpt>
      <trkpt lat="47.31454" lon="-1.34878">
        <ele>11.83</ele>
        <time>2020-05-16T11:57:32Z</time>
      </trkpt>
      <trkpt lat="47.31446" lon="-1.34891">
        <ele>11.2</ele>
        <time>2020-05-16T11:57:34Z</time>
      </trkpt>
      <trkpt lat="47.31438" lon="-1.34905">
        <ele>11.52</ele>
        <time>2020-05-16T11:57:36Z</time>
      </trkpt>
      <trkpt lat="47.31428" lon="-1.34922">
        <ele>12.47</ele>
        <time>2020-05-16T11:57:38Z</time>
      </trkpt>
      <trkpt lat="47.31418" lon="-1.34938">
        <ele>13.39</ele>
        <time>2020-05-16T11:57:40Z</time>
      </trkpt>
      <trkpt lat="47.31408" lon="-1.34955">
        <ele>13.65</ele>
        <time>2020-05-16T11:57:42Z</time>
      </trkpt>
      <trkpt lat="47.31399" lon="-1.3497">
        <ele>14.3</ele>
        <time>2020-05-16T11:57:44Z</time>
      </trkpt>
      <trkpt lat="47.31391" lon="-1.34981">
        <ele>13.73</ele>
        <time>2020-05-16T11:57:46Z</time>
      </trkpt>
      <trkpt lat="47.31382" lon="-1.34998">
        <ele>12.2</ele>
        <time>2020-05-16T11:57:48Z</time>
      </trkpt>
      <trkpt lat="47.31372" lon="-1.35016">
        <ele>10.96</ele>
        <time>2020-05-16T11:57:50Z</time>
      </trkpt>
      <trkpt lat="47.31363" lon="-1.35033">
        <ele>9.13</ele>
        <time>2020-05-16T11:57:52Z</time>
      </trkpt>
      <trkpt lat="47.31354" lon="-1.35049">
        <ele>7.66</ele>
        <time>2020-05-16T11:57:54Z</time>
      </trkpt>
      <trkpt lat="47.31344" lon="-1.35065">
        <ele>7.36</ele>
        <time>2020-05-16T11:57:56Z</time>
      </trkpt>
      <trkpt lat="47.31336" lon="-1.35078">
        <ele>7</ele>
        <time>2020-05-16T11:57:58Z</time>
      </trkpt>
      <trkpt lat="47.31325" lon="-1.35088">
        <ele>7.02</ele>
        <time>2020-05-16T11:58:00Z</time>
      </trkpt>
      <trkpt lat="47.31311" lon="-1.35091">
        <ele>7.26</ele>
        <time>2020-05-16T11:58:02Z</time>
      </trkpt>
      <trkpt lat="47.313" lon="-1.35103">
        <ele>7.55</ele>
        <time>2020-05-16T11:58:04Z</time>
      </trkpt>
      <trkpt lat="47.31292" lon="-1.35119">
        <ele>7.14</ele>
        <time>2020-05-16T11:58:06Z</time>
      </trkpt>
      <trkpt lat="47.31285" lon="-1.35138">
        <ele>5.74</ele>
        <time>2020-05-16T11:58:08Z</time>
      </trkpt>
      <trkpt lat="47.31278" lon="-1.35156">
        <ele>4.71</ele>
        <time>2020-05-16T11:58:10Z</time>
      </trkpt>
      <trkpt lat="47.31267" lon="-1.35173">
        <ele>5.26</ele>
        <time>2020-05-16T11:58:12Z</time>
      </trkpt>
      <trkpt lat="47.31257" lon="-1.35191">
        <ele>6.02</ele>
        <time>2020-05-16T11:58:14Z</time>
      </trkpt>
      <trkpt lat="47.31246" lon="-1.35209">
        <ele>5.74</ele>
        <time>2020-05-16T11:58:16Z</time>
      </trkpt>
      <trkpt lat="47.31236" lon="-1.35225">
        <ele>5.31</ele>
        <time>2020-05-16T11:58:18Z</time>
      </trkpt>
      <trkpt lat="47.31226" lon="-1.35241">
        <ele>5.04</ele>
        <time>2020-05-16T11:58:20Z</time>
      </trkpt>
      <trkpt lat="47.31217" lon="-1.35255">
        <ele>5.64</ele>
        <time>2020-05-16T11:58:22Z</time>
      </trkpt>
      <trkpt lat="47.31207" lon="-1.35271">
        <ele>7.08</ele>
        <time>2020-05-16T11:58:24Z</time>
      </trkpt>
      <trkpt lat="47.31197" lon="-1.35289">
        <ele>7.47</ele>
        <time>2020-05-16T11:58:26Z</time>
      </trkpt>
      <trkpt lat="47.31186" lon="-1.35306">
        <ele>7.15</ele>
        <time>2020-05-16T11:58:28Z</time>
      </trkpt>
      <trkpt lat="47.31176" lon="-1.35322">
        <ele>7.17</ele>
        <time>2020-05-16T11:58:30Z</time>
      </trkpt>
      <trkpt lat="47.31168" lon="-1.35335">
        <ele>7.51</ele>
        <time>2020-05-16T11:58:32Z</time>
      </trkpt>
      <trkpt lat="47.31158" lon="-1.35349">
        <ele>7.38</ele>
        <time>2020-05-16T11:58:34Z</time>
      </trkpt>
      <trkpt lat="47.31148" lon="-1.35366">
        <ele>5.98</ele>
        <time>2020-05-16T11:58:36Z</time>
      </trkpt>
      <trkpt lat="47.31138" lon="-1.35382">
        <ele>4.66</ele>
        <time>2020-05-16T11:58:38Z</time>
      </trkpt>
      <trkpt lat="47.31128" lon="-1.35397">
        <ele>3.89</ele>
        <time>2020-05-16T11:58:40Z</time>
      </trkpt>
      <trkpt lat="47.31118" lon="-1.35412">
        <ele>4.18</ele>
        <time>2020-05-16T11:58:42Z</time>
      </trkpt>
      <trkpt lat="47.31108" lon="-1.35425">
        <ele>4.07</ele>
        <time>2020-05-16T11:58:44Z</time>
      </trkpt>
      <trkpt lat="47.31098" lon="-1.35441">
        <ele>3.83</ele>
        <time>2020-05-16T11:58:46Z</time>
      </trkpt>
      <trkpt lat="47.31088" lon="-1.35453">
        <ele>4.02</ele>
        <time>2020-05-16T11:58:48Z</time>
      </trkpt>
      <trkpt lat="47.31075" lon="-1.35469">
        <ele>4.54</ele>
        <time>2020-05-16T11:58:50Z</time>
      </trkpt>
      <trkpt lat="47.31065" lon="-1.35482">
        <ele>4.25</ele>
        <time>2020-05-16T11:58:52Z</time>
      </trkpt>
      <trkpt lat="47.31055" lon="-1.35495">
        <ele>4.72</ele>
        <time>2020-05-16T11:58:54Z</time>
      </trkpt>
      <trkpt lat="47.31045" lon="-1.35507">
        <ele>5.41</ele>
        <time>2020-05-16T11:58:56Z</time>
      </trkpt>
      <trkpt lat="47.31034" lon="-1.3552">
        <ele>6.34</ele>
        <time>2020-05-16T11:58:58Z</time>
      </trkpt>
      <trkpt lat="47.31022" lon="-1.35533">
        <ele>7.08</ele>
        <time>2020-05-16T11:59:00Z</time>
      </trkpt>
      <trkpt lat="47.31011" lon="-1.35547">
        <ele>7.72</ele>
        <time>2020-05-16T11:59:02Z</time>
      </trkpt>
      <trkpt lat="47.31" lon="-1.35559">
        <ele>8.73</ele>
        <time>2020-05-16T11:59:04Z</time>
      </trkpt>
      <trkpt lat="47.30989" lon="-1.35571">
        <ele>9.29</ele>
        <time>2020-05-16T11:59:06Z</time>
      </trkpt>
      <trkpt lat="47.30979" lon="-1.35583">
        <ele>8.26</ele>
        <time>2020-05-16T11:59:08Z</time>
      </trkpt>
      <trkpt lat="47.30969" lon="-1.35595">
        <ele>7.31</ele>
        <time>2020-05-16T11:59:10Z</time>
      </trkpt>
      <trkpt lat="47.30958" lon="-1.35607">
        <ele>6.46</ele>
        <time>2020-05-16T11:59:12Z</time>
      </trkpt>
      <trkpt lat="47.30947" lon="-1.3562">
        <ele>4.92</ele>
        <time>2020-05-16T11:59:14Z</time>
      </trkpt>
      <trkpt lat="47.30935" lon="-1.35631">
        <ele>3.76</ele>
        <time>2020-05-16T11:59:16Z</time>
      </trkpt>
      <trkpt lat="47.30924" lon="-1.35643">
        <ele>3.37</ele>
        <time>2020-05-16T11:59:18Z</time>
      </trkpt>
      <trkpt lat="47.30913" lon="-1.35657">
        <ele>2.52</ele>
        <time>2020-05-16T11:59:20Z</time>
      </trkpt>
      <trkpt lat="47.309" lon="-1.35672">
        <ele>1.97</ele>
        <time>2020-05-16T11:59:22Z</time>
      </trkpt>
      <trkpt lat="47.30891" lon="-1.35683">
        <ele>1.94</ele>
        <time>2020-05-16T11:59:24Z</time>
      </trkpt>
      <trkpt lat="47.30879" lon="-1.35697">
        <ele>1.9</ele>
        <time>2020-05-16T11:59:26Z</time>
      </trkpt>
      <trkpt lat="47.30868" lon="-1.35711">
        <ele>1</ele>
        <time>2020-05-16T11:59:28Z</time>
      </trkpt>
      <trkpt lat="47.30858" lon="-1.35723">
        <ele>0.86</ele>
        <time>2020-05-16T11:59:30Z</time>
      </trkpt>
      <trkpt lat="47.30847" lon="-1.35736">
        <ele>1.14</ele>
        <time>2020-05-16T11:59:32Z</time>
      </trkpt>
      <trkpt lat="47.30838" lon="-1.35749">
        <ele>2.68</ele>
        <time>2020-05-16T11:59:34Z</time>
      </trkpt>
      <trkpt lat="47.30827" lon="-1.35761">
        <ele>3.08</ele>
        <time>2020-05-16T11:59:36Z</time>
      </trkpt>
      <trkpt lat="47.30817" lon="-1.35772">
        <ele>4.07</ele>
        <time>2020-05-16T11:59:38Z</time>
      </trkpt>
      <trkpt lat="47.30805" lon="-1.35787">
        <ele>4.63</ele>
        <time>2020-05-16T11:59:40Z</time>
      </trkpt>
      <trkpt lat="47.30795" lon="-1.35799">
        <ele>5.76</ele>
        <time>2020-05-16T11:59:42Z</time>
      </trkpt>
      <trkpt lat="47.30786" lon="-1.35811">
        <ele>6.76</ele>
        <time>2020-05-16T11:59:44Z</time>
      </trkpt>
      <trkpt lat="47.30774" lon="-1.35823">
        <ele>7.3</ele>
        <time>2020-05-16T11:59:46Z</time>
      </trkpt>
      <trkpt lat="47.30762" lon="-1.35836">
        <ele>8.67</ele>
        <time>2020-05-16T11:59:48Z</time>
      </trkpt>
      <trkpt lat="47.30751" lon="-1.35849">
        <ele>9.08</ele>
        <time>2020-05-16T11:59:50Z</time>
      </trkpt>
      <trkpt lat="47.30739" lon="-1.35863">
        <ele>7.9</ele>
        <time>2020-05-16T11:59:52Z</time>
      </trkpt>
      <trkpt lat="47.30728" lon="-1.35877">
        <ele>7.11</ele>
        <time>2020-05-16T11:59:54Z</time>
      </trkpt>
      <trkpt lat="47.30717" lon="-1.35888">
        <ele>6.22</ele>
        <time>2020-05-16T11:59:56Z</time>
      </trkpt>
      <trkpt lat="47.30707" lon="-1.359">
        <ele>5.83</ele>
        <time>2020-05-16T11:59:58Z</time>
      </trkpt>
      <trkpt lat="47.30695" lon="-1.35914">
        <ele>6.55</ele>
        <time>2020-05-16T12:00:00Z</time>
      </trkpt>
      <trkpt lat="47.30683" lon="-1.35928">
        <ele>6.4</ele>
        <time>2020-05-16T12:00:02Z</time>
      </trkpt>
      <trkpt lat="47.30673" lon="-1.3594">
        <ele>5.66</ele>
        <time>2020-05-16T12:00:04Z</time>
      </trkpt>
      <trkpt lat="47.30663" lon="-1.35953">
        <ele>5</ele>
        <time>2020-05-16T12:00:06Z</time>
      </trkpt>
      <trkpt lat="47.30653" lon="-1.35964">
        <ele>5.17</ele>
        <time>2020-05-16T12:00:08Z</time>
      </trkpt>
      <trkpt lat="47.30643" lon="-1.35976">
        <ele>5.02</ele>
        <time>2020-05-16T12:00:10Z</time>
      </trkpt>
      <trkpt lat="47.30631" lon="-1.35989">
        <ele>5.55</ele>
        <time>2020-05-16T12:00:12Z</time>
      </trkpt>
      <trkpt lat="47.30621" lon="-1.36001">
        <ele>6.2</ele>
        <time>2020-05-16T12:00:14Z</time>
      </trkpt>
      <trkpt lat="47.30611" lon="-1.36012">
        <ele>7.35</ele>
        <time>2020-05-16T12:00:16Z</time>
      </trkpt>
      <trkpt lat="47.30601" lon="-1.36021">
        <ele>7.58</ele>
        <time>2020-05-16T12:00:18Z</time>
      </trkpt>
      <trkpt lat="47.3059" lon="-1.36032">
        <ele>7.25</ele>
        <time>2020-05-16T12:00:20Z</time>
      </trkpt>
      <trkpt lat="47.30584" lon="-1.36045">
        <ele>6.92</ele>
        <time>2020-05-16T12:00:24Z</time>
      </trkpt>
      <trkpt lat="47.30576" lon="-1.36055">
        <ele>5.81</ele>
        <time>2020-05-16T12:00:26Z</time>
      </trkpt>
      <trkpt lat="47.30568" lon="-1.3607">
        <ele>4.71</ele>
        <time>2020-05-16T12:00:28Z</time>
      </trkpt>
      <trkpt lat="47.30558" lon="-1.36086">
        <ele>2.86</ele>
        <time>2020-05-16T12:00:30Z</time>
      </trkpt>
      <trkpt lat="47.30548" lon="-1.36098">
        <ele>2.96</ele>
        <time>2020-05-16T12:00:32Z</time>
      </trkpt>
      <trkpt lat="47.30539" lon="-1.36112">
        <ele>3.25</ele>
        <time>2020-05-16T12:00:34Z</time>
      </trkpt>
      <trkpt lat="47.3053" lon="-1.36127">
        <ele>2.71</ele>
        <time>2020-05-16T12:00:36Z</time>
      </trkpt>
      <trkpt lat="47.30523" lon="-1.36141">
        <ele>1.46</ele>
        <time>2020-05-16T12:00:38Z</time>
      </trkpt>
      <trkpt lat="47.30513" lon="-1.36158">
        <ele>0.06</ele>
        <time>2020-05-16T12:00:40Z</time>
      </trkpt>
      <trkpt lat="47.30505" lon="-1.36172">
        <ele>-0.56</ele>
        <time>2020-05-16T12:00:42Z</time>
      </trkpt>
      <trkpt lat="47.30497" lon="-1.36187">
        <ele>-0.26</ele>
        <time>2020-05-16T12:00:44Z</time>
      </trkpt>
      <trkpt lat="47.30489" lon="-1.36202">
        <ele>-0.19</ele>
        <time>2020-05-16T12:00:46Z</time>
      </trkpt>
      <trkpt lat="47.30481" lon="-1.36219">
        <ele>0.04</ele>
        <time>2020-05-16T12:00:48Z</time>
      </trkpt>
      <trkpt lat="47.30472" lon="-1.36235">
        <ele>1.34</ele>
        <time>2020-05-16T12:00:50Z</time>
      </trkpt>
      <trkpt lat="47.30464" lon="-1.36252">
        <ele>2.24</ele>
        <time>2020-05-16T12:00:52Z</time>
      </trkpt>
      <trkpt lat="47.30456" lon="-1.36268">
        <ele>2.84</ele>
        <time>2020-05-16T12:00:54Z</time>
      </trkpt>
      <trkpt lat="47.30448" lon="-1.36284">
        <ele>2.62</ele>
        <time>2020-05-16T12:00:56Z</time>
      </trkpt>
      <trkpt lat="47.3044" lon="-1.363">
        <ele>3</ele>
        <time>2020-05-16T12:00:58Z</time>
      </trkpt>
      <trkpt lat="47.30432" lon="-1.36317">
        <ele>2.93</ele>
        <time>2020-05-16T12:01:00Z</time>
      </trkpt>
      <trkpt lat="47.30424" lon="-1.36334">
        <ele>2.44</ele>
        <time>2020-05-16T12:01:02Z</time>
      </trkpt>
      <trkpt lat="47.30416" lon="-1.3635">
        <ele>1.59</ele>
        <time>2020-05-16T12:01:04Z</time>
      </trkpt>
      <trkpt lat="47.30409" lon="-1.36366">
        <ele>0.25</ele>
        <time>2020-05-16T12:01:06Z</time>
      </trkpt>
      <trkpt lat="47.30401" lon="-1.36384">
        <ele>-0.75</ele>
        <time>2020-05-16T12:01:08Z</time>
      </trkpt>
      <trkpt lat="47.30394" lon="-1.364">
        <ele>-1.32</ele>
        <time>2020-05-16T12:01:10Z</time>
      </trkpt>
      <trkpt lat="47.30386" lon="-1.36416">
        <ele>-1.03</ele>
        <time>2020-05-16T12:01:12Z</time>
      </trkpt>
      <trkpt lat="47.30379" lon="-1.36431">
        <ele>-1.34</ele>
        <time>2020-05-16T12:01:14Z</time>
      </trkpt>
      <trkpt lat="47.30373" lon="-1.36446">
        <ele>-1.57</ele>
        <time>2020-05-16T12:01:15Z</time>
      </trkpt>
      <trkpt lat="47.30365" lon="-1.36463">
        <ele>-1.61</ele>
        <time>2020-05-16T12:01:17Z</time>
      </trkpt>
      <trkpt lat="47.30356" lon="-1.36483">
        <ele>-0.18</ele>
        <time>2020-05-16T12:01:19Z</time>
      </trkpt>
      <trkpt lat="47.30348" lon="-1.36499">
        <ele>1.21</ele>
        <time>2020-05-16T12:01:21Z</time>
      </trkpt>
      <trkpt lat="47.3034" lon="-1.36513">
        <ele>2.55</ele>
        <time>2020-05-16T12:01:23Z</time>
      </trkpt>
      <trkpt lat="47.30332" lon="-1.36528">
        <ele>3.47</ele>
        <time>2020-05-16T12:01:25Z</time>
      </trkpt>
      <trkpt lat="47.30325" lon="-1.36543">
        <ele>3.45</ele>
        <time>2020-05-16T12:01:27Z</time>
      </trkpt>
      <trkpt lat="47.30316" lon="-1.3656">
        <ele>1.47</ele>
        <time>2020-05-16T12:01:29Z</time>
      </trkpt>
      <trkpt lat="47.30308" lon="-1.36576">
        <ele>1.56</ele>
        <time>2020-05-16T12:01:31Z</time>
      </trkpt>
      <trkpt lat="47.303" lon="-1.36592">
        <ele>1.67</ele>
        <time>2020-05-16T12:01:33Z</time>
      </trkpt>
      <trkpt lat="47.30293" lon="-1.36608">
        <ele>1.46</ele>
        <time>2020-05-16T12:01:35Z</time>
      </trkpt>
      <trkpt lat="47.30284" lon="-1.36625">
        <ele>1.49</ele>
        <time>2020-05-16T12:01:37Z</time>
      </trkpt>
      <trkpt lat="47.30276" lon="-1.36643">
        <ele>0.91</ele>
        <time>2020-05-16T12:01:39Z</time>
      </trkpt>
      <trkpt lat="47.30268" lon="-1.36659">
        <ele>1.37</ele>
        <time>2020-05-16T12:01:41Z</time>
      </trkpt>
      <trkpt lat="47.3026" lon="-1.36676">
        <ele>1.34</ele>
        <time>2020-05-16T12:01:43Z</time>
      </trkpt>
      <trkpt lat="47.30254" lon="-1.36688">
        <ele>1.72</ele>
        <time>2020-05-16T12:01:45Z</time>
      </trkpt>
      <trkpt lat="47.30246" lon="-1.36703">
        <ele>0.68</ele>
        <time>2020-05-16T12:01:47Z</time>
      </trkpt>
      <trkpt lat="47.30238" lon="-1.36719">
        <ele>-0.44</ele>
        <time>2020-05-16T12:01:49Z</time>
      </trkpt>
      <trkpt lat="47.30231" lon="-1.36733">
        <ele>0.46</ele>
        <time>2020-05-16T12:01:51Z</time>
      </trkpt>
      <trkpt lat="47.30223" lon="-1.36749">
        <ele>1.08</ele>
        <time>2020-05-16T12:01:53Z</time>
      </trkpt>
      <trkpt lat="47.30216" lon="-1.36763">
        <ele>1.57</ele>
        <time>2020-05-16T12:01:55Z</time>
      </trkpt>
      <trkpt lat="47.30209" lon="-1.36777">
        <ele>2.48</ele>
        <time>2020-05-16T12:01:57Z</time>
      </trkpt>
      <trkpt lat="47.30203" lon="-1.36793">
        <ele>4.15</ele>
        <time>2020-05-16T12:01:59Z</time>
      </trkpt>
      <trkpt lat="47.30195" lon="-1.3681">
        <ele>4.47</ele>
        <time>2020-05-16T12:02:01Z</time>
      </trkpt>
      <trkpt lat="47.30187" lon="-1.36827">
        <ele>3.67</ele>
        <time>2020-05-16T12:02:03Z</time>
      </trkpt>
      <trkpt lat="47.3018" lon="-1.36843">
        <ele>3.59</ele>
        <time>2020-05-16T12:02:05Z</time>
      </trkpt>
      <trkpt lat="47.30173" lon="-1.36855">
        <ele>4.43</ele>
        <time>2020-05-16T12:02:07Z</time>
      </trkpt>
      <trkpt lat="47.30165" lon="-1.36872">
        <ele>4.78</ele>
        <time>2020-05-16T12:02:09Z</time>
      </trkpt>
      <trkpt lat="47.30157" lon="-1.36888">
        <ele>4.46</ele>
        <time>2020-05-16T12:02:11Z</time>
      </trkpt>
      <trkpt lat="47.30149" lon="-1.36903">
        <ele>3.87</ele>
        <time>2020-05-16T12:02:13Z</time>
      </trkpt>
      <trkpt lat="47.30142" lon="-1.36918">
        <ele>2.7</ele>
        <time>2020-05-16T12:02:15Z</time>
      </trkpt>
      <trkpt lat="47.30134" lon="-1.36933">
        <ele>2.03</ele>
        <time>2020-05-16T12:02:17Z</time>
      </trkpt>
      <trkpt lat="47.30126" lon="-1.36948">
        <ele>1.34</ele>
        <time>2020-05-16T12:02:19Z</time>
      </trkpt>
      <trkpt lat="47.3012" lon="-1.36964">
        <ele>0.36</ele>
        <time>2020-05-16T12:02:21Z</time>
      </trkpt>
      <trkpt lat="47.30114" lon="-1.36981">
        <ele>0.56</ele>
        <time>2020-05-16T12:02:23Z</time>
      </trkpt>
      <trkpt lat="47.30107" lon="-1.36997">
        <ele>1.38</ele>
        <time>2020-05-16T12:02:25Z</time>
      </trkpt>
      <trkpt lat="47.30101" lon="-1.37012">
        <ele>1.86</ele>
        <time>2020-05-16T12:02:27Z</time>
      </trkpt>
      <trkpt lat="47.30092" lon="-1.37028">
        <ele>2.62</ele>
        <time>2020-05-16T12:02:29Z</time>
      </trkpt>
      <trkpt lat="47.30085" lon="-1.37041">
        <ele>3.31</ele>
        <time>2020-05-16T12:02:31Z</time>
      </trkpt>
      <trkpt lat="47.30077" lon="-1.37056">
        <ele>3.05</ele>
        <time>2020-05-16T12:02:33Z</time>
      </trkpt>
      <trkpt lat="47.30067" lon="-1.37073">
        <ele>2.24</ele>
        <time>2020-05-16T12:02:35Z</time>
      </trkpt>
      <trkpt lat="47.30057" lon="-1.37089">
        <ele>1.63</ele>
        <time>2020-05-16T12:02:37Z</time>
      </trkpt>
      <trkpt lat="47.30049" lon="-1.37103">
        <ele>1.52</ele>
        <time>2020-05-16T12:02:39Z</time>
      </trkpt>
      <trkpt lat="47.3004" lon="-1.37116">
        <ele>1.72</ele>
        <time>2020-05-16T12:02:41Z</time>
      </trkpt>
      <trkpt lat="47.30032" lon="-1.3713">
        <ele>2.37</ele>
        <time>2020-05-16T12:02:43Z</time>
      </trkpt>
      <trkpt lat="47.30025" lon="-1.37142">
        <ele>3.2</ele>
        <time>2020-05-16T12:02:45Z</time>
      </trkpt>
      <trkpt lat="47.30016" lon="-1.37155">
        <ele>3.77</ele>
        <time>2020-05-16T12:02:47Z</time>
      </trkpt>
      <trkpt lat="47.30007" lon="-1.3717">
        <ele>3.74</ele>
        <time>2020-05-16T12:02:49Z</time>
      </trkpt>
      <trkpt lat="47.29997" lon="-1.37184">
        <ele>2.99</ele>
        <time>2020-05-16T12:02:51Z</time>
      </trkpt>
      <trkpt lat="47.29987" lon="-1.37198">
        <ele>1.88</ele>
        <time>2020-05-16T12:02:53Z</time>
      </trkpt>
      <trkpt lat="47.29977" lon="-1.37215">
        <ele>1.33</ele>
        <time>2020-05-16T12:02:55Z</time>
      </trkpt>
      <trkpt lat="47.29968" lon="-1.37228">
        <ele>1.64</ele>
        <time>2020-05-16T12:02:57Z</time>
      </trkpt>
      <trkpt lat="47.2996" lon="-1.37241">
        <ele>2.72</ele>
        <time>2020-05-16T12:02:59Z</time>
      </trkpt>
      <trkpt lat="47.29951" lon="-1.37256">
        <ele>3.06</ele>
        <time>2020-05-16T12:03:01Z</time>
      </trkpt>
      <trkpt lat="47.29941" lon="-1.37271">
        <ele>3.09</ele>
        <time>2020-05-16T12:03:03Z</time>
      </trkpt>
      <trkpt lat="47.29931" lon="-1.37287">
        <ele>2.99</ele>
        <time>2020-05-16T12:03:05Z</time>
      </trkpt>
      <trkpt lat="47.2992" lon="-1.37303">
        <ele>2.13</ele>
        <time>2020-05-16T12:03:07Z</time>
      </trkpt>
      <trkpt lat="47.2991" lon="-1.37319">
        <ele>2.16</ele>
        <time>2020-05-16T12:03:09Z</time>
      </trkpt>
      <trkpt lat="47.299" lon="-1.37334">
        <ele>1.84</ele>
        <time>2020-05-16T12:03:11Z</time>
      </trkpt>
      <trkpt lat="47.2989" lon="-1.37349">
        <ele>1.86</ele>
        <time>2020-05-16T12:03:13Z</time>
      </trkpt>
      <trkpt lat="47.29881" lon="-1.37363">
        <ele>1.28</ele>
        <time>2020-05-16T12:03:15Z</time>
      </trkpt>
      <trkpt lat="47.29871" lon="-1.37378">
        <ele>0.38</ele>
        <time>2020-05-16T12:03:17Z</time>
      </trkpt>
      <trkpt lat="47.29861" lon="-1.37392">
        <ele>-0.17</ele>
        <time>2020-05-16T12:03:19Z</time>
      </trkpt>
      <trkpt lat="47.29851" lon="-1.37407">
        <ele>-0.5</ele>
        <time>2020-05-16T12:03:21Z</time>
      </trkpt>
      <trkpt lat="47.29843" lon="-1.37421">
        <ele>-0.88</ele>
        <time>2020-05-16T12:03:23Z</time>
      </trkpt>
      <trkpt lat="47.29836" lon="-1.37433">
        <ele>-0.5</ele>
        <time>2020-05-16T12:03:25Z</time>
      </trkpt>
      <trkpt lat="47.29827" lon="-1.37448">
        <ele>-0.02</ele>
        <time>2020-05-16T12:03:27Z</time>
      </trkpt>
      <trkpt lat="47.29818" lon="-1.37461">
        <ele>0.59</ele>
        <time>2020-05-16T12:03:29Z</time>
      </trkpt>
      <trkpt lat="47.2981" lon="-1.37475">
        <ele>1.63</ele>
        <time>2020-05-16T12:03:31Z</time>
      </trkpt>
      <trkpt lat="47.29799" lon="-1.37492">
        <ele>2.42</ele>
        <time>2020-05-16T12:03:33Z</time>
      </trkpt>
      <trkpt lat="47.29791" lon="-1.37506">
        <ele>2.75</ele>
        <time>2020-05-16T12:03:35Z</time>
      </trkpt>
      <trkpt lat="47.29784" lon="-1.37519">
        <ele>1.85</ele>
        <time>2020-05-16T12:03:37Z</time>
      </trkpt>
      <trkpt lat="47.29776" lon="-1.37535">
        <ele>0.82</ele>
        <time>2020-05-16T12:03:39Z</time>
      </trkpt>
      <trkpt lat="47.29768" lon="-1.3755">
        <ele>-0.17</ele>
        <time>2020-05-16T12:03:41Z</time>
      </trkpt>
      <trkpt lat="47.29761" lon="-1.37564">
        <ele>0.55</ele>
        <time>2020-05-16T12:03:43Z</time>
      </trkpt>
      <trkpt lat="47.29752" lon="-1.37581">
        <ele>1.52</ele>
        <time>2020-05-16T12:03:45Z</time>
      </trkpt>
      <trkpt lat="47.29744" lon="-1.37598">
        <ele>1.78</ele>
        <time>2020-05-16T12:03:47Z</time>
      </trkpt>
      <trkpt lat="47.29736" lon="-1.37613">
        <ele>1.6</ele>
        <time>2020-05-16T12:03:49Z</time>
      </trkpt>
      <trkpt lat="47.29727" lon="-1.3763">
        <ele>0.47</ele>
        <time>2020-05-16T12:03:51Z</time>
      </trkpt>
      <trkpt lat="47.29718" lon="-1.37646">
        <ele>0.07</ele>
        <time>2020-05-16T12:03:53Z</time>
      </trkpt>
      <trkpt lat="47.29711" lon="-1.37661">
        <ele>0.65</ele>
        <time>2020-05-16T12:03:55Z</time>
      </trkpt>
      <trkpt lat="47.29703" lon="-1.37675">
        <ele>1.4</ele>
        <time>2020-05-16T12:03:57Z</time>
      </trkpt>
      <trkpt lat="47.29696" lon="-1.37688">
        <ele>2.22</ele>
        <time>2020-05-16T12:03:59Z</time>
      </trkpt>
      <trkpt lat="47.29687" lon="-1.37704">
        <ele>3.41</ele>
        <time>2020-05-16T12:04:01Z</time>
      </trkpt>
      <trkpt lat="47.29678" lon="-1.37722">
        <ele>2.95</ele>
        <time>2020-05-16T12:04:03Z</time>
      </trkpt>
      <trkpt lat="47.29669" lon="-1.3774">
        <ele>2.1</ele>
        <time>2020-05-16T12:04:05Z</time>
      </trkpt>
      <trkpt lat="47.29661" lon="-1.37757">
        <ele>1.17</ele>
        <time>2020-05-16T12:04:07Z</time>
      </trkpt>
      <trkpt lat="47.29652" lon="-1.37776">
        <ele>-0.26</ele>
        <time>2020-05-16T12:04:09Z</time>
      </trkpt>
      <trkpt lat="47.29644" lon="-1.37791">
        <ele>-1.53</ele>
        <time>2020-05-16T12:04:11Z</time>
      </trkpt>
      <trkpt lat="47.29637" lon="-1.37805">
        <ele>-2.11</ele>
        <time>2020-05-16T12:04:13Z</time>
      </trkpt>
      <trkpt lat="47.29628" lon="-1.37819">
        <ele>-1.3</ele>
        <time>2020-05-16T12:04:15Z</time>
      </trkpt>
      <trkpt lat="47.29619" lon="-1.37834">
        <ele>-0.27</ele>
        <time>2020-05-16T12:04:17Z</time>
      </trkpt>
      <trkpt lat="47.29612" lon="-1.37849">
        <ele>-0.04</ele>
        <time>2020-05-16T12:04:19Z</time>
      </trkpt>
      <trkpt lat="47.29604" lon="-1.37865">
        <ele>-0.03</ele>
        <time>2020-05-16T12:04:21Z</time>
      </trkpt>
      <trkpt lat="47.29597" lon="-1.37881">
        <ele>-0.21</ele>
        <time>2020-05-16T12:04:23Z</time>
      </trkpt>
      <trkpt lat="47.2959" lon="-1.37898">
        <ele>-0.69</ele>
        <time>2020-05-16T12:04:25Z</time>
      </trkpt>
      <trkpt lat="47.29583" lon="-1.37913">
        <ele>-0.47</ele>
        <time>2020-05-16T12:04:27Z</time>
      </trkpt>
      <trkpt lat="47.29576" lon="-1.37929">
        <ele>0.45</ele>
        <time>2020-05-16T12:04:29Z</time>
      </trkpt>
      <trkpt lat="47.29571" lon="-1.37943">
        <ele>1.94</ele>
        <time>2020-05-16T12:04:31Z</time>
      </trkpt>
      <trkpt lat="47.29563" lon="-1.37961">
        <ele>2.64</ele>
        <time>2020-05-16T12:04:33Z</time>
      </trkpt>
      <trkpt lat="47.29556" lon="-1.37978">
        <ele>2.03</ele>
        <time>2020-05-16T12:04:35Z</time>
      </trkpt>
      <trkpt lat="47.29551" lon="-1.37992">
        <ele>2.03</ele>
        <time>2020-05-16T12:04:37Z</time>
      </trkpt>
      <trkpt lat="47.29545" lon="-1.3801">
        <ele>2.07</ele>
        <time>2020-05-16T12:04:39Z</time>
      </trkpt>
      <trkpt lat="47.29539" lon="-1.38028">
        <ele>1.94</ele>
        <time>2020-05-16T12:04:41Z</time>
      </trkpt>
      <trkpt lat="47.29532" lon="-1.38045">
        <ele>1.41</ele>
        <time>2020-05-16T12:04:43Z</time>
      </trkpt>
      <trkpt lat="47.29525" lon="-1.38064">
        <ele>1.76</ele>
        <time>2020-05-16T12:04:45Z</time>
      </trkpt>
      <trkpt lat="47.2952" lon="-1.38082">
        <ele>1.71</ele>
        <time>2020-05-16T12:04:47Z</time>
      </trkpt>
      <trkpt lat="47.29515" lon="-1.38101">
        <ele>2.14</ele>
        <time>2020-05-16T12:04:49Z</time>
      </trkpt>
      <trkpt lat="47.29509" lon="-1.3812">
        <ele>3.23</ele>
        <time>2020-05-16T12:04:51Z</time>
      </trkpt>
      <trkpt lat="47.29505" lon="-1.38135">
        <ele>2.66</ele>
        <time>2020-05-16T12:04:53Z</time>
      </trkpt>
      <trkpt lat="47.29499" lon="-1.38155">
        <ele>2.04</ele>
        <time>2020-05-16T12:04:55Z</time>
      </trkpt>
      <trkpt lat="47.29494" lon="-1.38173">
        <ele>1.28</ele>
        <time>2020-05-16T12:04:57Z</time>
      </trkpt>
      <trkpt lat="47.2949" lon="-1.38191">
        <ele>0.49</ele>
        <time>2020-05-16T12:04:59Z</time>
      </trkpt>
      <trkpt lat="47.29485" lon="-1.3821">
        <ele>0.33</ele>
        <time>2020-05-16T12:05:01Z</time>
      </trkpt>
      <trkpt lat="47.29481" lon="-1.38225">
        <ele>0.31</ele>
        <time>2020-05-16T12:05:03Z</time>
      </trkpt>
      <trkpt lat="47.29477" lon="-1.38242">
        <ele>0.38</ele>
        <time>2020-05-16T12:05:05Z</time>
      </trkpt>
      <trkpt lat="47.29471" lon="-1.38261">
        <ele>-0.15</ele>
        <time>2020-05-16T12:05:07Z</time>
      </trkpt>
      <trkpt lat="47.29466" lon="-1.38279">
        <ele>-1.4</ele>
        <time>2020-05-16T12:05:09Z</time>
      </trkpt>
      <trkpt lat="47.29463" lon="-1.38295">
        <ele>-2.4</ele>
        <time>2020-05-16T12:05:11Z</time>
      </trkpt>
      <trkpt lat="47.29458" lon="-1.38312">
        <ele>-2.6</ele>
        <time>2020-05-16T12:05:13Z</time>
      </trkpt>
      <trkpt lat="47.29452" lon="-1.38327">
        <ele>-1.93</ele>
        <time>2020-05-16T12:05:15Z</time>
      </trkpt>
      <trkpt lat="47.29445" lon="-1.38337">
        <ele>-0.2</ele>
        <time>2020-05-16T12:05:17Z</time>
      </trkpt>
      <trkpt lat="47.29441" lon="-1.38351">
        <ele>1.05</ele>
        <time>2020-05-16T12:05:19Z</time>
      </trkpt>
      <trkpt lat="47.29437" lon="-1.38371">
        <ele>1.74</ele>
        <time>2020-05-16T12:05:21Z</time>
      </trkpt>
      <trkpt lat="47.29433" lon="-1.38387">
        <ele>2.31</ele>
        <time>2020-05-16T12:05:23Z</time>
      </trkpt>
      <trkpt lat="47.29428" lon="-1.38408">
        <ele>3.08</ele>
        <time>2020-05-16T12:05:25Z</time>
      </trkpt>
      <trkpt lat="47.29423" lon="-1.38426">
        <ele>3.63</ele>
        <time>2020-05-16T12:05:27Z</time>
      </trkpt>
      <trkpt lat="47.29418" lon="-1.38446">
        <ele>3.91</ele>
        <time>2020-05-16T12:05:29Z</time>
      </trkpt>
      <trkpt lat="47.29414" lon="-1.38465">
        <ele>4.3</ele>
        <time>2020-05-16T12:05:31Z</time>
      </trkpt>
      <trkpt lat="47.29409" lon="-1.38483">
        <ele>5.08</ele>
        <time>2020-05-16T12:05:33Z</time>
      </trkpt>
      <trkpt lat="47.29403" lon="-1.38501">
        <ele>4.33</ele>
        <time>2020-05-16T12:05:35Z</time>
      </trkpt>
      <trkpt lat="47.29399" lon="-1.38519">
        <ele>3.42</ele>
        <time>2020-05-16T12:05:37Z</time>
      </trkpt>
      <trkpt lat="47.29394" lon="-1.38534">
        <ele>2.73</ele>
        <time>2020-05-16T12:05:39Z</time>
      </trkpt>
      <trkpt lat="47.29389" lon="-1.38552">
        <ele>2.99</ele>
        <time>2020-05-16T12:05:41Z</time>
      </trkpt>
      <trkpt lat="47.29381" lon="-1.38561">
        <ele>2.2</ele>
        <time>2020-05-16T12:05:43Z</time>
      </trkpt>
      <trkpt lat="47.29371" lon="-1.38576">
        <ele>2.62</ele>
        <time>2020-05-16T12:05:46Z</time>
      </trkpt>
      <trkpt lat="47.29366" lon="-1.38596">
        <ele>3.08</ele>
        <time>2020-05-16T12:05:48Z</time>
      </trkpt>
      <trkpt lat="47.29361" lon="-1.38618">
        <ele>2.35</ele>
        <time>2020-05-16T12:05:50Z</time>
      </trkpt>
      <trkpt lat="47.29354" lon="-1.3864">
        <ele>1.16</ele>
        <time>2020-05-16T12:05:52Z</time>
      </trkpt>
      <trkpt lat="47.29347" lon="-1.38662">
        <ele>-0.88</ele>
        <time>2020-05-16T12:05:54Z</time>
      </trkpt>
      <trkpt lat="47.29341" lon="-1.38683">
        <ele>-2.06</ele>
        <time>2020-05-16T12:05:56Z</time>
      </trkpt>
      <trkpt lat="47.29335" lon="-1.38701">
        <ele>-2.4</ele>
        <time>2020-05-16T12:05:58Z</time>
      </trkpt>
      <trkpt lat="47.29325" lon="-1.38718">
        <ele>-2.86</ele>
        <time>2020-05-16T12:06:00Z</time>
      </trkpt>
      <trkpt lat="47.29323" lon="-1.38739">
        <ele>-2.59</ele>
        <time>2020-05-16T12:06:02Z</time>
      </trkpt>
      <trkpt lat="47.29319" lon="-1.38758">
        <ele>-1.91</ele>
        <time>2020-05-16T12:06:04Z</time>
      </trkpt>
      <trkpt lat="47.29315" lon="-1.3878">
        <ele>-1.31</ele>
        <time>2020-05-16T12:06:06Z</time>
      </trkpt>
      <trkpt lat="47.29311" lon="-1.38798">
        <ele>-0.66</ele>
        <time>2020-05-16T12:06:08Z</time>
      </trkpt>
      <trkpt lat="47.29306" lon="-1.38819">
        <ele>0.22</ele>
        <time>2020-05-16T12:06:10Z</time>
      </trkpt>
      <trkpt lat="47.293" lon="-1.38839">
        <ele>0.3</ele>
        <time>2020-05-16T12:06:12Z</time>
      </trkpt>
      <trkpt lat="47.29295" lon="-1.38859">
        <ele>0.38</ele>
        <time>2020-05-16T12:06:14Z</time>
      </trkpt>
      <trkpt lat="47.2929" lon="-1.38879">
        <ele>1.17</ele>
        <time>2020-05-16T12:06:16Z</time>
      </trkpt>
      <trkpt lat="47.29285" lon="-1.38897">
        <ele>1.59</ele>
        <time>2020-05-16T12:06:18Z</time>
      </trkpt>
      <trkpt lat="47.29279" lon="-1.38916">
        <ele>1.64</ele>
        <time>2020-05-16T12:06:20Z</time>
      </trkpt>
      <trkpt lat="47.29272" lon="-1.38939">
        <ele>0.73</ele>
        <time>2020-05-16T12:06:22Z</time>
      </trkpt>
      <trkpt lat="47.29267" lon="-1.38958">
        <ele>-0.01</ele>
        <time>2020-05-16T12:06:24Z</time>
      </trkpt>
      <trkpt lat="47.29262" lon="-1.38977">
        <ele>-0.36</ele>
        <time>2020-05-16T12:06:26Z</time>
      </trkpt>
      <trkpt lat="47.29256" lon="-1.39">
        <ele>-0.43</ele>
        <time>2020-05-16T12:06:28Z</time>
      </trkpt>
      <trkpt lat="47.29252" lon="-1.39018">
        <ele>-0.1</ele>
        <time>2020-05-16T12:06:30Z</time>
      </trkpt>
      <trkpt lat="47.29247" lon="-1.39035">
        <ele>0.27</ele>
        <time>2020-05-16T12:06:32Z</time>
      </trkpt>
      <trkpt lat="47.29241" lon="-1.39055">
        <ele>-0.21</ele>
        <time>2020-05-16T12:06:34Z</time>
      </trkpt>
      <trkpt lat="47.29236" lon="-1.39074">
        <ele>-0.94</ele>
        <time>2020-05-16T12:06:36Z</time>
      </trkpt>
      <trkpt lat="47.29231" lon="-1.3909">
        <ele>-1.32</ele>
        <time>2020-05-16T12:06:38Z</time>
      </trkpt>
      <trkpt lat="47.29224" lon="-1.39109">
        <ele>-1.25</ele>
        <time>2020-05-16T12:06:40Z</time>
      </trkpt>
      <trkpt lat="47.29215" lon="-1.39125">
        <ele>-1.24</ele>
        <time>2020-05-16T12:06:42Z</time>
      </trkpt>
      <trkpt lat="47.29204" lon="-1.39141">
        <ele>-1.83</ele>
        <time>2020-05-16T12:06:44Z</time>
      </trkpt>
      <trkpt lat="47.29192" lon="-1.39156">
        <ele>-2.16</ele>
        <time>2020-05-16T12:06:46Z</time>
      </trkpt>
      <trkpt lat="47.29181" lon="-1.3917">
        <ele>-2.39</ele>
        <time>2020-05-16T12:06:48Z</time>
      </trkpt>
      <trkpt lat="47.29171" lon="-1.39181">
        <ele>-2.78</ele>
        <time>2020-05-16T12:06:50Z</time>
      </trkpt>
      <trkpt lat="47.29161" lon="-1.39193">
        <ele>-2.36</ele>
        <time>2020-05-16T12:06:52Z</time>
      </trkpt>
      <trkpt lat="47.2915" lon="-1.39206">
        <ele>-1.92</ele>
        <time>2020-05-16T12:06:54Z</time>
      </trkpt>
      <trkpt lat="47.29138" lon="-1.39218">
        <ele>-2.01</ele>
        <time>2020-05-16T12:06:56Z</time>
      </trkpt>
      <trkpt lat="47.29129" lon="-1.39228">
        <ele>-2.12</ele>
        <time>2020-05-16T12:06:58Z</time>
      </trkpt>
      <trkpt lat="47.2912" lon="-1.39238">
        <ele>-1.29</ele>
        <time>2020-05-16T12:07:00Z</time>
      </trkpt>
      <trkpt lat="47.2911" lon="-1.3925">
        <ele>-0.36</ele>
        <time>2020-05-16T12:07:02Z</time>
      </trkpt>
      <trkpt lat="47.29102" lon="-1.39266">
        <ele>0.65</ele>
        <time>2020-05-16T12:07:04Z</time>
      </trkpt>
      <trkpt lat="47.29094" lon="-1.39279">
        <ele>1.41</ele>
        <time>2020-05-16T12:07:06Z</time>
      </trkpt>
      <trkpt lat="47.29086" lon="-1.39291">
        <ele>0.95</ele>
        <time>2020-05-16T12:07:08Z</time>
      </trkpt>
      <trkpt lat="47.29077" lon="-1.39304">
        <ele>1.79</ele>
        <time>2020-05-16T12:07:10Z</time>
      </trkpt>
      <trkpt lat="47.29065" lon="-1.39315">
        <ele>3.09</ele>
        <time>2020-05-16T12:07:12Z</time>
      </trkpt>
      <trkpt lat="47.29054" lon="-1.39325">
        <ele>3.88</ele>
        <time>2020-05-16T12:07:14Z</time>
      </trkpt>
      <trkpt lat="47.29044" lon="-1.39338">
        <ele>5.16</ele>
        <time>2020-05-16T12:07:16Z</time>
      </trkpt>
      <trkpt lat="47.29037" lon="-1.39347">
        <ele>5.74</ele>
        <time>2020-05-16T12:07:17Z</time>
      </trkpt>
      <trkpt lat="47.29026" lon="-1.3936">
        <ele>7.58</ele>
        <time>2020-05-16T12:07:19Z</time>
      </trkpt>
      <trkpt lat="47.29014" lon="-1.39377">
        <ele>9.68</ele>
        <time>2020-05-16T12:07:21Z</time>
      </trkpt>
      <trkpt lat="47.29002" lon="-1.39396">
        <ele>10.26</ele>
        <time>2020-05-16T12:07:23Z</time>
      </trkpt>
      <trkpt lat="47.2899" lon="-1.39412">
        <ele>10.59</ele>
        <time>2020-05-16T12:07:25Z</time>
      </trkpt>
      <trkpt lat="47.28979" lon="-1.39426">
        <ele>11.22</ele>
        <time>2020-05-16T12:07:27Z</time>
      </trkpt>
      <trkpt lat="47.28966" lon="-1.39441">
        <ele>10.98</ele>
        <time>2020-05-16T12:07:29Z</time>
      </trkpt>
      <trkpt lat="47.28954" lon="-1.39456">
        <ele>9.25</ele>
        <time>2020-05-16T12:07:31Z</time>
      </trkpt>
      <trkpt lat="47.28943" lon="-1.3947">
        <ele>7.21</ele>
        <time>2020-05-16T12:07:33Z</time>
      </trkpt>
      <trkpt lat="47.28932" lon="-1.39484">
        <ele>6.63</ele>
        <time>2020-05-16T12:07:35Z</time>
      </trkpt>
      <trkpt lat="47.28921" lon="-1.39497">
        <ele>7.49</ele>
        <time>2020-05-16T12:07:37Z</time>
      </trkpt>
      <trkpt lat="47.28908" lon="-1.39512">
        <ele>8.84</ele>
        <time>2020-05-16T12:07:39Z</time>
      </trkpt>
      <trkpt lat="47.28895" lon="-1.39526">
        <ele>9.35</ele>
        <time>2020-05-16T12:07:41Z</time>
      </trkpt>
      <trkpt lat="47.28884" lon="-1.39539">
        <ele>9.49</ele>
        <time>2020-05-16T12:07:43Z</time>
      </trkpt>
      <trkpt lat="47.28873" lon="-1.39551">
        <ele>9.66</ele>
        <time>2020-05-16T12:07:45Z</time>
      </trkpt>
      <trkpt lat="47.28864" lon="-1.39562">
        <ele>9.31</ele>
        <time>2020-05-16T12:07:47Z</time>
      </trkpt>
      <trkpt lat="47.28854" lon="-1.39575">
        <ele>9.22</ele>
        <time>2020-05-16T12:07:49Z</time>
      </trkpt>
      <trkpt lat="47.28843" lon="-1.39589">
        <ele>9.17</ele>
        <time>2020-05-16T12:07:51Z</time>
      </trkpt>
      <trkpt lat="47.2883" lon="-1.39604">
        <ele>7.8</ele>
        <time>2020-05-16T12:07:53Z</time>
      </trkpt>
      <trkpt lat="47.2882" lon="-1.39616">
        <ele>6.49</ele>
        <time>2020-05-16T12:07:55Z</time>
      </trkpt>
      <trkpt lat="47.28809" lon="-1.3963">
        <ele>5.82</ele>
        <time>2020-05-16T12:07:57Z</time>
      </trkpt>
      <trkpt lat="47.28797" lon="-1.39644">
        <ele>5.05</ele>
        <time>2020-05-16T12:07:59Z</time>
      </trkpt>
      <trkpt lat="47.28786" lon="-1.39656">
        <ele>5.24</ele>
        <time>2020-05-16T12:08:01Z</time>
      </trkpt>
      <trkpt lat="47.28776" lon="-1.39668">
        <ele>5.54</ele>
        <time>2020-05-16T12:08:03Z</time>
      </trkpt>
      <trkpt lat="47.28765" lon="-1.39682">
        <ele>5.55</ele>
        <time>2020-05-16T12:08:05Z</time>
      </trkpt>
      <trkpt lat="47.28755" lon="-1.39695">
        <ele>6.11</ele>
        <time>2020-05-16T12:08:07Z</time>
      </trkpt>
      <trkpt lat="47.28745" lon="-1.39708">
        <ele>7.43</ele>
        <time>2020-05-16T12:08:09Z</time>
      </trkpt>
      <trkpt lat="47.28734" lon="-1.3972">
        <ele>7.92</ele>
        <time>2020-05-16T12:08:11Z</time>
      </trkpt>
      <trkpt lat="47.28724" lon="-1.39733">
        <ele>8.21</ele>
        <time>2020-05-16T12:08:13Z</time>
      </trkpt>
      <trkpt lat="47.28713" lon="-1.39746">
        <ele>7.12</ele>
        <time>2020-05-16T12:08:15Z</time>
      </trkpt>
      <trkpt lat="47.28703" lon="-1.3976">
        <ele>6.07</ele>
        <time>2020-05-16T12:08:17Z</time>
      </trkpt>
      <trkpt lat="47.28692" lon="-1.39773">
        <ele>6.04</ele>
        <time>2020-05-16T12:08:19Z</time>
      </trkpt>
      <trkpt lat="47.28682" lon="-1.39785">
        <ele>6.34</ele>
        <time>2020-05-16T12:08:21Z</time>
      </trkpt>
      <trkpt lat="47.28673" lon="-1.39797">
        <ele>7.79</ele>
        <time>2020-05-16T12:08:23Z</time>
      </trkpt>
      <trkpt lat="47.28662" lon="-1.39811">
        <ele>8.09</ele>
        <time>2020-05-16T12:08:25Z</time>
      </trkpt>
      <trkpt lat="47.28653" lon="-1.39826">
        <ele>5.92</ele>
        <time>2020-05-16T12:08:27Z</time>
      </trkpt>
      <trkpt lat="47.28644" lon="-1.3984">
        <ele>3.6</ele>
        <time>2020-05-16T12:08:29Z</time>
      </trkpt>
      <trkpt lat="47.28634" lon="-1.39856">
        <ele>2.87</ele>
        <time>2020-05-16T12:08:31Z</time>
      </trkpt>
      <trkpt lat="47.28624" lon="-1.39871">
        <ele>2.57</ele>
        <time>2020-05-16T12:08:33Z</time>
      </trkpt>
      <trkpt lat="47.28614" lon="-1.39885">
        <ele>1.94</ele>
        <time>2020-05-16T12:08:35Z</time>
      </trkpt>
      <trkpt lat="47.28604" lon="-1.399">
        <ele>1.9</ele>
        <time>2020-05-16T12:08:37Z</time>
      </trkpt>
      <trkpt lat="47.28596" lon="-1.39913">
        <ele>2.01</ele>
        <time>2020-05-16T12:08:39Z</time>
      </trkpt>
      <trkpt lat="47.28586" lon="-1.39928">
        <ele>2.61</ele>
        <time>2020-05-16T12:08:41Z</time>
      </trkpt>
      <trkpt lat="47.28576" lon="-1.39943">
        <ele>3.59</ele>
        <time>2020-05-16T12:08:43Z</time>
      </trkpt>
      <trkpt lat="47.28567" lon="-1.39957">
        <ele>4.32</ele>
        <time>2020-05-16T12:08:45Z</time>
      </trkpt>
      <trkpt lat="47.28558" lon="-1.3997">
        <ele>3.99</ele>
        <time>2020-05-16T12:08:47Z</time>
      </trkpt>
      <trkpt lat="47.28549" lon="-1.39986">
        <ele>3.39</ele>
        <time>2020-05-16T12:08:49Z</time>
      </trkpt>
      <trkpt lat="47.28539" lon="-1.39999">
        <ele>3.81</ele>
        <time>2020-05-16T12:08:51Z</time>
      </trkpt>
      <trkpt lat="47.28529" lon="-1.40011">
        <ele>4.52</ele>
        <time>2020-05-16T12:08:53Z</time>
      </trkpt>
      <trkpt lat="47.2852" lon="-1.40023">
        <ele>4.46</ele>
        <time>2020-05-16T12:08:55Z</time>
      </trkpt>
      <trkpt lat="47.28509" lon="-1.40039">
        <ele>4.21</ele>
        <time>2020-05-16T12:08:57Z</time>
      </trkpt>
      <trkpt lat="47.28501" lon="-1.40054">
        <ele>3.39</ele>
        <time>2020-05-16T12:08:59Z</time>
      </trkpt>
      <trkpt lat="47.28495" lon="-1.4007">
        <ele>1.9</ele>
        <time>2020-05-16T12:09:01Z</time>
      </trkpt>
      <trkpt lat="47.28489" lon="-1.40084">
        <ele>1.1</ele>
        <time>2020-05-16T12:09:03Z</time>
      </trkpt>
      <trkpt lat="47.28481" lon="-1.40101">
        <ele>-0.04</ele>
        <time>2020-05-16T12:09:05Z</time>
      </trkpt>
      <trkpt lat="47.28474" lon="-1.4012">
        <ele>-1.28</ele>
        <time>2020-05-16T12:09:07Z</time>
      </trkpt>
      <trkpt lat="47.28467" lon="-1.40139">
        <ele>-1.09</ele>
        <time>2020-05-16T12:09:09Z</time>
      </trkpt>
      <trkpt lat="47.2846" lon="-1.40157">
        <ele>-0.61</ele>
        <time>2020-05-16T12:09:11Z</time>
      </trkpt>
      <trkpt lat="47.28454" lon="-1.40175">
        <ele>0.7</ele>
        <time>2020-05-16T12:09:13Z</time>
      </trkpt>
      <trkpt lat="47.28447" lon="-1.4019">
        <ele>2.25</ele>
        <time>2020-05-16T12:09:15Z</time>
      </trkpt>
      <trkpt lat="47.2844" lon="-1.40208">
        <ele>2.88</ele>
        <time>2020-05-16T12:09:17Z</time>
      </trkpt>
      <trkpt lat="47.28434" lon="-1.40222">
        <ele>2.43</ele>
        <time>2020-05-16T12:09:19Z</time>
      </trkpt>
      <trkpt lat="47.28427" lon="-1.40238">
        <ele>2.17</ele>
        <time>2020-05-16T12:09:21Z</time>
      </trkpt>
      <trkpt lat="47.2842" lon="-1.40258">
        <ele>1.65</ele>
        <time>2020-05-16T12:09:23Z</time>
      </trkpt>
      <trkpt lat="47.28412" lon="-1.40276">
        <ele>1.31</ele>
        <time>2020-05-16T12:09:25Z</time>
      </trkpt>
      <trkpt lat="47.28405" lon="-1.40292">
        <ele>1.12</ele>
        <time>2020-05-16T12:09:27Z</time>
      </trkpt>
      <trkpt lat="47.28397" lon="-1.40311">
        <ele>2.53</ele>
        <time>2020-05-16T12:09:29Z</time>
      </trkpt>
      <trkpt lat="47.2839" lon="-1.40323">
        <ele>2.89</ele>
        <time>2020-05-16T12:09:31Z</time>
      </trkpt>
      <trkpt lat="47.28381" lon="-1.40338">
        <ele>1.99</ele>
        <time>2020-05-16T12:09:33Z</time>
      </trkpt>
      <trkpt lat="47.28372" lon="-1.40351">
        <ele>1.52</ele>
        <time>2020-05-16T12:09:35Z</time>
      </trkpt>
      <trkpt lat="47.28363" lon="-1.40365">
        <ele>1.14</ele>
        <time>2020-05-16T12:09:37Z</time>
      </trkpt>
      <trkpt lat="47.28353" lon="-1.40379">
        <ele>0.6</ele>
        <time>2020-05-16T12:09:39Z</time>
      </trkpt>
      <trkpt lat="47.28342" lon="-1.40393">
        <ele>-0.2</ele>
        <time>2020-05-16T12:09:41Z</time>
      </trkpt>
      <trkpt lat="47.28332" lon="-1.40405">
        <ele>-1.21</ele>
        <time>2020-05-16T12:09:43Z</time>
      </trkpt>
      <trkpt lat="47.28322" lon="-1.40417">
        <ele>-0.76</ele>
        <time>2020-05-16T12:09:45Z</time>
      </trkpt>
      <trkpt lat="47.28311" lon="-1.4043">
        <ele>0.01</ele>
        <time>2020-05-16T12:09:47Z</time>
      </trkpt>
      <trkpt lat="47.283" lon="-1.40441">
        <ele>1.04</ele>
        <time>2020-05-16T12:09:49Z</time>
      </trkpt>
      <trkpt lat="47.28289" lon="-1.40452">
        <ele>2.24</ele>
        <time>2020-05-16T12:09:51Z</time>
      </trkpt>
      <trkpt lat="47.28277" lon="-1.40464">
        <ele>2.31</ele>
        <time>2020-05-16T12:09:53Z</time>
      </trkpt>
      <trkpt lat="47.28265" lon="-1.40475">
        <ele>1.67</ele>
        <time>2020-05-16T12:09:55Z</time>
      </trkpt>
      <trkpt lat="47.28252" lon="-1.40487">
        <ele>1.86</ele>
        <time>2020-05-16T12:09:57Z</time>
      </trkpt>
      <trkpt lat="47.28239" lon="-1.40499">
        <ele>3.19</ele>
        <time>2020-05-16T12:09:59Z</time>
      </trkpt>
      <trkpt lat="47.28228" lon="-1.40508">
        <ele>4.7</ele>
        <time>2020-05-16T12:10:01Z</time>
      </trkpt>
      <trkpt lat="47.28217" lon="-1.40519">
        <ele>6.06</ele>
        <time>2020-05-16T12:10:03Z</time>
      </trkpt>
      <trkpt lat="47.28205" lon="-1.4053">
        <ele>7.31</ele>
        <time>2020-05-16T12:10:05Z</time>
      </trkpt>
      <trkpt lat="47.28192" lon="-1.40542">
        <ele>8.54</ele>
        <time>2020-05-16T12:10:07Z</time>
      </trkpt>
      <trkpt lat="47.28181" lon="-1.40553">
        <ele>8.25</ele>
        <time>2020-05-16T12:10:09Z</time>
      </trkpt>
      <trkpt lat="47.28169" lon="-1.40564">
        <ele>8.2</ele>
        <time>2020-05-16T12:10:11Z</time>
      </trkpt>
      <trkpt lat="47.28156" lon="-1.40577">
        <ele>9.01</ele>
        <time>2020-05-16T12:10:13Z</time>
      </trkpt>
      <trkpt lat="47.28145" lon="-1.40589">
        <ele>9.67</ele>
        <time>2020-05-16T12:10:15Z</time>
      </trkpt>
      <trkpt lat="47.28134" lon="-1.406">
        <ele>10.39</ele>
        <time>2020-05-16T12:10:17Z</time>
      </trkpt>
      <trkpt lat="47.28122" lon="-1.40611">
        <ele>10.88</ele>
        <time>2020-05-16T12:10:19Z</time>
      </trkpt>
      <trkpt lat="47.28109" lon="-1.40623">
        <ele>11.12</ele>
        <time>2020-05-16T12:10:21Z</time>
      </trkpt>
      <trkpt lat="47.28096" lon="-1.40635">
        <ele>11.38</ele>
        <time>2020-05-16T12:10:23Z</time>
      </trkpt>
      <trkpt lat="47.28084" lon="-1.40648">
        <ele>12.09</ele>
        <time>2020-05-16T12:10:25Z</time>
      </trkpt>
      <trkpt lat="47.28072" lon="-1.40659">
        <ele>12.43</ele>
        <time>2020-05-16T12:10:27Z</time>
      </trkpt>
      <trkpt lat="47.2806" lon="-1.4067">
        <ele>12.19</ele>
        <time>2020-05-16T12:10:29Z</time>
      </trkpt>
      <trkpt lat="47.28047" lon="-1.40682">
        <ele>11.83</ele>
        <time>2020-05-16T12:10:31Z</time>
      </trkpt>
      <trkpt lat="47.28034" lon="-1.40694">
        <ele>10.69</ele>
        <time>2020-05-16T12:10:33Z</time>
      </trkpt>
      <trkpt lat="47.28022" lon="-1.40706">
        <ele>9.11</ele>
        <time>2020-05-16T12:10:35Z</time>
      </trkpt>
      <trkpt lat="47.28011" lon="-1.40718">
        <ele>8.12</ele>
        <time>2020-05-16T12:10:37Z</time>
      </trkpt>
      <trkpt lat="47.27998" lon="-1.4073">
        <ele>6.97</ele>
        <time>2020-05-16T12:10:39Z</time>
      </trkpt>
      <trkpt lat="47.27986" lon="-1.40742">
        <ele>6.65</ele>
        <time>2020-05-16T12:10:41Z</time>
      </trkpt>
      <trkpt lat="47.27974" lon="-1.40751">
        <ele>6.63</ele>
        <time>2020-05-16T12:10:43Z</time>
      </trkpt>
      <trkpt lat="47.27961" lon="-1.40763">
        <ele>6.33</ele>
        <time>2020-05-16T12:10:45Z</time>
      </trkpt>
      <trkpt lat="47.2795" lon="-1.40774">
        <ele>6.32</ele>
        <time>2020-05-16T12:10:47Z</time>
      </trkpt>
      <trkpt lat="47.27937" lon="-1.40787">
        <ele>6.53</ele>
        <time>2020-05-16T12:10:49Z</time>
      </trkpt>
      <trkpt lat="47.27925" lon="-1.40797">
        <ele>6.03</ele>
        <time>2020-05-16T12:10:51Z</time>
      </trkpt>
      <trkpt lat="47.27913" lon="-1.40808">
        <ele>5.1</ele>
        <time>2020-05-16T12:10:53Z</time>
      </trkpt>
      <trkpt lat="47.27901" lon="-1.40819">
        <ele>4.95</ele>
        <time>2020-05-16T12:10:55Z</time>
      </trkpt>
      <trkpt lat="47.2789" lon="-1.40831">
        <ele>5.26</ele>
        <time>2020-05-16T12:10:58Z</time>
      </trkpt>
      <trkpt lat="47.2788" lon="-1.40848">
        <ele>5.19</ele>
        <time>2020-05-16T12:11:00Z</time>
      </trkpt>
      <trkpt lat="47.27872" lon="-1.40864">
        <ele>3.37</ele>
        <time>2020-05-16T12:11:02Z</time>
      </trkpt>
      <trkpt lat="47.27864" lon="-1.40881">
        <ele>1.59</ele>
        <time>2020-05-16T12:11:04Z</time>
      </trkpt>
      <trkpt lat="47.27858" lon="-1.40896">
        <ele>0.3</ele>
        <time>2020-05-16T12:11:06Z</time>
      </trkpt>
      <trkpt lat="47.2785" lon="-1.40913">
        <ele>0.52</ele>
        <time>2020-05-16T12:11:08Z</time>
      </trkpt>
      <trkpt lat="47.27844" lon="-1.40929">
        <ele>1.64</ele>
        <time>2020-05-16T12:11:10Z</time>
      </trkpt>
      <trkpt lat="47.27837" lon="-1.40945">
        <ele>3.01</ele>
        <time>2020-05-16T12:11:12Z</time>
      </trkpt>
      <trkpt lat="47.27829" lon="-1.40961">
        <ele>3.81</ele>
        <time>2020-05-16T12:11:14Z</time>
      </trkpt>
      <trkpt lat="47.2782" lon="-1.40979">
        <ele>3.99</ele>
        <time>2020-05-16T12:11:16Z</time>
      </trkpt>
      <trkpt lat="47.27811" lon="-1.40993">
        <ele>3.62</ele>
        <time>2020-05-16T12:11:18Z</time>
      </trkpt>
      <trkpt lat="47.27801" lon="-1.41008">
        <ele>3.21</ele>
        <time>2020-05-16T12:11:20Z</time>
      </trkpt>
      <trkpt lat="47.27792" lon="-1.4102">
        <ele>2.84</ele>
        <time>2020-05-16T12:11:22Z</time>
      </trkpt>
      <trkpt lat="47.27782" lon="-1.41035">
        <ele>2.32</ele>
        <time>2020-05-16T12:11:24Z</time>
      </trkpt>
      <trkpt lat="47.27777" lon="-1.41049">
        <ele>1.71</ele>
        <time>2020-05-16T12:11:26Z</time>
      </trkpt>
      <trkpt lat="47.27771" lon="-1.41068">
        <ele>0.8</ele>
        <time>2020-05-16T12:11:28Z</time>
      </trkpt>
      <trkpt lat="47.27761" lon="-1.41081">
        <ele>0.53</ele>
        <time>2020-05-16T12:11:30Z</time>
      </trkpt>
      <trkpt lat="47.27749" lon="-1.41093">
        <ele>0.99</ele>
        <time>2020-05-16T12:11:32Z</time>
      </trkpt>
      <trkpt lat="47.27738" lon="-1.41105">
        <ele>1.68</ele>
        <time>2020-05-16T12:11:34Z</time>
      </trkpt>
      <trkpt lat="47.27727" lon="-1.41115">
        <ele>2.23</ele>
        <time>2020-05-16T12:11:36Z</time>
      </trkpt>
      <trkpt lat="47.27716" lon="-1.41125">
        <ele>3.06</ele>
        <time>2020-05-16T12:11:38Z</time>
      </trkpt>
      <trkpt lat="47.27705" lon="-1.41137">
        <ele>4.41</ele>
        <time>2020-05-16T12:11:40Z</time>
      </trkpt>
      <trkpt lat="47.27693" lon="-1.41149">
        <ele>5.56</ele>
        <time>2020-05-16T12:11:42Z</time>
      </trkpt>
      <trkpt lat="47.27682" lon="-1.41163">
        <ele>5.08</ele>
        <time>2020-05-16T12:11:44Z</time>
      </trkpt>
      <trkpt lat="47.27671" lon="-1.41176">
        <ele>4.49</ele>
        <time>2020-05-16T12:11:46Z</time>
      </trkpt>
      <trkpt lat="47.27662" lon="-1.41186">
        <ele>4.15</ele>
        <time>2020-05-16T12:11:48Z</time>
      </trkpt>
      <trkpt lat="47.27651" lon="-1.41197">
        <ele>4.55</ele>
        <time>2020-05-16T12:11:50Z</time>
      </trkpt>
      <trkpt lat="47.27639" lon="-1.41209">
        <ele>4.33</ele>
        <time>2020-05-16T12:11:52Z</time>
      </trkpt>
      <trkpt lat="47.27628" lon="-1.4122">
        <ele>5</ele>
        <time>2020-05-16T12:11:54Z</time>
      </trkpt>
      <trkpt lat="47.27619" lon="-1.41229">
        <ele>5.02</ele>
        <time>2020-05-16T12:11:56Z</time>
      </trkpt>
      <trkpt lat="47.27607" lon="-1.4124">
        <ele>5.52</ele>
        <time>2020-05-16T12:11:58Z</time>
      </trkpt>
      <trkpt lat="47.27597" lon="-1.41252">
        <ele>5.55</ele>
        <time>2020-05-16T12:12:00Z</time>
      </trkpt>
      <trkpt lat="47.27585" lon="-1.41265">
        <ele>5.04</ele>
        <time>2020-05-16T12:12:02Z</time>
      </trkpt>
      <trkpt lat="47.27574" lon="-1.41278">
        <ele>4.66</ele>
        <time>2020-05-16T12:12:04Z</time>
      </trkpt>
      <trkpt lat="47.27564" lon="-1.4129">
        <ele>4.84</ele>
        <time>2020-05-16T12:12:06Z</time>
      </trkpt>
      <trkpt lat="47.27554" lon="-1.41302">
        <ele>4.24</ele>
        <time>2020-05-16T12:12:08Z</time>
      </trkpt>
      <trkpt lat="47.27543" lon="-1.41315">
        <ele>4.05</ele>
        <time>2020-05-16T12:12:10Z</time>
      </trkpt>
      <trkpt lat="47.27533" lon="-1.41329">
        <ele>3.87</ele>
        <time>2020-05-16T12:12:12Z</time>
      </trkpt>
      <trkpt lat="47.27522" lon="-1.41344">
        <ele>4.6</ele>
        <time>2020-05-16T12:12:14Z</time>
      </trkpt>
      <trkpt lat="47.27511" lon="-1.41359">
        <ele>5.79</ele>
        <time>2020-05-16T12:12:16Z</time>
      </trkpt>
      <trkpt lat="47.27501" lon="-1.41375">
        <ele>6.21</ele>
        <time>2020-05-16T12:12:18Z</time>
      </trkpt>
      <trkpt lat="47.27492" lon="-1.4139">
        <ele>6.27</ele>
        <time>2020-05-16T12:12:20Z</time>
      </trkpt>
      <trkpt lat="47.27484" lon="-1.41406">
        <ele>5.38</ele>
        <time>2020-05-16T12:12:22Z</time>
      </trkpt>
      <trkpt lat="47.27475" lon="-1.41422">
        <ele>5.05</ele>
        <time>2020-05-16T12:12:24Z</time>
      </trkpt>
      <trkpt lat="47.27466" lon="-1.41439">
        <ele>4.63</ele>
        <time>2020-05-16T12:12:26Z</time>
      </trkpt>
      <trkpt lat="47.27456" lon="-1.41455">
        <ele>5.01</ele>
        <time>2020-05-16T12:12:28Z</time>
      </trkpt>
      <trkpt lat="47.27448" lon="-1.41472">
        <ele>5.17</ele>
        <time>2020-05-16T12:12:30Z</time>
      </trkpt>
      <trkpt lat="47.27439" lon="-1.41489">
        <ele>5.19</ele>
        <time>2020-05-16T12:12:32Z</time>
      </trkpt>
      <trkpt lat="47.27429" lon="-1.41506">
        <ele>4.93</ele>
        <time>2020-05-16T12:12:34Z</time>
      </trkpt>
      <trkpt lat="47.27422" lon="-1.4152">
        <ele>5.52</ele>
        <time>2020-05-16T12:12:36Z</time>
      </trkpt>
      <trkpt lat="47.27412" lon="-1.41537">
        <ele>6.02</ele>
        <time>2020-05-16T12:12:38Z</time>
      </trkpt>
      <trkpt lat="47.27404" lon="-1.41549">
        <ele>7.43</ele>
        <time>2020-05-16T12:12:40Z</time>
      </trkpt>
      <trkpt lat="47.27394" lon="-1.41564">
        <ele>6.98</ele>
        <time>2020-05-16T12:12:42Z</time>
      </trkpt>
      <trkpt lat="47.27385" lon="-1.41578">
        <ele>5.52</ele>
        <time>2020-05-16T12:12:44Z</time>
      </trkpt>
      <trkpt lat="47.27375" lon="-1.41594">
        <ele>3.98</ele>
        <time>2020-05-16T12:12:46Z</time>
      </trkpt>
      <trkpt lat="47.27366" lon="-1.41609">
        <ele>3.33</ele>
        <time>2020-05-16T12:12:48Z</time>
      </trkpt>
      <trkpt lat="47.27356" lon="-1.41623">
        <ele>3.23</ele>
        <time>2020-05-16T12:12:50Z</time>
      </trkpt>
      <trkpt lat="47.27347" lon="-1.41636">
        <ele>4.45</ele>
        <time>2020-05-16T12:12:52Z</time>
      </trkpt>
      <trkpt lat="47.27337" lon="-1.41652">
        <ele>5.19</ele>
        <time>2020-05-16T12:12:54Z</time>
      </trkpt>
      <trkpt lat="47.27328" lon="-1.41668">
        <ele>5.74</ele>
        <time>2020-05-16T12:12:56Z</time>
      </trkpt>
      <trkpt lat="47.2732" lon="-1.41684">
        <ele>5.51</ele>
        <time>2020-05-16T12:12:58Z</time>
      </trkpt>
      <trkpt lat="47.27313" lon="-1.41696">
        <ele>4.62</ele>
        <time>2020-05-16T12:13:00Z</time>
      </trkpt>
      <trkpt lat="47.27305" lon="-1.41712">
        <ele>3.22</ele>
        <time>2020-05-16T12:13:02Z</time>
      </trkpt>
      <trkpt lat="47.27296" lon="-1.41729">
        <ele>3.01</ele>
        <time>2020-05-16T12:13:04Z</time>
      </trkpt>
      <trkpt lat="47.27287" lon="-1.41748">
        <ele>3.03</ele>
        <time>2020-05-16T12:13:06Z</time>
      </trkpt>
      <trkpt lat="47.27278" lon="-1.41763">
        <ele>2.37</ele>
        <time>2020-05-16T12:13:08Z</time>
      </trkpt>
      <trkpt lat="47.27268" lon="-1.41781">
        <ele>0.44</ele>
        <time>2020-05-16T12:13:10Z</time>
      </trkpt>
      <trkpt lat="47.27261" lon="-1.41796">
        <ele>-0.45</ele>
        <time>2020-05-16T12:13:12Z</time>
      </trkpt>
      <trkpt lat="47.27252" lon="-1.41812">
        <ele>-0.74</ele>
        <time>2020-05-16T12:13:14Z</time>
      </trkpt>
      <trkpt lat="47.27243" lon="-1.41828">
        <ele>-1.42</ele>
        <time>2020-05-16T12:13:16Z</time>
      </trkpt>
      <trkpt lat="47.27235" lon="-1.41844">
        <ele>-0.45</ele>
        <time>2020-05-16T12:13:18Z</time>
      </trkpt>
      <trkpt lat="47.27226" lon="-1.4186">
        <ele>0.46</ele>
        <time>2020-05-16T12:13:20Z</time>
      </trkpt>
      <trkpt lat="47.27216" lon="-1.41877">
        <ele>1.24</ele>
        <time>2020-05-16T12:13:22Z</time>
      </trkpt>
      <trkpt lat="47.27207" lon="-1.41893">
        <ele>1.3</ele>
        <time>2020-05-16T12:13:24Z</time>
      </trkpt>
      <trkpt lat="47.27198" lon="-1.41907">
        <ele>1.87</ele>
        <time>2020-05-16T12:13:26Z</time>
      </trkpt>
      <trkpt lat="47.27189" lon="-1.41923">
        <ele>1.19</ele>
        <time>2020-05-16T12:13:28Z</time>
      </trkpt>
      <trkpt lat="47.27179" lon="-1.41939">
        <ele>1.41</ele>
        <time>2020-05-16T12:13:30Z</time>
      </trkpt>
      <trkpt lat="47.2717" lon="-1.41954">
        <ele>2.07</ele>
        <time>2020-05-16T12:13:32Z</time>
      </trkpt>
      <trkpt lat="47.27161" lon="-1.41971">
        <ele>2.9</ele>
        <time>2020-05-16T12:13:34Z</time>
      </trkpt>
      <trkpt lat="47.27154" lon="-1.41985">
        <ele>2.97</ele>
        <time>2020-05-16T12:13:36Z</time>
      </trkpt>
      <trkpt lat="47.27144" lon="-1.42004">
        <ele>2.21</ele>
        <time>2020-05-16T12:13:38Z</time>
      </trkpt>
      <trkpt lat="47.27135" lon="-1.4202">
        <ele>1.49</ele>
        <time>2020-05-16T12:13:40Z</time>
      </trkpt>
      <trkpt lat="47.27125" lon="-1.42034">
        <ele>0.39</ele>
        <time>2020-05-16T12:13:42Z</time>
      </trkpt>
      <trkpt lat="47.27114" lon="-1.42051">
        <ele>-0.38</ele>
        <time>2020-05-16T12:13:44Z</time>
      </trkpt>
      <trkpt lat="47.27104" lon="-1.42065">
        <ele>-0.86</ele>
        <time>2020-05-16T12:13:46Z</time>
      </trkpt>
      <trkpt lat="47.27094" lon="-1.42079">
        <ele>-0.36</ele>
        <time>2020-05-16T12:13:48Z</time>
      </trkpt>
      <trkpt lat="47.27084" lon="-1.42093">
        <ele>-0.05</ele>
        <time>2020-05-16T12:13:50Z</time>
      </trkpt>
      <trkpt lat="47.27075" lon="-1.42108">
        <ele>0.37</ele>
        <time>2020-05-16T12:13:52Z</time>
      </trkpt>
      <trkpt lat="47.27066" lon="-1.42126">
        <ele>0.59</ele>
        <time>2020-05-16T12:13:54Z</time>
      </trkpt>
      <trkpt lat="47.27056" lon="-1.42145">
        <ele>0.93</ele>
        <time>2020-05-16T12:13:56Z</time>
      </trkpt>
      <trkpt lat="47.27046" lon="-1.42163">
        <ele>1.65</ele>
        <time>2020-05-16T12:13:58Z</time>
      </trkpt>
      <trkpt lat="47.27038" lon="-1.4218">
        <ele>2.09</ele>
        <time>2020-05-16T12:14:00Z</time>
      </trkpt>
      <trkpt lat="47.27028" lon="-1.42197">
        <ele>2.22</ele>
        <time>2020-05-16T12:14:02Z</time>
      </trkpt>
      <trkpt lat="47.27019" lon="-1.42213">
        <ele>2.17</ele>
        <time>2020-05-16T12:14:04Z</time>
      </trkpt>
      <trkpt lat="47.27009" lon="-1.42231">
        <ele>1.76</ele>
        <time>2020-05-16T12:14:06Z</time>
      </trkpt>
      <trkpt lat="47.26999" lon="-1.42248">
        <ele>1.61</ele>
        <time>2020-05-16T12:14:08Z</time>
      </trkpt>
      <trkpt lat="47.26989" lon="-1.42264">
        <ele>1.65</ele>
        <time>2020-05-16T12:14:10Z</time>
      </trkpt>
      <trkpt lat="47.2698" lon="-1.4228">
        <ele>2.35</ele>
        <time>2020-05-16T12:14:12Z</time>
      </trkpt>
      <trkpt lat="47.26971" lon="-1.42298">
        <ele>2.41</ele>
        <time>2020-05-16T12:14:14Z</time>
      </trkpt>
      <trkpt lat="47.26963" lon="-1.42315">
        <ele>1.63</ele>
        <time>2020-05-16T12:14:16Z</time>
      </trkpt>
      <trkpt lat="47.26955" lon="-1.42331">
        <ele>0.94</ele>
        <time>2020-05-16T12:14:18Z</time>
      </trkpt>
      <trkpt lat="47.26949" lon="-1.42343">
        <ele>0.69</ele>
        <time>2020-05-16T12:14:19Z</time>
      </trkpt>
      <trkpt lat="47.2694" lon="-1.42361">
        <ele>0.34</ele>
        <time>2020-05-16T12:14:21Z</time>
      </trkpt>
      <trkpt lat="47.26932" lon="-1.42378">
        <ele>-0.72</ele>
        <time>2020-05-16T12:14:23Z</time>
      </trkpt>
      <trkpt lat="47.26923" lon="-1.42397">
        <ele>-1.15</ele>
        <time>2020-05-16T12:14:25Z</time>
      </trkpt>
      <trkpt lat="47.26915" lon="-1.42414">
        <ele>-1.31</ele>
        <time>2020-05-16T12:14:27Z</time>
      </trkpt>
      <trkpt lat="47.26907" lon="-1.42428">
        <ele>-1.26</ele>
        <time>2020-05-16T12:14:29Z</time>
      </trkpt>
      <trkpt lat="47.26897" lon="-1.42445">
        <ele>-1.62</ele>
        <time>2020-05-16T12:14:31Z</time>
      </trkpt>
      <trkpt lat="47.2689" lon="-1.4246">
        <ele>-1.32</ele>
        <time>2020-05-16T12:14:33Z</time>
      </trkpt>
      <trkpt lat="47.2688" lon="-1.42476">
        <ele>-0.98</ele>
        <time>2020-05-16T12:14:35Z</time>
      </trkpt>
      <trkpt lat="47.26871" lon="-1.42493">
        <ele>0.24</ele>
        <time>2020-05-16T12:14:37Z</time>
      </trkpt>
      <trkpt lat="47.26862" lon="-1.42509">
        <ele>1.03</ele>
        <time>2020-05-16T12:14:39Z</time>
      </trkpt>
      <trkpt lat="47.26852" lon="-1.42527">
        <ele>1.4</ele>
        <time>2020-05-16T12:14:41Z</time>
      </trkpt>
      <trkpt lat="47.26843" lon="-1.42543">
        <ele>1.36</ele>
        <time>2020-05-16T12:14:43Z</time>
      </trkpt>
      <trkpt lat="47.26834" lon="-1.42561">
        <ele>1.33</ele>
        <time>2020-05-16T12:14:45Z</time>
      </trkpt>
      <trkpt lat="47.26825" lon="-1.42579">
        <ele>1.4</ele>
        <time>2020-05-16T12:14:47Z</time>
      </trkpt>
      <trkpt lat="47.26817" lon="-1.42598">
        <ele>1.39</ele>
        <time>2020-05-16T12:14:49Z</time>
      </trkpt>
      <trkpt lat="47.26809" lon="-1.42617">
        <ele>1.46</ele>
        <time>2020-05-16T12:14:51Z</time>
      </trkpt>
      <trkpt lat="47.26801" lon="-1.42636">
        <ele>0.65</ele>
        <time>2020-05-16T12:14:53Z</time>
      </trkpt>
      <trkpt lat="47.26794" lon="-1.42656">
        <ele>-0.66</ele>
        <time>2020-05-16T12:14:55Z</time>
      </trkpt>
      <trkpt lat="47.26787" lon="-1.42675">
        <ele>-1.28</ele>
        <time>2020-05-16T12:14:57Z</time>
      </trkpt>
      <trkpt lat="47.26781" lon="-1.42693">
        <ele>-1.52</ele>
        <time>2020-05-16T12:14:59Z</time>
      </trkpt>
      <trkpt lat="47.26774" lon="-1.42712">
        <ele>-1.22</ele>
        <time>2020-05-16T12:15:01Z</time>
      </trkpt>
      <trkpt lat="47.26767" lon="-1.42731">
        <ele>-0.22</ele>
        <time>2020-05-16T12:15:03Z</time>
      </trkpt>
      <trkpt lat="47.26758" lon="-1.4275">
        <ele>-0.5</ele>
        <time>2020-05-16T12:15:05Z</time>
      </trkpt>
      <trkpt lat="47.26748" lon="-1.42767">
        <ele>-0.88</ele>
        <time>2020-05-16T12:15:07Z</time>
      </trkpt>
      <trkpt lat="47.26739" lon="-1.42785">
        <ele>-1.06</ele>
        <time>2020-05-16T12:15:09Z</time>
      </trkpt>
      <trkpt lat="47.26735" lon="-1.42801">
        <ele>-1.28</ele>
        <time>2020-05-16T12:15:11Z</time>
      </trkpt>
      <trkpt lat="47.26732" lon="-1.42819">
        <ele>-1.92</ele>
        <time>2020-05-16T12:15:13Z</time>
      </trkpt>
      <trkpt lat="47.26726" lon="-1.42836">
        <ele>-3.24</ele>
        <time>2020-05-16T12:15:15Z</time>
      </trkpt>
      <trkpt lat="47.2672" lon="-1.42855">
        <ele>-4.59</ele>
        <time>2020-05-16T12:15:17Z</time>
      </trkpt>
      <trkpt lat="47.26712" lon="-1.42875">
        <ele>-4.99</ele>
        <time>2020-05-16T12:15:19Z</time>
      </trkpt>
      <trkpt lat="47.26703" lon="-1.42893">
        <ele>-4.71</ele>
        <time>2020-05-16T12:15:21Z</time>
      </trkpt>
      <trkpt lat="47.26695" lon="-1.42909">
        <ele>-4.01</ele>
        <time>2020-05-16T12:15:23Z</time>
      </trkpt>
      <trkpt lat="47.26684" lon="-1.42929">
        <ele>-3.24</ele>
        <time>2020-05-16T12:15:25Z</time>
      </trkpt>
      <trkpt lat="47.26676" lon="-1.42944">
        <ele>-2.6</ele>
        <time>2020-05-16T12:15:27Z</time>
      </trkpt>
      <trkpt lat="47.26667" lon="-1.42961">
        <ele>-2.4</ele>
        <time>2020-05-16T12:15:29Z</time>
      </trkpt>
      <trkpt lat="47.26659" lon="-1.42976">
        <ele>-2.78</ele>
        <time>2020-05-16T12:15:31Z</time>
      </trkpt>
      <trkpt lat="47.26651" lon="-1.42993">
        <ele>-2.16</ele>
        <time>2020-05-16T12:15:33Z</time>
      </trkpt>
      <trkpt lat="47.26642" lon="-1.43009">
        <ele>-1.26</ele>
        <time>2020-05-16T12:15:35Z</time>
      </trkpt>
      <trkpt lat="47.26634" lon="-1.43025">
        <ele>-1.65</ele>
        <time>2020-05-16T12:15:37Z</time>
      </trkpt>
      <trkpt lat="47.26626" lon="-1.43042">
        <ele>-2.42</ele>
        <time>2020-05-16T12:15:39Z</time>
      </trkpt>
      <trkpt lat="47.26616" lon="-1.43061">
        <ele>-3.13</ele>
        <time>2020-05-16T12:15:41Z</time>
      </trkpt>
      <trkpt lat="47.26608" lon="-1.43076">
        <ele>-3.35</ele>
        <time>2020-05-16T12:15:43Z</time>
      </trkpt>
      <trkpt lat="47.26599" lon="-1.43093">
        <ele>-4.07</ele>
        <time>2020-05-16T12:15:45Z</time>
      </trkpt>
      <trkpt lat="47.2659" lon="-1.43109">
        <ele>-4.89</ele>
        <time>2020-05-16T12:15:47Z</time>
      </trkpt>
      <trkpt lat="47.26581" lon="-1.43123">
        <ele>-5.41</ele>
        <time>2020-05-16T12:15:49Z</time>
      </trkpt>
      <trkpt lat="47.26573" lon="-1.43137">
        <ele>-4.72</ele>
        <time>2020-05-16T12:15:51Z</time>
      </trkpt>
      <trkpt lat="47.26564" lon="-1.43152">
        <ele>-3.53</ele>
        <time>2020-05-16T12:15:53Z</time>
      </trkpt>
      <trkpt lat="47.26555" lon="-1.43165">
        <ele>-3.77</ele>
        <time>2020-05-16T12:15:55Z</time>
      </trkpt>
      <trkpt lat="47.26544" lon="-1.43183">
        <ele>-4.55</ele>
        <time>2020-05-16T12:15:57Z</time>
      </trkpt>
      <trkpt lat="47.26534" lon="-1.43198">
        <ele>-5.92</ele>
        <time>2020-05-16T12:15:59Z</time>
      </trkpt>
      <trkpt lat="47.26525" lon="-1.4321">
        <ele>-5.95</ele>
        <time>2020-05-16T12:16:01Z</time>
      </trkpt>
      <trkpt lat="47.26515" lon="-1.43223">
        <ele>-4.88</ele>
        <time>2020-05-16T12:16:03Z</time>
      </trkpt>
      <trkpt lat="47.26506" lon="-1.43235">
        <ele>-3.09</ele>
        <time>2020-05-16T12:16:05Z</time>
      </trkpt>
      <trkpt lat="47.26496" lon="-1.43249">
        <ele>-2.38</ele>
        <time>2020-05-16T12:16:07Z</time>
      </trkpt>
      <trkpt lat="47.26486" lon="-1.43262">
        <ele>-1.48</ele>
        <time>2020-05-16T12:16:09Z</time>
      </trkpt>
      <trkpt lat="47.26477" lon="-1.43275">
        <ele>-0.61</ele>
        <time>2020-05-16T12:16:11Z</time>
      </trkpt>
      <trkpt lat="47.26468" lon="-1.4329">
        <ele>-0.08</ele>
        <time>2020-05-16T12:16:13Z</time>
      </trkpt>
      <trkpt lat="47.26458" lon="-1.43305">
        <ele>-0.24</ele>
        <time>2020-05-16T12:16:15Z</time>
      </trkpt>
      <trkpt lat="47.2645" lon="-1.43317">
        <ele>-1.55</ele>
        <time>2020-05-16T12:16:17Z</time>
      </trkpt>
      <trkpt lat="47.26441" lon="-1.43331">
        <ele>-3.12</ele>
        <time>2020-05-16T12:16:19Z</time>
      </trkpt>
      <trkpt lat="47.2643" lon="-1.43347">
        <ele>-3.78</ele>
        <time>2020-05-16T12:16:21Z</time>
      </trkpt>
      <trkpt lat="47.26419" lon="-1.43362">
        <ele>-3.66</ele>
        <time>2020-05-16T12:16:23Z</time>
      </trkpt>
      <trkpt lat="47.26409" lon="-1.43375">
        <ele>-3.95</ele>
        <time>2020-05-16T12:16:25Z</time>
      </trkpt>
      <trkpt lat="47.26399" lon="-1.43388">
        <ele>-3.9</ele>
        <time>2020-05-16T12:16:27Z</time>
      </trkpt>
      <trkpt lat="47.26389" lon="-1.43399">
        <ele>-3.25</ele>
        <time>2020-05-16T12:16:29Z</time>
      </trkpt>
      <trkpt lat="47.26378" lon="-1.4341">
        <ele>-1.8</ele>
        <time>2020-05-16T12:16:31Z</time>
      </trkpt>
      <trkpt lat="47.26367" lon="-1.43421">
        <ele>-0.62</ele>
        <time>2020-05-16T12:16:33Z</time>
      </trkpt>
      <trkpt lat="47.26355" lon="-1.43432">
        <ele>-0.66</ele>
        <time>2020-05-16T12:16:35Z</time>
      </trkpt>
      <trkpt lat="47.26344" lon="-1.43442">
        <ele>-0.4</ele>
        <time>2020-05-16T12:16:37Z</time>
      </trkpt>
      <trkpt lat="47.26333" lon="-1.43453">
        <ele>-0.68</ele>
        <time>2020-05-16T12:16:39Z</time>
      </trkpt>
      <trkpt lat="47.26323" lon="-1.43463">
        <ele>-1.35</ele>
        <time>2020-05-16T12:16:41Z</time>
      </trkpt>
      <trkpt lat="47.26312" lon="-1.43474">
        <ele>-1.22</ele>
        <time>2020-05-16T12:16:43Z</time>
      </trkpt>
      <trkpt lat="47.26303" lon="-1.43485">
        <ele>-0.4</ele>
        <time>2020-05-16T12:16:45Z</time>
      </trkpt>
      <trkpt lat="47.26294" lon="-1.43495">
        <ele>0.8</ele>
        <time>2020-05-16T12:16:47Z</time>
      </trkpt>
      <trkpt lat="47.26282" lon="-1.43497">
        <ele>2.81</ele>
        <time>2020-05-16T12:16:49Z</time>
      </trkpt>
      <trkpt lat="47.26267" lon="-1.43499">
        <ele>4.85</ele>
        <time>2020-05-16T12:16:51Z</time>
      </trkpt>
      <trkpt lat="47.26254" lon="-1.43509">
        <ele>4.73</ele>
        <time>2020-05-16T12:16:53Z</time>
      </trkpt>
      <trkpt lat="47.26242" lon="-1.4352">
        <ele>3.79</ele>
        <time>2020-05-16T12:16:55Z</time>
      </trkpt>
      <trkpt lat="47.26232" lon="-1.43532">
        <ele>3.6</ele>
        <time>2020-05-16T12:16:57Z</time>
      </trkpt>
      <trkpt lat="47.26222" lon="-1.43547">
        <ele>3.9</ele>
        <time>2020-05-16T12:16:59Z</time>
      </trkpt>
      <trkpt lat="47.26217" lon="-1.43564">
        <ele>3.3</ele>
        <time>2020-05-16T12:17:01Z</time>
      </trkpt>
      <trkpt lat="47.26215" lon="-1.43583">
        <ele>2.03</ele>
        <time>2020-05-16T12:17:03Z</time>
      </trkpt>
      <trkpt lat="47.26209" lon="-1.43598">
        <ele>1.58</ele>
        <time>2020-05-16T12:17:05Z</time>
      </trkpt>
      <trkpt lat="47.26201" lon="-1.43611">
        <ele>0.92</ele>
        <time>2020-05-16T12:17:07Z</time>
      </trkpt>
      <trkpt lat="47.26192" lon="-1.43627">
        <ele>0.74</ele>
        <time>2020-05-16T12:17:09Z</time>
      </trkpt>
      <trkpt lat="47.26184" lon="-1.4364">
        <ele>-0.65</ele>
        <time>2020-05-16T12:17:11Z</time>
      </trkpt>
      <trkpt lat="47.26174" lon="-1.43658">
        <ele>-1.52</ele>
        <time>2020-05-16T12:17:13Z</time>
      </trkpt>
      <trkpt lat="47.26164" lon="-1.43674">
        <ele>-1.71</ele>
        <time>2020-05-16T12:17:15Z</time>
      </trkpt>
      <trkpt lat="47.26153" lon="-1.4369">
        <ele>-1.37</ele>
        <time>2020-05-16T12:17:17Z</time>
      </trkpt>
      <trkpt lat="47.26144" lon="-1.43705">
        <ele>-0.47</ele>
        <time>2020-05-16T12:17:19Z</time>
      </trkpt>
      <trkpt lat="47.26134" lon="-1.43719">
        <ele>-0.98</ele>
        <time>2020-05-16T12:17:21Z</time>
      </trkpt>
      <trkpt lat="47.26124" lon="-1.43735">
        <ele>-0.09</ele>
        <time>2020-05-16T12:17:23Z</time>
      </trkpt>
      <trkpt lat="47.26115" lon="-1.43748">
        <ele>0.76</ele>
        <time>2020-05-16T12:17:25Z</time>
      </trkpt>
      <trkpt lat="47.26105" lon="-1.43761">
        <ele>0.6</ele>
        <time>2020-05-16T12:17:27Z</time>
      </trkpt>
      <trkpt lat="47.26093" lon="-1.43777">
        <ele>-0.21</ele>
        <time>2020-05-16T12:17:29Z</time>
      </trkpt>
      <trkpt lat="47.26081" lon="-1.43791">
        <ele>-0.67</ele>
        <time>2020-05-16T12:17:31Z</time>
      </trkpt>
      <trkpt lat="47.26071" lon="-1.43806">
        <ele>-1.32</ele>
        <time>2020-05-16T12:17:33Z</time>
      </trkpt>
      <trkpt lat="47.2606" lon="-1.43822">
        <ele>-1.45</ele>
        <time>2020-05-16T12:17:35Z</time>
      </trkpt>
      <trkpt lat="47.26052" lon="-1.43839">
        <ele>-1.44</ele>
        <time>2020-05-16T12:17:37Z</time>
      </trkpt>
      <trkpt lat="47.26045" lon="-1.43855">
        <ele>-2.39</ele>
        <time>2020-05-16T12:17:39Z</time>
      </trkpt>
      <trkpt lat="47.26037" lon="-1.43869">
        <ele>-3.28</ele>
        <time>2020-05-16T12:17:41Z</time>
      </trkpt>
      <trkpt lat="47.26026" lon="-1.43879">
        <ele>-4.12</ele>
        <time>2020-05-16T12:17:43Z</time>
      </trkpt>
      <trkpt lat="47.26014" lon="-1.43891">
        <ele>-4.82</ele>
        <time>2020-05-16T12:17:45Z</time>
      </trkpt>
      <trkpt lat="47.26004" lon="-1.43901">
        <ele>-6.36</ele>
        <time>2020-05-16T12:17:47Z</time>
      </trkpt>
      <trkpt lat="47.25993" lon="-1.43914">
        <ele>-7.63</ele>
        <time>2020-05-16T12:17:49Z</time>
      </trkpt>
      <trkpt lat="47.25982" lon="-1.43927">
        <ele>-9.06</ele>
        <time>2020-05-16T12:17:51Z</time>
      </trkpt>
      <trkpt lat="47.25973" lon="-1.43938">
        <ele>-10.22</ele>
        <time>2020-05-16T12:17:53Z</time>
      </trkpt>
      <trkpt lat="47.25962" lon="-1.43953">
        <ele>-9.62</ele>
        <time>2020-05-16T12:17:55Z</time>
      </trkpt>
      <trkpt lat="47.25951" lon="-1.43967">
        <ele>-8.08</ele>
        <time>2020-05-16T12:17:57Z</time>
      </trkpt>
      <trkpt lat="47.2594" lon="-1.43979">
        <ele>-7.08</ele>
        <time>2020-05-16T12:17:59Z</time>
      </trkpt>
      <trkpt lat="47.2593" lon="-1.4399">
        <ele>-6.51</ele>
        <time>2020-05-16T12:18:01Z</time>
      </trkpt>
      <trkpt lat="47.25921" lon="-1.44">
        <ele>-5.91</ele>
        <time>2020-05-16T12:18:03Z</time>
      </trkpt>
      <trkpt lat="47.2591" lon="-1.44012">
        <ele>-5.45</ele>
        <time>2020-05-16T12:18:05Z</time>
      </trkpt>
      <trkpt lat="47.25899" lon="-1.44025">
        <ele>-4.93</ele>
        <time>2020-05-16T12:18:07Z</time>
      </trkpt>
      <trkpt lat="47.25888" lon="-1.44039">
        <ele>-4.23</ele>
        <time>2020-05-16T12:18:09Z</time>
      </trkpt>
      <trkpt lat="47.25879" lon="-1.44053">
        <ele>-3.49</ele>
        <time>2020-05-16T12:18:11Z</time>
      </trkpt>
      <trkpt lat="47.25874" lon="-1.4407">
        <ele>-3.3</ele>
        <time>2020-05-16T12:18:13Z</time>
      </trkpt>
      <trkpt lat="47.25867" lon="-1.44087">
        <ele>-3.97</ele>
        <time>2020-05-16T12:18:15Z</time>
      </trkpt>
      <trkpt lat="47.25857" lon="-1.44101">
        <ele>-4.72</ele>
        <time>2020-05-16T12:18:17Z</time>
      </trkpt>
      <trkpt lat="47.25846" lon="-1.44116">
        <ele>-5.19</ele>
        <time>2020-05-16T12:18:19Z</time>
      </trkpt>
      <trkpt lat="47.25837" lon="-1.44128">
        <ele>-4.88</ele>
        <time>2020-05-16T12:18:21Z</time>
      </trkpt>
      <trkpt lat="47.25827" lon="-1.44137">
        <ele>-4.53</ele>
        <time>2020-05-16T12:18:23Z</time>
      </trkpt>
      <trkpt lat="47.25817" lon="-1.44147">
        <ele>-3.68</ele>
        <time>2020-05-16T12:18:25Z</time>
      </trkpt>
      <trkpt lat="47.25805" lon="-1.44159">
        <ele>-3.63</ele>
        <time>2020-05-16T12:18:27Z</time>
      </trkpt>
      <trkpt lat="47.25795" lon="-1.44169">
        <ele>-2.61</ele>
        <time>2020-05-16T12:18:29Z</time>
      </trkpt>
      <trkpt lat="47.25785" lon="-1.44181">
        <ele>-1.49</ele>
        <time>2020-05-16T12:18:31Z</time>
      </trkpt>
      <trkpt lat="47.25776" lon="-1.44192">
        <ele>-0.24</ele>
        <time>2020-05-16T12:18:33Z</time>
      </trkpt>
      <trkpt lat="47.25767" lon="-1.44204">
        <ele>0.63</ele>
        <time>2020-05-16T12:18:35Z</time>
      </trkpt>
      <trkpt lat="47.25758" lon="-1.44216">
        <ele>0.88</ele>
        <time>2020-05-16T12:18:37Z</time>
      </trkpt>
      <trkpt lat="47.25748" lon="-1.44231">
        <ele>1.33</ele>
        <time>2020-05-16T12:18:39Z</time>
      </trkpt>
      <trkpt lat="47.25738" lon="-1.44242">
        <ele>1.04</ele>
        <time>2020-05-16T12:18:41Z</time>
      </trkpt>
      <trkpt lat="47.25728" lon="-1.44254">
        <ele>1.26</ele>
        <time>2020-05-16T12:18:43Z</time>
      </trkpt>
      <trkpt lat="47.25719" lon="-1.44266">
        <ele>1.64</ele>
        <time>2020-05-16T12:18:45Z</time>
      </trkpt>
      <trkpt lat="47.25708" lon="-1.44279">
        <ele>1.76</ele>
        <time>2020-05-16T12:18:47Z</time>
      </trkpt>
      <trkpt lat="47.25697" lon="-1.4429">
        <ele>2.01</ele>
        <time>2020-05-16T12:18:49Z</time>
      </trkpt>
      <trkpt lat="47.25688" lon="-1.44302">
        <ele>1.85</ele>
        <time>2020-05-16T12:18:51Z</time>
      </trkpt>
      <trkpt lat="47.25677" lon="-1.44316">
        <ele>1.84</ele>
        <time>2020-05-16T12:18:53Z</time>
      </trkpt>
      <trkpt lat="47.25667" lon="-1.4433">
        <ele>1.73</ele>
        <time>2020-05-16T12:18:55Z</time>
      </trkpt>
      <trkpt lat="47.25659" lon="-1.44339">
        <ele>2.28</ele>
        <time>2020-05-16T12:18:57Z</time>
      </trkpt>
      <trkpt lat="47.25647" lon="-1.44352">
        <ele>2.25</ele>
        <time>2020-05-16T12:18:59Z</time>
      </trkpt>
      <trkpt lat="47.25636" lon="-1.44364">
        <ele>1.55</ele>
        <time>2020-05-16T12:19:01Z</time>
      </trkpt>
      <trkpt lat="47.25627" lon="-1.44373">
        <ele>2.26</ele>
        <time>2020-05-16T12:19:03Z</time>
      </trkpt>
      <trkpt lat="47.25616" lon="-1.44385">
        <ele>2.33</ele>
        <time>2020-05-16T12:19:05Z</time>
      </trkpt>
      <trkpt lat="47.25606" lon="-1.44397">
        <ele>3.63</ele>
        <time>2020-05-16T12:19:07Z</time>
      </trkpt>
      <trkpt lat="47.25596" lon="-1.44409">
        <ele>4.92</ele>
        <time>2020-05-16T12:19:09Z</time>
      </trkpt>
      <trkpt lat="47.25585" lon="-1.44421">
        <ele>4.13</ele>
        <time>2020-05-16T12:19:11Z</time>
      </trkpt>
      <trkpt lat="47.25575" lon="-1.44434">
        <ele>2.53</ele>
        <time>2020-05-16T12:19:13Z</time>
      </trkpt>
      <trkpt lat="47.25566" lon="-1.44447">
        <ele>1.76</ele>
        <time>2020-05-16T12:19:15Z</time>
      </trkpt>
      <trkpt lat="47.25555" lon="-1.44462">
        <ele>0.61</ele>
        <time>2020-05-16T12:19:17Z</time>
      </trkpt>
      <trkpt lat="47.25544" lon="-1.44477">
        <ele>-1.06</ele>
        <time>2020-05-16T12:19:19Z</time>
      </trkpt>
      <trkpt lat="47.25534" lon="-1.4449">
        <ele>-2.39</ele>
        <time>2020-05-16T12:19:21Z</time>
      </trkpt>
      <trkpt lat="47.25525" lon="-1.44506">
        <ele>-1.93</ele>
        <time>2020-05-16T12:19:23Z</time>
      </trkpt>
      <trkpt lat="47.25516" lon="-1.4452">
        <ele>-1.28</ele>
        <time>2020-05-16T12:19:25Z</time>
      </trkpt>
      <trkpt lat="47.25507" lon="-1.44535">
        <ele>-0.88</ele>
        <time>2020-05-16T12:19:27Z</time>
      </trkpt>
      <trkpt lat="47.25496" lon="-1.4455">
        <ele>-0.4</ele>
        <time>2020-05-16T12:19:29Z</time>
      </trkpt>
      <trkpt lat="47.25486" lon="-1.44565">
        <ele>-0.66</ele>
        <time>2020-05-16T12:19:31Z</time>
      </trkpt>
      <trkpt lat="47.25476" lon="-1.44579">
        <ele>-1.64</ele>
        <time>2020-05-16T12:19:33Z</time>
      </trkpt>
      <trkpt lat="47.25467" lon="-1.44592">
        <ele>-2.79</ele>
        <time>2020-05-16T12:19:35Z</time>
      </trkpt>
      <trkpt lat="47.25458" lon="-1.44607">
        <ele>-3.29</ele>
        <time>2020-05-16T12:19:37Z</time>
      </trkpt>
      <trkpt lat="47.25449" lon="-1.44622">
        <ele>-2.81</ele>
        <time>2020-05-16T12:19:39Z</time>
      </trkpt>
      <trkpt lat="47.2544" lon="-1.44635">
        <ele>-2.36</ele>
        <time>2020-05-16T12:19:41Z</time>
      </trkpt>
      <trkpt lat="47.2543" lon="-1.44649">
        <ele>-3.76</ele>
        <time>2020-05-16T12:19:43Z</time>
      </trkpt>
      <trkpt lat="47.2542" lon="-1.44662">
        <ele>-4.44</ele>
        <time>2020-05-16T12:19:45Z</time>
      </trkpt>
      <trkpt lat="47.2541" lon="-1.44674">
        <ele>-4.42</ele>
        <time>2020-05-16T12:19:47Z</time>
      </trkpt>
      <trkpt lat="47.25401" lon="-1.44687">
        <ele>-4.26</ele>
        <time>2020-05-16T12:19:49Z</time>
      </trkpt>
      <trkpt lat="47.25391" lon="-1.447">
        <ele>-3.61</ele>
        <time>2020-05-16T12:19:51Z</time>
      </trkpt>
      <trkpt lat="47.2538" lon="-1.44714">
        <ele>-3.16</ele>
        <time>2020-05-16T12:19:53Z</time>
      </trkpt>
      <trkpt lat="47.2537" lon="-1.44724">
        <ele>-2.12</ele>
        <time>2020-05-16T12:19:55Z</time>
      </trkpt>
      <trkpt lat="47.25358" lon="-1.44737">
        <ele>-1.87</ele>
        <time>2020-05-16T12:19:57Z</time>
      </trkpt>
      <trkpt lat="47.25348" lon="-1.44748">
        <ele>-1.89</ele>
        <time>2020-05-16T12:19:59Z</time>
      </trkpt>
      <trkpt lat="47.25335" lon="-1.44759">
        <ele>-1.89</ele>
        <time>2020-05-16T12:20:01Z</time>
      </trkpt>
      <trkpt lat="47.25324" lon="-1.4477">
        <ele>-2.1</ele>
        <time>2020-05-16T12:20:03Z</time>
      </trkpt>
      <trkpt lat="47.25314" lon="-1.4478">
        <ele>-2.84</ele>
        <time>2020-05-16T12:20:05Z</time>
      </trkpt>
      <trkpt lat="47.25304" lon="-1.44791">
        <ele>-2.44</ele>
        <time>2020-05-16T12:20:07Z</time>
      </trkpt>
      <trkpt lat="47.25294" lon="-1.44802">
        <ele>-1.95</ele>
        <time>2020-05-16T12:20:09Z</time>
      </trkpt>
      <trkpt lat="47.25284" lon="-1.44814">
        <ele>-0.58</ele>
        <time>2020-05-16T12:20:11Z</time>
      </trkpt>
      <trkpt lat="47.25271" lon="-1.4483">
        <ele>1.67</ele>
        <time>2020-05-16T12:20:13Z</time>
      </trkpt>
      <trkpt lat="47.2526" lon="-1.44843">
        <ele>4.07</ele>
        <time>2020-05-16T12:20:15Z</time>
      </trkpt>
      <trkpt lat="47.25249" lon="-1.44856">
        <ele>5.4</ele>
        <time>2020-05-16T12:20:17Z</time>
      </trkpt>
      <trkpt lat="47.25237" lon="-1.44868">
        <ele>6.25</ele>
        <time>2020-05-16T12:20:19Z</time>
      </trkpt>
      <trkpt lat="47.25226" lon="-1.44878">
        <ele>7.23</ele>
        <time>2020-05-16T12:20:21Z</time>
      </trkpt>
      <trkpt lat="47.25214" lon="-1.44888">
        <ele>7.69</ele>
        <time>2020-05-16T12:20:23Z</time>
      </trkpt>
      <trkpt lat="47.252" lon="-1.449">
        <ele>7.81</ele>
        <time>2020-05-16T12:20:25Z</time>
      </trkpt>
      <trkpt lat="47.25188" lon="-1.44909">
        <ele>7.01</ele>
        <time>2020-05-16T12:20:27Z</time>
      </trkpt>
      <trkpt lat="47.25176" lon="-1.4492">
        <ele>6.07</ele>
        <time>2020-05-16T12:20:29Z</time>
      </trkpt>
      <trkpt lat="47.25164" lon="-1.4493">
        <ele>6.21</ele>
        <time>2020-05-16T12:20:31Z</time>
      </trkpt>
      <trkpt lat="47.25151" lon="-1.44941">
        <ele>6.56</ele>
        <time>2020-05-16T12:20:33Z</time>
      </trkpt>
      <trkpt lat="47.25139" lon="-1.44952">
        <ele>7.2</ele>
        <time>2020-05-16T12:20:35Z</time>
      </trkpt>
      <trkpt lat="47.25128" lon="-1.44963">
        <ele>8.5</ele>
        <time>2020-05-16T12:20:37Z</time>
      </trkpt>
      <trkpt lat="47.25117" lon="-1.44973">
        <ele>9.62</ele>
        <time>2020-05-16T12:20:39Z</time>
      </trkpt>
      <trkpt lat="47.25105" lon="-1.44985">
        <ele>9.32</ele>
        <time>2020-05-16T12:20:41Z</time>
      </trkpt>
      <trkpt lat="47.25093" lon="-1.44995">
        <ele>7.95</ele>
        <time>2020-05-16T12:20:43Z</time>
      </trkpt>
      <trkpt lat="47.25082" lon="-1.45004">
        <ele>5.6</ele>
        <time>2020-05-16T12:20:45Z</time>
      </trkpt>
      <trkpt lat="47.2507" lon="-1.45015">
        <ele>3.51</ele>
        <time>2020-05-16T12:20:47Z</time>
      </trkpt>
      <trkpt lat="47.25059" lon="-1.45024">
        <ele>2.54</ele>
        <time>2020-05-16T12:20:49Z</time>
      </trkpt>
      <trkpt lat="47.25047" lon="-1.45033">
        <ele>2.25</ele>
        <time>2020-05-16T12:20:51Z</time>
      </trkpt>
      <trkpt lat="47.25034" lon="-1.45042">
        <ele>2.03</ele>
        <time>2020-05-16T12:20:53Z</time>
      </trkpt>
      <trkpt lat="47.25021" lon="-1.45052">
        <ele>1.65</ele>
        <time>2020-05-16T12:20:55Z</time>
      </trkpt>
      <trkpt lat="47.25009" lon="-1.45062">
        <ele>1.99</ele>
        <time>2020-05-16T12:20:57Z</time>
      </trkpt>
      <trkpt lat="47.24998" lon="-1.45074">
        <ele>2.01</ele>
        <time>2020-05-16T12:20:59Z</time>
      </trkpt>
      <trkpt lat="47.24987" lon="-1.45088">
        <ele>1.26</ele>
        <time>2020-05-16T12:21:01Z</time>
      </trkpt>
      <trkpt lat="47.24976" lon="-1.45102">
        <ele>0.53</ele>
        <time>2020-05-16T12:21:03Z</time>
      </trkpt>
      <trkpt lat="47.24964" lon="-1.45114">
        <ele>-0.01</ele>
        <time>2020-05-16T12:21:05Z</time>
      </trkpt>
      <trkpt lat="47.24953" lon="-1.45126">
        <ele>-0.02</ele>
        <time>2020-05-16T12:21:07Z</time>
      </trkpt>
      <trkpt lat="47.24942" lon="-1.45139">
        <ele>0.05</ele>
        <time>2020-05-16T12:21:09Z</time>
      </trkpt>
      <trkpt lat="47.24931" lon="-1.4515">
        <ele>-0.14</ele>
        <time>2020-05-16T12:21:11Z</time>
      </trkpt>
      <trkpt lat="47.24919" lon="-1.45162">
        <ele>-0.26</ele>
        <time>2020-05-16T12:21:13Z</time>
      </trkpt>
      <trkpt lat="47.24907" lon="-1.45174">
        <ele>-0.18</ele>
        <time>2020-05-16T12:21:15Z</time>
      </trkpt>
      <trkpt lat="47.24898" lon="-1.45185">
        <ele>0.33</ele>
        <time>2020-05-16T12:21:16Z</time>
      </trkpt>
      <trkpt lat="47.24888" lon="-1.45198">
        <ele>0.93</ele>
        <time>2020-05-16T12:21:18Z</time>
      </trkpt>
      <trkpt lat="47.24879" lon="-1.45211">
        <ele>1.13</ele>
        <time>2020-05-16T12:21:20Z</time>
      </trkpt>
      <trkpt lat="47.24869" lon="-1.45225">
        <ele>2.05</ele>
        <time>2020-05-16T12:21:22Z</time>
      </trkpt>
      <trkpt lat="47.24862" lon="-1.45236">
        <ele>1.6</ele>
        <time>2020-05-16T12:21:24Z</time>
      </trkpt>
      <trkpt lat="47.24854" lon="-1.45248">
        <ele>0.74</ele>
        <time>2020-05-16T12:21:26Z</time>
      </trkpt>
      <trkpt lat="47.24846" lon="-1.45263">
        <ele>0.61</ele>
        <time>2020-05-16T12:21:28Z</time>
      </trkpt>
      <trkpt lat="47.24835" lon="-1.4528">
        <ele>0.6</ele>
        <time>2020-05-16T12:21:30Z</time>
      </trkpt>
      <trkpt lat="47.24826" lon="-1.45296">
        <ele>0.62</ele>
        <time>2020-05-16T12:21:32Z</time>
      </trkpt>
      <trkpt lat="47.24818" lon="-1.45311">
        <ele>1.49</ele>
        <time>2020-05-16T12:21:34Z</time>
      </trkpt>
      <trkpt lat="47.2481" lon="-1.45328">
        <ele>0.98</ele>
        <time>2020-05-16T12:21:36Z</time>
      </trkpt>
      <trkpt lat="47.24801" lon="-1.45344">
        <ele>0.75</ele>
        <time>2020-05-16T12:21:38Z</time>
      </trkpt>
      <trkpt lat="47.24795" lon="-1.45359">
        <ele>1.3</ele>
        <time>2020-05-16T12:21:40Z</time>
      </trkpt>
      <trkpt lat="47.24789" lon="-1.45374">
        <ele>2.09</ele>
        <time>2020-05-16T12:21:42Z</time>
      </trkpt>
      <trkpt lat="47.24782" lon="-1.45393">
        <ele>2.83</ele>
        <time>2020-05-16T12:21:44Z</time>
      </trkpt>
      <trkpt lat="47.24777" lon="-1.45404">
        <ele>2.75</ele>
        <time>2020-05-16T12:21:45Z</time>
      </trkpt>
      <trkpt lat="47.24771" lon="-1.4542">
        <ele>2.12</ele>
        <time>2020-05-16T12:21:47Z</time>
      </trkpt>
      <trkpt lat="47.24764" lon="-1.45435">
        <ele>1.54</ele>
        <time>2020-05-16T12:21:49Z</time>
      </trkpt>
      <trkpt lat="47.24757" lon="-1.45453">
        <ele>2.34</ele>
        <time>2020-05-16T12:21:51Z</time>
      </trkpt>
      <trkpt lat="47.24751" lon="-1.4547">
        <ele>3.47</ele>
        <time>2020-05-16T12:21:53Z</time>
      </trkpt>
      <trkpt lat="47.24744" lon="-1.45487">
        <ele>3.55</ele>
        <time>2020-05-16T12:21:55Z</time>
      </trkpt>
      <trkpt lat="47.24737" lon="-1.45506">
        <ele>3.81</ele>
        <time>2020-05-16T12:21:57Z</time>
      </trkpt>
      <trkpt lat="47.24729" lon="-1.45527">
        <ele>3.15</ele>
        <time>2020-05-16T12:21:59Z</time>
      </trkpt>
      <trkpt lat="47.24722" lon="-1.45542">
        <ele>1.94</ele>
        <time>2020-05-16T12:22:01Z</time>
      </trkpt>
      <trkpt lat="47.24715" lon="-1.45561">
        <ele>1.21</ele>
        <time>2020-05-16T12:22:03Z</time>
      </trkpt>
      <trkpt lat="47.2471" lon="-1.45577">
        <ele>1.63</ele>
        <time>2020-05-16T12:22:05Z</time>
      </trkpt>
      <trkpt lat="47.24704" lon="-1.45598">
        <ele>1.51</ele>
        <time>2020-05-16T12:22:07Z</time>
      </trkpt>
      <trkpt lat="47.24698" lon="-1.45615">
        <ele>1.1</ele>
        <time>2020-05-16T12:22:09Z</time>
      </trkpt>
      <trkpt lat="47.24693" lon="-1.4563">
        <ele>1.28</ele>
        <time>2020-05-16T12:22:11Z</time>
      </trkpt>
      <trkpt lat="47.24687" lon="-1.45649">
        <ele>-0.19</ele>
        <time>2020-05-16T12:22:13Z</time>
      </trkpt>
      <trkpt lat="47.24682" lon="-1.45663">
        <ele>0.6</ele>
        <time>2020-05-16T12:22:15Z</time>
      </trkpt>
      <trkpt lat="47.24679" lon="-1.45679">
        <ele>1.5</ele>
        <time>2020-05-16T12:22:17Z</time>
      </trkpt>
      <trkpt lat="47.24675" lon="-1.45697">
        <ele>2.22</ele>
        <time>2020-05-16T12:22:19Z</time>
      </trkpt>
      <trkpt lat="47.24669" lon="-1.45717">
        <ele>2.13</ele>
        <time>2020-05-16T12:22:21Z</time>
      </trkpt>
      <trkpt lat="47.24663" lon="-1.45739">
        <ele>2.12</ele>
        <time>2020-05-16T12:22:23Z</time>
      </trkpt>
      <trkpt lat="47.24659" lon="-1.45756">
        <ele>2.11</ele>
        <time>2020-05-16T12:22:25Z</time>
      </trkpt>
      <trkpt lat="47.24655" lon="-1.45771">
        <ele>1.66</ele>
        <time>2020-05-16T12:22:27Z</time>
      </trkpt>
      <trkpt lat="47.24651" lon="-1.45787">
        <ele>2.54</ele>
        <time>2020-05-16T12:22:29Z</time>
      </trkpt>
      <trkpt lat="47.24647" lon="-1.45804">
        <ele>3.06</ele>
        <time>2020-05-16T12:22:31Z</time>
      </trkpt>
      <trkpt lat="47.24642" lon="-1.45821">
        <ele>3.68</ele>
        <time>2020-05-16T12:22:33Z</time>
      </trkpt>
      <trkpt lat="47.24637" lon="-1.45839">
        <ele>5.2</ele>
        <time>2020-05-16T12:22:35Z</time>
      </trkpt>
      <trkpt lat="47.24634" lon="-1.45855">
        <ele>6.03</ele>
        <time>2020-05-16T12:22:37Z</time>
      </trkpt>
      <trkpt lat="47.2463" lon="-1.45875">
        <ele>7.33</ele>
        <time>2020-05-16T12:22:39Z</time>
      </trkpt>
      <trkpt lat="47.24626" lon="-1.45893">
        <ele>7.28</ele>
        <time>2020-05-16T12:22:41Z</time>
      </trkpt>
      <trkpt lat="47.24622" lon="-1.45908">
        <ele>7.95</ele>
        <time>2020-05-16T12:22:43Z</time>
      </trkpt>
      <trkpt lat="47.24617" lon="-1.45927">
        <ele>7.32</ele>
        <time>2020-05-16T12:22:45Z</time>
      </trkpt>
      <trkpt lat="47.24612" lon="-1.45941">
        <ele>6.54</ele>
        <time>2020-05-16T12:22:46Z</time>
      </trkpt>
      <trkpt lat="47.24602" lon="-1.45962">
        <ele>4.34</ele>
        <time>2020-05-16T12:22:48Z</time>
      </trkpt>
      <trkpt lat="47.24593" lon="-1.45977">
        <ele>2.8</ele>
        <time>2020-05-16T12:22:50Z</time>
      </trkpt>
      <trkpt lat="47.24584" lon="-1.45995">
        <ele>2.79</ele>
        <time>2020-05-16T12:22:52Z</time>
      </trkpt>
      <trkpt lat="47.24576" lon="-1.46012">
        <ele>2.55</ele>
        <time>2020-05-16T12:22:54Z</time>
      </trkpt>
      <trkpt lat="47.24567" lon="-1.46029">
        <ele>1.83</ele>
        <time>2020-05-16T12:22:56Z</time>
      </trkpt>
      <trkpt lat="47.24559" lon="-1.46044">
        <ele>0.76</ele>
        <time>2020-05-16T12:22:58Z</time>
      </trkpt>
      <trkpt lat="47.24549" lon="-1.46063">
        <ele>-0.23</ele>
        <time>2020-05-16T12:23:00Z</time>
      </trkpt>
      <trkpt lat="47.24541" lon="-1.46079">
        <ele>0.13</ele>
        <time>2020-05-16T12:23:02Z</time>
      </trkpt>
      <trkpt lat="47.24532" lon="-1.46097">
        <ele>0.54</ele>
        <time>2020-05-16T12:23:04Z</time>
      </trkpt>
      <trkpt lat="47.24522" lon="-1.46111">
        <ele>1.41</ele>
        <time>2020-05-16T12:23:06Z</time>
      </trkpt>
      <trkpt lat="47.24511" lon="-1.46123">
        <ele>2.26</ele>
        <time>2020-05-16T12:23:08Z</time>
      </trkpt>
      <trkpt lat="47.245" lon="-1.46136">
        <ele>2.26</ele>
        <time>2020-05-16T12:23:10Z</time>
      </trkpt>
      <trkpt lat="47.24488" lon="-1.46151">
        <ele>2.49</ele>
        <time>2020-05-16T12:23:12Z</time>
      </trkpt>
      <trkpt lat="47.24477" lon="-1.46165">
        <ele>3.21</ele>
        <time>2020-05-16T12:23:14Z</time>
      </trkpt>
      <trkpt lat="47.24466" lon="-1.46178">
        <ele>4.55</ele>
        <time>2020-05-16T12:23:16Z</time>
      </trkpt>
      <trkpt lat="47.24455" lon="-1.46191">
        <ele>4.53</ele>
        <time>2020-05-16T12:23:18Z</time>
      </trkpt>
      <trkpt lat="47.24444" lon="-1.46204">
        <ele>3.9</ele>
        <time>2020-05-16T12:23:20Z</time>
      </trkpt>
      <trkpt lat="47.24435" lon="-1.46219">
        <ele>4.18</ele>
        <time>2020-05-16T12:23:22Z</time>
      </trkpt>
      <trkpt lat="47.24426" lon="-1.46234">
        <ele>4.7</ele>
        <time>2020-05-16T12:23:24Z</time>
      </trkpt>
      <trkpt lat="47.24417" lon="-1.46247">
        <ele>4.59</ele>
        <time>2020-05-16T12:23:26Z</time>
      </trkpt>
      <trkpt lat="47.24405" lon="-1.46261">
        <ele>3.62</ele>
        <time>2020-05-16T12:23:28Z</time>
      </trkpt>
      <trkpt lat="47.24396" lon="-1.46274">
        <ele>1.85</ele>
        <time>2020-05-16T12:23:30Z</time>
      </trkpt>
      <trkpt lat="47.24387" lon="-1.46285">
        <ele>-0.11</ele>
        <time>2020-05-16T12:23:32Z</time>
      </trkpt>
      <trkpt lat="47.24378" lon="-1.46299">
        <ele>-0.38</ele>
        <time>2020-05-16T12:23:34Z</time>
      </trkpt>
      <trkpt lat="47.24369" lon="-1.46314">
        <ele>-0.37</ele>
        <time>2020-05-16T12:23:36Z</time>
      </trkpt>
      <trkpt lat="47.2436" lon="-1.46327">
        <ele>-0.39</ele>
        <time>2020-05-16T12:23:38Z</time>
      </trkpt>
      <trkpt lat="47.24351" lon="-1.46341">
        <ele>-1.11</ele>
        <time>2020-05-16T12:23:40Z</time>
      </trkpt>
      <trkpt lat="47.24342" lon="-1.46355">
        <ele>-1.21</ele>
        <time>2020-05-16T12:23:42Z</time>
      </trkpt>
      <trkpt lat="47.24333" lon="-1.4637">
        <ele>-0.52</ele>
        <time>2020-05-16T12:23:44Z</time>
      </trkpt>
      <trkpt lat="47.24323" lon="-1.46386">
        <ele>0.17</ele>
        <time>2020-05-16T12:23:46Z</time>
      </trkpt>
      <trkpt lat="47.24313" lon="-1.46403">
        <ele>1.25</ele>
        <time>2020-05-16T12:23:48Z</time>
      </trkpt>
      <trkpt lat="47.24303" lon="-1.46419">
        <ele>3.16</ele>
        <time>2020-05-16T12:23:50Z</time>
      </trkpt>
      <trkpt lat="47.24293" lon="-1.46437">
        <ele>4.89</ele>
        <time>2020-05-16T12:23:52Z</time>
      </trkpt>
      <trkpt lat="47.24283" lon="-1.46453">
        <ele>4.23</ele>
        <time>2020-05-16T12:23:54Z</time>
      </trkpt>
      <trkpt lat="47.24273" lon="-1.46467">
        <ele>3.09</ele>
        <time>2020-05-16T12:23:56Z</time>
      </trkpt>
      <trkpt lat="47.24263" lon="-1.46482">
        <ele>3.01</ele>
        <time>2020-05-16T12:23:58Z</time>
      </trkpt>
      <trkpt lat="47.24253" lon="-1.46496">
        <ele>3.16</ele>
        <time>2020-05-16T12:24:00Z</time>
      </trkpt>
      <trkpt lat="47.24242" lon="-1.46509">
        <ele>2.82</ele>
        <time>2020-05-16T12:24:02Z</time>
      </trkpt>
      <trkpt lat="47.24233" lon="-1.46521">
        <ele>2.31</ele>
        <time>2020-05-16T12:24:04Z</time>
      </trkpt>
      <trkpt lat="47.24223" lon="-1.46533">
        <ele>2.04</ele>
        <time>2020-05-16T12:24:06Z</time>
      </trkpt>
      <trkpt lat="47.24213" lon="-1.46545">
        <ele>2.09</ele>
        <time>2020-05-16T12:24:08Z</time>
      </trkpt>
      <trkpt lat="47.24203" lon="-1.46556">
        <ele>2.18</ele>
        <time>2020-05-16T12:24:10Z</time>
      </trkpt>
      <trkpt lat="47.24193" lon="-1.46569">
        <ele>1.43</ele>
        <time>2020-05-16T12:24:12Z</time>
      </trkpt>
      <trkpt lat="47.24183" lon="-1.46582">
        <ele>1.19</ele>
        <time>2020-05-16T12:24:14Z</time>
      </trkpt>
      <trkpt lat="47.24173" lon="-1.46595">
        <ele>1.19</ele>
        <time>2020-05-16T12:24:16Z</time>
      </trkpt>
      <trkpt lat="47.24162" lon="-1.46608">
        <ele>1.37</ele>
        <time>2020-05-16T12:24:18Z</time>
      </trkpt>
      <trkpt lat="47.24154" lon="-1.46619">
        <ele>1.22</ele>
        <time>2020-05-16T12:24:20Z</time>
      </trkpt>
      <trkpt lat="47.24144" lon="-1.4663">
        <ele>1.56</ele>
        <time>2020-05-16T12:24:22Z</time>
      </trkpt>
      <trkpt lat="47.24134" lon="-1.46644">
        <ele>1.49</ele>
        <time>2020-05-16T12:24:24Z</time>
      </trkpt>
      <trkpt lat="47.24126" lon="-1.46657">
        <ele>1.49</ele>
        <time>2020-05-16T12:24:26Z</time>
      </trkpt>
      <trkpt lat="47.24116" lon="-1.46671">
        <ele>0.93</ele>
        <time>2020-05-16T12:24:28Z</time>
      </trkpt>
      <trkpt lat="47.24105" lon="-1.46686">
        <ele>0.12</ele>
        <time>2020-05-16T12:24:30Z</time>
      </trkpt>
      <trkpt lat="47.24096" lon="-1.46699">
        <ele>-0.64</ele>
        <time>2020-05-16T12:24:32Z</time>
      </trkpt>
      <trkpt lat="47.24088" lon="-1.46712">
        <ele>-0.16</ele>
        <time>2020-05-16T12:24:34Z</time>
      </trkpt>
      <trkpt lat="47.24083" lon="-1.46727">
        <ele>0.26</ele>
        <time>2020-05-16T12:24:36Z</time>
      </trkpt>
      <trkpt lat="47.24075" lon="-1.46744">
        <ele>0.28</ele>
        <time>2020-05-16T12:24:38Z</time>
      </trkpt>
      <trkpt lat="47.24067" lon="-1.4675">
        <ele>0.03</ele>
        <time>2020-05-16T12:24:39Z</time>
      </trkpt>
      <trkpt lat="47.24054" lon="-1.46758">
        <ele>0.37</ele>
        <time>2020-05-16T12:24:41Z</time>
      </trkpt>
      <trkpt lat="47.24041" lon="-1.46766">
        <ele>1.26</ele>
        <time>2020-05-16T12:24:43Z</time>
      </trkpt>
      <trkpt lat="47.24029" lon="-1.46778">
        <ele>1.83</ele>
        <time>2020-05-16T12:24:45Z</time>
      </trkpt>
      <trkpt lat="47.2402" lon="-1.46789">
        <ele>3</ele>
        <time>2020-05-16T12:24:47Z</time>
      </trkpt>
      <trkpt lat="47.2401" lon="-1.46802">
        <ele>3.32</ele>
        <time>2020-05-16T12:24:49Z</time>
      </trkpt>
      <trkpt lat="47.23998" lon="-1.46814">
        <ele>4.75</ele>
        <time>2020-05-16T12:24:51Z</time>
      </trkpt>
      <trkpt lat="47.23988" lon="-1.46826">
        <ele>5.9</ele>
        <time>2020-05-16T12:24:53Z</time>
      </trkpt>
      <trkpt lat="47.23976" lon="-1.46839">
        <ele>6.76</ele>
        <time>2020-05-16T12:24:55Z</time>
      </trkpt>
      <trkpt lat="47.23964" lon="-1.46851">
        <ele>7.67</ele>
        <time>2020-05-16T12:24:57Z</time>
      </trkpt>
      <trkpt lat="47.23954" lon="-1.46861">
        <ele>7.69</ele>
        <time>2020-05-16T12:24:59Z</time>
      </trkpt>
      <trkpt lat="47.23944" lon="-1.46871">
        <ele>7.41</ele>
        <time>2020-05-16T12:25:01Z</time>
      </trkpt>
      <trkpt lat="47.23932" lon="-1.46881">
        <ele>6.65</ele>
        <time>2020-05-16T12:25:03Z</time>
      </trkpt>
      <trkpt lat="47.23921" lon="-1.46891">
        <ele>5.76</ele>
        <time>2020-05-16T12:25:05Z</time>
      </trkpt>
      <trkpt lat="47.2391" lon="-1.46904">
        <ele>4.24</ele>
        <time>2020-05-16T12:25:07Z</time>
      </trkpt>
      <trkpt lat="47.23899" lon="-1.46916">
        <ele>3.83</ele>
        <time>2020-05-16T12:25:09Z</time>
      </trkpt>
      <trkpt lat="47.2389" lon="-1.4693">
        <ele>2.57</ele>
        <time>2020-05-16T12:25:11Z</time>
      </trkpt>
      <trkpt lat="47.23881" lon="-1.46943">
        <ele>2.14</ele>
        <time>2020-05-16T12:25:13Z</time>
      </trkpt>
      <trkpt lat="47.23872" lon="-1.46956">
        <ele>1.6</ele>
        <time>2020-05-16T12:25:15Z</time>
      </trkpt>
      <trkpt lat="47.23863" lon="-1.46968">
        <ele>1.5</ele>
        <time>2020-05-16T12:25:17Z</time>
      </trkpt>
      <trkpt lat="47.23853" lon="-1.46981">
        <ele>1.17</ele>
        <time>2020-05-16T12:25:19Z</time>
      </trkpt>
      <trkpt lat="47.23844" lon="-1.46994">
        <ele>1.79</ele>
        <time>2020-05-16T12:25:21Z</time>
      </trkpt>
      <trkpt lat="47.23836" lon="-1.47007">
        <ele>2.9</ele>
        <time>2020-05-16T12:25:23Z</time>
      </trkpt>
      <trkpt lat="47.23827" lon="-1.4702">
        <ele>2.83</ele>
        <time>2020-05-16T12:25:25Z</time>
      </trkpt>
      <trkpt lat="47.23818" lon="-1.47035">
        <ele>2.59</ele>
        <time>2020-05-16T12:25:27Z</time>
      </trkpt>
      <trkpt lat="47.23808" lon="-1.4705">
        <ele>2.66</ele>
        <time>2020-05-16T12:25:29Z</time>
      </trkpt>
      <trkpt lat="47.23799" lon="-1.47063">
        <ele>2.98</ele>
        <time>2020-05-16T12:25:31Z</time>
      </trkpt>
      <trkpt lat="47.23789" lon="-1.47077">
        <ele>2.68</ele>
        <time>2020-05-16T12:25:33Z</time>
      </trkpt>
      <trkpt lat="47.23779" lon="-1.47091">
        <ele>1.83</ele>
        <time>2020-05-16T12:25:35Z</time>
      </trkpt>
      <trkpt lat="47.23769" lon="-1.47105">
        <ele>0.86</ele>
        <time>2020-05-16T12:25:37Z</time>
      </trkpt>
      <trkpt lat="47.2376" lon="-1.47118">
        <ele>0.84</ele>
        <time>2020-05-16T12:25:39Z</time>
      </trkpt>
      <trkpt lat="47.23751" lon="-1.47129">
        <ele>1.83</ele>
        <time>2020-05-16T12:25:41Z</time>
      </trkpt>
      <trkpt lat="47.23741" lon="-1.4714">
        <ele>2.71</ele>
        <time>2020-05-16T12:25:43Z</time>
      </trkpt>
      <trkpt lat="47.23731" lon="-1.4715">
        <ele>4.11</ele>
        <time>2020-05-16T12:25:45Z</time>
      </trkpt>
      <trkpt lat="47.23722" lon="-1.47163">
        <ele>4.98</ele>
        <time>2020-05-16T12:25:47Z</time>
      </trkpt>
      <trkpt lat="47.23713" lon="-1.47176">
        <ele>5.41</ele>
        <time>2020-05-16T12:25:49Z</time>
      </trkpt>
      <trkpt lat="47.23706" lon="-1.47185">
        <ele>5.11</ele>
        <time>2020-05-16T12:25:50Z</time>
      </trkpt>
      <trkpt lat="47.23697" lon="-1.47199">
        <ele>4.15</ele>
        <time>2020-05-16T12:25:52Z</time>
      </trkpt>
      <trkpt lat="47.23687" lon="-1.47217">
        <ele>2.94</ele>
        <time>2020-05-16T12:25:54Z</time>
      </trkpt>
      <trkpt lat="47.23677" lon="-1.47233">
        <ele>2.19</ele>
        <time>2020-05-16T12:25:56Z</time>
      </trkpt>
      <trkpt lat="47.23666" lon="-1.47246">
        <ele>2.11</ele>
        <time>2020-05-16T12:25:58Z</time>
      </trkpt>
      <trkpt lat="47.23654" lon="-1.47261">
        <ele>2.24</ele>
        <time>2020-05-16T12:26:00Z</time>
      </trkpt>
      <trkpt lat="47.23643" lon="-1.47272">
        <ele>2.19</ele>
        <time>2020-05-16T12:26:02Z</time>
      </trkpt>
      <trkpt lat="47.23632" lon="-1.47284">
        <ele>1.66</ele>
        <time>2020-05-16T12:26:04Z</time>
      </trkpt>
      <trkpt lat="47.23621" lon="-1.47296">
        <ele>1.58</ele>
        <time>2020-05-16T12:26:06Z</time>
      </trkpt>
      <trkpt lat="47.2361" lon="-1.47307">
        <ele>1.2</ele>
        <time>2020-05-16T12:26:08Z</time>
      </trkpt>
      <trkpt lat="47.23599" lon="-1.47318">
        <ele>1.54</ele>
        <time>2020-05-16T12:26:10Z</time>
      </trkpt>
      <trkpt lat="47.23588" lon="-1.47329">
        <ele>2.54</ele>
        <time>2020-05-16T12:26:12Z</time>
      </trkpt>
      <trkpt lat="47.23576" lon="-1.47338">
        <ele>2.92</ele>
        <time>2020-05-16T12:26:14Z</time>
      </trkpt>
      <trkpt lat="47.23564" lon="-1.47348">
        <ele>2.49</ele>
        <time>2020-05-16T12:26:16Z</time>
      </trkpt>
      <trkpt lat="47.23551" lon="-1.47359">
        <ele>2.59</ele>
        <time>2020-05-16T12:26:18Z</time>
      </trkpt>
      <trkpt lat="47.23539" lon="-1.47369">
        <ele>2.81</ele>
        <time>2020-05-16T12:26:20Z</time>
      </trkpt>
      <trkpt lat="47.23527" lon="-1.4738">
        <ele>2.75</ele>
        <time>2020-05-16T12:26:22Z</time>
      </trkpt>
      <trkpt lat="47.23516" lon="-1.47388">
        <ele>2.47</ele>
        <time>2020-05-16T12:26:24Z</time>
      </trkpt>
      <trkpt lat="47.23505" lon="-1.47398">
        <ele>2.48</ele>
        <time>2020-05-16T12:26:26Z</time>
      </trkpt>
      <trkpt lat="47.23494" lon="-1.47407">
        <ele>2.22</ele>
        <time>2020-05-16T12:26:28Z</time>
      </trkpt>
      <trkpt lat="47.23484" lon="-1.47414">
        <ele>1.36</ele>
        <time>2020-05-16T12:26:30Z</time>
      </trkpt>
      <trkpt lat="47.23474" lon="-1.47418">
        <ele>0.5</ele>
        <time>2020-05-16T12:26:33Z</time>
      </trkpt>
      <trkpt lat="47.23465" lon="-1.4742">
        <ele>0.78</ele>
        <time>2020-05-16T12:26:35Z</time>
      </trkpt>
      <trkpt lat="47.23455" lon="-1.47422">
        <ele>2.01</ele>
        <time>2020-05-16T12:26:37Z</time>
      </trkpt>
      <trkpt lat="47.23446" lon="-1.47425">
        <ele>2.77</ele>
        <time>2020-05-16T12:26:38Z</time>
      </trkpt>
      <trkpt lat="47.23434" lon="-1.47429">
        <ele>3.16</ele>
        <time>2020-05-16T12:26:40Z</time>
      </trkpt>
      <trkpt lat="47.23423" lon="-1.47436">
        <ele>3.71</ele>
        <time>2020-05-16T12:26:42Z</time>
      </trkpt>
      <trkpt lat="47.23411" lon="-1.47443">
        <ele>4.73</ele>
        <time>2020-05-16T12:26:44Z</time>
      </trkpt>
      <trkpt lat="47.23399" lon="-1.47451">
        <ele>6.57</ele>
        <time>2020-05-16T12:26:46Z</time>
      </trkpt>
      <trkpt lat="47.23387" lon="-1.4746">
        <ele>6.86</ele>
        <time>2020-05-16T12:26:48Z</time>
      </trkpt>
      <trkpt lat="47.23374" lon="-1.47467">
        <ele>7.36</ele>
        <time>2020-05-16T12:26:50Z</time>
      </trkpt>
      <trkpt lat="47.2336" lon="-1.47473">
        <ele>7.62</ele>
        <time>2020-05-16T12:26:52Z</time>
      </trkpt>
      <trkpt lat="47.23346" lon="-1.4748">
        <ele>6.9</ele>
        <time>2020-05-16T12:26:54Z</time>
      </trkpt>
      <trkpt lat="47.23335" lon="-1.47488">
        <ele>6.05</ele>
        <time>2020-05-16T12:26:56Z</time>
      </trkpt>
      <trkpt lat="47.23323" lon="-1.47501">
        <ele>3.34</ele>
        <time>2020-05-16T12:26:58Z</time>
      </trkpt>
      <trkpt lat="47.2331" lon="-1.47513">
        <ele>2.89</ele>
        <time>2020-05-16T12:27:00Z</time>
      </trkpt>
      <trkpt lat="47.23297" lon="-1.47519">
        <ele>3.55</ele>
        <time>2020-05-16T12:27:02Z</time>
      </trkpt>
      <trkpt lat="47.23284" lon="-1.47524">
        <ele>4.19</ele>
        <time>2020-05-16T12:27:04Z</time>
      </trkpt>
      <trkpt lat="47.23272" lon="-1.47533">
        <ele>4.63</ele>
        <time>2020-05-16T12:27:06Z</time>
      </trkpt>
      <trkpt lat="47.23261" lon="-1.47546">
        <ele>5.5</ele>
        <time>2020-05-16T12:27:08Z</time>
      </trkpt>
      <trkpt lat="47.23253" lon="-1.47559">
        <ele>4.98</ele>
        <time>2020-05-16T12:27:10Z</time>
      </trkpt>
      <trkpt lat="47.23243" lon="-1.47576">
        <ele>4.15</ele>
        <time>2020-05-16T12:27:12Z</time>
      </trkpt>
      <trkpt lat="47.23235" lon="-1.47591">
        <ele>3.64</ele>
        <time>2020-05-16T12:27:14Z</time>
      </trkpt>
      <trkpt lat="47.23228" lon="-1.47605">
        <ele>2.27</ele>
        <time>2020-05-16T12:27:16Z</time>
      </trkpt>
      <trkpt lat="47.23219" lon="-1.47623">
        <ele>0.99</ele>
        <time>2020-05-16T12:27:18Z</time>
      </trkpt>
      <trkpt lat="47.23213" lon="-1.47641">
        <ele>-0.28</ele>
        <time>2020-05-16T12:27:20Z</time>
      </trkpt>
      <trkpt lat="47.23207" lon="-1.47657">
        <ele>-0.4</ele>
        <time>2020-05-16T12:27:22Z</time>
      </trkpt>
      <trkpt lat="47.232" lon="-1.47674">
        <ele>0.21</ele>
        <time>2020-05-16T12:27:24Z</time>
      </trkpt>
      <trkpt lat="47.23194" lon="-1.47688">
        <ele>-0.22</ele>
        <time>2020-05-16T12:27:26Z</time>
      </trkpt>
      <trkpt lat="47.23185" lon="-1.47708">
        <ele>-0.13</ele>
        <time>2020-05-16T12:27:28Z</time>
      </trkpt>
      <trkpt lat="47.23177" lon="-1.47727">
        <ele>-0.31</ele>
        <time>2020-05-16T12:27:30Z</time>
      </trkpt>
      <trkpt lat="47.23169" lon="-1.47745">
        <ele>-0.38</ele>
        <time>2020-05-16T12:27:32Z</time>
      </trkpt>
      <trkpt lat="47.23162" lon="-1.47761">
        <ele>-0.27</ele>
        <time>2020-05-16T12:27:34Z</time>
      </trkpt>
      <trkpt lat="47.23155" lon="-1.47776">
        <ele>0.77</ele>
        <time>2020-05-16T12:27:36Z</time>
      </trkpt>
      <trkpt lat="47.23147" lon="-1.47791">
        <ele>1.65</ele>
        <time>2020-05-16T12:27:38Z</time>
      </trkpt>
      <trkpt lat="47.23141" lon="-1.47806">
        <ele>2.3</ele>
        <time>2020-05-16T12:27:40Z</time>
      </trkpt>
      <trkpt lat="47.23136" lon="-1.4782">
        <ele>2.36</ele>
        <time>2020-05-16T12:27:42Z</time>
      </trkpt>
      <trkpt lat="47.23129" lon="-1.4784">
        <ele>2.71</ele>
        <time>2020-05-16T12:27:44Z</time>
      </trkpt>
      <trkpt lat="47.23121" lon="-1.47858">
        <ele>2.65</ele>
        <time>2020-05-16T12:27:46Z</time>
      </trkpt>
      <trkpt lat="47.23111" lon="-1.47875">
        <ele>1.67</ele>
        <time>2020-05-16T12:27:48Z</time>
      </trkpt>
      <trkpt lat="47.23101" lon="-1.47892">
        <ele>0.69</ele>
        <time>2020-05-16T12:27:50Z</time>
      </trkpt>
      <trkpt lat="47.23093" lon="-1.47904">
        <ele>0.24</ele>
        <time>2020-05-16T12:27:52Z</time>
      </trkpt>
      <trkpt lat="47.23084" lon="-1.47917">
        <ele>-1.65</ele>
        <time>2020-05-16T12:27:54Z</time>
      </trkpt>
      <trkpt lat="47.23072" lon="-1.47929">
        <ele>-1.9</ele>
        <time>2020-05-16T12:27:56Z</time>
      </trkpt>
      <trkpt lat="47.23063" lon="-1.4794">
        <ele>-1.61</ele>
        <time>2020-05-16T12:27:58Z</time>
      </trkpt>
      <trkpt lat="47.23054" lon="-1.47952">
        <ele>-1.62</ele>
        <time>2020-05-16T12:28:00Z</time>
      </trkpt>
      <trkpt lat="47.23043" lon="-1.47966">
        <ele>-1.84</ele>
        <time>2020-05-16T12:28:02Z</time>
      </trkpt>
      <trkpt lat="47.23032" lon="-1.47979">
        <ele>-0.75</ele>
        <time>2020-05-16T12:28:04Z</time>
      </trkpt>
      <trkpt lat="47.23022" lon="-1.47992">
        <ele>0.63</ele>
        <time>2020-05-16T12:28:06Z</time>
      </trkpt>
      <trkpt lat="47.23015" lon="-1.48004">
        <ele>1.76</ele>
        <time>2020-05-16T12:28:08Z</time>
      </trkpt>
      <trkpt lat="47.23006" lon="-1.48019">
        <ele>2.04</ele>
        <time>2020-05-16T12:28:10Z</time>
      </trkpt>
      <trkpt lat="47.22995" lon="-1.48037">
        <ele>1.55</ele>
        <time>2020-05-16T12:28:12Z</time>
      </trkpt>
      <trkpt lat="47.22988" lon="-1.48051">
        <ele>0.98</ele>
        <time>2020-05-16T12:28:14Z</time>
      </trkpt>
      <trkpt lat="47.2298" lon="-1.48065">
        <ele>0.94</ele>
        <time>2020-05-16T12:28:16Z</time>
      </trkpt>
      <trkpt lat="47.22974" lon="-1.48075">
        <ele>1.34</ele>
        <time>2020-05-16T12:28:18Z</time>
      </trkpt>
      <trkpt lat="47.22966" lon="-1.48088">
        <ele>1.18</ele>
        <time>2020-05-16T12:28:22Z</time>
      </trkpt>
      <trkpt lat="47.22958" lon="-1.48099">
        <ele>1.3</ele>
        <time>2020-05-16T12:28:28Z</time>
      </trkpt>
      <trkpt lat="47.22952" lon="-1.48112">
        <ele>1.33</ele>
        <time>2020-05-16T12:28:31Z</time>
      </trkpt>
      <trkpt lat="47.22938" lon="-1.48115">
        <ele>1.68</ele>
        <time>2020-05-16T12:28:34Z</time>
      </trkpt>
      <trkpt lat="47.22924" lon="-1.48115">
        <ele>1.42</ele>
        <time>2020-05-16T12:28:36Z</time>
      </trkpt>
      <trkpt lat="47.22911" lon="-1.48122">
        <ele>1.36</ele>
        <time>2020-05-16T12:28:38Z</time>
      </trkpt>
      <trkpt lat="47.229" lon="-1.48134">
        <ele>2.69</ele>
        <time>2020-05-16T12:28:40Z</time>
      </trkpt>
      <trkpt lat="47.22889" lon="-1.48149">
        <ele>3.36</ele>
        <time>2020-05-16T12:28:42Z</time>
      </trkpt>
      <trkpt lat="47.22878" lon="-1.48166">
        <ele>3.33</ele>
        <time>2020-05-16T12:28:44Z</time>
      </trkpt>
      <trkpt lat="47.22867" lon="-1.48185">
        <ele>4.13</ele>
        <time>2020-05-16T12:28:46Z</time>
      </trkpt>
      <trkpt lat="47.22857" lon="-1.48202">
        <ele>4.13</ele>
        <time>2020-05-16T12:28:48Z</time>
      </trkpt>
      <trkpt lat="47.22846" lon="-1.4822">
        <ele>4.27</ele>
        <time>2020-05-16T12:28:50Z</time>
      </trkpt>
      <trkpt lat="47.22835" lon="-1.48239">
        <ele>4.32</ele>
        <time>2020-05-16T12:28:52Z</time>
      </trkpt>
      <trkpt lat="47.22824" lon="-1.48254">
        <ele>3.3</ele>
        <time>2020-05-16T12:28:54Z</time>
      </trkpt>
      <trkpt lat="47.22812" lon="-1.48271">
        <ele>1.9</ele>
        <time>2020-05-16T12:28:56Z</time>
      </trkpt>
      <trkpt lat="47.22801" lon="-1.48288">
        <ele>1.04</ele>
        <time>2020-05-16T12:28:58Z</time>
      </trkpt>
      <trkpt lat="47.22792" lon="-1.48304">
        <ele>1.14</ele>
        <time>2020-05-16T12:29:00Z</time>
      </trkpt>
      <trkpt lat="47.22783" lon="-1.48319">
        <ele>1.81</ele>
        <time>2020-05-16T12:29:02Z</time>
      </trkpt>
      <trkpt lat="47.22773" lon="-1.48335">
        <ele>1.39</ele>
        <time>2020-05-16T12:29:04Z</time>
      </trkpt>
      <trkpt lat="47.22762" lon="-1.48352">
        <ele>0.32</ele>
        <time>2020-05-16T12:29:06Z</time>
      </trkpt>
      <trkpt lat="47.22753" lon="-1.48366">
        <ele>0.47</ele>
        <time>2020-05-16T12:29:08Z</time>
      </trkpt>
      <trkpt lat="47.22742" lon="-1.4838">
        <ele>0.47</ele>
        <time>2020-05-16T12:29:10Z</time>
      </trkpt>
      <trkpt lat="47.22732" lon="-1.48394">
        <ele>0.86</ele>
        <time>2020-05-16T12:29:12Z</time>
      </trkpt>
      <trkpt lat="47.22721" lon="-1.48408">
        <ele>0.38</ele>
        <time>2020-05-16T12:29:14Z</time>
      </trkpt>
      <trkpt lat="47.2271" lon="-1.48424">
        <ele>0.21</ele>
        <time>2020-05-16T12:29:16Z</time>
      </trkpt>
      <trkpt lat="47.22703" lon="-1.48441">
        <ele>-0.05</ele>
        <time>2020-05-16T12:29:18Z</time>
      </trkpt>
      <trkpt lat="47.22698" lon="-1.48457">
        <ele>-0.16</ele>
        <time>2020-05-16T12:29:20Z</time>
      </trkpt>
      <trkpt lat="47.2269" lon="-1.48475">
        <ele>0.66</ele>
        <time>2020-05-16T12:29:22Z</time>
      </trkpt>
      <trkpt lat="47.22682" lon="-1.48492">
        <ele>1.54</ele>
        <time>2020-05-16T12:29:24Z</time>
      </trkpt>
      <trkpt lat="47.22675" lon="-1.48509">
        <ele>1.63</ele>
        <time>2020-05-16T12:29:26Z</time>
      </trkpt>
      <trkpt lat="47.22669" lon="-1.48525">
        <ele>3.32</ele>
        <time>2020-05-16T12:29:28Z</time>
      </trkpt>
      <trkpt lat="47.22662" lon="-1.48546">
        <ele>3.15</ele>
        <time>2020-05-16T12:29:30Z</time>
      </trkpt>
      <trkpt lat="47.22659" lon="-1.48559">
        <ele>2.86</ele>
        <time>2020-05-16T12:29:31Z</time>
      </trkpt>
      <trkpt lat="47.22653" lon="-1.48578">
        <ele>2.51</ele>
        <time>2020-05-16T12:29:33Z</time>
      </trkpt>
      <trkpt lat="47.22648" lon="-1.48596">
        <ele>2.03</ele>
        <time>2020-05-16T12:29:35Z</time>
      </trkpt>
      <trkpt lat="47.22643" lon="-1.4861">
        <ele>2.14</ele>
        <time>2020-05-16T12:29:37Z</time>
      </trkpt>
      <trkpt lat="47.22635" lon="-1.48628">
        <ele>1.6</ele>
        <time>2020-05-16T12:29:39Z</time>
      </trkpt>
      <trkpt lat="47.22628" lon="-1.48646">
        <ele>1.12</ele>
        <time>2020-05-16T12:29:41Z</time>
      </trkpt>
      <trkpt lat="47.22621" lon="-1.48666">
        <ele>0.8</ele>
        <time>2020-05-16T12:29:43Z</time>
      </trkpt>
      <trkpt lat="47.22614" lon="-1.48685">
        <ele>0.4</ele>
        <time>2020-05-16T12:29:45Z</time>
      </trkpt>
      <trkpt lat="47.22608" lon="-1.48703">
        <ele>-0.53</ele>
        <time>2020-05-16T12:29:47Z</time>
      </trkpt>
      <trkpt lat="47.22603" lon="-1.48721">
        <ele>-0.42</ele>
        <time>2020-05-16T12:29:49Z</time>
      </trkpt>
      <trkpt lat="47.22598" lon="-1.48739">
        <ele>0.19</ele>
        <time>2020-05-16T12:29:51Z</time>
      </trkpt>
      <trkpt lat="47.22593" lon="-1.4876">
        <ele>0.43</ele>
        <time>2020-05-16T12:29:53Z</time>
      </trkpt>
      <trkpt lat="47.22588" lon="-1.48778">
        <ele>0.6</ele>
        <time>2020-05-16T12:29:55Z</time>
      </trkpt>
      <trkpt lat="47.22583" lon="-1.48795">
        <ele>1.65</ele>
        <time>2020-05-16T12:29:57Z</time>
      </trkpt>
      <trkpt lat="47.22576" lon="-1.48817">
        <ele>1.4</ele>
        <time>2020-05-16T12:29:59Z</time>
      </trkpt>
      <trkpt lat="47.2257" lon="-1.48834">
        <ele>0.76</ele>
        <time>2020-05-16T12:30:01Z</time>
      </trkpt>
      <trkpt lat="47.22563" lon="-1.48856">
        <ele>-0.37</ele>
        <time>2020-05-16T12:30:03Z</time>
      </trkpt>
      <trkpt lat="47.22559" lon="-1.4887">
        <ele>-0.07</ele>
        <time>2020-05-16T12:30:05Z</time>
      </trkpt>
      <trkpt lat="47.22555" lon="-1.48888">
        <ele>0.76</ele>
        <time>2020-05-16T12:30:07Z</time>
      </trkpt>
      <trkpt lat="47.2255" lon="-1.48905">
        <ele>2.46</ele>
        <time>2020-05-16T12:30:09Z</time>
      </trkpt>
      <trkpt lat="47.22545" lon="-1.48924">
        <ele>3.54</ele>
        <time>2020-05-16T12:30:11Z</time>
      </trkpt>
      <trkpt lat="47.22537" lon="-1.48945">
        <ele>3.24</ele>
        <time>2020-05-16T12:30:13Z</time>
      </trkpt>
      <trkpt lat="47.22531" lon="-1.48963">
        <ele>3.92</ele>
        <time>2020-05-16T12:30:15Z</time>
      </trkpt>
      <trkpt lat="47.22525" lon="-1.4898">
        <ele>3.52</ele>
        <time>2020-05-16T12:30:17Z</time>
      </trkpt>
      <trkpt lat="47.22518" lon="-1.48998">
        <ele>4.12</ele>
        <time>2020-05-16T12:30:19Z</time>
      </trkpt>
      <trkpt lat="47.22512" lon="-1.49016">
        <ele>4.59</ele>
        <time>2020-05-16T12:30:21Z</time>
      </trkpt>
      <trkpt lat="47.22508" lon="-1.49035">
        <ele>3.34</ele>
        <time>2020-05-16T12:30:23Z</time>
      </trkpt>
      <trkpt lat="47.22504" lon="-1.49048">
        <ele>2.96</ele>
        <time>2020-05-16T12:30:25Z</time>
      </trkpt>
      <trkpt lat="47.22501" lon="-1.49063">
        <ele>2.96</ele>
        <time>2020-05-16T12:30:27Z</time>
      </trkpt>
      <trkpt lat="47.22496" lon="-1.49078">
        <ele>3.47</ele>
        <time>2020-05-16T12:30:29Z</time>
      </trkpt>
      <trkpt lat="47.22491" lon="-1.49097">
        <ele>4.53</ele>
        <time>2020-05-16T12:30:31Z</time>
      </trkpt>
      <trkpt lat="47.22485" lon="-1.49119">
        <ele>6.26</ele>
        <time>2020-05-16T12:30:33Z</time>
      </trkpt>
      <trkpt lat="47.22478" lon="-1.49141">
        <ele>7.48</ele>
        <time>2020-05-16T12:30:35Z</time>
      </trkpt>
      <trkpt lat="47.22471" lon="-1.49165">
        <ele>6.13</ele>
        <time>2020-05-16T12:30:37Z</time>
      </trkpt>
      <trkpt lat="47.22466" lon="-1.49178">
        <ele>5.09</ele>
        <time>2020-05-16T12:30:38Z</time>
      </trkpt>
      <trkpt lat="47.22455" lon="-1.492">
        <ele>2.92</ele>
        <time>2020-05-16T12:30:40Z</time>
      </trkpt>
      <trkpt lat="47.22448" lon="-1.49218">
        <ele>1.67</ele>
        <time>2020-05-16T12:30:42Z</time>
      </trkpt>
      <trkpt lat="47.22442" lon="-1.49235">
        <ele>0.69</ele>
        <time>2020-05-16T12:30:44Z</time>
      </trkpt>
      <trkpt lat="47.22435" lon="-1.49252">
        <ele>0.82</ele>
        <time>2020-05-16T12:30:46Z</time>
      </trkpt>
      <trkpt lat="47.22427" lon="-1.49269">
        <ele>1.17</ele>
        <time>2020-05-16T12:30:48Z</time>
      </trkpt>
      <trkpt lat="47.2242" lon="-1.49285">
        <ele>1.74</ele>
        <time>2020-05-16T12:30:50Z</time>
      </trkpt>
      <trkpt lat="47.22413" lon="-1.49302">
        <ele>2.39</ele>
        <time>2020-05-16T12:30:52Z</time>
      </trkpt>
      <trkpt lat="47.22408" lon="-1.49317">
        <ele>2.72</ele>
        <time>2020-05-16T12:30:54Z</time>
      </trkpt>
      <trkpt lat="47.22404" lon="-1.4933">
        <ele>1.73</ele>
        <time>2020-05-16T12:30:56Z</time>
      </trkpt>
      <trkpt lat="47.22399" lon="-1.49347">
        <ele>1.03</ele>
        <time>2020-05-16T12:30:58Z</time>
      </trkpt>
      <trkpt lat="47.22392" lon="-1.4936">
        <ele>1.41</ele>
        <time>2020-05-16T12:31:00Z</time>
      </trkpt>
      <trkpt lat="47.22388" lon="-1.49374">
        <ele>1.59</ele>
        <time>2020-05-16T12:31:02Z</time>
      </trkpt>
      <trkpt lat="47.22382" lon="-1.4939">
        <ele>2.83</ele>
        <time>2020-05-16T12:31:04Z</time>
      </trkpt>
      <trkpt lat="47.22376" lon="-1.49406">
        <ele>3.45</ele>
        <time>2020-05-16T12:31:06Z</time>
      </trkpt>
      <trkpt lat="47.22371" lon="-1.4942">
        <ele>3.85</ele>
        <time>2020-05-16T12:31:08Z</time>
      </trkpt>
      <trkpt lat="47.22365" lon="-1.49438">
        <ele>4</ele>
        <time>2020-05-16T12:31:10Z</time>
      </trkpt>
      <trkpt lat="47.22358" lon="-1.49456">
        <ele>4.7</ele>
        <time>2020-05-16T12:31:13Z</time>
      </trkpt>
      <trkpt lat="47.22352" lon="-1.49474">
        <ele>4.76</ele>
        <time>2020-05-16T12:31:15Z</time>
      </trkpt>
      <trkpt lat="47.22346" lon="-1.49491">
        <ele>5.25</ele>
        <time>2020-05-16T12:31:17Z</time>
      </trkpt>
      <trkpt lat="47.22339" lon="-1.49511">
        <ele>6.11</ele>
        <time>2020-05-16T12:31:19Z</time>
      </trkpt>
      <trkpt lat="47.22335" lon="-1.49523">
        <ele>5.81</ele>
        <time>2020-05-16T12:31:20Z</time>
      </trkpt>
      <trkpt lat="47.22328" lon="-1.49545">
        <ele>4.65</ele>
        <time>2020-05-16T12:31:22Z</time>
      </trkpt>
      <trkpt lat="47.22321" lon="-1.49565">
        <ele>4.15</ele>
        <time>2020-05-16T12:31:24Z</time>
      </trkpt>
      <trkpt lat="47.22314" lon="-1.49583">
        <ele>2.64</ele>
        <time>2020-05-16T12:31:26Z</time>
      </trkpt>
      <trkpt lat="47.22306" lon="-1.49604">
        <ele>1.77</ele>
        <time>2020-05-16T12:31:28Z</time>
      </trkpt>
      <trkpt lat="47.22301" lon="-1.49621">
        <ele>0.49</ele>
        <time>2020-05-16T12:31:30Z</time>
      </trkpt>
      <trkpt lat="47.22296" lon="-1.49637">
        <ele>0.56</ele>
        <time>2020-05-16T12:31:32Z</time>
      </trkpt>
      <trkpt lat="47.22291" lon="-1.49657">
        <ele>1.64</ele>
        <time>2020-05-16T12:31:34Z</time>
      </trkpt>
      <trkpt lat="47.22286" lon="-1.49675">
        <ele>3.11</ele>
        <time>2020-05-16T12:31:36Z</time>
      </trkpt>
      <trkpt lat="47.2228" lon="-1.49694">
        <ele>3.65</ele>
        <time>2020-05-16T12:31:38Z</time>
      </trkpt>
      <trkpt lat="47.22274" lon="-1.49713">
        <ele>2.93</ele>
        <time>2020-05-16T12:31:40Z</time>
      </trkpt>
      <trkpt lat="47.22267" lon="-1.49734">
        <ele>3.06</ele>
        <time>2020-05-16T12:31:42Z</time>
      </trkpt>
      <trkpt lat="47.22262" lon="-1.49751">
        <ele>3.61</ele>
        <time>2020-05-16T12:31:44Z</time>
      </trkpt>
      <trkpt lat="47.22258" lon="-1.4977">
        <ele>3.43</ele>
        <time>2020-05-16T12:31:46Z</time>
      </trkpt>
      <trkpt lat="47.22254" lon="-1.49792">
        <ele>2.54</ele>
        <time>2020-05-16T12:31:48Z</time>
      </trkpt>
      <trkpt lat="47.2225" lon="-1.49813">
        <ele>2.53</ele>
        <time>2020-05-16T12:31:50Z</time>
      </trkpt>
      <trkpt lat="47.22246" lon="-1.49837">
        <ele>3.38</ele>
        <time>2020-05-16T12:31:52Z</time>
      </trkpt>
      <trkpt lat="47.22243" lon="-1.49852">
        <ele>4.32</ele>
        <time>2020-05-16T12:31:54Z</time>
      </trkpt>
      <trkpt lat="47.22239" lon="-1.49869">
        <ele>3.77</ele>
        <time>2020-05-16T12:31:56Z</time>
      </trkpt>
      <trkpt lat="47.22234" lon="-1.49889">
        <ele>4.41</ele>
        <time>2020-05-16T12:31:58Z</time>
      </trkpt>
      <trkpt lat="47.2223" lon="-1.4991">
        <ele>5.51</ele>
        <time>2020-05-16T12:32:00Z</time>
      </trkpt>
      <trkpt lat="47.22226" lon="-1.49928">
        <ele>4.32</ele>
        <time>2020-05-16T12:32:02Z</time>
      </trkpt>
      <trkpt lat="47.2222" lon="-1.4995">
        <ele>4.27</ele>
        <time>2020-05-16T12:32:04Z</time>
      </trkpt>
      <trkpt lat="47.22214" lon="-1.4997">
        <ele>4.29</ele>
        <time>2020-05-16T12:32:06Z</time>
      </trkpt>
      <trkpt lat="47.22209" lon="-1.49989">
        <ele>4.42</ele>
        <time>2020-05-16T12:32:08Z</time>
      </trkpt>
      <trkpt lat="47.22203" lon="-1.50008">
        <ele>5.42</ele>
        <time>2020-05-16T12:32:10Z</time>
      </trkpt>
      <trkpt lat="47.22196" lon="-1.50029">
        <ele>5.87</ele>
        <time>2020-05-16T12:32:12Z</time>
      </trkpt>
      <trkpt lat="47.22191" lon="-1.50049">
        <ele>5.27</ele>
        <time>2020-05-16T12:32:14Z</time>
      </trkpt>
      <trkpt lat="47.22187" lon="-1.5007">
        <ele>3.84</ele>
        <time>2020-05-16T12:32:16Z</time>
      </trkpt>
      <trkpt lat="47.22182" lon="-1.5009">
        <ele>2.76</ele>
        <time>2020-05-16T12:32:18Z</time>
      </trkpt>
      <trkpt lat="47.22178" lon="-1.50108">
        <ele>1.98</ele>
        <time>2020-05-16T12:32:20Z</time>
      </trkpt>
      <trkpt lat="47.22173" lon="-1.50127">
        <ele>1.87</ele>
        <time>2020-05-16T12:32:22Z</time>
      </trkpt>
      <trkpt lat="47.22166" lon="-1.50148">
        <ele>0.89</ele>
        <time>2020-05-16T12:32:24Z</time>
      </trkpt>
      <trkpt lat="47.2216" lon="-1.50165">
        <ele>0.14</ele>
        <time>2020-05-16T12:32:26Z</time>
      </trkpt>
      <trkpt lat="47.22154" lon="-1.50185">
        <ele>-0.28</ele>
        <time>2020-05-16T12:32:28Z</time>
      </trkpt>
      <trkpt lat="47.2215" lon="-1.50203">
        <ele>0.79</ele>
        <time>2020-05-16T12:32:30Z</time>
      </trkpt>
      <trkpt lat="47.22145" lon="-1.50224">
        <ele>0.73</ele>
        <time>2020-05-16T12:32:32Z</time>
      </trkpt>
      <trkpt lat="47.2214" lon="-1.50244">
        <ele>0.1</ele>
        <time>2020-05-16T12:32:34Z</time>
      </trkpt>
      <trkpt lat="47.22135" lon="-1.50262">
        <ele>0.27</ele>
        <time>2020-05-16T12:32:36Z</time>
      </trkpt>
      <trkpt lat="47.22127" lon="-1.50283">
        <ele>-0.01</ele>
        <time>2020-05-16T12:32:38Z</time>
      </trkpt>
      <trkpt lat="47.22117" lon="-1.50302">
        <ele>-0.36</ele>
        <time>2020-05-16T12:32:40Z</time>
      </trkpt>
      <trkpt lat="47.22109" lon="-1.50316">
        <ele>0.94</ele>
        <time>2020-05-16T12:32:42Z</time>
      </trkpt>
      <trkpt lat="47.221" lon="-1.50332">
        <ele>1.43</ele>
        <time>2020-05-16T12:32:44Z</time>
      </trkpt>
      <trkpt lat="47.22092" lon="-1.50348">
        <ele>1.59</ele>
        <time>2020-05-16T12:32:46Z</time>
      </trkpt>
      <trkpt lat="47.22088" lon="-1.50369">
        <ele>1.85</ele>
        <time>2020-05-16T12:32:48Z</time>
      </trkpt>
      <trkpt lat="47.22085" lon="-1.50386">
        <ele>1.55</ele>
        <time>2020-05-16T12:32:50Z</time>
      </trkpt>
      <trkpt lat="47.22081" lon="-1.50405">
        <ele>1.62</ele>
        <time>2020-05-16T12:32:52Z</time>
      </trkpt>
      <trkpt lat="47.22077" lon="-1.50426">
        <ele>3.19</ele>
        <time>2020-05-16T12:32:54Z</time>
      </trkpt>
      <trkpt lat="47.22073" lon="-1.50447">
        <ele>3.58</ele>
        <time>2020-05-16T12:32:56Z</time>
      </trkpt>
      <trkpt lat="47.22069" lon="-1.50469">
        <ele>2.58</ele>
        <time>2020-05-16T12:32:58Z</time>
      </trkpt>
      <trkpt lat="47.22066" lon="-1.50489">
        <ele>0.84</ele>
        <time>2020-05-16T12:33:00Z</time>
      </trkpt>
      <trkpt lat="47.22064" lon="-1.50508">
        <ele>0.15</ele>
        <time>2020-05-16T12:33:02Z</time>
      </trkpt>
      <trkpt lat="47.22063" lon="-1.50529">
        <ele>-0.46</ele>
        <time>2020-05-16T12:33:04Z</time>
      </trkpt>
      <trkpt lat="47.22062" lon="-1.50548">
        <ele>0.2</ele>
        <time>2020-05-16T12:33:06Z</time>
      </trkpt>
      <trkpt lat="47.22062" lon="-1.50566">
        <ele>1.14</ele>
        <time>2020-05-16T12:33:08Z</time>
      </trkpt>
      <trkpt lat="47.22062" lon="-1.50582">
        <ele>1.4</ele>
        <time>2020-05-16T12:33:10Z</time>
      </trkpt>
      <trkpt lat="47.22061" lon="-1.50601">
        <ele>2.05</ele>
        <time>2020-05-16T12:33:12Z</time>
      </trkpt>
      <trkpt lat="47.22061" lon="-1.5062">
        <ele>2.59</ele>
        <time>2020-05-16T12:33:14Z</time>
      </trkpt>
      <trkpt lat="47.22061" lon="-1.5064">
        <ele>2.66</ele>
        <time>2020-05-16T12:33:16Z</time>
      </trkpt>
      <trkpt lat="47.22061" lon="-1.50659">
        <ele>2.16</ele>
        <time>2020-05-16T12:33:18Z</time>
      </trkpt>
      <trkpt lat="47.2206" lon="-1.5068">
        <ele>1.49</ele>
        <time>2020-05-16T12:33:20Z</time>
      </trkpt>
      <trkpt lat="47.22059" lon="-1.50699">
        <ele>1.34</ele>
        <time>2020-05-16T12:33:22Z</time>
      </trkpt>
      <trkpt lat="47.22057" lon="-1.50719">
        <ele>0.94</ele>
        <time>2020-05-16T12:33:24Z</time>
      </trkpt>
      <trkpt lat="47.22056" lon="-1.50737">
        <ele>1.16</ele>
        <time>2020-05-16T12:33:26Z</time>
      </trkpt>
      <trkpt lat="47.22055" lon="-1.50755">
        <ele>2.63</ele>
        <time>2020-05-16T12:33:28Z</time>
      </trkpt>
      <trkpt lat="47.22049" lon="-1.50778">
        <ele>2.83</ele>
        <time>2020-05-16T12:33:30Z</time>
      </trkpt>
      <trkpt lat="47.22042" lon="-1.50799">
        <ele>2.2</ele>
        <time>2020-05-16T12:33:32Z</time>
      </trkpt>
      <trkpt lat="47.22037" lon="-1.50812">
        <ele>1.8</ele>
        <time>2020-05-16T12:33:34Z</time>
      </trkpt>
      <trkpt lat="47.22031" lon="-1.50827">
        <ele>1.8</ele>
        <time>2020-05-16T12:33:36Z</time>
      </trkpt>
      <trkpt lat="47.22025" lon="-1.50844">
        <ele>1.44</ele>
        <time>2020-05-16T12:33:38Z</time>
      </trkpt>
      <trkpt lat="47.22019" lon="-1.50857">
        <ele>1.29</ele>
        <time>2020-05-16T12:33:39Z</time>
      </trkpt>
      <trkpt lat="47.22013" lon="-1.50872">
        <ele>0.33</ele>
        <time>2020-05-16T12:33:40Z</time>
      </trkpt>
      <trkpt lat="47.22005" lon="-1.50893">
        <ele>-0.62</ele>
        <time>2020-05-16T12:33:42Z</time>
      </trkpt>
      <trkpt lat="47.21999" lon="-1.50911">
        <ele>0.05</ele>
        <time>2020-05-16T12:33:44Z</time>
      </trkpt>
      <trkpt lat="47.21992" lon="-1.5093">
        <ele>0.89</ele>
        <time>2020-05-16T12:33:46Z</time>
      </trkpt>
      <trkpt lat="47.21986" lon="-1.50949">
        <ele>2.02</ele>
        <time>2020-05-16T12:33:48Z</time>
      </trkpt>
      <trkpt lat="47.2198" lon="-1.50966">
        <ele>3.04</ele>
        <time>2020-05-16T12:33:50Z</time>
      </trkpt>
      <trkpt lat="47.21974" lon="-1.50983">
        <ele>3.11</ele>
        <time>2020-05-16T12:33:52Z</time>
      </trkpt>
      <trkpt lat="47.21968" lon="-1.51002">
        <ele>3</ele>
        <time>2020-05-16T12:33:54Z</time>
      </trkpt>
      <trkpt lat="47.21963" lon="-1.51021">
        <ele>2.41</ele>
        <time>2020-05-16T12:33:56Z</time>
      </trkpt>
      <trkpt lat="47.21958" lon="-1.51038">
        <ele>1.43</ele>
        <time>2020-05-16T12:33:58Z</time>
      </trkpt>
      <trkpt lat="47.21954" lon="-1.51054">
        <ele>0.59</ele>
        <time>2020-05-16T12:34:00Z</time>
      </trkpt>
      <trkpt lat="47.21947" lon="-1.51071">
        <ele>0.14</ele>
        <time>2020-05-16T12:34:02Z</time>
      </trkpt>
      <trkpt lat="47.2194" lon="-1.5108">
        <ele>2.24</ele>
        <time>2020-05-16T12:34:04Z</time>
      </trkpt>
      <trkpt lat="47.21933" lon="-1.51089">
        <ele>2.69</ele>
        <time>2020-05-16T12:34:06Z</time>
      </trkpt>
      <trkpt lat="47.21927" lon="-1.51105">
        <ele>2.01</ele>
        <time>2020-05-16T12:34:09Z</time>
      </trkpt>
      <trkpt lat="47.21922" lon="-1.5112">
        <ele>1.36</ele>
        <time>2020-05-16T12:34:11Z</time>
      </trkpt>
      <trkpt lat="47.21915" lon="-1.51137">
        <ele>-0.23</ele>
        <time>2020-05-16T12:34:13Z</time>
      </trkpt>
      <trkpt lat="47.2191" lon="-1.51156">
        <ele>-1.48</ele>
        <time>2020-05-16T12:34:15Z</time>
      </trkpt>
      <trkpt lat="47.21904" lon="-1.51175">
        <ele>-0.95</ele>
        <time>2020-05-16T12:34:17Z</time>
      </trkpt>
      <trkpt lat="47.21897" lon="-1.51196">
        <ele>-0.57</ele>
        <time>2020-05-16T12:34:19Z</time>
      </trkpt>
      <trkpt lat="47.2189" lon="-1.51216">
        <ele>-0.06</ele>
        <time>2020-05-16T12:34:21Z</time>
      </trkpt>
      <trkpt lat="47.21884" lon="-1.51233">
        <ele>0.83</ele>
        <time>2020-05-16T12:34:23Z</time>
      </trkpt>
      <trkpt lat="47.21877" lon="-1.51255">
        <ele>2.1</ele>
        <time>2020-05-16T12:34:25Z</time>
      </trkpt>
      <trkpt lat="47.21872" lon="-1.51272">
        <ele>2.27</ele>
        <time>2020-05-16T12:34:27Z</time>
      </trkpt>
      <trkpt lat="47.21866" lon="-1.51291">
        <ele>0.55</ele>
        <time>2020-05-16T12:34:29Z</time>
      </trkpt>
      <trkpt lat="47.21862" lon="-1.51306">
        <ele>0.34</ele>
        <time>2020-05-16T12:34:31Z</time>
      </trkpt>
      <trkpt lat="47.21859" lon="-1.5132">
        <ele>-0.24</ele>
        <time>2020-05-16T12:34:33Z</time>
      </trkpt>
      <trkpt lat="47.21854" lon="-1.51338">
        <ele>-0.09</ele>
        <time>2020-05-16T12:34:35Z</time>
      </trkpt>
      <trkpt lat="47.21849" lon="-1.51358">
        <ele>-0.82</ele>
        <time>2020-05-16T12:34:37Z</time>
      </trkpt>
      <trkpt lat="47.21844" lon="-1.51378">
        <ele>-1.34</ele>
        <time>2020-05-16T12:34:39Z</time>
      </trkpt>
      <trkpt lat="47.2184" lon="-1.51394">
        <ele>-1.51</ele>
        <time>2020-05-16T12:34:41Z</time>
      </trkpt>
      <trkpt lat="47.21836" lon="-1.51412">
        <ele>-1.02</ele>
        <time>2020-05-16T12:34:43Z</time>
      </trkpt>
      <trkpt lat="47.21832" lon="-1.51426">
        <ele>-1.32</ele>
        <time>2020-05-16T12:34:45Z</time>
      </trkpt>
      <trkpt lat="47.21829" lon="-1.51441">
        <ele>-0.92</ele>
        <time>2020-05-16T12:34:47Z</time>
      </trkpt>
      <trkpt lat="47.21824" lon="-1.51459">
        <ele>-0.4</ele>
        <time>2020-05-16T12:34:50Z</time>
      </trkpt>
      <trkpt lat="47.21821" lon="-1.51473">
        <ele>0.1</ele>
        <time>2020-05-16T12:34:52Z</time>
      </trkpt>
      <trkpt lat="47.21817" lon="-1.51491">
        <ele>0.34</ele>
        <time>2020-05-16T12:34:54Z</time>
      </trkpt>
      <trkpt lat="47.21813" lon="-1.51506">
        <ele>0.89</ele>
        <time>2020-05-16T12:34:56Z</time>
      </trkpt>
      <trkpt lat="47.21805" lon="-1.51521">
        <ele>2.45</ele>
        <time>2020-05-16T12:34:58Z</time>
      </trkpt>
      <trkpt lat="47.21799" lon="-1.51539">
        <ele>3.57</ele>
        <time>2020-05-16T12:35:00Z</time>
      </trkpt>
      <trkpt lat="47.21792" lon="-1.51558">
        <ele>3.6</ele>
        <time>2020-05-16T12:35:02Z</time>
      </trkpt>
      <trkpt lat="47.21783" lon="-1.51576">
        <ele>2.95</ele>
        <time>2020-05-16T12:35:04Z</time>
      </trkpt>
      <trkpt lat="47.21775" lon="-1.51592">
        <ele>3.32</ele>
        <time>2020-05-16T12:35:06Z</time>
      </trkpt>
      <trkpt lat="47.21767" lon="-1.51605">
        <ele>3.44</ele>
        <time>2020-05-16T12:35:08Z</time>
      </trkpt>
      <trkpt lat="47.21758" lon="-1.51616">
        <ele>3.43</ele>
        <time>2020-05-16T12:35:10Z</time>
      </trkpt>
      <trkpt lat="47.21749" lon="-1.51631">
        <ele>2.75</ele>
        <time>2020-05-16T12:35:12Z</time>
      </trkpt>
      <trkpt lat="47.21741" lon="-1.51645">
        <ele>1.36</ele>
        <time>2020-05-16T12:35:14Z</time>
      </trkpt>
      <trkpt lat="47.21734" lon="-1.5166">
        <ele>0.81</ele>
        <time>2020-05-16T12:35:16Z</time>
      </trkpt>
      <trkpt lat="47.21727" lon="-1.51676">
        <ele>0.44</ele>
        <time>2020-05-16T12:35:18Z</time>
      </trkpt>
      <trkpt lat="47.2172" lon="-1.5169">
        <ele>0.03</ele>
        <time>2020-05-16T12:35:20Z</time>
      </trkpt>
      <trkpt lat="47.21712" lon="-1.51709">
        <ele>0.77</ele>
        <time>2020-05-16T12:35:23Z</time>
      </trkpt>
      <trkpt lat="47.21705" lon="-1.51724">
        <ele>2.28</ele>
        <time>2020-05-16T12:35:25Z</time>
      </trkpt>
      <trkpt lat="47.21697" lon="-1.51741">
        <ele>3.48</ele>
        <time>2020-05-16T12:35:27Z</time>
      </trkpt>
      <trkpt lat="47.21689" lon="-1.51759">
        <ele>4.34</ele>
        <time>2020-05-16T12:35:29Z</time>
      </trkpt>
      <trkpt lat="47.21683" lon="-1.51776">
        <ele>3.84</ele>
        <time>2020-05-16T12:35:31Z</time>
      </trkpt>
      <trkpt lat="47.21676" lon="-1.5179">
        <ele>3.98</ele>
        <time>2020-05-16T12:35:33Z</time>
      </trkpt>
      <trkpt lat="47.21669" lon="-1.51809">
        <ele>3.67</ele>
        <time>2020-05-16T12:35:35Z</time>
      </trkpt>
      <trkpt lat="47.21663" lon="-1.51825">
        <ele>3.43</ele>
        <time>2020-05-16T12:35:37Z</time>
      </trkpt>
      <trkpt lat="47.21657" lon="-1.51841">
        <ele>2.91</ele>
        <time>2020-05-16T12:35:39Z</time>
      </trkpt>
      <trkpt lat="47.21652" lon="-1.51859">
        <ele>2.76</ele>
        <time>2020-05-16T12:35:41Z</time>
      </trkpt>
      <trkpt lat="47.21648" lon="-1.51879">
        <ele>3.46</ele>
        <time>2020-05-16T12:35:43Z</time>
      </trkpt>
      <trkpt lat="47.21642" lon="-1.51899">
        <ele>3.3</ele>
        <time>2020-05-16T12:35:45Z</time>
      </trkpt>
      <trkpt lat="47.21634" lon="-1.51915">
        <ele>2.63</ele>
        <time>2020-05-16T12:35:47Z</time>
      </trkpt>
      <trkpt lat="47.2163" lon="-1.51931">
        <ele>2.21</ele>
        <time>2020-05-16T12:35:49Z</time>
      </trkpt>
      <trkpt lat="47.21625" lon="-1.51946">
        <ele>1.82</ele>
        <time>2020-05-16T12:35:51Z</time>
      </trkpt>
      <trkpt lat="47.21622" lon="-1.51964">
        <ele>1.42</ele>
        <time>2020-05-16T12:35:53Z</time>
      </trkpt>
      <trkpt lat="47.21613" lon="-1.51981">
        <ele>0.77</ele>
        <time>2020-05-16T12:35:55Z</time>
      </trkpt>
      <trkpt lat="47.21608" lon="-1.51993">
        <ele>-0.18</ele>
        <time>2020-05-16T12:35:57Z</time>
      </trkpt>
      <trkpt lat="47.21603" lon="-1.52008">
        <ele>0.37</ele>
        <time>2020-05-16T12:35:59Z</time>
      </trkpt>
      <trkpt lat="47.21598" lon="-1.52025">
        <ele>1.29</ele>
        <time>2020-05-16T12:36:01Z</time>
      </trkpt>
      <trkpt lat="47.21591" lon="-1.52046">
        <ele>1.59</ele>
        <time>2020-05-16T12:36:03Z</time>
      </trkpt>
      <trkpt lat="47.21585" lon="-1.52062">
        <ele>2.48</ele>
        <time>2020-05-16T12:36:05Z</time>
      </trkpt>
      <trkpt lat="47.2158" lon="-1.5208">
        <ele>3.77</ele>
        <time>2020-05-16T12:36:07Z</time>
      </trkpt>
      <trkpt lat="47.21574" lon="-1.52096">
        <ele>4</ele>
        <time>2020-05-16T12:36:09Z</time>
      </trkpt>
      <trkpt lat="47.21568" lon="-1.52115">
        <ele>4.25</ele>
        <time>2020-05-16T12:36:11Z</time>
      </trkpt>
      <trkpt lat="47.21562" lon="-1.52134">
        <ele>3.51</ele>
        <time>2020-05-16T12:36:13Z</time>
      </trkpt>
      <trkpt lat="47.21557" lon="-1.5215">
        <ele>1.72</ele>
        <time>2020-05-16T12:36:15Z</time>
      </trkpt>
      <trkpt lat="47.21551" lon="-1.52165">
        <ele>1.36</ele>
        <time>2020-05-16T12:36:17Z</time>
      </trkpt>
      <trkpt lat="47.21545" lon="-1.52186">
        <ele>1.37</ele>
        <time>2020-05-16T12:36:19Z</time>
      </trkpt>
      <trkpt lat="47.21538" lon="-1.52204">
        <ele>0.78</ele>
        <time>2020-05-16T12:36:21Z</time>
      </trkpt>
      <trkpt lat="47.21534" lon="-1.52218">
        <ele>0.86</ele>
        <time>2020-05-16T12:36:23Z</time>
      </trkpt>
      <trkpt lat="47.21529" lon="-1.52234">
        <ele>1.76</ele>
        <time>2020-05-16T12:36:25Z</time>
      </trkpt>
      <trkpt lat="47.21523" lon="-1.52251">
        <ele>1.63</ele>
        <time>2020-05-16T12:36:27Z</time>
      </trkpt>
      <trkpt lat="47.21518" lon="-1.52265">
        <ele>1.9</ele>
        <time>2020-05-16T12:36:29Z</time>
      </trkpt>
      <trkpt lat="47.21514" lon="-1.52281">
        <ele>3.09</ele>
        <time>2020-05-16T12:36:31Z</time>
      </trkpt>
      <trkpt lat="47.21509" lon="-1.52299">
        <ele>3.69</ele>
        <time>2020-05-16T12:36:33Z</time>
      </trkpt>
      <trkpt lat="47.21503" lon="-1.52317">
        <ele>4.45</ele>
        <time>2020-05-16T12:36:35Z</time>
      </trkpt>
      <trkpt lat="47.21497" lon="-1.52337">
        <ele>3.29</ele>
        <time>2020-05-16T12:36:37Z</time>
      </trkpt>
      <trkpt lat="47.21492" lon="-1.52353">
        <ele>1.8</ele>
        <time>2020-05-16T12:36:39Z</time>
      </trkpt>
      <trkpt lat="47.21487" lon="-1.52368">
        <ele>0.95</ele>
        <time>2020-05-16T12:36:41Z</time>
      </trkpt>
      <trkpt lat="47.21482" lon="-1.52387">
        <ele>0.83</ele>
        <time>2020-05-16T12:36:43Z</time>
      </trkpt>
      <trkpt lat="47.21476" lon="-1.52406">
        <ele>1.51</ele>
        <time>2020-05-16T12:36:45Z</time>
      </trkpt>
      <trkpt lat="47.2147" lon="-1.52423">
        <ele>2.28</ele>
        <time>2020-05-16T12:36:47Z</time>
      </trkpt>
      <trkpt lat="47.21464" lon="-1.5244">
        <ele>2.57</ele>
        <time>2020-05-16T12:36:49Z</time>
      </trkpt>
      <trkpt lat="47.21458" lon="-1.52457">
        <ele>2.13</ele>
        <time>2020-05-16T12:36:51Z</time>
      </trkpt>
      <trkpt lat="47.21452" lon="-1.52474">
        <ele>1.08</ele>
        <time>2020-05-16T12:36:53Z</time>
      </trkpt>
      <trkpt lat="47.21447" lon="-1.52491">
        <ele>1.18</ele>
        <time>2020-05-16T12:36:55Z</time>
      </trkpt>
      <trkpt lat="47.2144" lon="-1.52511">
        <ele>1.92</ele>
        <time>2020-05-16T12:36:57Z</time>
      </trkpt>
      <trkpt lat="47.21434" lon="-1.52529">
        <ele>2.08</ele>
        <time>2020-05-16T12:36:59Z</time>
      </trkpt>
      <trkpt lat="47.21428" lon="-1.52548">
        <ele>1.67</ele>
        <time>2020-05-16T12:37:01Z</time>
      </trkpt>
      <trkpt lat="47.21423" lon="-1.52565">
        <ele>1.49</ele>
        <time>2020-05-16T12:37:03Z</time>
      </trkpt>
      <trkpt lat="47.21417" lon="-1.52583">
        <ele>1.87</ele>
        <time>2020-05-16T12:37:05Z</time>
      </trkpt>
      <trkpt lat="47.21413" lon="-1.52597">
        <ele>1.68</ele>
        <time>2020-05-16T12:37:07Z</time>
      </trkpt>
      <trkpt lat="47.21408" lon="-1.52614">
        <ele>0.58</ele>
        <time>2020-05-16T12:37:09Z</time>
      </trkpt>
      <trkpt lat="47.21402" lon="-1.52632">
        <ele>-0.03</ele>
        <time>2020-05-16T12:37:11Z</time>
      </trkpt>
      <trkpt lat="47.21396" lon="-1.5265">
        <ele>0.71</ele>
        <time>2020-05-16T12:37:13Z</time>
      </trkpt>
      <trkpt lat="47.2139" lon="-1.52666">
        <ele>0.41</ele>
        <time>2020-05-16T12:37:15Z</time>
      </trkpt>
      <trkpt lat="47.21387" lon="-1.52683">
        <ele>0.8</ele>
        <time>2020-05-16T12:37:17Z</time>
      </trkpt>
      <trkpt lat="47.21383" lon="-1.527">
        <ele>1.32</ele>
        <time>2020-05-16T12:37:19Z</time>
      </trkpt>
      <trkpt lat="47.2138" lon="-1.52716">
        <ele>1.82</ele>
        <time>2020-05-16T12:37:21Z</time>
      </trkpt>
      <trkpt lat="47.21376" lon="-1.52735">
        <ele>3.15</ele>
        <time>2020-05-16T12:37:23Z</time>
      </trkpt>
      <trkpt lat="47.21372" lon="-1.52755">
        <ele>3.54</ele>
        <time>2020-05-16T12:37:25Z</time>
      </trkpt>
      <trkpt lat="47.21368" lon="-1.52777">
        <ele>2.86</ele>
        <time>2020-05-16T12:37:27Z</time>
      </trkpt>
      <trkpt lat="47.21365" lon="-1.52794">
        <ele>1.95</ele>
        <time>2020-05-16T12:37:29Z</time>
      </trkpt>
      <trkpt lat="47.21363" lon="-1.52814">
        <ele>1.6</ele>
        <time>2020-05-16T12:37:31Z</time>
      </trkpt>
      <trkpt lat="47.21362" lon="-1.52832">
        <ele>3.16</ele>
        <time>2020-05-16T12:37:33Z</time>
      </trkpt>
      <trkpt lat="47.2136" lon="-1.52846">
        <ele>4.68</ele>
        <time>2020-05-16T12:37:35Z</time>
      </trkpt>
      <trkpt lat="47.2136" lon="-1.52866">
        <ele>4.85</ele>
        <time>2020-05-16T12:37:37Z</time>
      </trkpt>
      <trkpt lat="47.21359" lon="-1.52882">
        <ele>6.47</ele>
        <time>2020-05-16T12:37:39Z</time>
      </trkpt>
      <trkpt lat="47.21359" lon="-1.52895">
        <ele>7.52</ele>
        <time>2020-05-16T12:37:41Z</time>
      </trkpt>
      <trkpt lat="47.21359" lon="-1.52911">
        <ele>7.61</ele>
        <time>2020-05-16T12:37:43Z</time>
      </trkpt>
      <trkpt lat="47.21358" lon="-1.52925">
        <ele>6.84</ele>
        <time>2020-05-16T12:37:45Z</time>
      </trkpt>
      <trkpt lat="47.21353" lon="-1.52939">
        <ele>7.91</ele>
        <time>2020-05-16T12:37:48Z</time>
      </trkpt>
      <trkpt lat="47.2135" lon="-1.52955">
        <ele>8.03</ele>
        <time>2020-05-16T12:37:51Z</time>
      </trkpt>
      <trkpt lat="47.21337" lon="-1.52961">
        <ele>7.69</ele>
        <time>2020-05-16T12:37:54Z</time>
      </trkpt>
      <trkpt lat="47.21322" lon="-1.52958">
        <ele>6.56</ele>
        <time>2020-05-16T12:37:56Z</time>
      </trkpt>
      <trkpt lat="47.2131" lon="-1.52954">
        <ele>6.2</ele>
        <time>2020-05-16T12:37:58Z</time>
      </trkpt>
      <trkpt lat="47.21297" lon="-1.52949">
        <ele>7.01</ele>
        <time>2020-05-16T12:38:00Z</time>
      </trkpt>
      <trkpt lat="47.21283" lon="-1.52944">
        <ele>6.7</ele>
        <time>2020-05-16T12:38:02Z</time>
      </trkpt>
      <trkpt lat="47.2127" lon="-1.5294">
        <ele>7.06</ele>
        <time>2020-05-16T12:38:04Z</time>
      </trkpt>
      <trkpt lat="47.21258" lon="-1.52938">
        <ele>7.72</ele>
        <time>2020-05-16T12:38:06Z</time>
      </trkpt>
      <trkpt lat="47.21246" lon="-1.52934">
        <ele>7.62</ele>
        <time>2020-05-16T12:38:08Z</time>
      </trkpt>
      <trkpt lat="47.21234" lon="-1.52931">
        <ele>7.1</ele>
        <time>2020-05-16T12:38:10Z</time>
      </trkpt>
      <trkpt lat="47.21223" lon="-1.52927">
        <ele>6.95</ele>
        <time>2020-05-16T12:38:12Z</time>
      </trkpt>
      <trkpt lat="47.21209" lon="-1.52922">
        <ele>7.55</ele>
        <time>2020-05-16T12:38:14Z</time>
      </trkpt>
      <trkpt lat="47.21196" lon="-1.52918">
        <ele>7.91</ele>
        <time>2020-05-16T12:38:16Z</time>
      </trkpt>
      <trkpt lat="47.21182" lon="-1.52915">
        <ele>8.22</ele>
        <time>2020-05-16T12:38:18Z</time>
      </trkpt>
      <trkpt lat="47.21166" lon="-1.52911">
        <ele>7.61</ele>
        <time>2020-05-16T12:38:20Z</time>
      </trkpt>
      <trkpt lat="47.21153" lon="-1.52907">
        <ele>6.33</ele>
        <time>2020-05-16T12:38:22Z</time>
      </trkpt>
      <trkpt lat="47.21136" lon="-1.52903">
        <ele>5.77</ele>
        <time>2020-05-16T12:38:24Z</time>
      </trkpt>
      <trkpt lat="47.21123" lon="-1.529">
        <ele>6.01</ele>
        <time>2020-05-16T12:38:26Z</time>
      </trkpt>
      <trkpt lat="47.21108" lon="-1.52892">
        <ele>6.7</ele>
        <time>2020-05-16T12:38:28Z</time>
      </trkpt>
      <trkpt lat="47.21098" lon="-1.52879">
        <ele>9.47</ele>
        <time>2020-05-16T12:38:30Z</time>
      </trkpt>
      <trkpt lat="47.21087" lon="-1.52865">
        <ele>11.99</ele>
        <time>2020-05-16T12:38:32Z</time>
      </trkpt>
      <trkpt lat="47.21076" lon="-1.52851">
        <ele>14.22</ele>
        <time>2020-05-16T12:38:34Z</time>
      </trkpt>
      <trkpt lat="47.21066" lon="-1.52834">
        <ele>15.23</ele>
        <time>2020-05-16T12:38:36Z</time>
      </trkpt>
      <trkpt lat="47.21057" lon="-1.52822">
        <ele>15.73</ele>
        <time>2020-05-16T12:38:38Z</time>
      </trkpt>
      <trkpt lat="47.21047" lon="-1.52811">
        <ele>16.31</ele>
        <time>2020-05-16T12:38:40Z</time>
      </trkpt>
      <trkpt lat="47.21036" lon="-1.52798">
        <ele>15.2</ele>
        <time>2020-05-16T12:38:42Z</time>
      </trkpt>
      <trkpt lat="47.21025" lon="-1.52787">
        <ele>14.18</ele>
        <time>2020-05-16T12:38:44Z</time>
      </trkpt>
      <trkpt lat="47.21016" lon="-1.52774">
        <ele>13.14</ele>
        <time>2020-05-16T12:38:46Z</time>
      </trkpt>
      <trkpt lat="47.21005" lon="-1.5276">
        <ele>12.47</ele>
        <time>2020-05-16T12:38:48Z</time>
      </trkpt>
      <trkpt lat="47.20996" lon="-1.5275">
        <ele>12.38</ele>
        <time>2020-05-16T12:38:50Z</time>
      </trkpt>
      <trkpt lat="47.20987" lon="-1.52741">
        <ele>12.25</ele>
        <time>2020-05-16T12:38:52Z</time>
      </trkpt>
      <trkpt lat="47.20976" lon="-1.52743">
        <ele>11.77</ele>
        <time>2020-05-16T12:38:55Z</time>
      </trkpt>
      <trkpt lat="47.20968" lon="-1.52758">
        <ele>11.39</ele>
        <time>2020-05-16T12:38:58Z</time>
      </trkpt>
      <trkpt lat="47.2096" lon="-1.5277">
        <ele>10.89</ele>
        <time>2020-05-16T12:39:00Z</time>
      </trkpt>
      <trkpt lat="47.20952" lon="-1.52785">
        <ele>10.97</ele>
        <time>2020-05-16T12:39:02Z</time>
      </trkpt>
      <trkpt lat="47.20943" lon="-1.52797">
        <ele>13.22</ele>
        <time>2020-05-16T12:39:05Z</time>
      </trkpt>
      <trkpt lat="47.20932" lon="-1.52792">
        <ele>13.6</ele>
        <time>2020-05-16T12:39:08Z</time>
      </trkpt>
      <trkpt lat="47.20924" lon="-1.52785">
        <ele>14.1</ele>
        <time>2020-05-16T12:39:12Z</time>
      </trkpt>
      <trkpt lat="47.20911" lon="-1.52778">
        <ele>15.65</ele>
        <time>2020-05-16T12:39:15Z</time>
      </trkpt>
      <trkpt lat="47.20896" lon="-1.52772">
        <ele>16.68</ele>
        <time>2020-05-16T12:39:17Z</time>
      </trkpt>
      <trkpt lat="47.20883" lon="-1.52767">
        <ele>17.24</ele>
        <time>2020-05-16T12:39:19Z</time>
      </trkpt>
      <trkpt lat="47.20869" lon="-1.52761">
        <ele>16.44</ele>
        <time>2020-05-16T12:39:21Z</time>
      </trkpt>
      <trkpt lat="47.20862" lon="-1.52749">
        <ele>14.46</ele>
        <time>2020-05-16T12:39:23Z</time>
      </trkpt>
      <trkpt lat="47.20853" lon="-1.52736">
        <ele>12.5</ele>
        <time>2020-05-16T12:39:25Z</time>
      </trkpt>
      <trkpt lat="47.20844" lon="-1.52728">
        <ele>10.14</ele>
        <time>2020-05-16T12:39:27Z</time>
      </trkpt>
      <trkpt lat="47.20833" lon="-1.52722">
        <ele>8.16</ele>
        <time>2020-05-16T12:39:29Z</time>
      </trkpt>
      <trkpt lat="47.20819" lon="-1.52715">
        <ele>8.11</ele>
        <time>2020-05-16T12:39:31Z</time>
      </trkpt>
      <trkpt lat="47.20805" lon="-1.52707">
        <ele>8.96</ele>
        <time>2020-05-16T12:39:33Z</time>
      </trkpt>
      <trkpt lat="47.20795" lon="-1.527">
        <ele>9.81</ele>
        <time>2020-05-16T12:39:35Z</time>
      </trkpt>
      <trkpt lat="47.20783" lon="-1.52695">
        <ele>10.37</ele>
        <time>2020-05-16T12:39:37Z</time>
      </trkpt>
      <trkpt lat="47.20771" lon="-1.52689">
        <ele>11.7</ele>
        <time>2020-05-16T12:39:39Z</time>
      </trkpt>
      <trkpt lat="47.20758" lon="-1.52683">
        <ele>11.98</ele>
        <time>2020-05-16T12:39:41Z</time>
      </trkpt>
      <trkpt lat="47.20745" lon="-1.52676">
        <ele>12.35</ele>
        <time>2020-05-16T12:39:43Z</time>
      </trkpt>
      <trkpt lat="47.20731" lon="-1.52671">
        <ele>12.77</ele>
        <time>2020-05-16T12:39:45Z</time>
      </trkpt>
      <trkpt lat="47.2072" lon="-1.52668">
        <ele>12.53</ele>
        <time>2020-05-16T12:39:47Z</time>
      </trkpt>
      <trkpt lat="47.20709" lon="-1.52663">
        <ele>11.35</ele>
        <time>2020-05-16T12:39:49Z</time>
      </trkpt>
      <trkpt lat="47.20698" lon="-1.52669">
        <ele>9.3</ele>
        <time>2020-05-16T12:39:52Z</time>
      </trkpt>
      <trkpt lat="47.2069" lon="-1.52682">
        <ele>8.56</ele>
        <time>2020-05-16T12:39:55Z</time>
      </trkpt>
      <trkpt lat="47.20682" lon="-1.52692">
        <ele>7.44</ele>
        <time>2020-05-16T12:39:59Z</time>
      </trkpt>
      <trkpt lat="47.20676" lon="-1.52681">
        <ele>7.21</ele>
        <time>2020-05-16T12:40:01Z</time>
      </trkpt>
      <trkpt lat="47.20669" lon="-1.5267">
        <ele>6.91</ele>
        <time>2020-05-16T12:40:03Z</time>
      </trkpt>
      <trkpt lat="47.20657" lon="-1.52654">
        <ele>5.69</ele>
        <time>2020-05-16T12:40:05Z</time>
      </trkpt>
      <trkpt lat="47.2065" lon="-1.52641">
        <ele>4.72</ele>
        <time>2020-05-16T12:40:07Z</time>
      </trkpt>
      <trkpt lat="47.2064" lon="-1.52625">
        <ele>4.61</ele>
        <time>2020-05-16T12:40:10Z</time>
      </trkpt>
      <trkpt lat="47.20633" lon="-1.5261">
        <ele>4.82</ele>
        <time>2020-05-16T12:43:01Z</time>
      </trkpt>
      <trkpt lat="47.20625" lon="-1.52597">
        <ele>4.96</ele>
        <time>2020-05-16T12:43:05Z</time>
      </trkpt>
      <trkpt lat="47.20617" lon="-1.52584">
        <ele>6.21</ele>
        <time>2020-05-16T12:43:08Z</time>
      </trkpt>
      <trkpt lat="47.20608" lon="-1.52571">
        <ele>6.24</ele>
        <time>2020-05-16T12:43:10Z</time>
      </trkpt>
      <trkpt lat="47.20601" lon="-1.52561">
        <ele>8.26</ele>
        <time>2020-05-16T12:43:12Z</time>
      </trkpt>
      <trkpt lat="47.20594" lon="-1.52549">
        <ele>10.08</ele>
        <time>2020-05-16T12:43:14Z</time>
      </trkpt>
      <trkpt lat="47.20586" lon="-1.52535">
        <ele>12.11</ele>
        <time>2020-05-16T12:43:16Z</time>
      </trkpt>
      <trkpt lat="47.20577" lon="-1.5252">
        <ele>12</ele>
        <time>2020-05-16T12:43:18Z</time>
      </trkpt>
      <trkpt lat="47.20569" lon="-1.52505">
        <ele>11.26</ele>
        <time>2020-05-16T12:43:20Z</time>
      </trkpt>
      <trkpt lat="47.2056" lon="-1.52492">
        <ele>10.99</ele>
        <time>2020-05-16T12:43:22Z</time>
      </trkpt>
      <trkpt lat="47.20553" lon="-1.52479">
        <ele>11.47</ele>
        <time>2020-05-16T12:43:24Z</time>
      </trkpt>
      <trkpt lat="47.20546" lon="-1.52467">
        <ele>12.31</ele>
        <time>2020-05-16T12:43:26Z</time>
      </trkpt>
      <trkpt lat="47.20539" lon="-1.52455">
        <ele>13.41</ele>
        <time>2020-05-16T12:43:28Z</time>
      </trkpt>
      <trkpt lat="47.2053" lon="-1.52442">
        <ele>14.54</ele>
        <time>2020-05-16T12:43:30Z</time>
      </trkpt>
      <trkpt lat="47.20522" lon="-1.5243">
        <ele>14.6</ele>
        <time>2020-05-16T12:43:32Z</time>
      </trkpt>
      <trkpt lat="47.20511" lon="-1.52414">
        <ele>11.69</ele>
        <time>2020-05-16T12:43:34Z</time>
      </trkpt>
      <trkpt lat="47.20502" lon="-1.52398">
        <ele>8.9</ele>
        <time>2020-05-16T12:43:36Z</time>
      </trkpt>
      <trkpt lat="47.20494" lon="-1.52385">
        <ele>6.35</ele>
        <time>2020-05-16T12:43:38Z</time>
      </trkpt>
      <trkpt lat="47.20487" lon="-1.52375">
        <ele>4.84</ele>
        <time>2020-05-16T12:43:40Z</time>
      </trkpt>
      <trkpt lat="47.20484" lon="-1.52357">
        <ele>4.21</ele>
        <time>2020-05-16T12:43:42Z</time>
      </trkpt>
      <trkpt lat="47.20492" lon="-1.52338">
        <ele>3.95</ele>
        <time>2020-05-16T12:43:44Z</time>
      </trkpt>
      <trkpt lat="47.205" lon="-1.52322">
        <ele>3.61</ele>
        <time>2020-05-16T12:43:46Z</time>
      </trkpt>
      <trkpt lat="47.20503" lon="-1.52303">
        <ele>3.6</ele>
        <time>2020-05-16T12:43:48Z</time>
      </trkpt>
      <trkpt lat="47.205" lon="-1.52283">
        <ele>3.66</ele>
        <time>2020-05-16T12:43:50Z</time>
      </trkpt>
      <trkpt lat="47.20492" lon="-1.52265">
        <ele>3.9</ele>
        <time>2020-05-16T12:43:52Z</time>
      </trkpt>
      <trkpt lat="47.20481" lon="-1.52251">
        <ele>5.23</ele>
        <time>2020-05-16T12:43:54Z</time>
      </trkpt>
      <trkpt lat="47.2047" lon="-1.52236">
        <ele>6.35</ele>
        <time>2020-05-16T12:43:56Z</time>
      </trkpt>
      <trkpt lat="47.20464" lon="-1.52222">
        <ele>7.06</ele>
        <time>2020-05-16T12:43:58Z</time>
      </trkpt>
      <trkpt lat="47.20461" lon="-1.52205">
        <ele>7.6</ele>
        <time>2020-05-16T12:44:00Z</time>
      </trkpt>
      <trkpt lat="47.20453" lon="-1.5219">
        <ele>8.28</ele>
        <time>2020-05-16T12:44:02Z</time>
      </trkpt>
      <trkpt lat="47.20447" lon="-1.52178">
        <ele>8.56</ele>
        <time>2020-05-16T12:44:04Z</time>
      </trkpt>
      <trkpt lat="47.2044" lon="-1.52167">
        <ele>9.31</ele>
        <time>2020-05-16T12:44:06Z</time>
      </trkpt>
      <trkpt lat="47.20432" lon="-1.52154">
        <ele>10.45</ele>
        <time>2020-05-16T12:44:08Z</time>
      </trkpt>
      <trkpt lat="47.20424" lon="-1.52141">
        <ele>10.74</ele>
        <time>2020-05-16T12:44:10Z</time>
      </trkpt>
      <trkpt lat="47.20417" lon="-1.5213">
        <ele>11.56</ele>
        <time>2020-05-16T12:44:12Z</time>
      </trkpt>
      <trkpt lat="47.20408" lon="-1.52118">
        <ele>12.45</ele>
        <time>2020-05-16T12:44:14Z</time>
      </trkpt>
      <trkpt lat="47.20399" lon="-1.52108">
        <ele>12.97</ele>
        <time>2020-05-16T12:44:16Z</time>
      </trkpt>
      <trkpt lat="47.2039" lon="-1.52098">
        <ele>14.28</ele>
        <time>2020-05-16T12:44:18Z</time>
      </trkpt>
      <trkpt lat="47.20382" lon="-1.52088">
        <ele>14.97</ele>
        <time>2020-05-16T12:44:20Z</time>
      </trkpt>
      <trkpt lat="47.20374" lon="-1.52077">
        <ele>16.28</ele>
        <time>2020-05-16T12:44:22Z</time>
      </trkpt>
      <trkpt lat="47.20365" lon="-1.52072">
        <ele>17.47</ele>
        <time>2020-05-16T12:44:24Z</time>
      </trkpt>
      <trkpt lat="47.20356" lon="-1.52061">
        <ele>18.34</ele>
        <time>2020-05-16T12:44:26Z</time>
      </trkpt>
      <trkpt lat="47.20346" lon="-1.52047">
        <ele>18.53</ele>
        <time>2020-05-16T12:44:28Z</time>
      </trkpt>
      <trkpt lat="47.20337" lon="-1.52034">
        <ele>19.06</ele>
        <time>2020-05-16T12:44:30Z</time>
      </trkpt>
      <trkpt lat="47.20328" lon="-1.52022">
        <ele>19.15</ele>
        <time>2020-05-16T12:44:32Z</time>
      </trkpt>
      <trkpt lat="47.20318" lon="-1.52011">
        <ele>18.26</ele>
        <time>2020-05-16T12:44:34Z</time>
      </trkpt>
      <trkpt lat="47.20308" lon="-1.52001">
        <ele>17.95</ele>
        <time>2020-05-16T12:44:36Z</time>
      </trkpt>
      <trkpt lat="47.20298" lon="-1.5199">
        <ele>17.03</ele>
        <time>2020-05-16T12:44:38Z</time>
      </trkpt>
      <trkpt lat="47.20288" lon="-1.51979">
        <ele>16.51</ele>
        <time>2020-05-16T12:44:40Z</time>
      </trkpt>
      <trkpt lat="47.20279" lon="-1.51969">
        <ele>16.27</ele>
        <time>2020-05-16T12:44:42Z</time>
      </trkpt>
      <trkpt lat="47.20268" lon="-1.51958">
        <ele>16.73</ele>
        <time>2020-05-16T12:44:44Z</time>
      </trkpt>
      <trkpt lat="47.20259" lon="-1.51948">
        <ele>17.21</ele>
        <time>2020-05-16T12:44:46Z</time>
      </trkpt>
      <trkpt lat="47.2025" lon="-1.51939">
        <ele>17.77</ele>
        <time>2020-05-16T12:44:48Z</time>
      </trkpt>
      <trkpt lat="47.2024" lon="-1.51929">
        <ele>18.51</ele>
        <time>2020-05-16T12:44:50Z</time>
      </trkpt>
      <trkpt lat="47.2023" lon="-1.51919">
        <ele>19.41</ele>
        <time>2020-05-16T12:44:52Z</time>
      </trkpt>
      <trkpt lat="47.20221" lon="-1.51909">
        <ele>19.81</ele>
        <time>2020-05-16T12:44:54Z</time>
      </trkpt>
      <trkpt lat="47.20213" lon="-1.51898">
        <ele>19.99</ele>
        <time>2020-05-16T12:44:56Z</time>
      </trkpt>
      <trkpt lat="47.20206" lon="-1.51884">
        <ele>20.1</ele>
        <time>2020-05-16T12:44:58Z</time>
      </trkpt>
      <trkpt lat="47.20198" lon="-1.5187">
        <ele>20.85</ele>
        <time>2020-05-16T12:45:00Z</time>
      </trkpt>
      <trkpt lat="47.20192" lon="-1.51856">
        <ele>22.03</ele>
        <time>2020-05-16T12:45:02Z</time>
      </trkpt>
      <trkpt lat="47.20184" lon="-1.51842">
        <ele>22.86</ele>
        <time>2020-05-16T12:45:04Z</time>
      </trkpt>
      <trkpt lat="47.20177" lon="-1.51828">
        <ele>23.66</ele>
        <time>2020-05-16T12:45:06Z</time>
      </trkpt>
      <trkpt lat="47.2017" lon="-1.51815">
        <ele>23.76</ele>
        <time>2020-05-16T12:45:08Z</time>
      </trkpt>
      <trkpt lat="47.20162" lon="-1.51798">
        <ele>23.73</ele>
        <time>2020-05-16T12:45:10Z</time>
      </trkpt>
      <trkpt lat="47.20156" lon="-1.51785">
        <ele>23.49</ele>
        <time>2020-05-16T12:45:12Z</time>
      </trkpt>
      <trkpt lat="47.20149" lon="-1.51773">
        <ele>22.48</ele>
        <time>2020-05-16T12:45:14Z</time>
      </trkpt>
      <trkpt lat="47.2014" lon="-1.51758">
        <ele>22.36</ele>
        <time>2020-05-16T12:45:16Z</time>
      </trkpt>
      <trkpt lat="47.2013" lon="-1.51745">
        <ele>22.12</ele>
        <time>2020-05-16T12:45:18Z</time>
      </trkpt>
      <trkpt lat="47.20121" lon="-1.51736">
        <ele>21.74</ele>
        <time>2020-05-16T12:45:20Z</time>
      </trkpt>
      <trkpt lat="47.20114" lon="-1.51727">
        <ele>21.47</ele>
        <time>2020-05-16T12:45:22Z</time>
      </trkpt>
      <trkpt lat="47.20106" lon="-1.51717">
        <ele>21.99</ele>
        <time>2020-05-16T12:45:24Z</time>
      </trkpt>
      <trkpt lat="47.20097" lon="-1.51706">
        <ele>20.91</ele>
        <time>2020-05-16T12:45:26Z</time>
      </trkpt>
      <trkpt lat="47.20089" lon="-1.51697">
        <ele>20.09</ele>
        <time>2020-05-16T12:45:28Z</time>
      </trkpt>
      <trkpt lat="47.20081" lon="-1.5168">
        <ele>18.02</ele>
        <time>2020-05-16T12:45:31Z</time>
      </trkpt>
      <trkpt lat="47.20076" lon="-1.51666">
        <ele>17.29</ele>
        <time>2020-05-16T12:45:33Z</time>
      </trkpt>
      <trkpt lat="47.20069" lon="-1.51648">
        <ele>16.67</ele>
        <time>2020-05-16T12:45:35Z</time>
      </trkpt>
      <trkpt lat="47.20062" lon="-1.51634">
        <ele>16.73</ele>
        <time>2020-05-16T12:45:37Z</time>
      </trkpt>
      <trkpt lat="47.20053" lon="-1.51621">
        <ele>17.26</ele>
        <time>2020-05-16T12:45:39Z</time>
      </trkpt>
      <trkpt lat="47.20043" lon="-1.51606">
        <ele>18.56</ele>
        <time>2020-05-16T12:45:41Z</time>
      </trkpt>
      <trkpt lat="47.20035" lon="-1.51591">
        <ele>20.45</ele>
        <time>2020-05-16T12:45:43Z</time>
      </trkpt>
      <trkpt lat="47.20029" lon="-1.51581">
        <ele>21.92</ele>
        <time>2020-05-16T12:45:45Z</time>
      </trkpt>
      <trkpt lat="47.20021" lon="-1.51571">
        <ele>22.01</ele>
        <time>2020-05-16T12:45:47Z</time>
      </trkpt>
      <trkpt lat="47.20011" lon="-1.51557">
        <ele>22.15</ele>
        <time>2020-05-16T12:45:49Z</time>
      </trkpt>
      <trkpt lat="47.20003" lon="-1.51544">
        <ele>20.89</ele>
        <time>2020-05-16T12:45:51Z</time>
      </trkpt>
      <trkpt lat="47.19995" lon="-1.51531">
        <ele>20.11</ele>
        <time>2020-05-16T12:45:53Z</time>
      </trkpt>
      <trkpt lat="47.19987" lon="-1.5152">
        <ele>19.58</ele>
        <time>2020-05-16T12:45:55Z</time>
      </trkpt>
      <trkpt lat="47.19979" lon="-1.5151">
        <ele>17.87</ele>
        <time>2020-05-16T12:45:57Z</time>
      </trkpt>
      <trkpt lat="47.19971" lon="-1.515">
        <ele>17.35</ele>
        <time>2020-05-16T12:45:59Z</time>
      </trkpt>
      <trkpt lat="47.19962" lon="-1.51489">
        <ele>17.65</ele>
        <time>2020-05-16T12:46:01Z</time>
      </trkpt>
      <trkpt lat="47.19952" lon="-1.51485">
        <ele>18.42</ele>
        <time>2020-05-16T12:46:03Z</time>
      </trkpt>
      <trkpt lat="47.19939" lon="-1.51493">
        <ele>18.82</ele>
        <time>2020-05-16T12:46:05Z</time>
      </trkpt>
      <trkpt lat="47.19927" lon="-1.515">
        <ele>19.27</ele>
        <time>2020-05-16T12:46:07Z</time>
      </trkpt>
      <trkpt lat="47.19917" lon="-1.51507">
        <ele>19.49</ele>
        <time>2020-05-16T12:46:09Z</time>
      </trkpt>
      <trkpt lat="47.19906" lon="-1.51515">
        <ele>20.03</ele>
        <time>2020-05-16T12:46:11Z</time>
      </trkpt>
      <trkpt lat="47.19895" lon="-1.51524">
        <ele>19.72</ele>
        <time>2020-05-16T12:46:13Z</time>
      </trkpt>
      <trkpt lat="47.19886" lon="-1.51534">
        <ele>19.59</ele>
        <time>2020-05-16T12:46:15Z</time>
      </trkpt>
      <trkpt lat="47.19877" lon="-1.51541">
        <ele>18.37</ele>
        <time>2020-05-16T12:46:17Z</time>
      </trkpt>
      <trkpt lat="47.19867" lon="-1.51535">
        <ele>17.7</ele>
        <time>2020-05-16T12:46:19Z</time>
      </trkpt>
      <trkpt lat="47.19857" lon="-1.51525">
        <ele>17.25</ele>
        <time>2020-05-16T12:46:21Z</time>
      </trkpt>
      <trkpt lat="47.1985" lon="-1.51509">
        <ele>18.17</ele>
        <time>2020-05-16T12:46:23Z</time>
      </trkpt>
      <trkpt lat="47.19843" lon="-1.51488">
        <ele>19.53</ele>
        <time>2020-05-16T12:46:25Z</time>
      </trkpt>
      <trkpt lat="47.19838" lon="-1.5147">
        <ele>20.27</ele>
        <time>2020-05-16T12:46:27Z</time>
      </trkpt>
      <trkpt lat="47.19833" lon="-1.51453">
        <ele>19.2</ele>
        <time>2020-05-16T12:46:29Z</time>
      </trkpt>
      <trkpt lat="47.19826" lon="-1.51435">
        <ele>17.93</ele>
        <time>2020-05-16T12:46:31Z</time>
      </trkpt>
      <trkpt lat="47.1982" lon="-1.5142">
        <ele>17.9</ele>
        <time>2020-05-16T12:46:33Z</time>
      </trkpt>
      <trkpt lat="47.19812" lon="-1.51403">
        <ele>17.94</ele>
        <time>2020-05-16T12:46:35Z</time>
      </trkpt>
      <trkpt lat="47.19802" lon="-1.51389">
        <ele>17.94</ele>
        <time>2020-05-16T12:46:37Z</time>
      </trkpt>
      <trkpt lat="47.19791" lon="-1.51377">
        <ele>16.79</ele>
        <time>2020-05-16T12:46:39Z</time>
      </trkpt>
      <trkpt lat="47.19779" lon="-1.51364">
        <ele>16.36</ele>
        <time>2020-05-16T12:46:41Z</time>
      </trkpt>
      <trkpt lat="47.19766" lon="-1.51351">
        <ele>16.19</ele>
        <time>2020-05-16T12:46:43Z</time>
      </trkpt>
      <trkpt lat="47.19755" lon="-1.51339">
        <ele>16.36</ele>
        <time>2020-05-16T12:46:45Z</time>
      </trkpt>
      <trkpt lat="47.19745" lon="-1.51328">
        <ele>16.84</ele>
        <time>2020-05-16T12:46:47Z</time>
      </trkpt>
      <trkpt lat="47.19734" lon="-1.51317">
        <ele>17.43</ele>
        <time>2020-05-16T12:46:49Z</time>
      </trkpt>
      <trkpt lat="47.19722" lon="-1.51306">
        <ele>17.69</ele>
        <time>2020-05-16T12:46:51Z</time>
      </trkpt>
      <trkpt lat="47.1971" lon="-1.51293">
        <ele>17.51</ele>
        <time>2020-05-16T12:46:53Z</time>
      </trkpt>
      <trkpt lat="47.19698" lon="-1.51279">
        <ele>16.66</ele>
        <time>2020-05-16T12:46:55Z</time>
      </trkpt>
      <trkpt lat="47.19688" lon="-1.51261">
        <ele>16.15</ele>
        <time>2020-05-16T12:46:57Z</time>
      </trkpt>
      <trkpt lat="47.1968" lon="-1.51246">
        <ele>14.96</ele>
        <time>2020-05-16T12:46:59Z</time>
      </trkpt>
      <trkpt lat="47.1967" lon="-1.51229">
        <ele>14.86</ele>
        <time>2020-05-16T12:47:01Z</time>
      </trkpt>
      <trkpt lat="47.19658" lon="-1.51219">
        <ele>15.55</ele>
        <time>2020-05-16T12:47:03Z</time>
      </trkpt>
      <trkpt lat="47.19645" lon="-1.51208">
        <ele>15</ele>
        <time>2020-05-16T12:47:05Z</time>
      </trkpt>
      <trkpt lat="47.19633" lon="-1.51198">
        <ele>13.98</ele>
        <time>2020-05-16T12:47:07Z</time>
      </trkpt>
      <trkpt lat="47.19621" lon="-1.51188">
        <ele>13.73</ele>
        <time>2020-05-16T12:47:09Z</time>
      </trkpt>
      <trkpt lat="47.1961" lon="-1.51178">
        <ele>15.08</ele>
        <time>2020-05-16T12:47:11Z</time>
      </trkpt>
      <trkpt lat="47.19599" lon="-1.51168">
        <ele>16.03</ele>
        <time>2020-05-16T12:47:13Z</time>
      </trkpt>
      <trkpt lat="47.19589" lon="-1.51158">
        <ele>17.25</ele>
        <time>2020-05-16T12:47:15Z</time>
      </trkpt>
      <trkpt lat="47.19579" lon="-1.51146">
        <ele>18.58</ele>
        <time>2020-05-16T12:47:17Z</time>
      </trkpt>
      <trkpt lat="47.19569" lon="-1.51133">
        <ele>19.62</ele>
        <time>2020-05-16T12:47:19Z</time>
      </trkpt>
      <trkpt lat="47.19562" lon="-1.5112">
        <ele>19.83</ele>
        <time>2020-05-16T12:47:21Z</time>
      </trkpt>
      <trkpt lat="47.19554" lon="-1.51106">
        <ele>20.51</ele>
        <time>2020-05-16T12:47:23Z</time>
      </trkpt>
      <trkpt lat="47.19547" lon="-1.51092">
        <ele>20.64</ele>
        <time>2020-05-16T12:47:25Z</time>
      </trkpt>
      <trkpt lat="47.1954" lon="-1.51078">
        <ele>19.67</ele>
        <time>2020-05-16T12:47:27Z</time>
      </trkpt>
      <trkpt lat="47.19532" lon="-1.51062">
        <ele>19.77</ele>
        <time>2020-05-16T12:47:29Z</time>
      </trkpt>
      <trkpt lat="47.19525" lon="-1.51047">
        <ele>20.25</ele>
        <time>2020-05-16T12:47:31Z</time>
      </trkpt>
      <trkpt lat="47.19517" lon="-1.5103">
        <ele>18.92</ele>
        <time>2020-05-16T12:47:34Z</time>
      </trkpt>
      <trkpt lat="47.19509" lon="-1.51015">
        <ele>19.52</ele>
        <time>2020-05-16T12:47:36Z</time>
      </trkpt>
      <trkpt lat="47.19499" lon="-1.51">
        <ele>20.49</ele>
        <time>2020-05-16T12:47:38Z</time>
      </trkpt>
      <trkpt lat="47.19489" lon="-1.50987">
        <ele>21.43</ele>
        <time>2020-05-16T12:47:40Z</time>
      </trkpt>
      <trkpt lat="47.1948" lon="-1.50975">
        <ele>20.76</ele>
        <time>2020-05-16T12:47:42Z</time>
      </trkpt>
      <trkpt lat="47.19471" lon="-1.50964">
        <ele>18.83</ele>
        <time>2020-05-16T12:47:44Z</time>
      </trkpt>
      <trkpt lat="47.19463" lon="-1.5095">
        <ele>17.11</ele>
        <time>2020-05-16T12:47:46Z</time>
      </trkpt>
      <trkpt lat="47.19454" lon="-1.50937">
        <ele>15.63</ele>
        <time>2020-05-16T12:47:48Z</time>
      </trkpt>
      <trkpt lat="47.19445" lon="-1.50923">
        <ele>15.11</ele>
        <time>2020-05-16T12:47:50Z</time>
      </trkpt>
      <trkpt lat="47.19435" lon="-1.50908">
        <ele>16.06</ele>
        <time>2020-05-16T12:47:52Z</time>
      </trkpt>
      <trkpt lat="47.19427" lon="-1.50893">
        <ele>17.84</ele>
        <time>2020-05-16T12:47:54Z</time>
      </trkpt>
      <trkpt lat="47.19418" lon="-1.50879">
        <ele>20.24</ele>
        <time>2020-05-16T12:47:56Z</time>
      </trkpt>
      <trkpt lat="47.19409" lon="-1.50865">
        <ele>22.57</ele>
        <time>2020-05-16T12:47:58Z</time>
      </trkpt>
      <trkpt lat="47.19402" lon="-1.50853">
        <ele>22.96</ele>
        <time>2020-05-16T12:48:00Z</time>
      </trkpt>
      <trkpt lat="47.19394" lon="-1.50839">
        <ele>23.01</ele>
        <time>2020-05-16T12:48:02Z</time>
      </trkpt>
      <trkpt lat="47.19385" lon="-1.50826">
        <ele>22.26</ele>
        <time>2020-05-16T12:48:04Z</time>
      </trkpt>
      <trkpt lat="47.19377" lon="-1.50815">
        <ele>21.85</ele>
        <time>2020-05-16T12:48:06Z</time>
      </trkpt>
      <trkpt lat="47.19366" lon="-1.50803">
        <ele>22.09</ele>
        <time>2020-05-16T12:48:08Z</time>
      </trkpt>
      <trkpt lat="47.19354" lon="-1.5079">
        <ele>23.15</ele>
        <time>2020-05-16T12:48:10Z</time>
      </trkpt>
      <trkpt lat="47.19344" lon="-1.5078">
        <ele>23.05</ele>
        <time>2020-05-16T12:48:12Z</time>
      </trkpt>
      <trkpt lat="47.19334" lon="-1.50771">
        <ele>22.22</ele>
        <time>2020-05-16T12:48:14Z</time>
      </trkpt>
      <trkpt lat="47.19323" lon="-1.5076">
        <ele>22.06</ele>
        <time>2020-05-16T12:48:16Z</time>
      </trkpt>
      <trkpt lat="47.19313" lon="-1.5075">
        <ele>21.62</ele>
        <time>2020-05-16T12:48:18Z</time>
      </trkpt>
      <trkpt lat="47.19303" lon="-1.5074">
        <ele>21.63</ele>
        <time>2020-05-16T12:48:20Z</time>
      </trkpt>
      <trkpt lat="47.19293" lon="-1.50729">
        <ele>20.61</ele>
        <time>2020-05-16T12:48:22Z</time>
      </trkpt>
      <trkpt lat="47.19284" lon="-1.50718">
        <ele>19.48</ele>
        <time>2020-05-16T12:48:24Z</time>
      </trkpt>
      <trkpt lat="47.19274" lon="-1.50705">
        <ele>20.32</ele>
        <time>2020-05-16T12:48:26Z</time>
      </trkpt>
      <trkpt lat="47.19264" lon="-1.50691">
        <ele>21.44</ele>
        <time>2020-05-16T12:48:28Z</time>
      </trkpt>
      <trkpt lat="47.19255" lon="-1.50679">
        <ele>21.42</ele>
        <time>2020-05-16T12:48:30Z</time>
      </trkpt>
      <trkpt lat="47.19247" lon="-1.50668">
        <ele>21.77</ele>
        <time>2020-05-16T12:48:32Z</time>
      </trkpt>
      <trkpt lat="47.19239" lon="-1.50657">
        <ele>22.99</ele>
        <time>2020-05-16T12:48:34Z</time>
      </trkpt>
      <trkpt lat="47.19231" lon="-1.50645">
        <ele>24.42</ele>
        <time>2020-05-16T12:48:36Z</time>
      </trkpt>
      <trkpt lat="47.19223" lon="-1.50634">
        <ele>26.26</ele>
        <time>2020-05-16T12:48:38Z</time>
      </trkpt>
      <trkpt lat="47.19213" lon="-1.50622">
        <ele>27.28</ele>
        <time>2020-05-16T12:48:40Z</time>
      </trkpt>
      <trkpt lat="47.19204" lon="-1.50612">
        <ele>26.99</ele>
        <time>2020-05-16T12:48:42Z</time>
      </trkpt>
      <trkpt lat="47.19195" lon="-1.50601">
        <ele>26.58</ele>
        <time>2020-05-16T12:48:44Z</time>
      </trkpt>
      <trkpt lat="47.19184" lon="-1.5059">
        <ele>26.83</ele>
        <time>2020-05-16T12:48:46Z</time>
      </trkpt>
      <trkpt lat="47.19175" lon="-1.5058">
        <ele>26.86</ele>
        <time>2020-05-16T12:48:48Z</time>
      </trkpt>
      <trkpt lat="47.19165" lon="-1.50569">
        <ele>25.36</ele>
        <time>2020-05-16T12:48:50Z</time>
      </trkpt>
      <trkpt lat="47.19154" lon="-1.50558">
        <ele>23.73</ele>
        <time>2020-05-16T12:48:52Z</time>
      </trkpt>
      <trkpt lat="47.19147" lon="-1.5055">
        <ele>22.55</ele>
        <time>2020-05-16T12:48:54Z</time>
      </trkpt>
      <trkpt lat="47.19136" lon="-1.50538">
        <ele>22.23</ele>
        <time>2020-05-16T12:48:56Z</time>
      </trkpt>
      <trkpt lat="47.19128" lon="-1.50528">
        <ele>22.04</ele>
        <time>2020-05-16T12:48:58Z</time>
      </trkpt>
      <trkpt lat="47.19118" lon="-1.50515">
        <ele>21.59</ele>
        <time>2020-05-16T12:49:00Z</time>
      </trkpt>
      <trkpt lat="47.19109" lon="-1.50503">
        <ele>20</ele>
        <time>2020-05-16T12:49:02Z</time>
      </trkpt>
      <trkpt lat="47.19101" lon="-1.5049">
        <ele>20.75</ele>
        <time>2020-05-16T12:49:04Z</time>
      </trkpt>
      <trkpt lat="47.19093" lon="-1.50477">
        <ele>22.08</ele>
        <time>2020-05-16T12:49:06Z</time>
      </trkpt>
      <trkpt lat="47.19084" lon="-1.50464">
        <ele>23.53</ele>
        <time>2020-05-16T12:49:08Z</time>
      </trkpt>
      <trkpt lat="47.19076" lon="-1.50452">
        <ele>23.63</ele>
        <time>2020-05-16T12:49:10Z</time>
      </trkpt>
      <trkpt lat="47.19067" lon="-1.50443">
        <ele>25.1</ele>
        <time>2020-05-16T12:49:12Z</time>
      </trkpt>
      <trkpt lat="47.19055" lon="-1.50435">
        <ele>26.42</ele>
        <time>2020-05-16T12:49:14Z</time>
      </trkpt>
      <trkpt lat="47.19044" lon="-1.5043">
        <ele>26.28</ele>
        <time>2020-05-16T12:49:16Z</time>
      </trkpt>
      <trkpt lat="47.19031" lon="-1.50427">
        <ele>25.98</ele>
        <time>2020-05-16T12:49:18Z</time>
      </trkpt>
      <trkpt lat="47.19017" lon="-1.50424">
        <ele>26.47</ele>
        <time>2020-05-16T12:49:20Z</time>
      </trkpt>
      <trkpt lat="47.19004" lon="-1.50423">
        <ele>27.59</ele>
        <time>2020-05-16T12:49:22Z</time>
      </trkpt>
      <trkpt lat="47.18991" lon="-1.50422">
        <ele>28.81</ele>
        <time>2020-05-16T12:49:24Z</time>
      </trkpt>
      <trkpt lat="47.1898" lon="-1.50422">
        <ele>28.59</ele>
        <time>2020-05-16T12:49:26Z</time>
      </trkpt>
      <trkpt lat="47.18967" lon="-1.5042">
        <ele>28.53</ele>
        <time>2020-05-16T12:49:28Z</time>
      </trkpt>
      <trkpt lat="47.18953" lon="-1.50419">
        <ele>28.88</ele>
        <time>2020-05-16T12:49:30Z</time>
      </trkpt>
      <trkpt lat="47.18941" lon="-1.50418">
        <ele>28.82</ele>
        <time>2020-05-16T12:49:32Z</time>
      </trkpt>
      <trkpt lat="47.18929" lon="-1.50422">
        <ele>28.48</ele>
        <time>2020-05-16T12:49:34Z</time>
      </trkpt>
      <trkpt lat="47.18918" lon="-1.50426">
        <ele>28.05</ele>
        <time>2020-05-16T12:49:36Z</time>
      </trkpt>
      <trkpt lat="47.18904" lon="-1.50431">
        <ele>29.15</ele>
        <time>2020-05-16T12:49:39Z</time>
      </trkpt>
      <trkpt lat="47.18894" lon="-1.50436">
        <ele>29.84</ele>
        <time>2020-05-16T12:49:41Z</time>
      </trkpt>
      <trkpt lat="47.18884" lon="-1.50435">
        <ele>29.24</ele>
        <time>2020-05-16T12:49:43Z</time>
      </trkpt>
      <trkpt lat="47.18878" lon="-1.50421">
        <ele>28.05</ele>
        <time>2020-05-16T12:49:45Z</time>
      </trkpt>
      <trkpt lat="47.18874" lon="-1.50405">
        <ele>26.18</ele>
        <time>2020-05-16T12:49:47Z</time>
      </trkpt>
      <trkpt lat="47.18872" lon="-1.50388">
        <ele>25.7</ele>
        <time>2020-05-16T12:49:49Z</time>
      </trkpt>
      <trkpt lat="47.18871" lon="-1.50367">
        <ele>25.77</ele>
        <time>2020-05-16T12:49:51Z</time>
      </trkpt>
      <trkpt lat="47.18871" lon="-1.50347">
        <ele>25.73</ele>
        <time>2020-05-16T12:49:53Z</time>
      </trkpt>
      <trkpt lat="47.18871" lon="-1.5033">
        <ele>26.04</ele>
        <time>2020-05-16T12:49:55Z</time>
      </trkpt>
      <trkpt lat="47.18871" lon="-1.50314">
        <ele>25.68</ele>
        <time>2020-05-16T12:49:57Z</time>
      </trkpt>
      <trkpt lat="47.1887" lon="-1.50295">
        <ele>25.48</ele>
        <time>2020-05-16T12:49:59Z</time>
      </trkpt>
      <trkpt lat="47.18869" lon="-1.50279">
        <ele>25.16</ele>
        <time>2020-05-16T12:50:01Z</time>
      </trkpt>
      <trkpt lat="47.18867" lon="-1.50263">
        <ele>24.95</ele>
        <time>2020-05-16T12:50:03Z</time>
      </trkpt>
      <trkpt lat="47.18866" lon="-1.50244">
        <ele>24.67</ele>
        <time>2020-05-16T12:50:05Z</time>
      </trkpt>
      <trkpt lat="47.18866" lon="-1.50225">
        <ele>25.64</ele>
        <time>2020-05-16T12:50:07Z</time>
      </trkpt>
      <trkpt lat="47.18866" lon="-1.5021">
        <ele>26.73</ele>
        <time>2020-05-16T12:50:09Z</time>
      </trkpt>
      <trkpt lat="47.18864" lon="-1.50191">
        <ele>26.96</ele>
        <time>2020-05-16T12:50:11Z</time>
      </trkpt>
      <trkpt lat="47.18863" lon="-1.50173">
        <ele>26.6</ele>
        <time>2020-05-16T12:50:13Z</time>
      </trkpt>
      <trkpt lat="47.18862" lon="-1.50155">
        <ele>25.12</ele>
        <time>2020-05-16T12:50:15Z</time>
      </trkpt>
      <trkpt lat="47.1886" lon="-1.50138">
        <ele>22.98</ele>
        <time>2020-05-16T12:50:17Z</time>
      </trkpt>
      <trkpt lat="47.18858" lon="-1.50118">
        <ele>22.1</ele>
        <time>2020-05-16T12:50:19Z</time>
      </trkpt>
      <trkpt lat="47.18857" lon="-1.50099">
        <ele>23.21</ele>
        <time>2020-05-16T12:50:21Z</time>
      </trkpt>
      <trkpt lat="47.18856" lon="-1.50083">
        <ele>24.91</ele>
        <time>2020-05-16T12:50:23Z</time>
      </trkpt>
      <trkpt lat="47.18854" lon="-1.50065">
        <ele>25.41</ele>
        <time>2020-05-16T12:50:25Z</time>
      </trkpt>
      <trkpt lat="47.18853" lon="-1.50045">
        <ele>25.69</ele>
        <time>2020-05-16T12:50:27Z</time>
      </trkpt>
      <trkpt lat="47.18852" lon="-1.50026">
        <ele>25.22</ele>
        <time>2020-05-16T12:50:29Z</time>
      </trkpt>
      <trkpt lat="47.18852" lon="-1.50006">
        <ele>25.16</ele>
        <time>2020-05-16T12:50:31Z</time>
      </trkpt>
      <trkpt lat="47.18851" lon="-1.49986">
        <ele>25.32</ele>
        <time>2020-05-16T12:50:33Z</time>
      </trkpt>
      <trkpt lat="47.18851" lon="-1.49967">
        <ele>25.61</ele>
        <time>2020-05-16T12:50:35Z</time>
      </trkpt>
      <trkpt lat="47.18849" lon="-1.49948">
        <ele>26.26</ele>
        <time>2020-05-16T12:50:37Z</time>
      </trkpt>
      <trkpt lat="47.18847" lon="-1.4993">
        <ele>25.32</ele>
        <time>2020-05-16T12:50:39Z</time>
      </trkpt>
      <trkpt lat="47.18846" lon="-1.49909">
        <ele>24.59</ele>
        <time>2020-05-16T12:50:41Z</time>
      </trkpt>
      <trkpt lat="47.18844" lon="-1.4989">
        <ele>24.89</ele>
        <time>2020-05-16T12:50:43Z</time>
      </trkpt>
      <trkpt lat="47.18843" lon="-1.49873">
        <ele>25.21</ele>
        <time>2020-05-16T12:50:45Z</time>
      </trkpt>
      <trkpt lat="47.18841" lon="-1.49855">
        <ele>24.91</ele>
        <time>2020-05-16T12:50:47Z</time>
      </trkpt>
      <trkpt lat="47.1884" lon="-1.49835">
        <ele>25.06</ele>
        <time>2020-05-16T12:50:49Z</time>
      </trkpt>
      <trkpt lat="47.1884" lon="-1.49817">
        <ele>25.63</ele>
        <time>2020-05-16T12:50:51Z</time>
      </trkpt>
      <trkpt lat="47.18839" lon="-1.49797">
        <ele>26.24</ele>
        <time>2020-05-16T12:50:53Z</time>
      </trkpt>
      <trkpt lat="47.18838" lon="-1.49778">
        <ele>26.63</ele>
        <time>2020-05-16T12:50:55Z</time>
      </trkpt>
      <trkpt lat="47.18837" lon="-1.4976">
        <ele>27.39</ele>
        <time>2020-05-16T12:50:57Z</time>
      </trkpt>
      <trkpt lat="47.18835" lon="-1.49739">
        <ele>27.56</ele>
        <time>2020-05-16T12:50:59Z</time>
      </trkpt>
      <trkpt lat="47.18835" lon="-1.49722">
        <ele>28.88</ele>
        <time>2020-05-16T12:51:01Z</time>
      </trkpt>
      <trkpt lat="47.18834" lon="-1.49701">
        <ele>28.78</ele>
        <time>2020-05-16T12:51:04Z</time>
      </trkpt>
      <trkpt lat="47.18834" lon="-1.49684">
        <ele>28.6</ele>
        <time>2020-05-16T12:51:05Z</time>
      </trkpt>
      <trkpt lat="47.18832" lon="-1.49665">
        <ele>27.68</ele>
        <time>2020-05-16T12:51:08Z</time>
      </trkpt>
      <trkpt lat="47.18831" lon="-1.49646">
        <ele>27.8</ele>
        <time>2020-05-16T12:51:10Z</time>
      </trkpt>
      <trkpt lat="47.18829" lon="-1.49629">
        <ele>28.16</ele>
        <time>2020-05-16T12:51:12Z</time>
      </trkpt>
      <trkpt lat="47.18828" lon="-1.49613">
        <ele>28.28</ele>
        <time>2020-05-16T12:51:14Z</time>
      </trkpt>
      <trkpt lat="47.18827" lon="-1.49599">
        <ele>28.76</ele>
        <time>2020-05-16T12:51:16Z</time>
      </trkpt>
      <trkpt lat="47.18824" lon="-1.49584">
        <ele>28.61</ele>
        <time>2020-05-16T12:51:19Z</time>
      </trkpt>
      <trkpt lat="47.18823" lon="-1.49567">
        <ele>28.63</ele>
        <time>2020-05-16T12:51:23Z</time>
      </trkpt>
      <trkpt lat="47.18822" lon="-1.49548">
        <ele>28.89</ele>
        <time>2020-05-16T12:51:26Z</time>
      </trkpt>
      <trkpt lat="47.1882" lon="-1.49527">
        <ele>27.02</ele>
        <time>2020-05-16T12:51:29Z</time>
      </trkpt>
      <trkpt lat="47.18813" lon="-1.49512">
        <ele>26.49</ele>
        <time>2020-05-16T12:51:31Z</time>
      </trkpt>
      <trkpt lat="47.18802" lon="-1.49502">
        <ele>26.42</ele>
        <time>2020-05-16T12:51:33Z</time>
      </trkpt>
      <trkpt lat="47.18789" lon="-1.49493">
        <ele>26.93</ele>
        <time>2020-05-16T12:51:35Z</time>
      </trkpt>
      <trkpt lat="47.18778" lon="-1.49485">
        <ele>27.23</ele>
        <time>2020-05-16T12:51:37Z</time>
      </trkpt>
      <trkpt lat="47.18766" lon="-1.49477">
        <ele>28.47</ele>
        <time>2020-05-16T12:51:39Z</time>
      </trkpt>
      <trkpt lat="47.18753" lon="-1.49469">
        <ele>29.19</ele>
        <time>2020-05-16T12:51:41Z</time>
      </trkpt>
      <trkpt lat="47.18742" lon="-1.49464">
        <ele>27.84</ele>
        <time>2020-05-16T12:51:43Z</time>
      </trkpt>
      <trkpt lat="47.18729" lon="-1.49455">
        <ele>25.06</ele>
        <time>2020-05-16T12:51:45Z</time>
      </trkpt>
      <trkpt lat="47.18717" lon="-1.49445">
        <ele>23.79</ele>
        <time>2020-05-16T12:51:47Z</time>
      </trkpt>
      <trkpt lat="47.18702" lon="-1.49437">
        <ele>23.33</ele>
        <time>2020-05-16T12:51:49Z</time>
      </trkpt>
      <trkpt lat="47.18691" lon="-1.4943">
        <ele>23.66</ele>
        <time>2020-05-16T12:51:51Z</time>
      </trkpt>
      <trkpt lat="47.1868" lon="-1.49423">
        <ele>24.6</ele>
        <time>2020-05-16T12:51:53Z</time>
      </trkpt>
      <trkpt lat="47.18669" lon="-1.49414">
        <ele>25.62</ele>
        <time>2020-05-16T12:51:55Z</time>
      </trkpt>
      <trkpt lat="47.18656" lon="-1.49406">
        <ele>25.98</ele>
        <time>2020-05-16T12:51:57Z</time>
      </trkpt>
      <trkpt lat="47.18645" lon="-1.49398">
        <ele>25.85</ele>
        <time>2020-05-16T12:51:59Z</time>
      </trkpt>
      <trkpt lat="47.18634" lon="-1.49391">
        <ele>25.73</ele>
        <time>2020-05-16T12:52:01Z</time>
      </trkpt>
      <trkpt lat="47.18621" lon="-1.49381">
        <ele>26.22</ele>
        <time>2020-05-16T12:52:03Z</time>
      </trkpt>
      <trkpt lat="47.18608" lon="-1.49372">
        <ele>26.37</ele>
        <time>2020-05-16T12:52:05Z</time>
      </trkpt>
      <trkpt lat="47.186" lon="-1.49359">
        <ele>26</ele>
        <time>2020-05-16T12:52:07Z</time>
      </trkpt>
      <trkpt lat="47.18592" lon="-1.49343">
        <ele>26.65</ele>
        <time>2020-05-16T12:52:09Z</time>
      </trkpt>
      <trkpt lat="47.18587" lon="-1.49327">
        <ele>27.03</ele>
        <time>2020-05-16T12:52:11Z</time>
      </trkpt>
      <trkpt lat="47.1858" lon="-1.49309">
        <ele>26.27</ele>
        <time>2020-05-16T12:52:13Z</time>
      </trkpt>
      <trkpt lat="47.18574" lon="-1.49293">
        <ele>25.77</ele>
        <time>2020-05-16T12:52:15Z</time>
      </trkpt>
      <trkpt lat="47.18568" lon="-1.49274">
        <ele>25.89</ele>
        <time>2020-05-16T12:52:17Z</time>
      </trkpt>
      <trkpt lat="47.18563" lon="-1.49258">
        <ele>26.08</ele>
        <time>2020-05-16T12:52:19Z</time>
      </trkpt>
      <trkpt lat="47.18558" lon="-1.49237">
        <ele>26.56</ele>
        <time>2020-05-16T12:52:21Z</time>
      </trkpt>
      <trkpt lat="47.18554" lon="-1.49221">
        <ele>27.48</ele>
        <time>2020-05-16T12:52:23Z</time>
      </trkpt>
      <trkpt lat="47.1855" lon="-1.49201">
        <ele>29.6</ele>
        <time>2020-05-16T12:52:25Z</time>
      </trkpt>
      <trkpt lat="47.18547" lon="-1.49184">
        <ele>30.99</ele>
        <time>2020-05-16T12:52:27Z</time>
      </trkpt>
      <trkpt lat="47.18544" lon="-1.49169">
        <ele>31.65</ele>
        <time>2020-05-16T12:52:29Z</time>
      </trkpt>
      <trkpt lat="47.1854" lon="-1.49152">
        <ele>32.14</ele>
        <time>2020-05-16T12:52:31Z</time>
      </trkpt>
      <trkpt lat="47.18536" lon="-1.49135">
        <ele>32.29</ele>
        <time>2020-05-16T12:52:33Z</time>
      </trkpt>
      <trkpt lat="47.18533" lon="-1.49115">
        <ele>31.67</ele>
        <time>2020-05-16T12:52:35Z</time>
      </trkpt>
      <trkpt lat="47.1853" lon="-1.49094">
        <ele>30.99</ele>
        <time>2020-05-16T12:52:37Z</time>
      </trkpt>
      <trkpt lat="47.18527" lon="-1.49072">
        <ele>30.83</ele>
        <time>2020-05-16T12:52:39Z</time>
      </trkpt>
      <trkpt lat="47.18524" lon="-1.49055">
        <ele>30.49</ele>
        <time>2020-05-16T12:52:41Z</time>
      </trkpt>
      <trkpt lat="47.18521" lon="-1.49037">
        <ele>29.68</ele>
        <time>2020-05-16T12:52:43Z</time>
      </trkpt>
      <trkpt lat="47.18518" lon="-1.49015">
        <ele>29.36</ele>
        <time>2020-05-16T12:52:45Z</time>
      </trkpt>
      <trkpt lat="47.18516" lon="-1.48996">
        <ele>28.72</ele>
        <time>2020-05-16T12:52:47Z</time>
      </trkpt>
      <trkpt lat="47.18513" lon="-1.48977">
        <ele>28.05</ele>
        <time>2020-05-16T12:52:49Z</time>
      </trkpt>
      <trkpt lat="47.1851" lon="-1.48954">
        <ele>26.97</ele>
        <time>2020-05-16T12:52:51Z</time>
      </trkpt>
      <trkpt lat="47.18507" lon="-1.48936">
        <ele>27.05</ele>
        <time>2020-05-16T12:52:53Z</time>
      </trkpt>
      <trkpt lat="47.18505" lon="-1.4892">
        <ele>27.2</ele>
        <time>2020-05-16T12:52:55Z</time>
      </trkpt>
      <trkpt lat="47.18502" lon="-1.48901">
        <ele>27.56</ele>
        <time>2020-05-16T12:52:57Z</time>
      </trkpt>
      <trkpt lat="47.18499" lon="-1.48884">
        <ele>27.85</ele>
        <time>2020-05-16T12:52:59Z</time>
      </trkpt>
      <trkpt lat="47.18497" lon="-1.48867">
        <ele>27.15</ele>
        <time>2020-05-16T12:53:01Z</time>
      </trkpt>
      <trkpt lat="47.18495" lon="-1.48849">
        <ele>26.9</ele>
        <time>2020-05-16T12:53:03Z</time>
      </trkpt>
      <trkpt lat="47.18492" lon="-1.48831">
        <ele>26.75</ele>
        <time>2020-05-16T12:53:05Z</time>
      </trkpt>
      <trkpt lat="47.1849" lon="-1.48814">
        <ele>26.59</ele>
        <time>2020-05-16T12:53:07Z</time>
      </trkpt>
      <trkpt lat="47.18488" lon="-1.48798">
        <ele>26.02</ele>
        <time>2020-05-16T12:53:09Z</time>
      </trkpt>
      <trkpt lat="47.18486" lon="-1.4878">
        <ele>26.87</ele>
        <time>2020-05-16T12:53:11Z</time>
      </trkpt>
      <trkpt lat="47.18484" lon="-1.48763">
        <ele>26.83</ele>
        <time>2020-05-16T12:53:13Z</time>
      </trkpt>
      <trkpt lat="47.18481" lon="-1.48748">
        <ele>27.42</ele>
        <time>2020-05-16T12:53:15Z</time>
      </trkpt>
      <trkpt lat="47.18488" lon="-1.4874">
        <ele>26.72</ele>
        <time>2020-05-16T12:53:22Z</time>
      </trkpt>
      <trkpt lat="47.18481" lon="-1.48726">
        <ele>27.57</ele>
        <time>2020-05-16T12:55:15Z</time>
      </trkpt>
      <trkpt lat="47.18477" lon="-1.48714">
        <ele>28.34</ele>
        <time>2020-05-16T12:55:17Z</time>
      </trkpt>
      <trkpt lat="47.18471" lon="-1.48702">
        <ele>29.57</ele>
        <time>2020-05-16T12:55:19Z</time>
      </trkpt>
      <trkpt lat="47.18466" lon="-1.48689">
        <ele>30.83</ele>
        <time>2020-05-16T12:55:21Z</time>
      </trkpt>
      <trkpt lat="47.18461" lon="-1.48674">
        <ele>33.58</ele>
        <time>2020-05-16T12:55:23Z</time>
      </trkpt>
      <trkpt lat="47.18457" lon="-1.48658">
        <ele>36.07</ele>
        <time>2020-05-16T12:55:25Z</time>
      </trkpt>
      <trkpt lat="47.18451" lon="-1.48641">
        <ele>37.18</ele>
        <time>2020-05-16T12:55:27Z</time>
      </trkpt>
      <trkpt lat="47.18445" lon="-1.48624">
        <ele>37.18</ele>
        <time>2020-05-16T12:55:29Z</time>
      </trkpt>
      <trkpt lat="47.18441" lon="-1.48607">
        <ele>36.49</ele>
        <time>2020-05-16T12:55:31Z</time>
      </trkpt>
      <trkpt lat="47.18436" lon="-1.48589">
        <ele>35.62</ele>
        <time>2020-05-16T12:55:33Z</time>
      </trkpt>
      <trkpt lat="47.18432" lon="-1.48569">
        <ele>35.39</ele>
        <time>2020-05-16T12:55:35Z</time>
      </trkpt>
      <trkpt lat="47.18428" lon="-1.48551">
        <ele>35.13</ele>
        <time>2020-05-16T12:55:37Z</time>
      </trkpt>
      <trkpt lat="47.18425" lon="-1.48534">
        <ele>34.54</ele>
        <time>2020-05-16T12:55:39Z</time>
      </trkpt>
      <trkpt lat="47.18424" lon="-1.48515">
        <ele>34.15</ele>
        <time>2020-05-16T12:55:41Z</time>
      </trkpt>
      <trkpt lat="47.18423" lon="-1.48497">
        <ele>34.68</ele>
        <time>2020-05-16T12:55:43Z</time>
      </trkpt>
      <trkpt lat="47.18423" lon="-1.48483">
        <ele>34.68</ele>
        <time>2020-05-16T12:55:45Z</time>
      </trkpt>
      <trkpt lat="47.18422" lon="-1.48459">
        <ele>35.69</ele>
        <time>2020-05-16T12:55:47Z</time>
      </trkpt>
      <trkpt lat="47.18422" lon="-1.4844">
        <ele>35.64</ele>
        <time>2020-05-16T12:55:49Z</time>
      </trkpt>
      <trkpt lat="47.18423" lon="-1.48422">
        <ele>35.87</ele>
        <time>2020-05-16T12:55:51Z</time>
      </trkpt>
      <trkpt lat="47.18423" lon="-1.48404">
        <ele>35.39</ele>
        <time>2020-05-16T12:55:53Z</time>
      </trkpt>
      <trkpt lat="47.18423" lon="-1.4838">
        <ele>34.72</ele>
        <time>2020-05-16T12:55:56Z</time>
      </trkpt>
      <trkpt lat="47.18423" lon="-1.4836">
        <ele>33.94</ele>
        <time>2020-05-16T12:55:58Z</time>
      </trkpt>
      <trkpt lat="47.18423" lon="-1.48346">
        <ele>33.62</ele>
        <time>2020-05-16T12:56:00Z</time>
      </trkpt>
      <trkpt lat="47.18423" lon="-1.48331">
        <ele>33.28</ele>
        <time>2020-05-16T12:56:02Z</time>
      </trkpt>
      <trkpt lat="47.18423" lon="-1.48312">
        <ele>33.55</ele>
        <time>2020-05-16T12:56:04Z</time>
      </trkpt>
      <trkpt lat="47.18423" lon="-1.48293">
        <ele>33.97</ele>
        <time>2020-05-16T12:56:06Z</time>
      </trkpt>
      <trkpt lat="47.18423" lon="-1.48277">
        <ele>34.34</ele>
        <time>2020-05-16T12:56:08Z</time>
      </trkpt>
      <trkpt lat="47.18423" lon="-1.48258">
        <ele>33.76</ele>
        <time>2020-05-16T12:56:10Z</time>
      </trkpt>
      <trkpt lat="47.18423" lon="-1.4824">
        <ele>34.56</ele>
        <time>2020-05-16T12:56:12Z</time>
      </trkpt>
      <trkpt lat="47.18422" lon="-1.48223">
        <ele>34.32</ele>
        <time>2020-05-16T12:56:14Z</time>
      </trkpt>
      <trkpt lat="47.18422" lon="-1.48206">
        <ele>33.79</ele>
        <time>2020-05-16T12:56:16Z</time>
      </trkpt>
      <trkpt lat="47.18421" lon="-1.48185">
        <ele>33.11</ele>
        <time>2020-05-16T12:56:18Z</time>
      </trkpt>
      <trkpt lat="47.1842" lon="-1.48167">
        <ele>32.46</ele>
        <time>2020-05-16T12:56:20Z</time>
      </trkpt>
      <trkpt lat="47.1842" lon="-1.48153">
        <ele>31.36</ele>
        <time>2020-05-16T12:56:22Z</time>
      </trkpt>
      <trkpt lat="47.18421" lon="-1.48134">
        <ele>30.93</ele>
        <time>2020-05-16T12:56:24Z</time>
      </trkpt>
      <trkpt lat="47.18421" lon="-1.48113">
        <ele>30.46</ele>
        <time>2020-05-16T12:56:26Z</time>
      </trkpt>
      <trkpt lat="47.1842" lon="-1.48094">
        <ele>29.18</ele>
        <time>2020-05-16T12:56:28Z</time>
      </trkpt>
      <trkpt lat="47.18421" lon="-1.48075">
        <ele>27.58</ele>
        <time>2020-05-16T12:56:30Z</time>
      </trkpt>
      <trkpt lat="47.18421" lon="-1.48057">
        <ele>26.68</ele>
        <time>2020-05-16T12:56:32Z</time>
      </trkpt>
      <trkpt lat="47.18421" lon="-1.48036">
        <ele>24.41</ele>
        <time>2020-05-16T12:56:34Z</time>
      </trkpt>
      <trkpt lat="47.1842" lon="-1.48019">
        <ele>23.16</ele>
        <time>2020-05-16T12:56:36Z</time>
      </trkpt>
      <trkpt lat="47.18419" lon="-1.48004">
        <ele>23.03</ele>
        <time>2020-05-16T12:56:38Z</time>
      </trkpt>
      <trkpt lat="47.18419" lon="-1.47988">
        <ele>23.39</ele>
        <time>2020-05-16T12:56:40Z</time>
      </trkpt>
      <trkpt lat="47.18418" lon="-1.47967">
        <ele>23.12</ele>
        <time>2020-05-16T12:56:42Z</time>
      </trkpt>
      <trkpt lat="47.18416" lon="-1.47944">
        <ele>24.04</ele>
        <time>2020-05-16T12:56:45Z</time>
      </trkpt>
      <trkpt lat="47.18416" lon="-1.47923">
        <ele>25.08</ele>
        <time>2020-05-16T12:56:47Z</time>
      </trkpt>
      <trkpt lat="47.18416" lon="-1.47904">
        <ele>25.66</ele>
        <time>2020-05-16T12:56:49Z</time>
      </trkpt>
      <trkpt lat="47.18416" lon="-1.47885">
        <ele>25.76</ele>
        <time>2020-05-16T12:56:51Z</time>
      </trkpt>
      <trkpt lat="47.18416" lon="-1.47865">
        <ele>25.6</ele>
        <time>2020-05-16T12:56:53Z</time>
      </trkpt>
      <trkpt lat="47.18415" lon="-1.47847">
        <ele>26.25</ele>
        <time>2020-05-16T12:56:55Z</time>
      </trkpt>
      <trkpt lat="47.18416" lon="-1.4783">
        <ele>26.15</ele>
        <time>2020-05-16T12:56:57Z</time>
      </trkpt>
      <trkpt lat="47.18416" lon="-1.47811">
        <ele>26.5</ele>
        <time>2020-05-16T12:56:59Z</time>
      </trkpt>
      <trkpt lat="47.18416" lon="-1.47793">
        <ele>25.97</ele>
        <time>2020-05-16T12:57:01Z</time>
      </trkpt>
      <trkpt lat="47.18416" lon="-1.47775">
        <ele>24.67</ele>
        <time>2020-05-16T12:57:03Z</time>
      </trkpt>
      <trkpt lat="47.18416" lon="-1.47751">
        <ele>23.35</ele>
        <time>2020-05-16T12:57:05Z</time>
      </trkpt>
      <trkpt lat="47.18415" lon="-1.47731">
        <ele>22.31</ele>
        <time>2020-05-16T12:57:07Z</time>
      </trkpt>
      <trkpt lat="47.18414" lon="-1.4771">
        <ele>21.01</ele>
        <time>2020-05-16T12:57:09Z</time>
      </trkpt>
      <trkpt lat="47.18414" lon="-1.47689">
        <ele>20.65</ele>
        <time>2020-05-16T12:57:11Z</time>
      </trkpt>
      <trkpt lat="47.18413" lon="-1.47672">
        <ele>21.03</ele>
        <time>2020-05-16T12:57:13Z</time>
      </trkpt>
      <trkpt lat="47.18412" lon="-1.47654">
        <ele>21.06</ele>
        <time>2020-05-16T12:57:15Z</time>
      </trkpt>
      <trkpt lat="47.18411" lon="-1.47637">
        <ele>21.67</ele>
        <time>2020-05-16T12:57:17Z</time>
      </trkpt>
      <trkpt lat="47.18402" lon="-1.47622">
        <ele>22.68</ele>
        <time>2020-05-16T12:57:19Z</time>
      </trkpt>
      <trkpt lat="47.18387" lon="-1.47618">
        <ele>22.81</ele>
        <time>2020-05-16T12:57:21Z</time>
      </trkpt>
      <trkpt lat="47.18372" lon="-1.47616">
        <ele>21.42</ele>
        <time>2020-05-16T12:57:23Z</time>
      </trkpt>
      <trkpt lat="47.18358" lon="-1.47614">
        <ele>19.06</ele>
        <time>2020-05-16T12:57:25Z</time>
      </trkpt>
      <trkpt lat="47.18344" lon="-1.47611">
        <ele>16.92</ele>
        <time>2020-05-16T12:57:27Z</time>
      </trkpt>
      <trkpt lat="47.18326" lon="-1.47607">
        <ele>15.65</ele>
        <time>2020-05-16T12:57:29Z</time>
      </trkpt>
      <trkpt lat="47.18317" lon="-1.47605">
        <ele>15.15</ele>
        <time>2020-05-16T12:57:30Z</time>
      </trkpt>
      <trkpt lat="47.18302" lon="-1.47602">
        <ele>14.06</ele>
        <time>2020-05-16T12:57:32Z</time>
      </trkpt>
      <trkpt lat="47.18287" lon="-1.47599">
        <ele>13.07</ele>
        <time>2020-05-16T12:57:34Z</time>
      </trkpt>
      <trkpt lat="47.18277" lon="-1.47597">
        <ele>12.76</ele>
        <time>2020-05-16T12:57:35Z</time>
      </trkpt>
      <trkpt lat="47.18268" lon="-1.47595">
        <ele>12.34</ele>
        <time>2020-05-16T12:57:36Z</time>
      </trkpt>
      <trkpt lat="47.18251" lon="-1.47589">
        <ele>11.94</ele>
        <time>2020-05-16T12:57:38Z</time>
      </trkpt>
      <trkpt lat="47.18234" lon="-1.47585">
        <ele>10.45</ele>
        <time>2020-05-16T12:57:40Z</time>
      </trkpt>
      <trkpt lat="47.18218" lon="-1.47581">
        <ele>9.23</ele>
        <time>2020-05-16T12:57:42Z</time>
      </trkpt>
      <trkpt lat="47.18202" lon="-1.47577">
        <ele>7.94</ele>
        <time>2020-05-16T12:57:44Z</time>
      </trkpt>
      <trkpt lat="47.18188" lon="-1.47572">
        <ele>7.51</ele>
        <time>2020-05-16T12:57:46Z</time>
      </trkpt>
      <trkpt lat="47.18174" lon="-1.47567">
        <ele>7.95</ele>
        <time>2020-05-16T12:57:48Z</time>
      </trkpt>
      <trkpt lat="47.1816" lon="-1.47563">
        <ele>8.8</ele>
        <time>2020-05-16T12:57:50Z</time>
      </trkpt>
      <trkpt lat="47.18151" lon="-1.4756">
        <ele>8.37</ele>
        <time>2020-05-16T12:57:51Z</time>
      </trkpt>
      <trkpt lat="47.18135" lon="-1.47556">
        <ele>8.13</ele>
        <time>2020-05-16T12:57:53Z</time>
      </trkpt>
      <trkpt lat="47.1812" lon="-1.47552">
        <ele>9.21</ele>
        <time>2020-05-16T12:57:55Z</time>
      </trkpt>
      <trkpt lat="47.18105" lon="-1.47549">
        <ele>9.54</ele>
        <time>2020-05-16T12:57:57Z</time>
      </trkpt>
      <trkpt lat="47.1809" lon="-1.47547">
        <ele>9.19</ele>
        <time>2020-05-16T12:57:59Z</time>
      </trkpt>
      <trkpt lat="47.18073" lon="-1.47543">
        <ele>9.08</ele>
        <time>2020-05-16T12:58:01Z</time>
      </trkpt>
      <trkpt lat="47.18059" lon="-1.4754">
        <ele>9.43</ele>
        <time>2020-05-16T12:58:03Z</time>
      </trkpt>
      <trkpt lat="47.18044" lon="-1.47536">
        <ele>9.52</ele>
        <time>2020-05-16T12:58:05Z</time>
      </trkpt>
      <trkpt lat="47.1803" lon="-1.47532">
        <ele>8.97</ele>
        <time>2020-05-16T12:58:07Z</time>
      </trkpt>
      <trkpt lat="47.18015" lon="-1.47528">
        <ele>8.81</ele>
        <time>2020-05-16T12:58:09Z</time>
      </trkpt>
      <trkpt lat="47.18001" lon="-1.47525">
        <ele>8.75</ele>
        <time>2020-05-16T12:58:11Z</time>
      </trkpt>
      <trkpt lat="47.17986" lon="-1.47522">
        <ele>9.01</ele>
        <time>2020-05-16T12:58:13Z</time>
      </trkpt>
      <trkpt lat="47.17972" lon="-1.4752">
        <ele>8.32</ele>
        <time>2020-05-16T12:58:15Z</time>
      </trkpt>
      <trkpt lat="47.17958" lon="-1.47516">
        <ele>7.92</ele>
        <time>2020-05-16T12:58:17Z</time>
      </trkpt>
      <trkpt lat="47.17946" lon="-1.47513">
        <ele>8.06</ele>
        <time>2020-05-16T12:58:19Z</time>
      </trkpt>
      <trkpt lat="47.17931" lon="-1.4751">
        <ele>9.03</ele>
        <time>2020-05-16T12:58:21Z</time>
      </trkpt>
      <trkpt lat="47.1792" lon="-1.47515">
        <ele>9.74</ele>
        <time>2020-05-16T12:58:23Z</time>
      </trkpt>
      <trkpt lat="47.17904" lon="-1.47516">
        <ele>9.75</ele>
        <time>2020-05-16T12:58:25Z</time>
      </trkpt>
      <trkpt lat="47.1789" lon="-1.47508">
        <ele>9.2</ele>
        <time>2020-05-16T12:58:27Z</time>
      </trkpt>
      <trkpt lat="47.17876" lon="-1.47498">
        <ele>8.45</ele>
        <time>2020-05-16T12:58:29Z</time>
      </trkpt>
      <trkpt lat="47.17861" lon="-1.47492">
        <ele>7.42</ele>
        <time>2020-05-16T12:58:31Z</time>
      </trkpt>
      <trkpt lat="47.17846" lon="-1.47487">
        <ele>7.11</ele>
        <time>2020-05-16T12:58:33Z</time>
      </trkpt>
      <trkpt lat="47.17832" lon="-1.47482">
        <ele>7.14</ele>
        <time>2020-05-16T12:58:35Z</time>
      </trkpt>
      <trkpt lat="47.17817" lon="-1.47476">
        <ele>7.43</ele>
        <time>2020-05-16T12:58:37Z</time>
      </trkpt>
      <trkpt lat="47.17803" lon="-1.47471">
        <ele>7.83</ele>
        <time>2020-05-16T12:58:39Z</time>
      </trkpt>
      <trkpt lat="47.17789" lon="-1.47465">
        <ele>8.11</ele>
        <time>2020-05-16T12:58:41Z</time>
      </trkpt>
      <trkpt lat="47.17776" lon="-1.47461">
        <ele>8.27</ele>
        <time>2020-05-16T12:58:43Z</time>
      </trkpt>
      <trkpt lat="47.17762" lon="-1.47454">
        <ele>8.45</ele>
        <time>2020-05-16T12:58:45Z</time>
      </trkpt>
      <trkpt lat="47.17745" lon="-1.47446">
        <ele>7.76</ele>
        <time>2020-05-16T12:58:47Z</time>
      </trkpt>
      <trkpt lat="47.17734" lon="-1.47439">
        <ele>7.26</ele>
        <time>2020-05-16T12:58:49Z</time>
      </trkpt>
      <trkpt lat="47.17721" lon="-1.47432">
        <ele>7.63</ele>
        <time>2020-05-16T12:58:51Z</time>
      </trkpt>
      <trkpt lat="47.17707" lon="-1.47426">
        <ele>7.9</ele>
        <time>2020-05-16T12:58:53Z</time>
      </trkpt>
      <trkpt lat="47.17694" lon="-1.47419">
        <ele>7.67</ele>
        <time>2020-05-16T12:58:55Z</time>
      </trkpt>
      <trkpt lat="47.1768" lon="-1.47411">
        <ele>7.58</ele>
        <time>2020-05-16T12:58:57Z</time>
      </trkpt>
      <trkpt lat="47.17665" lon="-1.47404">
        <ele>7.55</ele>
        <time>2020-05-16T12:58:59Z</time>
      </trkpt>
      <trkpt lat="47.17649" lon="-1.47396">
        <ele>6.9</ele>
        <time>2020-05-16T12:59:01Z</time>
      </trkpt>
      <trkpt lat="47.17632" lon="-1.47389">
        <ele>5.39</ele>
        <time>2020-05-16T12:59:03Z</time>
      </trkpt>
      <trkpt lat="47.17616" lon="-1.47382">
        <ele>3.63</ele>
        <time>2020-05-16T12:59:05Z</time>
      </trkpt>
      <trkpt lat="47.17602" lon="-1.47378">
        <ele>2.84</ele>
        <time>2020-05-16T12:59:07Z</time>
      </trkpt>
      <trkpt lat="47.17588" lon="-1.47374">
        <ele>2.79</ele>
        <time>2020-05-16T12:59:09Z</time>
      </trkpt>
      <trkpt lat="47.17573" lon="-1.47371">
        <ele>2.53</ele>
        <time>2020-05-16T12:59:11Z</time>
      </trkpt>
      <trkpt lat="47.17557" lon="-1.47369">
        <ele>2.19</ele>
        <time>2020-05-16T12:59:13Z</time>
      </trkpt>
      <trkpt lat="47.17543" lon="-1.47367">
        <ele>2.88</ele>
        <time>2020-05-16T12:59:15Z</time>
      </trkpt>
      <trkpt lat="47.17529" lon="-1.47366">
        <ele>4.27</ele>
        <time>2020-05-16T12:59:17Z</time>
      </trkpt>
      <trkpt lat="47.17515" lon="-1.47367">
        <ele>4.74</ele>
        <time>2020-05-16T12:59:19Z</time>
      </trkpt>
      <trkpt lat="47.17502" lon="-1.47367">
        <ele>4.37</ele>
        <time>2020-05-16T12:59:21Z</time>
      </trkpt>
      <trkpt lat="47.17487" lon="-1.47368">
        <ele>4.18</ele>
        <time>2020-05-16T12:59:23Z</time>
      </trkpt>
      <trkpt lat="47.17473" lon="-1.47368">
        <ele>4.54</ele>
        <time>2020-05-16T12:59:25Z</time>
      </trkpt>
      <trkpt lat="47.1746" lon="-1.47369">
        <ele>4.74</ele>
        <time>2020-05-16T12:59:27Z</time>
      </trkpt>
      <trkpt lat="47.17449" lon="-1.4737">
        <ele>4.56</ele>
        <time>2020-05-16T12:59:29Z</time>
      </trkpt>
      <trkpt lat="47.17436" lon="-1.4737">
        <ele>4.46</ele>
        <time>2020-05-16T12:59:31Z</time>
      </trkpt>
      <trkpt lat="47.17423" lon="-1.47371">
        <ele>5.04</ele>
        <time>2020-05-16T12:59:33Z</time>
      </trkpt>
      <trkpt lat="47.1741" lon="-1.47372">
        <ele>6.42</ele>
        <time>2020-05-16T12:59:35Z</time>
      </trkpt>
      <trkpt lat="47.17396" lon="-1.47374">
        <ele>7.57</ele>
        <time>2020-05-16T12:59:37Z</time>
      </trkpt>
      <trkpt lat="47.17383" lon="-1.47377">
        <ele>7.63</ele>
        <time>2020-05-16T12:59:39Z</time>
      </trkpt>
      <trkpt lat="47.1737" lon="-1.4738">
        <ele>7.9</ele>
        <time>2020-05-16T12:59:41Z</time>
      </trkpt>
      <trkpt lat="47.17357" lon="-1.47382">
        <ele>7.91</ele>
        <time>2020-05-16T12:59:43Z</time>
      </trkpt>
      <trkpt lat="47.17343" lon="-1.47385">
        <ele>7.89</ele>
        <time>2020-05-16T12:59:45Z</time>
      </trkpt>
      <trkpt lat="47.17329" lon="-1.47388">
        <ele>7.7</ele>
        <time>2020-05-16T12:59:47Z</time>
      </trkpt>
      <trkpt lat="47.17318" lon="-1.47393">
        <ele>7.59</ele>
        <time>2020-05-16T12:59:49Z</time>
      </trkpt>
      <trkpt lat="47.17312" lon="-1.47405">
        <ele>7.63</ele>
        <time>2020-05-16T12:59:53Z</time>
      </trkpt>
      <trkpt lat="47.17309" lon="-1.47417">
        <ele>7.72</ele>
        <time>2020-05-16T12:59:55Z</time>
      </trkpt>
      <trkpt lat="47.17311" lon="-1.47435">
        <ele>8</ele>
        <time>2020-05-16T12:59:57Z</time>
      </trkpt>
      <trkpt lat="47.17312" lon="-1.47453">
        <ele>9.02</ele>
        <time>2020-05-16T12:59:59Z</time>
      </trkpt>
      <trkpt lat="47.17314" lon="-1.47472">
        <ele>10.31</ele>
        <time>2020-05-16T13:00:01Z</time>
      </trkpt>
      <trkpt lat="47.17317" lon="-1.4749">
        <ele>11.7</ele>
        <time>2020-05-16T13:00:03Z</time>
      </trkpt>
      <trkpt lat="47.17318" lon="-1.47505">
        <ele>11.53</ele>
        <time>2020-05-16T13:00:05Z</time>
      </trkpt>
      <trkpt lat="47.17319" lon="-1.47524">
        <ele>10.17</ele>
        <time>2020-05-16T13:00:07Z</time>
      </trkpt>
      <trkpt lat="47.17319" lon="-1.47541">
        <ele>10.65</ele>
        <time>2020-05-16T13:00:09Z</time>
      </trkpt>
      <trkpt lat="47.17319" lon="-1.47562">
        <ele>11.37</ele>
        <time>2020-05-16T13:00:11Z</time>
      </trkpt>
      <trkpt lat="47.17317" lon="-1.4758">
        <ele>11.24</ele>
        <time>2020-05-16T13:00:13Z</time>
      </trkpt>
      <trkpt lat="47.17317" lon="-1.47599">
        <ele>11.45</ele>
        <time>2020-05-16T13:00:15Z</time>
      </trkpt>
      <trkpt lat="47.17316" lon="-1.47616">
        <ele>11.77</ele>
        <time>2020-05-16T13:00:17Z</time>
      </trkpt>
      <trkpt lat="47.17314" lon="-1.47637">
        <ele>10.94</ele>
        <time>2020-05-16T13:00:19Z</time>
      </trkpt>
      <trkpt lat="47.17312" lon="-1.47657">
        <ele>9.97</ele>
        <time>2020-05-16T13:00:21Z</time>
      </trkpt>
      <trkpt lat="47.1731" lon="-1.47673">
        <ele>9.71</ele>
        <time>2020-05-16T13:00:23Z</time>
      </trkpt>
      <trkpt lat="47.17307" lon="-1.47693">
        <ele>8.79</ele>
        <time>2020-05-16T13:00:25Z</time>
      </trkpt>
      <trkpt lat="47.17305" lon="-1.4771">
        <ele>8.83</ele>
        <time>2020-05-16T13:00:27Z</time>
      </trkpt>
      <trkpt lat="47.17301" lon="-1.47731">
        <ele>8.81</ele>
        <time>2020-05-16T13:00:29Z</time>
      </trkpt>
      <trkpt lat="47.17298" lon="-1.4775">
        <ele>8.32</ele>
        <time>2020-05-16T13:00:31Z</time>
      </trkpt>
      <trkpt lat="47.17295" lon="-1.47768">
        <ele>8.4</ele>
        <time>2020-05-16T13:00:33Z</time>
      </trkpt>
      <trkpt lat="47.17291" lon="-1.4779">
        <ele>8.67</ele>
        <time>2020-05-16T13:00:35Z</time>
      </trkpt>
      <trkpt lat="47.17286" lon="-1.47811">
        <ele>7.72</ele>
        <time>2020-05-16T13:00:37Z</time>
      </trkpt>
      <trkpt lat="47.17282" lon="-1.47832">
        <ele>7.3</ele>
        <time>2020-05-16T13:00:39Z</time>
      </trkpt>
      <trkpt lat="47.17278" lon="-1.47853">
        <ele>7.86</ele>
        <time>2020-05-16T13:00:41Z</time>
      </trkpt>
      <trkpt lat="47.17275" lon="-1.47872">
        <ele>8.31</ele>
        <time>2020-05-16T13:00:43Z</time>
      </trkpt>
      <trkpt lat="47.17271" lon="-1.47892">
        <ele>8.6</ele>
        <time>2020-05-16T13:00:45Z</time>
      </trkpt>
      <trkpt lat="47.17268" lon="-1.47909">
        <ele>8.39</ele>
        <time>2020-05-16T13:00:47Z</time>
      </trkpt>
      <trkpt lat="47.17266" lon="-1.47924">
        <ele>8.53</ele>
        <time>2020-05-16T13:00:49Z</time>
      </trkpt>
      <trkpt lat="47.17265" lon="-1.47941">
        <ele>8.8</ele>
        <time>2020-05-16T13:00:51Z</time>
      </trkpt>
      <trkpt lat="47.17261" lon="-1.47959">
        <ele>7.02</ele>
        <time>2020-05-16T13:00:53Z</time>
      </trkpt>
      <trkpt lat="47.17253" lon="-1.47975">
        <ele>5.41</ele>
        <time>2020-05-16T13:00:55Z</time>
      </trkpt>
      <trkpt lat="47.17241" lon="-1.47986">
        <ele>5.65</ele>
        <time>2020-05-16T13:00:56Z</time>
      </trkpt>
      <trkpt lat="47.17231" lon="-1.47997">
        <ele>6.17</ele>
        <time>2020-05-16T13:00:58Z</time>
      </trkpt>
      <trkpt lat="47.1722" lon="-1.48011">
        <ele>4.98</ele>
        <time>2020-05-16T13:01:00Z</time>
      </trkpt>
      <trkpt lat="47.1721" lon="-1.48024">
        <ele>4.02</ele>
        <time>2020-05-16T13:01:02Z</time>
      </trkpt>
      <trkpt lat="47.17198" lon="-1.48038">
        <ele>4.27</ele>
        <time>2020-05-16T13:01:04Z</time>
      </trkpt>
      <trkpt lat="47.17188" lon="-1.48051">
        <ele>5.57</ele>
        <time>2020-05-16T13:01:06Z</time>
      </trkpt>
      <trkpt lat="47.17177" lon="-1.48064">
        <ele>6.43</ele>
        <time>2020-05-16T13:01:08Z</time>
      </trkpt>
      <trkpt lat="47.17167" lon="-1.48075">
        <ele>6.13</ele>
        <time>2020-05-16T13:01:10Z</time>
      </trkpt>
      <trkpt lat="47.17157" lon="-1.48084">
        <ele>5.71</ele>
        <time>2020-05-16T13:01:12Z</time>
      </trkpt>
      <trkpt lat="47.17147" lon="-1.48095">
        <ele>2.87</ele>
        <time>2020-05-16T13:01:15Z</time>
      </trkpt>
      <trkpt lat="47.17136" lon="-1.48107">
        <ele>0.92</ele>
        <time>2020-05-16T13:01:17Z</time>
      </trkpt>
      <trkpt lat="47.17126" lon="-1.48119">
        <ele>-0.5</ele>
        <time>2020-05-16T13:01:19Z</time>
      </trkpt>
      <trkpt lat="47.17117" lon="-1.48136">
        <ele>-0.67</ele>
        <time>2020-05-16T13:01:21Z</time>
      </trkpt>
      <trkpt lat="47.17104" lon="-1.4815">
        <ele>0.18</ele>
        <time>2020-05-16T13:01:23Z</time>
      </trkpt>
      <trkpt lat="47.1709" lon="-1.4816">
        <ele>0.76</ele>
        <time>2020-05-16T13:01:25Z</time>
      </trkpt>
      <trkpt lat="47.17079" lon="-1.48167">
        <ele>1.97</ele>
        <time>2020-05-16T13:01:27Z</time>
      </trkpt>
      <trkpt lat="47.17065" lon="-1.48178">
        <ele>2.59</ele>
        <time>2020-05-16T13:01:29Z</time>
      </trkpt>
      <trkpt lat="47.17054" lon="-1.4819">
        <ele>2.67</ele>
        <time>2020-05-16T13:01:31Z</time>
      </trkpt>
      <trkpt lat="47.17042" lon="-1.48206">
        <ele>2.4</ele>
        <time>2020-05-16T13:01:33Z</time>
      </trkpt>
      <trkpt lat="47.17029" lon="-1.48212">
        <ele>2.05</ele>
        <time>2020-05-16T13:01:35Z</time>
      </trkpt>
      <trkpt lat="47.17015" lon="-1.48217">
        <ele>1.62</ele>
        <time>2020-05-16T13:01:37Z</time>
      </trkpt>
      <trkpt lat="47.17003" lon="-1.48221">
        <ele>2</ele>
        <time>2020-05-16T13:01:39Z</time>
      </trkpt>
      <trkpt lat="47.1699" lon="-1.48223">
        <ele>2.14</ele>
        <time>2020-05-16T13:01:41Z</time>
      </trkpt>
      <trkpt lat="47.16974" lon="-1.48224">
        <ele>1.86</ele>
        <time>2020-05-16T13:01:43Z</time>
      </trkpt>
      <trkpt lat="47.16961" lon="-1.48226">
        <ele>1.53</ele>
        <time>2020-05-16T13:01:45Z</time>
      </trkpt>
      <trkpt lat="47.16948" lon="-1.48227">
        <ele>1.54</ele>
        <time>2020-05-16T13:01:47Z</time>
      </trkpt>
      <trkpt lat="47.16939" lon="-1.48234">
        <ele>0.41</ele>
        <time>2020-05-16T13:01:50Z</time>
      </trkpt>
      <trkpt lat="47.16937" lon="-1.48247">
        <ele>0.39</ele>
        <time>2020-05-16T13:01:52Z</time>
      </trkpt>
      <trkpt lat="47.16941" lon="-1.48265">
        <ele>0.18</ele>
        <time>2020-05-16T13:01:55Z</time>
      </trkpt>
      <trkpt lat="47.16944" lon="-1.48281">
        <ele>-0.64</ele>
        <time>2020-05-16T13:01:57Z</time>
      </trkpt>
      <trkpt lat="47.16945" lon="-1.48301">
        <ele>-2.69</ele>
        <time>2020-05-16T13:01:59Z</time>
      </trkpt>
      <trkpt lat="47.16944" lon="-1.48319">
        <ele>-3.89</ele>
        <time>2020-05-16T13:02:01Z</time>
      </trkpt>
      <trkpt lat="47.16942" lon="-1.48339">
        <ele>-5.2</ele>
        <time>2020-05-16T13:02:03Z</time>
      </trkpt>
      <trkpt lat="47.16938" lon="-1.48355">
        <ele>-5.49</ele>
        <time>2020-05-16T13:02:05Z</time>
      </trkpt>
      <trkpt lat="47.16933" lon="-1.48378">
        <ele>-5.27</ele>
        <time>2020-05-16T13:02:07Z</time>
      </trkpt>
      <trkpt lat="47.16927" lon="-1.48397">
        <ele>-4.59</ele>
        <time>2020-05-16T13:02:09Z</time>
      </trkpt>
      <trkpt lat="47.16922" lon="-1.48413">
        <ele>-4.1</ele>
        <time>2020-05-16T13:02:11Z</time>
      </trkpt>
      <trkpt lat="47.16918" lon="-1.48429">
        <ele>-2.32</ele>
        <time>2020-05-16T13:02:13Z</time>
      </trkpt>
      <trkpt lat="47.16913" lon="-1.48447">
        <ele>-0.26</ele>
        <time>2020-05-16T13:02:15Z</time>
      </trkpt>
      <trkpt lat="47.16907" lon="-1.48462">
        <ele>1.97</ele>
        <time>2020-05-16T13:02:17Z</time>
      </trkpt>
      <trkpt lat="47.16902" lon="-1.48479">
        <ele>3</ele>
        <time>2020-05-16T13:02:19Z</time>
      </trkpt>
      <trkpt lat="47.16897" lon="-1.48496">
        <ele>2.19</ele>
        <time>2020-05-16T13:02:21Z</time>
      </trkpt>
      <trkpt lat="47.16893" lon="-1.48514">
        <ele>-0.14</ele>
        <time>2020-05-16T13:02:23Z</time>
      </trkpt>
      <trkpt lat="47.16892" lon="-1.48534">
        <ele>-2.56</ele>
        <time>2020-05-16T13:02:25Z</time>
      </trkpt>
      <trkpt lat="47.16892" lon="-1.48554">
        <ele>-4.23</ele>
        <time>2020-05-16T13:02:27Z</time>
      </trkpt>
      <trkpt lat="47.16893" lon="-1.48571">
        <ele>-4.86</ele>
        <time>2020-05-16T13:02:29Z</time>
      </trkpt>
      <trkpt lat="47.16897" lon="-1.48593">
        <ele>-6.01</ele>
        <time>2020-05-16T13:02:31Z</time>
      </trkpt>
      <trkpt lat="47.16901" lon="-1.48612">
        <ele>-6.94</ele>
        <time>2020-05-16T13:02:33Z</time>
      </trkpt>
      <trkpt lat="47.16904" lon="-1.4863">
        <ele>-7.86</ele>
        <time>2020-05-16T13:02:35Z</time>
      </trkpt>
      <trkpt lat="47.16907" lon="-1.4865">
        <ele>-8.99</ele>
        <time>2020-05-16T13:02:37Z</time>
      </trkpt>
      <trkpt lat="47.16909" lon="-1.48673">
        <ele>-9.74</ele>
        <time>2020-05-16T13:02:39Z</time>
      </trkpt>
      <trkpt lat="47.16914" lon="-1.48693">
        <ele>-9.67</ele>
        <time>2020-05-16T13:02:41Z</time>
      </trkpt>
      <trkpt lat="47.16917" lon="-1.4871">
        <ele>-8.81</ele>
        <time>2020-05-16T13:02:43Z</time>
      </trkpt>
      <trkpt lat="47.16922" lon="-1.48728">
        <ele>-7.49</ele>
        <time>2020-05-16T13:02:45Z</time>
      </trkpt>
      <trkpt lat="47.16926" lon="-1.48744">
        <ele>-7.45</ele>
        <time>2020-05-16T13:02:47Z</time>
      </trkpt>
      <trkpt lat="47.1693" lon="-1.4876">
        <ele>-7.98</ele>
        <time>2020-05-16T13:02:49Z</time>
      </trkpt>
      <trkpt lat="47.16933" lon="-1.48779">
        <ele>-8.35</ele>
        <time>2020-05-16T13:02:51Z</time>
      </trkpt>
      <trkpt lat="47.16936" lon="-1.48798">
        <ele>-8.57</ele>
        <time>2020-05-16T13:02:53Z</time>
      </trkpt>
      <trkpt lat="47.16939" lon="-1.48818">
        <ele>-8.47</ele>
        <time>2020-05-16T13:02:55Z</time>
      </trkpt>
      <trkpt lat="47.16943" lon="-1.48838">
        <ele>-8.39</ele>
        <time>2020-05-16T13:02:57Z</time>
      </trkpt>
      <trkpt lat="47.16948" lon="-1.48857">
        <ele>-7.61</ele>
        <time>2020-05-16T13:02:59Z</time>
      </trkpt>
      <trkpt lat="47.16953" lon="-1.48877">
        <ele>-7.54</ele>
        <time>2020-05-16T13:03:01Z</time>
      </trkpt>
      <trkpt lat="47.16957" lon="-1.48894">
        <ele>-7.9</ele>
        <time>2020-05-16T13:03:03Z</time>
      </trkpt>
      <trkpt lat="47.16962" lon="-1.48911">
        <ele>-7.93</ele>
        <time>2020-05-16T13:03:05Z</time>
      </trkpt>
      <trkpt lat="47.16967" lon="-1.48929">
        <ele>-8.51</ele>
        <time>2020-05-16T13:03:07Z</time>
      </trkpt>
      <trkpt lat="47.16971" lon="-1.48946">
        <ele>-8.87</ele>
        <time>2020-05-16T13:03:09Z</time>
      </trkpt>
      <trkpt lat="47.16975" lon="-1.48963">
        <ele>-8.31</ele>
        <time>2020-05-16T13:03:11Z</time>
      </trkpt>
      <trkpt lat="47.1698" lon="-1.4898">
        <ele>-8.15</ele>
        <time>2020-05-16T13:03:13Z</time>
      </trkpt>
      <trkpt lat="47.16985" lon="-1.48999">
        <ele>-8.81</ele>
        <time>2020-05-16T13:03:15Z</time>
      </trkpt>
      <trkpt lat="47.1699" lon="-1.49018">
        <ele>-9.22</ele>
        <time>2020-05-16T13:03:17Z</time>
      </trkpt>
      <trkpt lat="47.16996" lon="-1.49035">
        <ele>-9.44</ele>
        <time>2020-05-16T13:03:19Z</time>
      </trkpt>
      <trkpt lat="47.17002" lon="-1.49051">
        <ele>-9.29</ele>
        <time>2020-05-16T13:03:21Z</time>
      </trkpt>
      <trkpt lat="47.17007" lon="-1.49068">
        <ele>-8.63</ele>
        <time>2020-05-16T13:03:23Z</time>
      </trkpt>
      <trkpt lat="47.17011" lon="-1.49086">
        <ele>-8.25</ele>
        <time>2020-05-16T13:03:25Z</time>
      </trkpt>
      <trkpt lat="47.17016" lon="-1.49105">
        <ele>-7.08</ele>
        <time>2020-05-16T13:03:27Z</time>
      </trkpt>
      <trkpt lat="47.17021" lon="-1.49124">
        <ele>-6.4</ele>
        <time>2020-05-16T13:03:29Z</time>
      </trkpt>
      <trkpt lat="47.17025" lon="-1.49142">
        <ele>-6.52</ele>
        <time>2020-05-16T13:03:31Z</time>
      </trkpt>
      <trkpt lat="47.17031" lon="-1.49161">
        <ele>-7.57</ele>
        <time>2020-05-16T13:03:33Z</time>
      </trkpt>
      <trkpt lat="47.17037" lon="-1.49178">
        <ele>-8.67</ele>
        <time>2020-05-16T13:03:35Z</time>
      </trkpt>
      <trkpt lat="47.17041" lon="-1.49196">
        <ele>-8.54</ele>
        <time>2020-05-16T13:03:37Z</time>
      </trkpt>
      <trkpt lat="47.17046" lon="-1.49215">
        <ele>-8.9</ele>
        <time>2020-05-16T13:03:39Z</time>
      </trkpt>
      <trkpt lat="47.17051" lon="-1.49233">
        <ele>-8.99</ele>
        <time>2020-05-16T13:03:41Z</time>
      </trkpt>
      <trkpt lat="47.17057" lon="-1.4925">
        <ele>-8.17</ele>
        <time>2020-05-16T13:03:43Z</time>
      </trkpt>
      <trkpt lat="47.17063" lon="-1.49268">
        <ele>-7.74</ele>
        <time>2020-05-16T13:03:45Z</time>
      </trkpt>
      <trkpt lat="47.17068" lon="-1.49284">
        <ele>-8.29</ele>
        <time>2020-05-16T13:03:47Z</time>
      </trkpt>
      <trkpt lat="47.17075" lon="-1.49299">
        <ele>-8.63</ele>
        <time>2020-05-16T13:03:49Z</time>
      </trkpt>
      <trkpt lat="47.17078" lon="-1.49314">
        <ele>-9.09</ele>
        <time>2020-05-16T13:03:51Z</time>
      </trkpt>
      <trkpt lat="47.17081" lon="-1.49326">
        <ele>-9.17</ele>
        <time>2020-05-16T13:03:53Z</time>
      </trkpt>
      <trkpt lat="47.17086" lon="-1.49339">
        <ele>-9.03</ele>
        <time>2020-05-16T13:03:55Z</time>
      </trkpt>
      <trkpt lat="47.1709" lon="-1.49355">
        <ele>-8.72</ele>
        <time>2020-05-16T13:03:58Z</time>
      </trkpt>
      <trkpt lat="47.17093" lon="-1.49374">
        <ele>-8.51</ele>
        <time>2020-05-16T13:04:01Z</time>
      </trkpt>
      <trkpt lat="47.17098" lon="-1.49387">
        <ele>-8.26</ele>
        <time>2020-05-16T13:04:04Z</time>
      </trkpt>
      <trkpt lat="47.17104" lon="-1.49401">
        <ele>-7.72</ele>
        <time>2020-05-16T13:04:08Z</time>
      </trkpt>
      <trkpt lat="47.17108" lon="-1.49414">
        <ele>-7.39</ele>
        <time>2020-05-16T13:04:11Z</time>
      </trkpt>
      <trkpt lat="47.17113" lon="-1.49427">
        <ele>-7.37</ele>
        <time>2020-05-16T13:04:13Z</time>
      </trkpt>
      <trkpt lat="47.17118" lon="-1.49445">
        <ele>-7.21</ele>
        <time>2020-05-16T13:04:16Z</time>
      </trkpt>
      <trkpt lat="47.17121" lon="-1.49464">
        <ele>-6.2</ele>
        <time>2020-05-16T13:04:18Z</time>
      </trkpt>
      <trkpt lat="47.17126" lon="-1.4948">
        <ele>-4.15</ele>
        <time>2020-05-16T13:04:21Z</time>
      </trkpt>
      <trkpt lat="47.1713" lon="-1.49498">
        <ele>-4.15</ele>
        <time>2020-05-16T13:04:23Z</time>
      </trkpt>
      <trkpt lat="47.17135" lon="-1.4952">
        <ele>-4.41</ele>
        <time>2020-05-16T13:04:25Z</time>
      </trkpt>
      <trkpt lat="47.17139" lon="-1.49539">
        <ele>-3.62</ele>
        <time>2020-05-16T13:04:27Z</time>
      </trkpt>
      <trkpt lat="47.17144" lon="-1.49565">
        <ele>-2.58</ele>
        <time>2020-05-16T13:04:29Z</time>
      </trkpt>
      <trkpt lat="47.17147" lon="-1.49582">
        <ele>-1.15</ele>
        <time>2020-05-16T13:04:31Z</time>
      </trkpt>
      <trkpt lat="47.17152" lon="-1.49599">
        <ele>-0.27</ele>
        <time>2020-05-16T13:04:33Z</time>
      </trkpt>
      <trkpt lat="47.17157" lon="-1.49622">
        <ele>-1</ele>
        <time>2020-05-16T13:04:35Z</time>
      </trkpt>
      <trkpt lat="47.17161" lon="-1.49638">
        <ele>-2.49</ele>
        <time>2020-05-16T13:04:37Z</time>
      </trkpt>
      <trkpt lat="47.17166" lon="-1.49657">
        <ele>-4.1</ele>
        <time>2020-05-16T13:04:39Z</time>
      </trkpt>
      <trkpt lat="47.17172" lon="-1.49678">
        <ele>-5.11</ele>
        <time>2020-05-16T13:04:41Z</time>
      </trkpt>
      <trkpt lat="47.17179" lon="-1.49699">
        <ele>-6.75</ele>
        <time>2020-05-16T13:04:43Z</time>
      </trkpt>
      <trkpt lat="47.17186" lon="-1.49719">
        <ele>-8.43</ele>
        <time>2020-05-16T13:04:45Z</time>
      </trkpt>
      <trkpt lat="47.17192" lon="-1.49736">
        <ele>-10.02</ele>
        <time>2020-05-16T13:04:47Z</time>
      </trkpt>
      <trkpt lat="47.17197" lon="-1.49755">
        <ele>-10.73</ele>
        <time>2020-05-16T13:04:49Z</time>
      </trkpt>
      <trkpt lat="47.17204" lon="-1.49771">
        <ele>-10.27</ele>
        <time>2020-05-16T13:04:51Z</time>
      </trkpt>
      <trkpt lat="47.1721" lon="-1.49788">
        <ele>-9.2</ele>
        <time>2020-05-16T13:04:53Z</time>
      </trkpt>
      <trkpt lat="47.17217" lon="-1.49807">
        <ele>-8.9</ele>
        <time>2020-05-16T13:04:55Z</time>
      </trkpt>
      <trkpt lat="47.17223" lon="-1.49824">
        <ele>-9.18</ele>
        <time>2020-05-16T13:04:57Z</time>
      </trkpt>
      <trkpt lat="47.17229" lon="-1.49843">
        <ele>-10.68</ele>
        <time>2020-05-16T13:04:59Z</time>
      </trkpt>
      <trkpt lat="47.17237" lon="-1.49864">
        <ele>-10.47</ele>
        <time>2020-05-16T13:05:01Z</time>
      </trkpt>
      <trkpt lat="47.17243" lon="-1.49882">
        <ele>-9.31</ele>
        <time>2020-05-16T13:05:03Z</time>
      </trkpt>
      <trkpt lat="47.17249" lon="-1.49899">
        <ele>-8.83</ele>
        <time>2020-05-16T13:05:05Z</time>
      </trkpt>
      <trkpt lat="47.17255" lon="-1.49919">
        <ele>-9.02</ele>
        <time>2020-05-16T13:05:07Z</time>
      </trkpt>
      <trkpt lat="47.17261" lon="-1.49937">
        <ele>-9.63</ele>
        <time>2020-05-16T13:05:09Z</time>
      </trkpt>
      <trkpt lat="47.17266" lon="-1.49955">
        <ele>-9.85</ele>
        <time>2020-05-16T13:05:11Z</time>
      </trkpt>
      <trkpt lat="47.17272" lon="-1.49975">
        <ele>-9.5</ele>
        <time>2020-05-16T13:05:13Z</time>
      </trkpt>
      <trkpt lat="47.17277" lon="-1.49993">
        <ele>-8.42</ele>
        <time>2020-05-16T13:05:15Z</time>
      </trkpt>
      <trkpt lat="47.17284" lon="-1.50011">
        <ele>-9.63</ele>
        <time>2020-05-16T13:05:17Z</time>
      </trkpt>
      <trkpt lat="47.17293" lon="-1.50027">
        <ele>-11.81</ele>
        <time>2020-05-16T13:05:19Z</time>
      </trkpt>
      <trkpt lat="47.17302" lon="-1.50042">
        <ele>-12.71</ele>
        <time>2020-05-16T13:05:21Z</time>
      </trkpt>
      <trkpt lat="47.1731" lon="-1.50055">
        <ele>-12.88</ele>
        <time>2020-05-16T13:05:23Z</time>
      </trkpt>
      <trkpt lat="47.17319" lon="-1.50069">
        <ele>-12.67</ele>
        <time>2020-05-16T13:05:25Z</time>
      </trkpt>
      <trkpt lat="47.17327" lon="-1.50082">
        <ele>-12.16</ele>
        <time>2020-05-16T13:05:27Z</time>
      </trkpt>
      <trkpt lat="47.17335" lon="-1.50097">
        <ele>-10.94</ele>
        <time>2020-05-16T13:05:29Z</time>
      </trkpt>
      <trkpt lat="47.17343" lon="-1.50113">
        <ele>-10.38</ele>
        <time>2020-05-16T13:05:31Z</time>
      </trkpt>
      <trkpt lat="47.1735" lon="-1.50129">
        <ele>-8.96</ele>
        <time>2020-05-16T13:05:33Z</time>
      </trkpt>
      <trkpt lat="47.17358" lon="-1.50147">
        <ele>-8.53</ele>
        <time>2020-05-16T13:05:35Z</time>
      </trkpt>
      <trkpt lat="47.17365" lon="-1.50162">
        <ele>-9.78</ele>
        <time>2020-05-16T13:05:37Z</time>
      </trkpt>
      <trkpt lat="47.17371" lon="-1.50173">
        <ele>-11.17</ele>
        <time>2020-05-16T13:05:39Z</time>
      </trkpt>
      <trkpt lat="47.17379" lon="-1.50188">
        <ele>-11.46</ele>
        <time>2020-05-16T13:05:41Z</time>
      </trkpt>
      <trkpt lat="47.17387" lon="-1.50205">
        <ele>-11.91</ele>
        <time>2020-05-16T13:05:43Z</time>
      </trkpt>
      <trkpt lat="47.17394" lon="-1.50221">
        <ele>-11.65</ele>
        <time>2020-05-16T13:05:45Z</time>
      </trkpt>
      <trkpt lat="47.17402" lon="-1.50242">
        <ele>-10.7</ele>
        <time>2020-05-16T13:05:47Z</time>
      </trkpt>
      <trkpt lat="47.17405" lon="-1.50255">
        <ele>-10.25</ele>
        <time>2020-05-16T13:05:48Z</time>
      </trkpt>
      <trkpt lat="47.1741" lon="-1.50272">
        <ele>-8.62</ele>
        <time>2020-05-16T13:05:50Z</time>
      </trkpt>
      <trkpt lat="47.17414" lon="-1.50289">
        <ele>-6.56</ele>
        <time>2020-05-16T13:05:52Z</time>
      </trkpt>
      <trkpt lat="47.17418" lon="-1.50305">
        <ele>-3.82</ele>
        <time>2020-05-16T13:05:54Z</time>
      </trkpt>
      <trkpt lat="47.17423" lon="-1.50319">
        <ele>-2.51</ele>
        <time>2020-05-16T13:05:56Z</time>
      </trkpt>
      <trkpt lat="47.17429" lon="-1.50337">
        <ele>-1.96</ele>
        <time>2020-05-16T13:05:58Z</time>
      </trkpt>
      <trkpt lat="47.17438" lon="-1.50356">
        <ele>-1.49</ele>
        <time>2020-05-16T13:06:00Z</time>
      </trkpt>
      <trkpt lat="47.17445" lon="-1.5037">
        <ele>-0.12</ele>
        <time>2020-05-16T13:06:02Z</time>
      </trkpt>
      <trkpt lat="47.17454" lon="-1.50387">
        <ele>1.73</ele>
        <time>2020-05-16T13:06:04Z</time>
      </trkpt>
      <trkpt lat="47.17464" lon="-1.50404">
        <ele>2.82</ele>
        <time>2020-05-16T13:06:06Z</time>
      </trkpt>
      <trkpt lat="47.17472" lon="-1.50419">
        <ele>3.46</ele>
        <time>2020-05-16T13:06:08Z</time>
      </trkpt>
      <trkpt lat="47.17479" lon="-1.50434">
        <ele>2.68</ele>
        <time>2020-05-16T13:06:10Z</time>
      </trkpt>
      <trkpt lat="47.17486" lon="-1.50448">
        <ele>0.7</ele>
        <time>2020-05-16T13:06:12Z</time>
      </trkpt>
      <trkpt lat="47.17493" lon="-1.50461">
        <ele>-0.67</ele>
        <time>2020-05-16T13:06:14Z</time>
      </trkpt>
      <trkpt lat="47.17501" lon="-1.50475">
        <ele>-1.78</ele>
        <time>2020-05-16T13:06:16Z</time>
      </trkpt>
      <trkpt lat="47.17511" lon="-1.5049">
        <ele>-3.11</ele>
        <time>2020-05-16T13:06:18Z</time>
      </trkpt>
      <trkpt lat="47.17518" lon="-1.50501">
        <ele>-2.94</ele>
        <time>2020-05-16T13:06:20Z</time>
      </trkpt>
      <trkpt lat="47.17527" lon="-1.50517">
        <ele>-1.74</ele>
        <time>2020-05-16T13:06:22Z</time>
      </trkpt>
      <trkpt lat="47.17537" lon="-1.50533">
        <ele>-1.47</ele>
        <time>2020-05-16T13:06:24Z</time>
      </trkpt>
      <trkpt lat="47.17548" lon="-1.50551">
        <ele>-2.13</ele>
        <time>2020-05-16T13:06:26Z</time>
      </trkpt>
      <trkpt lat="47.17559" lon="-1.50568">
        <ele>-3.34</ele>
        <time>2020-05-16T13:06:28Z</time>
      </trkpt>
      <trkpt lat="47.17569" lon="-1.50583">
        <ele>-3.84</ele>
        <time>2020-05-16T13:06:30Z</time>
      </trkpt>
      <trkpt lat="47.17579" lon="-1.50598">
        <ele>-2.78</ele>
        <time>2020-05-16T13:06:32Z</time>
      </trkpt>
      <trkpt lat="47.1759" lon="-1.50613">
        <ele>-2.24</ele>
        <time>2020-05-16T13:06:34Z</time>
      </trkpt>
      <trkpt lat="47.17603" lon="-1.5063">
        <ele>-3.14</ele>
        <time>2020-05-16T13:06:36Z</time>
      </trkpt>
      <trkpt lat="47.17609" lon="-1.5064">
        <ele>-3.56</ele>
        <time>2020-05-16T13:06:37Z</time>
      </trkpt>
      <trkpt lat="47.1762" lon="-1.50658">
        <ele>-4.33</ele>
        <time>2020-05-16T13:06:39Z</time>
      </trkpt>
      <trkpt lat="47.17631" lon="-1.50674">
        <ele>-4.54</ele>
        <time>2020-05-16T13:06:41Z</time>
      </trkpt>
      <trkpt lat="47.17642" lon="-1.50687">
        <ele>-4.74</ele>
        <time>2020-05-16T13:06:43Z</time>
      </trkpt>
      <trkpt lat="47.17648" lon="-1.50701">
        <ele>-4.91</ele>
        <time>2020-05-16T13:06:45Z</time>
      </trkpt>
      <trkpt lat="47.17654" lon="-1.50714">
        <ele>-5.12</ele>
        <time>2020-05-16T13:06:47Z</time>
      </trkpt>
      <trkpt lat="47.17653" lon="-1.50729">
        <ele>-5.17</ele>
        <time>2020-05-16T13:06:49Z</time>
      </trkpt>
      <trkpt lat="47.17646" lon="-1.50743">
        <ele>-5.43</ele>
        <time>2020-05-16T13:06:51Z</time>
      </trkpt>
      <trkpt lat="47.17639" lon="-1.50759">
        <ele>-5.6</ele>
        <time>2020-05-16T13:06:53Z</time>
      </trkpt>
      <trkpt lat="47.17635" lon="-1.50779">
        <ele>-4.96</ele>
        <time>2020-05-16T13:06:55Z</time>
      </trkpt>
      <trkpt lat="47.17641" lon="-1.50793">
        <ele>-4</ele>
        <time>2020-05-16T13:06:57Z</time>
      </trkpt>
      <trkpt lat="47.17648" lon="-1.50804">
        <ele>-4.23</ele>
        <time>2020-05-16T13:06:59Z</time>
      </trkpt>
      <trkpt lat="47.17657" lon="-1.50814">
        <ele>-6.95</ele>
        <time>2020-05-16T13:07:01Z</time>
      </trkpt>
      <trkpt lat="47.17667" lon="-1.50822">
        <ele>-8.36</ele>
        <time>2020-05-16T13:07:03Z</time>
      </trkpt>
      <trkpt lat="47.17676" lon="-1.50817">
        <ele>-7.69</ele>
        <time>2020-05-16T13:07:05Z</time>
      </trkpt>
      <trkpt lat="47.17685" lon="-1.50808">
        <ele>-5.87</ele>
        <time>2020-05-16T13:07:07Z</time>
      </trkpt>
      <trkpt lat="47.17694" lon="-1.50797">
        <ele>-4.51</ele>
        <time>2020-05-16T13:07:09Z</time>
      </trkpt>
      <trkpt lat="47.17707" lon="-1.50795">
        <ele>-3.26</ele>
        <time>2020-05-16T13:07:12Z</time>
      </trkpt>
      <trkpt lat="47.17719" lon="-1.50809">
        <ele>-1.79</ele>
        <time>2020-05-16T13:07:14Z</time>
      </trkpt>
      <trkpt lat="47.1773" lon="-1.50824">
        <ele>0.33</ele>
        <time>2020-05-16T13:07:16Z</time>
      </trkpt>
      <trkpt lat="47.17741" lon="-1.50839">
        <ele>2.99</ele>
        <time>2020-05-16T13:07:18Z</time>
      </trkpt>
      <trkpt lat="47.17752" lon="-1.50851">
        <ele>4.38</ele>
        <time>2020-05-16T13:07:20Z</time>
      </trkpt>
      <trkpt lat="47.17763" lon="-1.50863">
        <ele>5.6</ele>
        <time>2020-05-16T13:07:22Z</time>
      </trkpt>
      <trkpt lat="47.17773" lon="-1.50875">
        <ele>5.75</ele>
        <time>2020-05-16T13:07:24Z</time>
      </trkpt>
      <trkpt lat="47.17782" lon="-1.50885">
        <ele>4.9</ele>
        <time>2020-05-16T13:07:26Z</time>
      </trkpt>
      <trkpt lat="47.17793" lon="-1.50899">
        <ele>5.3</ele>
        <time>2020-05-16T13:07:28Z</time>
      </trkpt>
      <trkpt lat="47.17804" lon="-1.5091">
        <ele>5.17</ele>
        <time>2020-05-16T13:07:30Z</time>
      </trkpt>
      <trkpt lat="47.17815" lon="-1.50919">
        <ele>3.84</ele>
        <time>2020-05-16T13:07:32Z</time>
      </trkpt>
      <trkpt lat="47.17825" lon="-1.50928">
        <ele>2.63</ele>
        <time>2020-05-16T13:07:34Z</time>
      </trkpt>
      <trkpt lat="47.17838" lon="-1.50939">
        <ele>1.55</ele>
        <time>2020-05-16T13:07:36Z</time>
      </trkpt>
      <trkpt lat="47.17847" lon="-1.50948">
        <ele>0.2</ele>
        <time>2020-05-16T13:07:38Z</time>
      </trkpt>
      <trkpt lat="47.17857" lon="-1.50958">
        <ele>-1.24</ele>
        <time>2020-05-16T13:07:40Z</time>
      </trkpt>
      <trkpt lat="47.17868" lon="-1.50971">
        <ele>-2.84</ele>
        <time>2020-05-16T13:07:42Z</time>
      </trkpt>
      <trkpt lat="47.17879" lon="-1.50983">
        <ele>-4.12</ele>
        <time>2020-05-16T13:07:44Z</time>
      </trkpt>
      <trkpt lat="47.17888" lon="-1.50994">
        <ele>-4.68</ele>
        <time>2020-05-16T13:07:46Z</time>
      </trkpt>
      <trkpt lat="47.17898" lon="-1.51004">
        <ele>-5.37</ele>
        <time>2020-05-16T13:07:48Z</time>
      </trkpt>
      <trkpt lat="47.17908" lon="-1.51019">
        <ele>-5.71</ele>
        <time>2020-05-16T13:07:50Z</time>
      </trkpt>
      <trkpt lat="47.17916" lon="-1.51029">
        <ele>-6.3</ele>
        <time>2020-05-16T13:07:52Z</time>
      </trkpt>
      <trkpt lat="47.17924" lon="-1.51042">
        <ele>-7.09</ele>
        <time>2020-05-16T13:07:54Z</time>
      </trkpt>
      <trkpt lat="47.17933" lon="-1.51056">
        <ele>-6.82</ele>
        <time>2020-05-16T13:07:56Z</time>
      </trkpt>
      <trkpt lat="47.17943" lon="-1.51071">
        <ele>-7.58</ele>
        <time>2020-05-16T13:07:58Z</time>
      </trkpt>
      <trkpt lat="47.1795" lon="-1.51084">
        <ele>-7.35</ele>
        <time>2020-05-16T13:08:00Z</time>
      </trkpt>
      <trkpt lat="47.17959" lon="-1.51099">
        <ele>-7.8</ele>
        <time>2020-05-16T13:08:02Z</time>
      </trkpt>
      <trkpt lat="47.17967" lon="-1.51109">
        <ele>-7.68</ele>
        <time>2020-05-16T13:08:04Z</time>
      </trkpt>
      <trkpt lat="47.17978" lon="-1.51117">
        <ele>-7.5</ele>
        <time>2020-05-16T13:08:06Z</time>
      </trkpt>
      <trkpt lat="47.1799" lon="-1.51129">
        <ele>-6.92</ele>
        <time>2020-05-16T13:08:08Z</time>
      </trkpt>
      <trkpt lat="47.18" lon="-1.51139">
        <ele>-6.86</ele>
        <time>2020-05-16T13:08:10Z</time>
      </trkpt>
      <trkpt lat="47.1801" lon="-1.51147">
        <ele>-6.77</ele>
        <time>2020-05-16T13:08:12Z</time>
      </trkpt>
      <trkpt lat="47.18022" lon="-1.51153">
        <ele>-4.56</ele>
        <time>2020-05-16T13:08:14Z</time>
      </trkpt>
      <trkpt lat="47.18034" lon="-1.51156">
        <ele>-1.68</ele>
        <time>2020-05-16T13:08:16Z</time>
      </trkpt>
      <trkpt lat="47.18047" lon="-1.51159">
        <ele>0.46</ele>
        <time>2020-05-16T13:08:18Z</time>
      </trkpt>
      <trkpt lat="47.18058" lon="-1.51166">
        <ele>1.28</ele>
        <time>2020-05-16T13:08:20Z</time>
      </trkpt>
      <trkpt lat="47.18061" lon="-1.51183">
        <ele>1.27</ele>
        <time>2020-05-16T13:08:22Z</time>
      </trkpt>
      <trkpt lat="47.1806" lon="-1.51197">
        <ele>-0.69</ele>
        <time>2020-05-16T13:08:24Z</time>
      </trkpt>
      <trkpt lat="47.18061" lon="-1.51217">
        <ele>-2.76</ele>
        <time>2020-05-16T13:08:26Z</time>
      </trkpt>
      <trkpt lat="47.18064" lon="-1.51238">
        <ele>-4.83</ele>
        <time>2020-05-16T13:08:28Z</time>
      </trkpt>
      <trkpt lat="47.18067" lon="-1.51258">
        <ele>-7.16</ele>
        <time>2020-05-16T13:08:30Z</time>
      </trkpt>
      <trkpt lat="47.18069" lon="-1.51276">
        <ele>-8.73</ele>
        <time>2020-05-16T13:08:32Z</time>
      </trkpt>
      <trkpt lat="47.18071" lon="-1.51294">
        <ele>-9.52</ele>
        <time>2020-05-16T13:08:34Z</time>
      </trkpt>
      <trkpt lat="47.18074" lon="-1.51314">
        <ele>-10.08</ele>
        <time>2020-05-16T13:08:36Z</time>
      </trkpt>
      <trkpt lat="47.18078" lon="-1.51332">
        <ele>-10.42</ele>
        <time>2020-05-16T13:08:38Z</time>
      </trkpt>
      <trkpt lat="47.18083" lon="-1.51352">
        <ele>-10.89</ele>
        <time>2020-05-16T13:08:40Z</time>
      </trkpt>
      <trkpt lat="47.18089" lon="-1.51369">
        <ele>-11.28</ele>
        <time>2020-05-16T13:08:42Z</time>
      </trkpt>
      <trkpt lat="47.18094" lon="-1.51384">
        <ele>-11.17</ele>
        <time>2020-05-16T13:08:44Z</time>
      </trkpt>
      <trkpt lat="47.181" lon="-1.51399">
        <ele>-11.04</ele>
        <time>2020-05-16T13:08:46Z</time>
      </trkpt>
      <trkpt lat="47.18105" lon="-1.51413">
        <ele>-11.15</ele>
        <time>2020-05-16T13:08:48Z</time>
      </trkpt>
      <trkpt lat="47.18111" lon="-1.51429">
        <ele>-11.83</ele>
        <time>2020-05-16T13:08:50Z</time>
      </trkpt>
      <trkpt lat="47.18117" lon="-1.51444">
        <ele>-11.81</ele>
        <time>2020-05-16T13:08:52Z</time>
      </trkpt>
      <trkpt lat="47.18122" lon="-1.51459">
        <ele>-10.92</ele>
        <time>2020-05-16T13:08:54Z</time>
      </trkpt>
      <trkpt lat="47.18127" lon="-1.51478">
        <ele>-9.96</ele>
        <time>2020-05-16T13:08:56Z</time>
      </trkpt>
      <trkpt lat="47.1813" lon="-1.51491">
        <ele>-9.11</ele>
        <time>2020-05-16T13:08:57Z</time>
      </trkpt>
      <trkpt lat="47.18134" lon="-1.5151">
        <ele>-6.54</ele>
        <time>2020-05-16T13:08:59Z</time>
      </trkpt>
      <trkpt lat="47.18138" lon="-1.51532">
        <ele>-4.68</ele>
        <time>2020-05-16T13:09:01Z</time>
      </trkpt>
      <trkpt lat="47.18143" lon="-1.51556">
        <ele>-3.1</ele>
        <time>2020-05-16T13:09:03Z</time>
      </trkpt>
      <trkpt lat="47.18145" lon="-1.51576">
        <ele>-1.19</ele>
        <time>2020-05-16T13:09:05Z</time>
      </trkpt>
      <trkpt lat="47.18148" lon="-1.51594">
        <ele>0.91</ele>
        <time>2020-05-16T13:09:07Z</time>
      </trkpt>
      <trkpt lat="47.18149" lon="-1.51611">
        <ele>1.59</ele>
        <time>2020-05-16T13:09:09Z</time>
      </trkpt>
      <trkpt lat="47.1815" lon="-1.51631">
        <ele>1.38</ele>
        <time>2020-05-16T13:09:11Z</time>
      </trkpt>
      <trkpt lat="47.18151" lon="-1.5165">
        <ele>0.71</ele>
        <time>2020-05-16T13:09:13Z</time>
      </trkpt>
      <trkpt lat="47.18152" lon="-1.51668">
        <ele>0.86</ele>
        <time>2020-05-16T13:09:15Z</time>
      </trkpt>
      <trkpt lat="47.18152" lon="-1.51684">
        <ele>-1.14</ele>
        <time>2020-05-16T13:09:18Z</time>
      </trkpt>
      <trkpt lat="47.18153" lon="-1.51697">
        <ele>-1.48</ele>
        <time>2020-05-16T13:09:20Z</time>
      </trkpt>
      <trkpt lat="47.18154" lon="-1.51712">
        <ele>-1.63</ele>
        <time>2020-05-16T13:09:23Z</time>
      </trkpt>
      <trkpt lat="47.18156" lon="-1.5173">
        <ele>-1.8</ele>
        <time>2020-05-16T13:09:26Z</time>
      </trkpt>
      <trkpt lat="47.18155" lon="-1.51744">
        <ele>-3.4</ele>
        <time>2020-05-16T13:09:28Z</time>
      </trkpt>
      <trkpt lat="47.18149" lon="-1.51757">
        <ele>-4.8</ele>
        <time>2020-05-16T13:09:30Z</time>
      </trkpt>
      <trkpt lat="47.18144" lon="-1.51768">
        <ele>-5.11</ele>
        <time>2020-05-16T13:09:32Z</time>
      </trkpt>
      <trkpt lat="47.18136" lon="-1.51786">
        <ele>-5.09</ele>
        <time>2020-05-16T13:09:34Z</time>
      </trkpt>
      <trkpt lat="47.18128" lon="-1.51803">
        <ele>-5.27</ele>
        <time>2020-05-16T13:09:36Z</time>
      </trkpt>
      <trkpt lat="47.18119" lon="-1.51814">
        <ele>-5.23</ele>
        <time>2020-05-16T13:09:38Z</time>
      </trkpt>
      <trkpt lat="47.18113" lon="-1.51829">
        <ele>-5.12</ele>
        <time>2020-05-16T13:09:40Z</time>
      </trkpt>
      <trkpt lat="47.18112" lon="-1.51847">
        <ele>-6.84</ele>
        <time>2020-05-16T13:09:42Z</time>
      </trkpt>
      <trkpt lat="47.18112" lon="-1.51865">
        <ele>-7.75</ele>
        <time>2020-05-16T13:09:44Z</time>
      </trkpt>
      <trkpt lat="47.18115" lon="-1.51888">
        <ele>-8.73</ele>
        <time>2020-05-16T13:09:47Z</time>
      </trkpt>
      <trkpt lat="47.18118" lon="-1.51902">
        <ele>-9.94</ele>
        <time>2020-05-16T13:09:49Z</time>
      </trkpt>
      <trkpt lat="47.18123" lon="-1.51915">
        <ele>-9.22</ele>
        <time>2020-05-16T13:09:51Z</time>
      </trkpt>
      <trkpt lat="47.18123" lon="-1.51935">
        <ele>-6.75</ele>
        <time>2020-05-16T13:09:54Z</time>
      </trkpt>
      <trkpt lat="47.18124" lon="-1.5195">
        <ele>-5.45</ele>
        <time>2020-05-16T13:09:56Z</time>
      </trkpt>
      <trkpt lat="47.18126" lon="-1.51971">
        <ele>-4.53</ele>
        <time>2020-05-16T13:09:59Z</time>
      </trkpt>
      <trkpt lat="47.18129" lon="-1.51988">
        <ele>-4.34</ele>
        <time>2020-05-16T13:10:01Z</time>
      </trkpt>
      <trkpt lat="47.18132" lon="-1.52007">
        <ele>-4.25</ele>
        <time>2020-05-16T13:10:04Z</time>
      </trkpt>
      <trkpt lat="47.18134" lon="-1.52023">
        <ele>-4.33</ele>
        <time>2020-05-16T13:10:07Z</time>
      </trkpt>
      <trkpt lat="47.18135" lon="-1.52041">
        <ele>-4.64</ele>
        <time>2020-05-16T13:10:10Z</time>
      </trkpt>
      <trkpt lat="47.18137" lon="-1.52055">
        <ele>-5.07</ele>
        <time>2020-05-16T13:10:13Z</time>
      </trkpt>
      <trkpt lat="47.18139" lon="-1.5207">
        <ele>-5.36</ele>
        <time>2020-05-16T13:10:16Z</time>
      </trkpt>
      <trkpt lat="47.1814" lon="-1.52086">
        <ele>-5.61</ele>
        <time>2020-05-16T13:10:19Z</time>
      </trkpt>
      <trkpt lat="47.18143" lon="-1.52102">
        <ele>-6</ele>
        <time>2020-05-16T13:10:22Z</time>
      </trkpt>
      <trkpt lat="47.18148" lon="-1.52118">
        <ele>-6.29</ele>
        <time>2020-05-16T13:10:25Z</time>
      </trkpt>
      <trkpt lat="47.18153" lon="-1.52133">
        <ele>-6.08</ele>
        <time>2020-05-16T13:10:28Z</time>
      </trkpt>
      <trkpt lat="47.18157" lon="-1.52147">
        <ele>-5.74</ele>
        <time>2020-05-16T13:10:32Z</time>
      </trkpt>
      <trkpt lat="47.18161" lon="-1.52161">
        <ele>-4.84</ele>
        <time>2020-05-16T13:10:34Z</time>
      </trkpt>
      <trkpt lat="47.18166" lon="-1.52181">
        <ele>-4.49</ele>
        <time>2020-05-16T13:10:37Z</time>
      </trkpt>
      <trkpt lat="47.18171" lon="-1.52196">
        <ele>-4.95</ele>
        <time>2020-05-16T13:10:39Z</time>
      </trkpt>
      <trkpt lat="47.18176" lon="-1.52214">
        <ele>-5.2</ele>
        <time>2020-05-16T13:10:41Z</time>
      </trkpt>
      <trkpt lat="47.18183" lon="-1.5223">
        <ele>-5.71</ele>
        <time>2020-05-16T13:10:43Z</time>
      </trkpt>
      <trkpt lat="47.18188" lon="-1.52244">
        <ele>-5.79</ele>
        <time>2020-05-16T13:10:45Z</time>
      </trkpt>
      <trkpt lat="47.18192" lon="-1.52258">
        <ele>-3.72</ele>
        <time>2020-05-16T13:10:47Z</time>
      </trkpt>
      <trkpt lat="47.18191" lon="-1.52278">
        <ele>-2.23</ele>
        <time>2020-05-16T13:10:49Z</time>
      </trkpt>
      <trkpt lat="47.18191" lon="-1.52297">
        <ele>-1.78</ele>
        <time>2020-05-16T13:10:51Z</time>
      </trkpt>
      <trkpt lat="47.18191" lon="-1.52313">
        <ele>-2.15</ele>
        <time>2020-05-16T13:10:53Z</time>
      </trkpt>
      <trkpt lat="47.18189" lon="-1.5233">
        <ele>-1.51</ele>
        <time>2020-05-16T13:10:55Z</time>
      </trkpt>
      <trkpt lat="47.18185" lon="-1.52347">
        <ele>-0.93</ele>
        <time>2020-05-16T13:10:57Z</time>
      </trkpt>
      <trkpt lat="47.18185" lon="-1.52369">
        <ele>-2.46</ele>
        <time>2020-05-16T13:11:00Z</time>
      </trkpt>
      <trkpt lat="47.18183" lon="-1.52388">
        <ele>-4.48</ele>
        <time>2020-05-16T13:11:02Z</time>
      </trkpt>
      <trkpt lat="47.18185" lon="-1.52403">
        <ele>-6.43</ele>
        <time>2020-05-16T13:11:04Z</time>
      </trkpt>
      <trkpt lat="47.18189" lon="-1.52416">
        <ele>-6.52</ele>
        <time>2020-05-16T13:11:06Z</time>
      </trkpt>
      <trkpt lat="47.18195" lon="-1.52428">
        <ele>-6.53</ele>
        <time>2020-05-16T13:11:09Z</time>
      </trkpt>
      <trkpt lat="47.18203" lon="-1.52441">
        <ele>-6.3</ele>
        <time>2020-05-16T13:11:12Z</time>
      </trkpt>
      <trkpt lat="47.18205" lon="-1.52459">
        <ele>-6.65</ele>
        <time>2020-05-16T13:11:15Z</time>
      </trkpt>
      <trkpt lat="47.18204" lon="-1.52475">
        <ele>-8.44</ele>
        <time>2020-05-16T13:11:18Z</time>
      </trkpt>
      <trkpt lat="47.18204" lon="-1.52495">
        <ele>-8.28</ele>
        <time>2020-05-16T13:11:20Z</time>
      </trkpt>
      <trkpt lat="47.18204" lon="-1.52513">
        <ele>-7.44</ele>
        <time>2020-05-16T13:11:22Z</time>
      </trkpt>
      <trkpt lat="47.18211" lon="-1.52532">
        <ele>-5.99</ele>
        <time>2020-05-16T13:11:24Z</time>
      </trkpt>
      <trkpt lat="47.18219" lon="-1.52545">
        <ele>-6.52</ele>
        <time>2020-05-16T13:11:27Z</time>
      </trkpt>
      <trkpt lat="47.18221" lon="-1.52562">
        <ele>-7.57</ele>
        <time>2020-05-16T13:11:29Z</time>
      </trkpt>
      <trkpt lat="47.18226" lon="-1.52574">
        <ele>-7.79</ele>
        <time>2020-05-16T13:11:31Z</time>
      </trkpt>
      <trkpt lat="47.18238" lon="-1.52584">
        <ele>-7.39</ele>
        <time>2020-05-16T13:11:34Z</time>
      </trkpt>
      <trkpt lat="47.18245" lon="-1.52593">
        <ele>-6.51</ele>
        <time>2020-05-16T13:11:36Z</time>
      </trkpt>
      <trkpt lat="47.1825" lon="-1.52606">
        <ele>-6.37</ele>
        <time>2020-05-16T13:11:38Z</time>
      </trkpt>
      <trkpt lat="47.18252" lon="-1.52627">
        <ele>-6.97</ele>
        <time>2020-05-16T13:11:42Z</time>
      </trkpt>
      <trkpt lat="47.18253" lon="-1.52647">
        <ele>-8.48</ele>
        <time>2020-05-16T13:11:44Z</time>
      </trkpt>
      <trkpt lat="47.18251" lon="-1.52665">
        <ele>-9.9</ele>
        <time>2020-05-16T13:11:46Z</time>
      </trkpt>
      <trkpt lat="47.18247" lon="-1.52683">
        <ele>-10.07</ele>
        <time>2020-05-16T13:11:48Z</time>
      </trkpt>
      <trkpt lat="47.18245" lon="-1.52698">
        <ele>-9.99</ele>
        <time>2020-05-16T13:11:50Z</time>
      </trkpt>
      <trkpt lat="47.18242" lon="-1.52718">
        <ele>-9.17</ele>
        <time>2020-05-16T13:11:53Z</time>
      </trkpt>
      <trkpt lat="47.18243" lon="-1.52733">
        <ele>-8.98</ele>
        <time>2020-05-16T13:11:55Z</time>
      </trkpt>
      <trkpt lat="47.18244" lon="-1.5275">
        <ele>-9.25</ele>
        <time>2020-05-16T13:11:59Z</time>
      </trkpt>
      <trkpt lat="47.18248" lon="-1.52762">
        <ele>-9.18</ele>
        <time>2020-05-16T13:12:05Z</time>
      </trkpt>
      <trkpt lat="47.18254" lon="-1.52775">
        <ele>-9.37</ele>
        <time>2020-05-16T13:12:10Z</time>
      </trkpt>
      <trkpt lat="47.18258" lon="-1.5279">
        <ele>-6.65</ele>
        <time>2020-05-16T13:12:14Z</time>
      </trkpt>
      <trkpt lat="47.18263" lon="-1.52803">
        <ele>-5.17</ele>
        <time>2020-05-16T13:12:16Z</time>
      </trkpt>
      <trkpt lat="47.18268" lon="-1.52825">
        <ele>-4.69</ele>
        <time>2020-05-16T13:12:18Z</time>
      </trkpt>
      <trkpt lat="47.1827" lon="-1.52841">
        <ele>-4.39</ele>
        <time>2020-05-16T13:12:20Z</time>
      </trkpt>
      <trkpt lat="47.18272" lon="-1.52859">
        <ele>-4.15</ele>
        <time>2020-05-16T13:12:22Z</time>
      </trkpt>
      <trkpt lat="47.18277" lon="-1.52876">
        <ele>-4.06</ele>
        <time>2020-05-16T13:12:24Z</time>
      </trkpt>
      <trkpt lat="47.18283" lon="-1.52892">
        <ele>-4.66</ele>
        <time>2020-05-16T13:12:26Z</time>
      </trkpt>
      <trkpt lat="47.18289" lon="-1.52907">
        <ele>-4.81</ele>
        <time>2020-05-16T13:12:28Z</time>
      </trkpt>
      <trkpt lat="47.18297" lon="-1.52919">
        <ele>-4.6</ele>
        <time>2020-05-16T13:12:32Z</time>
      </trkpt>
      <trkpt lat="47.183" lon="-1.52933">
        <ele>-4.36</ele>
        <time>2020-05-16T13:12:35Z</time>
      </trkpt>
      <trkpt lat="47.18303" lon="-1.52949">
        <ele>-4.04</ele>
        <time>2020-05-16T13:12:38Z</time>
      </trkpt>
      <trkpt lat="47.18308" lon="-1.52962">
        <ele>-3.88</ele>
        <time>2020-05-16T13:12:41Z</time>
      </trkpt>
      <trkpt lat="47.18312" lon="-1.52975">
        <ele>-3.7</ele>
        <time>2020-05-16T13:12:44Z</time>
      </trkpt>
      <trkpt lat="47.18315" lon="-1.52989">
        <ele>-3.44</ele>
        <time>2020-05-16T13:12:47Z</time>
      </trkpt>
      <trkpt lat="47.18321" lon="-1.53">
        <ele>-2.43</ele>
        <time>2020-05-16T13:12:49Z</time>
      </trkpt>
      <trkpt lat="47.18326" lon="-1.53012">
        <ele>-1.15</ele>
        <time>2020-05-16T13:12:51Z</time>
      </trkpt>
      <trkpt lat="47.18332" lon="-1.53027">
        <ele>-0.56</ele>
        <time>2020-05-16T13:12:55Z</time>
      </trkpt>
      <trkpt lat="47.18338" lon="-1.53038">
        <ele>-0.25</ele>
        <time>2020-05-16T13:12:57Z</time>
      </trkpt>
      <trkpt lat="47.18344" lon="-1.53049">
        <ele>0.77</ele>
        <time>2020-05-16T13:12:59Z</time>
      </trkpt>
      <trkpt lat="47.18352" lon="-1.53059">
        <ele>2.25</ele>
        <time>2020-05-16T13:13:02Z</time>
      </trkpt>
      <trkpt lat="47.18363" lon="-1.53054">
        <ele>2.8</ele>
        <time>2020-05-16T13:13:05Z</time>
      </trkpt>
      <trkpt lat="47.18374" lon="-1.53058">
        <ele>3.08</ele>
        <time>2020-05-16T13:13:08Z</time>
      </trkpt>
      <trkpt lat="47.18371" lon="-1.53073">
        <ele>4.83</ele>
        <time>2020-05-16T13:13:12Z</time>
      </trkpt>
      <trkpt lat="47.18362" lon="-1.53083">
        <ele>7.31</ele>
        <time>2020-05-16T13:13:14Z</time>
      </trkpt>
      <trkpt lat="47.18354" lon="-1.53094">
        <ele>8.82</ele>
        <time>2020-05-16T13:13:16Z</time>
      </trkpt>
      <trkpt lat="47.18344" lon="-1.53104">
        <ele>8.43</ele>
        <time>2020-05-16T13:13:18Z</time>
      </trkpt>
      <trkpt lat="47.18335" lon="-1.53112">
        <ele>7.61</ele>
        <time>2020-05-16T13:13:20Z</time>
      </trkpt>
      <trkpt lat="47.18325" lon="-1.5312">
        <ele>6.78</ele>
        <time>2020-05-16T13:13:22Z</time>
      </trkpt>
      <trkpt lat="47.18314" lon="-1.53129">
        <ele>5.22</ele>
        <time>2020-05-16T13:13:24Z</time>
      </trkpt>
      <trkpt lat="47.18305" lon="-1.53137">
        <ele>5.13</ele>
        <time>2020-05-16T13:13:26Z</time>
      </trkpt>
      <trkpt lat="47.18296" lon="-1.53145">
        <ele>6.07</ele>
        <time>2020-05-16T13:13:28Z</time>
      </trkpt>
      <trkpt lat="47.18284" lon="-1.53154">
        <ele>6.43</ele>
        <time>2020-05-16T13:13:30Z</time>
      </trkpt>
      <trkpt lat="47.18274" lon="-1.53163">
        <ele>6.44</ele>
        <time>2020-05-16T13:13:32Z</time>
      </trkpt>
      <trkpt lat="47.18264" lon="-1.53174">
        <ele>7.28</ele>
        <time>2020-05-16T13:13:34Z</time>
      </trkpt>
      <trkpt lat="47.18256" lon="-1.53186">
        <ele>6.83</ele>
        <time>2020-05-16T13:13:36Z</time>
      </trkpt>
      <trkpt lat="47.18249" lon="-1.53198">
        <ele>6.68</ele>
        <time>2020-05-16T13:13:38Z</time>
      </trkpt>
      <trkpt lat="47.18243" lon="-1.53214">
        <ele>6.84</ele>
        <time>2020-05-16T13:13:40Z</time>
      </trkpt>
      <trkpt lat="47.18238" lon="-1.53232">
        <ele>6.73</ele>
        <time>2020-05-16T13:13:42Z</time>
      </trkpt>
      <trkpt lat="47.18236" lon="-1.53251">
        <ele>7.53</ele>
        <time>2020-05-16T13:13:44Z</time>
      </trkpt>
      <trkpt lat="47.18237" lon="-1.53271">
        <ele>7.79</ele>
        <time>2020-05-16T13:13:46Z</time>
      </trkpt>
      <trkpt lat="47.18239" lon="-1.53289">
        <ele>6.65</ele>
        <time>2020-05-16T13:13:48Z</time>
      </trkpt>
      <trkpt lat="47.18241" lon="-1.53305">
        <ele>5.17</ele>
        <time>2020-05-16T13:13:50Z</time>
      </trkpt>
      <trkpt lat="47.18246" lon="-1.53324">
        <ele>3.43</ele>
        <time>2020-05-16T13:13:53Z</time>
      </trkpt>
      <trkpt lat="47.1825" lon="-1.53338">
        <ele>1.94</ele>
        <time>2020-05-16T13:13:55Z</time>
      </trkpt>
      <trkpt lat="47.18253" lon="-1.53353">
        <ele>0.2</ele>
        <time>2020-05-16T13:13:57Z</time>
      </trkpt>
      <trkpt lat="47.18258" lon="-1.5337">
        <ele>0.33</ele>
        <time>2020-05-16T13:13:59Z</time>
      </trkpt>
      <trkpt lat="47.18262" lon="-1.53384">
        <ele>0.44</ele>
        <time>2020-05-16T13:14:01Z</time>
      </trkpt>
      <trkpt lat="47.18266" lon="-1.534">
        <ele>0.88</ele>
        <time>2020-05-16T13:14:03Z</time>
      </trkpt>
      <trkpt lat="47.18269" lon="-1.53413">
        <ele>0.55</ele>
        <time>2020-05-16T13:14:05Z</time>
      </trkpt>
      <trkpt lat="47.18273" lon="-1.53426">
        <ele>0.03</ele>
        <time>2020-05-16T13:14:07Z</time>
      </trkpt>
      <trkpt lat="47.18276" lon="-1.53441">
        <ele>-0.95</ele>
        <time>2020-05-16T13:14:09Z</time>
      </trkpt>
      <trkpt lat="47.1828" lon="-1.53455">
        <ele>-1.86</ele>
        <time>2020-05-16T13:14:11Z</time>
      </trkpt>
      <trkpt lat="47.18283" lon="-1.53469">
        <ele>-1.56</ele>
        <time>2020-05-16T13:14:13Z</time>
      </trkpt>
      <trkpt lat="47.18286" lon="-1.53483">
        <ele>-0.56</ele>
        <time>2020-05-16T13:14:15Z</time>
      </trkpt>
      <trkpt lat="47.18289" lon="-1.53498">
        <ele>1.7</ele>
        <time>2020-05-16T13:14:17Z</time>
      </trkpt>
      <trkpt lat="47.18292" lon="-1.53511">
        <ele>2.68</ele>
        <time>2020-05-16T13:14:19Z</time>
      </trkpt>
      <trkpt lat="47.18296" lon="-1.53524">
        <ele>3.55</ele>
        <time>2020-05-16T13:14:21Z</time>
      </trkpt>
      <trkpt lat="47.18299" lon="-1.53537">
        <ele>3.27</ele>
        <time>2020-05-16T13:14:23Z</time>
      </trkpt>
      <trkpt lat="47.18302" lon="-1.53551">
        <ele>3.04</ele>
        <time>2020-05-16T13:14:25Z</time>
      </trkpt>
      <trkpt lat="47.18306" lon="-1.53566">
        <ele>2.93</ele>
        <time>2020-05-16T13:14:27Z</time>
      </trkpt>
      <trkpt lat="47.18309" lon="-1.5358">
        <ele>2.61</ele>
        <time>2020-05-16T13:14:29Z</time>
      </trkpt>
      <trkpt lat="47.18312" lon="-1.53595">
        <ele>3.44</ele>
        <time>2020-05-16T13:14:31Z</time>
      </trkpt>
      <trkpt lat="47.18315" lon="-1.53614">
        <ele>3.08</ele>
        <time>2020-05-16T13:14:34Z</time>
      </trkpt>
      <trkpt lat="47.1832" lon="-1.53633">
        <ele>3.59</ele>
        <time>2020-05-16T13:14:37Z</time>
      </trkpt>
      <trkpt lat="47.18323" lon="-1.53646">
        <ele>4.36</ele>
        <time>2020-05-16T13:14:39Z</time>
      </trkpt>
      <trkpt lat="47.18327" lon="-1.53661">
        <ele>4.76</ele>
        <time>2020-05-16T13:14:41Z</time>
      </trkpt>
      <trkpt lat="47.1833" lon="-1.53678">
        <ele>6.05</ele>
        <time>2020-05-16T13:14:43Z</time>
      </trkpt>
      <trkpt lat="47.18333" lon="-1.53694">
        <ele>8.1</ele>
        <time>2020-05-16T13:14:45Z</time>
      </trkpt>
      <trkpt lat="47.18336" lon="-1.53712">
        <ele>8.74</ele>
        <time>2020-05-16T13:14:48Z</time>
      </trkpt>
      <trkpt lat="47.1834" lon="-1.53726">
        <ele>9.56</ele>
        <time>2020-05-16T13:14:50Z</time>
      </trkpt>
      <trkpt lat="47.18342" lon="-1.53739">
        <ele>10.58</ele>
        <time>2020-05-16T13:14:52Z</time>
      </trkpt>
      <trkpt lat="47.18343" lon="-1.53757">
        <ele>11.3</ele>
        <time>2020-05-16T13:14:55Z</time>
      </trkpt>
      <trkpt lat="47.18344" lon="-1.53772">
        <ele>12.42</ele>
        <time>2020-05-16T13:14:57Z</time>
      </trkpt>
      <trkpt lat="47.18345" lon="-1.53789">
        <ele>13.47</ele>
        <time>2020-05-16T13:14:59Z</time>
      </trkpt>
      <trkpt lat="47.18346" lon="-1.53809">
        <ele>13.97</ele>
        <time>2020-05-16T13:15:02Z</time>
      </trkpt>
      <trkpt lat="47.18347" lon="-1.53824">
        <ele>13.61</ele>
        <time>2020-05-16T13:15:04Z</time>
      </trkpt>
      <trkpt lat="47.18348" lon="-1.53839">
        <ele>13.7</ele>
        <time>2020-05-16T13:15:06Z</time>
      </trkpt>
      <trkpt lat="47.18349" lon="-1.53854">
        <ele>13.14</ele>
        <time>2020-05-16T13:15:08Z</time>
      </trkpt>
      <trkpt lat="47.18351" lon="-1.53868">
        <ele>12.65</ele>
        <time>2020-05-16T13:15:10Z</time>
      </trkpt>
      <trkpt lat="47.18352" lon="-1.53886">
        <ele>12.91</ele>
        <time>2020-05-16T13:15:12Z</time>
      </trkpt>
      <trkpt lat="47.18352" lon="-1.539">
        <ele>12.3</ele>
        <time>2020-05-16T13:15:14Z</time>
      </trkpt>
      <trkpt lat="47.18354" lon="-1.53919">
        <ele>12.67</ele>
        <time>2020-05-16T13:15:17Z</time>
      </trkpt>
      <trkpt lat="47.18356" lon="-1.53935">
        <ele>12.85</ele>
        <time>2020-05-16T13:15:20Z</time>
      </trkpt>
      <trkpt lat="47.18362" lon="-1.53946">
        <ele>12.88</ele>
        <time>2020-05-16T13:15:22Z</time>
      </trkpt>
      <trkpt lat="47.18372" lon="-1.53955">
        <ele>12.59</ele>
        <time>2020-05-16T13:15:24Z</time>
      </trkpt>
      <trkpt lat="47.18381" lon="-1.53964">
        <ele>13.17</ele>
        <time>2020-05-16T13:15:26Z</time>
      </trkpt>
      <trkpt lat="47.1839" lon="-1.53973">
        <ele>13.92</ele>
        <time>2020-05-16T13:15:28Z</time>
      </trkpt>
      <trkpt lat="47.18398" lon="-1.53982">
        <ele>15.24</ele>
        <time>2020-05-16T13:15:30Z</time>
      </trkpt>
      <trkpt lat="47.18407" lon="-1.53991">
        <ele>15.55</ele>
        <time>2020-05-16T13:15:32Z</time>
      </trkpt>
      <trkpt lat="47.18416" lon="-1.54">
        <ele>15.25</ele>
        <time>2020-05-16T13:15:34Z</time>
      </trkpt>
      <trkpt lat="47.18425" lon="-1.54009">
        <ele>15.23</ele>
        <time>2020-05-16T13:15:36Z</time>
      </trkpt>
      <trkpt lat="47.18434" lon="-1.54019">
        <ele>15.77</ele>
        <time>2020-05-16T13:15:38Z</time>
      </trkpt>
      <trkpt lat="47.18444" lon="-1.54031">
        <ele>16.52</ele>
        <time>2020-05-16T13:15:40Z</time>
      </trkpt>
      <trkpt lat="47.18453" lon="-1.5404">
        <ele>17.47</ele>
        <time>2020-05-16T13:15:42Z</time>
      </trkpt>
      <trkpt lat="47.18462" lon="-1.5405">
        <ele>18.63</ele>
        <time>2020-05-16T13:15:44Z</time>
      </trkpt>
      <trkpt lat="47.18472" lon="-1.5406">
        <ele>19.62</ele>
        <time>2020-05-16T13:15:46Z</time>
      </trkpt>
      <trkpt lat="47.18481" lon="-1.54068">
        <ele>20.28</ele>
        <time>2020-05-16T13:15:48Z</time>
      </trkpt>
      <trkpt lat="47.18489" lon="-1.54075">
        <ele>21.19</ele>
        <time>2020-05-16T13:15:50Z</time>
      </trkpt>
      <trkpt lat="47.18498" lon="-1.54084">
        <ele>21.79</ele>
        <time>2020-05-16T13:15:52Z</time>
      </trkpt>
      <trkpt lat="47.18508" lon="-1.54093">
        <ele>22.59</ele>
        <time>2020-05-16T13:15:54Z</time>
      </trkpt>
      <trkpt lat="47.18519" lon="-1.54103">
        <ele>22.52</ele>
        <time>2020-05-16T13:15:56Z</time>
      </trkpt>
      <trkpt lat="47.18529" lon="-1.54111">
        <ele>21.96</ele>
        <time>2020-05-16T13:15:58Z</time>
      </trkpt>
      <trkpt lat="47.18539" lon="-1.5412">
        <ele>20.86</ele>
        <time>2020-05-16T13:16:00Z</time>
      </trkpt>
      <trkpt lat="47.1855" lon="-1.54131">
        <ele>19.93</ele>
        <time>2020-05-16T13:16:02Z</time>
      </trkpt>
      <trkpt lat="47.18559" lon="-1.5414">
        <ele>19.84</ele>
        <time>2020-05-16T13:16:04Z</time>
      </trkpt>
      <trkpt lat="47.18571" lon="-1.5415">
        <ele>19.25</ele>
        <time>2020-05-16T13:16:06Z</time>
      </trkpt>
      <trkpt lat="47.1858" lon="-1.54157">
        <ele>18.45</ele>
        <time>2020-05-16T13:16:08Z</time>
      </trkpt>
      <trkpt lat="47.18591" lon="-1.54166">
        <ele>16.92</ele>
        <time>2020-05-16T13:16:10Z</time>
      </trkpt>
      <trkpt lat="47.18601" lon="-1.54176">
        <ele>14.61</ele>
        <time>2020-05-16T13:16:12Z</time>
      </trkpt>
      <trkpt lat="47.18612" lon="-1.54185">
        <ele>13.7</ele>
        <time>2020-05-16T13:16:14Z</time>
      </trkpt>
      <trkpt lat="47.18624" lon="-1.54196">
        <ele>13.8</ele>
        <time>2020-05-16T13:16:16Z</time>
      </trkpt>
      <trkpt lat="47.18634" lon="-1.54206">
        <ele>14.01</ele>
        <time>2020-05-16T13:16:18Z</time>
      </trkpt>
      <trkpt lat="47.18642" lon="-1.54216">
        <ele>13.92</ele>
        <time>2020-05-16T13:16:20Z</time>
      </trkpt>
      <trkpt lat="47.18653" lon="-1.54228">
        <ele>13.96</ele>
        <time>2020-05-16T13:16:22Z</time>
      </trkpt>
      <trkpt lat="47.18664" lon="-1.5424">
        <ele>13</ele>
        <time>2020-05-16T13:16:24Z</time>
      </trkpt>
      <trkpt lat="47.18673" lon="-1.5425">
        <ele>10.48</ele>
        <time>2020-05-16T13:16:26Z</time>
      </trkpt>
      <trkpt lat="47.18684" lon="-1.54264">
        <ele>8.73</ele>
        <time>2020-05-16T13:16:28Z</time>
      </trkpt>
      <trkpt lat="47.18694" lon="-1.54276">
        <ele>7.47</ele>
        <time>2020-05-16T13:16:30Z</time>
      </trkpt>
      <trkpt lat="47.18704" lon="-1.54289">
        <ele>6.77</ele>
        <time>2020-05-16T13:16:32Z</time>
      </trkpt>
      <trkpt lat="47.18714" lon="-1.54301">
        <ele>6.26</ele>
        <time>2020-05-16T13:16:34Z</time>
      </trkpt>
      <trkpt lat="47.18726" lon="-1.54315">
        <ele>5.82</ele>
        <time>2020-05-16T13:16:36Z</time>
      </trkpt>
      <trkpt lat="47.18739" lon="-1.54331">
        <ele>5.19</ele>
        <time>2020-05-16T13:16:38Z</time>
      </trkpt>
      <trkpt lat="47.18749" lon="-1.54345">
        <ele>4.2</ele>
        <time>2020-05-16T13:16:40Z</time>
      </trkpt>
      <trkpt lat="47.18759" lon="-1.54358">
        <ele>3.38</ele>
        <time>2020-05-16T13:16:42Z</time>
      </trkpt>
      <trkpt lat="47.1877" lon="-1.54372">
        <ele>2.67</ele>
        <time>2020-05-16T13:16:44Z</time>
      </trkpt>
      <trkpt lat="47.18781" lon="-1.54387">
        <ele>1.5</ele>
        <time>2020-05-16T13:16:46Z</time>
      </trkpt>
      <trkpt lat="47.1879" lon="-1.544">
        <ele>1.17</ele>
        <time>2020-05-16T13:16:48Z</time>
      </trkpt>
      <trkpt lat="47.18801" lon="-1.54415">
        <ele>1.36</ele>
        <time>2020-05-16T13:16:50Z</time>
      </trkpt>
      <trkpt lat="47.18811" lon="-1.54428">
        <ele>1.05</ele>
        <time>2020-05-16T13:16:52Z</time>
      </trkpt>
      <trkpt lat="47.18823" lon="-1.54443">
        <ele>0.26</ele>
        <time>2020-05-16T13:16:54Z</time>
      </trkpt>
      <trkpt lat="47.18832" lon="-1.54455">
        <ele>-0.13</ele>
        <time>2020-05-16T13:16:56Z</time>
      </trkpt>
      <trkpt lat="47.18842" lon="-1.54469">
        <ele>-0.82</ele>
        <time>2020-05-16T13:16:58Z</time>
      </trkpt>
      <trkpt lat="47.18853" lon="-1.54484">
        <ele>-1.21</ele>
        <time>2020-05-16T13:17:00Z</time>
      </trkpt>
      <trkpt lat="47.18863" lon="-1.54497">
        <ele>-1.51</ele>
        <time>2020-05-16T13:17:02Z</time>
      </trkpt>
      <trkpt lat="47.18872" lon="-1.54512">
        <ele>-1.75</ele>
        <time>2020-05-16T13:17:04Z</time>
      </trkpt>
      <trkpt lat="47.1888" lon="-1.54523">
        <ele>-2.36</ele>
        <time>2020-05-16T13:17:06Z</time>
      </trkpt>
      <trkpt lat="47.18884" lon="-1.54542">
        <ele>-3.14</ele>
        <time>2020-05-16T13:17:08Z</time>
      </trkpt>
      <trkpt lat="47.18877" lon="-1.54562">
        <ele>-3.11</ele>
        <time>2020-05-16T13:17:10Z</time>
      </trkpt>
      <trkpt lat="47.18872" lon="-1.54575">
        <ele>-1.96</ele>
        <time>2020-05-16T13:17:11Z</time>
      </trkpt>
      <trkpt lat="47.18863" lon="-1.54597">
        <ele>1.43</ele>
        <time>2020-05-16T13:17:13Z</time>
      </trkpt>
      <trkpt lat="47.18855" lon="-1.54614">
        <ele>4.61</ele>
        <time>2020-05-16T13:17:15Z</time>
      </trkpt>
      <trkpt lat="47.18848" lon="-1.54628">
        <ele>7.22</ele>
        <time>2020-05-16T13:17:17Z</time>
      </trkpt>
      <trkpt lat="47.1884" lon="-1.54643">
        <ele>9.16</ele>
        <time>2020-05-16T13:17:19Z</time>
      </trkpt>
      <trkpt lat="47.18833" lon="-1.54659">
        <ele>11.09</ele>
        <time>2020-05-16T13:17:21Z</time>
      </trkpt>
      <trkpt lat="47.18826" lon="-1.54675">
        <ele>12.55</ele>
        <time>2020-05-16T13:17:23Z</time>
      </trkpt>
      <trkpt lat="47.1882" lon="-1.54689">
        <ele>13.2</ele>
        <time>2020-05-16T13:17:25Z</time>
      </trkpt>
      <trkpt lat="47.18818" lon="-1.54704">
        <ele>14.42</ele>
        <time>2020-05-16T13:17:27Z</time>
      </trkpt>
      <trkpt lat="47.18816" lon="-1.5472">
        <ele>15.77</ele>
        <time>2020-05-16T13:17:29Z</time>
      </trkpt>
      <trkpt lat="47.18814" lon="-1.54733">
        <ele>15.76</ele>
        <time>2020-05-16T13:17:30Z</time>
      </trkpt>
      <trkpt lat="47.1881" lon="-1.54748">
        <ele>13.5</ele>
        <time>2020-05-16T13:17:32Z</time>
      </trkpt>
      <trkpt lat="47.18807" lon="-1.54768">
        <ele>11.19</ele>
        <time>2020-05-16T13:17:34Z</time>
      </trkpt>
      <trkpt lat="47.18808" lon="-1.5479">
        <ele>10.49</ele>
        <time>2020-05-16T13:17:36Z</time>
      </trkpt>
      <trkpt lat="47.1881" lon="-1.54807">
        <ele>10.54</ele>
        <time>2020-05-16T13:17:38Z</time>
      </trkpt>
      <trkpt lat="47.18812" lon="-1.54821">
        <ele>9.21</ele>
        <time>2020-05-16T13:17:40Z</time>
      </trkpt>
      <trkpt lat="47.18813" lon="-1.54838">
        <ele>6.67</ele>
        <time>2020-05-16T13:17:42Z</time>
      </trkpt>
      <trkpt lat="47.18814" lon="-1.54855">
        <ele>4.97</ele>
        <time>2020-05-16T13:17:44Z</time>
      </trkpt>
      <trkpt lat="47.18817" lon="-1.54873">
        <ele>4.66</ele>
        <time>2020-05-16T13:17:46Z</time>
      </trkpt>
      <trkpt lat="47.1882" lon="-1.54891">
        <ele>5.51</ele>
        <time>2020-05-16T13:17:48Z</time>
      </trkpt>
      <trkpt lat="47.18822" lon="-1.54909">
        <ele>6.96</ele>
        <time>2020-05-16T13:17:50Z</time>
      </trkpt>
      <trkpt lat="47.18825" lon="-1.54928">
        <ele>8.03</ele>
        <time>2020-05-16T13:17:52Z</time>
      </trkpt>
      <trkpt lat="47.18829" lon="-1.54943">
        <ele>8.94</ele>
        <time>2020-05-16T13:17:54Z</time>
      </trkpt>
      <trkpt lat="47.18832" lon="-1.54957">
        <ele>8.43</ele>
        <time>2020-05-16T13:17:56Z</time>
      </trkpt>
      <trkpt lat="47.18836" lon="-1.54971">
        <ele>6.8</ele>
        <time>2020-05-16T13:17:58Z</time>
      </trkpt>
      <trkpt lat="47.18841" lon="-1.54988">
        <ele>6.02</ele>
        <time>2020-05-16T13:18:00Z</time>
      </trkpt>
      <trkpt lat="47.18845" lon="-1.55004">
        <ele>5.8</ele>
        <time>2020-05-16T13:18:02Z</time>
      </trkpt>
      <trkpt lat="47.1885" lon="-1.55021">
        <ele>5.8</ele>
        <time>2020-05-16T13:18:04Z</time>
      </trkpt>
      <trkpt lat="47.18854" lon="-1.55037">
        <ele>5.82</ele>
        <time>2020-05-16T13:18:06Z</time>
      </trkpt>
      <trkpt lat="47.18858" lon="-1.55049">
        <ele>5.42</ele>
        <time>2020-05-16T13:18:08Z</time>
      </trkpt>
      <trkpt lat="47.18863" lon="-1.55062">
        <ele>4.21</ele>
        <time>2020-05-16T13:18:10Z</time>
      </trkpt>
      <trkpt lat="47.18868" lon="-1.55075">
        <ele>2.48</ele>
        <time>2020-05-16T13:18:12Z</time>
      </trkpt>
      <trkpt lat="47.18873" lon="-1.55086">
        <ele>1.21</ele>
        <time>2020-05-16T13:18:14Z</time>
      </trkpt>
      <trkpt lat="47.18878" lon="-1.55097">
        <ele>0.54</ele>
        <time>2020-05-16T13:18:16Z</time>
      </trkpt>
      <trkpt lat="47.18885" lon="-1.5511">
        <ele>0.69</ele>
        <time>2020-05-16T13:18:18Z</time>
      </trkpt>
      <trkpt lat="47.18892" lon="-1.55126">
        <ele>0.82</ele>
        <time>2020-05-16T13:18:20Z</time>
      </trkpt>
      <trkpt lat="47.18901" lon="-1.5514">
        <ele>0.1</ele>
        <time>2020-05-16T13:18:22Z</time>
      </trkpt>
      <trkpt lat="47.18908" lon="-1.55154">
        <ele>-0.31</ele>
        <time>2020-05-16T13:18:24Z</time>
      </trkpt>
      <trkpt lat="47.18914" lon="-1.55172">
        <ele>0.34</ele>
        <time>2020-05-16T13:18:26Z</time>
      </trkpt>
      <trkpt lat="47.1892" lon="-1.55192">
        <ele>3.2</ele>
        <time>2020-05-16T13:18:28Z</time>
      </trkpt>
      <trkpt lat="47.18926" lon="-1.55206">
        <ele>7.25</ele>
        <time>2020-05-16T13:18:30Z</time>
      </trkpt>
      <trkpt lat="47.1893" lon="-1.55219">
        <ele>10.13</ele>
        <time>2020-05-16T13:18:32Z</time>
      </trkpt>
      <trkpt lat="47.18929" lon="-1.55232">
        <ele>11.87</ele>
        <time>2020-05-16T13:18:34Z</time>
      </trkpt>
      <trkpt lat="47.18924" lon="-1.55246">
        <ele>13.45</ele>
        <time>2020-05-16T13:18:36Z</time>
      </trkpt>
      <trkpt lat="47.18922" lon="-1.55266">
        <ele>14.53</ele>
        <time>2020-05-16T13:18:38Z</time>
      </trkpt>
      <trkpt lat="47.18921" lon="-1.55288">
        <ele>14.48</ele>
        <time>2020-05-16T13:18:40Z</time>
      </trkpt>
      <trkpt lat="47.1892" lon="-1.5531">
        <ele>12.17</ele>
        <time>2020-05-16T13:18:43Z</time>
      </trkpt>
      <trkpt lat="47.1892" lon="-1.55332">
        <ele>9.32</ele>
        <time>2020-05-16T13:18:45Z</time>
      </trkpt>
      <trkpt lat="47.18921" lon="-1.55356">
        <ele>8.04</ele>
        <time>2020-05-16T13:18:47Z</time>
      </trkpt>
      <trkpt lat="47.18923" lon="-1.55377">
        <ele>7.46</ele>
        <time>2020-05-16T13:18:49Z</time>
      </trkpt>
      <trkpt lat="47.18923" lon="-1.55396">
        <ele>4.87</ele>
        <time>2020-05-16T13:18:51Z</time>
      </trkpt>
      <trkpt lat="47.18924" lon="-1.55418">
        <ele>3.47</ele>
        <time>2020-05-16T13:18:53Z</time>
      </trkpt>
      <trkpt lat="47.18925" lon="-1.55434">
        <ele>1.9</ele>
        <time>2020-05-16T13:18:55Z</time>
      </trkpt>
      <trkpt lat="47.18925" lon="-1.55454">
        <ele>0.25</ele>
        <time>2020-05-16T13:18:57Z</time>
      </trkpt>
      <trkpt lat="47.18925" lon="-1.55474">
        <ele>-0.93</ele>
        <time>2020-05-16T13:18:59Z</time>
      </trkpt>
      <trkpt lat="47.18927" lon="-1.55494">
        <ele>-0.8</ele>
        <time>2020-05-16T13:19:01Z</time>
      </trkpt>
      <trkpt lat="47.18928" lon="-1.55511">
        <ele>0.04</ele>
        <time>2020-05-16T13:19:03Z</time>
      </trkpt>
      <trkpt lat="47.18929" lon="-1.55531">
        <ele>2.09</ele>
        <time>2020-05-16T13:19:05Z</time>
      </trkpt>
      <trkpt lat="47.18929" lon="-1.55549">
        <ele>4.04</ele>
        <time>2020-05-16T13:19:07Z</time>
      </trkpt>
      <trkpt lat="47.18929" lon="-1.55568">
        <ele>6.06</ele>
        <time>2020-05-16T13:19:09Z</time>
      </trkpt>
      <trkpt lat="47.18929" lon="-1.55582">
        <ele>6.63</ele>
        <time>2020-05-16T13:19:11Z</time>
      </trkpt>
      <trkpt lat="47.1893" lon="-1.55602">
        <ele>6.54</ele>
        <time>2020-05-16T13:19:13Z</time>
      </trkpt>
      <trkpt lat="47.1893" lon="-1.55616">
        <ele>5.72</ele>
        <time>2020-05-16T13:19:15Z</time>
      </trkpt>
      <trkpt lat="47.1893" lon="-1.55632">
        <ele>3.62</ele>
        <time>2020-05-16T13:19:17Z</time>
      </trkpt>
      <trkpt lat="47.18929" lon="-1.55648">
        <ele>2.78</ele>
        <time>2020-05-16T13:19:19Z</time>
      </trkpt>
      <trkpt lat="47.18929" lon="-1.55665">
        <ele>1.98</ele>
        <time>2020-05-16T13:19:21Z</time>
      </trkpt>
      <trkpt lat="47.18929" lon="-1.55682">
        <ele>1.16</ele>
        <time>2020-05-16T13:19:23Z</time>
      </trkpt>
      <trkpt lat="47.18929" lon="-1.55699">
        <ele>-0.38</ele>
        <time>2020-05-16T13:19:25Z</time>
      </trkpt>
      <trkpt lat="47.18929" lon="-1.55715">
        <ele>-1.93</ele>
        <time>2020-05-16T13:19:27Z</time>
      </trkpt>
      <trkpt lat="47.18929" lon="-1.55735">
        <ele>-3.62</ele>
        <time>2020-05-16T13:19:29Z</time>
      </trkpt>
      <trkpt lat="47.18928" lon="-1.55753">
        <ele>-3.64</ele>
        <time>2020-05-16T13:19:31Z</time>
      </trkpt>
      <trkpt lat="47.18928" lon="-1.55772">
        <ele>-3.11</ele>
        <time>2020-05-16T13:19:33Z</time>
      </trkpt>
      <trkpt lat="47.18927" lon="-1.55788">
        <ele>-2.51</ele>
        <time>2020-05-16T13:19:35Z</time>
      </trkpt>
      <trkpt lat="47.18926" lon="-1.55806">
        <ele>-1.96</ele>
        <time>2020-05-16T13:19:37Z</time>
      </trkpt>
      <trkpt lat="47.18925" lon="-1.55825">
        <ele>-1.63</ele>
        <time>2020-05-16T13:19:39Z</time>
      </trkpt>
      <trkpt lat="47.18924" lon="-1.55843">
        <ele>-1.26</ele>
        <time>2020-05-16T13:19:41Z</time>
      </trkpt>
      <trkpt lat="47.18922" lon="-1.55862">
        <ele>-0.67</ele>
        <time>2020-05-16T13:19:43Z</time>
      </trkpt>
      <trkpt lat="47.1892" lon="-1.55881">
        <ele>15</ele>
        <time>2020-05-16T13:19:45Z</time>
      </trkpt>
      <trkpt lat="47.18918" lon="-1.55897">
        <ele>-0.05</ele>
        <time>2020-05-16T13:19:47Z</time>
      </trkpt>
      <trkpt lat="47.18916" lon="-1.55918">
        <ele>-1.08</ele>
        <time>2020-05-16T13:19:49Z</time>
      </trkpt>
      <trkpt lat="47.18915" lon="-1.5594">
        <ele>-2</ele>
        <time>2020-05-16T13:19:51Z</time>
      </trkpt>
      <trkpt lat="47.18915" lon="-1.55959">
        <ele>-1.97</ele>
        <time>2020-05-16T13:19:53Z</time>
      </trkpt>
      <trkpt lat="47.18915" lon="-1.55976">
        <ele>-2.72</ele>
        <time>2020-05-16T13:19:55Z</time>
      </trkpt>
      <trkpt lat="47.18915" lon="-1.55997">
        <ele>-3.11</ele>
        <time>2020-05-16T13:19:57Z</time>
      </trkpt>
      <trkpt lat="47.18913" lon="-1.56014">
        <ele>-1.85</ele>
        <time>2020-05-16T13:19:59Z</time>
      </trkpt>
      <trkpt lat="47.18911" lon="-1.56032">
        <ele>17.2</ele>
        <time>2020-05-16T13:20:01Z</time>
      </trkpt>
      <trkpt lat="47.18908" lon="-1.56052">
        <ele>1.17</ele>
        <time>2020-05-16T13:20:03Z</time>
      </trkpt>
      <trkpt lat="47.18905" lon="-1.56072">
        <ele>1.48</ele>
        <time>2020-05-16T13:20:05Z</time>
      </trkpt>
      <trkpt lat="47.18901" lon="-1.56094">
        <ele>1.67</ele>
        <time>2020-05-16T13:20:07Z</time>
      </trkpt>
      <trkpt lat="47.18896" lon="-1.56113">
        <ele>2.16</ele>
        <time>2020-05-16T13:20:09Z</time>
      </trkpt>
      <trkpt lat="47.18891" lon="-1.56132">
        <ele>3.2</ele>
        <time>2020-05-16T13:20:11Z</time>
      </trkpt>
      <trkpt lat="47.18886" lon="-1.56151">
        <ele>4.14</ele>
        <time>2020-05-16T13:20:14Z</time>
      </trkpt>
      <trkpt lat="47.18885" lon="-1.56169">
        <ele>4.23</ele>
        <time>2020-05-16T13:20:16Z</time>
      </trkpt>
      <trkpt lat="47.18883" lon="-1.56189">
        <ele>3</ele>
        <time>2020-05-16T13:20:18Z</time>
      </trkpt>
      <trkpt lat="47.18876" lon="-1.56206">
        <ele>2.61</ele>
        <time>2020-05-16T13:20:20Z</time>
      </trkpt>
      <trkpt lat="47.18872" lon="-1.5622">
        <ele>2.91</ele>
        <time>2020-05-16T13:20:21Z</time>
      </trkpt>
      <trkpt lat="47.18864" lon="-1.56241">
        <ele>4.1</ele>
        <time>2020-05-16T13:20:22Z</time>
      </trkpt>
      <trkpt lat="47.18857" lon="-1.56261">
        <ele>6.02</ele>
        <time>2020-05-16T13:20:24Z</time>
      </trkpt>
      <trkpt lat="47.18851" lon="-1.56278">
        <ele>8.03</ele>
        <time>2020-05-16T13:20:26Z</time>
      </trkpt>
      <trkpt lat="47.18845" lon="-1.56296">
        <ele>9.67</ele>
        <time>2020-05-16T13:20:28Z</time>
      </trkpt>
      <trkpt lat="47.18839" lon="-1.56313">
        <ele>10.8</ele>
        <time>2020-05-16T13:20:30Z</time>
      </trkpt>
      <trkpt lat="47.18832" lon="-1.56328">
        <ele>11.32</ele>
        <time>2020-05-16T13:20:32Z</time>
      </trkpt>
      <trkpt lat="47.18826" lon="-1.56341">
        <ele>10.98</ele>
        <time>2020-05-16T13:20:34Z</time>
      </trkpt>
      <trkpt lat="47.18818" lon="-1.56354">
        <ele>11.44</ele>
        <time>2020-05-16T13:20:36Z</time>
      </trkpt>
      <trkpt lat="47.18805" lon="-1.5636">
        <ele>12.99</ele>
        <time>2020-05-16T13:20:38Z</time>
      </trkpt>
      <trkpt lat="47.18793" lon="-1.56359">
        <ele>14.41</ele>
        <time>2020-05-16T13:20:40Z</time>
      </trkpt>
      <trkpt lat="47.18781" lon="-1.56358">
        <ele>15.83</ele>
        <time>2020-05-16T13:20:42Z</time>
      </trkpt>
      <trkpt lat="47.18767" lon="-1.56357">
        <ele>16.48</ele>
        <time>2020-05-16T13:20:44Z</time>
      </trkpt>
      <trkpt lat="47.18756" lon="-1.56356">
        <ele>16.26</ele>
        <time>2020-05-16T13:20:46Z</time>
      </trkpt>
      <trkpt lat="47.18743" lon="-1.56354">
        <ele>15.09</ele>
        <time>2020-05-16T13:20:48Z</time>
      </trkpt>
      <trkpt lat="47.18731" lon="-1.56353">
        <ele>16.16</ele>
        <time>2020-05-16T13:20:50Z</time>
      </trkpt>
      <trkpt lat="47.18719" lon="-1.56355">
        <ele>18.44</ele>
        <time>2020-05-16T13:20:52Z</time>
      </trkpt>
      <trkpt lat="47.18705" lon="-1.56357">
        <ele>21.2</ele>
        <time>2020-05-16T13:20:54Z</time>
      </trkpt>
      <trkpt lat="47.18694" lon="-1.56357">
        <ele>21.62</ele>
        <time>2020-05-16T13:20:56Z</time>
      </trkpt>
      <trkpt lat="47.18682" lon="-1.56356">
        <ele>21.05</ele>
        <time>2020-05-16T13:20:58Z</time>
      </trkpt>
      <trkpt lat="47.18668" lon="-1.56352">
        <ele>19.78</ele>
        <time>2020-05-16T13:21:00Z</time>
      </trkpt>
      <trkpt lat="47.18656" lon="-1.56347">
        <ele>17.9</ele>
        <time>2020-05-16T13:21:02Z</time>
      </trkpt>
      <trkpt lat="47.18647" lon="-1.56342">
        <ele>17.46</ele>
        <time>2020-05-16T13:21:04Z</time>
      </trkpt>
      <trkpt lat="47.18634" lon="-1.56335">
        <ele>19</ele>
        <time>2020-05-16T13:21:06Z</time>
      </trkpt>
      <trkpt lat="47.18622" lon="-1.56328">
        <ele>19.16</ele>
        <time>2020-05-16T13:21:08Z</time>
      </trkpt>
      <trkpt lat="47.18611" lon="-1.56322">
        <ele>18.18</ele>
        <time>2020-05-16T13:21:10Z</time>
      </trkpt>
      <trkpt lat="47.18599" lon="-1.56313">
        <ele>17.17</ele>
        <time>2020-05-16T13:21:12Z</time>
      </trkpt>
      <trkpt lat="47.18591" lon="-1.56305">
        <ele>16.37</ele>
        <time>2020-05-16T13:21:14Z</time>
      </trkpt>
      <trkpt lat="47.18584" lon="-1.56294">
        <ele>16.52</ele>
        <time>2020-05-16T13:21:16Z</time>
      </trkpt>
      <trkpt lat="47.18574" lon="-1.56288">
        <ele>17.42</ele>
        <time>2020-05-16T13:21:19Z</time>
      </trkpt>
      <trkpt lat="47.18569" lon="-1.56303">
        <ele>17.27</ele>
        <time>2020-05-16T13:21:21Z</time>
      </trkpt>
      <trkpt lat="47.18563" lon="-1.5632">
        <ele>16.92</ele>
        <time>2020-05-16T13:21:23Z</time>
      </trkpt>
      <trkpt lat="47.18557" lon="-1.56338">
        <ele>15.76</ele>
        <time>2020-05-16T13:21:25Z</time>
      </trkpt>
      <trkpt lat="47.18552" lon="-1.56356">
        <ele>14.18</ele>
        <time>2020-05-16T13:21:27Z</time>
      </trkpt>
      <trkpt lat="47.18548" lon="-1.56369">
        <ele>13.21</ele>
        <time>2020-05-16T13:21:29Z</time>
      </trkpt>
      <trkpt lat="47.18541" lon="-1.56385">
        <ele>14.05</ele>
        <time>2020-05-16T13:21:31Z</time>
      </trkpt>
      <trkpt lat="47.18531" lon="-1.56391">
        <ele>14.21</ele>
        <time>2020-05-16T13:21:33Z</time>
      </trkpt>
      <trkpt lat="47.18516" lon="-1.56387">
        <ele>13.78</ele>
        <time>2020-05-16T13:21:35Z</time>
      </trkpt>
      <trkpt lat="47.18504" lon="-1.56382">
        <ele>14.57</ele>
        <time>2020-05-16T13:21:37Z</time>
      </trkpt>
      <trkpt lat="47.18494" lon="-1.56376">
        <ele>15.88</ele>
        <time>2020-05-16T13:21:39Z</time>
      </trkpt>
      <trkpt lat="47.18483" lon="-1.5637">
        <ele>16.76</ele>
        <time>2020-05-16T13:21:41Z</time>
      </trkpt>
      <trkpt lat="47.18471" lon="-1.56363">
        <ele>17.11</ele>
        <time>2020-05-16T13:21:43Z</time>
      </trkpt>
      <trkpt lat="47.18462" lon="-1.56357">
        <ele>18.44</ele>
        <time>2020-05-16T13:21:45Z</time>
      </trkpt>
      <trkpt lat="47.18451" lon="-1.56351">
        <ele>21.06</ele>
        <time>2020-05-16T13:21:47Z</time>
      </trkpt>
      <trkpt lat="47.18438" lon="-1.56351">
        <ele>22.77</ele>
        <time>2020-05-16T13:21:49Z</time>
      </trkpt>
      <trkpt lat="47.18429" lon="-1.56365">
        <ele>22.4</ele>
        <time>2020-05-16T13:21:51Z</time>
      </trkpt>
      <trkpt lat="47.18424" lon="-1.5638">
        <ele>21.09</ele>
        <time>2020-05-16T13:21:53Z</time>
      </trkpt>
      <trkpt lat="47.18421" lon="-1.564">
        <ele>18.57</ele>
        <time>2020-05-16T13:21:55Z</time>
      </trkpt>
      <trkpt lat="47.18418" lon="-1.56418">
        <ele>17.62</ele>
        <time>2020-05-16T13:21:57Z</time>
      </trkpt>
      <trkpt lat="47.18414" lon="-1.56438">
        <ele>17.76</ele>
        <time>2020-05-16T13:21:59Z</time>
      </trkpt>
      <trkpt lat="47.18411" lon="-1.56459">
        <ele>17.39</ele>
        <time>2020-05-16T13:22:01Z</time>
      </trkpt>
      <trkpt lat="47.18408" lon="-1.56476">
        <ele>16.58</ele>
        <time>2020-05-16T13:22:03Z</time>
      </trkpt>
      <trkpt lat="47.18405" lon="-1.56495">
        <ele>15.29</ele>
        <time>2020-05-16T13:22:05Z</time>
      </trkpt>
      <trkpt lat="47.18401" lon="-1.56518">
        <ele>14.52</ele>
        <time>2020-05-16T13:22:07Z</time>
      </trkpt>
      <trkpt lat="47.18398" lon="-1.56539">
        <ele>14.32</ele>
        <time>2020-05-16T13:22:09Z</time>
      </trkpt>
      <trkpt lat="47.18395" lon="-1.56558">
        <ele>14.33</ele>
        <time>2020-05-16T13:22:11Z</time>
      </trkpt>
      <trkpt lat="47.18391" lon="-1.56578">
        <ele>14.05</ele>
        <time>2020-05-16T13:22:13Z</time>
      </trkpt>
      <trkpt lat="47.1839" lon="-1.56594">
        <ele>12.76</ele>
        <time>2020-05-16T13:22:15Z</time>
      </trkpt>
      <trkpt lat="47.18387" lon="-1.56613">
        <ele>11.96</ele>
        <time>2020-05-16T13:22:17Z</time>
      </trkpt>
      <trkpt lat="47.18384" lon="-1.56633">
        <ele>12.28</ele>
        <time>2020-05-16T13:22:19Z</time>
      </trkpt>
      <trkpt lat="47.18381" lon="-1.56653">
        <ele>13.63</ele>
        <time>2020-05-16T13:22:21Z</time>
      </trkpt>
      <trkpt lat="47.18379" lon="-1.56671">
        <ele>14.79</ele>
        <time>2020-05-16T13:22:23Z</time>
      </trkpt>
      <trkpt lat="47.18375" lon="-1.5669">
        <ele>14.98</ele>
        <time>2020-05-16T13:22:25Z</time>
      </trkpt>
      <trkpt lat="47.18371" lon="-1.56708">
        <ele>14.74</ele>
        <time>2020-05-16T13:22:27Z</time>
      </trkpt>
      <trkpt lat="47.18367" lon="-1.5673">
        <ele>14.83</ele>
        <time>2020-05-16T13:22:29Z</time>
      </trkpt>
      <trkpt lat="47.18364" lon="-1.56748">
        <ele>15.06</ele>
        <time>2020-05-16T13:22:31Z</time>
      </trkpt>
      <trkpt lat="47.18362" lon="-1.56761">
        <ele>15.51</ele>
        <time>2020-05-16T13:22:33Z</time>
      </trkpt>
      <trkpt lat="47.18362" lon="-1.56779">
        <ele>15.52</ele>
        <time>2020-05-16T13:22:35Z</time>
      </trkpt>
      <trkpt lat="47.1836" lon="-1.56797">
        <ele>14.65</ele>
        <time>2020-05-16T13:22:37Z</time>
      </trkpt>
      <trkpt lat="47.18357" lon="-1.56816">
        <ele>14.67</ele>
        <time>2020-05-16T13:22:39Z</time>
      </trkpt>
      <trkpt lat="47.18354" lon="-1.56835">
        <ele>16.03</ele>
        <time>2020-05-16T13:22:41Z</time>
      </trkpt>
      <trkpt lat="47.18352" lon="-1.56854">
        <ele>16.99</ele>
        <time>2020-05-16T13:22:43Z</time>
      </trkpt>
      <trkpt lat="47.18348" lon="-1.56873">
        <ele>17.33</ele>
        <time>2020-05-16T13:22:45Z</time>
      </trkpt>
      <trkpt lat="47.18346" lon="-1.56889">
        <ele>17.3</ele>
        <time>2020-05-16T13:22:47Z</time>
      </trkpt>
      <trkpt lat="47.18344" lon="-1.56906">
        <ele>16.15</ele>
        <time>2020-05-16T13:22:49Z</time>
      </trkpt>
      <trkpt lat="47.18343" lon="-1.56925">
        <ele>14.38</ele>
        <time>2020-05-16T13:22:51Z</time>
      </trkpt>
      <trkpt lat="47.18342" lon="-1.56943">
        <ele>12.99</ele>
        <time>2020-05-16T13:22:53Z</time>
      </trkpt>
      <trkpt lat="47.18345" lon="-1.56959">
        <ele>12.01</ele>
        <time>2020-05-16T13:22:55Z</time>
      </trkpt>
      <trkpt lat="47.18345" lon="-1.56975">
        <ele>10.66</ele>
        <time>2020-05-16T13:22:57Z</time>
      </trkpt>
      <trkpt lat="47.18345" lon="-1.56993">
        <ele>9.81</ele>
        <time>2020-05-16T13:22:59Z</time>
      </trkpt>
      <trkpt lat="47.18343" lon="-1.57012">
        <ele>9.57</ele>
        <time>2020-05-16T13:23:01Z</time>
      </trkpt>
      <trkpt lat="47.18341" lon="-1.57027">
        <ele>8.67</ele>
        <time>2020-05-16T13:23:03Z</time>
      </trkpt>
      <trkpt lat="47.18337" lon="-1.5705">
        <ele>6.18</ele>
        <time>2020-05-16T13:23:05Z</time>
      </trkpt>
      <trkpt lat="47.18334" lon="-1.57067">
        <ele>6.08</ele>
        <time>2020-05-16T13:23:07Z</time>
      </trkpt>
      <trkpt lat="47.18332" lon="-1.57085">
        <ele>6.74</ele>
        <time>2020-05-16T13:23:09Z</time>
      </trkpt>
      <trkpt lat="47.18329" lon="-1.57099">
        <ele>9.25</ele>
        <time>2020-05-16T13:23:11Z</time>
      </trkpt>
      <trkpt lat="47.18326" lon="-1.57117">
        <ele>11.12</ele>
        <time>2020-05-16T13:23:13Z</time>
      </trkpt>
      <trkpt lat="47.18323" lon="-1.57134">
        <ele>11.11</ele>
        <time>2020-05-16T13:23:15Z</time>
      </trkpt>
      <trkpt lat="47.18319" lon="-1.57154">
        <ele>10.51</ele>
        <time>2020-05-16T13:23:17Z</time>
      </trkpt>
      <trkpt lat="47.18315" lon="-1.57174">
        <ele>10.65</ele>
        <time>2020-05-16T13:23:19Z</time>
      </trkpt>
      <trkpt lat="47.1831" lon="-1.57193">
        <ele>12.11</ele>
        <time>2020-05-16T13:23:21Z</time>
      </trkpt>
      <trkpt lat="47.18306" lon="-1.57211">
        <ele>13.26</ele>
        <time>2020-05-16T13:23:24Z</time>
      </trkpt>
      <trkpt lat="47.18297" lon="-1.57223">
        <ele>13.84</ele>
        <time>2020-05-16T13:23:26Z</time>
      </trkpt>
      <trkpt lat="47.18284" lon="-1.57222">
        <ele>14.09</ele>
        <time>2020-05-16T13:23:28Z</time>
      </trkpt>
      <trkpt lat="47.18271" lon="-1.57218">
        <ele>15.82</ele>
        <time>2020-05-16T13:23:31Z</time>
      </trkpt>
      <trkpt lat="47.18259" lon="-1.57217">
        <ele>17.47</ele>
        <time>2020-05-16T13:23:33Z</time>
      </trkpt>
      <trkpt lat="47.18249" lon="-1.57217">
        <ele>17.62</ele>
        <time>2020-05-16T13:23:35Z</time>
      </trkpt>
      <trkpt lat="47.18239" lon="-1.57217">
        <ele>19.24</ele>
        <time>2020-05-16T13:23:37Z</time>
      </trkpt>
      <trkpt lat="47.18229" lon="-1.57216">
        <ele>20.79</ele>
        <time>2020-05-16T13:23:39Z</time>
      </trkpt>
      <trkpt lat="47.18219" lon="-1.57212">
        <ele>22.1</ele>
        <time>2020-05-16T13:23:41Z</time>
      </trkpt>
      <trkpt lat="47.18213" lon="-1.5723">
        <ele>22.86</ele>
        <time>2020-05-16T13:23:44Z</time>
      </trkpt>
      <trkpt lat="47.18211" lon="-1.57243">
        <ele>23.62</ele>
        <time>2020-05-16T13:23:46Z</time>
      </trkpt>
      <trkpt lat="47.18209" lon="-1.57258">
        <ele>21.86</ele>
        <time>2020-05-16T13:23:48Z</time>
      </trkpt>
      <trkpt lat="47.18208" lon="-1.57281">
        <ele>15.7</ele>
        <time>2020-05-16T13:23:51Z</time>
      </trkpt>
      <trkpt lat="47.18208" lon="-1.57298">
        <ele>12.32</ele>
        <time>2020-05-16T13:23:53Z</time>
      </trkpt>
      <trkpt lat="47.1821" lon="-1.57318">
        <ele>9.54</ele>
        <time>2020-05-16T13:23:55Z</time>
      </trkpt>
      <trkpt lat="47.18211" lon="-1.57336">
        <ele>7.37</ele>
        <time>2020-05-16T13:23:57Z</time>
      </trkpt>
      <trkpt lat="47.18213" lon="-1.57357">
        <ele>6.2</ele>
        <time>2020-05-16T13:23:59Z</time>
      </trkpt>
      <trkpt lat="47.18215" lon="-1.57378">
        <ele>4.67</ele>
        <time>2020-05-16T13:24:01Z</time>
      </trkpt>
      <trkpt lat="47.18216" lon="-1.57399">
        <ele>4.2</ele>
        <time>2020-05-16T13:24:03Z</time>
      </trkpt>
      <trkpt lat="47.18216" lon="-1.5742">
        <ele>3.46</ele>
        <time>2020-05-16T13:24:05Z</time>
      </trkpt>
      <trkpt lat="47.18216" lon="-1.57441">
        <ele>3.16</ele>
        <time>2020-05-16T13:24:07Z</time>
      </trkpt>
      <trkpt lat="47.18216" lon="-1.57466">
        <ele>4.02</ele>
        <time>2020-05-16T13:24:09Z</time>
      </trkpt>
      <trkpt lat="47.18216" lon="-1.57489">
        <ele>5.28</ele>
        <time>2020-05-16T13:24:11Z</time>
      </trkpt>
      <trkpt lat="47.18213" lon="-1.57508">
        <ele>5.42</ele>
        <time>2020-05-16T13:24:13Z</time>
      </trkpt>
      <trkpt lat="47.18208" lon="-1.57528">
        <ele>6.36</ele>
        <time>2020-05-16T13:24:15Z</time>
      </trkpt>
      <trkpt lat="47.18204" lon="-1.57547">
        <ele>7.21</ele>
        <time>2020-05-16T13:24:17Z</time>
      </trkpt>
      <trkpt lat="47.18202" lon="-1.57564">
        <ele>7.72</ele>
        <time>2020-05-16T13:24:19Z</time>
      </trkpt>
      <trkpt lat="47.182" lon="-1.5758">
        <ele>9.89</ele>
        <time>2020-05-16T13:24:21Z</time>
      </trkpt>
      <trkpt lat="47.18201" lon="-1.57594">
        <ele>12.64</ele>
        <time>2020-05-16T13:24:23Z</time>
      </trkpt>
      <trkpt lat="47.18203" lon="-1.57608">
        <ele>13.38</ele>
        <time>2020-05-16T13:24:26Z</time>
      </trkpt>
      <trkpt lat="47.18204" lon="-1.57624">
        <ele>14.02</ele>
        <time>2020-05-16T13:24:29Z</time>
      </trkpt>
      <trkpt lat="47.18203" lon="-1.57641">
        <ele>14.48</ele>
        <time>2020-05-16T13:24:32Z</time>
      </trkpt>
      <trkpt lat="47.182" lon="-1.57654">
        <ele>14.18</ele>
        <time>2020-05-16T13:24:34Z</time>
      </trkpt>
      <trkpt lat="47.18198" lon="-1.5767">
        <ele>12.23</ele>
        <time>2020-05-16T13:24:36Z</time>
      </trkpt>
      <trkpt lat="47.18198" lon="-1.57686">
        <ele>11.48</ele>
        <time>2020-05-16T13:24:38Z</time>
      </trkpt>
      <trkpt lat="47.18198" lon="-1.57705">
        <ele>10.04</ele>
        <time>2020-05-16T13:24:41Z</time>
      </trkpt>
      <trkpt lat="47.18197" lon="-1.57722">
        <ele>7.97</ele>
        <time>2020-05-16T13:24:43Z</time>
      </trkpt>
      <trkpt lat="47.18194" lon="-1.57739">
        <ele>6.94</ele>
        <time>2020-05-16T13:24:45Z</time>
      </trkpt>
      <trkpt lat="47.18189" lon="-1.57755">
        <ele>7.58</ele>
        <time>2020-05-16T13:24:47Z</time>
      </trkpt>
      <trkpt lat="47.18184" lon="-1.57772">
        <ele>9.6</ele>
        <time>2020-05-16T13:24:49Z</time>
      </trkpt>
      <trkpt lat="47.18177" lon="-1.57793">
        <ele>11.09</ele>
        <time>2020-05-16T13:24:51Z</time>
      </trkpt>
      <trkpt lat="47.18171" lon="-1.57808">
        <ele>14.18</ele>
        <time>2020-05-16T13:24:53Z</time>
      </trkpt>
      <trkpt lat="47.18167" lon="-1.57827">
        <ele>17.04</ele>
        <time>2020-05-16T13:24:55Z</time>
      </trkpt>
      <trkpt lat="47.18162" lon="-1.57844">
        <ele>18.37</ele>
        <time>2020-05-16T13:24:57Z</time>
      </trkpt>
      <trkpt lat="47.18158" lon="-1.57862">
        <ele>18.45</ele>
        <time>2020-05-16T13:24:59Z</time>
      </trkpt>
      <trkpt lat="47.18156" lon="-1.57878">
        <ele>18.35</ele>
        <time>2020-05-16T13:25:01Z</time>
      </trkpt>
      <trkpt lat="47.18151" lon="-1.57893">
        <ele>18.82</ele>
        <time>2020-05-16T13:25:04Z</time>
      </trkpt>
      <trkpt lat="47.18152" lon="-1.57908">
        <ele>18.63</ele>
        <time>2020-05-16T13:25:07Z</time>
      </trkpt>
      <trkpt lat="47.18152" lon="-1.57922">
        <ele>17.63</ele>
        <time>2020-05-16T13:25:09Z</time>
      </trkpt>
      <trkpt lat="47.18153" lon="-1.5794">
        <ele>16.17</ele>
        <time>2020-05-16T13:25:12Z</time>
      </trkpt>
      <trkpt lat="47.18151" lon="-1.57956">
        <ele>16.52</ele>
        <time>2020-05-16T13:25:14Z</time>
      </trkpt>
      <trkpt lat="47.18144" lon="-1.5797">
        <ele>17.55</ele>
        <time>2020-05-16T13:25:17Z</time>
      </trkpt>
      <trkpt lat="47.18137" lon="-1.57991">
        <ele>18.93</ele>
        <time>2020-05-16T13:25:20Z</time>
      </trkpt>
      <trkpt lat="47.18134" lon="-1.58004">
        <ele>19.27</ele>
        <time>2020-05-16T13:25:22Z</time>
      </trkpt>
      <trkpt lat="47.18129" lon="-1.58021">
        <ele>19.63</ele>
        <time>2020-05-16T13:25:25Z</time>
      </trkpt>
      <trkpt lat="47.18126" lon="-1.58038">
        <ele>19.14</ele>
        <time>2020-05-16T13:25:27Z</time>
      </trkpt>
      <trkpt lat="47.18123" lon="-1.58055">
        <ele>19.42</ele>
        <time>2020-05-16T13:25:29Z</time>
      </trkpt>
      <trkpt lat="47.18121" lon="-1.58072">
        <ele>20.01</ele>
        <time>2020-05-16T13:25:31Z</time>
      </trkpt>
      <trkpt lat="47.18118" lon="-1.58088">
        <ele>19.25</ele>
        <time>2020-05-16T13:25:33Z</time>
      </trkpt>
      <trkpt lat="47.18115" lon="-1.58107">
        <ele>18.59</ele>
        <time>2020-05-16T13:25:35Z</time>
      </trkpt>
      <trkpt lat="47.18111" lon="-1.58129">
        <ele>17.69</ele>
        <time>2020-05-16T13:25:37Z</time>
      </trkpt>
      <trkpt lat="47.18107" lon="-1.5815">
        <ele>17.06</ele>
        <time>2020-05-16T13:25:39Z</time>
      </trkpt>
      <trkpt lat="47.18104" lon="-1.58168">
        <ele>16.52</ele>
        <time>2020-05-16T13:25:41Z</time>
      </trkpt>
      <trkpt lat="47.181" lon="-1.58188">
        <ele>16.79</ele>
        <time>2020-05-16T13:25:43Z</time>
      </trkpt>
      <trkpt lat="47.18096" lon="-1.58208">
        <ele>16.99</ele>
        <time>2020-05-16T13:25:45Z</time>
      </trkpt>
      <trkpt lat="47.18092" lon="-1.58226">
        <ele>15.88</ele>
        <time>2020-05-16T13:25:47Z</time>
      </trkpt>
      <trkpt lat="47.18088" lon="-1.58246">
        <ele>16.13</ele>
        <time>2020-05-16T13:25:49Z</time>
      </trkpt>
      <trkpt lat="47.18086" lon="-1.58264">
        <ele>15.6</ele>
        <time>2020-05-16T13:25:51Z</time>
      </trkpt>
      <trkpt lat="47.18084" lon="-1.58284">
        <ele>14.59</ele>
        <time>2020-05-16T13:25:53Z</time>
      </trkpt>
      <trkpt lat="47.18084" lon="-1.58301">
        <ele>13.44</ele>
        <time>2020-05-16T13:25:55Z</time>
      </trkpt>
      <trkpt lat="47.18086" lon="-1.58318">
        <ele>12.54</ele>
        <time>2020-05-16T13:25:57Z</time>
      </trkpt>
      <trkpt lat="47.18089" lon="-1.58339">
        <ele>11.25</ele>
        <time>2020-05-16T13:25:59Z</time>
      </trkpt>
      <trkpt lat="47.18093" lon="-1.58359">
        <ele>10.94</ele>
        <time>2020-05-16T13:26:01Z</time>
      </trkpt>
      <trkpt lat="47.18097" lon="-1.58378">
        <ele>10.85</ele>
        <time>2020-05-16T13:26:03Z</time>
      </trkpt>
      <trkpt lat="47.18101" lon="-1.58394">
        <ele>11.6</ele>
        <time>2020-05-16T13:26:05Z</time>
      </trkpt>
      <trkpt lat="47.18107" lon="-1.5841">
        <ele>11.72</ele>
        <time>2020-05-16T13:26:07Z</time>
      </trkpt>
      <trkpt lat="47.18114" lon="-1.58423">
        <ele>11.47</ele>
        <time>2020-05-16T13:26:09Z</time>
      </trkpt>
      <trkpt lat="47.18121" lon="-1.58439">
        <ele>10.31</ele>
        <time>2020-05-16T13:26:11Z</time>
      </trkpt>
      <trkpt lat="47.18122" lon="-1.58456">
        <ele>10.96</ele>
        <time>2020-05-16T13:26:14Z</time>
      </trkpt>
      <trkpt lat="47.18117" lon="-1.58475">
        <ele>12.14</ele>
        <time>2020-05-16T13:26:16Z</time>
      </trkpt>
      <trkpt lat="47.18115" lon="-1.58493">
        <ele>12.79</ele>
        <time>2020-05-16T13:26:18Z</time>
      </trkpt>
      <trkpt lat="47.18114" lon="-1.58512">
        <ele>14.13</ele>
        <time>2020-05-16T13:26:20Z</time>
      </trkpt>
      <trkpt lat="47.18113" lon="-1.58529">
        <ele>15.4</ele>
        <time>2020-05-16T13:26:22Z</time>
      </trkpt>
      <trkpt lat="47.18112" lon="-1.58546">
        <ele>15.71</ele>
        <time>2020-05-16T13:26:24Z</time>
      </trkpt>
      <trkpt lat="47.18112" lon="-1.58563">
        <ele>15.19</ele>
        <time>2020-05-16T13:26:26Z</time>
      </trkpt>
      <trkpt lat="47.18109" lon="-1.58584">
        <ele>14.6</ele>
        <time>2020-05-16T13:26:28Z</time>
      </trkpt>
      <trkpt lat="47.18105" lon="-1.58602">
        <ele>14.52</ele>
        <time>2020-05-16T13:26:30Z</time>
      </trkpt>
      <trkpt lat="47.18099" lon="-1.58619">
        <ele>15.78</ele>
        <time>2020-05-16T13:26:32Z</time>
      </trkpt>
      <trkpt lat="47.18094" lon="-1.58635">
        <ele>16.47</ele>
        <time>2020-05-16T13:26:34Z</time>
      </trkpt>
      <trkpt lat="47.18089" lon="-1.58652">
        <ele>16.84</ele>
        <time>2020-05-16T13:26:36Z</time>
      </trkpt>
      <trkpt lat="47.18083" lon="-1.58669">
        <ele>18.04</ele>
        <time>2020-05-16T13:26:38Z</time>
      </trkpt>
      <trkpt lat="47.18077" lon="-1.58685">
        <ele>19.26</ele>
        <time>2020-05-16T13:26:40Z</time>
      </trkpt>
      <trkpt lat="47.1807" lon="-1.58702">
        <ele>19.72</ele>
        <time>2020-05-16T13:26:42Z</time>
      </trkpt>
      <trkpt lat="47.18064" lon="-1.58719">
        <ele>19.69</ele>
        <time>2020-05-16T13:26:44Z</time>
      </trkpt>
      <trkpt lat="47.18056" lon="-1.58736">
        <ele>19.47</ele>
        <time>2020-05-16T13:26:46Z</time>
      </trkpt>
      <trkpt lat="47.18048" lon="-1.58754">
        <ele>18.72</ele>
        <time>2020-05-16T13:26:48Z</time>
      </trkpt>
      <trkpt lat="47.18039" lon="-1.5877">
        <ele>18.5</ele>
        <time>2020-05-16T13:26:50Z</time>
      </trkpt>
      <trkpt lat="47.1803" lon="-1.58787">
        <ele>18.51</ele>
        <time>2020-05-16T13:26:52Z</time>
      </trkpt>
      <trkpt lat="47.18023" lon="-1.58802">
        <ele>18.88</ele>
        <time>2020-05-16T13:26:54Z</time>
      </trkpt>
      <trkpt lat="47.18017" lon="-1.58815">
        <ele>18.49</ele>
        <time>2020-05-16T13:26:56Z</time>
      </trkpt>
      <trkpt lat="47.18009" lon="-1.58833">
        <ele>17.88</ele>
        <time>2020-05-16T13:26:58Z</time>
      </trkpt>
      <trkpt lat="47.18002" lon="-1.58849">
        <ele>17.21</ele>
        <time>2020-05-16T13:27:00Z</time>
      </trkpt>
      <trkpt lat="47.17997" lon="-1.58861">
        <ele>17.16</ele>
        <time>2020-05-16T13:27:02Z</time>
      </trkpt>
      <trkpt lat="47.17992" lon="-1.58876">
        <ele>18.12</ele>
        <time>2020-05-16T13:27:04Z</time>
      </trkpt>
      <trkpt lat="47.17988" lon="-1.58889">
        <ele>18.45</ele>
        <time>2020-05-16T13:27:06Z</time>
      </trkpt>
      <trkpt lat="47.17982" lon="-1.58901">
        <ele>18.34</ele>
        <time>2020-05-16T13:27:08Z</time>
      </trkpt>
      <trkpt lat="47.17978" lon="-1.58915">
        <ele>18.41</ele>
        <time>2020-05-16T13:27:10Z</time>
      </trkpt>
      <trkpt lat="47.17976" lon="-1.58934">
        <ele>18.56</ele>
        <time>2020-05-16T13:27:12Z</time>
      </trkpt>
      <trkpt lat="47.17973" lon="-1.58948">
        <ele>18.71</ele>
        <time>2020-05-16T13:27:14Z</time>
      </trkpt>
      <trkpt lat="47.17967" lon="-1.58967">
        <ele>18.66</ele>
        <time>2020-05-16T13:27:16Z</time>
      </trkpt>
      <trkpt lat="47.17961" lon="-1.58981">
        <ele>18.65</ele>
        <time>2020-05-16T13:27:18Z</time>
      </trkpt>
      <trkpt lat="47.17952" lon="-1.58996">
        <ele>18.85</ele>
        <time>2020-05-16T13:27:20Z</time>
      </trkpt>
      <trkpt lat="47.17944" lon="-1.5901">
        <ele>19.15</ele>
        <time>2020-05-16T13:27:22Z</time>
      </trkpt>
      <trkpt lat="47.17938" lon="-1.59021">
        <ele>19.51</ele>
        <time>2020-05-16T13:27:24Z</time>
      </trkpt>
      <trkpt lat="47.1793" lon="-1.59035">
        <ele>20.93</ele>
        <time>2020-05-16T13:27:26Z</time>
      </trkpt>
      <trkpt lat="47.17922" lon="-1.59049">
        <ele>21.86</ele>
        <time>2020-05-16T13:27:28Z</time>
      </trkpt>
      <trkpt lat="47.17913" lon="-1.59061">
        <ele>22.22</ele>
        <time>2020-05-16T13:27:30Z</time>
      </trkpt>
      <trkpt lat="47.17903" lon="-1.59074">
        <ele>22.49</ele>
        <time>2020-05-16T13:27:32Z</time>
      </trkpt>
      <trkpt lat="47.17892" lon="-1.59088">
        <ele>22.11</ele>
        <time>2020-05-16T13:27:34Z</time>
      </trkpt>
      <trkpt lat="47.17882" lon="-1.591">
        <ele>20.6</ele>
        <time>2020-05-16T13:27:36Z</time>
      </trkpt>
      <trkpt lat="47.17871" lon="-1.59113">
        <ele>19.93</ele>
        <time>2020-05-16T13:27:38Z</time>
      </trkpt>
      <trkpt lat="47.17863" lon="-1.59122">
        <ele>19.5</ele>
        <time>2020-05-16T13:27:40Z</time>
      </trkpt>
      <trkpt lat="47.17855" lon="-1.59134">
        <ele>19.23</ele>
        <time>2020-05-16T13:27:42Z</time>
      </trkpt>
      <trkpt lat="47.17846" lon="-1.59148">
        <ele>18.78</ele>
        <time>2020-05-16T13:27:44Z</time>
      </trkpt>
      <trkpt lat="47.17838" lon="-1.59159">
        <ele>18.01</ele>
        <time>2020-05-16T13:27:46Z</time>
      </trkpt>
      <trkpt lat="47.1783" lon="-1.5917">
        <ele>17.67</ele>
        <time>2020-05-16T13:27:48Z</time>
      </trkpt>
      <trkpt lat="47.17824" lon="-1.59184">
        <ele>16.86</ele>
        <time>2020-05-16T13:27:50Z</time>
      </trkpt>
      <trkpt lat="47.17828" lon="-1.59199">
        <ele>15.17</ele>
        <time>2020-05-16T13:27:52Z</time>
      </trkpt>
      <trkpt lat="47.17841" lon="-1.59207">
        <ele>15.37</ele>
        <time>2020-05-16T13:27:54Z</time>
      </trkpt>
      <trkpt lat="47.17854" lon="-1.59219">
        <ele>15.74</ele>
        <time>2020-05-16T13:27:56Z</time>
      </trkpt>
      <trkpt lat="47.17865" lon="-1.59233">
        <ele>16.65</ele>
        <time>2020-05-16T13:27:58Z</time>
      </trkpt>
      <trkpt lat="47.17871" lon="-1.59244">
        <ele>16.65</ele>
        <time>2020-05-16T13:28:00Z</time>
      </trkpt>
      <trkpt lat="47.1788" lon="-1.59257">
        <ele>16.31</ele>
        <time>2020-05-16T13:28:02Z</time>
      </trkpt>
      <trkpt lat="47.17889" lon="-1.59268">
        <ele>16.09</ele>
        <time>2020-05-16T13:28:04Z</time>
      </trkpt>
      <trkpt lat="47.179" lon="-1.5928">
        <ele>15.86</ele>
        <time>2020-05-16T13:28:06Z</time>
      </trkpt>
      <trkpt lat="47.17911" lon="-1.59292">
        <ele>14.42</ele>
        <time>2020-05-16T13:28:08Z</time>
      </trkpt>
      <trkpt lat="47.17919" lon="-1.59303">
        <ele>15.5</ele>
        <time>2020-05-16T13:28:10Z</time>
      </trkpt>
      <trkpt lat="47.17928" lon="-1.59317">
        <ele>16.01</ele>
        <time>2020-05-16T13:28:12Z</time>
      </trkpt>
      <trkpt lat="47.17934" lon="-1.59327">
        <ele>15.27</ele>
        <time>2020-05-16T13:28:14Z</time>
      </trkpt>
      <trkpt lat="47.17944" lon="-1.59341">
        <ele>14.77</ele>
        <time>2020-05-16T13:28:16Z</time>
      </trkpt>
      <trkpt lat="47.17954" lon="-1.59352">
        <ele>13.67</ele>
        <time>2020-05-16T13:28:18Z</time>
      </trkpt>
      <trkpt lat="47.17965" lon="-1.59365">
        <ele>13.54</ele>
        <time>2020-05-16T13:28:20Z</time>
      </trkpt>
      <trkpt lat="47.17976" lon="-1.59374">
        <ele>13.89</ele>
        <time>2020-05-16T13:28:22Z</time>
      </trkpt>
      <trkpt lat="47.17988" lon="-1.59384">
        <ele>15.66</ele>
        <time>2020-05-16T13:28:24Z</time>
      </trkpt>
      <trkpt lat="47.17998" lon="-1.59392">
        <ele>16.83</ele>
        <time>2020-05-16T13:28:26Z</time>
      </trkpt>
      <trkpt lat="47.18011" lon="-1.594">
        <ele>17.61</ele>
        <time>2020-05-16T13:28:28Z</time>
      </trkpt>
      <trkpt lat="47.18023" lon="-1.59405">
        <ele>17.76</ele>
        <time>2020-05-16T13:28:30Z</time>
      </trkpt>
      <trkpt lat="47.18035" lon="-1.59408">
        <ele>17.9</ele>
        <time>2020-05-16T13:28:32Z</time>
      </trkpt>
      <trkpt lat="47.18046" lon="-1.59408">
        <ele>18.36</ele>
        <time>2020-05-16T13:28:34Z</time>
      </trkpt>
      <trkpt lat="47.18057" lon="-1.59409">
        <ele>18.54</ele>
        <time>2020-05-16T13:28:36Z</time>
      </trkpt>
      <trkpt lat="47.18067" lon="-1.59411">
        <ele>17.68</ele>
        <time>2020-05-16T13:28:38Z</time>
      </trkpt>
      <trkpt lat="47.18068" lon="-1.59429">
        <ele>15.16</ele>
        <time>2020-05-16T13:28:41Z</time>
      </trkpt>
      <trkpt lat="47.18059" lon="-1.59439">
        <ele>15.54</ele>
        <time>2020-05-16T13:28:43Z</time>
      </trkpt>
      <trkpt lat="47.1805" lon="-1.59454">
        <ele>16.81</ele>
        <time>2020-05-16T13:28:45Z</time>
      </trkpt>
      <trkpt lat="47.18042" lon="-1.5947">
        <ele>18.04</ele>
        <time>2020-05-16T13:28:47Z</time>
      </trkpt>
      <trkpt lat="47.18035" lon="-1.59487">
        <ele>17.91</ele>
        <time>2020-05-16T13:28:49Z</time>
      </trkpt>
      <trkpt lat="47.1803" lon="-1.59502">
        <ele>18.95</ele>
        <time>2020-05-16T13:28:51Z</time>
      </trkpt>
      <trkpt lat="47.18026" lon="-1.59518">
        <ele>20.07</ele>
        <time>2020-05-16T13:28:53Z</time>
      </trkpt>
      <trkpt lat="47.18021" lon="-1.59537">
        <ele>19.01</ele>
        <time>2020-05-16T13:28:55Z</time>
      </trkpt>
      <trkpt lat="47.18017" lon="-1.59555">
        <ele>18.32</ele>
        <time>2020-05-16T13:28:57Z</time>
      </trkpt>
      <trkpt lat="47.18012" lon="-1.59573">
        <ele>17.27</ele>
        <time>2020-05-16T13:28:59Z</time>
      </trkpt>
      <trkpt lat="47.18006" lon="-1.59594">
        <ele>14.97</ele>
        <time>2020-05-16T13:29:01Z</time>
      </trkpt>
      <trkpt lat="47.18001" lon="-1.59612">
        <ele>14.08</ele>
        <time>2020-05-16T13:29:03Z</time>
      </trkpt>
      <trkpt lat="47.17995" lon="-1.5963">
        <ele>13.64</ele>
        <time>2020-05-16T13:29:05Z</time>
      </trkpt>
      <trkpt lat="47.1799" lon="-1.59645">
        <ele>13.14</ele>
        <time>2020-05-16T13:29:07Z</time>
      </trkpt>
      <trkpt lat="47.17985" lon="-1.59662">
        <ele>12.82</ele>
        <time>2020-05-16T13:29:09Z</time>
      </trkpt>
      <trkpt lat="47.17981" lon="-1.5968">
        <ele>12.09</ele>
        <time>2020-05-16T13:29:11Z</time>
      </trkpt>
      <trkpt lat="47.17977" lon="-1.59699">
        <ele>12.2</ele>
        <time>2020-05-16T13:29:13Z</time>
      </trkpt>
      <trkpt lat="47.17972" lon="-1.59718">
        <ele>11.08</ele>
        <time>2020-05-16T13:29:15Z</time>
      </trkpt>
      <trkpt lat="47.17966" lon="-1.59739">
        <ele>10.11</ele>
        <time>2020-05-16T13:29:17Z</time>
      </trkpt>
      <trkpt lat="47.1796" lon="-1.59761">
        <ele>9.89</ele>
        <time>2020-05-16T13:29:19Z</time>
      </trkpt>
      <trkpt lat="47.17954" lon="-1.59782">
        <ele>9.21</ele>
        <time>2020-05-16T13:29:21Z</time>
      </trkpt>
      <trkpt lat="47.17947" lon="-1.59806">
        <ele>8.47</ele>
        <time>2020-05-16T13:29:23Z</time>
      </trkpt>
      <trkpt lat="47.17943" lon="-1.59828">
        <ele>7.55</ele>
        <time>2020-05-16T13:29:25Z</time>
      </trkpt>
      <trkpt lat="47.17939" lon="-1.59853">
        <ele>5.82</ele>
        <time>2020-05-16T13:29:27Z</time>
      </trkpt>
      <trkpt lat="47.17937" lon="-1.59867">
        <ele>5.55</ele>
        <time>2020-05-16T13:29:28Z</time>
      </trkpt>
      <trkpt lat="47.17932" lon="-1.59891">
        <ele>4.69</ele>
        <time>2020-05-16T13:29:30Z</time>
      </trkpt>
      <trkpt lat="47.17927" lon="-1.59917">
        <ele>3.44</ele>
        <time>2020-05-16T13:29:32Z</time>
      </trkpt>
      <trkpt lat="47.17924" lon="-1.59932">
        <ele>2.57</ele>
        <time>2020-05-16T13:29:33Z</time>
      </trkpt>
      <trkpt lat="47.17919" lon="-1.59944">
        <ele>1.66</ele>
        <time>2020-05-16T13:29:34Z</time>
      </trkpt>
      <trkpt lat="47.1791" lon="-1.5995">
        <ele>1.35</ele>
        <time>2020-05-16T13:29:35Z</time>
      </trkpt>
      <trkpt lat="47.17901" lon="-1.59953">
        <ele>1.18</ele>
        <time>2020-05-16T13:29:36Z</time>
      </trkpt>
      <trkpt lat="47.17884" lon="-1.59963">
        <ele>0.45</ele>
        <time>2020-05-16T13:29:38Z</time>
      </trkpt>
      <trkpt lat="47.1787" lon="-1.59978">
        <ele>-0.97</ele>
        <time>2020-05-16T13:29:40Z</time>
      </trkpt>
      <trkpt lat="47.17861" lon="-1.59994">
        <ele>-1.99</ele>
        <time>2020-05-16T13:29:42Z</time>
      </trkpt>
      <trkpt lat="47.17851" lon="-1.60012">
        <ele>-1.63</ele>
        <time>2020-05-16T13:29:44Z</time>
      </trkpt>
      <trkpt lat="47.17843" lon="-1.60028">
        <ele>-1.48</ele>
        <time>2020-05-16T13:29:46Z</time>
      </trkpt>
      <trkpt lat="47.17833" lon="-1.60046">
        <ele>-1.99</ele>
        <time>2020-05-16T13:29:48Z</time>
      </trkpt>
      <trkpt lat="47.17825" lon="-1.6006">
        <ele>-2.66</ele>
        <time>2020-05-16T13:29:50Z</time>
      </trkpt>
      <trkpt lat="47.17818" lon="-1.60072">
        <ele>-2.37</ele>
        <time>2020-05-16T13:29:52Z</time>
      </trkpt>
      <trkpt lat="47.1781" lon="-1.60084">
        <ele>-0.78</ele>
        <time>2020-05-16T13:29:54Z</time>
      </trkpt>
      <trkpt lat="47.17804" lon="-1.60096">
        <ele>0.69</ele>
        <time>2020-05-16T13:29:56Z</time>
      </trkpt>
      <trkpt lat="47.17798" lon="-1.60108">
        <ele>2.33</ele>
        <time>2020-05-16T13:29:58Z</time>
      </trkpt>
      <trkpt lat="47.1779" lon="-1.60123">
        <ele>4.85</ele>
        <time>2020-05-16T13:30:00Z</time>
      </trkpt>
      <trkpt lat="47.17783" lon="-1.60136">
        <ele>6.49</ele>
        <time>2020-05-16T13:30:02Z</time>
      </trkpt>
      <trkpt lat="47.17775" lon="-1.60148">
        <ele>7.83</ele>
        <time>2020-05-16T13:30:05Z</time>
      </trkpt>
      <trkpt lat="47.17766" lon="-1.60165">
        <ele>8.11</ele>
        <time>2020-05-16T13:30:06Z</time>
      </trkpt>
      <trkpt lat="47.17756" lon="-1.60181">
        <ele>7.38</ele>
        <time>2020-05-16T13:30:09Z</time>
      </trkpt>
      <trkpt lat="47.17748" lon="-1.60197">
        <ele>6.42</ele>
        <time>2020-05-16T13:30:11Z</time>
      </trkpt>
      <trkpt lat="47.17744" lon="-1.60212">
        <ele>6.36</ele>
        <time>2020-05-16T13:30:13Z</time>
      </trkpt>
      <trkpt lat="47.1774" lon="-1.60232">
        <ele>7.84</ele>
        <time>2020-05-16T13:30:16Z</time>
      </trkpt>
      <trkpt lat="47.17736" lon="-1.60249">
        <ele>8.75</ele>
        <time>2020-05-16T13:30:18Z</time>
      </trkpt>
      <trkpt lat="47.17732" lon="-1.60266">
        <ele>9.53</ele>
        <time>2020-05-16T13:30:20Z</time>
      </trkpt>
      <trkpt lat="47.17725" lon="-1.60284">
        <ele>12</ele>
        <time>2020-05-16T13:30:23Z</time>
      </trkpt>
      <trkpt lat="47.17717" lon="-1.60298">
        <ele>13.25</ele>
        <time>2020-05-16T13:30:25Z</time>
      </trkpt>
      <trkpt lat="47.17709" lon="-1.6031">
        <ele>14.07</ele>
        <time>2020-05-16T13:30:27Z</time>
      </trkpt>
      <trkpt lat="47.17701" lon="-1.60322">
        <ele>15.3</ele>
        <time>2020-05-16T13:30:29Z</time>
      </trkpt>
      <trkpt lat="47.17693" lon="-1.60335">
        <ele>15.26</ele>
        <time>2020-05-16T13:30:31Z</time>
      </trkpt>
      <trkpt lat="47.17683" lon="-1.60349">
        <ele>14.17</ele>
        <time>2020-05-16T13:30:33Z</time>
      </trkpt>
      <trkpt lat="47.17674" lon="-1.60361">
        <ele>12.66</ele>
        <time>2020-05-16T13:30:35Z</time>
      </trkpt>
      <trkpt lat="47.17667" lon="-1.60371">
        <ele>12.39</ele>
        <time>2020-05-16T13:30:37Z</time>
      </trkpt>
      <trkpt lat="47.17658" lon="-1.60384">
        <ele>12.73</ele>
        <time>2020-05-16T13:30:39Z</time>
      </trkpt>
      <trkpt lat="47.17649" lon="-1.60399">
        <ele>12.52</ele>
        <time>2020-05-16T13:30:41Z</time>
      </trkpt>
      <trkpt lat="47.1764" lon="-1.60414">
        <ele>12.53</ele>
        <time>2020-05-16T13:30:43Z</time>
      </trkpt>
      <trkpt lat="47.17631" lon="-1.60429">
        <ele>12.78</ele>
        <time>2020-05-16T13:30:45Z</time>
      </trkpt>
      <trkpt lat="47.17622" lon="-1.60444">
        <ele>13.21</ele>
        <time>2020-05-16T13:30:47Z</time>
      </trkpt>
      <trkpt lat="47.17611" lon="-1.6046">
        <ele>12.98</ele>
        <time>2020-05-16T13:30:49Z</time>
      </trkpt>
      <trkpt lat="47.176" lon="-1.60476">
        <ele>12.72</ele>
        <time>2020-05-16T13:30:51Z</time>
      </trkpt>
      <trkpt lat="47.17589" lon="-1.60492">
        <ele>12.49</ele>
        <time>2020-05-16T13:30:53Z</time>
      </trkpt>
      <trkpt lat="47.17579" lon="-1.60507">
        <ele>12.74</ele>
        <time>2020-05-16T13:30:55Z</time>
      </trkpt>
      <trkpt lat="47.17569" lon="-1.60522">
        <ele>12.06</ele>
        <time>2020-05-16T13:30:57Z</time>
      </trkpt>
      <trkpt lat="47.17558" lon="-1.6054">
        <ele>10.26</ele>
        <time>2020-05-16T13:30:59Z</time>
      </trkpt>
      <trkpt lat="47.17547" lon="-1.60556">
        <ele>8.37</ele>
        <time>2020-05-16T13:31:01Z</time>
      </trkpt>
      <trkpt lat="47.17537" lon="-1.60572">
        <ele>7.58</ele>
        <time>2020-05-16T13:31:03Z</time>
      </trkpt>
      <trkpt lat="47.17528" lon="-1.60586">
        <ele>6.67</ele>
        <time>2020-05-16T13:31:05Z</time>
      </trkpt>
      <trkpt lat="47.17518" lon="-1.60602">
        <ele>6.52</ele>
        <time>2020-05-16T13:31:07Z</time>
      </trkpt>
      <trkpt lat="47.17509" lon="-1.60616">
        <ele>5.91</ele>
        <time>2020-05-16T13:31:09Z</time>
      </trkpt>
      <trkpt lat="47.17501" lon="-1.60631">
        <ele>5.35</ele>
        <time>2020-05-16T13:31:11Z</time>
      </trkpt>
      <trkpt lat="47.17494" lon="-1.60643">
        <ele>5.62</ele>
        <time>2020-05-16T13:31:13Z</time>
      </trkpt>
      <trkpt lat="47.17485" lon="-1.60658">
        <ele>5.98</ele>
        <time>2020-05-16T13:31:15Z</time>
      </trkpt>
      <trkpt lat="47.17474" lon="-1.60675">
        <ele>6.19</ele>
        <time>2020-05-16T13:31:17Z</time>
      </trkpt>
      <trkpt lat="47.17465" lon="-1.60689">
        <ele>6.4</ele>
        <time>2020-05-16T13:31:19Z</time>
      </trkpt>
      <trkpt lat="47.17455" lon="-1.60706">
        <ele>6.66</ele>
        <time>2020-05-16T13:31:21Z</time>
      </trkpt>
      <trkpt lat="47.17446" lon="-1.60723">
        <ele>7.45</ele>
        <time>2020-05-16T13:31:23Z</time>
      </trkpt>
      <trkpt lat="47.17439" lon="-1.60736">
        <ele>8.27</ele>
        <time>2020-05-16T13:31:25Z</time>
      </trkpt>
      <trkpt lat="47.17429" lon="-1.60754">
        <ele>9.32</ele>
        <time>2020-05-16T13:31:27Z</time>
      </trkpt>
      <trkpt lat="47.1742" lon="-1.60774">
        <ele>9.54</ele>
        <time>2020-05-16T13:31:29Z</time>
      </trkpt>
      <trkpt lat="47.17415" lon="-1.60786">
        <ele>9.07</ele>
        <time>2020-05-16T13:31:30Z</time>
      </trkpt>
      <trkpt lat="47.17406" lon="-1.60808">
        <ele>7.71</ele>
        <time>2020-05-16T13:31:32Z</time>
      </trkpt>
      <trkpt lat="47.17398" lon="-1.60831">
        <ele>5.79</ele>
        <time>2020-05-16T13:31:34Z</time>
      </trkpt>
      <trkpt lat="47.17395" lon="-1.60844">
        <ele>5.4</ele>
        <time>2020-05-16T13:31:35Z</time>
      </trkpt>
      <trkpt lat="47.17392" lon="-1.60857">
        <ele>4.86</ele>
        <time>2020-05-16T13:31:36Z</time>
      </trkpt>
      <trkpt lat="47.17389" lon="-1.60873">
        <ele>4.18</ele>
        <time>2020-05-16T13:31:37Z</time>
      </trkpt>
      <trkpt lat="47.17389" lon="-1.60888">
        <ele>3.19</ele>
        <time>2020-05-16T13:31:38Z</time>
      </trkpt>
      <trkpt lat="47.17389" lon="-1.60902">
        <ele>2.07</ele>
        <time>2020-05-16T13:31:39Z</time>
      </trkpt>
      <trkpt lat="47.17388" lon="-1.60924">
        <ele>-0.49</ele>
        <time>2020-05-16T13:31:41Z</time>
      </trkpt>
      <trkpt lat="47.1739" lon="-1.60949">
        <ele>-2.05</ele>
        <time>2020-05-16T13:31:43Z</time>
      </trkpt>
      <trkpt lat="47.17396" lon="-1.60972">
        <ele>-3.57</ele>
        <time>2020-05-16T13:31:45Z</time>
      </trkpt>
      <trkpt lat="47.17402" lon="-1.60982">
        <ele>-3.66</ele>
        <time>2020-05-16T13:31:46Z</time>
      </trkpt>
      <trkpt lat="47.17413" lon="-1.60999">
        <ele>-2.82</ele>
        <time>2020-05-16T13:31:48Z</time>
      </trkpt>
      <trkpt lat="47.1742" lon="-1.61018">
        <ele>-1.62</ele>
        <time>2020-05-16T13:31:50Z</time>
      </trkpt>
      <trkpt lat="47.17423" lon="-1.61039">
        <ele>-2.08</ele>
        <time>2020-05-16T13:31:52Z</time>
      </trkpt>
      <trkpt lat="47.17424" lon="-1.61052">
        <ele>-2.35</ele>
        <time>2020-05-16T13:31:54Z</time>
      </trkpt>
      <trkpt lat="47.17431" lon="-1.61069">
        <ele>-1.84</ele>
        <time>2020-05-16T13:31:56Z</time>
      </trkpt>
      <trkpt lat="47.17438" lon="-1.61087">
        <ele>-0.58</ele>
        <time>2020-05-16T13:31:58Z</time>
      </trkpt>
      <trkpt lat="47.17445" lon="-1.61103">
        <ele>1.92</ele>
        <time>2020-05-16T13:32:00Z</time>
      </trkpt>
      <trkpt lat="47.17452" lon="-1.61118">
        <ele>3.87</ele>
        <time>2020-05-16T13:32:02Z</time>
      </trkpt>
      <trkpt lat="47.17459" lon="-1.61135">
        <ele>6.25</ele>
        <time>2020-05-16T13:32:04Z</time>
      </trkpt>
      <trkpt lat="47.17464" lon="-1.61149">
        <ele>8.35</ele>
        <time>2020-05-16T13:32:06Z</time>
      </trkpt>
      <trkpt lat="47.1747" lon="-1.61162">
        <ele>9.95</ele>
        <time>2020-05-16T13:32:08Z</time>
      </trkpt>
      <trkpt lat="47.17477" lon="-1.61179">
        <ele>10.25</ele>
        <time>2020-05-16T13:32:10Z</time>
      </trkpt>
      <trkpt lat="47.17484" lon="-1.61194">
        <ele>9.87</ele>
        <time>2020-05-16T13:32:12Z</time>
      </trkpt>
      <trkpt lat="47.17491" lon="-1.6121">
        <ele>9.58</ele>
        <time>2020-05-16T13:32:14Z</time>
      </trkpt>
      <trkpt lat="47.17497" lon="-1.61224">
        <ele>9.79</ele>
        <time>2020-05-16T13:32:16Z</time>
      </trkpt>
      <trkpt lat="47.17503" lon="-1.61239">
        <ele>9.06</ele>
        <time>2020-05-16T13:32:18Z</time>
      </trkpt>
      <trkpt lat="47.17509" lon="-1.61254">
        <ele>8.67</ele>
        <time>2020-05-16T13:32:20Z</time>
      </trkpt>
      <trkpt lat="47.17515" lon="-1.61265">
        <ele>9.21</ele>
        <time>2020-05-16T13:32:22Z</time>
      </trkpt>
      <trkpt lat="47.17524" lon="-1.61278">
        <ele>8.2</ele>
        <time>2020-05-16T13:32:24Z</time>
      </trkpt>
      <trkpt lat="47.17534" lon="-1.61291">
        <ele>7.81</ele>
        <time>2020-05-16T13:32:26Z</time>
      </trkpt>
      <trkpt lat="47.17545" lon="-1.61303">
        <ele>8.1</ele>
        <time>2020-05-16T13:32:28Z</time>
      </trkpt>
      <trkpt lat="47.17558" lon="-1.61313">
        <ele>9.15</ele>
        <time>2020-05-16T13:32:30Z</time>
      </trkpt>
      <trkpt lat="47.17566" lon="-1.61329">
        <ele>9.56</ele>
        <time>2020-05-16T13:32:32Z</time>
      </trkpt>
      <trkpt lat="47.17563" lon="-1.61348">
        <ele>9.27</ele>
        <time>2020-05-16T13:32:34Z</time>
      </trkpt>
      <trkpt lat="47.17551" lon="-1.61362">
        <ele>8.31</ele>
        <time>2020-05-16T13:32:36Z</time>
      </trkpt>
      <trkpt lat="47.17538" lon="-1.61373">
        <ele>7.49</ele>
        <time>2020-05-16T13:32:38Z</time>
      </trkpt>
      <trkpt lat="47.1753" lon="-1.61386">
        <ele>7.35</ele>
        <time>2020-05-16T13:32:40Z</time>
      </trkpt>
      <trkpt lat="47.17523" lon="-1.61407">
        <ele>7.26</ele>
        <time>2020-05-16T13:32:42Z</time>
      </trkpt>
      <trkpt lat="47.17517" lon="-1.61427">
        <ele>6.95</ele>
        <time>2020-05-16T13:32:44Z</time>
      </trkpt>
      <trkpt lat="47.17514" lon="-1.61444">
        <ele>5.73</ele>
        <time>2020-05-16T13:32:47Z</time>
      </trkpt>
      <trkpt lat="47.17509" lon="-1.61461">
        <ele>6.3</ele>
        <time>2020-05-16T13:32:49Z</time>
      </trkpt>
      <trkpt lat="47.17499" lon="-1.6147">
        <ele>7.56</ele>
        <time>2020-05-16T13:32:51Z</time>
      </trkpt>
      <trkpt lat="47.17483" lon="-1.61476">
        <ele>8.38</ele>
        <time>2020-05-16T13:32:53Z</time>
      </trkpt>
      <trkpt lat="47.17469" lon="-1.61481">
        <ele>8.94</ele>
        <time>2020-05-16T13:32:55Z</time>
      </trkpt>
      <trkpt lat="47.17458" lon="-1.61487">
        <ele>9</ele>
        <time>2020-05-16T13:32:57Z</time>
      </trkpt>
      <trkpt lat="47.17446" lon="-1.61493">
        <ele>9.12</ele>
        <time>2020-05-16T13:32:59Z</time>
      </trkpt>
      <trkpt lat="47.17434" lon="-1.615">
        <ele>9.67</ele>
        <time>2020-05-16T13:33:01Z</time>
      </trkpt>
      <trkpt lat="47.17424" lon="-1.61505">
        <ele>10.28</ele>
        <time>2020-05-16T13:33:03Z</time>
      </trkpt>
      <trkpt lat="47.17415" lon="-1.61512">
        <ele>11.15</ele>
        <time>2020-05-16T13:33:05Z</time>
      </trkpt>
      <trkpt lat="47.17405" lon="-1.61519">
        <ele>11.55</ele>
        <time>2020-05-16T13:33:07Z</time>
      </trkpt>
      <trkpt lat="47.17396" lon="-1.61526">
        <ele>12.67</ele>
        <time>2020-05-16T13:33:09Z</time>
      </trkpt>
      <trkpt lat="47.17385" lon="-1.61536">
        <ele>13.04</ele>
        <time>2020-05-16T13:33:11Z</time>
      </trkpt>
      <trkpt lat="47.17378" lon="-1.61545">
        <ele>14.2</ele>
        <time>2020-05-16T13:33:13Z</time>
      </trkpt>
      <trkpt lat="47.17368" lon="-1.61555">
        <ele>15.91</ele>
        <time>2020-05-16T13:33:15Z</time>
      </trkpt>
      <trkpt lat="47.17359" lon="-1.61564">
        <ele>16.65</ele>
        <time>2020-05-16T13:33:17Z</time>
      </trkpt>
      <trkpt lat="47.17351" lon="-1.61574">
        <ele>16.45</ele>
        <time>2020-05-16T13:33:19Z</time>
      </trkpt>
      <trkpt lat="47.17343" lon="-1.61583">
        <ele>16.65</ele>
        <time>2020-05-16T13:33:21Z</time>
      </trkpt>
      <trkpt lat="47.17335" lon="-1.61593">
        <ele>17.3</ele>
        <time>2020-05-16T13:33:23Z</time>
      </trkpt>
      <trkpt lat="47.17326" lon="-1.61605">
        <ele>17.68</ele>
        <time>2020-05-16T13:33:25Z</time>
      </trkpt>
      <trkpt lat="47.17316" lon="-1.6162">
        <ele>17.6</ele>
        <time>2020-05-16T13:33:27Z</time>
      </trkpt>
      <trkpt lat="47.17305" lon="-1.61633">
        <ele>17.36</ele>
        <time>2020-05-16T13:33:29Z</time>
      </trkpt>
      <trkpt lat="47.17297" lon="-1.61644">
        <ele>16.36</ele>
        <time>2020-05-16T13:33:31Z</time>
      </trkpt>
      <trkpt lat="47.1729" lon="-1.61656">
        <ele>16.65</ele>
        <time>2020-05-16T13:33:33Z</time>
      </trkpt>
      <trkpt lat="47.17281" lon="-1.6167">
        <ele>16.63</ele>
        <time>2020-05-16T13:33:35Z</time>
      </trkpt>
      <trkpt lat="47.17276" lon="-1.61682">
        <ele>16.12</ele>
        <time>2020-05-16T13:33:37Z</time>
      </trkpt>
      <trkpt lat="47.17269" lon="-1.61696">
        <ele>16.5</ele>
        <time>2020-05-16T13:33:39Z</time>
      </trkpt>
      <trkpt lat="47.17261" lon="-1.61713">
        <ele>17.22</ele>
        <time>2020-05-16T13:33:41Z</time>
      </trkpt>
      <trkpt lat="47.17255" lon="-1.61727">
        <ele>16.89</ele>
        <time>2020-05-16T13:33:43Z</time>
      </trkpt>
      <trkpt lat="47.17249" lon="-1.61739">
        <ele>16.88</ele>
        <time>2020-05-16T13:33:45Z</time>
      </trkpt>
      <trkpt lat="47.17243" lon="-1.61756">
        <ele>15.6</ele>
        <time>2020-05-16T13:33:47Z</time>
      </trkpt>
      <trkpt lat="47.17241" lon="-1.61774">
        <ele>14.65</ele>
        <time>2020-05-16T13:33:49Z</time>
      </trkpt>
      <trkpt lat="47.17232" lon="-1.6179">
        <ele>14.16</ele>
        <time>2020-05-16T13:33:51Z</time>
      </trkpt>
      <trkpt lat="47.17221" lon="-1.61799">
        <ele>13.9</ele>
        <time>2020-05-16T13:33:53Z</time>
      </trkpt>
      <trkpt lat="47.1721" lon="-1.6181">
        <ele>12.88</ele>
        <time>2020-05-16T13:33:55Z</time>
      </trkpt>
      <trkpt lat="47.17199" lon="-1.61819">
        <ele>12.25</ele>
        <time>2020-05-16T13:33:57Z</time>
      </trkpt>
      <trkpt lat="47.17188" lon="-1.61828">
        <ele>12.05</ele>
        <time>2020-05-16T13:33:59Z</time>
      </trkpt>
      <trkpt lat="47.17177" lon="-1.61837">
        <ele>11.61</ele>
        <time>2020-05-16T13:34:01Z</time>
      </trkpt>
      <trkpt lat="47.17167" lon="-1.61847">
        <ele>11.62</ele>
        <time>2020-05-16T13:34:03Z</time>
      </trkpt>
      <trkpt lat="47.17155" lon="-1.61858">
        <ele>11.24</ele>
        <time>2020-05-16T13:34:05Z</time>
      </trkpt>
      <trkpt lat="47.17145" lon="-1.61868">
        <ele>11.38</ele>
        <time>2020-05-16T13:34:07Z</time>
      </trkpt>
      <trkpt lat="47.17134" lon="-1.6188">
        <ele>10.96</ele>
        <time>2020-05-16T13:34:09Z</time>
      </trkpt>
      <trkpt lat="47.17123" lon="-1.6189">
        <ele>10.05</ele>
        <time>2020-05-16T13:34:11Z</time>
      </trkpt>
      <trkpt lat="47.17115" lon="-1.61899">
        <ele>10.43</ele>
        <time>2020-05-16T13:34:13Z</time>
      </trkpt>
      <trkpt lat="47.17104" lon="-1.61908">
        <ele>11.26</ele>
        <time>2020-05-16T13:34:15Z</time>
      </trkpt>
      <trkpt lat="47.17094" lon="-1.6192">
        <ele>11.41</ele>
        <time>2020-05-16T13:34:17Z</time>
      </trkpt>
      <trkpt lat="47.17084" lon="-1.61929">
        <ele>12</ele>
        <time>2020-05-16T13:34:19Z</time>
      </trkpt>
      <trkpt lat="47.17075" lon="-1.61938">
        <ele>12.94</ele>
        <time>2020-05-16T13:34:21Z</time>
      </trkpt>
      <trkpt lat="47.17063" lon="-1.61948">
        <ele>14.19</ele>
        <time>2020-05-16T13:34:23Z</time>
      </trkpt>
      <trkpt lat="47.17053" lon="-1.61958">
        <ele>14.78</ele>
        <time>2020-05-16T13:34:25Z</time>
      </trkpt>
      <trkpt lat="47.17042" lon="-1.61972">
        <ele>14.7</ele>
        <time>2020-05-16T13:34:27Z</time>
      </trkpt>
      <trkpt lat="47.17033" lon="-1.61985">
        <ele>13.8</ele>
        <time>2020-05-16T13:34:29Z</time>
      </trkpt>
      <trkpt lat="47.17025" lon="-1.61999">
        <ele>13.62</ele>
        <time>2020-05-16T13:34:31Z</time>
      </trkpt>
      <trkpt lat="47.17016" lon="-1.62012">
        <ele>14.02</ele>
        <time>2020-05-16T13:34:33Z</time>
      </trkpt>
      <trkpt lat="47.17008" lon="-1.62025">
        <ele>14.06</ele>
        <time>2020-05-16T13:34:35Z</time>
      </trkpt>
      <trkpt lat="47.16999" lon="-1.62039">
        <ele>14.03</ele>
        <time>2020-05-16T13:34:37Z</time>
      </trkpt>
      <trkpt lat="47.1699" lon="-1.62054">
        <ele>13.46</ele>
        <time>2020-05-16T13:34:39Z</time>
      </trkpt>
      <trkpt lat="47.16982" lon="-1.6207">
        <ele>12.44</ele>
        <time>2020-05-16T13:34:41Z</time>
      </trkpt>
      <trkpt lat="47.16973" lon="-1.62085">
        <ele>11.4</ele>
        <time>2020-05-16T13:34:43Z</time>
      </trkpt>
      <trkpt lat="47.16966" lon="-1.62099">
        <ele>10.51</ele>
        <time>2020-05-16T13:34:45Z</time>
      </trkpt>
      <trkpt lat="47.16957" lon="-1.62114">
        <ele>9.51</ele>
        <time>2020-05-16T13:34:47Z</time>
      </trkpt>
      <trkpt lat="47.16952" lon="-1.62128">
        <ele>9.96</ele>
        <time>2020-05-16T13:34:49Z</time>
      </trkpt>
      <trkpt lat="47.16943" lon="-1.62143">
        <ele>10.44</ele>
        <time>2020-05-16T13:34:51Z</time>
      </trkpt>
      <trkpt lat="47.16935" lon="-1.62159">
        <ele>10.7</ele>
        <time>2020-05-16T13:34:53Z</time>
      </trkpt>
      <trkpt lat="47.16926" lon="-1.62175">
        <ele>10.87</ele>
        <time>2020-05-16T13:34:55Z</time>
      </trkpt>
      <trkpt lat="47.16919" lon="-1.62191">
        <ele>11.22</ele>
        <time>2020-05-16T13:34:57Z</time>
      </trkpt>
      <trkpt lat="47.16913" lon="-1.62203">
        <ele>12.3</ele>
        <time>2020-05-16T13:34:59Z</time>
      </trkpt>
      <trkpt lat="47.16904" lon="-1.62218">
        <ele>12.49</ele>
        <time>2020-05-16T13:35:01Z</time>
      </trkpt>
      <trkpt lat="47.16896" lon="-1.6223">
        <ele>13</ele>
        <time>2020-05-16T13:35:03Z</time>
      </trkpt>
      <trkpt lat="47.16888" lon="-1.62241">
        <ele>12.61</ele>
        <time>2020-05-16T13:35:05Z</time>
      </trkpt>
      <trkpt lat="47.16878" lon="-1.62254">
        <ele>12.58</ele>
        <time>2020-05-16T13:35:07Z</time>
      </trkpt>
      <trkpt lat="47.16867" lon="-1.62267">
        <ele>12.39</ele>
        <time>2020-05-16T13:35:09Z</time>
      </trkpt>
      <trkpt lat="47.16857" lon="-1.62279">
        <ele>12.4</ele>
        <time>2020-05-16T13:35:11Z</time>
      </trkpt>
      <trkpt lat="47.16846" lon="-1.62291">
        <ele>13.03</ele>
        <time>2020-05-16T13:35:13Z</time>
      </trkpt>
      <trkpt lat="47.16835" lon="-1.62305">
        <ele>12.83</ele>
        <time>2020-05-16T13:35:15Z</time>
      </trkpt>
      <trkpt lat="47.16825" lon="-1.62317">
        <ele>12.47</ele>
        <time>2020-05-16T13:35:17Z</time>
      </trkpt>
      <trkpt lat="47.16816" lon="-1.62325">
        <ele>12.88</ele>
        <time>2020-05-16T13:35:19Z</time>
      </trkpt>
      <trkpt lat="47.16806" lon="-1.62333">
        <ele>13.54</ele>
        <time>2020-05-16T13:35:21Z</time>
      </trkpt>
      <trkpt lat="47.16794" lon="-1.62341">
        <ele>14.03</ele>
        <time>2020-05-16T13:35:23Z</time>
      </trkpt>
      <trkpt lat="47.16781" lon="-1.62347">
        <ele>14.22</ele>
        <time>2020-05-16T13:35:25Z</time>
      </trkpt>
      <trkpt lat="47.16768" lon="-1.62354">
        <ele>14.13</ele>
        <time>2020-05-16T13:35:27Z</time>
      </trkpt>
      <trkpt lat="47.16757" lon="-1.62361">
        <ele>14.5</ele>
        <time>2020-05-16T13:35:29Z</time>
      </trkpt>
      <trkpt lat="47.16743" lon="-1.62371">
        <ele>15.63</ele>
        <time>2020-05-16T13:35:31Z</time>
      </trkpt>
      <trkpt lat="47.16735" lon="-1.62386">
        <ele>15.72</ele>
        <time>2020-05-16T13:35:33Z</time>
      </trkpt>
      <trkpt lat="47.16728" lon="-1.62405">
        <ele>15.23</ele>
        <time>2020-05-16T13:35:35Z</time>
      </trkpt>
      <trkpt lat="47.16725" lon="-1.62422">
        <ele>14.76</ele>
        <time>2020-05-16T13:35:37Z</time>
      </trkpt>
      <trkpt lat="47.16723" lon="-1.62441">
        <ele>13.39</ele>
        <time>2020-05-16T13:35:39Z</time>
      </trkpt>
      <trkpt lat="47.1672" lon="-1.62461">
        <ele>12.15</ele>
        <time>2020-05-16T13:35:41Z</time>
      </trkpt>
      <trkpt lat="47.16714" lon="-1.62478">
        <ele>11.07</ele>
        <time>2020-05-16T13:35:43Z</time>
      </trkpt>
      <trkpt lat="47.1671" lon="-1.62497">
        <ele>11.08</ele>
        <time>2020-05-16T13:35:45Z</time>
      </trkpt>
      <trkpt lat="47.16719" lon="-1.62512">
        <ele>10.66</ele>
        <time>2020-05-16T13:35:47Z</time>
      </trkpt>
      <trkpt lat="47.16731" lon="-1.62513">
        <ele>11.08</ele>
        <time>2020-05-16T13:35:49Z</time>
      </trkpt>
      <trkpt lat="47.16741" lon="-1.62514">
        <ele>11.35</ele>
        <time>2020-05-16T13:35:50Z</time>
      </trkpt>
      <trkpt lat="47.1675" lon="-1.62515">
        <ele>11.74</ele>
        <time>2020-05-16T13:35:51Z</time>
      </trkpt>
      <trkpt lat="47.16764" lon="-1.62518">
        <ele>12.76</ele>
        <time>2020-05-16T13:35:53Z</time>
      </trkpt>
      <trkpt lat="47.16774" lon="-1.62524">
        <ele>13.5</ele>
        <time>2020-05-16T13:35:55Z</time>
      </trkpt>
      <trkpt lat="47.16785" lon="-1.62529">
        <ele>14.86</ele>
        <time>2020-05-16T13:35:57Z</time>
      </trkpt>
      <trkpt lat="47.16797" lon="-1.62536">
        <ele>15.27</ele>
        <time>2020-05-16T13:35:59Z</time>
      </trkpt>
      <trkpt lat="47.16808" lon="-1.62544">
        <ele>15.54</ele>
        <time>2020-05-16T13:36:01Z</time>
      </trkpt>
      <trkpt lat="47.16819" lon="-1.62551">
        <ele>14.9</ele>
        <time>2020-05-16T13:36:03Z</time>
      </trkpt>
      <trkpt lat="47.16829" lon="-1.62559">
        <ele>14.26</ele>
        <time>2020-05-16T13:36:05Z</time>
      </trkpt>
      <trkpt lat="47.16837" lon="-1.62568">
        <ele>12.91</ele>
        <time>2020-05-16T13:36:07Z</time>
      </trkpt>
      <trkpt lat="47.16838" lon="-1.62583">
        <ele>10.98</ele>
        <time>2020-05-16T13:36:09Z</time>
      </trkpt>
      <trkpt lat="47.16829" lon="-1.62598">
        <ele>10.04</ele>
        <time>2020-05-16T13:36:11Z</time>
      </trkpt>
      <trkpt lat="47.16821" lon="-1.62611">
        <ele>10.93</ele>
        <time>2020-05-16T13:36:13Z</time>
      </trkpt>
      <trkpt lat="47.1681" lon="-1.62628">
        <ele>12.69</ele>
        <time>2020-05-16T13:36:15Z</time>
      </trkpt>
      <trkpt lat="47.16801" lon="-1.62642">
        <ele>14.67</ele>
        <time>2020-05-16T13:36:17Z</time>
      </trkpt>
      <trkpt lat="47.16795" lon="-1.62652">
        <ele>16.29</ele>
        <time>2020-05-16T13:36:19Z</time>
      </trkpt>
      <trkpt lat="47.16789" lon="-1.62664">
        <ele>19.21</ele>
        <time>2020-05-16T13:36:22Z</time>
      </trkpt>
      <trkpt lat="47.16778" lon="-1.62659">
        <ele>19.44</ele>
        <time>2020-05-16T13:36:27Z</time>
      </trkpt>
    </trkseg>
  </trk>
</gpx>